<?xml version='1.0' encoding='UTF-8'?><gpx version="1.1" creator="JPX - https://github.com/jenetics/jpx" xmlns="http://www.topografix.com/GPX/1/1"><trk><trkseg><trkpt lat="42.425377923389085" lon="11.627127780702857"><ele>68.0</ele><time>2026-04-18T12:09:01.999Z</time></trkpt><trkpt lat="42.42543951559101" lon="11.627082410346992"><ele>68.0</ele><time>2026-04-18T12:09:04.999Z</time></trkpt><trkpt lat="42.425501193587976" lon="11.62706169981983"><ele>68.0</ele><time>2026-04-18T12:09:06.999Z</time></trkpt><trkpt lat="42.425590351386255" lon="11.626989586690032"><ele>68.0</ele><time>2026-04-18T12:09:09.999Z</time></trkpt><trkpt lat="42.42565533493309" lon="11.626940547208884"><ele>68.0</ele><time>2026-04-18T12:09:11.999Z</time></trkpt><trkpt lat="42.42572351953442" lon="11.626900113006407"><ele>68.0</ele><time>2026-04-18T12:09:13.999Z</time></trkpt><trkpt lat="42.42578539134534" lon="11.626857216813393"><ele>68.5</ele><time>2026-04-18T12:09:15.999Z</time></trkpt><trkpt lat="42.42584796551223" lon="11.626833434474232"><ele>69.0</ele><time>2026-04-18T12:09:17.999Z</time></trkpt><trkpt lat="42.42593250694458" lon="11.62681638629741"><ele>69.5</ele><time>2026-04-18T12:09:19.999Z</time></trkpt><trkpt lat="42.42600168481082" lon="11.626806870725595"><ele>70.0</ele><time>2026-04-18T12:09:20.999Z</time></trkpt><trkpt lat="42.426075728893736" lon="11.626800447676084"><ele>70.5</ele><time>2026-04-18T12:09:21.999Z</time></trkpt><trkpt lat="42.426165554390984" lon="11.626832783187835"><ele>71.0</ele><time>2026-04-18T12:09:22.999Z</time></trkpt><trkpt lat="42.42627040138283" lon="11.626813498845886"><ele>71.0</ele><time>2026-04-18T12:09:23.999Z</time></trkpt><trkpt lat="42.42636220761866" lon="11.626806179608273"><ele>71.0</ele><time>2026-04-18T12:09:24.999Z</time></trkpt><trkpt lat="42.42645028385266" lon="11.626811594052542"><ele>71.0</ele><time>2026-04-18T12:09:25.999Z</time></trkpt><trkpt lat="42.42652695568275" lon="11.62682563115814"><ele>71.0</ele><time>2026-04-18T12:09:26.999Z</time></trkpt><trkpt lat="42.42659875935719" lon="11.626841542803247"><ele>71.0</ele><time>2026-04-18T12:09:27.999Z</time></trkpt><trkpt lat="42.426671582686964" lon="11.626859131282496"><ele>71.0</ele><time>2026-04-18T12:09:28.999Z</time></trkpt><trkpt lat="42.426750457900525" lon="11.626879329411521"><ele>71.0</ele><time>2026-04-18T12:09:29.999Z</time></trkpt><trkpt lat="42.42683566463015" lon="11.626901879765159"><ele>71.0</ele><time>2026-04-18T12:09:30.999Z</time></trkpt><trkpt lat="42.42692604383288" lon="11.626929236593412"><ele>71.0</ele><time>2026-04-18T12:09:31.999Z</time></trkpt><trkpt lat="42.427018922777165" lon="11.626961071558732"><ele>71.0</ele><time>2026-04-18T12:09:32.999Z</time></trkpt><trkpt lat="42.427111356891466" lon="11.627007930898047"><ele>71.0</ele><time>2026-04-18T12:09:33.999Z</time></trkpt><trkpt lat="42.42721403932832" lon="11.627061301734694"><ele>70.8</ele><time>2026-04-18T12:09:34.999Z</time></trkpt><trkpt lat="42.42730105369535" lon="11.627109194612792"><ele>70.6</ele><time>2026-04-18T12:09:35.999Z</time></trkpt><trkpt lat="42.42738787847591" lon="11.6271576606241"><ele>70.4</ele><time>2026-04-18T12:09:36.999Z</time></trkpt><trkpt lat="42.427490893641405" lon="11.627213509272549"><ele>70.2</ele><time>2026-04-18T12:09:37.999Z</time></trkpt><trkpt lat="42.42760234413471" lon="11.627268462713078"><ele>70.0</ele><time>2026-04-18T12:09:38.999Z</time></trkpt><trkpt lat="42.427718833751314" lon="11.627320062969115"><ele>70.0</ele><time>2026-04-18T12:09:39.999Z</time></trkpt><trkpt lat="42.4278444095602" lon="11.627342708224507"><ele>70.0</ele><time>2026-04-18T12:09:40.999Z</time></trkpt><trkpt lat="42.42796977489634" lon="11.627383796555149"><ele>70.0</ele><time>2026-04-18T12:09:41.999Z</time></trkpt><trkpt lat="42.42809456896804" lon="11.627422734052491"><ele>70.0</ele><time>2026-04-18T12:09:42.999Z</time></trkpt><trkpt lat="42.42821386657004" lon="11.62748167825463"><ele>70.25</ele><time>2026-04-18T12:09:43.999Z</time></trkpt><trkpt lat="42.42834065715375" lon="11.627495017779959"><ele>70.5</ele><time>2026-04-18T12:09:44.999Z</time></trkpt><trkpt lat="42.42846718652886" lon="11.627511433696975"><ele>70.75</ele><time>2026-04-18T12:09:45.999Z</time></trkpt><trkpt lat="42.42859616066969" lon="11.627510301567368"><ele>71.0</ele><time>2026-04-18T12:09:46.999Z</time></trkpt><trkpt lat="42.428727604888394" lon="11.627511301262823"><ele>70.75</ele><time>2026-04-18T12:09:47.999Z</time></trkpt><trkpt lat="42.428863381510084" lon="11.627480825125607"><ele>70.5</ele><time>2026-04-18T12:09:48.999Z</time></trkpt><trkpt lat="42.42899663123471" lon="11.627440020204846"><ele>70.25</ele><time>2026-04-18T12:09:49.996Z</time></trkpt><trkpt lat="42.42912124399423" lon="11.627391792714318"><ele>70.0</ele><time>2026-04-18T12:09:50.996Z</time></trkpt><trkpt lat="42.42924152243784" lon="11.627335009333894"><ele>70.0</ele><time>2026-04-18T12:09:51.997Z</time></trkpt><trkpt lat="42.42936683366779" lon="11.62727156661079"><ele>70.0</ele><time>2026-04-18T12:09:52.997Z</time></trkpt><trkpt lat="42.42950638453571" lon="11.627198176279224"><ele>70.0</ele><time>2026-04-18T12:09:53.997Z</time></trkpt><trkpt lat="42.429651056546405" lon="11.627119124445752"><ele>70.0</ele><time>2026-04-18T12:09:54.997Z</time></trkpt><trkpt lat="42.42979491234224" lon="11.62704320295023"><ele>70.33333333333333</ele><time>2026-04-18T12:09:55.997Z</time></trkpt><trkpt lat="42.42993884005347" lon="11.626972357768468"><ele>70.66666666666667</ele><time>2026-04-18T12:09:56.997Z</time></trkpt><trkpt lat="42.43008099266504" lon="11.62689915753243"><ele>71.0</ele><time>2026-04-18T12:09:57.997Z</time></trkpt><trkpt lat="42.430219941552785" lon="11.626825584663212"><ele>71.0</ele><time>2026-04-18T12:09:58.997Z</time></trkpt><trkpt lat="42.430356820765596" lon="11.62675222834161"><ele>71.0</ele><time>2026-04-18T12:09:59.997Z</time></trkpt><trkpt lat="42.430489782380306" lon="11.626680028489396"><ele>71.0</ele><time>2026-04-18T12:10:00.997Z</time></trkpt><trkpt lat="42.43061642284746" lon="11.626611468721462"><ele>71.0</ele><time>2026-04-18T12:10:01.997Z</time></trkpt><trkpt lat="42.43072529940824" lon="11.626550002383835"><ele>70.8</ele><time>2026-04-18T12:10:02.997Z</time></trkpt><trkpt lat="42.430832362419665" lon="11.626533208886856"><ele>70.6</ele><time>2026-04-18T12:10:03.997Z</time></trkpt><trkpt lat="42.43093028260152" lon="11.626556205326368"><ele>70.4</ele><time>2026-04-18T12:10:04.997Z</time></trkpt><trkpt lat="42.43100961241459" lon="11.626560278011338"><ele>70.2</ele><time>2026-04-18T12:10:05.997Z</time></trkpt><trkpt lat="42.43108197308557" lon="11.62656580556417"><ele>70.0</ele><time>2026-04-18T12:10:06.997Z</time></trkpt><trkpt lat="42.43118845264587" lon="11.626564716573796"><ele>70.0</ele><time>2026-04-18T12:10:08.998Z</time></trkpt><trkpt lat="42.431258525427694" lon="11.626628055674818"><ele>70.0</ele><time>2026-04-18T12:10:10.998Z</time></trkpt><trkpt lat="42.43130229807341" lon="11.626812345089226"><ele>70.0</ele><time>2026-04-18T12:10:12.998Z</time></trkpt><trkpt lat="42.43131864532931" lon="11.626960320812662"><ele>70.0</ele><time>2026-04-18T12:10:13.998Z</time></trkpt><trkpt lat="42.43134572006752" lon="11.627135163168264"><ele>69.25</ele><time>2026-04-18T12:10:14.998Z</time></trkpt><trkpt lat="42.431375426644045" lon="11.627312204849876"><ele>68.5</ele><time>2026-04-18T12:10:15.998Z</time></trkpt><trkpt lat="42.431411961523935" lon="11.627492700006826"><ele>67.75</ele><time>2026-04-18T12:10:16.998Z</time></trkpt><trkpt lat="42.43145120575967" lon="11.627682766233438"><ele>67.0</ele><time>2026-04-18T12:10:17.998Z</time></trkpt><trkpt lat="42.431484751447115" lon="11.627878984228984"><ele>67.0</ele><time>2026-04-18T12:10:18.998Z</time></trkpt><trkpt lat="42.43152541369492" lon="11.628078968366118"><ele>67.0</ele><time>2026-04-18T12:10:19.998Z</time></trkpt><trkpt lat="42.431562252714556" lon="11.628280121614841"><ele>67.0</ele><time>2026-04-18T12:10:20.998Z</time></trkpt><trkpt lat="42.43159358266807" lon="11.628483740480888"><ele>67.0</ele><time>2026-04-18T12:10:21.998Z</time></trkpt><trkpt lat="42.43162736322006" lon="11.628690696857447"><ele>67.0</ele><time>2026-04-18T12:10:22.998Z</time></trkpt><trkpt lat="42.43165982354896" lon="11.628896876726635"><ele>67.0</ele><time>2026-04-18T12:10:23.998Z</time></trkpt><trkpt lat="42.43169176230655" lon="11.629101197605339"><ele>67.0</ele><time>2026-04-18T12:10:24.998Z</time></trkpt><trkpt lat="42.43172550223035" lon="11.629310450887882"><ele>67.0</ele><time>2026-04-18T12:10:25.998Z</time></trkpt><trkpt lat="42.431760198416825" lon="11.629515049583965"><ele>67.0</ele><time>2026-04-18T12:10:26.998Z</time></trkpt><trkpt lat="42.43179782172865" lon="11.629722163655785"><ele>67.0</ele><time>2026-04-18T12:10:27.998Z</time></trkpt><trkpt lat="42.431834380923426" lon="11.629946584635242"><ele>67.0</ele><time>2026-04-18T12:10:28.998Z</time></trkpt><trkpt lat="42.431875368466976" lon="11.630176062346635"><ele>67.0</ele><time>2026-04-18T12:10:29.998Z</time></trkpt><trkpt lat="42.43191291594748" lon="11.63042116080522"><ele>65.33333333333333</ele><time>2026-04-18T12:10:30.999Z</time></trkpt><trkpt lat="42.43195188595679" lon="11.630664171636282"><ele>63.66666666666667</ele><time>2026-04-18T12:10:31.999Z</time></trkpt><trkpt lat="42.43200023948625" lon="11.630908009790366"><ele>62.0</ele><time>2026-04-18T12:10:32.999Z</time></trkpt><trkpt lat="42.432041015458566" lon="11.631150395518501"><ele>60.333333333333336</ele><time>2026-04-18T12:10:33.999Z</time></trkpt><trkpt lat="42.432081570350896" lon="11.63139245002146"><ele>58.66666666666667</ele><time>2026-04-18T12:10:34.999Z</time></trkpt><trkpt lat="42.43211519640538" lon="11.631634709096806"><ele>57.0</ele><time>2026-04-18T12:10:35.999Z</time></trkpt><trkpt lat="42.43215404123817" lon="11.631868437878852"><ele>58.0</ele><time>2026-04-18T12:10:36.999Z</time></trkpt><trkpt lat="42.43219019589316" lon="11.632100059001637"><ele>59.0</ele><time>2026-04-18T12:10:37.999Z</time></trkpt><trkpt lat="42.432228964569326" lon="11.632328349091997"><ele>60.0</ele><time>2026-04-18T12:10:38.999Z</time></trkpt><trkpt lat="42.432265083980255" lon="11.63253878116443"><ele>60.0</ele><time>2026-04-18T12:10:39.999Z</time></trkpt><trkpt lat="42.43229156144714" lon="11.632731400510497"><ele>60.0</ele><time>2026-04-18T12:10:40.999Z</time></trkpt><trkpt lat="42.432287414464106" lon="11.632909121789691"><ele>60.0</ele><time>2026-04-18T12:10:41.999Z</time></trkpt><trkpt lat="42.43224560526803" lon="11.633095416649851"><ele>60.0</ele><time>2026-04-18T12:10:42.999Z</time></trkpt><trkpt lat="42.432154414931716" lon="11.633278280331481"><ele>63.0</ele><time>2026-04-18T12:10:43.999Z</time></trkpt><trkpt lat="42.43202600031523" lon="11.633423058050766"><ele>66.0</ele><time>2026-04-18T12:10:44.999Z</time></trkpt><trkpt lat="42.431890400889785" lon="11.633516841963893"><ele>69.0</ele><time>2026-04-18T12:10:45.999Z</time></trkpt><trkpt lat="42.4317467885315" lon="11.633626449940667"><ele>71.0</ele><time>2026-04-18T12:10:46.999Z</time></trkpt><trkpt lat="42.431587616796755" lon="11.633709828261715"><ele>73.0</ele><time>2026-04-18T12:10:47.999Z</time></trkpt><trkpt lat="42.431430584027964" lon="11.633815911485856"><ele>75.0</ele><time>2026-04-18T12:10:48.999Z</time></trkpt><trkpt lat="42.43128235293568" lon="11.63393882913835"><ele>75.0</ele><time>2026-04-18T12:10:49.999Z</time></trkpt><trkpt lat="42.43114525081949" lon="11.63407169034999"><ele>75.0</ele><time>2026-04-18T12:10:50.999Z</time></trkpt><trkpt lat="42.43101036234468" lon="11.634208370121069"><ele>75.0</ele><time>2026-04-18T12:10:51.999Z</time></trkpt><trkpt lat="42.43087848365702" lon="11.63434340061414"><ele>76.66666666666667</ele><time>2026-04-18T12:10:52.999Z</time></trkpt><trkpt lat="42.43075270616761" lon="11.634480059362797"><ele>78.33333333333334</ele><time>2026-04-18T12:10:53.999Z</time></trkpt><trkpt lat="42.4306310116676" lon="11.634613765748712"><ele>80.0</ele><time>2026-04-18T12:10:54.999Z</time></trkpt><trkpt lat="42.430525071875714" lon="11.63475662458419"><ele>79.66666666666667</ele><time>2026-04-18T12:10:55.999Z</time></trkpt><trkpt lat="42.430428235812855" lon="11.634935821178543"><ele>79.33333333333333</ele><time>2026-04-18T12:10:56.999Z</time></trkpt><trkpt lat="42.43035711063426" lon="11.635119230031652"><ele>79.0</ele><time>2026-04-18T12:10:57.999Z</time></trkpt><trkpt lat="42.43032688205983" lon="11.635325985518822"><ele>79.66666666666666</ele><time>2026-04-18T12:10:58.999Z</time></trkpt><trkpt lat="42.43032570191371" lon="11.635548782634139"><ele>80.33333333333333</ele><time>2026-04-18T12:10:59.999Z</time></trkpt><trkpt lat="42.43034490779751" lon="11.635774029539409"><ele>81.0</ele><time>2026-04-18T12:11:00.999Z</time></trkpt><trkpt lat="42.43037222085745" lon="11.63599274548215"><ele>81.0</ele><time>2026-04-18T12:11:01.999Z</time></trkpt><trkpt lat="42.43041322539249" lon="11.636217030548742"><ele>81.0</ele><time>2026-04-18T12:11:02.999Z</time></trkpt><trkpt lat="42.43044400064985" lon="11.63643601447841"><ele>81.0</ele><time>2026-04-18T12:11:03.999Z</time></trkpt><trkpt lat="42.430469069709865" lon="11.636658653631562"><ele>81.33333333333333</ele><time>2026-04-18T12:11:04.999Z</time></trkpt><trkpt lat="42.430494237297786" lon="11.636872684089454"><ele>81.66666666666666</ele><time>2026-04-18T12:11:05.999Z</time></trkpt><trkpt lat="42.43051828598632" lon="11.637069435048884"><ele>82.0</ele><time>2026-04-18T12:11:06.999Z</time></trkpt><trkpt lat="42.43054359878612" lon="11.637262182347115"><ele>82.0</ele><time>2026-04-18T12:11:07.999Z</time></trkpt><trkpt lat="42.430568046467464" lon="11.637447020707455"><ele>82.0</ele><time>2026-04-18T12:11:08.999Z</time></trkpt><trkpt lat="42.43058804890205" lon="11.6376090907952"><ele>82.0</ele><time>2026-04-18T12:11:09.999Z</time></trkpt><trkpt lat="42.430606697164905" lon="11.637754963288149"><ele>82.0</ele><time>2026-04-18T12:11:10.999Z</time></trkpt><trkpt lat="42.43062013684095" lon="11.637868174914031"><ele>82.39999999999999</ele><time>2026-04-18T12:11:11.999Z</time></trkpt><trkpt lat="42.43063862206455" lon="11.637992371975573"><ele>82.8</ele><time>2026-04-18T12:11:13.999Z</time></trkpt><trkpt lat="42.430506580608544" lon="11.637985511683263"><ele>83.2</ele><time>2026-04-18T12:11:15.999Z</time></trkpt><trkpt lat="42.43043615563217" lon="11.638004373999626"><ele>83.6</ele><time>2026-04-18T12:11:16.999Z</time></trkpt><trkpt lat="42.43034990323036" lon="11.638045661723886"><ele>84.0</ele><time>2026-04-18T12:11:17.999Z</time></trkpt><trkpt lat="42.43025218927238" lon="11.638064618798177"><ele>84.0</ele><time>2026-04-18T12:11:18.999Z</time></trkpt><trkpt lat="42.4301551089102" lon="11.6381093443905"><ele>84.0</ele><time>2026-04-18T12:11:19.999Z</time></trkpt><trkpt lat="42.43005884540884" lon="11.638184465575476"><ele>84.0</ele><time>2026-04-18T12:11:20.999Z</time></trkpt><trkpt lat="42.42996845418686" lon="11.63827502700002"><ele>84.0</ele><time>2026-04-18T12:11:21.999Z</time></trkpt><trkpt lat="42.42988709859062" lon="11.638371406831322"><ele>84.0</ele><time>2026-04-18T12:11:22.999Z</time></trkpt><trkpt lat="42.429808159232536" lon="11.638485992716452"><ele>84.0</ele><time>2026-04-18T12:11:23.999Z</time></trkpt><trkpt lat="42.429734479342876" lon="11.638601178238966"><ele>84.0</ele><time>2026-04-18T12:11:24.999Z</time></trkpt><trkpt lat="42.42964923731433" lon="11.638708386990164"><ele>84.0</ele><time>2026-04-18T12:11:25.999Z</time></trkpt><trkpt lat="42.429555233494874" lon="11.638819004917059"><ele>84.0</ele><time>2026-04-18T12:11:26.999Z</time></trkpt><trkpt lat="42.42944779645666" lon="11.638939210602834"><ele>83.6</ele><time>2026-04-18T12:11:27.999Z</time></trkpt><trkpt lat="42.42933982340365" lon="11.63905921364174"><ele>83.2</ele><time>2026-04-18T12:11:28.999Z</time></trkpt><trkpt lat="42.42925598018481" lon="11.639162273645429"><ele>82.8</ele><time>2026-04-18T12:11:29.999Z</time></trkpt><trkpt lat="42.429187944870705" lon="11.639241462238983"><ele>82.39999999999999</ele><time>2026-04-18T12:11:30.999Z</time></trkpt><trkpt lat="42.42911105095153" lon="11.639321921008436"><ele>82.0</ele><time>2026-04-18T12:11:31.999Z</time></trkpt><trkpt lat="42.429046648023835" lon="11.639396432657774"><ele>82.16666666666666</ele><time>2026-04-18T12:11:32.999Z</time></trkpt><trkpt lat="42.428984384977156" lon="11.639487045446922"><ele>82.33333333333333</ele><time>2026-04-18T12:11:33.999Z</time></trkpt><trkpt lat="42.428928780302606" lon="11.6395639301267"><ele>82.5</ele><time>2026-04-18T12:11:34.999Z</time></trkpt><trkpt lat="42.4288656720371" lon="11.639635182648393"><ele>82.66666666666667</ele><time>2026-04-18T12:11:35.999Z</time></trkpt><trkpt lat="42.42878748023786" lon="11.639713096348125"><ele>82.83333333333334</ele><time>2026-04-18T12:11:36.999Z</time></trkpt><trkpt lat="42.42871126773626" lon="11.639793231452451"><ele>83.0</ele><time>2026-04-18T12:11:37.999Z</time></trkpt><trkpt lat="42.428643853890634" lon="11.639871319861134"><ele>83.2</ele><time>2026-04-18T12:11:38.999Z</time></trkpt><trkpt lat="42.42858264076715" lon="11.639939562749953"><ele>83.4</ele><time>2026-04-18T12:11:39.999Z</time></trkpt><trkpt lat="42.42852857990259" lon="11.640004147734578"><ele>83.60000000000001</ele><time>2026-04-18T12:11:40.999Z</time></trkpt><trkpt lat="42.428439621258384" lon="11.640113829277437"><ele>83.80000000000001</ele><time>2026-04-18T12:11:42.999Z</time></trkpt><trkpt lat="42.42835259281132" lon="11.640212901201531"><ele>84.0</ele><time>2026-04-18T12:11:44.999Z</time></trkpt><trkpt lat="42.4282836147844" lon="11.640297136559104"><ele>84.33333333333333</ele><time>2026-04-18T12:11:46.999Z</time></trkpt><trkpt lat="42.42823573090662" lon="11.640358910909516"><ele>84.66666666666667</ele><time>2026-04-18T12:11:47.999Z</time></trkpt><trkpt lat="42.42817364447457" lon="11.640434025038237"><ele>85.0</ele><time>2026-04-18T12:11:48.999Z</time></trkpt><trkpt lat="42.42812455521246" lon="11.640494049605039"><ele>85.33333333333334</ele><time>2026-04-18T12:11:49.999Z</time></trkpt><trkpt lat="42.428045745909564" lon="11.640585960878056"><ele>85.66666666666667</ele><time>2026-04-18T12:11:51.999Z</time></trkpt><trkpt lat="42.42795467088783" lon="11.640675619048093"><ele>86.0</ele><time>2026-04-18T12:11:53.999Z</time></trkpt><trkpt lat="42.4278850795199" lon="11.640764624676965"><ele>86.0</ele><time>2026-04-18T12:11:55.995Z</time></trkpt><trkpt lat="42.42783190272043" lon="11.64083157858462"><ele>86.0</ele><time>2026-04-18T12:11:56.995Z</time></trkpt><trkpt lat="42.427781170400095" lon="11.640894899593848"><ele>86.0</ele><time>2026-04-18T12:11:57.995Z</time></trkpt><trkpt lat="42.427726549468375" lon="11.640973567919815"><ele>86.0</ele><time>2026-04-18T12:11:58.995Z</time></trkpt><trkpt lat="42.42767196140444" lon="11.641034243896874"><ele>86.0</ele><time>2026-04-18T12:11:59.996Z</time></trkpt><trkpt lat="42.42757751867095" lon="11.641137750624955"><ele>86.0</ele><time>2026-04-18T12:12:01.996Z</time></trkpt><trkpt lat="42.42752251786505" lon="11.641199546751363"><ele>86.14285714285715</ele><time>2026-04-18T12:12:02.996Z</time></trkpt><trkpt lat="42.42746865559275" lon="11.641258578239794"><ele>86.28571428571429</ele><time>2026-04-18T12:12:03.996Z</time></trkpt><trkpt lat="42.42741535767972" lon="11.6413270338599"><ele>86.42857142857143</ele><time>2026-04-18T12:12:04.996Z</time></trkpt><trkpt lat="42.42736178320288" lon="11.641387698901605"><ele>86.57142857142858</ele><time>2026-04-18T12:12:05.996Z</time></trkpt><trkpt lat="42.4273095397653" lon="11.641450315643963"><ele>86.71428571428572</ele><time>2026-04-18T12:12:06.996Z</time></trkpt><trkpt lat="42.42725820662509" lon="11.641519097556456"><ele>86.85714285714286</ele><time>2026-04-18T12:12:07.996Z</time></trkpt><trkpt lat="42.42720272711844" lon="11.641574918075491"><ele>87.0</ele><time>2026-04-18T12:12:08.997Z</time></trkpt><trkpt lat="42.427146982042174" lon="11.641633944172261"><ele>86.39999999999999</ele><time>2026-04-18T12:12:09.997Z</time></trkpt><trkpt lat="42.42707367120011" lon="11.64170888678458"><ele>85.8</ele><time>2026-04-18T12:12:10.997Z</time></trkpt><trkpt lat="42.42698613510227" lon="11.641791955186857"><ele>85.2</ele><time>2026-04-18T12:12:11.997Z</time></trkpt><trkpt lat="42.426899113005454" lon="11.641894187551229"><ele>84.6</ele><time>2026-04-18T12:12:12.997Z</time></trkpt><trkpt lat="42.426817290563775" lon="11.642005279333128"><ele>84.0</ele><time>2026-04-18T12:12:13.997Z</time></trkpt><trkpt lat="42.42673662958717" lon="11.64211541847014"><ele>84.0</ele><time>2026-04-18T12:12:14.997Z</time></trkpt><trkpt lat="42.42665531465442" lon="11.642226047818035"><ele>84.0</ele><time>2026-04-18T12:12:15.997Z</time></trkpt><trkpt lat="42.42657520379634" lon="11.642326740885458"><ele>84.0</ele><time>2026-04-18T12:12:16.997Z</time></trkpt><trkpt lat="42.42650514769998" lon="11.642412549495843"><ele>84.0</ele><time>2026-04-18T12:12:17.998Z</time></trkpt><trkpt lat="42.426447255832656" lon="11.642479653412765"><ele>84.0</ele><time>2026-04-18T12:12:18.998Z</time></trkpt><trkpt lat="42.42639393014254" lon="11.642531357108904"><ele>83.80000000000001</ele><time>2026-04-18T12:12:19.998Z</time></trkpt><trkpt lat="42.426287464392956" lon="11.642664999556413"><ele>83.60000000000001</ele><time>2026-04-18T12:12:21.998Z</time></trkpt><trkpt lat="42.42620854537168" lon="11.642748058176041"><ele>83.4</ele><time>2026-04-18T12:12:22.998Z</time></trkpt><trkpt lat="42.42613756354743" lon="11.642816153177108"><ele>83.2</ele><time>2026-04-18T12:12:23.998Z</time></trkpt><trkpt lat="42.426078261170225" lon="11.642894632434569"><ele>83.0</ele><time>2026-04-18T12:12:24.998Z</time></trkpt><trkpt lat="42.42598958630089" lon="11.642934513409696"><ele>83.0</ele><time>2026-04-18T12:12:25.998Z</time></trkpt><trkpt lat="42.425899499237794" lon="11.642979038178824"><ele>83.0</ele><time>2026-04-18T12:12:26.998Z</time></trkpt><trkpt lat="42.425805726246494" lon="11.643008436873245"><ele>83.0</ele><time>2026-04-18T12:12:27.998Z</time></trkpt><trkpt lat="42.42570384227588" lon="11.643034765339426"><ele>83.0</ele><time>2026-04-18T12:12:28.998Z</time></trkpt><trkpt lat="42.4255938804764" lon="11.64306285871552"><ele>83.0</ele><time>2026-04-18T12:12:29.998Z</time></trkpt><trkpt lat="42.4254772711242" lon="11.6430926503866"><ele>83.0</ele><time>2026-04-18T12:12:30.998Z</time></trkpt><trkpt lat="42.425366678878454" lon="11.643120904830662"><ele>83.0</ele><time>2026-04-18T12:12:31.998Z</time></trkpt><trkpt lat="42.42525136268654" lon="11.64314984995393"><ele>83.0</ele><time>2026-04-18T12:12:32.999Z</time></trkpt><trkpt lat="42.42513996007243" lon="11.643175066822975"><ele>83.0</ele><time>2026-04-18T12:12:33.999Z</time></trkpt><trkpt lat="42.4250327498309" lon="11.643198523492986"><ele>83.0</ele><time>2026-04-18T12:12:34.999Z</time></trkpt><trkpt lat="42.42492374355724" lon="11.643242680552884"><ele>83.0</ele><time>2026-04-18T12:12:35.999Z</time></trkpt><trkpt lat="42.42481319235109" lon="11.643274564524278"><ele>83.0</ele><time>2026-04-18T12:12:36.999Z</time></trkpt><trkpt lat="42.424697426938444" lon="11.64330849259379"><ele>83.0</ele><time>2026-04-18T12:12:37.999Z</time></trkpt><trkpt lat="42.42456952549395" lon="11.643333417947229"><ele>82.5</ele><time>2026-04-18T12:12:38.999Z</time></trkpt><trkpt lat="42.42443506129012" lon="11.643348541915646"><ele>82.0</ele><time>2026-04-18T12:12:39.999Z</time></trkpt><trkpt lat="42.424286094627675" lon="11.64335611051542"><ele>81.5</ele><time>2026-04-18T12:12:40.999Z</time></trkpt><trkpt lat="42.42413963798871" lon="11.643411912239895"><ele>81.0</ele><time>2026-04-18T12:12:41.999Z</time></trkpt><trkpt lat="42.423972810411875" lon="11.643444302685388"><ele>81.33333333333333</ele><time>2026-04-18T12:12:42.999Z</time></trkpt><trkpt lat="42.423800720790965" lon="11.64352139964692"><ele>81.66666666666666</ele><time>2026-04-18T12:12:43.999Z</time></trkpt><trkpt lat="42.42360475020664" lon="11.643592455972819"><ele>82.0</ele><time>2026-04-18T12:12:44.999Z</time></trkpt><trkpt lat="42.423427861568435" lon="11.643638430967009"><ele>82.0</ele><time>2026-04-18T12:12:45.999Z</time></trkpt><trkpt lat="42.42327500487" lon="11.643688312022451"><ele>82.0</ele><time>2026-04-18T12:12:46.999Z</time></trkpt><trkpt lat="42.42312305564338" lon="11.643722409234654"><ele>82.0</ele><time>2026-04-18T12:12:47.999Z</time></trkpt><trkpt lat="42.422986088050536" lon="11.643776371395756"><ele>82.19999999999999</ele><time>2026-04-18T12:12:48.999Z</time></trkpt><trkpt lat="42.422885723320995" lon="11.643813128895305"><ele>82.4</ele><time>2026-04-18T12:12:49.999Z</time></trkpt><trkpt lat="42.422796561509934" lon="11.64383837630576"><ele>82.6</ele><time>2026-04-18T12:12:50.999Z</time></trkpt><trkpt lat="42.42267409372358" lon="11.643888439631256"><ele>82.80000000000001</ele><time>2026-04-18T12:12:52.999Z</time></trkpt><trkpt lat="42.42259815744942" lon="11.643897485086194"><ele>83.0</ele><time>2026-04-18T12:12:53.999Z</time></trkpt><trkpt lat="42.422518181037226" lon="11.643939546756576"><ele>83.0</ele><time>2026-04-18T12:12:54.999Z</time></trkpt><trkpt lat="42.42241755972908" lon="11.64396885821986"><ele>83.0</ele><time>2026-04-18T12:12:55.999Z</time></trkpt><trkpt lat="42.42228920098571" lon="11.64403275350804"><ele>83.0</ele><time>2026-04-18T12:12:56.999Z</time></trkpt><trkpt lat="42.42216131590255" lon="11.644111412494318"><ele>83.0</ele><time>2026-04-18T12:12:57.999Z</time></trkpt><trkpt lat="42.42201152343524" lon="11.644156319567887"><ele>83.0</ele><time>2026-04-18T12:12:58.999Z</time></trkpt><trkpt lat="42.42186313520695" lon="11.644219226342308"><ele>83.0</ele><time>2026-04-18T12:12:59.999Z</time></trkpt><trkpt lat="42.4217282973629" lon="11.644295813695413"><ele>83.0</ele><time>2026-04-18T12:13:00.999Z</time></trkpt><trkpt lat="42.4215981954299" lon="11.644348502352592"><ele>83.0</ele><time>2026-04-18T12:13:01.999Z</time></trkpt><trkpt lat="42.42146004477805" lon="11.6444073470762"><ele>81.33333333333334</ele><time>2026-04-18T12:13:02.999Z</time></trkpt><trkpt lat="42.4213100106289" lon="11.644476179296618"><ele>79.66666666666667</ele><time>2026-04-18T12:13:04Z</time></trkpt><trkpt lat="42.421153449157934" lon="11.644546910274814"><ele>78.0</ele><time>2026-04-18T12:13:05Z</time></trkpt><trkpt lat="42.42099287386891" lon="11.644613422748352"><ele>78.0</ele><time>2026-04-18T12:13:06Z</time></trkpt><trkpt lat="42.42084940314778" lon="11.644677313404431"><ele>78.0</ele><time>2026-04-18T12:13:07Z</time></trkpt><trkpt lat="42.4207047807114" lon="11.644743080894186"><ele>78.0</ele><time>2026-04-18T12:13:08Z</time></trkpt><trkpt lat="42.420554109449554" lon="11.644811193183479"><ele>78.0</ele><time>2026-04-18T12:13:09Z</time></trkpt><trkpt lat="42.420395579246204" lon="11.64486874025758"><ele>78.0</ele><time>2026-04-18T12:13:10Z</time></trkpt><trkpt lat="42.42022892769361" lon="11.644934145063548"><ele>78.0</ele><time>2026-04-18T12:13:11Z</time></trkpt><trkpt lat="42.4200704241996" lon="11.645011538093799"><ele>78.0</ele><time>2026-04-18T12:13:12Z</time></trkpt><trkpt lat="42.41992357721268" lon="11.645082058030184"><ele>78.0</ele><time>2026-04-18T12:13:13Z</time></trkpt><trkpt lat="42.4197902798368" lon="11.645139663920418"><ele>78.0</ele><time>2026-04-18T12:13:14Z</time></trkpt><trkpt lat="42.419667274495716" lon="11.645192284544743"><ele>78.0</ele><time>2026-04-18T12:13:15Z</time></trkpt><trkpt lat="42.4195585593079" lon="11.64524152456365"><ele>77.6</ele><time>2026-04-18T12:13:16Z</time></trkpt><trkpt lat="42.4194495008802" lon="11.64527758829008"><ele>77.19999999999999</ele><time>2026-04-18T12:13:17Z</time></trkpt><trkpt lat="42.41934837656117" lon="11.645322906053863"><ele>76.8</ele><time>2026-04-18T12:13:18Z</time></trkpt><trkpt lat="42.41925332514062" lon="11.645348409857329"><ele>76.39999999999999</ele><time>2026-04-18T12:13:19Z</time></trkpt><trkpt lat="42.419162323727726" lon="11.645393216220148"><ele>76.0</ele><time>2026-04-18T12:13:20Z</time></trkpt><trkpt lat="42.41907978533358" lon="11.64543385553347"><ele>75.75</ele><time>2026-04-18T12:13:21Z</time></trkpt><trkpt lat="42.41898538514695" lon="11.645480335316803"><ele>75.5</ele><time>2026-04-18T12:13:22Z</time></trkpt><trkpt lat="42.418860487990386" lon="11.645544324400781"><ele>75.25</ele><time>2026-04-18T12:13:23Z</time></trkpt><trkpt lat="42.418718088473675" lon="11.645594799208013"><ele>75.0</ele><time>2026-04-18T12:13:24Z</time></trkpt><trkpt lat="42.41856136596774" lon="11.645655404424216"><ele>75.0</ele><time>2026-04-18T12:13:25Z</time></trkpt><trkpt lat="42.41840131944008" lon="11.645713917468411"><ele>75.0</ele><time>2026-04-18T12:13:26Z</time></trkpt><trkpt lat="42.41824952491456" lon="11.645778113486715"><ele>75.0</ele><time>2026-04-18T12:13:27Z</time></trkpt><trkpt lat="42.41808379152685" lon="11.645862843765087"><ele>74.33333333333333</ele><time>2026-04-18T12:13:28Z</time></trkpt><trkpt lat="42.417909166323746" lon="11.645950752222403"><ele>73.66666666666666</ele><time>2026-04-18T12:13:29Z</time></trkpt><trkpt lat="42.41774233329437" lon="11.646025941310564"><ele>73.0</ele><time>2026-04-18T12:13:30Z</time></trkpt><trkpt lat="42.41756787460507" lon="11.646095935224942"><ele>73.66666666666666</ele><time>2026-04-18T12:13:31Z</time></trkpt><trkpt lat="42.417401022364096" lon="11.646160053804147"><ele>74.33333333333333</ele><time>2026-04-18T12:13:32Z</time></trkpt><trkpt lat="42.417230424275346" lon="11.646219984427875"><ele>75.0</ele><time>2026-04-18T12:13:33Z</time></trkpt><trkpt lat="42.417062612477075" lon="11.646296505596302"><ele>75.0</ele><time>2026-04-18T12:13:34Z</time></trkpt><trkpt lat="42.416901891796584" lon="11.64637032969168"><ele>75.0</ele><time>2026-04-18T12:13:35Z</time></trkpt><trkpt lat="42.41675799234685" lon="11.646435305552561"><ele>75.0</ele><time>2026-04-18T12:13:36Z</time></trkpt><trkpt lat="42.416636681626244" lon="11.646488332256084"><ele>75.0</ele><time>2026-04-18T12:13:37Z</time></trkpt><trkpt lat="42.416502874439104" lon="11.646548070102563"><ele>75.0</ele><time>2026-04-18T12:13:38Z</time></trkpt><trkpt lat="42.41636220756477" lon="11.646627764204597"><ele>75.0</ele><time>2026-04-18T12:13:39Z</time></trkpt><trkpt lat="42.416197686262606" lon="11.646695885233708"><ele>75.0</ele><time>2026-04-18T12:13:40Z</time></trkpt><trkpt lat="42.41600385100461" lon="11.646767728562915"><ele>75.0</ele><time>2026-04-18T12:13:41Z</time></trkpt><trkpt lat="42.415785326404155" lon="11.646866421706502"><ele>75.0</ele><time>2026-04-18T12:13:42Z</time></trkpt><trkpt lat="42.41556307403889" lon="11.646967493008317"><ele>74.5</ele><time>2026-04-18T12:13:43Z</time></trkpt><trkpt lat="42.41539283352278" lon="11.64703935814746"><ele>74.0</ele><time>2026-04-18T12:13:44Z</time></trkpt><trkpt lat="42.41527864206548" lon="11.647091083740326"><ele>73.5</ele><time>2026-04-18T12:13:45Z</time></trkpt><trkpt lat="42.41518533939894" lon="11.647132235517677"><ele>73.0</ele><time>2026-04-18T12:13:46Z</time></trkpt><trkpt lat="42.41506223210901" lon="11.647187448718437"><ele>73.0</ele><time>2026-04-18T12:13:47Z</time></trkpt><trkpt lat="42.414892023519805" lon="11.647265413918273"><ele>73.0</ele><time>2026-04-18T12:13:48Z</time></trkpt><trkpt lat="42.41468687911075" lon="11.647363284285191"><ele>73.0</ele><time>2026-04-18T12:13:49Z</time></trkpt><trkpt lat="42.414436289743236" lon="11.647468169848684"><ele>72.0</ele><time>2026-04-18T12:13:50Z</time></trkpt><trkpt lat="42.41416561240612" lon="11.647584568987753"><ele>71.0</ele><time>2026-04-18T12:13:51.001Z</time></trkpt><trkpt lat="42.413878651490776" lon="11.647708246759938"><ele>70.5</ele><time>2026-04-18T12:13:52.001Z</time></trkpt><trkpt lat="42.41358661810906" lon="11.647833784734917"><ele>70.0</ele><time>2026-04-18T12:13:53.001Z</time></trkpt><trkpt lat="42.41331371663783" lon="11.64795562220702"><ele>70.0</ele><time>2026-04-18T12:13:54.001Z</time></trkpt><trkpt lat="42.41308636561556" lon="11.648047347446003"><ele>70.0</ele><time>2026-04-18T12:13:55.001Z</time></trkpt><trkpt lat="42.412881427482155" lon="11.648134048759381"><ele>70.0</ele><time>2026-04-18T12:13:56.001Z</time></trkpt><trkpt lat="42.41267618542542" lon="11.648222762686473"><ele>70.0</ele><time>2026-04-18T12:13:57.001Z</time></trkpt><trkpt lat="42.412483785100164" lon="11.648308426655001"><ele>70.0</ele><time>2026-04-18T12:13:58.001Z</time></trkpt><trkpt lat="42.412275071108304" lon="11.648401826284035"><ele>70.0</ele><time>2026-04-18T12:13:59.001Z</time></trkpt><trkpt lat="42.41206914950054" lon="11.648492351712294"><ele>70.0</ele><time>2026-04-18T12:14:00.001Z</time></trkpt><trkpt lat="42.411887040140215" lon="11.648575905085458"><ele>70.0</ele><time>2026-04-18T12:14:01.001Z</time></trkpt><trkpt lat="42.41173221810163" lon="11.648649754786732"><ele>69.75</ele><time>2026-04-18T12:14:01.998Z</time></trkpt><trkpt lat="42.41158694891892" lon="11.648715998648871"><ele>69.5</ele><time>2026-04-18T12:14:02.998Z</time></trkpt><trkpt lat="42.41144811184815" lon="11.648755121269334"><ele>69.25</ele><time>2026-04-18T12:14:03.999Z</time></trkpt><trkpt lat="42.41131125914219" lon="11.648814980831437"><ele>69.0</ele><time>2026-04-18T12:14:04.999Z</time></trkpt><trkpt lat="42.41116285434174" lon="11.648894808676776"><ele>68.0</ele><time>2026-04-18T12:14:05.999Z</time></trkpt><trkpt lat="42.410979670876955" lon="11.648972520928387"><ele>67.0</ele><time>2026-04-18T12:14:06.999Z</time></trkpt><trkpt lat="42.41076966137986" lon="11.649064564179259"><ele>66.0</ele><time>2026-04-18T12:14:07.999Z</time></trkpt><trkpt lat="42.41052320625162" lon="11.64914531682618"><ele>65.33333333333333</ele><time>2026-04-18T12:14:08.999Z</time></trkpt><trkpt lat="42.410310628328986" lon="11.649258731861037"><ele>64.66666666666666</ele><time>2026-04-18T12:14:09.999Z</time></trkpt><trkpt lat="42.41013164280638" lon="11.649332158977318"><ele>64.0</ele><time>2026-04-18T12:14:10.999Z</time></trkpt><trkpt lat="42.4099798028197" lon="11.649389185436863"><ele>64.0</ele><time>2026-04-18T12:14:11.999Z</time></trkpt><trkpt lat="42.40985640688816" lon="11.64943406704457"><ele>64.0</ele><time>2026-04-18T12:14:12.999Z</time></trkpt><trkpt lat="42.40976011644472" lon="11.649483085221384"><ele>64.0</ele><time>2026-04-18T12:14:13.999Z</time></trkpt><trkpt lat="42.409632916151686" lon="11.649558054303553"><ele>64.0</ele><time>2026-04-18T12:14:14.999Z</time></trkpt><trkpt lat="42.40943472538702" lon="11.649622676995302"><ele>65.5</ele><time>2026-04-18T12:14:15.999Z</time></trkpt><trkpt lat="42.409206596489724" lon="11.64972323235267"><ele>67.0</ele><time>2026-04-18T12:14:16.999Z</time></trkpt><trkpt lat="42.4089875627611" lon="11.649821269011133"><ele>66.0</ele><time>2026-04-18T12:14:17.999Z</time></trkpt><trkpt lat="42.40881760458019" lon="11.64992940404331"><ele>65.0</ele><time>2026-04-18T12:14:18.999Z</time></trkpt><trkpt lat="42.4086357702614" lon="11.649982961275539"><ele>64.0</ele><time>2026-04-18T12:14:19.999Z</time></trkpt><trkpt lat="42.40845352006921" lon="11.650055253586793"><ele>64.0</ele><time>2026-04-18T12:14:20.999Z</time></trkpt><trkpt lat="42.40825369817504" lon="11.65013621334597"><ele>64.0</ele><time>2026-04-18T12:14:21.999Z</time></trkpt><trkpt lat="42.40804608941956" lon="11.650224895520477"><ele>64.0</ele><time>2026-04-18T12:14:22.999Z</time></trkpt><trkpt lat="42.40784392487859" lon="11.65031199424454"><ele>63.666666666666664</ele><time>2026-04-18T12:14:23.999Z</time></trkpt><trkpt lat="42.407670246888905" lon="11.650386821731027"><ele>63.33333333333333</ele><time>2026-04-18T12:14:24.999Z</time></trkpt><trkpt lat="42.40751405134951" lon="11.650454115604855"><ele>63.0</ele><time>2026-04-18T12:14:26Z</time></trkpt><trkpt lat="42.40736426637029" lon="11.650518878024464"><ele>63.0</ele><time>2026-04-18T12:14:27Z</time></trkpt><trkpt lat="42.407230570384826" lon="11.65059927853601"><ele>63.0</ele><time>2026-04-18T12:14:28Z</time></trkpt><trkpt lat="42.40708795534151" lon="11.650652047389425"><ele>63.0</ele><time>2026-04-18T12:14:29Z</time></trkpt><trkpt lat="42.40695829769386" lon="11.650729961964677"><ele>63.0</ele><time>2026-04-18T12:14:30Z</time></trkpt><trkpt lat="42.40680333737254" lon="11.650778343384342"><ele>62.66666666666667</ele><time>2026-04-18T12:14:31Z</time></trkpt><trkpt lat="42.40664551238878" lon="11.65085091319109"><ele>62.333333333333336</ele><time>2026-04-18T12:14:32Z</time></trkpt><trkpt lat="42.406488168484124" lon="11.65092203797216"><ele>62.0</ele><time>2026-04-18T12:14:33Z</time></trkpt><trkpt lat="42.406345020325745" lon="11.650985895204832"><ele>61.333333333333336</ele><time>2026-04-18T12:14:34Z</time></trkpt><trkpt lat="42.40619196079617" lon="11.651052976354958"><ele>60.66666666666667</ele><time>2026-04-18T12:14:35Z</time></trkpt><trkpt lat="42.40602021967187" lon="11.65112648410333"><ele>60.0</ele><time>2026-04-18T12:14:36Z</time></trkpt><trkpt lat="42.40584089187564" lon="11.651201985826662"><ele>60.0</ele><time>2026-04-18T12:14:37Z</time></trkpt><trkpt lat="42.405682024655796" lon="11.651268873190391"><ele>60.0</ele><time>2026-04-18T12:14:38Z</time></trkpt><trkpt lat="42.40554095006211" lon="11.651328269242589"><ele>60.0</ele><time>2026-04-18T12:14:39Z</time></trkpt><trkpt lat="42.40540442480318" lon="11.651385749856948"><ele>59.33333333333333</ele><time>2026-04-18T12:14:40Z</time></trkpt><trkpt lat="42.40523655809509" lon="11.651457221725385"><ele>58.666666666666664</ele><time>2026-04-18T12:14:41Z</time></trkpt><trkpt lat="42.40504327036834" lon="11.651540262595917"><ele>58.0</ele><time>2026-04-18T12:14:42Z</time></trkpt><trkpt lat="42.404871514401606" lon="11.651614052960117"><ele>58.0</ele><time>2026-04-18T12:14:43Z</time></trkpt><trkpt lat="42.40472015856315" lon="11.651679078981246"><ele>58.0</ele><time>2026-04-18T12:14:44Z</time></trkpt><trkpt lat="42.404584343688995" lon="11.651737428175705"><ele>58.0</ele><time>2026-04-18T12:14:45Z</time></trkpt><trkpt lat="42.40447973293908" lon="11.651804968049532"><ele>58.0</ele><time>2026-04-18T12:14:46Z</time></trkpt><trkpt lat="42.40439981192493" lon="11.65183494440865"><ele>57.599999999999994</ele><time>2026-04-18T12:14:47Z</time></trkpt><trkpt lat="42.4043375886464" lon="11.651862797119682"><ele>57.199999999999996</ele><time>2026-04-18T12:14:48Z</time></trkpt><trkpt lat="42.40427410671555" lon="11.651894293891619"><ele>56.8</ele><time>2026-04-18T12:14:49Z</time></trkpt><trkpt lat="42.40418807300889" lon="11.651927391799505"><ele>56.4</ele><time>2026-04-18T12:14:50Z</time></trkpt><trkpt lat="42.404054099851145" lon="11.651986312811728"><ele>56.0</ele><time>2026-04-18T12:14:51Z</time></trkpt><trkpt lat="42.40392227301357" lon="11.652027703600623"><ele>55.599999999999994</ele><time>2026-04-18T12:14:52Z</time></trkpt><trkpt lat="42.40381598163615" lon="11.65206189394098"><ele>55.199999999999996</ele><time>2026-04-18T12:14:53Z</time></trkpt><trkpt lat="42.403727162207524" lon="11.652126952491981"><ele>54.800000000000004</ele><time>2026-04-18T12:14:54Z</time></trkpt><trkpt lat="42.40365932153213" lon="11.65221744689523"><ele>54.400000000000006</ele><time>2026-04-18T12:14:55Z</time></trkpt><trkpt lat="42.40361954028799" lon="11.652336560156051"><ele>54.0</ele><time>2026-04-18T12:14:56.001Z</time></trkpt><trkpt lat="42.40363199653564" lon="11.652468854401723"><ele>54.0</ele><time>2026-04-18T12:14:57.001Z</time></trkpt><trkpt lat="42.4036429842514" lon="11.652621430416993"><ele>54.00000000000001</ele><time>2026-04-18T12:14:58.001Z</time></trkpt><trkpt lat="42.40363703840895" lon="11.652798083242327"><ele>54.00000000000001</ele><time>2026-04-18T12:14:59.001Z</time></trkpt><trkpt lat="42.40366357433955" lon="11.652954043144785"><ele>54.0</ele><time>2026-04-18T12:15:00.001Z</time></trkpt><trkpt lat="42.4036747824168" lon="11.65307018856604"><ele>54.0</ele><time>2026-04-18T12:15:01.001Z</time></trkpt><trkpt lat="42.40367363039671" lon="11.653168343011284"><ele>54.2</ele><time>2026-04-18T12:15:02.001Z</time></trkpt><trkpt lat="42.40366011455433" lon="11.653255435786267"><ele>54.400000000000006</ele><time>2026-04-18T12:15:03.001Z</time></trkpt><trkpt lat="42.40364398269583" lon="11.653354404775586"><ele>54.6</ele><time>2026-04-18T12:15:05.001Z</time></trkpt><trkpt lat="42.403498889486606" lon="11.653331870823424"><ele>54.8</ele><time>2026-04-18T12:15:08.001Z</time></trkpt><trkpt lat="42.40342231945454" lon="11.653295262085821"><ele>55.0</ele><time>2026-04-18T12:15:09.001Z</time></trkpt><trkpt lat="42.40332880542435" lon="11.653245984963075"><ele>55.0</ele><time>2026-04-18T12:15:10.001Z</time></trkpt><trkpt lat="42.403211652822705" lon="11.653190947440919"><ele>55.0</ele><time>2026-04-18T12:15:11.001Z</time></trkpt><trkpt lat="42.403062829287755" lon="11.653121289660413"><ele>55.0</ele><time>2026-04-18T12:15:12.001Z</time></trkpt><trkpt lat="42.40292338326763" lon="11.65305775895917"><ele>55.0</ele><time>2026-04-18T12:15:13.001Z</time></trkpt><trkpt lat="42.40280085206666" lon="11.653004066531475"><ele>54.0</ele><time>2026-04-18T12:15:14.001Z</time></trkpt><trkpt lat="42.40268790785729" lon="11.652968265527312"><ele>53.0</ele><time>2026-04-18T12:15:15.001Z</time></trkpt><trkpt lat="42.402569778908216" lon="11.652963996462102"><ele>52.0</ele><time>2026-04-18T12:15:16.001Z</time></trkpt><trkpt lat="42.402434305610434" lon="11.653000229972585"><ele>51.0</ele><time>2026-04-18T12:15:17.001Z</time></trkpt><trkpt lat="42.40228829062727" lon="11.65306216434651"><ele>51.66666666666667</ele><time>2026-04-18T12:15:18.001Z</time></trkpt><trkpt lat="42.40213032148176" lon="11.653133407313353"><ele>52.333333333333336</ele><time>2026-04-18T12:15:19.001Z</time></trkpt><trkpt lat="42.40196031362344" lon="11.653203587457032"><ele>53.0</ele><time>2026-04-18T12:15:20.001Z</time></trkpt><trkpt lat="42.40177829729002" lon="11.653273913260833"><ele>53.0</ele><time>2026-04-18T12:15:21.001Z</time></trkpt><trkpt lat="42.40159937466853" lon="11.65333766356954"><ele>53.0</ele><time>2026-04-18T12:15:22.001Z</time></trkpt><trkpt lat="42.40142758383485" lon="11.653397824173059"><ele>53.0</ele><time>2026-04-18T12:15:23.001Z</time></trkpt><trkpt lat="42.40125936092395" lon="11.65346230755411"><ele>54.0</ele><time>2026-04-18T12:15:24.001Z</time></trkpt><trkpt lat="42.40109575545535" lon="11.653525039194566"><ele>55.0</ele><time>2026-04-18T12:15:25.001Z</time></trkpt><trkpt lat="42.40093128627834" lon="11.653588679249815"><ele>56.0</ele><time>2026-04-18T12:15:26.001Z</time></trkpt><trkpt lat="42.40076156056828" lon="11.653651941216351"><ele>56.0</ele><time>2026-04-18T12:15:27.001Z</time></trkpt><trkpt lat="42.400592029679494" lon="11.653715010811029"><ele>56.0</ele><time>2026-04-18T12:15:28.001Z</time></trkpt><trkpt lat="42.40041941624929" lon="11.653777832459339"><ele>56.0</ele><time>2026-04-18T12:15:29.001Z</time></trkpt><trkpt lat="42.40024716154685" lon="11.6538435200583"><ele>57.0</ele><time>2026-04-18T12:15:30.001Z</time></trkpt><trkpt lat="42.40006921150588" lon="11.653906018560525"><ele>58.0</ele><time>2026-04-18T12:15:31.001Z</time></trkpt><trkpt lat="42.399890130821774" lon="11.653966712301953"><ele>59.0</ele><time>2026-04-18T12:15:32.001Z</time></trkpt><trkpt lat="42.39971097752353" lon="11.654016768989884"><ele>59.66666666666667</ele><time>2026-04-18T12:15:33.001Z</time></trkpt><trkpt lat="42.39954012716095" lon="11.654057653331076"><ele>60.33333333333333</ele><time>2026-04-18T12:15:34.001Z</time></trkpt><trkpt lat="42.39937362806974" lon="11.654090835359007"><ele>61.0</ele><time>2026-04-18T12:15:35.002Z</time></trkpt><trkpt lat="42.399215415882104" lon="11.654109897367153"><ele>61.0</ele><time>2026-04-18T12:15:36.002Z</time></trkpt><trkpt lat="42.399058164159015" lon="11.654113106562898"><ele>61.0</ele><time>2026-04-18T12:15:37.002Z</time></trkpt><trkpt lat="42.39890819601271" lon="11.654116411010008"><ele>61.0</ele><time>2026-04-18T12:15:38.002Z</time></trkpt><trkpt lat="42.398762622630365" lon="11.654116748273584"><ele>61.0</ele><time>2026-04-18T12:15:39.002Z</time></trkpt><trkpt lat="42.398618729660456" lon="11.654117259104511"><ele>61.0</ele><time>2026-04-18T12:15:40.002Z</time></trkpt><trkpt lat="42.39846494215348" lon="11.654112337896331"><ele>61.0</ele><time>2026-04-18T12:15:41.002Z</time></trkpt><trkpt lat="42.398304914193325" lon="11.654109945606509"><ele>61.0</ele><time>2026-04-18T12:15:42.002Z</time></trkpt><trkpt lat="42.39813801180645" lon="11.654109074013126"><ele>61.0</ele><time>2026-04-18T12:15:43.002Z</time></trkpt><trkpt lat="42.3979625017511" lon="11.654111202017747"><ele>61.0</ele><time>2026-04-18T12:15:44.002Z</time></trkpt><trkpt lat="42.39778008754643" lon="11.65411467449441"><ele>61.666666666666664</ele><time>2026-04-18T12:15:45.002Z</time></trkpt><trkpt lat="42.397599701383236" lon="11.654120616387445"><ele>62.33333333333333</ele><time>2026-04-18T12:15:46.002Z</time></trkpt><trkpt lat="42.39740867566936" lon="11.654126781009351"><ele>63.0</ele><time>2026-04-18T12:15:47.002Z</time></trkpt><trkpt lat="42.397240349210165" lon="11.654133211386984"><ele>63.0</ele><time>2026-04-18T12:15:48.002Z</time></trkpt><trkpt lat="42.397075857424916" lon="11.654140800971343"><ele>63.0</ele><time>2026-04-18T12:15:49.002Z</time></trkpt><trkpt lat="42.39690667464317" lon="11.654146705348907"><ele>63.0</ele><time>2026-04-18T12:15:50.002Z</time></trkpt><trkpt lat="42.39673234734911" lon="11.654135127680135"><ele>63.0</ele><time>2026-04-18T12:15:51.002Z</time></trkpt><trkpt lat="42.39654176160682" lon="11.654162002982012"><ele>63.0</ele><time>2026-04-18T12:15:52.002Z</time></trkpt><trkpt lat="42.396345313166385" lon="11.65416468956084"><ele>63.0</ele><time>2026-04-18T12:15:53.002Z</time></trkpt><trkpt lat="42.39616189704541" lon="11.65416751059203"><ele>62.33333333333333</ele><time>2026-04-18T12:15:54.002Z</time></trkpt><trkpt lat="42.395993036235424" lon="11.65416985140004"><ele>61.666666666666664</ele><time>2026-04-18T12:15:55.002Z</time></trkpt><trkpt lat="42.39582438066946" lon="11.65417288376176"><ele>61.0</ele><time>2026-04-18T12:15:56.002Z</time></trkpt><trkpt lat="42.395649226671566" lon="11.654178643455982"><ele>60.666666666666664</ele><time>2026-04-18T12:15:57.002Z</time></trkpt><trkpt lat="42.3954717436516" lon="11.654180463906487"><ele>60.33333333333333</ele><time>2026-04-18T12:15:58.002Z</time></trkpt><trkpt lat="42.39529317635869" lon="11.654184388471212"><ele>60.0</ele><time>2026-04-18T12:15:59.002Z</time></trkpt><trkpt lat="42.39511562408921" lon="11.654191124081635"><ele>60.0</ele><time>2026-04-18T12:16:00.002Z</time></trkpt><trkpt lat="42.394932617879576" lon="11.654198622960834"><ele>60.0</ele><time>2026-04-18T12:16:01.002Z</time></trkpt><trkpt lat="42.39476029399729" lon="11.654202157305829"><ele>60.0</ele><time>2026-04-18T12:16:02.002Z</time></trkpt><trkpt lat="42.39459915966729" lon="11.654208183447482"><ele>59.0</ele><time>2026-04-18T12:16:03.002Z</time></trkpt><trkpt lat="42.39444565844767" lon="11.654206980646993"><ele>58.0</ele><time>2026-04-18T12:16:04.002Z</time></trkpt><trkpt lat="42.39429250374333" lon="11.654211280494168"><ele>57.0</ele><time>2026-04-18T12:16:05.002Z</time></trkpt><trkpt lat="42.39413188496675" lon="11.654218725125597"><ele>57.0</ele><time>2026-04-18T12:16:06.002Z</time></trkpt><trkpt lat="42.39396309852622" lon="11.654222549140897"><ele>57.0</ele><time>2026-04-18T12:16:07.002Z</time></trkpt><trkpt lat="42.39379637528557" lon="11.654224563709224"><ele>57.0</ele><time>2026-04-18T12:16:08.001Z</time></trkpt><trkpt lat="42.393641749227" lon="11.654224958748404"><ele>57.0</ele><time>2026-04-18T12:16:09.001Z</time></trkpt><trkpt lat="42.39349425144117" lon="11.654230276166427"><ele>57.0</ele><time>2026-04-18T12:16:10.001Z</time></trkpt><trkpt lat="42.39335267952702" lon="11.654234962479636"><ele>57.0</ele><time>2026-04-18T12:16:11.001Z</time></trkpt><trkpt lat="42.393212484048355" lon="11.654236890237511"><ele>57.0</ele><time>2026-04-18T12:16:12.001Z</time></trkpt><trkpt lat="42.393065879933616" lon="11.65424145087144"><ele>57.25</ele><time>2026-04-18T12:16:13.001Z</time></trkpt><trkpt lat="42.39291371434123" lon="11.654248648076232"><ele>57.5</ele><time>2026-04-18T12:16:14.001Z</time></trkpt><trkpt lat="42.39276210804362" lon="11.654252992177929"><ele>57.75</ele><time>2026-04-18T12:16:15.001Z</time></trkpt><trkpt lat="42.39261912377298" lon="11.65425403704416"><ele>58.0</ele><time>2026-04-18T12:16:16.001Z</time></trkpt><trkpt lat="42.39247093655548" lon="11.654254118387735"><ele>58.0</ele><time>2026-04-18T12:16:17.001Z</time></trkpt><trkpt lat="42.39231763613935" lon="11.654250839530745"><ele>58.0</ele><time>2026-04-18T12:16:18.001Z</time></trkpt><trkpt lat="42.39216180370685" lon="11.654250362059038"><ele>58.0</ele><time>2026-04-18T12:16:19.001Z</time></trkpt><trkpt lat="42.39200283413147" lon="11.654247903252786"><ele>58.666666666666664</ele><time>2026-04-18T12:16:20.001Z</time></trkpt><trkpt lat="42.39183790053897" lon="11.654242962643035"><ele>59.33333333333333</ele><time>2026-04-18T12:16:21.001Z</time></trkpt><trkpt lat="42.39167128215114" lon="11.654233911609966"><ele>60.0</ele><time>2026-04-18T12:16:22.001Z</time></trkpt><trkpt lat="42.39150042262661" lon="11.654219954709566"><ele>60.33333333333333</ele><time>2026-04-18T12:16:23.001Z</time></trkpt><trkpt lat="42.391321779310275" lon="11.654202990447738"><ele>60.666666666666664</ele><time>2026-04-18T12:16:24.001Z</time></trkpt><trkpt lat="42.39114252701625" lon="11.654189209090458"><ele>61.0</ele><time>2026-04-18T12:16:25.001Z</time></trkpt><trkpt lat="42.39096476958192" lon="11.654175208623247"><ele>61.0</ele><time>2026-04-18T12:16:26.001Z</time></trkpt><trkpt lat="42.390787256702545" lon="11.654161538788177"><ele>61.0</ele><time>2026-04-18T12:16:27.001Z</time></trkpt><trkpt lat="42.390614978859" lon="11.6541440707595"><ele>61.0</ele><time>2026-04-18T12:16:28.001Z</time></trkpt><trkpt lat="42.39044003844788" lon="11.654126028009346"><ele>60.33333333333333</ele><time>2026-04-18T12:16:29.001Z</time></trkpt><trkpt lat="42.39026129796768" lon="11.65410522129273"><ele>59.66666666666667</ele><time>2026-04-18T12:16:30.001Z</time></trkpt><trkpt lat="42.39008327036561" lon="11.654085496767927"><ele>59.0</ele><time>2026-04-18T12:16:31.001Z</time></trkpt><trkpt lat="42.38990634656638" lon="11.654066115176866"><ele>59.0</ele><time>2026-04-18T12:16:32.001Z</time></trkpt><trkpt lat="42.389733170341145" lon="11.654046667369641"><ele>59.0</ele><time>2026-04-18T12:16:33.001Z</time></trkpt><trkpt lat="42.38956039280334" lon="11.654026465738966"><ele>59.0</ele><time>2026-04-18T12:16:34.001Z</time></trkpt><trkpt lat="42.38938525684108" lon="11.654006802169514"><ele>59.333333333333336</ele><time>2026-04-18T12:16:35.001Z</time></trkpt><trkpt lat="42.38921521300159" lon="11.653988499820224"><ele>59.66666666666667</ele><time>2026-04-18T12:16:36.001Z</time></trkpt><trkpt lat="42.38904929886596" lon="11.65396937321418"><ele>60.0</ele><time>2026-04-18T12:16:37.001Z</time></trkpt><trkpt lat="42.38889015776452" lon="11.653953803637275"><ele>59.66666666666667</ele><time>2026-04-18T12:16:38.001Z</time></trkpt><trkpt lat="42.388727402947666" lon="11.653936371615108"><ele>59.333333333333336</ele><time>2026-04-18T12:16:39.001Z</time></trkpt><trkpt lat="42.38856101669166" lon="11.6539193408555"><ele>59.0</ele><time>2026-04-18T12:16:40.001Z</time></trkpt><trkpt lat="42.38839436401838" lon="11.653901011125777"><ele>59.0</ele><time>2026-04-18T12:16:41.001Z</time></trkpt><trkpt lat="42.38822768568463" lon="11.653882749843541"><ele>59.0</ele><time>2026-04-18T12:16:42.001Z</time></trkpt><trkpt lat="42.38805947122279" lon="11.653866856142235"><ele>59.0</ele><time>2026-04-18T12:16:43.001Z</time></trkpt><trkpt lat="42.38789241865063" lon="11.65385521871872"><ele>59.333333333333336</ele><time>2026-04-18T12:16:44.001Z</time></trkpt><trkpt lat="42.38772397268713" lon="11.653844110851038"><ele>59.66666666666667</ele><time>2026-04-18T12:16:45.001Z</time></trkpt><trkpt lat="42.38755039993461" lon="11.653830307471583"><ele>60.0</ele><time>2026-04-18T12:16:46.001Z</time></trkpt><trkpt lat="42.387377011885114" lon="11.653803630538718"><ele>60.0</ele><time>2026-04-18T12:16:47.001Z</time></trkpt><trkpt lat="42.38720271508258" lon="11.653780701053948"><ele>60.0</ele><time>2026-04-18T12:16:48.001Z</time></trkpt><trkpt lat="42.38703359028988" lon="11.653763233507476"><ele>60.0</ele><time>2026-04-18T12:16:49.001Z</time></trkpt><trkpt lat="42.38686944381282" lon="11.6537437200602"><ele>60.0</ele><time>2026-04-18T12:16:50.001Z</time></trkpt><trkpt lat="42.38670925270752" lon="11.653723861612455"><ele>60.0</ele><time>2026-04-18T12:16:51.001Z</time></trkpt><trkpt lat="42.386545230718134" lon="11.653706994935956"><ele>60.0</ele><time>2026-04-18T12:16:52.001Z</time></trkpt><trkpt lat="42.38637381721496" lon="11.653687768266913"><ele>59.66666666666667</ele><time>2026-04-18T12:16:53.001Z</time></trkpt><trkpt lat="42.38619717067415" lon="11.653668749234367"><ele>59.333333333333336</ele><time>2026-04-18T12:16:54.001Z</time></trkpt><trkpt lat="42.38600367767366" lon="11.653662137775738"><ele>59.0</ele><time>2026-04-18T12:16:55.001Z</time></trkpt><trkpt lat="42.38578591962705" lon="11.653627437891116"><ele>58.5</ele><time>2026-04-18T12:16:56.001Z</time></trkpt><trkpt lat="42.38554704951391" lon="11.653602023028531"><ele>58.0</ele><time>2026-04-18T12:16:57.001Z</time></trkpt><trkpt lat="42.38528885114218" lon="11.653574551716224"><ele>58.0</ele><time>2026-04-18T12:16:58.001Z</time></trkpt><trkpt lat="42.385033501943425" lon="11.653559771178502"><ele>58.0</ele><time>2026-04-18T12:16:59.001Z</time></trkpt><trkpt lat="42.384787690340055" lon="11.653523394663104"><ele>58.5</ele><time>2026-04-18T12:17:00.001Z</time></trkpt><trkpt lat="42.3845483741774" lon="11.653499827687238"><ele>59.0</ele><time>2026-04-18T12:17:01.001Z</time></trkpt><trkpt lat="42.38431697249682" lon="11.653486988719312"><ele>59.0</ele><time>2026-04-18T12:17:02.001Z</time></trkpt><trkpt lat="42.38409216139087" lon="11.653458819898532"><ele>59.0</ele><time>2026-04-18T12:17:03.001Z</time></trkpt><trkpt lat="42.38387373721436" lon="11.653429678472413"><ele>59.0</ele><time>2026-04-18T12:17:04.001Z</time></trkpt><trkpt lat="42.38366378111861" lon="11.653410811703441"><ele>58.66666666666667</ele><time>2026-04-18T12:17:05.001Z</time></trkpt><trkpt lat="42.3834661233141" lon="11.65338787808451"><ele>58.33333333333333</ele><time>2026-04-18T12:17:06.001Z</time></trkpt><trkpt lat="42.383269615907174" lon="11.653369148162735"><ele>58.0</ele><time>2026-04-18T12:17:07.001Z</time></trkpt><trkpt lat="42.383075391882045" lon="11.653366832527615"><ele>58.0</ele><time>2026-04-18T12:17:08.001Z</time></trkpt><trkpt lat="42.38288630757424" lon="11.653387221519727"><ele>58.0</ele><time>2026-04-18T12:17:09.001Z</time></trkpt><trkpt lat="42.38269965433653" lon="11.65343529247574"><ele>58.0</ele><time>2026-04-18T12:17:10.001Z</time></trkpt><trkpt lat="42.38251577511953" lon="11.653508517346216"><ele>58.0</ele><time>2026-04-18T12:17:11.001Z</time></trkpt><trkpt lat="42.38233618082361" lon="11.653608854543924"><ele>58.0</ele><time>2026-04-18T12:17:12.001Z</time></trkpt><trkpt lat="42.382166692268314" lon="11.65373453393622"><ele>58.0</ele><time>2026-04-18T12:17:13.001Z</time></trkpt><trkpt lat="42.382005852336405" lon="11.653887647678909"><ele>57.666666666666664</ele><time>2026-04-18T12:17:14.002Z</time></trkpt><trkpt lat="42.38184326798965" lon="11.654051120511578"><ele>57.33333333333333</ele><time>2026-04-18T12:17:15.002Z</time></trkpt><trkpt lat="42.38168379808933" lon="11.654218351959125"><ele>57.0</ele><time>2026-04-18T12:17:16.002Z</time></trkpt><trkpt lat="42.38152923467131" lon="11.654380435280936"><ele>56.66666666666667</ele><time>2026-04-18T12:17:17.002Z</time></trkpt><trkpt lat="42.381384841218235" lon="11.654532305039645"><ele>56.333333333333336</ele><time>2026-04-18T12:17:18.002Z</time></trkpt><trkpt lat="42.3812360401009" lon="11.65469087045393"><ele>56.0</ele><time>2026-04-18T12:17:19.002Z</time></trkpt><trkpt lat="42.38108567122495" lon="11.654846411025083"><ele>56.0</ele><time>2026-04-18T12:17:20.002Z</time></trkpt><trkpt lat="42.38093633585742" lon="11.65500508086409"><ele>56.0</ele><time>2026-04-18T12:17:21.002Z</time></trkpt><trkpt lat="42.38078515143133" lon="11.655166581069759"><ele>56.0</ele><time>2026-04-18T12:17:22.002Z</time></trkpt><trkpt lat="42.380637755429674" lon="11.655322793423561"><ele>56.0</ele><time>2026-04-18T12:17:23.002Z</time></trkpt><trkpt lat="42.3804932804731" lon="11.655475520867626"><ele>56.0</ele><time>2026-04-18T12:17:24.002Z</time></trkpt><trkpt lat="42.38035046539234" lon="11.655621105076525"><ele>56.0</ele><time>2026-04-18T12:17:25.002Z</time></trkpt><trkpt lat="42.38020391789852" lon="11.655771735065029"><ele>56.0</ele><time>2026-04-18T12:17:26.002Z</time></trkpt><trkpt lat="42.380063700075866" lon="11.655910777662221"><ele>56.0</ele><time>2026-04-18T12:17:27.002Z</time></trkpt><trkpt lat="42.37993713202528" lon="11.656041076407861"><ele>56.0</ele><time>2026-04-18T12:17:28.002Z</time></trkpt><trkpt lat="42.3798167648597" lon="11.656166474309714"><ele>56.25</ele><time>2026-04-18T12:17:29.002Z</time></trkpt><trkpt lat="42.379701616435874" lon="11.656289349004608"><ele>56.5</ele><time>2026-04-18T12:17:30.002Z</time></trkpt><trkpt lat="42.37958901159937" lon="11.656407380348682"><ele>56.75</ele><time>2026-04-18T12:17:31.002Z</time></trkpt><trkpt lat="42.37947862630382" lon="11.656516557112745"><ele>57.0</ele><time>2026-04-18T12:17:32.002Z</time></trkpt><trkpt lat="42.37936548653015" lon="11.656609745023292"><ele>57.5</ele><time>2026-04-18T12:17:33.002Z</time></trkpt><trkpt lat="42.379246284041045" lon="11.656668427205313"><ele>58.0</ele><time>2026-04-18T12:17:34.002Z</time></trkpt><trkpt lat="42.379128782535055" lon="11.656707157518845"><ele>58.5</ele><time>2026-04-18T12:17:35.002Z</time></trkpt><trkpt lat="42.37902211044061" lon="11.656726197417314"><ele>59.0</ele><time>2026-04-18T12:17:36.002Z</time></trkpt><trkpt lat="42.37890502027063" lon="11.656733562604161"><ele>58.0</ele><time>2026-04-18T12:17:37.002Z</time></trkpt><trkpt lat="42.378773690828744" lon="11.6567157124912"><ele>57.0</ele><time>2026-04-18T12:17:38.002Z</time></trkpt><trkpt lat="42.378628563504584" lon="11.656674954854102"><ele>56.0</ele><time>2026-04-18T12:17:39.002Z</time></trkpt><trkpt lat="42.37847437204836" lon="11.65660934536968"><ele>55.0</ele><time>2026-04-18T12:17:40.002Z</time></trkpt><trkpt lat="42.37831184532517" lon="11.656529391912544"><ele>55.0</ele><time>2026-04-18T12:17:41.002Z</time></trkpt><trkpt lat="42.37812237920928" lon="11.65644184962058"><ele>55.0</ele><time>2026-04-18T12:17:42.002Z</time></trkpt><trkpt lat="42.37790168046063" lon="11.656342137350315"><ele>55.0</ele><time>2026-04-18T12:17:43.002Z</time></trkpt><trkpt lat="42.3776443915013" lon="11.656229492836541"><ele>53.5</ele><time>2026-04-18T12:17:44.002Z</time></trkpt><trkpt lat="42.37738503558568" lon="11.656115088873044"><ele>52.0</ele><time>2026-04-18T12:17:45.002Z</time></trkpt><trkpt lat="42.37715208242044" lon="11.656007096363652"><ele>51.5</ele><time>2026-04-18T12:17:46.002Z</time></trkpt><trkpt lat="42.376933883193864" lon="11.655897623537975"><ele>51.0</ele><time>2026-04-18T12:17:47.002Z</time></trkpt><trkpt lat="42.376735712299954" lon="11.655758563231513"><ele>51.0</ele><time>2026-04-18T12:17:48.002Z</time></trkpt><trkpt lat="42.376546253960946" lon="11.655614234460327"><ele>51.0</ele><time>2026-04-18T12:17:49.002Z</time></trkpt><trkpt lat="42.37636325430732" lon="11.655452272958698"><ele>51.0</ele><time>2026-04-18T12:17:50.002Z</time></trkpt><trkpt lat="42.37619152398649" lon="11.655275552259155"><ele>51.0</ele><time>2026-04-18T12:17:51.002Z</time></trkpt><trkpt lat="42.37602555036121" lon="11.655085451287531"><ele>51.0</ele><time>2026-04-18T12:17:52.002Z</time></trkpt><trkpt lat="42.37586676144004" lon="11.654894045466989"><ele>51.0</ele><time>2026-04-18T12:17:53.002Z</time></trkpt><trkpt lat="42.375711487091735" lon="11.65469378770061"><ele>51.0</ele><time>2026-04-18T12:17:54.002Z</time></trkpt><trkpt lat="42.37555913387826" lon="11.65449518126836"><ele>51.0</ele><time>2026-04-18T12:17:55.002Z</time></trkpt><trkpt lat="42.37540444006441" lon="11.654293013994693"><ele>51.0</ele><time>2026-04-18T12:17:56.002Z</time></trkpt><trkpt lat="42.37524786564856" lon="11.65408915996289"><ele>49.666666666666664</ele><time>2026-04-18T12:17:57.002Z</time></trkpt><trkpt lat="42.37509025437409" lon="11.653884178277291"><ele>48.33333333333333</ele><time>2026-04-18T12:17:58.002Z</time></trkpt><trkpt lat="42.37493420079465" lon="11.653681222458376"><ele>47.0</ele><time>2026-04-18T12:17:59.003Z</time></trkpt><trkpt lat="42.374785580737786" lon="11.65348794606036"><ele>46.33333333333333</ele><time>2026-04-18T12:18:00.003Z</time></trkpt><trkpt lat="42.37463699346988" lon="11.653295097295807"><ele>45.666666666666664</ele><time>2026-04-18T12:18:01.003Z</time></trkpt><trkpt lat="42.374483626452395" lon="11.653096045085555"><ele>45.0</ele><time>2026-04-18T12:18:02.003Z</time></trkpt><trkpt lat="42.37432893109934" lon="11.652895268914978"><ele>44.666666666666664</ele><time>2026-04-18T12:18:03.003Z</time></trkpt><trkpt lat="42.37417321334771" lon="11.652693165682534"><ele>44.33333333333333</ele><time>2026-04-18T12:18:04.003Z</time></trkpt><trkpt lat="42.37401926465868" lon="11.652493647696334"><ele>44.0</ele><time>2026-04-18T12:18:05.003Z</time></trkpt><trkpt lat="42.37386711244114" lon="11.652296781135403"><ele>43.666666666666664</ele><time>2026-04-18T12:18:06.003Z</time></trkpt><trkpt lat="42.373717986297706" lon="11.65210426584755"><ele>43.333333333333336</ele><time>2026-04-18T12:18:07.003Z</time></trkpt><trkpt lat="42.373571585241606" lon="11.6519156291209"><ele>43.0</ele><time>2026-04-18T12:18:08.003Z</time></trkpt><trkpt lat="42.373428034935564" lon="11.65173066432367"><ele>42.66666666666667</ele><time>2026-04-18T12:18:09.003Z</time></trkpt><trkpt lat="42.37326791325102" lon="11.65155476192479"><ele>42.333333333333336</ele><time>2026-04-18T12:18:10.003Z</time></trkpt><trkpt lat="42.373122572992344" lon="11.651356202669746"><ele>42.0</ele><time>2026-04-18T12:18:11.003Z</time></trkpt><trkpt lat="42.37297317752331" lon="11.651164166893473"><ele>40.333333333333336</ele><time>2026-04-18T12:18:12.003Z</time></trkpt><trkpt lat="42.37281770035255" lon="11.650973396298891"><ele>38.66666666666667</ele><time>2026-04-18T12:18:13.003Z</time></trkpt><trkpt lat="42.37268066604204" lon="11.650767945145976"><ele>37.0</ele><time>2026-04-18T12:18:14Z</time></trkpt><trkpt lat="42.372539218467566" lon="11.65058603709507"><ele>37.0</ele><time>2026-04-18T12:18:15Z</time></trkpt><trkpt lat="42.372393616848996" lon="11.650402403916045"><ele>37.0</ele><time>2026-04-18T12:18:16Z</time></trkpt><trkpt lat="42.372238476727304" lon="11.65022887550603"><ele>37.0</ele><time>2026-04-18T12:18:17Z</time></trkpt><trkpt lat="42.372080344136876" lon="11.650040531111895"><ele>35.333333333333336</ele><time>2026-04-18T12:18:18Z</time></trkpt><trkpt lat="42.371917079398244" lon="11.649858797654174"><ele>33.666666666666664</ele><time>2026-04-18T12:18:19Z</time></trkpt><trkpt lat="42.37174439439733" lon="11.649679995330388"><ele>32.0</ele><time>2026-04-18T12:18:20Z</time></trkpt><trkpt lat="42.37156025545341" lon="11.649510257587535"><ele>33.33333333333333</ele><time>2026-04-18T12:18:21Z</time></trkpt><trkpt lat="42.37137302332502" lon="11.649363977910813"><ele>34.666666666666664</ele><time>2026-04-18T12:18:22Z</time></trkpt><trkpt lat="42.37117753989866" lon="11.649228954080503"><ele>36.0</ele><time>2026-04-18T12:18:23Z</time></trkpt><trkpt lat="42.370984524555" lon="11.649097786427111"><ele>33.0</ele><time>2026-04-18T12:18:24Z</time></trkpt><trkpt lat="42.37079213108881" lon="11.648966572548577"><ele>30.0</ele><time>2026-04-18T12:18:25Z</time></trkpt><trkpt lat="42.37060171343533" lon="11.648842670669803"><ele>27.0</ele><time>2026-04-18T12:18:26Z</time></trkpt><trkpt lat="42.37041582687383" lon="11.6487239533822"><ele>26.666666666666664</ele><time>2026-04-18T12:18:27Z</time></trkpt><trkpt lat="42.370228426853714" lon="11.648606339407724"><ele>26.333333333333332</ele><time>2026-04-18T12:18:28Z</time></trkpt><trkpt lat="42.37003770034098" lon="11.648479919015788"><ele>26.0</ele><time>2026-04-18T12:18:29Z</time></trkpt><trkpt lat="42.36984255541262" lon="11.648350533990751"><ele>23.333333333333332</ele><time>2026-04-18T12:18:30Z</time></trkpt><trkpt lat="42.36965011126099" lon="11.648225425058763"><ele>20.666666666666664</ele><time>2026-04-18T12:18:31Z</time></trkpt><trkpt lat="42.36945837500269" lon="11.6481052058077"><ele>18.0</ele><time>2026-04-18T12:18:32Z</time></trkpt><trkpt lat="42.369269187171426" lon="11.647982648896056"><ele>18.0</ele><time>2026-04-18T12:18:33Z</time></trkpt><trkpt lat="42.36908643506847" lon="11.647856172892785"><ele>18.0</ele><time>2026-04-18T12:18:34Z</time></trkpt><trkpt lat="42.36890544269499" lon="11.64773803250967"><ele>18.0</ele><time>2026-04-18T12:18:35Z</time></trkpt><trkpt lat="42.368724389452524" lon="11.647618754453939"><ele>18.333333333333332</ele><time>2026-04-18T12:18:36Z</time></trkpt><trkpt lat="42.36854577761077" lon="11.647498670404078"><ele>18.666666666666664</ele><time>2026-04-18T12:18:37Z</time></trkpt><trkpt lat="42.36836480873797" lon="11.647378433636042"><ele>19.0</ele><time>2026-04-18T12:18:38Z</time></trkpt><trkpt lat="42.36818278361704" lon="11.647262531274457"><ele>20.666666666666664</ele><time>2026-04-18T12:18:39Z</time></trkpt><trkpt lat="42.36800296937885" lon="11.64714516398109"><ele>22.333333333333332</ele><time>2026-04-18T12:18:40Z</time></trkpt><trkpt lat="42.36782437494275" lon="11.647030180517078"><ele>24.0</ele><time>2026-04-18T12:18:41Z</time></trkpt><trkpt lat="42.36764763022626" lon="11.646920073984871"><ele>24.0</ele><time>2026-04-18T12:18:42Z</time></trkpt><trkpt lat="42.3674721700599" lon="11.646799962239891"><ele>24.0</ele><time>2026-04-18T12:18:43.001Z</time></trkpt><trkpt lat="42.367290233322485" lon="11.646683929681284"><ele>24.0</ele><time>2026-04-18T12:18:44.001Z</time></trkpt><trkpt lat="42.36711105625247" lon="11.646565901607955"><ele>25.333333333333336</ele><time>2026-04-18T12:18:45.001Z</time></trkpt><trkpt lat="42.36693257158274" lon="11.646442015445267"><ele>26.666666666666668</ele><time>2026-04-18T12:18:46.001Z</time></trkpt><trkpt lat="42.36675544372543" lon="11.646320494084009"><ele>28.0</ele><time>2026-04-18T12:18:47.001Z</time></trkpt><trkpt lat="42.36657837686509" lon="11.64620597689192"><ele>28.333333333333336</ele><time>2026-04-18T12:18:48.001Z</time></trkpt><trkpt lat="42.366406543535234" lon="11.646094478251605"><ele>28.666666666666664</ele><time>2026-04-18T12:18:49.001Z</time></trkpt><trkpt lat="42.366237263172565" lon="11.645982700481252"><ele>29.0</ele><time>2026-04-18T12:18:50.001Z</time></trkpt><trkpt lat="42.366065873657725" lon="11.645876230335533"><ele>30.0</ele><time>2026-04-18T12:18:51.001Z</time></trkpt><trkpt lat="42.36589492059779" lon="11.64577243559091"><ele>31.0</ele><time>2026-04-18T12:18:52.001Z</time></trkpt><trkpt lat="42.36571359213971" lon="11.6456580534135"><ele>32.0</ele><time>2026-04-18T12:18:53.001Z</time></trkpt><trkpt lat="42.36550722544748" lon="11.645536728171693"><ele>32.5</ele><time>2026-04-18T12:18:54.001Z</time></trkpt><trkpt lat="42.36527230020885" lon="11.645440953940708"><ele>33.0</ele><time>2026-04-18T12:18:55.001Z</time></trkpt><trkpt lat="42.36504686901847" lon="11.645373365389004"><ele>33.0</ele><time>2026-04-18T12:18:56.001Z</time></trkpt><trkpt lat="42.36484152364779" lon="11.645324297737389"><ele>33.0</ele><time>2026-04-18T12:18:57.001Z</time></trkpt><trkpt lat="42.364650117468436" lon="11.645303593105336"><ele>33.0</ele><time>2026-04-18T12:18:58.001Z</time></trkpt><trkpt lat="42.36445458977613" lon="11.645301330681177"><ele>35.333333333333336</ele><time>2026-04-18T12:18:59.001Z</time></trkpt><trkpt lat="42.364273984309825" lon="11.645314772921981"><ele>37.66666666666667</ele><time>2026-04-18T12:19:00.001Z</time></trkpt><trkpt lat="42.3640874544119" lon="11.645334647900269"><ele>40.0</ele><time>2026-04-18T12:19:01.001Z</time></trkpt><trkpt lat="42.36390526714576" lon="11.645352596991664"><ele>41.66666666666667</ele><time>2026-04-18T12:19:02.001Z</time></trkpt><trkpt lat="42.36372732892967" lon="11.645378352219014"><ele>43.333333333333336</ele><time>2026-04-18T12:19:03.001Z</time></trkpt><trkpt lat="42.36355211960775" lon="11.64540997831643"><ele>45.0</ele><time>2026-04-18T12:19:04.001Z</time></trkpt><trkpt lat="42.36337473543884" lon="11.645442866611011"><ele>45.0</ele><time>2026-04-18T12:19:05.001Z</time></trkpt><trkpt lat="42.363195617715014" lon="11.645474622006686"><ele>45.0</ele><time>2026-04-18T12:19:06.001Z</time></trkpt><trkpt lat="42.363014738574066" lon="11.645502796306289"><ele>45.0</ele><time>2026-04-18T12:19:07.001Z</time></trkpt><trkpt lat="42.3628362622612" lon="11.645530451008959"><ele>45.666666666666664</ele><time>2026-04-18T12:19:08.001Z</time></trkpt><trkpt lat="42.362676434303616" lon="11.645560335834706"><ele>46.33333333333333</ele><time>2026-04-18T12:19:09.001Z</time></trkpt><trkpt lat="42.362519508784096" lon="11.64558685067476"><ele>47.0</ele><time>2026-04-18T12:19:10.001Z</time></trkpt><trkpt lat="42.36236085901051" lon="11.64561785761652"><ele>47.0</ele><time>2026-04-18T12:19:11.001Z</time></trkpt><trkpt lat="42.36219597432283" lon="11.645647740392828"><ele>47.0</ele><time>2026-04-18T12:19:12.001Z</time></trkpt><trkpt lat="42.36203060279618" lon="11.645663127415274"><ele>47.0</ele><time>2026-04-18T12:19:13.001Z</time></trkpt><trkpt lat="42.36186272694468" lon="11.645648455560574"><ele>47.0</ele><time>2026-04-18T12:19:14.001Z</time></trkpt><trkpt lat="42.3616929232392" lon="11.64561778772089"><ele>47.0</ele><time>2026-04-18T12:19:15.001Z</time></trkpt><trkpt lat="42.361531743233336" lon="11.645564133812961"><ele>47.0</ele><time>2026-04-18T12:19:16.001Z</time></trkpt><trkpt lat="42.36138359591445" lon="11.645484788409252"><ele>47.666666666666664</ele><time>2026-04-18T12:19:17.001Z</time></trkpt><trkpt lat="42.361246183605736" lon="11.645377044546192"><ele>48.33333333333333</ele><time>2026-04-18T12:19:18.001Z</time></trkpt><trkpt lat="42.361122439423" lon="11.645255798368156"><ele>49.0</ele><time>2026-04-18T12:19:19.001Z</time></trkpt><trkpt lat="42.3610075334104" lon="11.645124954647775"><ele>49.0</ele><time>2026-04-18T12:19:20.001Z</time></trkpt><trkpt lat="42.3608988347246" lon="11.644978950834298"><ele>49.0</ele><time>2026-04-18T12:19:21.001Z</time></trkpt><trkpt lat="42.36079588255117" lon="11.644830703267484"><ele>49.0</ele><time>2026-04-18T12:19:22.001Z</time></trkpt><trkpt lat="42.3606904076215" lon="11.644677394913606"><ele>49.0</ele><time>2026-04-18T12:19:23.001Z</time></trkpt><trkpt lat="42.360574530523074" lon="11.644514694745746"><ele>49.0</ele><time>2026-04-18T12:19:24.001Z</time></trkpt><trkpt lat="42.36045208366711" lon="11.644342287084324"><ele>49.0</ele><time>2026-04-18T12:19:25.001Z</time></trkpt><trkpt lat="42.3603506713923" lon="11.64419070771045"><ele>48.800000000000004</ele><time>2026-04-18T12:19:26.001Z</time></trkpt><trkpt lat="42.360268442142" lon="11.644049906536093"><ele>48.6</ele><time>2026-04-18T12:19:27.001Z</time></trkpt><trkpt lat="42.360213834472745" lon="11.64390970276852"><ele>48.4</ele><time>2026-04-18T12:19:28.001Z</time></trkpt><trkpt lat="42.36016788192458" lon="11.643788163042164"><ele>48.2</ele><time>2026-04-18T12:19:29.001Z</time></trkpt><trkpt lat="42.36012047822462" lon="11.643719969737274"><ele>48.0</ele><time>2026-04-18T12:19:30.002Z</time></trkpt><trkpt lat="42.3600566658698" lon="11.643706958051029"><ele>48.0</ele><time>2026-04-18T12:19:31.002Z</time></trkpt><trkpt lat="42.359986588160446" lon="11.643737179140603"><ele>48.0</ele><time>2026-04-18T12:19:32.002Z</time></trkpt><trkpt lat="42.35992529687794" lon="11.643816026134235"><ele>48.0</ele><time>2026-04-18T12:19:33.002Z</time></trkpt><trkpt lat="42.359886788437606" lon="11.643908605282785"><ele>48.0</ele><time>2026-04-18T12:19:34.002Z</time></trkpt><trkpt lat="42.359897356778355" lon="11.644035396202026"><ele>48.0</ele><time>2026-04-18T12:19:35.002Z</time></trkpt><trkpt lat="42.35989884191444" lon="11.64415503843321"><ele>48.0</ele><time>2026-04-18T12:19:36.002Z</time></trkpt><trkpt lat="42.35988317638204" lon="11.644307780051834"><ele>47.75</ele><time>2026-04-18T12:19:37.002Z</time></trkpt><trkpt lat="42.35986814648892" lon="11.644475173448521"><ele>47.5</ele><time>2026-04-18T12:19:38.002Z</time></trkpt><trkpt lat="42.359870595128406" lon="11.644658050278721"><ele>47.25</ele><time>2026-04-18T12:19:39.002Z</time></trkpt><trkpt lat="42.35989260368241" lon="11.64485936097075"><ele>47.0</ele><time>2026-04-18T12:19:40.002Z</time></trkpt><trkpt lat="42.359919052679345" lon="11.645084764682801"><ele>47.0</ele><time>2026-04-18T12:19:41.002Z</time></trkpt><trkpt lat="42.35994637079084" lon="11.64533245192458"><ele>47.0</ele><time>2026-04-18T12:19:42.002Z</time></trkpt><trkpt lat="42.359974176061854" lon="11.645561841285026"><ele>47.0</ele><time>2026-04-18T12:19:43.002Z</time></trkpt><trkpt lat="42.36000038168494" lon="11.645794811732607"><ele>47.0</ele><time>2026-04-18T12:19:44.002Z</time></trkpt><trkpt lat="42.36002584905993" lon="11.646033860836603"><ele>47.0</ele><time>2026-04-18T12:19:45.002Z</time></trkpt><trkpt lat="42.36005288510186" lon="11.646272899953921"><ele>47.0</ele><time>2026-04-18T12:19:46.002Z</time></trkpt><trkpt lat="42.36008013379716" lon="11.646509373632458"><ele>47.0</ele><time>2026-04-18T12:19:47.002Z</time></trkpt><trkpt lat="42.360105737111674" lon="11.646748557675132"><ele>47.0</ele><time>2026-04-18T12:19:48.002Z</time></trkpt><trkpt lat="42.36012896118294" lon="11.646989394613056"><ele>47.0</ele><time>2026-04-18T12:19:49.002Z</time></trkpt><trkpt lat="42.36015470275718" lon="11.647223773647237"><ele>47.33333333333333</ele><time>2026-04-18T12:19:50.002Z</time></trkpt><trkpt lat="42.360181613544086" lon="11.647450382968492"><ele>47.666666666666664</ele><time>2026-04-18T12:19:51.002Z</time></trkpt><trkpt lat="42.36020948103897" lon="11.647681208597927"><ele>48.0</ele><time>2026-04-18T12:19:52.002Z</time></trkpt><trkpt lat="42.360237872190616" lon="11.647918013139737"><ele>48.33333333333333</ele><time>2026-04-18T12:19:53.002Z</time></trkpt><trkpt lat="42.360265539276035" lon="11.64815842840942"><ele>48.666666666666664</ele><time>2026-04-18T12:19:54.002Z</time></trkpt><trkpt lat="42.36029310450043" lon="11.648402115455012"><ele>49.0</ele><time>2026-04-18T12:19:55.002Z</time></trkpt><trkpt lat="42.3603208597845" lon="11.648650029587879"><ele>49.0</ele><time>2026-04-18T12:19:56.002Z</time></trkpt><trkpt lat="42.3603499483396" lon="11.64890082131795"><ele>49.0</ele><time>2026-04-18T12:19:57.002Z</time></trkpt><trkpt lat="42.36037889273145" lon="11.64916103419326"><ele>49.0</ele><time>2026-04-18T12:19:58.002Z</time></trkpt><trkpt lat="42.3604073530803" lon="11.649425672794376"><ele>49.0</ele><time>2026-04-18T12:19:59.002Z</time></trkpt><trkpt lat="42.360437921989195" lon="11.64970377111467"><ele>49.0</ele><time>2026-04-18T12:20:00.002Z</time></trkpt><trkpt lat="42.36046942514947" lon="11.649993557274515"><ele>49.0</ele><time>2026-04-18T12:20:01.002Z</time></trkpt><trkpt lat="42.36050270476258" lon="11.650282336913733"><ele>49.33333333333333</ele><time>2026-04-18T12:20:02.002Z</time></trkpt><trkpt lat="42.36053625207283" lon="11.650569064105873"><ele>49.66666666666667</ele><time>2026-04-18T12:20:03.002Z</time></trkpt><trkpt lat="42.36056984614549" lon="11.650855906268633"><ele>50.0</ele><time>2026-04-18T12:20:04.002Z</time></trkpt><trkpt lat="42.36060111706175" lon="11.6511436498312"><ele>50.0</ele><time>2026-04-18T12:20:05.002Z</time></trkpt><trkpt lat="42.360632975434044" lon="11.65142938095716"><ele>50.0</ele><time>2026-04-18T12:20:06.002Z</time></trkpt><trkpt lat="42.36066467224811" lon="11.651712146326867"><ele>50.0</ele><time>2026-04-18T12:20:07.002Z</time></trkpt><trkpt lat="42.36069655948685" lon="11.651997691149127"><ele>50.66666666666667</ele><time>2026-04-18T12:20:08.002Z</time></trkpt><trkpt lat="42.360730099535274" lon="11.652285498598982"><ele>51.33333333333333</ele><time>2026-04-18T12:20:09.002Z</time></trkpt><trkpt lat="42.36076435598846" lon="11.65257423951722"><ele>52.0</ele><time>2026-04-18T12:20:10.002Z</time></trkpt><trkpt lat="42.3607978394482" lon="11.652864141936865"><ele>52.666666666666664</ele><time>2026-04-18T12:20:11.002Z</time></trkpt><trkpt lat="42.36083007899663" lon="11.653155721040683"><ele>53.33333333333333</ele><time>2026-04-18T12:20:12.002Z</time></trkpt><trkpt lat="42.3608640847392" lon="11.653442641091592"><ele>54.0</ele><time>2026-04-18T12:20:13.002Z</time></trkpt><trkpt lat="42.36089763001213" lon="11.653728334288026"><ele>54.0</ele><time>2026-04-18T12:20:14.002Z</time></trkpt><trkpt lat="42.360930287791255" lon="11.654011544281156"><ele>54.0</ele><time>2026-04-18T12:20:15.003Z</time></trkpt><trkpt lat="42.36096030587545" lon="11.654292525853815"><ele>54.0</ele><time>2026-04-18T12:20:16.003Z</time></trkpt><trkpt lat="42.36099066608827" lon="11.65456724637805"><ele>54.0</ele><time>2026-04-18T12:20:17.003Z</time></trkpt><trkpt lat="42.36102042495116" lon="11.654840656691084"><ele>54.0</ele><time>2026-04-18T12:20:18.003Z</time></trkpt><trkpt lat="42.36105047400335" lon="11.655112924602687"><ele>54.0</ele><time>2026-04-18T12:20:19.003Z</time></trkpt><trkpt lat="42.36108187097165" lon="11.655384922857424"><ele>54.0</ele><time>2026-04-18T12:20:20Z</time></trkpt><trkpt lat="42.361115315224005" lon="11.65565535913493"><ele>54.0</ele><time>2026-04-18T12:20:21Z</time></trkpt><trkpt lat="42.36114836117214" lon="11.65592555079512"><ele>54.0</ele><time>2026-04-18T12:20:22Z</time></trkpt><trkpt lat="42.36117934475512" lon="11.656192184394381"><ele>54.0</ele><time>2026-04-18T12:20:23Z</time></trkpt><trkpt lat="42.3612084238111" lon="11.656464505479535"><ele>54.0</ele><time>2026-04-18T12:20:24Z</time></trkpt><trkpt lat="42.36123806616009" lon="11.656730851974366"><ele>54.0</ele><time>2026-04-18T12:20:25Z</time></trkpt><trkpt lat="42.361269740659715" lon="11.656996288438839"><ele>54.0</ele><time>2026-04-18T12:20:26Z</time></trkpt><trkpt lat="42.361298677137235" lon="11.657260810736766"><ele>54.0</ele><time>2026-04-18T12:20:27Z</time></trkpt><trkpt lat="42.36132734050606" lon="11.657526065752288"><ele>54.0</ele><time>2026-04-18T12:20:28Z</time></trkpt><trkpt lat="42.36135607068161" lon="11.65778230424594"><ele>55.33333333333333</ele><time>2026-04-18T12:20:29Z</time></trkpt><trkpt lat="42.36138691288059" lon="11.658042120335034"><ele>56.666666666666664</ele><time>2026-04-18T12:20:30Z</time></trkpt><trkpt lat="42.3614168729271" lon="11.658298894175106"><ele>58.0</ele><time>2026-04-18T12:20:31Z</time></trkpt><trkpt lat="42.36144835627047" lon="11.658550646445148"><ele>58.33333333333333</ele><time>2026-04-18T12:20:32Z</time></trkpt><trkpt lat="42.36147953421283" lon="11.658802293001177"><ele>58.66666666666667</ele><time>2026-04-18T12:20:33Z</time></trkpt><trkpt lat="42.36150951127051" lon="11.659053043499297"><ele>59.0</ele><time>2026-04-18T12:20:34Z</time></trkpt><trkpt lat="42.36153439334684" lon="11.659290014345757"><ele>59.333333333333336</ele><time>2026-04-18T12:20:35Z</time></trkpt><trkpt lat="42.361560146878475" lon="11.659526041950684"><ele>59.66666666666667</ele><time>2026-04-18T12:20:36Z</time></trkpt><trkpt lat="42.36158824535722" lon="11.65976439326092"><ele>60.0</ele><time>2026-04-18T12:20:37Z</time></trkpt><trkpt lat="42.36161764300016" lon="11.660002717021063"><ele>60.0</ele><time>2026-04-18T12:20:38Z</time></trkpt><trkpt lat="42.36164583772394" lon="11.660241879672931"><ele>60.0</ele><time>2026-04-18T12:20:39Z</time></trkpt><trkpt lat="42.361673547516936" lon="11.660484852258946"><ele>60.0</ele><time>2026-04-18T12:20:40Z</time></trkpt><trkpt lat="42.36170756552227" lon="11.660739217096781"><ele>60.0</ele><time>2026-04-18T12:20:41Z</time></trkpt><trkpt lat="42.36174207907306" lon="11.660996994942677"><ele>60.0</ele><time>2026-04-18T12:20:42Z</time></trkpt><trkpt lat="42.36177715938367" lon="11.661265420668165"><ele>60.0</ele><time>2026-04-18T12:20:43Z</time></trkpt><trkpt lat="42.3618148803065" lon="11.661524395774055"><ele>61.0</ele><time>2026-04-18T12:20:44Z</time></trkpt><trkpt lat="42.36185156475677" lon="11.661793759314156"><ele>62.0</ele><time>2026-04-18T12:20:45Z</time></trkpt><trkpt lat="42.36188507374903" lon="11.662057876997064"><ele>63.0</ele><time>2026-04-18T12:20:46Z</time></trkpt><trkpt lat="42.36191710303444" lon="11.662322673939027"><ele>63.0</ele><time>2026-04-18T12:20:47Z</time></trkpt><trkpt lat="42.361951223445885" lon="11.66259054026089"><ele>63.0</ele><time>2026-04-18T12:20:48Z</time></trkpt><trkpt lat="42.36198625647976" lon="11.662852406124374"><ele>63.0</ele><time>2026-04-18T12:20:49Z</time></trkpt><trkpt lat="42.36202081414474" lon="11.66310496884792"><ele>63.0</ele><time>2026-04-18T12:20:50Z</time></trkpt><trkpt lat="42.36205353729919" lon="11.663359887499428"><ele>63.0</ele><time>2026-04-18T12:20:51Z</time></trkpt><trkpt lat="42.362086829464964" lon="11.663623313024774"><ele>63.0</ele><time>2026-04-18T12:20:52Z</time></trkpt><trkpt lat="42.36211976296367" lon="11.663885732029575"><ele>63.0</ele><time>2026-04-18T12:20:53Z</time></trkpt><trkpt lat="42.36215461704079" lon="11.664148295796943"><ele>63.0</ele><time>2026-04-18T12:20:54Z</time></trkpt><trkpt lat="42.36219840104483" lon="11.664407340079123"><ele>63.0</ele><time>2026-04-18T12:20:55Z</time></trkpt><trkpt lat="42.36222940130236" lon="11.66468232683294"><ele>63.33333333333333</ele><time>2026-04-18T12:20:56Z</time></trkpt><trkpt lat="42.362263909965314" lon="11.66495105909546"><ele>63.666666666666664</ele><time>2026-04-18T12:20:57Z</time></trkpt><trkpt lat="42.36229385661773" lon="11.665228970569322"><ele>64.0</ele><time>2026-04-18T12:20:58Z</time></trkpt><trkpt lat="42.36233968553483" lon="11.665518058359455"><ele>64.0</ele><time>2026-04-18T12:20:59Z</time></trkpt><trkpt lat="42.36237057839276" lon="11.66578814995214"><ele>64.0</ele><time>2026-04-18T12:21:00Z</time></trkpt><trkpt lat="42.36240732929675" lon="11.666058498726658"><ele>64.0</ele><time>2026-04-18T12:21:01.001Z</time></trkpt><trkpt lat="42.362447744390565" lon="11.666319478600288"><ele>64.0</ele><time>2026-04-18T12:21:02.001Z</time></trkpt><trkpt lat="42.3624912787546" lon="11.666577499655507"><ele>64.0</ele><time>2026-04-18T12:21:03.001Z</time></trkpt><trkpt lat="42.36253798361813" lon="11.666832143480988"><ele>64.0</ele><time>2026-04-18T12:21:04.001Z</time></trkpt><trkpt lat="42.36258293740446" lon="11.667077633443274"><ele>64.33333333333333</ele><time>2026-04-18T12:21:05.001Z</time></trkpt><trkpt lat="42.36263043720193" lon="11.667317316594074"><ele>64.66666666666667</ele><time>2026-04-18T12:21:06.001Z</time></trkpt><trkpt lat="42.36268051816874" lon="11.66755263043974"><ele>65.0</ele><time>2026-04-18T12:21:07.001Z</time></trkpt><trkpt lat="42.36272737429525" lon="11.66778233055257"><ele>65.0</ele><time>2026-04-18T12:21:08.001Z</time></trkpt><trkpt lat="42.36277302576801" lon="11.668017441101798"><ele>65.0</ele><time>2026-04-18T12:21:09.001Z</time></trkpt><trkpt lat="42.3628194686482" lon="11.668247007045503"><ele>65.0</ele><time>2026-04-18T12:21:10.001Z</time></trkpt><trkpt lat="42.36286692375556" lon="11.668472574894833"><ele>65.33333333333334</ele><time>2026-04-18T12:21:11.001Z</time></trkpt><trkpt lat="42.36291881601919" lon="11.668702985033635"><ele>65.66666666666667</ele><time>2026-04-18T12:21:12.001Z</time></trkpt><trkpt lat="42.36297082250478" lon="11.66894928930701"><ele>66.0</ele><time>2026-04-18T12:21:13.001Z</time></trkpt><trkpt lat="42.36302617824156" lon="11.669201496674468"><ele>65.66666666666667</ele><time>2026-04-18T12:21:14.001Z</time></trkpt><trkpt lat="42.36307741588551" lon="11.669466170916497"><ele>65.33333333333334</ele><time>2026-04-18T12:21:15.001Z</time></trkpt><trkpt lat="42.36313004609731" lon="11.669729931784332"><ele>65.0</ele><time>2026-04-18T12:21:16.001Z</time></trkpt><trkpt lat="42.36318029319923" lon="11.66999098131484"><ele>65.0</ele><time>2026-04-18T12:21:17.001Z</time></trkpt><trkpt lat="42.36323071896146" lon="11.670238843674497"><ele>65.0</ele><time>2026-04-18T12:21:18.001Z</time></trkpt><trkpt lat="42.36328157543676" lon="11.670483840149156"><ele>65.0</ele><time>2026-04-18T12:21:19.001Z</time></trkpt><trkpt lat="42.36333271308736" lon="11.670737837946266"><ele>65.0</ele><time>2026-04-18T12:21:20.001Z</time></trkpt><trkpt lat="42.36338397813364" lon="11.670992185736507"><ele>65.0</ele><time>2026-04-18T12:21:21.001Z</time></trkpt><trkpt lat="42.363436908870604" lon="11.671245939166049"><ele>65.0</ele><time>2026-04-18T12:21:22.001Z</time></trkpt><trkpt lat="42.36349044577743" lon="11.67149704181595"><ele>65.0</ele><time>2026-04-18T12:21:23.001Z</time></trkpt><trkpt lat="42.363541690073966" lon="11.6717503222213"><ele>65.0</ele><time>2026-04-18T12:21:24.001Z</time></trkpt><trkpt lat="42.36355230472916" lon="11.672009033015248"><ele>65.0</ele><time>2026-04-18T12:21:25.001Z</time></trkpt><trkpt lat="42.363515246230364" lon="11.672266767350026"><ele>65.0</ele><time>2026-04-18T12:21:26.001Z</time></trkpt><trkpt lat="42.363448290329394" lon="11.672518866522296"><ele>65.0</ele><time>2026-04-18T12:21:27.001Z</time></trkpt><trkpt lat="42.36333589901442" lon="11.672762322226237"><ele>65.0</ele><time>2026-04-18T12:21:28.001Z</time></trkpt><trkpt lat="42.36318907875948" lon="11.673009043799288"><ele>65.0</ele><time>2026-04-18T12:21:29.001Z</time></trkpt><trkpt lat="42.36301095075102" lon="11.6732630390752"><ele>65.0</ele><time>2026-04-18T12:21:30.001Z</time></trkpt><trkpt lat="42.3628072493164" lon="11.673533367104694"><ele>64.5</ele><time>2026-04-18T12:21:31.001Z</time></trkpt><trkpt lat="42.36262174211775" lon="11.673824976426532"><ele>64.0</ele><time>2026-04-18T12:21:32.001Z</time></trkpt><trkpt lat="42.362433996159275" lon="11.674108252195612"><ele>64.0</ele><time>2026-04-18T12:21:33.001Z</time></trkpt><trkpt lat="42.36224808581457" lon="11.674386755609222"><ele>64.0</ele><time>2026-04-18T12:21:34.001Z</time></trkpt><trkpt lat="42.36206702872891" lon="11.67467704104049"><ele>63.5</ele><time>2026-04-18T12:21:35.001Z</time></trkpt><trkpt lat="42.361875276409485" lon="11.674944192196232"><ele>63.0</ele><time>2026-04-18T12:21:36.001Z</time></trkpt><trkpt lat="42.36170172316371" lon="11.675218778610217"><ele>63.5</ele><time>2026-04-18T12:21:37.001Z</time></trkpt><trkpt lat="42.361510453280886" lon="11.675491130643987"><ele>64.0</ele><time>2026-04-18T12:21:38.001Z</time></trkpt><trkpt lat="42.36133050744916" lon="11.675766953244462"><ele>65.0</ele><time>2026-04-18T12:21:39.001Z</time></trkpt><trkpt lat="42.36115659604207" lon="11.67602884762393"><ele>66.0</ele><time>2026-04-18T12:21:40.001Z</time></trkpt><trkpt lat="42.361001550193905" lon="11.676266819486484"><ele>66.0</ele><time>2026-04-18T12:21:41.001Z</time></trkpt><trkpt lat="42.36084965254346" lon="11.676506946083673"><ele>66.0</ele><time>2026-04-18T12:21:42.001Z</time></trkpt><trkpt lat="42.360680432780754" lon="11.676732060632636"><ele>67.0</ele><time>2026-04-18T12:21:43.001Z</time></trkpt><trkpt lat="42.36051908984461" lon="11.676981204127292"><ele>68.0</ele><time>2026-04-18T12:21:44.001Z</time></trkpt><trkpt lat="42.36035216677175" lon="11.677225963243464"><ele>68.0</ele><time>2026-04-18T12:21:45.002Z</time></trkpt><trkpt lat="42.36018028810707" lon="11.677483225751569"><ele>68.0</ele><time>2026-04-18T12:21:46.002Z</time></trkpt><trkpt lat="42.3600152224835" lon="11.6777500909105"><ele>68.0</ele><time>2026-04-18T12:21:47.002Z</time></trkpt><trkpt lat="42.35983837958034" lon="11.678010022693632"><ele>68.0</ele><time>2026-04-18T12:21:48.002Z</time></trkpt><trkpt lat="42.35967028391886" lon="11.67826353445768"><ele>68.0</ele><time>2026-04-18T12:21:49.002Z</time></trkpt><trkpt lat="42.35951865679528" lon="11.67849574590694"><ele>68.0</ele><time>2026-04-18T12:21:50.002Z</time></trkpt><trkpt lat="42.359374407271936" lon="11.678712167697945"><ele>68.0</ele><time>2026-04-18T12:21:51.002Z</time></trkpt><trkpt lat="42.35923004365047" lon="11.67892801855693"><ele>68.0</ele><time>2026-04-18T12:21:52.002Z</time></trkpt><trkpt lat="42.35908386191152" lon="11.679146967018514"><ele>68.0</ele><time>2026-04-18T12:21:53.002Z</time></trkpt><trkpt lat="42.35893923232458" lon="11.679366142664882"><ele>68.0</ele><time>2026-04-18T12:21:54.002Z</time></trkpt><trkpt lat="42.35879960511787" lon="11.679581885843406"><ele>68.0</ele><time>2026-04-18T12:21:55.002Z</time></trkpt><trkpt lat="42.358656692283965" lon="11.679797994005519"><ele>68.0</ele><time>2026-04-18T12:21:56.002Z</time></trkpt><trkpt lat="42.35851488111856" lon="11.680007006404788"><ele>68.0</ele><time>2026-04-18T12:21:57.002Z</time></trkpt><trkpt lat="42.3583730327708" lon="11.680204135707934"><ele>68.0</ele><time>2026-04-18T12:21:58.002Z</time></trkpt><trkpt lat="42.35822198136382" lon="11.680401486238022"><ele>68.0</ele><time>2026-04-18T12:21:59.002Z</time></trkpt><trkpt lat="42.358061386308876" lon="11.680583620561176"><ele>68.0</ele><time>2026-04-18T12:22:00.002Z</time></trkpt><trkpt lat="42.35790128659577" lon="11.680758410268297"><ele>68.0</ele><time>2026-04-18T12:22:01.002Z</time></trkpt><trkpt lat="42.35773385312189" lon="11.680939062091026"><ele>68.0</ele><time>2026-04-18T12:22:02.002Z</time></trkpt><trkpt lat="42.357569929663796" lon="11.681119793625408"><ele>68.0</ele><time>2026-04-18T12:22:03.002Z</time></trkpt><trkpt lat="42.35740528832083" lon="11.681303018347574"><ele>68.33333333333334</ele><time>2026-04-18T12:22:04.002Z</time></trkpt><trkpt lat="42.35724633615947" lon="11.68148990961867"><ele>68.66666666666667</ele><time>2026-04-18T12:22:05.002Z</time></trkpt><trkpt lat="42.35707451422744" lon="11.681670294864771"><ele>69.0</ele><time>2026-04-18T12:22:06.002Z</time></trkpt><trkpt lat="42.35690160580678" lon="11.681844164495518"><ele>68.66666666666667</ele><time>2026-04-18T12:22:07.002Z</time></trkpt><trkpt lat="42.35673795815196" lon="11.682040755212206"><ele>68.33333333333334</ele><time>2026-04-18T12:22:08.002Z</time></trkpt><trkpt lat="42.3565635155366" lon="11.682217570572888"><ele>68.0</ele><time>2026-04-18T12:22:09.002Z</time></trkpt><trkpt lat="42.356388374253314" lon="11.68240773425573"><ele>68.33333333333334</ele><time>2026-04-18T12:22:10.002Z</time></trkpt><trkpt lat="42.356220389577416" lon="11.682601475214662"><ele>68.66666666666667</ele><time>2026-04-18T12:22:11.002Z</time></trkpt><trkpt lat="42.35605203836694" lon="11.68277413734153"><ele>69.0</ele><time>2026-04-18T12:22:12.002Z</time></trkpt><trkpt lat="42.35590977939972" lon="11.682945068589586"><ele>68.0</ele><time>2026-04-18T12:22:13.002Z</time></trkpt><trkpt lat="42.35575888864638" lon="11.683101823650318"><ele>67.0</ele><time>2026-04-18T12:22:14.002Z</time></trkpt><trkpt lat="42.355604205473774" lon="11.683263857997442"><ele>66.0</ele><time>2026-04-18T12:22:15.002Z</time></trkpt><trkpt lat="42.35544646958876" lon="11.683440772452158"><ele>66.0</ele><time>2026-04-18T12:22:16.002Z</time></trkpt><trkpt lat="42.355291648012326" lon="11.683592345556328"><ele>66.0</ele><time>2026-04-18T12:22:17.002Z</time></trkpt><trkpt lat="42.35515495131571" lon="11.683739417702592"><ele>66.0</ele><time>2026-04-18T12:22:18.002Z</time></trkpt><trkpt lat="42.35502433912287" lon="11.683879255343763"><ele>65.66666666666667</ele><time>2026-04-18T12:22:19.002Z</time></trkpt><trkpt lat="42.35488423937014" lon="11.68403715416464"><ele>65.33333333333334</ele><time>2026-04-18T12:22:20.002Z</time></trkpt><trkpt lat="42.354746398456726" lon="11.684223020477727"><ele>65.0</ele><time>2026-04-18T12:22:21.002Z</time></trkpt><trkpt lat="42.354621787088284" lon="11.684425330846155"><ele>64.33333333333334</ele><time>2026-04-18T12:22:22.002Z</time></trkpt><trkpt lat="42.354510187993114" lon="11.68462509070819"><ele>63.66666666666667</ele><time>2026-04-18T12:22:23.002Z</time></trkpt><trkpt lat="42.35441464217803" lon="11.684839981815097"><ele>63.0</ele><time>2026-04-18T12:22:24.002Z</time></trkpt><trkpt lat="42.35434463917101" lon="11.685055998031622"><ele>62.66666666666667</ele><time>2026-04-18T12:22:25.002Z</time></trkpt><trkpt lat="42.354295944285745" lon="11.685271505726432"><ele>62.333333333333336</ele><time>2026-04-18T12:22:25.999Z</time></trkpt><trkpt lat="42.354254025423884" lon="11.685480416751101"><ele>62.0</ele><time>2026-04-18T12:22:26.999Z</time></trkpt><trkpt lat="42.354206852896915" lon="11.685672290719857"><ele>62.0</ele><time>2026-04-18T12:22:27.999Z</time></trkpt><trkpt lat="42.354145363931856" lon="11.685855088342297"><ele>62.0</ele><time>2026-04-18T12:22:28.999Z</time></trkpt><trkpt lat="42.35406319023217" lon="11.686028435006069"><ele>62.0</ele><time>2026-04-18T12:22:29.999Z</time></trkpt><trkpt lat="42.35396883838907" lon="11.68618150675767"><ele>62.0</ele><time>2026-04-18T12:22:30.999Z</time></trkpt><trkpt lat="42.35385692573928" lon="11.686311376955116"><ele>59.66666666666667</ele><time>2026-04-18T12:22:31.999Z</time></trkpt><trkpt lat="42.35371596340411" lon="11.686427080629008"><ele>57.33333333333333</ele><time>2026-04-18T12:22:32.999Z</time></trkpt><trkpt lat="42.35355555756136" lon="11.686530261038746"><ele>55.0</ele><time>2026-04-18T12:22:33.999Z</time></trkpt><trkpt lat="42.353385556225" lon="11.686631165510882"><ele>55.0</ele><time>2026-04-18T12:22:34.999Z</time></trkpt><trkpt lat="42.35319772748782" lon="11.686739113164718"><ele>55.0</ele><time>2026-04-18T12:22:35.999Z</time></trkpt><trkpt lat="42.3530001811258" lon="11.686856865333205"><ele>55.0</ele><time>2026-04-18T12:22:36.999Z</time></trkpt><trkpt lat="42.35281319289682" lon="11.686970368961495"><ele>51.666666666666664</ele><time>2026-04-18T12:22:37.999Z</time></trkpt><trkpt lat="42.35263376886709" lon="11.687079660421968"><ele>48.33333333333333</ele><time>2026-04-18T12:22:38.999Z</time></trkpt><trkpt lat="42.35245728563079" lon="11.687186845980102"><ele>45.0</ele><time>2026-04-18T12:22:39.999Z</time></trkpt><trkpt lat="42.35228626174046" lon="11.687293305432371"><ele>43.666666666666664</ele><time>2026-04-18T12:22:40.999Z</time></trkpt><trkpt lat="42.35211632946593" lon="11.687401979763687"><ele>42.33333333333333</ele><time>2026-04-18T12:22:41.999Z</time></trkpt><trkpt lat="42.35194017198037" lon="11.687508119625702"><ele>41.0</ele><time>2026-04-18T12:22:43Z</time></trkpt><trkpt lat="42.351757712806865" lon="11.687609619317824"><ele>41.0</ele><time>2026-04-18T12:22:44Z</time></trkpt><trkpt lat="42.35157951598906" lon="11.68772044069434"><ele>41.0</ele><time>2026-04-18T12:22:45Z</time></trkpt><trkpt lat="42.35140248363748" lon="11.68783228312797"><ele>41.0</ele><time>2026-04-18T12:22:46Z</time></trkpt><trkpt lat="42.351225009587836" lon="11.687941104385652"><ele>39.33333333333333</ele><time>2026-04-18T12:22:47Z</time></trkpt><trkpt lat="42.35104632986626" lon="11.688044862924162"><ele>37.666666666666664</ele><time>2026-04-18T12:22:48Z</time></trkpt><trkpt lat="42.35087725784872" lon="11.688143706318565"><ele>36.0</ele><time>2026-04-18T12:22:49Z</time></trkpt><trkpt lat="42.350716779468186" lon="11.688239668344771"><ele>36.0</ele><time>2026-04-18T12:22:50Z</time></trkpt><trkpt lat="42.35055731829668" lon="11.688321788439266"><ele>36.0</ele><time>2026-04-18T12:22:51Z</time></trkpt><trkpt lat="42.3503917551851" lon="11.688386628227065"><ele>36.0</ele><time>2026-04-18T12:22:52Z</time></trkpt><trkpt lat="42.350213861320846" lon="11.688420706365177"><ele>35.333333333333336</ele><time>2026-04-18T12:22:53Z</time></trkpt><trkpt lat="42.3500141388549" lon="11.688414783912041"><ele>34.66666666666667</ele><time>2026-04-18T12:22:54Z</time></trkpt><trkpt lat="42.34979747575854" lon="11.688347681741227"><ele>34.0</ele><time>2026-04-18T12:22:55Z</time></trkpt><trkpt lat="42.349579885589684" lon="11.688259826827347"><ele>36.0</ele><time>2026-04-18T12:22:56Z</time></trkpt><trkpt lat="42.34936411043337" lon="11.688150927740004"><ele>38.0</ele><time>2026-04-18T12:22:57Z</time></trkpt><trkpt lat="42.34915329964425" lon="11.688047878471743"><ele>38.0</ele><time>2026-04-18T12:22:58Z</time></trkpt><trkpt lat="42.348955582643235" lon="11.687967546006414"><ele>38.0</ele><time>2026-04-18T12:22:59Z</time></trkpt><trkpt lat="42.34877298288064" lon="11.687879966428818"><ele>38.0</ele><time>2026-04-18T12:23:00Z</time></trkpt><trkpt lat="42.34860234651961" lon="11.687796636096783"><ele>37.33333333333333</ele><time>2026-04-18T12:23:01Z</time></trkpt><trkpt lat="42.34844145222218" lon="11.687716316937458"><ele>36.666666666666664</ele><time>2026-04-18T12:23:02Z</time></trkpt><trkpt lat="42.34829816330833" lon="11.687649159106464"><ele>36.0</ele><time>2026-04-18T12:23:03Z</time></trkpt><trkpt lat="42.34816549571309" lon="11.687604851587066"><ele>36.0</ele><time>2026-04-18T12:23:04Z</time></trkpt><trkpt lat="42.348037163065335" lon="11.68760600709237"><ele>36.0</ele><time>2026-04-18T12:23:05Z</time></trkpt><trkpt lat="42.34790779032758" lon="11.687650148710619"><ele>36.0</ele><time>2026-04-18T12:23:06Z</time></trkpt><trkpt lat="42.347789964578084" lon="11.687740167890983"><ele>36.0</ele><time>2026-04-18T12:23:07Z</time></trkpt><trkpt lat="42.34770307324293" lon="11.687868517734666"><ele>36.0</ele><time>2026-04-18T12:23:08Z</time></trkpt><trkpt lat="42.34764526351501" lon="11.688009688329604"><ele>36.0</ele><time>2026-04-18T12:23:09Z</time></trkpt><trkpt lat="42.347613780406235" lon="11.688180398758583"><ele>36.0</ele><time>2026-04-18T12:23:10Z</time></trkpt><trkpt lat="42.34761187325207" lon="11.688378145516184"><ele>36.0</ele><time>2026-04-18T12:23:11Z</time></trkpt><trkpt lat="42.34763533896955" lon="11.688607143079738"><ele>37.0</ele><time>2026-04-18T12:23:12Z</time></trkpt><trkpt lat="42.34767823264092" lon="11.688868828196897"><ele>38.0</ele><time>2026-04-18T12:23:13Z</time></trkpt><trkpt lat="42.34772769803182" lon="11.689168623323692"><ele>39.0</ele><time>2026-04-18T12:23:14.001Z</time></trkpt><trkpt lat="42.34777845587966" lon="11.689502807421857"><ele>40.5</ele><time>2026-04-18T12:23:15.001Z</time></trkpt><trkpt lat="42.34782991588025" lon="11.689829834906309"><ele>42.0</ele><time>2026-04-18T12:23:16.001Z</time></trkpt><trkpt lat="42.34788551685248" lon="11.690101770558984"><ele>42.0</ele><time>2026-04-18T12:23:17.001Z</time></trkpt><trkpt lat="42.34794814410842" lon="11.69034176880048"><ele>42.0</ele><time>2026-04-18T12:23:18.001Z</time></trkpt><trkpt lat="42.34802260414628" lon="11.690578772582725"><ele>42.0</ele><time>2026-04-18T12:23:19.001Z</time></trkpt><trkpt lat="42.34811809351953" lon="11.690818988247516"><ele>45.0</ele><time>2026-04-18T12:23:20.001Z</time></trkpt><trkpt lat="42.34822777568214" lon="11.69106440818364"><ele>48.0</ele><time>2026-04-18T12:23:21.001Z</time></trkpt><trkpt lat="42.348350591179155" lon="11.69131662292418"><ele>51.0</ele><time>2026-04-18T12:23:22.001Z</time></trkpt><trkpt lat="42.34847019024086" lon="11.691561753402663"><ele>51.0</ele><time>2026-04-18T12:23:23.001Z</time></trkpt><trkpt lat="42.34856304095418" lon="11.69178916322676"><ele>51.0</ele><time>2026-04-18T12:23:24.001Z</time></trkpt><trkpt lat="42.34862209493547" lon="11.692010017301559"><ele>51.0</ele><time>2026-04-18T12:23:25.001Z</time></trkpt><trkpt lat="42.34866800205355" lon="11.692240302800066"><ele>52.0</ele><time>2026-04-18T12:23:26.001Z</time></trkpt><trkpt lat="42.34869495657994" lon="11.692457258019196"><ele>53.0</ele><time>2026-04-18T12:23:27.001Z</time></trkpt><trkpt lat="42.348716884281295" lon="11.692669717041449"><ele>54.0</ele><time>2026-04-18T12:23:28.001Z</time></trkpt><trkpt lat="42.348730191451466" lon="11.692883521733819"><ele>55.0</ele><time>2026-04-18T12:23:29.001Z</time></trkpt><trkpt lat="42.348732085838655" lon="11.693116293220132"><ele>56.0</ele><time>2026-04-18T12:23:30.001Z</time></trkpt><trkpt lat="42.34871369300758" lon="11.693383252229273"><ele>57.0</ele><time>2026-04-18T12:23:31.001Z</time></trkpt><trkpt lat="42.34868046125355" lon="11.693686966954438"><ele>58.0</ele><time>2026-04-18T12:23:32.001Z</time></trkpt><trkpt lat="42.34863294373123" lon="11.694017293353465"><ele>59.0</ele><time>2026-04-18T12:23:33.001Z</time></trkpt><trkpt lat="42.348587172248756" lon="11.694346785268902"><ele>59.5</ele><time>2026-04-18T12:23:34.001Z</time></trkpt><trkpt lat="42.34854756730228" lon="11.694668561673677"><ele>60.0</ele><time>2026-04-18T12:23:35.001Z</time></trkpt><trkpt lat="42.34850936071055" lon="11.694983686957375"><ele>59.5</ele><time>2026-04-18T12:23:36.001Z</time></trkpt><trkpt lat="42.3484700354375" lon="11.695297351138725"><ele>59.0</ele><time>2026-04-18T12:23:37.001Z</time></trkpt><trkpt lat="42.348434821749684" lon="11.695587255456863"><ele>59.0</ele><time>2026-04-18T12:23:38.001Z</time></trkpt><trkpt lat="42.3484021122052" lon="11.695860784346237"><ele>59.0</ele><time>2026-04-18T12:23:39.001Z</time></trkpt><trkpt lat="42.34837027796161" lon="11.69612708693943"><ele>59.0</ele><time>2026-04-18T12:23:40.001Z</time></trkpt><trkpt lat="42.348336418849186" lon="11.696394946164713"><ele>59.66666666666667</ele><time>2026-04-18T12:23:41.001Z</time></trkpt><trkpt lat="42.348302754672886" lon="11.696665332369356"><ele>60.33333333333333</ele><time>2026-04-18T12:23:42.001Z</time></trkpt><trkpt lat="42.34826977812232" lon="11.696942863797604"><ele>61.0</ele><time>2026-04-18T12:23:43.001Z</time></trkpt><trkpt lat="42.34822646506916" lon="11.69722467185612"><ele>62.0</ele><time>2026-04-18T12:23:44.001Z</time></trkpt><trkpt lat="42.348166985037196" lon="11.697519093121775"><ele>63.0</ele><time>2026-04-18T12:23:45.001Z</time></trkpt><trkpt lat="42.34809805037377" lon="11.69781898803458"><ele>63.0</ele><time>2026-04-18T12:23:46.001Z</time></trkpt><trkpt lat="42.348018843424434" lon="11.698130297764013"><ele>63.0</ele><time>2026-04-18T12:23:47.001Z</time></trkpt><trkpt lat="42.34793135222848" lon="11.698457133134358"><ele>65.5</ele><time>2026-04-18T12:23:48.001Z</time></trkpt><trkpt lat="42.347831224967315" lon="11.698793599990228"><ele>68.0</ele><time>2026-04-18T12:23:49.001Z</time></trkpt><trkpt lat="42.34772835517955" lon="11.699129480592427"><ele>69.5</ele><time>2026-04-18T12:23:50.001Z</time></trkpt><trkpt lat="42.34762461806313" lon="11.699456264228663"><ele>71.0</ele><time>2026-04-18T12:23:51.001Z</time></trkpt><trkpt lat="42.34752874003127" lon="11.699748003642243"><ele>71.0</ele><time>2026-04-18T12:23:52.001Z</time></trkpt><trkpt lat="42.34743201073666" lon="11.70003464834843"><ele>71.0</ele><time>2026-04-18T12:23:53.002Z</time></trkpt><trkpt lat="42.347340246485345" lon="11.700315081307561"><ele>71.66666666666667</ele><time>2026-04-18T12:23:54.002Z</time></trkpt><trkpt lat="42.34724839748075" lon="11.700597629503877"><ele>72.33333333333333</ele><time>2026-04-18T12:23:55.002Z</time></trkpt><trkpt lat="42.347160289364346" lon="11.70086317975339"><ele>73.0</ele><time>2026-04-18T12:23:56.002Z</time></trkpt><trkpt lat="42.34707529513603" lon="11.701125285362695"><ele>75.0</ele><time>2026-04-18T12:23:57.002Z</time></trkpt><trkpt lat="42.34699074257884" lon="11.701387526998545"><ele>77.0</ele><time>2026-04-18T12:23:58.002Z</time></trkpt><trkpt lat="42.34690784142968" lon="11.701641510244674"><ele>79.0</ele><time>2026-04-18T12:23:59.002Z</time></trkpt><trkpt lat="42.34683034898424" lon="11.70188656646907"><ele>80.0</ele><time>2026-04-18T12:24:00.002Z</time></trkpt><trkpt lat="42.34675668287861" lon="11.702121519632636"><ele>81.0</ele><time>2026-04-18T12:24:01.002Z</time></trkpt><trkpt lat="42.34668325109323" lon="11.702353253467203"><ele>82.0</ele><time>2026-04-18T12:24:02.002Z</time></trkpt><trkpt lat="42.346613746289066" lon="11.70258545454016"><ele>82.66666666666666</ele><time>2026-04-18T12:24:03.002Z</time></trkpt><trkpt lat="42.34654742038503" lon="11.702830279101775"><ele>83.33333333333333</ele><time>2026-04-18T12:24:04.002Z</time></trkpt><trkpt lat="42.34648839730773" lon="11.703086675426114"><ele>84.0</ele><time>2026-04-18T12:24:05.002Z</time></trkpt><trkpt lat="42.346426937420574" lon="11.703357673288407"><ele>80.5</ele><time>2026-04-18T12:24:06.002Z</time></trkpt><trkpt lat="42.34636160143737" lon="11.703653188805541"><ele>77.0</ele><time>2026-04-18T12:24:07.002Z</time></trkpt><trkpt lat="42.3462821410456" lon="11.703974984175405"><ele>77.0</ele><time>2026-04-18T12:24:08.002Z</time></trkpt><trkpt lat="42.346206772169865" lon="11.70430278562217"><ele>77.0</ele><time>2026-04-18T12:24:09.002Z</time></trkpt><trkpt lat="42.34613118606471" lon="11.70461984732332"><ele>78.0</ele><time>2026-04-18T12:24:10.002Z</time></trkpt><trkpt lat="42.34605654247202" lon="11.704913376392488"><ele>79.0</ele><time>2026-04-18T12:24:11.002Z</time></trkpt><trkpt lat="42.3459888273341" lon="11.705188156546535"><ele>80.0</ele><time>2026-04-18T12:24:12.002Z</time></trkpt><trkpt lat="42.345924617996495" lon="11.705461609147385"><ele>81.0</ele><time>2026-04-18T12:24:13.002Z</time></trkpt><trkpt lat="42.345864248926105" lon="11.705731346031309"><ele>82.0</ele><time>2026-04-18T12:24:14.002Z</time></trkpt><trkpt lat="42.34580206037965" lon="11.70600207580991"><ele>83.0</ele><time>2026-04-18T12:24:15.002Z</time></trkpt><trkpt lat="42.345738855148504" lon="11.70627476648639"><ele>84.33333333333334</ele><time>2026-04-18T12:24:16.002Z</time></trkpt><trkpt lat="42.3456721027927" lon="11.706550065584091"><ele>85.66666666666667</ele><time>2026-04-18T12:24:17.002Z</time></trkpt><trkpt lat="42.345608016915435" lon="11.706811496514439"><ele>87.0</ele><time>2026-04-18T12:24:18.002Z</time></trkpt><trkpt lat="42.34554931796442" lon="11.707056336433398"><ele>88.0</ele><time>2026-04-18T12:24:19.002Z</time></trkpt><trkpt lat="42.34549285673186" lon="11.707296041789439"><ele>89.0</ele><time>2026-04-18T12:24:20.002Z</time></trkpt><trkpt lat="42.34544013859572" lon="11.707528429207931"><ele>90.0</ele><time>2026-04-18T12:24:21.002Z</time></trkpt><trkpt lat="42.34538685335108" lon="11.70775982734577"><ele>91.33333333333333</ele><time>2026-04-18T12:24:22.002Z</time></trkpt><trkpt lat="42.34533023181047" lon="11.707993652510408"><ele>92.66666666666666</ele><time>2026-04-18T12:24:23.002Z</time></trkpt><trkpt lat="42.34527862700769" lon="11.708207409602895"><ele>94.0</ele><time>2026-04-18T12:24:24.002Z</time></trkpt><trkpt lat="42.345228788070834" lon="11.708417519017509"><ele>94.33333333333333</ele><time>2026-04-18T12:24:25.002Z</time></trkpt><trkpt lat="42.34517980297597" lon="11.708614682697918"><ele>94.66666666666667</ele><time>2026-04-18T12:24:26.002Z</time></trkpt><trkpt lat="42.34513002355119" lon="11.708815505413806"><ele>95.0</ele><time>2026-04-18T12:24:27.002Z</time></trkpt><trkpt lat="42.34508315202195" lon="11.709007374224418"><ele>95.0</ele><time>2026-04-18T12:24:28.002Z</time></trkpt><trkpt lat="42.34504563874672" lon="11.709176670692264"><ele>95.0</ele><time>2026-04-18T12:24:29.002Z</time></trkpt><trkpt lat="42.345018450213864" lon="11.709313812788391"><ele>95.0</ele><time>2026-04-18T12:24:30.002Z</time></trkpt><trkpt lat="42.344992506790035" lon="11.70944686829181"><ele>95.0</ele><time>2026-04-18T12:24:31Z</time></trkpt><trkpt lat="42.34497373927721" lon="11.709550899963046"><ele>95.0</ele><time>2026-04-18T12:24:32Z</time></trkpt><trkpt lat="42.34495453306066" lon="11.709653465802125"><ele>94.4</ele><time>2026-04-18T12:24:33Z</time></trkpt><trkpt lat="42.34494023263385" lon="11.70976080914216"><ele>93.8</ele><time>2026-04-18T12:24:34Z</time></trkpt><trkpt lat="42.3449287555413" lon="11.709875050390522"><ele>93.19999999999999</ele><time>2026-04-18T12:24:35Z</time></trkpt><trkpt lat="42.344920934148874" lon="11.710014188429737"><ele>92.6</ele><time>2026-04-18T12:24:36Z</time></trkpt><trkpt lat="42.34491187482159" lon="11.710179140962323"><ele>92.0</ele><time>2026-04-18T12:24:37Z</time></trkpt><trkpt lat="42.344905648996104" lon="11.710363587219563"><ele>91.39999999999999</ele><time>2026-04-18T12:24:38Z</time></trkpt><trkpt lat="42.34490200573949" lon="11.71054009728595"><ele>90.8</ele><time>2026-04-18T12:24:39Z</time></trkpt><trkpt lat="42.344898667511345" lon="11.710693237164282"><ele>90.2</ele><time>2026-04-18T12:24:40Z</time></trkpt><trkpt lat="42.344898266062025" lon="11.710829744949868"><ele>89.6</ele><time>2026-04-18T12:24:41Z</time></trkpt><trkpt lat="42.344894040265636" lon="11.710944300888128"><ele>89.0</ele><time>2026-04-18T12:24:42Z</time></trkpt><trkpt lat="42.34489231804091" lon="11.711037463119364"><ele>89.0</ele><time>2026-04-18T12:24:43Z</time></trkpt><trkpt lat="42.344831396017895" lon="11.711176072465843"><ele>89.0</ele><time>2026-04-18T12:24:45Z</time></trkpt><trkpt lat="42.34470009923684" lon="11.711244034589633"><ele>89.0</ele><time>2026-04-18T12:24:47Z</time></trkpt><trkpt lat="42.344591645686585" lon="11.711274068982032"><ele>89.0</ele><time>2026-04-18T12:24:48Z</time></trkpt><trkpt lat="42.34445975298313" lon="11.711303552175716"><ele>89.0</ele><time>2026-04-18T12:24:49Z</time></trkpt><trkpt lat="42.3442650403556" lon="11.711349741947283"><ele>89.0</ele><time>2026-04-18T12:24:50Z</time></trkpt><trkpt lat="42.34403032066795" lon="11.71140733213542"><ele>89.0</ele><time>2026-04-18T12:24:51Z</time></trkpt><trkpt lat="42.34381680814911" lon="11.71145457242314"><ele>88.0</ele><time>2026-04-18T12:24:52Z</time></trkpt><trkpt lat="42.34364264590332" lon="11.711493593706608"><ele>87.0</ele><time>2026-04-18T12:24:53Z</time></trkpt><trkpt lat="42.34349355012835" lon="11.711548764353237"><ele>86.0</ele><time>2026-04-18T12:24:54Z</time></trkpt><trkpt lat="42.34336687510083" lon="11.711628014380093"><ele>86.0</ele><time>2026-04-18T12:24:55Z</time></trkpt><trkpt lat="42.34322341080849" lon="11.711733637420922"><ele>86.0</ele><time>2026-04-18T12:24:56Z</time></trkpt><trkpt lat="42.34305012453013" lon="11.711870403781393"><ele>86.0</ele><time>2026-04-18T12:24:57Z</time></trkpt><trkpt lat="42.34284504515514" lon="11.712034459682316"><ele>89.5</ele><time>2026-04-18T12:24:58Z</time></trkpt><trkpt lat="42.34261492167397" lon="11.712218087165306"><ele>93.0</ele><time>2026-04-18T12:24:59Z</time></trkpt><trkpt lat="42.342412519342176" lon="11.712371561036365"><ele>93.0</ele><time>2026-04-18T12:25:00Z</time></trkpt><trkpt lat="42.34225063728609" lon="11.71251108404521"><ele>93.0</ele><time>2026-04-18T12:25:01Z</time></trkpt><trkpt lat="42.34211016761746" lon="11.71262929647829"><ele>93.0</ele><time>2026-04-18T12:25:02Z</time></trkpt><trkpt lat="42.3419966894916" lon="11.712724705836173"><ele>94.5</ele><time>2026-04-18T12:25:03Z</time></trkpt><trkpt lat="42.34188561850288" lon="11.712812800844091"><ele>96.0</ele><time>2026-04-18T12:25:04Z</time></trkpt><trkpt lat="42.341768594439586" lon="11.712899827474477"><ele>97.5</ele><time>2026-04-18T12:25:05Z</time></trkpt><trkpt lat="42.34167317415021" lon="11.712958931608409"><ele>99.0</ele><time>2026-04-18T12:25:06Z</time></trkpt><trkpt lat="42.341582671796395" lon="11.71296128333132"><ele>99.0</ele><time>2026-04-18T12:25:07Z</time></trkpt><trkpt lat="42.34150103777031" lon="11.712939812417291"><ele>99.0</ele><time>2026-04-18T12:25:08Z</time></trkpt><trkpt lat="42.34141808129483" lon="11.712899739867304"><ele>99.0</ele><time>2026-04-18T12:25:09Z</time></trkpt><trkpt lat="42.34132845829256" lon="11.712843513235077"><ele>99.0</ele><time>2026-04-18T12:25:10Z</time></trkpt><trkpt lat="42.34123152954595" lon="11.712771216020032"><ele>99.0</ele><time>2026-04-18T12:25:11Z</time></trkpt><trkpt lat="42.34116560711786" lon="11.712711821405403"><ele>98.0</ele><time>2026-04-18T12:25:12.001Z</time></trkpt><trkpt lat="42.341038743635735" lon="11.712868199989405"><ele>97.0</ele><time>2026-04-18T12:25:15.001Z</time></trkpt><trkpt lat="42.341008163251985" lon="11.712985823114531"><ele>96.0</ele><time>2026-04-18T12:25:16.001Z</time></trkpt><trkpt lat="42.34097717879604" lon="11.713155002865072"><ele>95.0</ele><time>2026-04-18T12:25:17.001Z</time></trkpt><trkpt lat="42.3409273212547" lon="11.713346208734396"><ele>95.0</ele><time>2026-04-18T12:25:18.001Z</time></trkpt><trkpt lat="42.34084587268724" lon="11.713543319402536"><ele>95.0</ele><time>2026-04-18T12:25:19.001Z</time></trkpt><trkpt lat="42.3407390861158" lon="11.713706651985998"><ele>95.0</ele><time>2026-04-18T12:25:20.001Z</time></trkpt><trkpt lat="42.34060114291979" lon="11.713867729791252"><ele>96.33333333333334</ele><time>2026-04-18T12:25:21.001Z</time></trkpt><trkpt lat="42.34044558960032" lon="11.714035781333552"><ele>97.66666666666667</ele><time>2026-04-18T12:25:22.001Z</time></trkpt><trkpt lat="42.34032802060002" lon="11.714206004583923"><ele>99.0</ele><time>2026-04-18T12:25:23.001Z</time></trkpt><trkpt lat="42.340233494640785" lon="11.714340840845963"><ele>99.5</ele><time>2026-04-18T12:25:24.001Z</time></trkpt><trkpt lat="42.34014402213661" lon="11.714473893688316"><ele>100.0</ele><time>2026-04-18T12:25:25.001Z</time></trkpt><trkpt lat="42.3400459387598" lon="11.71460064667082"><ele>100.5</ele><time>2026-04-18T12:25:26.001Z</time></trkpt><trkpt lat="42.339953030937636" lon="11.714749047426654"><ele>101.0</ele><time>2026-04-18T12:25:27.001Z</time></trkpt><trkpt lat="42.33986942257862" lon="11.714890868262799"><ele>101.0</ele><time>2026-04-18T12:25:28.001Z</time></trkpt><trkpt lat="42.33979480170253" lon="11.715022919804296"><ele>101.0</ele><time>2026-04-18T12:25:29.001Z</time></trkpt><trkpt lat="42.33971865475959" lon="11.715148138356168"><ele>101.0</ele><time>2026-04-18T12:25:30.001Z</time></trkpt><trkpt lat="42.33964630117139" lon="11.715262409242426"><ele>101.0</ele><time>2026-04-18T12:25:31.001Z</time></trkpt><trkpt lat="42.33957321898384" lon="11.715385000924561"><ele>101.5</ele><time>2026-04-18T12:25:32.001Z</time></trkpt><trkpt lat="42.33950387094571" lon="11.715507765851022"><ele>102.0</ele><time>2026-04-18T12:25:33.001Z</time></trkpt><trkpt lat="42.33943817497658" lon="11.715629155343255"><ele>102.5</ele><time>2026-04-18T12:25:34.001Z</time></trkpt><trkpt lat="42.33936703303895" lon="11.715751142526393"><ele>103.0</ele><time>2026-04-18T12:25:35.001Z</time></trkpt><trkpt lat="42.339298083110286" lon="11.715868161288205"><ele>103.0</ele><time>2026-04-18T12:25:36.001Z</time></trkpt><trkpt lat="42.33923274234123" lon="11.715984787245867"><ele>103.0</ele><time>2026-04-18T12:25:37.001Z</time></trkpt><trkpt lat="42.33917534442209" lon="11.716095064451462"><ele>103.0</ele><time>2026-04-18T12:25:38.001Z</time></trkpt><trkpt lat="42.33911697923371" lon="11.716213474006299"><ele>103.0</ele><time>2026-04-18T12:25:39.001Z</time></trkpt><trkpt lat="42.33906190393825" lon="11.716327989408727"><ele>103.0</ele><time>2026-04-18T12:25:40.001Z</time></trkpt><trkpt lat="42.33900930339271" lon="11.716439877655327"><ele>103.0</ele><time>2026-04-18T12:25:41.001Z</time></trkpt><trkpt lat="42.338954873104" lon="11.716555002628471"><ele>103.0</ele><time>2026-04-18T12:25:42.001Z</time></trkpt><trkpt lat="42.33889670119229" lon="11.71667004210158"><ele>103.0</ele><time>2026-04-18T12:25:43.001Z</time></trkpt><trkpt lat="42.338832285121036" lon="11.71677972805123"><ele>103.0</ele><time>2026-04-18T12:25:44.001Z</time></trkpt><trkpt lat="42.338780569423214" lon="11.716890829794158"><ele>103.0</ele><time>2026-04-18T12:25:45.001Z</time></trkpt><trkpt lat="42.338731890654465" lon="11.717014943274382"><ele>103.0</ele><time>2026-04-18T12:25:46.001Z</time></trkpt><trkpt lat="42.3386867293862" lon="11.717151756830598"><ele>103.0</ele><time>2026-04-18T12:25:47.001Z</time></trkpt><trkpt lat="42.33864368836764" lon="11.717320064081013"><ele>103.0</ele><time>2026-04-18T12:25:48.001Z</time></trkpt><trkpt lat="42.3385985308606" lon="11.717500644464568"><ele>103.0</ele><time>2026-04-18T12:25:49.001Z</time></trkpt><trkpt lat="42.338555065540206" lon="11.717662199997664"><ele>103.60000000000001</ele><time>2026-04-18T12:25:50.002Z</time></trkpt><trkpt lat="42.33851350958692" lon="11.717791143473082"><ele>104.2</ele><time>2026-04-18T12:25:51.002Z</time></trkpt><trkpt lat="42.338469352616194" lon="11.717867616793114"><ele>104.8</ele><time>2026-04-18T12:25:52.002Z</time></trkpt><trkpt lat="42.33840075421645" lon="11.71794303754289"><ele>105.4</ele><time>2026-04-18T12:25:53.002Z</time></trkpt><trkpt lat="42.33829402059154" lon="11.717986598202266"><ele>106.0</ele><time>2026-04-18T12:25:54.002Z</time></trkpt><trkpt lat="42.33816807347655" lon="11.718088068746345"><ele>106.0</ele><time>2026-04-18T12:25:55.002Z</time></trkpt><trkpt lat="42.33799941098788" lon="11.718174966598466"><ele>106.0</ele><time>2026-04-18T12:25:56.002Z</time></trkpt><trkpt lat="42.33780447622245" lon="11.71828834511688"><ele>106.0</ele><time>2026-04-18T12:25:57.002Z</time></trkpt><trkpt lat="42.337617899560605" lon="11.718391535148307"><ele>106.0</ele><time>2026-04-18T12:25:58.002Z</time></trkpt><trkpt lat="42.33747477091654" lon="11.718475974871184"><ele>106.0</ele><time>2026-04-18T12:25:59.002Z</time></trkpt><trkpt lat="42.33734007739126" lon="11.718550194967701"><ele>106.0</ele><time>2026-04-18T12:26:00.002Z</time></trkpt><trkpt lat="42.337211240421695" lon="11.718624531684808"><ele>106.0</ele><time>2026-04-18T12:26:01.002Z</time></trkpt><trkpt lat="42.33710151126144" lon="11.718701935542304"><ele>106.75</ele><time>2026-04-18T12:26:02.002Z</time></trkpt><trkpt lat="42.33698456566704" lon="11.718751093770095"><ele>107.5</ele><time>2026-04-18T12:26:03.002Z</time></trkpt><trkpt lat="42.33688970061229" lon="11.718832111669517"><ele>108.25</ele><time>2026-04-18T12:26:04.002Z</time></trkpt><trkpt lat="42.33677263242372" lon="11.71889591219501"><ele>109.0</ele><time>2026-04-18T12:26:05.002Z</time></trkpt><trkpt lat="42.33667094212294" lon="11.718957433092562"><ele>109.0</ele><time>2026-04-18T12:26:06.002Z</time></trkpt><trkpt lat="42.33656657345855" lon="11.71901835004145"><ele>109.0</ele><time>2026-04-18T12:26:07.002Z</time></trkpt><trkpt lat="42.33645991796851" lon="11.71908537698568"><ele>109.0</ele><time>2026-04-18T12:26:08.002Z</time></trkpt><trkpt lat="42.336360180600266" lon="11.719156839674916"><ele>109.0</ele><time>2026-04-18T12:26:09.002Z</time></trkpt><trkpt lat="42.336252687277536" lon="11.71923634116109"><ele>108.50000000000001</ele><time>2026-04-18T12:26:10.002Z</time></trkpt><trkpt lat="42.33617482587748" lon="11.719302211820606"><ele>108.0</ele><time>2026-04-18T12:26:11.002Z</time></trkpt><trkpt lat="42.33610945508229" lon="11.71936143657353"><ele>107.5</ele><time>2026-04-18T12:26:12.002Z</time></trkpt><trkpt lat="42.33604657767563" lon="11.719407258016417"><ele>107.0</ele><time>2026-04-18T12:26:13.002Z</time></trkpt><trkpt lat="42.33599188764034" lon="11.719452845257296"><ele>106.50000000000001</ele><time>2026-04-18T12:26:14.002Z</time></trkpt><trkpt lat="42.33593356713918" lon="11.719509793457169"><ele>106.0</ele><time>2026-04-18T12:26:16.002Z</time></trkpt><trkpt lat="42.33590946371427" lon="11.719333750676883"><ele>106.0</ele><time>2026-04-18T12:26:17.002Z</time></trkpt><trkpt lat="42.33585101254606" lon="11.71925276028267"><ele>106.0</ele><time>2026-04-18T12:26:18.002Z</time></trkpt><trkpt lat="42.33577178137612" lon="11.71915075683968"><ele>106.0</ele><time>2026-04-18T12:26:19.002Z</time></trkpt><trkpt lat="42.335692007923946" lon="11.719048055037856"><ele>106.0</ele><time>2026-04-18T12:26:20.002Z</time></trkpt><trkpt lat="42.335619018795974" lon="11.718956595346146"><ele>106.0</ele><time>2026-04-18T12:26:21.002Z</time></trkpt><trkpt lat="42.335530138203346" lon="11.718863177174102"><ele>105.25</ele><time>2026-04-18T12:26:22.002Z</time></trkpt><trkpt lat="42.3354237674681" lon="11.71877179738808"><ele>104.5</ele><time>2026-04-18T12:26:23.002Z</time></trkpt><trkpt lat="42.33529563348665" lon="11.718674038442604"><ele>103.75</ele><time>2026-04-18T12:26:24.002Z</time></trkpt><trkpt lat="42.335164760564254" lon="11.7185810204366"><ele>103.0</ele><time>2026-04-18T12:26:25.002Z</time></trkpt><trkpt lat="42.33504901588249" lon="11.718499448219642"><ele>103.0</ele><time>2026-04-18T12:26:26.002Z</time></trkpt><trkpt lat="42.3349368803854" lon="11.718420419646066"><ele>103.0</ele><time>2026-04-18T12:26:27.002Z</time></trkpt><trkpt lat="42.33481099459955" lon="11.718329967865303"><ele>103.0</ele><time>2026-04-18T12:26:28.002Z</time></trkpt><trkpt lat="42.33468917682044" lon="11.71823938221475"><ele>103.0</ele><time>2026-04-18T12:26:29.003Z</time></trkpt><trkpt lat="42.33457202993289" lon="11.71815226992292"><ele>103.0</ele><time>2026-04-18T12:26:30.003Z</time></trkpt><trkpt lat="42.33444032020618" lon="11.718055372690577"><ele>103.0</ele><time>2026-04-18T12:26:31.003Z</time></trkpt><trkpt lat="42.334302906815765" lon="11.717958395580405"><ele>103.0</ele><time>2026-04-18T12:26:32.003Z</time></trkpt><trkpt lat="42.33415804529057" lon="11.71785812637193"><ele>103.0</ele><time>2026-04-18T12:26:33.003Z</time></trkpt><trkpt lat="42.33401659642177" lon="11.717751853938108"><ele>103.0</ele><time>2026-04-18T12:26:34.003Z</time></trkpt><trkpt lat="42.33387078446161" lon="11.717610965494256"><ele>103.0</ele><time>2026-04-18T12:26:35.003Z</time></trkpt><trkpt lat="42.33371523040098" lon="11.717421998415135"><ele>102.33333333333334</ele><time>2026-04-18T12:26:36.003Z</time></trkpt><trkpt lat="42.3336061908685" lon="11.71725218245227"><ele>101.66666666666666</ele><time>2026-04-18T12:26:37Z</time></trkpt><trkpt lat="42.33349953619193" lon="11.717074172513286"><ele>101.0</ele><time>2026-04-18T12:26:38Z</time></trkpt><trkpt lat="42.333388705881546" lon="11.716915930424602"><ele>100.33333333333333</ele><time>2026-04-18T12:26:39Z</time></trkpt><trkpt lat="42.33330547260553" lon="11.716753777346437"><ele>99.66666666666666</ele><time>2026-04-18T12:26:40Z</time></trkpt><trkpt lat="42.33321308084738" lon="11.716595551182005"><ele>99.0</ele><time>2026-04-18T12:26:41Z</time></trkpt><trkpt lat="42.33311104813225" lon="11.716431407376863"><ele>99.33333333333334</ele><time>2026-04-18T12:26:42Z</time></trkpt><trkpt lat="42.33300900920365" lon="11.716259233657514"><ele>99.66666666666667</ele><time>2026-04-18T12:26:43Z</time></trkpt><trkpt lat="42.33292482410368" lon="11.71609005267567"><ele>100.0</ele><time>2026-04-18T12:26:44Z</time></trkpt><trkpt lat="42.33283974718737" lon="11.715941351102071"><ele>100.0</ele><time>2026-04-18T12:26:45Z</time></trkpt><trkpt lat="42.332732837311255" lon="11.715802813259526"><ele>100.0</ele><time>2026-04-18T12:26:46Z</time></trkpt><trkpt lat="42.332648435424574" lon="11.71563346952338"><ele>100.0</ele><time>2026-04-18T12:26:47Z</time></trkpt><trkpt lat="42.33254371954491" lon="11.71545802453638"><ele>100.0</ele><time>2026-04-18T12:26:48Z</time></trkpt><trkpt lat="42.33242253306332" lon="11.71525216719904"><ele>100.0</ele><time>2026-04-18T12:26:49Z</time></trkpt><trkpt lat="42.332313399916636" lon="11.71506213888081"><ele>100.0</ele><time>2026-04-18T12:26:50Z</time></trkpt><trkpt lat="42.332212803816255" lon="11.714889517561614"><ele>100.0</ele><time>2026-04-18T12:26:51Z</time></trkpt><trkpt lat="42.33210875673897" lon="11.714716281405092"><ele>100.0</ele><time>2026-04-18T12:26:52Z</time></trkpt><trkpt lat="42.332007063613574" lon="11.714547277451759"><ele>100.0</ele><time>2026-04-18T12:26:53Z</time></trkpt><trkpt lat="42.33190011848898" lon="11.714369545277048"><ele>99.33333333333334</ele><time>2026-04-18T12:26:54Z</time></trkpt><trkpt lat="42.33178703789355" lon="11.714181617532859"><ele>98.66666666666666</ele><time>2026-04-18T12:26:55Z</time></trkpt><trkpt lat="42.33168451771722" lon="11.714005941597783"><ele>98.0</ele><time>2026-04-18T12:26:56Z</time></trkpt><trkpt lat="42.331591165007765" lon="11.713850294238014"><ele>98.0</ele><time>2026-04-18T12:26:57Z</time></trkpt><trkpt lat="42.331503803843525" lon="11.713701996575795"><ele>98.0</ele><time>2026-04-18T12:26:58Z</time></trkpt><trkpt lat="42.331416338648474" lon="11.71355261236828"><ele>98.0</ele><time>2026-04-18T12:26:59Z</time></trkpt><trkpt lat="42.33132749972115" lon="11.713401889960858"><ele>98.0</ele><time>2026-04-18T12:27:00Z</time></trkpt><trkpt lat="42.331234140056864" lon="11.713243497734341"><ele>97.0</ele><time>2026-04-18T12:27:01Z</time></trkpt><trkpt lat="42.33113785160959" lon="11.713082034824444"><ele>96.0</ele><time>2026-04-18T12:27:02Z</time></trkpt><trkpt lat="42.33104128535983" lon="11.712921060034743"><ele>95.0</ele><time>2026-04-18T12:27:03.001Z</time></trkpt><trkpt lat="42.33094743844113" lon="11.712764618354724"><ele>94.33333333333334</ele><time>2026-04-18T12:27:04.001Z</time></trkpt><trkpt lat="42.330854257864445" lon="11.712607713557286"><ele>93.66666666666667</ele><time>2026-04-18T12:27:05.001Z</time></trkpt><trkpt lat="42.33076039445545" lon="11.712447181249914"><ele>93.0</ele><time>2026-04-18T12:27:06.001Z</time></trkpt><trkpt lat="42.33065936122112" lon="11.712274683112597"><ele>93.0</ele><time>2026-04-18T12:27:07.001Z</time></trkpt><trkpt lat="42.3305648107415" lon="11.712114304829068"><ele>93.0</ele><time>2026-04-18T12:27:08.001Z</time></trkpt><trkpt lat="42.330471502354946" lon="11.711956033446757"><ele>93.0</ele><time>2026-04-18T12:27:09.001Z</time></trkpt><trkpt lat="42.330383950847775" lon="11.711806041111"><ele>93.0</ele><time>2026-04-18T12:27:10.001Z</time></trkpt><trkpt lat="42.330291630787876" lon="11.71164710239782"><ele>92.75</ele><time>2026-04-18T12:27:11.001Z</time></trkpt><trkpt lat="42.330200849762" lon="11.711492643078277"><ele>92.5</ele><time>2026-04-18T12:27:12.001Z</time></trkpt><trkpt lat="42.3301140113591" lon="11.711346450392574"><ele>92.25</ele><time>2026-04-18T12:27:13.001Z</time></trkpt><trkpt lat="42.33002928017392" lon="11.71120413158344"><ele>92.0</ele><time>2026-04-18T12:27:14.001Z</time></trkpt><trkpt lat="42.329941480635746" lon="11.711056659091089"><ele>92.0</ele><time>2026-04-18T12:27:15.001Z</time></trkpt><trkpt lat="42.329848926856734" lon="11.710899332184203"><ele>92.0</ele><time>2026-04-18T12:27:16.001Z</time></trkpt><trkpt lat="42.329751949043114" lon="11.71073026946247"><ele>92.0</ele><time>2026-04-18T12:27:17.001Z</time></trkpt><trkpt lat="42.32965328508689" lon="11.710559428321972"><ele>91.66666666666667</ele><time>2026-04-18T12:27:18.001Z</time></trkpt><trkpt lat="42.32955600521102" lon="11.710399372559936"><ele>91.33333333333333</ele><time>2026-04-18T12:27:19.001Z</time></trkpt><trkpt lat="42.32946151952163" lon="11.710240442881654"><ele>91.0</ele><time>2026-04-18T12:27:20.001Z</time></trkpt><trkpt lat="42.32936207970781" lon="11.710072651948348"><ele>90.66666666666666</ele><time>2026-04-18T12:27:21.001Z</time></trkpt><trkpt lat="42.329258365380184" lon="11.709900491919184"><ele>90.33333333333333</ele><time>2026-04-18T12:27:22.001Z</time></trkpt><trkpt lat="42.329145808070265" lon="11.709710020374375"><ele>90.0</ele><time>2026-04-18T12:27:23.001Z</time></trkpt><trkpt lat="42.329027033538786" lon="11.709508599298099"><ele>89.33333333333333</ele><time>2026-04-18T12:27:24.001Z</time></trkpt><trkpt lat="42.32890102336214" lon="11.709295952305604"><ele>88.66666666666666</ele><time>2026-04-18T12:27:25.001Z</time></trkpt><trkpt lat="42.32877870560117" lon="11.709089536491867"><ele>88.0</ele><time>2026-04-18T12:27:26.001Z</time></trkpt><trkpt lat="42.328669217466576" lon="11.708897251061414"><ele>87.66666666666666</ele><time>2026-04-18T12:27:27.001Z</time></trkpt><trkpt lat="42.328573881247245" lon="11.708712803513402"><ele>87.33333333333333</ele><time>2026-04-18T12:27:28.001Z</time></trkpt><trkpt lat="42.3284883094539" lon="11.708533910031349"><ele>87.0</ele><time>2026-04-18T12:27:29.001Z</time></trkpt><trkpt lat="42.328408670526755" lon="11.708358829963611"><ele>87.0</ele><time>2026-04-18T12:27:30.001Z</time></trkpt><trkpt lat="42.328336515812055" lon="11.708198145885685"><ele>87.0</ele><time>2026-04-18T12:27:31.001Z</time></trkpt><trkpt lat="42.32826835445662" lon="11.708043651611273"><ele>87.0</ele><time>2026-04-18T12:27:32.001Z</time></trkpt><trkpt lat="42.32820179031995" lon="11.707890749962392"><ele>87.0</ele><time>2026-04-18T12:27:33.001Z</time></trkpt><trkpt lat="42.32813294903338" lon="11.707736504906569"><ele>85.33333333333333</ele><time>2026-04-18T12:27:34.001Z</time></trkpt><trkpt lat="42.32805724474107" lon="11.707567364641188"><ele>83.66666666666666</ele><time>2026-04-18T12:27:35.001Z</time></trkpt><trkpt lat="42.327978583842594" lon="11.707386297910837"><ele>82.0</ele><time>2026-04-18T12:27:36.001Z</time></trkpt><trkpt lat="42.327897312037116" lon="11.707200845641335"><ele>82.0</ele><time>2026-04-18T12:27:37.001Z</time></trkpt><trkpt lat="42.32781565385496" lon="11.707024041187768"><ele>82.0</ele><time>2026-04-18T12:27:38.001Z</time></trkpt><trkpt lat="42.327736105649784" lon="11.70685555386915"><ele>82.0</ele><time>2026-04-18T12:27:39.001Z</time></trkpt><trkpt lat="42.32765544808349" lon="11.706688442307515"><ele>82.0</ele><time>2026-04-18T12:27:40.001Z</time></trkpt><trkpt lat="42.3275782582948" lon="11.706537978664507"><ele>82.5</ele><time>2026-04-18T12:27:41.001Z</time></trkpt><trkpt lat="42.327493462923854" lon="11.706410509783538"><ele>83.0</ele><time>2026-04-18T12:27:42.001Z</time></trkpt><trkpt lat="42.327433631640275" lon="11.706272479746659"><ele>83.5</ele><time>2026-04-18T12:27:43.002Z</time></trkpt><trkpt lat="42.32735228693054" lon="11.706152876925694"><ele>84.0</ele><time>2026-04-18T12:27:44.002Z</time></trkpt><trkpt lat="42.32728705227418" lon="11.70601638563523"><ele>80.33333333333333</ele><time>2026-04-18T12:27:45.002Z</time></trkpt><trkpt lat="42.32715627077506" lon="11.705933403504122"><ele>76.66666666666666</ele><time>2026-04-18T12:27:46.002Z</time></trkpt><trkpt lat="42.32699644423131" lon="11.705883743113167"><ele>73.0</ele><time>2026-04-18T12:27:47.002Z</time></trkpt><trkpt lat="42.326822023879835" lon="11.705817204299292"><ele>73.0</ele><time>2026-04-18T12:27:48.002Z</time></trkpt><trkpt lat="42.32661998476031" lon="11.705726601458888"><ele>73.0</ele><time>2026-04-18T12:27:49.002Z</time></trkpt><trkpt lat="42.32640315424286" lon="11.705670640966181"><ele>73.0</ele><time>2026-04-18T12:27:50.002Z</time></trkpt><trkpt lat="42.326210435704674" lon="11.7056020243871"><ele>72.66666666666666</ele><time>2026-04-18T12:27:51.002Z</time></trkpt><trkpt lat="42.32603222313054" lon="11.705509379055137"><ele>72.33333333333333</ele><time>2026-04-18T12:27:52.002Z</time></trkpt><trkpt lat="42.325873751543256" lon="11.705448840213267"><ele>72.0</ele><time>2026-04-18T12:27:53.002Z</time></trkpt><trkpt lat="42.325718306966536" lon="11.70539032377554"><ele>72.0</ele><time>2026-04-18T12:27:54.002Z</time></trkpt><trkpt lat="42.325568774204136" lon="11.705334032828661"><ele>72.0</ele><time>2026-04-18T12:27:55.002Z</time></trkpt><trkpt lat="42.32543763346192" lon="11.70528466547806"><ele>72.0</ele><time>2026-04-18T12:27:56.002Z</time></trkpt><trkpt lat="42.32530772401992" lon="11.705235761634617"><ele>72.0</ele><time>2026-04-18T12:27:57.002Z</time></trkpt><trkpt lat="42.325175246381754" lon="11.705203176321897"><ele>73.0</ele><time>2026-04-18T12:27:58.002Z</time></trkpt><trkpt lat="42.32504967409796" lon="11.705150181328467"><ele>74.0</ele><time>2026-04-18T12:27:59.002Z</time></trkpt><trkpt lat="42.32493561979764" lon="11.705112997020397"><ele>75.0</ele><time>2026-04-18T12:28:00.002Z</time></trkpt><trkpt lat="42.3248247339867" lon="11.705051330651541"><ele>76.0</ele><time>2026-04-18T12:28:01.002Z</time></trkpt><trkpt lat="42.32470824385048" lon="11.705006676814351"><ele>76.0</ele><time>2026-04-18T12:28:02.002Z</time></trkpt><trkpt lat="42.32459278317451" lon="11.704961596837592"><ele>76.0</ele><time>2026-04-18T12:28:03.002Z</time></trkpt><trkpt lat="42.32447360647848" lon="11.704925522761103"><ele>76.0</ele><time>2026-04-18T12:28:04.002Z</time></trkpt><trkpt lat="42.32437101230911" lon="11.704859161016955"><ele>76.0</ele><time>2026-04-18T12:28:05.002Z</time></trkpt><trkpt lat="42.32426552235958" lon="11.70479244298933"><ele>76.0</ele><time>2026-04-18T12:28:06.002Z</time></trkpt><trkpt lat="42.324158223167665" lon="11.70470609228129"><ele>76.0</ele><time>2026-04-18T12:28:07.002Z</time></trkpt><trkpt lat="42.3240454108245" lon="11.704588394536243"><ele>76.0</ele><time>2026-04-18T12:28:08.002Z</time></trkpt><trkpt lat="42.32393282102446" lon="11.704442707086937"><ele>76.0</ele><time>2026-04-18T12:28:09.002Z</time></trkpt><trkpt lat="42.323830073762174" lon="11.70429022696456"><ele>74.33333333333333</ele><time>2026-04-18T12:28:10.002Z</time></trkpt><trkpt lat="42.32373648438182" lon="11.704114854064926"><ele>72.66666666666667</ele><time>2026-04-18T12:28:11.002Z</time></trkpt><trkpt lat="42.323652646940296" lon="11.703926787510925"><ele>71.0</ele><time>2026-04-18T12:28:12.002Z</time></trkpt><trkpt lat="42.32359035459403" lon="11.703719148179031"><ele>70.33333333333334</ele><time>2026-04-18T12:28:13.002Z</time></trkpt><trkpt lat="42.32352188087711" lon="11.70348989814171"><ele>69.66666666666667</ele><time>2026-04-18T12:28:14.002Z</time></trkpt><trkpt lat="42.32344270088598" lon="11.703231004037164"><ele>69.0</ele><time>2026-04-18T12:28:15.002Z</time></trkpt><trkpt lat="42.32335489616454" lon="11.702944624946635"><ele>69.0</ele><time>2026-04-18T12:28:16.002Z</time></trkpt><trkpt lat="42.32327506214992" lon="11.70268753937568"><ele>69.0</ele><time>2026-04-18T12:28:17.002Z</time></trkpt><trkpt lat="42.32320520495996" lon="11.70247360688432"><ele>69.0</ele><time>2026-04-18T12:28:18.002Z</time></trkpt><trkpt lat="42.32313975548294" lon="11.70227812167074"><ele>69.0</ele><time>2026-04-18T12:28:19.002Z</time></trkpt><trkpt lat="42.323075991812786" lon="11.702078376038187"><ele>69.0</ele><time>2026-04-18T12:28:20.002Z</time></trkpt><trkpt lat="42.32301231392673" lon="11.701871598591742"><ele>69.0</ele><time>2026-04-18T12:28:21.002Z</time></trkpt><trkpt lat="42.32293691318997" lon="11.7016305913532"><ele>69.0</ele><time>2026-04-18T12:28:22.002Z</time></trkpt><trkpt lat="42.322868778559176" lon="11.701416055958015"><ele>69.0</ele><time>2026-04-18T12:28:23.002Z</time></trkpt><trkpt lat="42.32279854660389" lon="11.701192162130958"><ele>69.0</ele><time>2026-04-18T12:28:24.003Z</time></trkpt><trkpt lat="42.32271940092941" lon="11.700936207950877"><ele>69.0</ele><time>2026-04-18T12:28:25.003Z</time></trkpt><trkpt lat="42.3226438942138" lon="11.700683432403892"><ele>69.0</ele><time>2026-04-18T12:28:26.003Z</time></trkpt><trkpt lat="42.32257305547556" lon="11.700443661356822"><ele>69.0</ele><time>2026-04-18T12:28:27.003Z</time></trkpt><trkpt lat="42.322499718074916" lon="11.700203291415315"><ele>68.33333333333333</ele><time>2026-04-18T12:28:28.003Z</time></trkpt><trkpt lat="42.32243455011932" lon="11.70000201723699"><ele>67.66666666666666</ele><time>2026-04-18T12:28:29.003Z</time></trkpt><trkpt lat="42.32237264063117" lon="11.699808811388435"><ele>67.0</ele><time>2026-04-18T12:28:30.003Z</time></trkpt><trkpt lat="42.32230673752925" lon="11.699600814587535"><ele>67.0</ele><time>2026-04-18T12:28:31.003Z</time></trkpt><trkpt lat="42.32223674859899" lon="11.699379245646831"><ele>67.0</ele><time>2026-04-18T12:28:32.003Z</time></trkpt><trkpt lat="42.322165550568776" lon="11.699153849006358"><ele>67.0</ele><time>2026-04-18T12:28:33.003Z</time></trkpt><trkpt lat="42.32209232923177" lon="11.69892599071152"><ele>67.0</ele><time>2026-04-18T12:28:34.003Z</time></trkpt><trkpt lat="42.322019908553926" lon="11.69870929006287"><ele>67.0</ele><time>2026-04-18T12:28:35.003Z</time></trkpt><trkpt lat="42.32194517660681" lon="11.698491264130405"><ele>67.0</ele><time>2026-04-18T12:28:36.003Z</time></trkpt><trkpt lat="42.32186306092866" lon="11.698259063543098"><ele>67.0</ele><time>2026-04-18T12:28:37.003Z</time></trkpt><trkpt lat="42.321774980148504" lon="11.698019670357576"><ele>67.0</ele><time>2026-04-18T12:28:38.003Z</time></trkpt><trkpt lat="42.321682106925884" lon="11.697769165191499"><ele>67.0</ele><time>2026-04-18T12:28:39.003Z</time></trkpt><trkpt lat="42.32158637993957" lon="11.697519549730327"><ele>66.0</ele><time>2026-04-18T12:28:40.003Z</time></trkpt><trkpt lat="42.32149306994611" lon="11.697281333654127"><ele>65.0</ele><time>2026-04-18T12:28:41.003Z</time></trkpt><trkpt lat="42.32139760573008" lon="11.69704230079628"><ele>64.0</ele><time>2026-04-18T12:28:42.003Z</time></trkpt><trkpt lat="42.32129834081707" lon="11.696796085235459"><ele>63.0</ele><time>2026-04-18T12:28:43.001Z</time></trkpt><trkpt lat="42.32119593429072" lon="11.696544310802741"><ele>62.0</ele><time>2026-04-18T12:28:44.001Z</time></trkpt><trkpt lat="42.32109891224598" lon="11.696305774571087"><ele>61.0</ele><time>2026-04-18T12:28:45.001Z</time></trkpt><trkpt lat="42.32102103899819" lon="11.696107438548871"><ele>61.0</ele><time>2026-04-18T12:28:46.001Z</time></trkpt><trkpt lat="42.32095230767789" lon="11.695922978746363"><ele>61.0</ele><time>2026-04-18T12:28:47.001Z</time></trkpt><trkpt lat="42.32087475525393" lon="11.69571695050588"><ele>61.0</ele><time>2026-04-18T12:28:48.001Z</time></trkpt><trkpt lat="42.32080127778963" lon="11.695523734649147"><ele>61.0</ele><time>2026-04-18T12:28:49.001Z</time></trkpt><trkpt lat="42.32072490083932" lon="11.695331470406606"><ele>61.0</ele><time>2026-04-18T12:28:50.001Z</time></trkpt><trkpt lat="42.32064179420262" lon="11.695136051830467"><ele>61.0</ele><time>2026-04-18T12:28:51.001Z</time></trkpt><trkpt lat="42.32055509344934" lon="11.694929554373372"><ele>61.0</ele><time>2026-04-18T12:28:52.001Z</time></trkpt><trkpt lat="42.3204562180288" lon="11.694700436714976"><ele>61.0</ele><time>2026-04-18T12:28:53.001Z</time></trkpt><trkpt lat="42.32036176591883" lon="11.694492776022978"><ele>61.0</ele><time>2026-04-18T12:28:54.001Z</time></trkpt><trkpt lat="42.32027678606094" lon="11.694305940892429"><ele>61.0</ele><time>2026-04-18T12:28:55.001Z</time></trkpt><trkpt lat="42.32019403983824" lon="11.694130306761464"><ele>61.0</ele><time>2026-04-18T12:28:56.001Z</time></trkpt><trkpt lat="42.32011662438629" lon="11.693976157135685"><ele>61.0</ele><time>2026-04-18T12:28:57.001Z</time></trkpt><trkpt lat="42.32002056387319" lon="11.693832785035784"><ele>61.0</ele><time>2026-04-18T12:28:58.001Z</time></trkpt><trkpt lat="42.31990584596893" lon="11.693702009163376"><ele>61.0</ele><time>2026-04-18T12:28:59.001Z</time></trkpt><trkpt lat="42.31977351850459" lon="11.693573371802541"><ele>61.0</ele><time>2026-04-18T12:29:00.001Z</time></trkpt><trkpt lat="42.31960135593681" lon="11.693422954603752"><ele>61.0</ele><time>2026-04-18T12:29:01.001Z</time></trkpt><trkpt lat="42.319438401180705" lon="11.69328660930221"><ele>60.666666666666664</ele><time>2026-04-18T12:29:02.001Z</time></trkpt><trkpt lat="42.31928368603145" lon="11.693174280273967"><ele>60.33333333333333</ele><time>2026-04-18T12:29:03.001Z</time></trkpt><trkpt lat="42.31913788717267" lon="11.693075670781262"><ele>60.0</ele><time>2026-04-18T12:29:04.001Z</time></trkpt><trkpt lat="42.31898091949128" lon="11.692976203657153"><ele>60.33333333333333</ele><time>2026-04-18T12:29:05.001Z</time></trkpt><trkpt lat="42.31881459285043" lon="11.692869459497313"><ele>60.666666666666664</ele><time>2026-04-18T12:29:06.001Z</time></trkpt><trkpt lat="42.31866496603509" lon="11.692767407769782"><ele>61.0</ele><time>2026-04-18T12:29:07.001Z</time></trkpt><trkpt lat="42.31853968597356" lon="11.6926634868856"><ele>61.0</ele><time>2026-04-18T12:29:08.001Z</time></trkpt><trkpt lat="42.31842998407284" lon="11.69254456281568"><ele>61.0</ele><time>2026-04-18T12:29:09.001Z</time></trkpt><trkpt lat="42.31833072132147" lon="11.692404133460496"><ele>61.0</ele><time>2026-04-18T12:29:10.001Z</time></trkpt><trkpt lat="42.318246612147476" lon="11.69224031274304"><ele>61.0</ele><time>2026-04-18T12:29:11.001Z</time></trkpt><trkpt lat="42.31817488941348" lon="11.69206419044589"><ele>60.0</ele><time>2026-04-18T12:29:12.001Z</time></trkpt><trkpt lat="42.318100438769015" lon="11.691840181323023"><ele>59.0</ele><time>2026-04-18T12:29:13.001Z</time></trkpt><trkpt lat="42.31802053339672" lon="11.691600159045722"><ele>58.0</ele><time>2026-04-18T12:29:14.001Z</time></trkpt><trkpt lat="42.31794897885601" lon="11.691386444515002"><ele>58.0</ele><time>2026-04-18T12:29:15.001Z</time></trkpt><trkpt lat="42.317885575632744" lon="11.69119873613595"><ele>58.0</ele><time>2026-04-18T12:29:16.001Z</time></trkpt><trkpt lat="42.317829727120085" lon="11.691040152842657"><ele>58.0</ele><time>2026-04-18T12:29:17.001Z</time></trkpt><trkpt lat="42.31777600870945" lon="11.690901251996216"><ele>58.0</ele><time>2026-04-18T12:29:18.001Z</time></trkpt><trkpt lat="42.31771535799423" lon="11.690774800594058"><ele>57.75</ele><time>2026-04-18T12:29:19.001Z</time></trkpt><trkpt lat="42.31762540421197" lon="11.690655921096697"><ele>57.5</ele><time>2026-04-18T12:29:20.001Z</time></trkpt><trkpt lat="42.31750174005519" lon="11.690590938693848"><ele>57.25</ele><time>2026-04-18T12:29:21.001Z</time></trkpt><trkpt lat="42.317374305582746" lon="11.690562054827268"><ele>57.0</ele><time>2026-04-18T12:29:22.001Z</time></trkpt><trkpt lat="42.3172257513525" lon="11.690553639840644"><ele>56.66666666666667</ele><time>2026-04-18T12:29:23.001Z</time></trkpt><trkpt lat="42.3170410220732" lon="11.690555412260068"><ele>56.333333333333336</ele><time>2026-04-18T12:29:24.001Z</time></trkpt><trkpt lat="42.31682656928956" lon="11.690547789233797"><ele>56.0</ele><time>2026-04-18T12:29:25.001Z</time></trkpt><trkpt lat="42.316607546965365" lon="11.690525471622657"><ele>56.0</ele><time>2026-04-18T12:29:26.001Z</time></trkpt><trkpt lat="42.31642061580082" lon="11.690492510586825"><ele>56.0</ele><time>2026-04-18T12:29:27.001Z</time></trkpt><trkpt lat="42.316263961178" lon="11.690480277651613"><ele>56.0</ele><time>2026-04-18T12:29:28.001Z</time></trkpt><trkpt lat="42.31612695520461" lon="11.690471273279682"><ele>55.5</ele><time>2026-04-18T12:29:29.001Z</time></trkpt><trkpt lat="42.31599706468599" lon="11.690466642498816"><ele>55.0</ele><time>2026-04-18T12:29:30.001Z</time></trkpt><trkpt lat="42.315856898035726" lon="11.690482431235592"><ele>54.5</ele><time>2026-04-18T12:29:31.001Z</time></trkpt><trkpt lat="42.31571077133338" lon="11.690488321899004"><ele>54.0</ele><time>2026-04-18T12:29:32.001Z</time></trkpt><trkpt lat="42.315540087270314" lon="11.690524670396849"><ele>54.0</ele><time>2026-04-18T12:29:33.001Z</time></trkpt><trkpt lat="42.31538431114054" lon="11.690570868231415"><ele>54.0</ele><time>2026-04-18T12:29:34.001Z</time></trkpt><trkpt lat="42.31524630876" lon="11.690595427093772"><ele>54.0</ele><time>2026-04-18T12:29:35.001Z</time></trkpt><trkpt lat="42.31512231562691" lon="11.690620277833528"><ele>54.0</ele><time>2026-04-18T12:29:36.001Z</time></trkpt><trkpt lat="42.315019373973804" lon="11.69061303627275"><ele>54.0</ele><time>2026-04-18T12:29:37.001Z</time></trkpt><trkpt lat="42.31493834080013" lon="11.690623384583779"><ele>54.00000000000001</ele><time>2026-04-18T12:29:38.001Z</time></trkpt><trkpt lat="42.314862828732586" lon="11.690657288392533"><ele>54.00000000000001</ele><time>2026-04-18T12:29:39.001Z</time></trkpt><trkpt lat="42.31479157571644" lon="11.690632094737566"><ele>54.0</ele><time>2026-04-18T12:29:40.001Z</time></trkpt><trkpt lat="42.31474494709824" lon="11.690440881588096"><ele>54.0</ele><time>2026-04-18T12:29:42.001Z</time></trkpt><trkpt lat="42.31469339814027" lon="11.690314772148483"><ele>53.0</ele><time>2026-04-18T12:29:43.001Z</time></trkpt><trkpt lat="42.3146221790532" lon="11.69013993582538"><ele>52.0</ele><time>2026-04-18T12:29:44.001Z</time></trkpt><trkpt lat="42.31452500781622" lon="11.689901389346877"><ele>51.0</ele><time>2026-04-18T12:29:45.001Z</time></trkpt><trkpt lat="42.31441867429532" lon="11.689640350311961"><ele>50.5</ele><time>2026-04-18T12:29:46.001Z</time></trkpt><trkpt lat="42.314298641950494" lon="11.689349782864426"><ele>50.0</ele><time>2026-04-18T12:29:47.002Z</time></trkpt><trkpt lat="42.314193161670424" lon="11.689102417864904"><ele>50.0</ele><time>2026-04-18T12:29:48.002Z</time></trkpt><trkpt lat="42.31409688118824" lon="11.688877062231521"><ele>50.0</ele><time>2026-04-18T12:29:49.002Z</time></trkpt><trkpt lat="42.31399701329049" lon="11.688643309830743"><ele>50.0</ele><time>2026-04-18T12:29:50.002Z</time></trkpt><trkpt lat="42.31390588155659" lon="11.688430005438157"><ele>49.333333333333336</ele><time>2026-04-18T12:29:51.002Z</time></trkpt><trkpt lat="42.31380465293905" lon="11.688195837499313"><ele>48.66666666666667</ele><time>2026-04-18T12:29:52.002Z</time></trkpt><trkpt lat="42.313698063758615" lon="11.687950829202011"><ele>48.0</ele><time>2026-04-18T12:29:53.002Z</time></trkpt><trkpt lat="42.31361012135925" lon="11.687739008786837"><ele>47.666666666666664</ele><time>2026-04-18T12:29:54.002Z</time></trkpt><trkpt lat="42.313526701538514" lon="11.687534209590027"><ele>47.33333333333333</ele><time>2026-04-18T12:29:55.002Z</time></trkpt><trkpt lat="42.31344649192338" lon="11.687323856775327"><ele>47.0</ele><time>2026-04-18T12:29:56.002Z</time></trkpt><trkpt lat="42.31337156344233" lon="11.687087900664102"><ele>46.666666666666664</ele><time>2026-04-18T12:29:57.002Z</time></trkpt><trkpt lat="42.31330247136406" lon="11.686818796366197"><ele>46.333333333333336</ele><time>2026-04-18T12:29:58.002Z</time></trkpt><trkpt lat="42.31324118894438" lon="11.686569811167024"><ele>46.0</ele><time>2026-04-18T12:29:59.002Z</time></trkpt><trkpt lat="42.31319136885676" lon="11.686368505807966"><ele>46.0</ele><time>2026-04-18T12:30:00.002Z</time></trkpt><trkpt lat="42.31314302973401" lon="11.68618279447185"><ele>46.0</ele><time>2026-04-18T12:30:01.002Z</time></trkpt><trkpt lat="42.31309280743548" lon="11.685997248718785"><ele>46.0</ele><time>2026-04-18T12:30:02.002Z</time></trkpt><trkpt lat="42.3130387813636" lon="11.685817651402317"><ele>46.0</ele><time>2026-04-18T12:30:03.002Z</time></trkpt><trkpt lat="42.31297282469543" lon="11.685638827009951"><ele>46.0</ele><time>2026-04-18T12:30:04.002Z</time></trkpt><trkpt lat="42.312897000913395" lon="11.68545253192732"><ele>46.0</ele><time>2026-04-18T12:30:05.002Z</time></trkpt><trkpt lat="42.31281218432651" lon="11.685258068619376"><ele>46.0</ele><time>2026-04-18T12:30:06.002Z</time></trkpt><trkpt lat="42.312720850029656" lon="11.685063558776159"><ele>46.0</ele><time>2026-04-18T12:30:07.002Z</time></trkpt><trkpt lat="42.312641451542945" lon="11.684896864066205"><ele>46.0</ele><time>2026-04-18T12:30:08.002Z</time></trkpt><trkpt lat="42.312577629526686" lon="11.684755242145645"><ele>46.0</ele><time>2026-04-18T12:30:09.002Z</time></trkpt><trkpt lat="42.312524844951625" lon="11.684620184957442"><ele>46.0</ele><time>2026-04-18T12:30:10.002Z</time></trkpt><trkpt lat="42.31247298060034" lon="11.684461447894714"><ele>45.66666666666667</ele><time>2026-04-18T12:30:11.002Z</time></trkpt><trkpt lat="42.31242488030835" lon="11.68425773616494"><ele>45.333333333333336</ele><time>2026-04-18T12:30:12.002Z</time></trkpt><trkpt lat="42.31238812832899" lon="11.684006234194701"><ele>45.0</ele><time>2026-04-18T12:30:13.002Z</time></trkpt><trkpt lat="42.31234853760213" lon="11.683726277074788"><ele>44.75</ele><time>2026-04-18T12:30:14.002Z</time></trkpt><trkpt lat="42.31231557366725" lon="11.683502466263073"><ele>44.5</ele><time>2026-04-18T12:30:15.002Z</time></trkpt><trkpt lat="42.312287265615346" lon="11.683318315086245"><ele>44.25</ele><time>2026-04-18T12:30:16.002Z</time></trkpt><trkpt lat="42.312254355871225" lon="11.683153948160443"><ele>44.0</ele><time>2026-04-18T12:30:17.002Z</time></trkpt><trkpt lat="42.312215045938565" lon="11.683005542106038"><ele>44.0</ele><time>2026-04-18T12:30:18.002Z</time></trkpt><trkpt lat="42.312142252795496" lon="11.68284990833876"><ele>44.0</ele><time>2026-04-18T12:30:19.002Z</time></trkpt><trkpt lat="42.31206051885903" lon="11.682734397032878"><ele>44.0</ele><time>2026-04-18T12:30:20.002Z</time></trkpt><trkpt lat="42.311957561269935" lon="11.682627349322182"><ele>44.0</ele><time>2026-04-18T12:30:21.002Z</time></trkpt><trkpt lat="42.311829694467654" lon="11.68252892820372"><ele>44.0</ele><time>2026-04-18T12:30:22.002Z</time></trkpt><trkpt lat="42.31166498116444" lon="11.682426092031317"><ele>44.0</ele><time>2026-04-18T12:30:23.002Z</time></trkpt><trkpt lat="42.31146971972421" lon="11.682298150143806"><ele>44.0</ele><time>2026-04-18T12:30:24.002Z</time></trkpt><trkpt lat="42.311263297033406" lon="11.682157605006488"><ele>44.25</ele><time>2026-04-18T12:30:25.002Z</time></trkpt><trkpt lat="42.31110790072019" lon="11.682049445276318"><ele>44.5</ele><time>2026-04-18T12:30:26.002Z</time></trkpt><trkpt lat="42.3109862947472" lon="11.681960591230396"><ele>44.75</ele><time>2026-04-18T12:30:27.002Z</time></trkpt><trkpt lat="42.310880628670134" lon="11.681875569009609"><ele>45.0</ele><time>2026-04-18T12:30:28.002Z</time></trkpt><trkpt lat="42.310790216949464" lon="11.681776486549"><ele>45.0</ele><time>2026-04-18T12:30:29.002Z</time></trkpt><trkpt lat="42.31073691543562" lon="11.681653867040254"><ele>45.0</ele><time>2026-04-18T12:30:30.002Z</time></trkpt><trkpt lat="42.31068846401542" lon="11.681489363683681"><ele>45.0</ele><time>2026-04-18T12:30:31.003Z</time></trkpt><trkpt lat="42.31064541839207" lon="11.68127815368871"><ele>45.0</ele><time>2026-04-18T12:30:32.003Z</time></trkpt><trkpt lat="42.3105818328626" lon="11.681014595937896"><ele>45.5</ele><time>2026-04-18T12:30:33.003Z</time></trkpt><trkpt lat="42.31051131105737" lon="11.680713878806708"><ele>46.0</ele><time>2026-04-18T12:30:34.003Z</time></trkpt><trkpt lat="42.31044243737432" lon="11.680401943049944"><ele>45.66666666666667</ele><time>2026-04-18T12:30:35.003Z</time></trkpt><trkpt lat="42.31038550964928" lon="11.680141949353642"><ele>45.333333333333336</ele><time>2026-04-18T12:30:36.003Z</time></trkpt><trkpt lat="42.31033704849835" lon="11.679920623217454"><ele>45.0</ele><time>2026-04-18T12:30:37.003Z</time></trkpt><trkpt lat="42.310294732993285" lon="11.679721851136552"><ele>45.0</ele><time>2026-04-18T12:30:38.003Z</time></trkpt><trkpt lat="42.31025490327495" lon="11.679533939022775"><ele>45.0</ele><time>2026-04-18T12:30:39.003Z</time></trkpt><trkpt lat="42.31021225002076" lon="11.679357609275723"><ele>45.0</ele><time>2026-04-18T12:30:40.003Z</time></trkpt><trkpt lat="42.31015669097246" lon="11.679196721136494"><ele>45.0</ele><time>2026-04-18T12:30:41.003Z</time></trkpt><trkpt lat="42.31007762088463" lon="11.679051586944393"><ele>44.666666666666664</ele><time>2026-04-18T12:30:42.003Z</time></trkpt><trkpt lat="42.3099685826923" lon="11.678923491502864"><ele>44.33333333333333</ele><time>2026-04-18T12:30:43.003Z</time></trkpt><trkpt lat="42.30981156992742" lon="11.678790777290299"><ele>44.0</ele><time>2026-04-18T12:30:44.003Z</time></trkpt><trkpt lat="42.30963318134874" lon="11.678656860564304"><ele>44.0</ele><time>2026-04-18T12:30:45.003Z</time></trkpt><trkpt lat="42.3094230017042" lon="11.678500260940295"><ele>44.0</ele><time>2026-04-18T12:30:46.003Z</time></trkpt><trkpt lat="42.30922064619899" lon="11.678350710640611"><ele>44.0</ele><time>2026-04-18T12:30:47.003Z</time></trkpt><trkpt lat="42.30905390919044" lon="11.678227676751087"><ele>44.0</ele><time>2026-04-18T12:30:48.003Z</time></trkpt><trkpt lat="42.30889257784349" lon="11.678108601751427"><ele>44.0</ele><time>2026-04-18T12:30:49.001Z</time></trkpt><trkpt lat="42.308739478117836" lon="11.67799377696639"><ele>44.0</ele><time>2026-04-18T12:30:50.001Z</time></trkpt><trkpt lat="42.30859029772697" lon="11.677881891667779"><ele>44.0</ele><time>2026-04-18T12:30:51.001Z</time></trkpt><trkpt lat="42.308438133600085" lon="11.67776776857052"><ele>44.0</ele><time>2026-04-18T12:30:52.001Z</time></trkpt><trkpt lat="42.30829464752481" lon="11.677659159480946"><ele>43.666666666666664</ele><time>2026-04-18T12:30:53.001Z</time></trkpt><trkpt lat="42.30815187208965" lon="11.6775503814535"><ele>43.333333333333336</ele><time>2026-04-18T12:30:54.001Z</time></trkpt><trkpt lat="42.30800918501275" lon="11.677441670751298"><ele>43.0</ele><time>2026-04-18T12:30:55.001Z</time></trkpt><trkpt lat="42.30787674437203" lon="11.677340768225106"><ele>42.66666666666667</ele><time>2026-04-18T12:30:56.001Z</time></trkpt><trkpt lat="42.30774193423199" lon="11.67723793353395"><ele>42.333333333333336</ele><time>2026-04-18T12:30:57.001Z</time></trkpt><trkpt lat="42.30760675421273" lon="11.67713348576854"><ele>42.0</ele><time>2026-04-18T12:30:58.001Z</time></trkpt><trkpt lat="42.307468559322004" lon="11.677026708462641"><ele>41.75</ele><time>2026-04-18T12:30:59.001Z</time></trkpt><trkpt lat="42.30734711393109" lon="11.676932872772651"><ele>41.5</ele><time>2026-04-18T12:31:00.001Z</time></trkpt><trkpt lat="42.30722510982732" lon="11.676838860885878"><ele>41.25</ele><time>2026-04-18T12:31:01.001Z</time></trkpt><trkpt lat="42.307095330738534" lon="11.67674298520404"><ele>41.0</ele><time>2026-04-18T12:31:02.001Z</time></trkpt><trkpt lat="42.30695690001225" lon="11.676640717971242"><ele>41.0</ele><time>2026-04-18T12:31:03.001Z</time></trkpt><trkpt lat="42.3068095409102" lon="11.676533500594047"><ele>41.0</ele><time>2026-04-18T12:31:04.001Z</time></trkpt><trkpt lat="42.30667096334414" lon="11.676432419228743"><ele>41.0</ele><time>2026-04-18T12:31:05.001Z</time></trkpt><trkpt lat="42.30653660010303" lon="11.676357793217926"><ele>41.0</ele><time>2026-04-18T12:31:06.001Z</time></trkpt><trkpt lat="42.30642135964213" lon="11.676240530865702"><ele>41.0</ele><time>2026-04-18T12:31:07.001Z</time></trkpt><trkpt lat="42.30630359644916" lon="11.676144700507697"><ele>41.0</ele><time>2026-04-18T12:31:08.001Z</time></trkpt><trkpt lat="42.30619502078166" lon="11.67605728088999"><ele>41.0</ele><time>2026-04-18T12:31:09.001Z</time></trkpt><trkpt lat="42.306086211944574" lon="11.675996780513652"><ele>40.5</ele><time>2026-04-18T12:31:10.001Z</time></trkpt><trkpt lat="42.30598399589637" lon="11.67592218895345"><ele>40.0</ele><time>2026-04-18T12:31:11.001Z</time></trkpt><trkpt lat="42.30586854238063" lon="11.675907415440465"><ele>39.5</ele><time>2026-04-18T12:31:12.001Z</time></trkpt><trkpt lat="42.305750642759904" lon="11.675908757883917"><ele>39.0</ele><time>2026-04-18T12:31:13.001Z</time></trkpt><trkpt lat="42.30560985784679" lon="11.675924558414893"><ele>38.666666666666664</ele><time>2026-04-18T12:31:14.001Z</time></trkpt><trkpt lat="42.305465158615334" lon="11.675974809741076"><ele>38.33333333333333</ele><time>2026-04-18T12:31:15.001Z</time></trkpt><trkpt lat="42.30528645301615" lon="11.676049468429065"><ele>38.0</ele><time>2026-04-18T12:31:16.001Z</time></trkpt><trkpt lat="42.30508671854834" lon="11.676140350965749"><ele>38.25</ele><time>2026-04-18T12:31:17.001Z</time></trkpt><trkpt lat="42.3049192221432" lon="11.67621848185055"><ele>38.5</ele><time>2026-04-18T12:31:18.001Z</time></trkpt><trkpt lat="42.30479715895394" lon="11.676275998186528"><ele>38.75</ele><time>2026-04-18T12:31:19.001Z</time></trkpt><trkpt lat="42.304684811342696" lon="11.676325989299468"><ele>39.0</ele><time>2026-04-18T12:31:20.001Z</time></trkpt><trkpt lat="42.30457046254669" lon="11.676380584549248"><ele>39.0</ele><time>2026-04-18T12:31:21.001Z</time></trkpt><trkpt lat="42.30445405099603" lon="11.676438731181598"><ele>39.0</ele><time>2026-04-18T12:31:22.001Z</time></trkpt><trkpt lat="42.304333394553026" lon="11.676497950922222"><ele>39.0</ele><time>2026-04-18T12:31:23.001Z</time></trkpt><trkpt lat="42.30419844014104" lon="11.676552471006216"><ele>39.0</ele><time>2026-04-18T12:31:24.001Z</time></trkpt><trkpt lat="42.30405980180098" lon="11.676613889477734"><ele>39.0</ele><time>2026-04-18T12:31:25.001Z</time></trkpt><trkpt lat="42.30391972388109" lon="11.676681211574838"><ele>39.0</ele><time>2026-04-18T12:31:26.001Z</time></trkpt><trkpt lat="42.30378508937772" lon="11.676735023548211"><ele>39.0</ele><time>2026-04-18T12:31:27.001Z</time></trkpt><trkpt lat="42.3036441400662" lon="11.676798180184102"><ele>39.0</ele><time>2026-04-18T12:31:28.001Z</time></trkpt><trkpt lat="42.30349747287334" lon="11.676845816357028"><ele>38.25</ele><time>2026-04-18T12:31:29.001Z</time></trkpt><trkpt lat="42.303349348039305" lon="11.676888521300864"><ele>37.5</ele><time>2026-04-18T12:31:30.001Z</time></trkpt><trkpt lat="42.30321779242833" lon="11.676922684182049"><ele>36.75</ele><time>2026-04-18T12:31:31.001Z</time></trkpt><trkpt lat="42.30309956022711" lon="11.676939721570154"><ele>36.0</ele><time>2026-04-18T12:31:32.001Z</time></trkpt><trkpt lat="42.30300557631637" lon="11.676926064122972"><ele>35.666666666666664</ele><time>2026-04-18T12:31:33.001Z</time></trkpt><trkpt lat="42.3028870036576" lon="11.676925093228958"><ele>35.33333333333333</ele><time>2026-04-18T12:31:34.001Z</time></trkpt><trkpt lat="42.30272772756838" lon="11.676919509526314"><ele>35.0</ele><time>2026-04-18T12:31:35.001Z</time></trkpt><trkpt lat="42.302549980294806" lon="11.676923457606275"><ele>35.0</ele><time>2026-04-18T12:31:36.001Z</time></trkpt><trkpt lat="42.30238562174624" lon="11.676920467997856"><ele>35.0</ele><time>2026-04-18T12:31:37.001Z</time></trkpt><trkpt lat="42.30224091921643" lon="11.676914454653001"><ele>35.0</ele><time>2026-04-18T12:31:38.001Z</time></trkpt><trkpt lat="42.3021054003357" lon="11.676914528517884"><ele>35.0</ele><time>2026-04-18T12:31:39.001Z</time></trkpt><trkpt lat="42.30197182778633" lon="11.676911358345299"><ele>34.0</ele><time>2026-04-18T12:31:40.001Z</time></trkpt><trkpt lat="42.30181461905452" lon="11.67690983662577"><ele>33.0</ele><time>2026-04-18T12:31:41.001Z</time></trkpt><trkpt lat="42.30166016384722" lon="11.676901415768974"><ele>32.0</ele><time>2026-04-18T12:31:42.001Z</time></trkpt><trkpt lat="42.30149943989276" lon="11.67689196125249"><ele>31.0</ele><time>2026-04-18T12:31:43.001Z</time></trkpt><trkpt lat="42.30132816294294" lon="11.67684994022595"><ele>30.0</ele><time>2026-04-18T12:31:44.001Z</time></trkpt><trkpt lat="42.30116114496016" lon="11.676800532401684"><ele>29.0</ele><time>2026-04-18T12:31:45.001Z</time></trkpt><trkpt lat="42.30099699993535" lon="11.676741796367946"><ele>29.0</ele><time>2026-04-18T12:31:46.001Z</time></trkpt><trkpt lat="42.300828979348985" lon="11.676676495752664"><ele>29.0</ele><time>2026-04-18T12:31:47.001Z</time></trkpt><trkpt lat="42.30064995657512" lon="11.676604753005916"><ele>29.0</ele><time>2026-04-18T12:31:48.001Z</time></trkpt><trkpt lat="42.300490295273804" lon="11.676561744989723"><ele>29.666666666666664</ele><time>2026-04-18T12:31:49.001Z</time></trkpt><trkpt lat="42.30034207641796" lon="11.676478029363798"><ele>30.333333333333336</ele><time>2026-04-18T12:31:50.001Z</time></trkpt><trkpt lat="42.300175073664825" lon="11.676408423848398"><ele>31.0</ele><time>2026-04-18T12:31:51.001Z</time></trkpt><trkpt lat="42.300007434661346" lon="11.67633505058168"><ele>31.0</ele><time>2026-04-18T12:31:52.001Z</time></trkpt><trkpt lat="42.29982339490424" lon="11.676250278643632"><ele>31.0</ele><time>2026-04-18T12:31:53.001Z</time></trkpt><trkpt lat="42.29966016970892" lon="11.676178296882552"><ele>31.0</ele><time>2026-04-18T12:31:54.002Z</time></trkpt><trkpt lat="42.2995118945334" lon="11.67612428790614"><ele>31.5</ele><time>2026-04-18T12:31:55.002Z</time></trkpt><trkpt lat="42.29937105922289" lon="11.676100821349843"><ele>32.0</ele><time>2026-04-18T12:31:56.002Z</time></trkpt><trkpt lat="42.29921990242393" lon="11.676053913333728"><ele>32.5</ele><time>2026-04-18T12:31:57.002Z</time></trkpt><trkpt lat="42.299073071072556" lon="11.676022394925223"><ele>33.0</ele><time>2026-04-18T12:31:58.002Z</time></trkpt><trkpt lat="42.29894000564853" lon="11.675976535047035"><ele>32.4</ele><time>2026-04-18T12:31:59.002Z</time></trkpt><trkpt lat="42.29880771352513" lon="11.675973788073808"><ele>31.799999999999997</ele><time>2026-04-18T12:32:00.002Z</time></trkpt><trkpt lat="42.29870518938669" lon="11.675934964009768"><ele>31.2</ele><time>2026-04-18T12:32:01.002Z</time></trkpt><trkpt lat="42.29861047818019" lon="11.675921985752783"><ele>30.6</ele><time>2026-04-18T12:32:02.002Z</time></trkpt><trkpt lat="42.29851842574174" lon="11.675910109801594"><ele>30.0</ele><time>2026-04-18T12:32:03.002Z</time></trkpt><trkpt lat="42.298430413422516" lon="11.675918663560264"><ele>30.0</ele><time>2026-04-18T12:32:04.002Z</time></trkpt><trkpt lat="42.29833858390851" lon="11.675901073746429"><ele>30.0</ele><time>2026-04-18T12:32:05.002Z</time></trkpt><trkpt lat="42.29825783069223" lon="11.67589020821923"><ele>30.0</ele><time>2026-04-18T12:32:06.002Z</time></trkpt><trkpt lat="42.298177591033514" lon="11.675874571367899"><ele>30.0</ele><time>2026-04-18T12:32:07.002Z</time></trkpt><trkpt lat="42.29810270957009" lon="11.675863294555631"><ele>30.0</ele><time>2026-04-18T12:32:08.002Z</time></trkpt><trkpt lat="42.2980267337341" lon="11.675860813303732"><ele>30.0</ele><time>2026-04-18T12:32:09.002Z</time></trkpt><trkpt lat="42.29794423618288" lon="11.675845089760932"><ele>29.666666666666668</ele><time>2026-04-18T12:32:10.002Z</time></trkpt><trkpt lat="42.29784009319705" lon="11.675837421403813"><ele>29.333333333333336</ele><time>2026-04-18T12:32:11.002Z</time></trkpt><trkpt lat="42.29775389129674" lon="11.675806032026491"><ele>29.0</ele><time>2026-04-18T12:32:12.002Z</time></trkpt><trkpt lat="42.29767142047339" lon="11.675795977541707"><ele>28.666666666666668</ele><time>2026-04-18T12:32:13.002Z</time></trkpt><trkpt lat="42.29758811439122" lon="11.675787435869053"><ele>28.333333333333336</ele><time>2026-04-18T12:32:14.002Z</time></trkpt><trkpt lat="42.297511706864746" lon="11.67579713537945"><ele>28.0</ele><time>2026-04-18T12:32:15.002Z</time></trkpt><trkpt lat="42.297432386125784" lon="11.675790780254406"><ele>28.000000000000004</ele><time>2026-04-18T12:32:16.002Z</time></trkpt><trkpt lat="42.29735656155657" lon="11.675772085359904"><ele>28.0</ele><time>2026-04-18T12:32:17.002Z</time></trkpt><trkpt lat="42.297263002097864" lon="11.675760874525082"><ele>28.0</ele><time>2026-04-18T12:32:18.002Z</time></trkpt><trkpt lat="42.29718454241982" lon="11.67575051179979"><ele>28.0</ele><time>2026-04-18T12:32:19.002Z</time></trkpt><trkpt lat="42.29709892356474" lon="11.675736216660674"><ele>28.000000000000004</ele><time>2026-04-18T12:32:20.002Z</time></trkpt><trkpt lat="42.29700689074719" lon="11.67573003784544"><ele>28.0</ele><time>2026-04-18T12:32:21.002Z</time></trkpt><trkpt lat="42.296911874946744" lon="11.675723840624652"><ele>27.799999999999997</ele><time>2026-04-18T12:32:22.002Z</time></trkpt><trkpt lat="42.29681362386607" lon="11.675707927886492"><ele>27.599999999999998</ele><time>2026-04-18T12:32:23.002Z</time></trkpt><trkpt lat="42.29671263130909" lon="11.675689060529374"><ele>27.400000000000002</ele><time>2026-04-18T12:32:24.002Z</time></trkpt><trkpt lat="42.29660819597191" lon="11.67567590644948"><ele>27.200000000000003</ele><time>2026-04-18T12:32:25.002Z</time></trkpt><trkpt lat="42.296510835172846" lon="11.675657734150763"><ele>27.0</ele><time>2026-04-18T12:32:26.002Z</time></trkpt><trkpt lat="42.296420273110776" lon="11.67564150585081"><ele>25.8</ele><time>2026-04-18T12:32:27.002Z</time></trkpt><trkpt lat="42.29634005619314" lon="11.675621728502541"><ele>24.6</ele><time>2026-04-18T12:32:28.002Z</time></trkpt><trkpt lat="42.296281374638504" lon="11.675590259931475"><ele>23.400000000000002</ele><time>2026-04-18T12:32:29.002Z</time></trkpt><trkpt lat="42.2962185690901" lon="11.675546232772184"><ele>22.200000000000003</ele><time>2026-04-18T12:32:32.002Z</time></trkpt><trkpt lat="42.29631647429737" lon="11.675371934745955"><ele>21.0</ele><time>2026-04-18T12:32:33.002Z</time></trkpt><trkpt lat="42.29634460029122" lon="11.675246625047176"><ele>20.666666666666668</ele><time>2026-04-18T12:32:34.002Z</time></trkpt><trkpt lat="42.29637798481447" lon="11.675072214187798"><ele>20.333333333333336</ele><time>2026-04-18T12:32:35.002Z</time></trkpt><trkpt lat="42.29641463724721" lon="11.674862343022006"><ele>20.0</ele><time>2026-04-18T12:32:36.002Z</time></trkpt><trkpt lat="42.29645018699907" lon="11.67464189558245"><ele>21.0</ele><time>2026-04-18T12:32:37.002Z</time></trkpt><trkpt lat="42.29648978112484" lon="11.674378759388835"><ele>22.0</ele><time>2026-04-18T12:32:38.002Z</time></trkpt><trkpt lat="42.29652903266483" lon="11.674103052005918"><ele>23.0</ele><time>2026-04-18T12:32:39.002Z</time></trkpt><trkpt lat="42.29656542658506" lon="11.673847416824184"><ele>23.0</ele><time>2026-04-18T12:32:40.002Z</time></trkpt><trkpt lat="42.29658753520029" lon="11.673692123347946"><ele>23.0</ele><time>2026-04-18T12:32:41.002Z</time></trkpt><trkpt lat="42.29659997044349" lon="11.673604775970727"><ele>23.0</ele><time>2026-04-18T12:32:42.002Z</time></trkpt><trkpt lat="42.29661530609541" lon="11.673497054777444"><ele>23.0</ele><time>2026-04-18T12:32:44.003Z</time></trkpt><trkpt lat="42.296445281201265" lon="11.673308022980017"><ele>23.0</ele><time>2026-04-18T12:32:45.003Z</time></trkpt><trkpt lat="42.29635303773456" lon="11.673128719634681"><ele>23.0</ele><time>2026-04-18T12:32:46.003Z</time></trkpt><trkpt lat="42.296245565172796" lon="11.672932200877192"><ele>23.0</ele><time>2026-04-18T12:32:47.003Z</time></trkpt><trkpt lat="42.296135436281595" lon="11.67273590133867"><ele>23.0</ele><time>2026-04-18T12:32:48.003Z</time></trkpt><trkpt lat="42.296041834788596" lon="11.672559154132038"><ele>23.0</ele><time>2026-04-18T12:32:49.003Z</time></trkpt><trkpt lat="42.29595755651648" lon="11.67239454668081"><ele>23.0</ele><time>2026-04-18T12:32:50.003Z</time></trkpt><trkpt lat="42.29587153198195" lon="11.67221980229441"><ele>23.0</ele><time>2026-04-18T12:32:51.003Z</time></trkpt><trkpt lat="42.295783500536" lon="11.672040981277393"><ele>23.0</ele><time>2026-04-18T12:32:52.003Z</time></trkpt><trkpt lat="42.29570524751169" lon="11.671880848306627"><ele>23.0</ele><time>2026-04-18T12:32:53.003Z</time></trkpt><trkpt lat="42.29564177702259" lon="11.67174701989546"><ele>23.0</ele><time>2026-04-18T12:32:54.003Z</time></trkpt><trkpt lat="42.29558556479785" lon="11.671623704307356"><ele>23.0</ele><time>2026-04-18T12:32:55.001Z</time></trkpt><trkpt lat="42.29551988076426" lon="11.67147527973816"><ele>23.0</ele><time>2026-04-18T12:32:56.001Z</time></trkpt><trkpt lat="42.29542872250824" lon="11.671269996151228"><ele>23.0</ele><time>2026-04-18T12:32:57.001Z</time></trkpt><trkpt lat="42.29532976837064" lon="11.671064448322827"><ele>23.0</ele><time>2026-04-18T12:32:58.001Z</time></trkpt><trkpt lat="42.29524012706902" lon="11.67088437275103"><ele>23.0</ele><time>2026-04-18T12:32:59.001Z</time></trkpt><trkpt lat="42.29516398412535" lon="11.670731643398222"><ele>23.0</ele><time>2026-04-18T12:33:00.001Z</time></trkpt><trkpt lat="42.295090060744684" lon="11.670597229512582"><ele>23.0</ele><time>2026-04-18T12:33:01.001Z</time></trkpt><trkpt lat="42.295032649906474" lon="11.67045904551232"><ele>23.0</ele><time>2026-04-18T12:33:02.001Z</time></trkpt><trkpt lat="42.294980259158436" lon="11.670350359161095"><ele>23.0</ele><time>2026-04-18T12:33:03.001Z</time></trkpt><trkpt lat="42.29492122909288" lon="11.670269633052287"><ele>23.0</ele><time>2026-04-18T12:33:04.001Z</time></trkpt><trkpt lat="42.29487871343094" lon="11.670183931050628"><ele>23.0</ele><time>2026-04-18T12:33:05.001Z</time></trkpt><trkpt lat="42.294832456101325" lon="11.670100838583364"><ele>23.0</ele><time>2026-04-18T12:33:06.001Z</time></trkpt><trkpt lat="42.29479248265451" lon="11.670007564034078"><ele>23.0</ele><time>2026-04-18T12:33:07.001Z</time></trkpt><trkpt lat="42.2947200492939" lon="11.669926096180308"><ele>23.25</ele><time>2026-04-18T12:33:08.001Z</time></trkpt><trkpt lat="42.29463484093903" lon="11.669842481151585"><ele>23.5</ele><time>2026-04-18T12:33:09.001Z</time></trkpt><trkpt lat="42.29454335046197" lon="11.66974151853034"><ele>23.75</ele><time>2026-04-18T12:33:10.001Z</time></trkpt><trkpt lat="42.29444982739212" lon="11.669626260363763"><ele>24.0</ele><time>2026-04-18T12:33:11.001Z</time></trkpt><trkpt lat="42.2943459154286" lon="11.66949522973835"><ele>23.75</ele><time>2026-04-18T12:33:12.001Z</time></trkpt><trkpt lat="42.29423796447772" lon="11.66936367700056"><ele>23.5</ele><time>2026-04-18T12:33:13.001Z</time></trkpt><trkpt lat="42.29413115035428" lon="11.66926306057945"><ele>23.25</ele><time>2026-04-18T12:33:14.001Z</time></trkpt><trkpt lat="42.29406078978394" lon="11.669162182682843"><ele>23.0</ele><time>2026-04-18T12:33:15.001Z</time></trkpt><trkpt lat="42.29400665247016" lon="11.669088135946899"><ele>23.0</ele><time>2026-04-18T12:33:16.001Z</time></trkpt><trkpt lat="42.29392874953768" lon="11.669002792487108"><ele>23.0</ele><time>2026-04-18T12:33:17.001Z</time></trkpt><trkpt lat="42.29381644968711" lon="11.668912956224801"><ele>23.0</ele><time>2026-04-18T12:33:18.001Z</time></trkpt><trkpt lat="42.29371421360416" lon="11.668811924945189"><ele>23.0</ele><time>2026-04-18T12:33:19.001Z</time></trkpt><trkpt lat="42.29363484975503" lon="11.668686914915563"><ele>22.75</ele><time>2026-04-18T12:33:20.001Z</time></trkpt><trkpt lat="42.29355314825227" lon="11.668580340093088"><ele>22.5</ele><time>2026-04-18T12:33:21.001Z</time></trkpt><trkpt lat="42.29343215311833" lon="11.668481479942319"><ele>22.25</ele><time>2026-04-18T12:33:22.001Z</time></trkpt><trkpt lat="42.293319480039344" lon="11.668340157267064"><ele>22.0</ele><time>2026-04-18T12:33:23.001Z</time></trkpt><trkpt lat="42.293215728328164" lon="11.6682084650154"><ele>22.0</ele><time>2026-04-18T12:33:24.001Z</time></trkpt><trkpt lat="42.293119592810484" lon="11.66809199519209"><ele>22.0</ele><time>2026-04-18T12:33:25.001Z</time></trkpt><trkpt lat="42.29302004768279" lon="11.667991351624405"><ele>22.0</ele><time>2026-04-18T12:33:26.001Z</time></trkpt><trkpt lat="42.29291948415718" lon="11.66792746652234"><ele>22.0</ele><time>2026-04-18T12:33:27.001Z</time></trkpt><trkpt lat="42.292871689045185" lon="11.66786164288938"><ele>22.0</ele><time>2026-04-18T12:33:28.001Z</time></trkpt><trkpt lat="42.29280449973366" lon="11.667812823047464"><ele>21.5</ele><time>2026-04-18T12:33:29.001Z</time></trkpt><trkpt lat="42.29273287869034" lon="11.667771039611383"><ele>21.0</ele><time>2026-04-18T12:33:30.001Z</time></trkpt><trkpt lat="42.29268321954498" lon="11.667702763882085"><ele>20.5</ele><time>2026-04-18T12:33:31.001Z</time></trkpt><trkpt lat="42.29263895755121" lon="11.667623759822927"><ele>20.0</ele><time>2026-04-18T12:33:32.001Z</time></trkpt><trkpt lat="42.292590809361535" lon="11.667526971958548"><ele>19.5</ele><time>2026-04-18T12:33:33.001Z</time></trkpt><trkpt lat="42.29251810683836" lon="11.667402493045739"><ele>19.0</ele><time>2026-04-18T12:33:34.001Z</time></trkpt><trkpt lat="42.29244719809474" lon="11.66728370064454"><ele>19.0</ele><time>2026-04-18T12:33:35.001Z</time></trkpt><trkpt lat="42.29238428267771" lon="11.667175068886628"><ele>19.0</ele><time>2026-04-18T12:33:36.001Z</time></trkpt><trkpt lat="42.29233355383653" lon="11.667087351394686"><ele>19.0</ele><time>2026-04-18T12:33:37.001Z</time></trkpt><trkpt lat="42.29229274966636" lon="11.667016795170685"><ele>19.0</ele><time>2026-04-18T12:33:38.001Z</time></trkpt><trkpt lat="42.29222122990883" lon="11.666899501144458"><ele>19.0</ele><time>2026-04-18T12:33:40.001Z</time></trkpt><trkpt lat="42.292168563169376" lon="11.666819356560573"><ele>19.0</ele><time>2026-04-18T12:33:42.001Z</time></trkpt><trkpt lat="42.29211442245178" lon="11.666713074220025"><ele>18.833333333333332</ele><time>2026-04-18T12:33:44.001Z</time></trkpt><trkpt lat="42.29206525808129" lon="11.666629629860832"><ele>18.666666666666664</ele><time>2026-04-18T12:33:46.001Z</time></trkpt><trkpt lat="42.29202231424553" lon="11.666556743266426"><ele>18.5</ele><time>2026-04-18T12:33:48.001Z</time></trkpt><trkpt lat="42.291961968674194" lon="11.666465901301535"><ele>18.333333333333332</ele><time>2026-04-18T12:33:50.001Z</time></trkpt><trkpt lat="42.29190911530779" lon="11.666363343793869"><ele>18.166666666666668</ele><time>2026-04-18T12:33:52.001Z</time></trkpt><trkpt lat="42.29186185160391" lon="11.666273487085718"><ele>18.0</ele><time>2026-04-18T12:33:54.001Z</time></trkpt><trkpt lat="42.2917964227041" lon="11.66615174318076"><ele>18.2</ele><time>2026-04-18T12:33:56.001Z</time></trkpt><trkpt lat="42.29173408869563" lon="11.666035757975674"><ele>18.4</ele><time>2026-04-18T12:33:58.001Z</time></trkpt><trkpt lat="42.291689817741904" lon="11.665954687351025"><ele>18.599999999999998</ele><time>2026-04-18T12:33:59.001Z</time></trkpt><trkpt lat="42.29162957601736" lon="11.66584764398102"><ele>18.8</ele><time>2026-04-18T12:34:00.001Z</time></trkpt><trkpt lat="42.291556638979216" lon="11.665726528395728"><ele>19.0</ele><time>2026-04-18T12:34:01.001Z</time></trkpt><trkpt lat="42.29148471454947" lon="11.665613684165187"><ele>18.5</ele><time>2026-04-18T12:34:02.001Z</time></trkpt><trkpt lat="42.291405055104846" lon="11.665485868775137"><ele>18.0</ele><time>2026-04-18T12:34:03.001Z</time></trkpt><trkpt lat="42.291312286075424" lon="11.66532788590349"><ele>17.5</ele><time>2026-04-18T12:34:04.001Z</time></trkpt><trkpt lat="42.29121742167615" lon="11.665163607102672"><ele>17.0</ele><time>2026-04-18T12:34:05.001Z</time></trkpt><trkpt lat="42.291145354040125" lon="11.665032099461376"><ele>17.0</ele><time>2026-04-18T12:34:06.002Z</time></trkpt><trkpt lat="42.29108717099502" lon="11.66492621857399"><ele>17.0</ele><time>2026-04-18T12:34:07.002Z</time></trkpt><trkpt lat="42.29103478835587" lon="11.66484119516825"><ele>17.0</ele><time>2026-04-18T12:34:08.002Z</time></trkpt><trkpt lat="42.29100007564315" lon="11.664766518860873"><ele>17.0</ele><time>2026-04-18T12:34:09.002Z</time></trkpt><trkpt lat="42.29092199124733" lon="11.664678927933105"><ele>17.0</ele><time>2026-04-18T12:34:10.002Z</time></trkpt><trkpt lat="42.29084878770406" lon="11.664558424474993"><ele>17.0</ele><time>2026-04-18T12:34:11.002Z</time></trkpt><trkpt lat="42.29078500895162" lon="11.664450829885618"><ele>17.0</ele><time>2026-04-18T12:34:12.002Z</time></trkpt><trkpt lat="42.29071963134575" lon="11.664332729799797"><ele>17.0</ele><time>2026-04-18T12:34:13.002Z</time></trkpt><trkpt lat="42.290665315870406" lon="11.664222189404127"><ele>17.0</ele><time>2026-04-18T12:34:14.002Z</time></trkpt><trkpt lat="42.290622649912606" lon="11.664112964306197"><ele>17.0</ele><time>2026-04-18T12:34:15.002Z</time></trkpt><trkpt lat="42.290579915976984" lon="11.663975120562608"><ele>16.6</ele><time>2026-04-18T12:34:16.002Z</time></trkpt><trkpt lat="42.29052168354097" lon="11.663858721101727"><ele>16.2</ele><time>2026-04-18T12:34:17.002Z</time></trkpt><trkpt lat="42.29047905781935" lon="11.663777141399537"><ele>15.8</ele><time>2026-04-18T12:34:18.002Z</time></trkpt><trkpt lat="42.29034893267105" lon="11.6637533035494"><ele>15.4</ele><time>2026-04-18T12:34:20.002Z</time></trkpt><trkpt lat="42.29027295077997" lon="11.663811814143795"><ele>15.0</ele><time>2026-04-18T12:34:21.002Z</time></trkpt><trkpt lat="42.29019056749362" lon="11.663907062769749"><ele>15.0</ele><time>2026-04-18T12:34:22.002Z</time></trkpt><trkpt lat="42.29010557994223" lon="11.66404388614534"><ele>15.0</ele><time>2026-04-18T12:34:23.002Z</time></trkpt><trkpt lat="42.29001085179221" lon="11.664226125434146"><ele>15.0</ele><time>2026-04-18T12:34:24.002Z</time></trkpt><trkpt lat="42.28988177986913" lon="11.664441141690407"><ele>14.333333333333332</ele><time>2026-04-18T12:34:25.002Z</time></trkpt><trkpt lat="42.28974765994445" lon="11.664661209979288"><ele>13.666666666666666</ele><time>2026-04-18T12:34:26.002Z</time></trkpt><trkpt lat="42.289644783693056" lon="11.664824158715732"><ele>13.0</ele><time>2026-04-18T12:34:27.002Z</time></trkpt><trkpt lat="42.28956510321632" lon="11.664963735438745"><ele>13.0</ele><time>2026-04-18T12:34:28.002Z</time></trkpt><trkpt lat="42.28949845124974" lon="11.665071143072026"><ele>13.0</ele><time>2026-04-18T12:34:29.002Z</time></trkpt><trkpt lat="42.289437296315874" lon="11.665171951377337"><ele>13.0</ele><time>2026-04-18T12:34:30.002Z</time></trkpt><trkpt lat="42.289371632323814" lon="11.665275141446052"><ele>13.0</ele><time>2026-04-18T12:34:31.002Z</time></trkpt><trkpt lat="42.2893057071811" lon="11.665385158463279"><ele>13.0</ele><time>2026-04-18T12:34:32.002Z</time></trkpt><trkpt lat="42.28926252554616" lon="11.665479844180151"><ele>13.2</ele><time>2026-04-18T12:34:33.002Z</time></trkpt><trkpt lat="42.28923878196189" lon="11.665620684396666"><ele>13.4</ele><time>2026-04-18T12:34:34.002Z</time></trkpt><trkpt lat="42.28921150147201" lon="11.665820144236545"><ele>13.599999999999998</ele><time>2026-04-18T12:34:35.002Z</time></trkpt><trkpt lat="42.289190478661546" lon="11.665948826901177"><ele>13.799999999999999</ele><time>2026-04-18T12:34:36.002Z</time></trkpt><trkpt lat="42.28915673171096" lon="11.666033831605013"><ele>14.0</ele><time>2026-04-18T12:34:37.002Z</time></trkpt><trkpt lat="42.2891021052705" lon="11.666100457783646"><ele>13.833333333333334</ele><time>2026-04-18T12:34:38.002Z</time></trkpt><trkpt lat="42.28903224367755" lon="11.666156187306479"><ele>13.666666666666668</ele><time>2026-04-18T12:34:39.002Z</time></trkpt><trkpt lat="42.28897062669579" lon="11.666197620431666"><ele>13.5</ele><time>2026-04-18T12:34:40.002Z</time></trkpt><trkpt lat="42.28890653522947" lon="11.666219364283503"><ele>13.333333333333332</ele><time>2026-04-18T12:34:42.002Z</time></trkpt><trkpt lat="42.28886250058652" lon="11.666118156852335"><ele>13.166666666666666</ele><time>2026-04-18T12:34:45.002Z</time></trkpt><trkpt lat="42.28888952590326" lon="11.665967517501905"><ele>13.0</ele><time>2026-04-18T12:34:47.002Z</time></trkpt><trkpt lat="42.28888403636357" lon="11.665865706677128"><ele>12.999999999999998</ele><time>2026-04-18T12:34:48.002Z</time></trkpt><trkpt lat="42.288859410964236" lon="11.665779736286032"><ele>13.0</ele><time>2026-04-18T12:34:49.002Z</time></trkpt><trkpt lat="42.288778830916655" lon="11.665718262056213"><ele>13.0</ele><time>2026-04-18T12:34:50.002Z</time></trkpt><trkpt lat="42.28871600434609" lon="11.665653919751435"><ele>13.0</ele><time>2026-04-18T12:34:51.002Z</time></trkpt><trkpt lat="42.28863498987838" lon="11.665570490526829"><ele>12.999999999999998</ele><time>2026-04-18T12:34:52.002Z</time></trkpt><trkpt lat="42.28855332768074" lon="11.665487555338819"><ele>13.0</ele><time>2026-04-18T12:34:53.002Z</time></trkpt><trkpt lat="42.28848278074863" lon="11.665412286007816"><ele>13.0</ele><time>2026-04-18T12:34:54.002Z</time></trkpt><trkpt lat="42.2884062416857" lon="11.665345734317105"><ele>13.0</ele><time>2026-04-18T12:34:55.002Z</time></trkpt><trkpt lat="42.28834872693534" lon="11.66523701169499"><ele>13.0</ele><time>2026-04-18T12:34:56.002Z</time></trkpt><trkpt lat="42.28827818244236" lon="11.665139126561654"><ele>13.0</ele><time>2026-04-18T12:34:57.002Z</time></trkpt><trkpt lat="42.28820869792578" lon="11.665042711972703"><ele>13.0</ele><time>2026-04-18T12:34:58.002Z</time></trkpt><trkpt lat="42.288143164410684" lon="11.664951780221969"><ele>12.8</ele><time>2026-04-18T12:34:59.002Z</time></trkpt><trkpt lat="42.288072595170334" lon="11.664884826422181"><ele>12.600000000000001</ele><time>2026-04-18T12:35:00.002Z</time></trkpt><trkpt lat="42.28802270745661" lon="11.664784637971245"><ele>12.399999999999999</ele><time>2026-04-18T12:35:01.001Z</time></trkpt><trkpt lat="42.2879611210752" lon="11.664699182710068"><ele>12.2</ele><time>2026-04-18T12:35:02.001Z</time></trkpt><trkpt lat="42.28789028660069" lon="11.664601754213747"><ele>12.0</ele><time>2026-04-18T12:35:03.001Z</time></trkpt><trkpt lat="42.287813508511164" lon="11.664497918958542"><ele>11.75</ele><time>2026-04-18T12:35:04.001Z</time></trkpt><trkpt lat="42.287725162283884" lon="11.664382852491041"><ele>11.5</ele><time>2026-04-18T12:35:05.001Z</time></trkpt><trkpt lat="42.287636177864506" lon="11.664269249692309"><ele>11.25</ele><time>2026-04-18T12:35:06.001Z</time></trkpt><trkpt lat="42.28755031145188" lon="11.664159627415502"><ele>11.0</ele><time>2026-04-18T12:35:07.001Z</time></trkpt><trkpt lat="42.28747703989806" lon="11.664066084728312"><ele>11.0</ele><time>2026-04-18T12:35:08.001Z</time></trkpt><trkpt lat="42.28741058504564" lon="11.663981244174066"><ele>11.0</ele><time>2026-04-18T12:35:09.001Z</time></trkpt><trkpt lat="42.28734343405598" lon="11.663893819336684"><ele>11.0</ele><time>2026-04-18T12:35:10.001Z</time></trkpt><trkpt lat="42.28728310214913" lon="11.663814576136495"><ele>11.0</ele><time>2026-04-18T12:35:11.001Z</time></trkpt><trkpt lat="42.287233177622326" lon="11.663748087442421"><ele>11.0</ele><time>2026-04-18T12:35:12.001Z</time></trkpt><trkpt lat="42.287173064245756" lon="11.663663754505448"><ele>11.0</ele><time>2026-04-18T12:35:14.001Z</time></trkpt><trkpt lat="42.287123328837126" lon="11.663593091476889"><ele>11.25</ele><time>2026-04-18T12:35:18.001Z</time></trkpt><trkpt lat="42.28698803148973" lon="11.663707974038203"><ele>11.5</ele><time>2026-04-18T12:35:20.001Z</time></trkpt><trkpt lat="42.286926838172214" lon="11.66384305534805"><ele>11.75</ele><time>2026-04-18T12:35:21.001Z</time></trkpt><trkpt lat="42.28685628194333" lon="11.663973785849326"><ele>12.0</ele><time>2026-04-18T12:35:22.001Z</time></trkpt><trkpt lat="42.28675681438524" lon="11.664138049671987"><ele>12.0</ele><time>2026-04-18T12:35:23.001Z</time></trkpt><trkpt lat="42.28663929954909" lon="11.66432635393427"><ele>12.0</ele><time>2026-04-18T12:35:24.001Z</time></trkpt><trkpt lat="42.28650551748221" lon="11.664530461318234"><ele>12.0</ele><time>2026-04-18T12:35:25.001Z</time></trkpt><trkpt lat="42.2863727986066" lon="11.664735799386973"><ele>13.0</ele><time>2026-04-18T12:35:26.001Z</time></trkpt><trkpt lat="42.28624720408784" lon="11.664932787109489"><ele>14.0</ele><time>2026-04-18T12:35:27.001Z</time></trkpt><trkpt lat="42.28612549774514" lon="11.665118561182085"><ele>15.0</ele><time>2026-04-18T12:35:28.001Z</time></trkpt><trkpt lat="42.28600275625558" lon="11.665316489724491"><ele>15.333333333333332</ele><time>2026-04-18T12:35:29.001Z</time></trkpt><trkpt lat="42.28588085557205" lon="11.665513115753901"><ele>15.666666666666666</ele><time>2026-04-18T12:35:30.001Z</time></trkpt><trkpt lat="42.285758687919035" lon="11.665704082302614"><ele>16.0</ele><time>2026-04-18T12:35:31.001Z</time></trkpt><trkpt lat="42.28563009155142" lon="11.66589834119724"><ele>16.0</ele><time>2026-04-18T12:35:32.001Z</time></trkpt><trkpt lat="42.28551125203342" lon="11.666088255618192"><ele>16.0</ele><time>2026-04-18T12:35:33.001Z</time></trkpt><trkpt lat="42.28539855823617" lon="11.666282986452343"><ele>16.0</ele><time>2026-04-18T12:35:34.001Z</time></trkpt><trkpt lat="42.28528576930982" lon="11.666476986359658"><ele>16.666666666666664</ele><time>2026-04-18T12:35:35.001Z</time></trkpt><trkpt lat="42.28515938951912" lon="11.666666422174464"><ele>17.333333333333332</ele><time>2026-04-18T12:35:36.001Z</time></trkpt><trkpt lat="42.28504070465754" lon="11.666847387336476"><ele>18.0</ele><time>2026-04-18T12:35:37.001Z</time></trkpt><trkpt lat="42.28492527670993" lon="11.667029952625745"><ele>18.0</ele><time>2026-04-18T12:35:38.001Z</time></trkpt><trkpt lat="42.28480974731093" lon="11.667215669964376"><ele>18.0</ele><time>2026-04-18T12:35:39.001Z</time></trkpt><trkpt lat="42.284691296784025" lon="11.667402961720096"><ele>18.0</ele><time>2026-04-18T12:35:40.001Z</time></trkpt><trkpt lat="42.28457503642961" lon="11.667593588929774"><ele>16.333333333333332</ele><time>2026-04-18T12:35:41.001Z</time></trkpt><trkpt lat="42.28446032370774" lon="11.66778075254121"><ele>14.666666666666666</ele><time>2026-04-18T12:35:42.001Z</time></trkpt><trkpt lat="42.28433367829844" lon="11.667975327891485"><ele>13.0</ele><time>2026-04-18T12:35:43.001Z</time></trkpt><trkpt lat="42.28421182129451" lon="11.668168302452264"><ele>13.0</ele><time>2026-04-18T12:35:44.001Z</time></trkpt><trkpt lat="42.284089627353964" lon="11.668362204490792"><ele>13.0</ele><time>2026-04-18T12:35:45.001Z</time></trkpt><trkpt lat="42.28396327969022" lon="11.668554372187359"><ele>13.0</ele><time>2026-04-18T12:35:46.001Z</time></trkpt><trkpt lat="42.28384011909108" lon="11.668744973807817"><ele>13.0</ele><time>2026-04-18T12:35:47.001Z</time></trkpt><trkpt lat="42.28371543249767" lon="11.668944713999329"><ele>13.0</ele><time>2026-04-18T12:35:48.001Z</time></trkpt><trkpt lat="42.28358847221115" lon="11.669139926336461"><ele>13.0</ele><time>2026-04-18T12:35:49.001Z</time></trkpt><trkpt lat="42.28346170656507" lon="11.669335862314036"><ele>12.666666666666666</ele><time>2026-04-18T12:35:50.001Z</time></trkpt><trkpt lat="42.28333567181086" lon="11.669529814695743"><ele>12.333333333333332</ele><time>2026-04-18T12:35:51.001Z</time></trkpt><trkpt lat="42.28321031695082" lon="11.669724182308434"><ele>12.0</ele><time>2026-04-18T12:35:52.001Z</time></trkpt><trkpt lat="42.2830865863298" lon="11.669921162997346"><ele>12.0</ele><time>2026-04-18T12:35:53.001Z</time></trkpt><trkpt lat="42.28296429720473" lon="11.670116473657396"><ele>12.0</ele><time>2026-04-18T12:35:54.001Z</time></trkpt><trkpt lat="42.28283905471254" lon="11.670305952205668"><ele>12.0</ele><time>2026-04-18T12:35:55.001Z</time></trkpt><trkpt lat="42.28271907176652" lon="11.670494330188527"><ele>12.75</ele><time>2026-04-18T12:35:56.001Z</time></trkpt><trkpt lat="42.282610444953505" lon="11.670659181363174"><ele>13.5</ele><time>2026-04-18T12:35:57.001Z</time></trkpt><trkpt lat="42.282522796189745" lon="11.670795272498323"><ele>14.25</ele><time>2026-04-18T12:35:58.001Z</time></trkpt><trkpt lat="42.282440887915975" lon="11.670930131564845"><ele>15.0</ele><time>2026-04-18T12:35:59.001Z</time></trkpt><trkpt lat="42.28236047460226" lon="11.671063639540447"><ele>14.75</ele><time>2026-04-18T12:36:00.001Z</time></trkpt><trkpt lat="42.28227911030583" lon="11.671196620804752"><ele>14.5</ele><time>2026-04-18T12:36:01.001Z</time></trkpt><trkpt lat="42.28219520910574" lon="11.67132999997684"><ele>14.25</ele><time>2026-04-18T12:36:02.001Z</time></trkpt><trkpt lat="42.28210259113604" lon="11.671467525279517"><ele>14.0</ele><time>2026-04-18T12:36:03.001Z</time></trkpt><trkpt lat="42.28200178228682" lon="11.671622601431144"><ele>14.0</ele><time>2026-04-18T12:36:04.001Z</time></trkpt><trkpt lat="42.281895189119865" lon="11.671783185131002"><ele>14.0</ele><time>2026-04-18T12:36:05.001Z</time></trkpt><trkpt lat="42.281788210588" lon="11.671953297847981"><ele>14.0</ele><time>2026-04-18T12:36:06.001Z</time></trkpt><trkpt lat="42.281680557043" lon="11.672128465492628"><ele>14.0</ele><time>2026-04-18T12:36:07.001Z</time></trkpt><trkpt lat="42.281576165850744" lon="11.67229969126644"><ele>14.0</ele><time>2026-04-18T12:36:08.001Z</time></trkpt><trkpt lat="42.28146917946187" lon="11.672470801053143"><ele>14.0</ele><time>2026-04-18T12:36:09.001Z</time></trkpt><trkpt lat="42.28135987433863" lon="11.672634249377696"><ele>13.666666666666668</ele><time>2026-04-18T12:36:10.001Z</time></trkpt><trkpt lat="42.28125291088229" lon="11.672797798872141"><ele>13.333333333333332</ele><time>2026-04-18T12:36:11.001Z</time></trkpt><trkpt lat="42.28115052610526" lon="11.67296133074259"><ele>13.0</ele><time>2026-04-18T12:36:12.001Z</time></trkpt><trkpt lat="42.28105403933254" lon="11.67311629108716"><ele>13.0</ele><time>2026-04-18T12:36:13.001Z</time></trkpt><trkpt lat="42.2809601576281" lon="11.673273567290103"><ele>13.0</ele><time>2026-04-18T12:36:14.001Z</time></trkpt><trkpt lat="42.28086495433559" lon="11.673428502998867"><ele>13.0</ele><time>2026-04-18T12:36:15.001Z</time></trkpt><trkpt lat="42.280765577208484" lon="11.673582655412215"><ele>13.0</ele><time>2026-04-18T12:36:16.001Z</time></trkpt><trkpt lat="42.28067275771288" lon="11.673727002714275"><ele>13.0</ele><time>2026-04-18T12:36:17.001Z</time></trkpt><trkpt lat="42.28058479295689" lon="11.673867079300852"><ele>13.0</ele><time>2026-04-18T12:36:18.001Z</time></trkpt><trkpt lat="42.280501806107836" lon="11.673999297510903"><ele>13.0</ele><time>2026-04-18T12:36:19.001Z</time></trkpt><trkpt lat="42.28042056716728" lon="11.674130583831317"><ele>13.5</ele><time>2026-04-18T12:36:20.001Z</time></trkpt><trkpt lat="42.28033533456171" lon="11.674264165964589"><ele>14.0</ele><time>2026-04-18T12:36:21.001Z</time></trkpt><trkpt lat="42.28024962469498" lon="11.674402513399633"><ele>14.5</ele><time>2026-04-18T12:36:22.001Z</time></trkpt><trkpt lat="42.280169932599954" lon="11.674536024800927"><ele>15.0</ele><time>2026-04-18T12:36:23.001Z</time></trkpt><trkpt lat="42.28008923777216" lon="11.674669828121434"><ele>15.0</ele><time>2026-04-18T12:36:24.001Z</time></trkpt><trkpt lat="42.28000663169344" lon="11.674807736295861"><ele>15.0</ele><time>2026-04-18T12:36:25.001Z</time></trkpt><trkpt lat="42.279919431263004" lon="11.674943960679665"><ele>15.0</ele><time>2026-04-18T12:36:26.001Z</time></trkpt><trkpt lat="42.27983081577821" lon="11.675084237794476"><ele>15.0</ele><time>2026-04-18T12:36:27.001Z</time></trkpt><trkpt lat="42.2797284140975" lon="11.675236071883704"><ele>15.333333333333332</ele><time>2026-04-18T12:36:28.001Z</time></trkpt><trkpt lat="42.279624666934495" lon="11.675399701802107"><ele>15.666666666666666</ele><time>2026-04-18T12:36:29.001Z</time></trkpt><trkpt lat="42.279510808015644" lon="11.675571009860223"><ele>16.0</ele><time>2026-04-18T12:36:30.001Z</time></trkpt><trkpt lat="42.279387605903445" lon="11.675760085818585"><ele>16.0</ele><time>2026-04-18T12:36:31.001Z</time></trkpt><trkpt lat="42.27926423442743" lon="11.67595573966369"><ele>16.0</ele><time>2026-04-18T12:36:32.002Z</time></trkpt><trkpt lat="42.279146392323646" lon="11.67614486164172"><ele>16.0</ele><time>2026-04-18T12:36:33.002Z</time></trkpt><trkpt lat="42.27903169447315" lon="11.67633097296641"><ele>15.0</ele><time>2026-04-18T12:36:34.002Z</time></trkpt><trkpt lat="42.278911007104355" lon="11.67651944207648"><ele>14.0</ele><time>2026-04-18T12:36:35.002Z</time></trkpt><trkpt lat="42.27878739796605" lon="11.676704279515327"><ele>13.0</ele><time>2026-04-18T12:36:36.002Z</time></trkpt><trkpt lat="42.27867074946811" lon="11.676889405722191"><ele>14.333333333333332</ele><time>2026-04-18T12:36:37.002Z</time></trkpt><trkpt lat="42.27855408714094" lon="11.677077262749695"><ele>15.666666666666668</ele><time>2026-04-18T12:36:38.002Z</time></trkpt><trkpt lat="42.27843746022603" lon="11.677270378924597"><ele>17.0</ele><time>2026-04-18T12:36:39.002Z</time></trkpt><trkpt lat="42.278321154756576" lon="11.677459020929234"><ele>17.0</ele><time>2026-04-18T12:36:40.002Z</time></trkpt><trkpt lat="42.278202408469184" lon="11.67764200094519"><ele>17.0</ele><time>2026-04-18T12:36:41.002Z</time></trkpt><trkpt lat="42.27808859828377" lon="11.677817702002182"><ele>17.0</ele><time>2026-04-18T12:36:42.002Z</time></trkpt><trkpt lat="42.2779763292076" lon="11.677989777198311"><ele>16.666666666666668</ele><time>2026-04-18T12:36:43.002Z</time></trkpt><trkpt lat="42.27786063169656" lon="11.67816685642652"><ele>16.333333333333332</ele><time>2026-04-18T12:36:44.002Z</time></trkpt><trkpt lat="42.277749214083904" lon="11.678350348819526"><ele>16.0</ele><time>2026-04-18T12:36:45.002Z</time></trkpt><trkpt lat="42.27763641989596" lon="11.678532093816486"><ele>16.0</ele><time>2026-04-18T12:36:46.002Z</time></trkpt><trkpt lat="42.27752686480079" lon="11.678707620708261"><ele>16.0</ele><time>2026-04-18T12:36:47.002Z</time></trkpt><trkpt lat="42.277417371725946" lon="11.678878145146244"><ele>16.0</ele><time>2026-04-18T12:36:48.002Z</time></trkpt><trkpt lat="42.27730593998235" lon="11.679049303853633"><ele>15.666666666666666</ele><time>2026-04-18T12:36:49.002Z</time></trkpt><trkpt lat="42.277194094702566" lon="11.679218554813607"><ele>15.333333333333332</ele><time>2026-04-18T12:36:50.002Z</time></trkpt><trkpt lat="42.27708435172175" lon="11.679391170795727"><ele>15.0</ele><time>2026-04-18T12:36:51.002Z</time></trkpt><trkpt lat="42.276970131701496" lon="11.679567357010196"><ele>16.666666666666668</ele><time>2026-04-18T12:36:52.002Z</time></trkpt><trkpt lat="42.27685805935033" lon="11.679743173150696"><ele>18.333333333333336</ele><time>2026-04-18T12:36:53.002Z</time></trkpt><trkpt lat="42.27674875605111" lon="11.679914789560028"><ele>20.0</ele><time>2026-04-18T12:36:54.002Z</time></trkpt><trkpt lat="42.27664673602119" lon="11.680083336480356"><ele>20.0</ele><time>2026-04-18T12:36:55.002Z</time></trkpt><trkpt lat="42.2765419909553" lon="11.68025456484262"><ele>20.0</ele><time>2026-04-18T12:36:56.002Z</time></trkpt><trkpt lat="42.27643813064931" lon="11.680421328395436"><ele>20.0</ele><time>2026-04-18T12:36:57.002Z</time></trkpt><trkpt lat="42.27632546461659" lon="11.680600687732545"><ele>19.0</ele><time>2026-04-18T12:36:58.002Z</time></trkpt><trkpt lat="42.2762116747634" lon="11.680779386895486"><ele>18.0</ele><time>2026-04-18T12:36:59.002Z</time></trkpt><trkpt lat="42.27609663379176" lon="11.68095706435353"><ele>17.0</ele><time>2026-04-18T12:37:00.002Z</time></trkpt><trkpt lat="42.27598013318458" lon="11.681136068201448"><ele>16.666666666666668</ele><time>2026-04-18T12:37:01.002Z</time></trkpt><trkpt lat="42.27586395447848" lon="11.681311832599663"><ele>16.333333333333332</ele><time>2026-04-18T12:37:02.002Z</time></trkpt><trkpt lat="42.27575083602491" lon="11.681481177192769"><ele>16.0</ele><time>2026-04-18T12:37:03.002Z</time></trkpt><trkpt lat="42.275645248187935" lon="11.681656812267196"><ele>16.0</ele><time>2026-04-18T12:37:04.002Z</time></trkpt><trkpt lat="42.275537594738594" lon="11.681838933585599"><ele>16.0</ele><time>2026-04-18T12:37:05.002Z</time></trkpt><trkpt lat="42.275428259846414" lon="11.682016242357685"><ele>16.0</ele><time>2026-04-18T12:37:06.002Z</time></trkpt><trkpt lat="42.275313797208334" lon="11.682196777267903"><ele>17.0</ele><time>2026-04-18T12:37:07Z</time></trkpt><trkpt lat="42.275197727138504" lon="11.682377489375739"><ele>18.0</ele><time>2026-04-18T12:37:08Z</time></trkpt><trkpt lat="42.275082075178396" lon="11.682560608961357"><ele>19.0</ele><time>2026-04-18T12:37:09Z</time></trkpt><trkpt lat="42.274964641805084" lon="11.682750277614518"><ele>18.333333333333332</ele><time>2026-04-18T12:37:10Z</time></trkpt><trkpt lat="42.274844296768194" lon="11.68293844898971"><ele>17.666666666666668</ele><time>2026-04-18T12:37:11Z</time></trkpt><trkpt lat="42.27472530008563" lon="11.683128103223167"><ele>17.0</ele><time>2026-04-18T12:37:12Z</time></trkpt><trkpt lat="42.27461198740744" lon="11.68331265347443"><ele>17.0</ele><time>2026-04-18T12:37:13Z</time></trkpt><trkpt lat="42.27449618935775" lon="11.683494057670416"><ele>17.0</ele><time>2026-04-18T12:37:14Z</time></trkpt><trkpt lat="42.27438488624763" lon="11.68366711620429"><ele>17.0</ele><time>2026-04-18T12:37:15Z</time></trkpt><trkpt lat="42.27427542165765" lon="11.683835841653385"><ele>17.666666666666668</ele><time>2026-04-18T12:37:16Z</time></trkpt><trkpt lat="42.27416474253986" lon="11.68400864645039"><ele>18.333333333333332</ele><time>2026-04-18T12:37:17Z</time></trkpt><trkpt lat="42.2740524411289" lon="11.68418818388353"><ele>19.0</ele><time>2026-04-18T12:37:18Z</time></trkpt><trkpt lat="42.27394018618889" lon="11.684373951130281"><ele>18.666666666666664</ele><time>2026-04-18T12:37:19Z</time></trkpt><trkpt lat="42.273825463576195" lon="11.684558230063653"><ele>18.333333333333332</ele><time>2026-04-18T12:37:20Z</time></trkpt><trkpt lat="42.27370948931308" lon="11.684743231993293"><ele>18.0</ele><time>2026-04-18T12:37:21Z</time></trkpt><trkpt lat="42.273593802331646" lon="11.68493071537424"><ele>18.0</ele><time>2026-04-18T12:37:22Z</time></trkpt><trkpt lat="42.27347752429019" lon="11.685121520573684"><ele>18.0</ele><time>2026-04-18T12:37:23Z</time></trkpt><trkpt lat="42.27336010965386" lon="11.685302023520324"><ele>18.0</ele><time>2026-04-18T12:37:24Z</time></trkpt><trkpt lat="42.273250634697824" lon="11.685472525942355"><ele>18.0</ele><time>2026-04-18T12:37:25Z</time></trkpt><trkpt lat="42.27314496898363" lon="11.685631741222341"><ele>18.0</ele><time>2026-04-18T12:37:26Z</time></trkpt><trkpt lat="42.27304409812793" lon="11.685788428118615"><ele>18.0</ele><time>2026-04-18T12:37:27Z</time></trkpt><trkpt lat="42.272938981576814" lon="11.68594630561022"><ele>16.666666666666668</ele><time>2026-04-18T12:37:28Z</time></trkpt><trkpt lat="42.272830944019326" lon="11.686114384816179"><ele>15.333333333333334</ele><time>2026-04-18T12:37:29Z</time></trkpt><trkpt lat="42.27271949830624" lon="11.686289106459865"><ele>14.0</ele><time>2026-04-18T12:37:30Z</time></trkpt><trkpt lat="42.27260877022503" lon="11.68646675642904"><ele>14.0</ele><time>2026-04-18T12:37:31Z</time></trkpt><trkpt lat="42.27249536754405" lon="11.686644420320633"><ele>14.0</ele><time>2026-04-18T12:37:32Z</time></trkpt><trkpt lat="42.27238581363805" lon="11.686816938563542"><ele>14.0</ele><time>2026-04-18T12:37:33Z</time></trkpt><trkpt lat="42.272272791330366" lon="11.686986189478356"><ele>13.666666666666668</ele><time>2026-04-18T12:37:34Z</time></trkpt><trkpt lat="42.2721620309624" lon="11.687164311786168"><ele>13.333333333333332</ele><time>2026-04-18T12:37:35Z</time></trkpt><trkpt lat="42.2720481428558" lon="11.68734352511332"><ele>13.0</ele><time>2026-04-18T12:37:36Z</time></trkpt><trkpt lat="42.27193599531574" lon="11.687525773688858"><ele>13.0</ele><time>2026-04-18T12:37:37Z</time></trkpt><trkpt lat="42.27182138319043" lon="11.687711719769958"><ele>13.0</ele><time>2026-04-18T12:37:38Z</time></trkpt><trkpt lat="42.27170434013371" lon="11.687901908746497"><ele>13.0</ele><time>2026-04-18T12:37:39Z</time></trkpt><trkpt lat="42.271584568527736" lon="11.688090921844834"><ele>13.333333333333332</ele><time>2026-04-18T12:37:40Z</time></trkpt><trkpt lat="42.27146231200716" lon="11.68827932097839"><ele>13.666666666666668</ele><time>2026-04-18T12:37:41Z</time></trkpt><trkpt lat="42.271340061065594" lon="11.688471310035311"><ele>14.0</ele><time>2026-04-18T12:37:42Z</time></trkpt><trkpt lat="42.27121834003682" lon="11.688663115417523"><ele>15.333333333333334</ele><time>2026-04-18T12:37:43Z</time></trkpt><trkpt lat="42.27109473533906" lon="11.688857406647763"><ele>16.666666666666668</ele><time>2026-04-18T12:37:44Z</time></trkpt><trkpt lat="42.27096995165608" lon="11.689051549993415"><ele>18.0</ele><time>2026-04-18T12:37:45Z</time></trkpt><trkpt lat="42.27084598743422" lon="11.6892476285791"><ele>18.333333333333332</ele><time>2026-04-18T12:37:46Z</time></trkpt><trkpt lat="42.27071875611514" lon="11.689449793097724"><ele>18.666666666666664</ele><time>2026-04-18T12:37:47Z</time></trkpt><trkpt lat="42.270590792494126" lon="11.689652735725515"><ele>19.0</ele><time>2026-04-18T12:37:48Z</time></trkpt><trkpt lat="42.27046089735362" lon="11.689852737126484"><ele>18.333333333333332</ele><time>2026-04-18T12:37:49Z</time></trkpt><trkpt lat="42.27033218522681" lon="11.690059634311353"><ele>17.666666666666668</ele><time>2026-04-18T12:37:50Z</time></trkpt><trkpt lat="42.2702039277039" lon="11.690266856705213"><ele>17.0</ele><time>2026-04-18T12:37:51Z</time></trkpt><trkpt lat="42.27007460642742" lon="11.69047106639798"><ele>17.0</ele><time>2026-04-18T12:37:52Z</time></trkpt><trkpt lat="42.26994824796313" lon="11.690669333919589"><ele>17.0</ele><time>2026-04-18T12:37:53Z</time></trkpt><trkpt lat="42.269821662511454" lon="11.690868392771531"><ele>17.0</ele><time>2026-04-18T12:37:54Z</time></trkpt><trkpt lat="42.26969757075563" lon="11.691068439444306"><ele>17.333333333333336</ele><time>2026-04-18T12:37:55Z</time></trkpt><trkpt lat="42.269573787064694" lon="11.691262836143045"><ele>17.666666666666668</ele><time>2026-04-18T12:37:56Z</time></trkpt><trkpt lat="42.26944676522555" lon="11.691457112355707"><ele>18.0</ele><time>2026-04-18T12:37:57Z</time></trkpt><trkpt lat="42.269319176246924" lon="11.69165304148551"><ele>18.0</ele><time>2026-04-18T12:37:58Z</time></trkpt><trkpt lat="42.2691930703067" lon="11.691851299521065"><ele>18.0</ele><time>2026-04-18T12:37:59Z</time></trkpt><trkpt lat="42.26906729161173" lon="11.692051721863068"><ele>18.0</ele><time>2026-04-18T12:38:00Z</time></trkpt><trkpt lat="42.26894242475785" lon="11.692251622675753"><ele>19.0</ele><time>2026-04-18T12:38:01Z</time></trkpt><trkpt lat="42.26881603674506" lon="11.692446784674726"><ele>20.0</ele><time>2026-04-18T12:38:02.001Z</time></trkpt><trkpt lat="42.26869591532465" lon="11.692629228923265"><ele>21.0</ele><time>2026-04-18T12:38:03.001Z</time></trkpt><trkpt lat="42.268580042409724" lon="11.692803788399866"><ele>21.0</ele><time>2026-04-18T12:38:04.001Z</time></trkpt><trkpt lat="42.26846410790609" lon="11.69298352615966"><ele>21.0</ele><time>2026-04-18T12:38:05.001Z</time></trkpt><trkpt lat="42.2683535201611" lon="11.693172327704529"><ele>21.0</ele><time>2026-04-18T12:38:06.001Z</time></trkpt><trkpt lat="42.26823756065402" lon="11.693344402531428"><ele>21.0</ele><time>2026-04-18T12:38:07.001Z</time></trkpt><trkpt lat="42.26812715551591" lon="11.693519485911075"><ele>21.0</ele><time>2026-04-18T12:38:08.001Z</time></trkpt><trkpt lat="42.26801922930224" lon="11.693695198409419"><ele>21.0</ele><time>2026-04-18T12:38:09.001Z</time></trkpt><trkpt lat="42.267905851472456" lon="11.69386513302195"><ele>20.666666666666668</ele><time>2026-04-18T12:38:10.001Z</time></trkpt><trkpt lat="42.26779406979442" lon="11.694037297995221"><ele>20.333333333333336</ele><time>2026-04-18T12:38:11.001Z</time></trkpt><trkpt lat="42.26768127366403" lon="11.694213649599273"><ele>20.0</ele><time>2026-04-18T12:38:12.001Z</time></trkpt><trkpt lat="42.26756878201718" lon="11.694391735068788"><ele>20.0</ele><time>2026-04-18T12:38:13.001Z</time></trkpt><trkpt lat="42.26745701142907" lon="11.69456898811066"><ele>20.0</ele><time>2026-04-18T12:38:14.001Z</time></trkpt><trkpt lat="42.26734616846603" lon="11.694744132258318"><ele>20.0</ele><time>2026-04-18T12:38:15.001Z</time></trkpt><trkpt lat="42.267237582036785" lon="11.69491569267238"><ele>20.333333333333336</ele><time>2026-04-18T12:38:16.001Z</time></trkpt><trkpt lat="42.267129991449956" lon="11.69508806204531"><ele>20.666666666666668</ele><time>2026-04-18T12:38:17.001Z</time></trkpt><trkpt lat="42.267024405115315" lon="11.695258222182412"><ele>21.0</ele><time>2026-04-18T12:38:18.001Z</time></trkpt><trkpt lat="42.26691927693075" lon="11.695425398337544"><ele>21.0</ele><time>2026-04-18T12:38:19.001Z</time></trkpt><trkpt lat="42.2668107111677" lon="11.695594670842278"><ele>21.0</ele><time>2026-04-18T12:38:20.001Z</time></trkpt><trkpt lat="42.26670213872961" lon="11.695761637558325"><ele>21.0</ele><time>2026-04-18T12:38:21.001Z</time></trkpt><trkpt lat="42.266596939880614" lon="11.695923636257945"><ele>21.0</ele><time>2026-04-18T12:38:22.001Z</time></trkpt><trkpt lat="42.26649720341902" lon="11.696075638043778"><ele>21.0</ele><time>2026-04-18T12:38:23.001Z</time></trkpt><trkpt lat="42.26640469726715" lon="11.696222561849453"><ele>21.0</ele><time>2026-04-18T12:38:24.001Z</time></trkpt><trkpt lat="42.26631816618337" lon="11.696359654527617"><ele>21.0</ele><time>2026-04-18T12:38:25.001Z</time></trkpt><trkpt lat="42.266234344247984" lon="11.696490725851087"><ele>22.0</ele><time>2026-04-18T12:38:26.001Z</time></trkpt><trkpt lat="42.26615335085745" lon="11.696617045778016"><ele>23.0</ele><time>2026-04-18T12:38:27.001Z</time></trkpt><trkpt lat="42.266077062720896" lon="11.696735002289683"><ele>24.0</ele><time>2026-04-18T12:38:28.001Z</time></trkpt><trkpt lat="42.26600642405434" lon="11.69685115747681"><ele>25.0</ele><time>2026-04-18T12:38:29.001Z</time></trkpt><trkpt lat="42.26593046099109" lon="11.69696850457235"><ele>25.5</ele><time>2026-04-18T12:38:30.001Z</time></trkpt><trkpt lat="42.265846120819056" lon="11.697100960228521"><ele>26.0</ele><time>2026-04-18T12:38:31.001Z</time></trkpt><trkpt lat="42.265753153942136" lon="11.697247433872985"><ele>26.5</ele><time>2026-04-18T12:38:32.001Z</time></trkpt><trkpt lat="42.26565484111198" lon="11.697401548477298"><ele>27.0</ele><time>2026-04-18T12:38:33.001Z</time></trkpt><trkpt lat="42.26554885691421" lon="11.697567200731001"><ele>25.666666666666668</ele><time>2026-04-18T12:38:34.001Z</time></trkpt><trkpt lat="42.26544825122684" lon="11.697729324821612"><ele>24.333333333333336</ele><time>2026-04-18T12:38:35.001Z</time></trkpt><trkpt lat="42.265344497324456" lon="11.697892888079389"><ele>23.0</ele><time>2026-04-18T12:38:36.001Z</time></trkpt><trkpt lat="42.26523808525777" lon="11.698063602703938"><ele>23.0</ele><time>2026-04-18T12:38:37.001Z</time></trkpt><trkpt lat="42.265125429161785" lon="11.698238335651123"><ele>23.0</ele><time>2026-04-18T12:38:38.001Z</time></trkpt><trkpt lat="42.265014535863116" lon="11.698415148841612"><ele>23.0</ele><time>2026-04-18T12:38:39.001Z</time></trkpt><trkpt lat="42.26490184490977" lon="11.698592124617921"><ele>23.333333333333336</ele><time>2026-04-18T12:38:40.001Z</time></trkpt><trkpt lat="42.264789890730015" lon="11.698767802053563"><ele>23.666666666666668</ele><time>2026-04-18T12:38:41.001Z</time></trkpt><trkpt lat="42.2646763597991" lon="11.698943251716667"><ele>24.0</ele><time>2026-04-18T12:38:42.001Z</time></trkpt><trkpt lat="42.26456497941997" lon="11.69911624308963"><ele>24.333333333333336</ele><time>2026-04-18T12:38:43.001Z</time></trkpt><trkpt lat="42.264457792880954" lon="11.69928458611808"><ele>24.666666666666668</ele><time>2026-04-18T12:38:44.001Z</time></trkpt><trkpt lat="42.26435477129701" lon="11.699447400554375"><ele>25.0</ele><time>2026-04-18T12:38:45.001Z</time></trkpt><trkpt lat="42.26425563903155" lon="11.699601699077409"><ele>25.25</ele><time>2026-04-18T12:38:46.001Z</time></trkpt><trkpt lat="42.26416285760503" lon="11.699753011575476"><ele>25.5</ele><time>2026-04-18T12:38:47.001Z</time></trkpt><trkpt lat="42.26407199465789" lon="11.69989705103448"><ele>25.75</ele><time>2026-04-18T12:38:48.001Z</time></trkpt><trkpt lat="42.26398379983439" lon="11.700039915592518"><ele>26.0</ele><time>2026-04-18T12:38:49.001Z</time></trkpt><trkpt lat="42.263891890615376" lon="11.700185074790241"><ele>25.333333333333332</ele><time>2026-04-18T12:38:50.001Z</time></trkpt><trkpt lat="42.26379462253912" lon="11.700336854533333"><ele>24.666666666666664</ele><time>2026-04-18T12:38:51.001Z</time></trkpt><trkpt lat="42.26369563582222" lon="11.700498638301255"><ele>24.0</ele><time>2026-04-18T12:38:52.001Z</time></trkpt><trkpt lat="42.2635913886323" lon="11.700662975249426"><ele>24.0</ele><time>2026-04-18T12:38:53.001Z</time></trkpt><trkpt lat="42.2634873091893" lon="11.700828591531515"><ele>24.0</ele><time>2026-04-18T12:38:54.001Z</time></trkpt><trkpt lat="42.26338608732055" lon="11.700989612938454"><ele>24.0</ele><time>2026-04-18T12:38:55.001Z</time></trkpt><trkpt lat="42.263282136697526" lon="11.701156198870878"><ele>23.333333333333332</ele><time>2026-04-18T12:38:56.001Z</time></trkpt><trkpt lat="42.263175827120314" lon="11.701328365531687"><ele>22.666666666666664</ele><time>2026-04-18T12:38:57.001Z</time></trkpt><trkpt lat="42.26306641574612" lon="11.70150294311463"><ele>22.0</ele><time>2026-04-18T12:38:58.001Z</time></trkpt><trkpt lat="42.26296034481891" lon="11.701668734952147"><ele>21.666666666666664</ele><time>2026-04-18T12:38:59.001Z</time></trkpt><trkpt lat="42.26285753755816" lon="11.701825347251475"><ele>21.333333333333332</ele><time>2026-04-18T12:39:00.001Z</time></trkpt><trkpt lat="42.262756844790374" lon="11.701986173835431"><ele>21.0</ele><time>2026-04-18T12:39:01.001Z</time></trkpt><trkpt lat="42.26265354996581" lon="11.702148941669222"><ele>21.0</ele><time>2026-04-18T12:39:02.001Z</time></trkpt><trkpt lat="42.26255679391898" lon="11.702307457680279"><ele>21.0</ele><time>2026-04-18T12:39:03.002Z</time></trkpt><trkpt lat="42.26245876617451" lon="11.702464519766728"><ele>21.0</ele><time>2026-04-18T12:39:04.002Z</time></trkpt><trkpt lat="42.262355464541066" lon="11.702629510980218"><ele>21.333333333333332</ele><time>2026-04-18T12:39:05.002Z</time></trkpt><trkpt lat="42.26224696889699" lon="11.702800965083835"><ele>21.666666666666664</ele><time>2026-04-18T12:39:06.002Z</time></trkpt><trkpt lat="42.262141187988796" lon="11.702967799623353"><ele>22.0</ele><time>2026-04-18T12:39:07.002Z</time></trkpt><trkpt lat="42.262040085308755" lon="11.703123997741317"><ele>22.0</ele><time>2026-04-18T12:39:08.002Z</time></trkpt><trkpt lat="42.26193925360036" lon="11.703281305551538"><ele>22.0</ele><time>2026-04-18T12:39:09.002Z</time></trkpt><trkpt lat="42.261841053428896" lon="11.7034394275457"><ele>22.0</ele><time>2026-04-18T12:39:10.002Z</time></trkpt><trkpt lat="42.26173875050909" lon="11.703602637568274"><ele>22.0</ele><time>2026-04-18T12:39:11.002Z</time></trkpt><trkpt lat="42.26163349537612" lon="11.703767771975379"><ele>22.0</ele><time>2026-04-18T12:39:12.002Z</time></trkpt><trkpt lat="42.26152655771334" lon="11.703929546031564"><ele>22.0</ele><time>2026-04-18T12:39:13Z</time></trkpt><trkpt lat="42.26141700308779" lon="11.704089545553312"><ele>21.0</ele><time>2026-04-18T12:39:14Z</time></trkpt><trkpt lat="42.2613021806303" lon="11.704252830241348"><ele>20.0</ele><time>2026-04-18T12:39:15Z</time></trkpt><trkpt lat="42.2611813417225" lon="11.704410411939435"><ele>19.0</ele><time>2026-04-18T12:39:16Z</time></trkpt><trkpt lat="42.26105228266751" lon="11.704563136974729"><ele>18.666666666666664</ele><time>2026-04-18T12:39:17Z</time></trkpt><trkpt lat="42.260922508527756" lon="11.70470107904871"><ele>18.333333333333332</ele><time>2026-04-18T12:39:18Z</time></trkpt><trkpt lat="42.26078875847031" lon="11.7048320457176"><ele>18.0</ele><time>2026-04-18T12:39:19Z</time></trkpt><trkpt lat="42.26064820352898" lon="11.70495841524616"><ele>18.333333333333332</ele><time>2026-04-18T12:39:20Z</time></trkpt><trkpt lat="42.26049992158303" lon="11.705078900905"><ele>18.666666666666664</ele><time>2026-04-18T12:39:21Z</time></trkpt><trkpt lat="42.26034086670262" lon="11.705196148007497"><ele>19.0</ele><time>2026-04-18T12:39:22Z</time></trkpt><trkpt lat="42.26017993131817" lon="11.705300331590884"><ele>18.333333333333332</ele><time>2026-04-18T12:39:23Z</time></trkpt><trkpt lat="42.26001336854654" lon="11.705397716990143"><ele>17.666666666666668</ele><time>2026-04-18T12:39:24Z</time></trkpt><trkpt lat="42.25984788437017" lon="11.705482096283278"><ele>17.0</ele><time>2026-04-18T12:39:25Z</time></trkpt><trkpt lat="42.259683753522395" lon="11.705549423903852"><ele>15.333333333333334</ele><time>2026-04-18T12:39:26Z</time></trkpt><trkpt lat="42.25951811125688" lon="11.705602672754281"><ele>13.666666666666668</ele><time>2026-04-18T12:39:27Z</time></trkpt><trkpt lat="42.25935157388064" lon="11.705638998849002"><ele>12.0</ele><time>2026-04-18T12:39:28Z</time></trkpt><trkpt lat="42.25917831947084" lon="11.705665131850223"><ele>12.0</ele><time>2026-04-18T12:39:29Z</time></trkpt><trkpt lat="42.258997950928816" lon="11.70568562890018"><ele>12.0</ele><time>2026-04-18T12:39:30Z</time></trkpt><trkpt lat="42.25881220898698" lon="11.705699869470115"><ele>12.0</ele><time>2026-04-18T12:39:31Z</time></trkpt><trkpt lat="42.25862025328871" lon="11.705705235815357"><ele>12.333333333333332</ele><time>2026-04-18T12:39:32Z</time></trkpt><trkpt lat="42.25841965925104" lon="11.705707809181412"><ele>12.666666666666666</ele><time>2026-04-18T12:39:33Z</time></trkpt><trkpt lat="42.258211841071" lon="11.705712954775596"><ele>13.0</ele><time>2026-04-18T12:39:34Z</time></trkpt><trkpt lat="42.258009458989854" lon="11.705722782520873"><ele>13.0</ele><time>2026-04-18T12:39:35Z</time></trkpt><trkpt lat="42.25780722333186" lon="11.705731570856061"><ele>13.0</ele><time>2026-04-18T12:39:36Z</time></trkpt><trkpt lat="42.25761015120434" lon="11.705739037180887"><ele>13.0</ele><time>2026-04-18T12:39:37Z</time></trkpt><trkpt lat="42.25741478695241" lon="11.705748365330404"><ele>13.333333333333332</ele><time>2026-04-18T12:39:38Z</time></trkpt><trkpt lat="42.25721890533646" lon="11.705757399409743"><ele>13.666666666666668</ele><time>2026-04-18T12:39:39Z</time></trkpt><trkpt lat="42.25702210206098" lon="11.705766719454894"><ele>14.0</ele><time>2026-04-18T12:39:40Z</time></trkpt><trkpt lat="42.25682604452489" lon="11.705773909333788"><ele>14.0</ele><time>2026-04-18T12:39:41Z</time></trkpt><trkpt lat="42.25663684632888" lon="11.705778815994137"><ele>14.0</ele><time>2026-04-18T12:39:42Z</time></trkpt><trkpt lat="42.25645017551181" lon="11.705785150324274"><ele>14.0</ele><time>2026-04-18T12:39:43Z</time></trkpt><trkpt lat="42.256262864725045" lon="11.705790621359599"><ele>14.0</ele><time>2026-04-18T12:39:44Z</time></trkpt><trkpt lat="42.25607360963437" lon="11.70579449764796"><ele>14.0</ele><time>2026-04-18T12:39:45Z</time></trkpt><trkpt lat="42.25588171291971" lon="11.705801686942491"><ele>14.0</ele><time>2026-04-18T12:39:46Z</time></trkpt><trkpt lat="42.25568395490476" lon="11.705811568859543"><ele>13.666666666666668</ele><time>2026-04-18T12:39:47Z</time></trkpt><trkpt lat="42.25548851500415" lon="11.70582153100053"><ele>13.333333333333332</ele><time>2026-04-18T12:39:48Z</time></trkpt><trkpt lat="42.25530075614527" lon="11.70583078966664"><ele>13.0</ele><time>2026-04-18T12:39:49Z</time></trkpt><trkpt lat="42.25511177390319" lon="11.705838809664352"><ele>13.0</ele><time>2026-04-18T12:39:50Z</time></trkpt><trkpt lat="42.254925166381106" lon="11.705844337167287"><ele>13.0</ele><time>2026-04-18T12:39:51Z</time></trkpt><trkpt lat="42.254737119717966" lon="11.70585165627687"><ele>13.0</ele><time>2026-04-18T12:39:52Z</time></trkpt><trkpt lat="42.254552226112914" lon="11.705857031925044"><ele>12.333333333333332</ele><time>2026-04-18T12:39:53Z</time></trkpt><trkpt lat="42.25437061273145" lon="11.705864847780624"><ele>11.666666666666666</ele><time>2026-04-18T12:39:54Z</time></trkpt><trkpt lat="42.254189210922874" lon="11.705874368485532"><ele>11.0</ele><time>2026-04-18T12:39:55Z</time></trkpt><trkpt lat="42.25401073790999" lon="11.70587853522082"><ele>10.0</ele><time>2026-04-18T12:39:56Z</time></trkpt><trkpt lat="42.25383479986475" lon="11.705883488613727"><ele>9.0</ele><time>2026-04-18T12:39:57Z</time></trkpt><trkpt lat="42.25366940611292" lon="11.705889390608569"><ele>8.0</ele><time>2026-04-18T12:39:58Z</time></trkpt><trkpt lat="42.25350297730331" lon="11.705896810373384"><ele>8.0</ele><time>2026-04-18T12:39:59Z</time></trkpt><trkpt lat="42.253335206140385" lon="11.70590219136329"><ele>8.0</ele><time>2026-04-18T12:40:00Z</time></trkpt><trkpt lat="42.25316071602027" lon="11.70590822069718"><ele>8.0</ele><time>2026-04-18T12:40:01Z</time></trkpt><trkpt lat="42.252992461619804" lon="11.7059135374744"><ele>8.333333333333332</ele><time>2026-04-18T12:40:02Z</time></trkpt><trkpt lat="42.25283274216927" lon="11.705920647574825"><ele>8.666666666666666</ele><time>2026-04-18T12:40:03.001Z</time></trkpt><trkpt lat="42.252677813154826" lon="11.70592963043878"><ele>9.0</ele><time>2026-04-18T12:40:04.001Z</time></trkpt><trkpt lat="42.25252806120584" lon="11.705937193310012"><ele>9.0</ele><time>2026-04-18T12:40:05.001Z</time></trkpt><trkpt lat="42.25238389129975" lon="11.705946185637382"><ele>9.0</ele><time>2026-04-18T12:40:06.001Z</time></trkpt><trkpt lat="42.25224712191353" lon="11.705951427459736"><ele>9.0</ele><time>2026-04-18T12:40:07.001Z</time></trkpt><trkpt lat="42.25211498573997" lon="11.705956906110904"><ele>9.0</ele><time>2026-04-18T12:40:08.001Z</time></trkpt><trkpt lat="42.25198732590899" lon="11.705961821313306"><ele>8.6</ele><time>2026-04-18T12:40:09.001Z</time></trkpt><trkpt lat="42.25186913479055" lon="11.705964524776709"><ele>8.2</ele><time>2026-04-18T12:40:10.001Z</time></trkpt><trkpt lat="42.25176761639845" lon="11.705963452785639"><ele>7.799999999999999</ele><time>2026-04-18T12:40:11.001Z</time></trkpt><trkpt lat="42.25168270338225" lon="11.705955959939756"><ele>7.3999999999999995</ele><time>2026-04-18T12:40:12.001Z</time></trkpt><trkpt lat="42.25160239871616" lon="11.705924491696463"><ele>7.0</ele><time>2026-04-18T12:40:13.001Z</time></trkpt><trkpt lat="42.25153012693849" lon="11.705874680955084"><ele>6.666666666666667</ele><time>2026-04-18T12:40:14.001Z</time></trkpt><trkpt lat="42.25145224321524" lon="11.70581827405593"><ele>6.333333333333334</ele><time>2026-04-18T12:40:15.001Z</time></trkpt><trkpt lat="42.251369478326566" lon="11.705789782818439"><ele>6.0</ele><time>2026-04-18T12:40:16.001Z</time></trkpt><trkpt lat="42.251295424709205" lon="11.70580084422228"><ele>5.666666666666667</ele><time>2026-04-18T12:40:17.001Z</time></trkpt><trkpt lat="42.25122935124769" lon="11.705840650245085"><ele>5.333333333333334</ele><time>2026-04-18T12:40:18.001Z</time></trkpt><trkpt lat="42.251199961820134" lon="11.70591899385903"><ele>5.0</ele><time>2026-04-18T12:40:19.001Z</time></trkpt><trkpt lat="42.25119952778958" lon="11.706006816216359"><ele>4.8</ele><time>2026-04-18T12:40:20.001Z</time></trkpt><trkpt lat="42.251226095741785" lon="11.706100653002071"><ele>4.6</ele><time>2026-04-18T12:40:21.001Z</time></trkpt><trkpt lat="42.25127533882807" lon="11.706195369910489"><ele>4.4</ele><time>2026-04-18T12:40:22.001Z</time></trkpt><trkpt lat="42.25135662815983" lon="11.706240563412832"><ele>4.2</ele><time>2026-04-18T12:40:23.001Z</time></trkpt><trkpt lat="42.25139794593342" lon="11.706423428394558"><ele>4.0</ele><time>2026-04-18T12:40:24.001Z</time></trkpt><trkpt lat="42.25145221109423" lon="11.706573661702011"><ele>4.0</ele><time>2026-04-18T12:40:25.001Z</time></trkpt><trkpt lat="42.25149313397354" lon="11.70675145054772"><ele>4.0</ele><time>2026-04-18T12:40:26.001Z</time></trkpt><trkpt lat="42.25153389185647" lon="11.706948801597628"><ele>4.0</ele><time>2026-04-18T12:40:27.001Z</time></trkpt><trkpt lat="42.25158033281287" lon="11.707164925898244"><ele>4.0</ele><time>2026-04-18T12:40:28.001Z</time></trkpt><trkpt lat="42.25163815066993" lon="11.707405726088219"><ele>4.0</ele><time>2026-04-18T12:40:29.001Z</time></trkpt><trkpt lat="42.25169943990546" lon="11.707651604133373"><ele>4.0</ele><time>2026-04-18T12:40:30.001Z</time></trkpt><trkpt lat="42.25176819468711" lon="11.70792810424938"><ele>4.0</ele><time>2026-04-18T12:40:31.001Z</time></trkpt><trkpt lat="42.25184186732233" lon="11.708219058242781"><ele>4.0</ele><time>2026-04-18T12:40:32.001Z</time></trkpt><trkpt lat="42.251912280871515" lon="11.70848327810813"><ele>4.0</ele><time>2026-04-18T12:40:33.001Z</time></trkpt><trkpt lat="42.25198615847057" lon="11.708735726951964"><ele>4.0</ele><time>2026-04-18T12:40:34.001Z</time></trkpt><trkpt lat="42.25206336653064" lon="11.708979366128268"><ele>4.0</ele><time>2026-04-18T12:40:35.001Z</time></trkpt><trkpt lat="42.25214055690558" lon="11.709216404648656"><ele>4.0</ele><time>2026-04-18T12:40:36.001Z</time></trkpt><trkpt lat="42.25221730617808" lon="11.709451283364078"><ele>5.0</ele><time>2026-04-18T12:40:37.001Z</time></trkpt><trkpt lat="42.252292491836464" lon="11.709684631274486"><ele>6.0</ele><time>2026-04-18T12:40:38.001Z</time></trkpt><trkpt lat="42.25236463664082" lon="11.709912336394977"><ele>7.0</ele><time>2026-04-18T12:40:39.001Z</time></trkpt><trkpt lat="42.252436916174126" lon="11.71013887417271"><ele>6.333333333333334</ele><time>2026-04-18T12:40:40.001Z</time></trkpt><trkpt lat="42.25250981025355" lon="11.710358557458143"><ele>5.666666666666667</ele><time>2026-04-18T12:40:41.001Z</time></trkpt><trkpt lat="42.252580585885994" lon="11.710568458839042"><ele>5.0</ele><time>2026-04-18T12:40:42.001Z</time></trkpt><trkpt lat="42.25264506068929" lon="11.710764897402957"><ele>5.0</ele><time>2026-04-18T12:40:43.001Z</time></trkpt><trkpt lat="42.25269836179159" lon="11.710936202218967"><ele>5.0</ele><time>2026-04-18T12:40:44.001Z</time></trkpt><trkpt lat="42.25274782941005" lon="11.711088840584868"><ele>5.0</ele><time>2026-04-18T12:40:45.001Z</time></trkpt><trkpt lat="42.252795114404684" lon="11.711223474511085"><ele>5.0</ele><time>2026-04-18T12:40:46.001Z</time></trkpt><trkpt lat="42.252843984418305" lon="11.711378382172414"><ele>4.666666666666667</ele><time>2026-04-18T12:40:47.001Z</time></trkpt><trkpt lat="42.25289768981177" lon="11.71156267121091"><ele>4.333333333333333</ele><time>2026-04-18T12:40:48.001Z</time></trkpt><trkpt lat="42.25296004145069" lon="11.711757259388925"><ele>4.0</ele><time>2026-04-18T12:40:49.001Z</time></trkpt><trkpt lat="42.253027878035624" lon="11.711954497819114"><ele>3.75</ele><time>2026-04-18T12:40:50.001Z</time></trkpt><trkpt lat="42.25309264532775" lon="11.712134199044003"><ele>3.5</ele><time>2026-04-18T12:40:51.001Z</time></trkpt><trkpt lat="42.253156593111015" lon="11.712302228531705"><ele>3.25</ele><time>2026-04-18T12:40:52.001Z</time></trkpt><trkpt lat="42.25321497204036" lon="11.712461277048334"><ele>3.0</ele><time>2026-04-18T12:40:53.001Z</time></trkpt><trkpt lat="42.25326863760109" lon="11.712616244223447"><ele>3.75</ele><time>2026-04-18T12:40:54.001Z</time></trkpt><trkpt lat="42.25331426537402" lon="11.712776963252809"><ele>4.5</ele><time>2026-04-18T12:40:55.001Z</time></trkpt><trkpt lat="42.25335200723106" lon="11.712959464970641"><ele>5.25</ele><time>2026-04-18T12:40:56.001Z</time></trkpt><trkpt lat="42.253390786060834" lon="11.71316008548033"><ele>6.0</ele><time>2026-04-18T12:40:57.001Z</time></trkpt><trkpt lat="42.25342260147545" lon="11.713349511054686"><ele>6.0</ele><time>2026-04-18T12:40:58.001Z</time></trkpt><trkpt lat="42.25344046424958" lon="11.713526484818564"><ele>6.0</ele><time>2026-04-18T12:40:59.001Z</time></trkpt><trkpt lat="42.25344086647283" lon="11.713706089127347"><ele>6.0</ele><time>2026-04-18T12:41:00.001Z</time></trkpt><trkpt lat="42.253427264458125" lon="11.713894858008329"><ele>6.0</ele><time>2026-04-18T12:41:01.002Z</time></trkpt><trkpt lat="42.25341047223495" lon="11.714095057276502"><ele>6.25</ele><time>2026-04-18T12:41:02.002Z</time></trkpt><trkpt lat="42.25339252294492" lon="11.714295757872696"><ele>6.5</ele><time>2026-04-18T12:41:03.002Z</time></trkpt><trkpt lat="42.25336980888947" lon="11.714479277866934"><ele>6.75</ele><time>2026-04-18T12:41:04.002Z</time></trkpt><trkpt lat="42.25332869899518" lon="11.71464746335388"><ele>7.0</ele><time>2026-04-18T12:41:05.002Z</time></trkpt><trkpt lat="42.25327905796264" lon="11.714805314631988"><ele>7.25</ele><time>2026-04-18T12:41:06.002Z</time></trkpt><trkpt lat="42.253236668892725" lon="11.714972667359046"><ele>7.5</ele><time>2026-04-18T12:41:07.002Z</time></trkpt><trkpt lat="42.253218971851396" lon="11.715151973576372"><ele>7.75</ele><time>2026-04-18T12:41:08.002Z</time></trkpt><trkpt lat="42.25322757738991" lon="11.71533638658425"><ele>8.0</ele><time>2026-04-18T12:41:09.002Z</time></trkpt><trkpt lat="42.25326500548343" lon="11.71552366806243"><ele>8.0</ele><time>2026-04-18T12:41:10.002Z</time></trkpt><trkpt lat="42.253343052912065" lon="11.71573109597359"><ele>8.0</ele><time>2026-04-18T12:41:11.002Z</time></trkpt><trkpt lat="42.253424115436495" lon="11.715954006127722"><ele>8.0</ele><time>2026-04-18T12:41:12.002Z</time></trkpt><trkpt lat="42.25350667724248" lon="11.716183352363721"><ele>7.333333333333333</ele><time>2026-04-18T12:41:13.002Z</time></trkpt><trkpt lat="42.253592384683216" lon="11.716408390135953"><ele>6.666666666666666</ele><time>2026-04-18T12:41:14.002Z</time></trkpt><trkpt lat="42.25367262867832" lon="11.716624015823127"><ele>6.0</ele><time>2026-04-18T12:41:15.002Z</time></trkpt><trkpt lat="42.25374700622627" lon="11.716821242450267"><ele>6.0</ele><time>2026-04-18T12:41:16.002Z</time></trkpt><trkpt lat="42.25381733974346" lon="11.71701917118309"><ele>6.0</ele><time>2026-04-18T12:41:17.002Z</time></trkpt><trkpt lat="42.25386632458141" lon="11.717219037575097"><ele>6.0</ele><time>2026-04-18T12:41:18.002Z</time></trkpt><trkpt lat="42.253880359147765" lon="11.717423212923077"><ele>6.0</ele><time>2026-04-18T12:41:19Z</time></trkpt><trkpt lat="42.25387309785256" lon="11.717651970267724"><ele>6.0</ele><time>2026-04-18T12:41:20Z</time></trkpt><trkpt lat="42.25385322876141" lon="11.71790333146547"><ele>6.0</ele><time>2026-04-18T12:41:21Z</time></trkpt><trkpt lat="42.253830704535204" lon="11.718168849369492"><ele>6.333333333333334</ele><time>2026-04-18T12:41:22Z</time></trkpt><trkpt lat="42.253811971209664" lon="11.71844312941252"><ele>6.666666666666667</ele><time>2026-04-18T12:41:23Z</time></trkpt><trkpt lat="42.25379526423234" lon="11.718708875643301"><ele>7.0</ele><time>2026-04-18T12:41:24Z</time></trkpt><trkpt lat="42.25377514814017" lon="11.718990796301098"><ele>7.333333333333334</ele><time>2026-04-18T12:41:25Z</time></trkpt><trkpt lat="42.253752579014865" lon="11.719275663372471"><ele>7.666666666666666</ele><time>2026-04-18T12:41:26Z</time></trkpt><trkpt lat="42.253736339350446" lon="11.719534720554767"><ele>8.0</ele><time>2026-04-18T12:41:27Z</time></trkpt><trkpt lat="42.25372343200306" lon="11.719774267050267"><ele>8.0</ele><time>2026-04-18T12:41:28Z</time></trkpt><trkpt lat="42.25371038704223" lon="11.719998580765456"><ele>8.0</ele><time>2026-04-18T12:41:29Z</time></trkpt><trkpt lat="42.25369435716081" lon="11.72022589988075"><ele>8.0</ele><time>2026-04-18T12:41:30Z</time></trkpt><trkpt lat="42.25367709582579" lon="11.720442564268776"><ele>7.666666666666666</ele><time>2026-04-18T12:41:31Z</time></trkpt><trkpt lat="42.25365791427008" lon="11.720655000452235"><ele>7.333333333333334</ele><time>2026-04-18T12:41:32Z</time></trkpt><trkpt lat="42.25363876276859" lon="11.720852749987102"><ele>7.0</ele><time>2026-04-18T12:41:33Z</time></trkpt><trkpt lat="42.25362951487993" lon="11.721047427135856"><ele>6.5</ele><time>2026-04-18T12:41:34Z</time></trkpt><trkpt lat="42.2536464759183" lon="11.721234905250414"><ele>6.0</ele><time>2026-04-18T12:41:35Z</time></trkpt><trkpt lat="42.25367962036374" lon="11.721420377720827"><ele>5.5</ele><time>2026-04-18T12:41:36Z</time></trkpt><trkpt lat="42.25373436300444" lon="11.72160958350616"><ele>5.0</ele><time>2026-04-18T12:41:37Z</time></trkpt><trkpt lat="42.253814837536375" lon="11.721797182999532"><ele>4.75</ele><time>2026-04-18T12:41:38Z</time></trkpt><trkpt lat="42.25389750531712" lon="11.721977656745423"><ele>4.5</ele><time>2026-04-18T12:41:39Z</time></trkpt><trkpt lat="42.25395734075151" lon="11.722157934792039"><ele>4.25</ele><time>2026-04-18T12:41:40Z</time></trkpt><trkpt lat="42.253983671353126" lon="11.72234138626188"><ele>4.0</ele><time>2026-04-18T12:41:41Z</time></trkpt><trkpt lat="42.253989036458016" lon="11.722538107578005"><ele>4.666666666666666</ele><time>2026-04-18T12:41:42Z</time></trkpt><trkpt lat="42.25397859984157" lon="11.722735112539466"><ele>5.333333333333333</ele><time>2026-04-18T12:41:43Z</time></trkpt><trkpt lat="42.253953994032" lon="11.722942462021592"><ele>6.0</ele><time>2026-04-18T12:41:44Z</time></trkpt><trkpt lat="42.25392499024442" lon="11.72316736573733"><ele>6.0</ele><time>2026-04-18T12:41:45Z</time></trkpt><trkpt lat="42.25390159268114" lon="11.723409979603902"><ele>6.0</ele><time>2026-04-18T12:41:46Z</time></trkpt><trkpt lat="42.253881849982164" lon="11.723660639267235"><ele>6.0</ele><time>2026-04-18T12:41:47Z</time></trkpt><trkpt lat="42.25386404971064" lon="11.723913370523002"><ele>6.0</ele><time>2026-04-18T12:41:48Z</time></trkpt><trkpt lat="42.253845590571885" lon="11.724164002100894"><ele>6.0</ele><time>2026-04-18T12:41:49Z</time></trkpt><trkpt lat="42.25382779555932" lon="11.724404877351791"><ele>6.0</ele><time>2026-04-18T12:41:50Z</time></trkpt><trkpt lat="42.25381053056456" lon="11.724630577340404"><ele>6.333333333333334</ele><time>2026-04-18T12:41:51Z</time></trkpt><trkpt lat="42.25379216024595" lon="11.724857156543354"><ele>6.666666666666667</ele><time>2026-04-18T12:41:52Z</time></trkpt><trkpt lat="42.253770824853255" lon="11.725090292706836"><ele>7.0</ele><time>2026-04-18T12:41:53Z</time></trkpt><trkpt lat="42.25375208956543" lon="11.725328252902731"><ele>7.0</ele><time>2026-04-18T12:41:54Z</time></trkpt><trkpt lat="42.2537340061129" lon="11.725568674511113"><ele>7.0</ele><time>2026-04-18T12:41:55Z</time></trkpt><trkpt lat="42.253716593033154" lon="11.725809299198554"><ele>7.0</ele><time>2026-04-18T12:41:56Z</time></trkpt><trkpt lat="42.25369695027249" lon="11.726037865284589"><ele>7.333333333333334</ele><time>2026-04-18T12:41:57Z</time></trkpt><trkpt lat="42.253679643255545" lon="11.726260538452335"><ele>7.666666666666666</ele><time>2026-04-18T12:41:58Z</time></trkpt><trkpt lat="42.253660543072755" lon="11.72649497474807"><ele>8.0</ele><time>2026-04-18T12:41:59Z</time></trkpt><trkpt lat="42.253638297155305" lon="11.726722545947446"><ele>8.333333333333332</ele><time>2026-04-18T12:42:00Z</time></trkpt><trkpt lat="42.25362235592319" lon="11.72695480898139"><ele>8.666666666666666</ele><time>2026-04-18T12:42:01Z</time></trkpt><trkpt lat="42.25360237673208" lon="11.727192619027933"><ele>9.0</ele><time>2026-04-18T12:42:02Z</time></trkpt><trkpt lat="42.25358222590309" lon="11.727431774472155"><ele>9.0</ele><time>2026-04-18T12:42:03.001Z</time></trkpt><trkpt lat="42.25356837888477" lon="11.727669034609763"><ele>9.0</ele><time>2026-04-18T12:42:04.001Z</time></trkpt><trkpt lat="42.25355001661053" lon="11.72789816526495"><ele>9.0</ele><time>2026-04-18T12:42:05.001Z</time></trkpt><trkpt lat="42.25353345196957" lon="11.728107609115604"><ele>8.666666666666666</ele><time>2026-04-18T12:42:06.001Z</time></trkpt><trkpt lat="42.253518104915024" lon="11.72831302285691"><ele>8.333333333333332</ele><time>2026-04-18T12:42:07.001Z</time></trkpt><trkpt lat="42.25350242356429" lon="11.728515421450084"><ele>8.0</ele><time>2026-04-18T12:42:08.001Z</time></trkpt><trkpt lat="42.25348447713398" lon="11.728713722952403"><ele>8.5</ele><time>2026-04-18T12:42:09.001Z</time></trkpt><trkpt lat="42.25346671355398" lon="11.728906457430936"><ele>9.0</ele><time>2026-04-18T12:42:10.001Z</time></trkpt><trkpt lat="42.25344228255932" lon="11.729097665172239"><ele>9.5</ele><time>2026-04-18T12:42:11.001Z</time></trkpt><trkpt lat="42.253425653569884" lon="11.72929481888272"><ele>10.0</ele><time>2026-04-18T12:42:12.001Z</time></trkpt><trkpt lat="42.25341046032096" lon="11.729489498097783"><ele>10.0</ele><time>2026-04-18T12:42:13.001Z</time></trkpt><trkpt lat="42.25339361137048" lon="11.729671203989177"><ele>10.0</ele><time>2026-04-18T12:42:14.001Z</time></trkpt><trkpt lat="42.25338463599284" lon="11.729848957186238"><ele>10.0</ele><time>2026-04-18T12:42:15.001Z</time></trkpt><trkpt lat="42.25338087437804" lon="11.730017206760548"><ele>10.0</ele><time>2026-04-18T12:42:16.001Z</time></trkpt><trkpt lat="42.253392360720994" lon="11.73018127483427"><ele>10.25</ele><time>2026-04-18T12:42:17.001Z</time></trkpt><trkpt lat="42.25341753346766" lon="11.73034962800821"><ele>10.5</ele><time>2026-04-18T12:42:18.001Z</time></trkpt><trkpt lat="42.25346459975099" lon="11.730524641586008"><ele>10.75</ele><time>2026-04-18T12:42:19.001Z</time></trkpt><trkpt lat="42.25352987009279" lon="11.730712789554646"><ele>11.0</ele><time>2026-04-18T12:42:20.001Z</time></trkpt><trkpt lat="42.25360529779866" lon="11.730918208014224"><ele>11.666666666666666</ele><time>2026-04-18T12:42:21.001Z</time></trkpt><trkpt lat="42.25368831503815" lon="11.731155639229849"><ele>12.333333333333332</ele><time>2026-04-18T12:42:22.001Z</time></trkpt><trkpt lat="42.253797934338536" lon="11.731396586490265"><ele>13.0</ele><time>2026-04-18T12:42:23.001Z</time></trkpt><trkpt lat="42.25387726094128" lon="11.731603808123273"><ele>13.0</ele><time>2026-04-18T12:42:24.001Z</time></trkpt><trkpt lat="42.253948863508256" lon="11.731799536567662"><ele>13.0</ele><time>2026-04-18T12:42:25.001Z</time></trkpt><trkpt lat="42.25402141085992" lon="11.731998952487968"><ele>13.0</ele><time>2026-04-18T12:42:26.001Z</time></trkpt><trkpt lat="42.254095100619566" lon="11.732201287164921"><ele>12.333333333333332</ele><time>2026-04-18T12:42:27.001Z</time></trkpt><trkpt lat="42.25416897449703" lon="11.732408647144322"><ele>11.666666666666666</ele><time>2026-04-18T12:42:28.001Z</time></trkpt><trkpt lat="42.25424561397141" lon="11.732613796104419"><ele>11.0</ele><time>2026-04-18T12:42:29.001Z</time></trkpt><trkpt lat="42.25432071860585" lon="11.732817477130702"><ele>11.0</ele><time>2026-04-18T12:42:30.001Z</time></trkpt><trkpt lat="42.25439608037815" lon="11.733019882947255"><ele>11.0</ele><time>2026-04-18T12:42:31.001Z</time></trkpt><trkpt lat="42.2544668142028" lon="11.733226271717356"><ele>11.0</ele><time>2026-04-18T12:42:32.001Z</time></trkpt><trkpt lat="42.254532233750034" lon="11.733444680457254"><ele>10.333333333333332</ele><time>2026-04-18T12:42:33.001Z</time></trkpt><trkpt lat="42.25458980343811" lon="11.7336709076115"><ele>9.666666666666666</ele><time>2026-04-18T12:42:34.001Z</time></trkpt><trkpt lat="42.25464982750689" lon="11.73389962000948"><ele>9.0</ele><time>2026-04-18T12:42:35.001Z</time></trkpt><trkpt lat="42.25470511272549" lon="11.734121476217535"><ele>9.0</ele><time>2026-04-18T12:42:36.001Z</time></trkpt><trkpt lat="42.25476112393661" lon="11.734341332154756"><ele>9.0</ele><time>2026-04-18T12:42:37.001Z</time></trkpt><trkpt lat="42.25481901090481" lon="11.734566460702212"><ele>9.0</ele><time>2026-04-18T12:42:38.001Z</time></trkpt><trkpt lat="42.25487772963878" lon="11.734784244068852"><ele>9.0</ele><time>2026-04-18T12:42:39.001Z</time></trkpt><trkpt lat="42.25493357508129" lon="11.734991010388821"><ele>9.0</ele><time>2026-04-18T12:42:40.001Z</time></trkpt><trkpt lat="42.25499076741872" lon="11.73519850191454"><ele>9.0</ele><time>2026-04-18T12:42:41.001Z</time></trkpt><trkpt lat="42.2550466090787" lon="11.735412061041957"><ele>9.0</ele><time>2026-04-18T12:42:42.001Z</time></trkpt><trkpt lat="42.255100135503476" lon="11.735627887123627"><ele>9.0</ele><time>2026-04-18T12:42:43.001Z</time></trkpt><trkpt lat="42.25514478780109" lon="11.7358498462145"><ele>9.0</ele><time>2026-04-18T12:42:44.001Z</time></trkpt><trkpt lat="42.25518067607441" lon="11.73608857062918"><ele>9.0</ele><time>2026-04-18T12:42:45.001Z</time></trkpt><trkpt lat="42.25521395653642" lon="11.736321204907567"><ele>9.0</ele><time>2026-04-18T12:42:46.001Z</time></trkpt><trkpt lat="42.25524202432496" lon="11.73655479281017"><ele>9.0</ele><time>2026-04-18T12:42:47.001Z</time></trkpt><trkpt lat="42.255281802129" lon="11.736789375890082"><ele>9.333333333333334</ele><time>2026-04-18T12:42:48.001Z</time></trkpt><trkpt lat="42.25532336001058" lon="11.737028441589073"><ele>9.666666666666668</ele><time>2026-04-18T12:42:49.001Z</time></trkpt><trkpt lat="42.25535889093153" lon="11.737258626081804"><ele>10.0</ele><time>2026-04-18T12:42:50.001Z</time></trkpt><trkpt lat="42.2553925513099" lon="11.737474939581272"><ele>10.0</ele><time>2026-04-18T12:42:51.001Z</time></trkpt><trkpt lat="42.25542159980987" lon="11.737692137588883"><ele>10.0</ele><time>2026-04-18T12:42:52.001Z</time></trkpt><trkpt lat="42.255453687380644" lon="11.737915942061901"><ele>10.0</ele><time>2026-04-18T12:42:53.001Z</time></trkpt><trkpt lat="42.25548536708658" lon="11.73813847223918"><ele>9.666666666666668</ele><time>2026-04-18T12:42:54.001Z</time></trkpt><trkpt lat="42.25551878749705" lon="11.738355911130087"><ele>9.333333333333334</ele><time>2026-04-18T12:42:55.001Z</time></trkpt><trkpt lat="42.25556038755398" lon="11.738574116136707"><ele>9.0</ele><time>2026-04-18T12:42:56.001Z</time></trkpt><trkpt lat="42.25560071649872" lon="11.73877387794334"><ele>9.333333333333334</ele><time>2026-04-18T12:42:57.001Z</time></trkpt><trkpt lat="42.25565073523548" lon="11.738967117405073"><ele>9.666666666666668</ele><time>2026-04-18T12:42:58.001Z</time></trkpt><trkpt lat="42.255721468329696" lon="11.739159382503022"><ele>10.0</ele><time>2026-04-18T12:42:59.001Z</time></trkpt><trkpt lat="42.25581632229009" lon="11.739339399279034"><ele>10.333333333333334</ele><time>2026-04-18T12:43:00.001Z</time></trkpt><trkpt lat="42.25591856254339" lon="11.739517343918068"><ele>10.666666666666666</ele><time>2026-04-18T12:43:01.002Z</time></trkpt><trkpt lat="42.25602403169877" lon="11.739691924499597"><ele>11.0</ele><time>2026-04-18T12:43:02.002Z</time></trkpt><trkpt lat="42.25612447966038" lon="11.739868418373648"><ele>11.0</ele><time>2026-04-18T12:43:03.002Z</time></trkpt><trkpt lat="42.256226873030045" lon="11.740045208369423"><ele>11.0</ele><time>2026-04-18T12:43:04.002Z</time></trkpt><trkpt lat="42.25632829138756" lon="11.740219054394279"><ele>11.0</ele><time>2026-04-18T12:43:05.002Z</time></trkpt><trkpt lat="42.25642885151976" lon="11.740395108715965"><ele>11.333333333333332</ele><time>2026-04-18T12:43:06.002Z</time></trkpt><trkpt lat="42.25652616771068" lon="11.740572107709696"><ele>11.666666666666666</ele><time>2026-04-18T12:43:07.002Z</time></trkpt><trkpt lat="42.25662058681958" lon="11.740750963456232"><ele>12.0</ele><time>2026-04-18T12:43:08.002Z</time></trkpt><trkpt lat="42.256707561988904" lon="11.74091884962299"><ele>12.0</ele><time>2026-04-18T12:43:09.002Z</time></trkpt><trkpt lat="42.25678928148384" lon="11.741075034456175"><ele>12.0</ele><time>2026-04-18T12:43:10.002Z</time></trkpt><trkpt lat="42.25686343005217" lon="11.741209500440391"><ele>12.0</ele><time>2026-04-18T12:43:11.002Z</time></trkpt><trkpt lat="42.25694115102569" lon="11.741321830105212"><ele>12.0</ele><time>2026-04-18T12:43:12.002Z</time></trkpt><trkpt lat="42.25703570098887" lon="11.74139682533521"><ele>12.0</ele><time>2026-04-18T12:43:13.002Z</time></trkpt><trkpt lat="42.25714889568472" lon="11.741427138764221"><ele>12.0</ele><time>2026-04-18T12:43:14.002Z</time></trkpt><trkpt lat="42.25725601680415" lon="11.74142405727146"><ele>12.0</ele><time>2026-04-18T12:43:15.002Z</time></trkpt><trkpt lat="42.25733937464059" lon="11.741430758568296"><ele>12.0</ele><time>2026-04-18T12:43:16.002Z</time></trkpt><trkpt lat="42.257406439638196" lon="11.741488389016297"><ele>12.0</ele><time>2026-04-18T12:43:17.002Z</time></trkpt><trkpt lat="42.25745513191939" lon="11.74156557127685"><ele>12.0</ele><time>2026-04-18T12:43:18.002Z</time></trkpt><trkpt lat="42.257501493407375" lon="11.741666091107156"><ele>12.0</ele><time>2026-04-18T12:43:20.002Z</time></trkpt><trkpt lat="42.257464163416905" lon="11.741765232824571"><ele>12.0</ele><time>2026-04-18T12:43:21.002Z</time></trkpt><trkpt lat="42.25737071719915" lon="11.741923360841387"><ele>12.0</ele><time>2026-04-18T12:43:23.002Z</time></trkpt><trkpt lat="42.25731259967822" lon="11.742042254961282"><ele>12.0</ele><time>2026-04-18T12:43:24.002Z</time></trkpt><trkpt lat="42.25724058517489" lon="11.74218226631788"><ele>12.0</ele><time>2026-04-18T12:43:25Z</time></trkpt><trkpt lat="42.257153361171014" lon="11.742329737607879"><ele>12.0</ele><time>2026-04-18T12:43:26Z</time></trkpt><trkpt lat="42.25706133550858" lon="11.742470956865725"><ele>12.0</ele><time>2026-04-18T12:43:27Z</time></trkpt><trkpt lat="42.25695631717093" lon="11.742611617711141"><ele>12.0</ele><time>2026-04-18T12:43:28Z</time></trkpt><trkpt lat="42.25685047353603" lon="11.74275468597692"><ele>12.0</ele><time>2026-04-18T12:43:29Z</time></trkpt><trkpt lat="42.25675267485674" lon="11.742892501529102"><ele>12.0</ele><time>2026-04-18T12:43:30Z</time></trkpt><trkpt lat="42.25666258650008" lon="11.743020565480572"><ele>12.0</ele><time>2026-04-18T12:43:31Z</time></trkpt><trkpt lat="42.25657731863489" lon="11.743144768611657"><ele>12.0</ele><time>2026-04-18T12:43:32Z</time></trkpt><trkpt lat="42.256491973279424" lon="11.743263833114415"><ele>13.0</ele><time>2026-04-18T12:43:33Z</time></trkpt><trkpt lat="42.256408323982384" lon="11.743365419068105"><ele>14.0</ele><time>2026-04-18T12:43:34Z</time></trkpt><trkpt lat="42.25632037679182" lon="11.743463964462963"><ele>15.0</ele><time>2026-04-18T12:43:35Z</time></trkpt><trkpt lat="42.256236419649156" lon="11.743551849076962"><ele>16.0</ele><time>2026-04-18T12:43:36Z</time></trkpt><trkpt lat="42.25614810446994" lon="11.743635986115292"><ele>17.0</ele><time>2026-04-18T12:43:37Z</time></trkpt><trkpt lat="42.25605595123727" lon="11.743716462643699"><ele>18.2</ele><time>2026-04-18T12:43:38Z</time></trkpt><trkpt lat="42.25596565203693" lon="11.743795454359669"><ele>19.4</ele><time>2026-04-18T12:43:39Z</time></trkpt><trkpt lat="42.255873895144845" lon="11.74386196541651"><ele>20.599999999999998</ele><time>2026-04-18T12:43:40Z</time></trkpt><trkpt lat="42.25578944867375" lon="11.743915289557913"><ele>21.799999999999997</ele><time>2026-04-18T12:43:41Z</time></trkpt><trkpt lat="42.255721103394634" lon="11.743949787335893"><ele>23.0</ele><time>2026-04-18T12:43:42Z</time></trkpt><trkpt lat="42.255615965527994" lon="11.74398404974433"><ele>23.0</ele><time>2026-04-18T12:43:44Z</time></trkpt><trkpt lat="42.25564121068548" lon="11.744125313410132"><ele>23.0</ele><time>2026-04-18T12:43:47Z</time></trkpt><trkpt lat="42.25569496025996" lon="11.74427291151109"><ele>23.0</ele><time>2026-04-18T12:43:49Z</time></trkpt><trkpt lat="42.25574984098618" lon="11.74436645902418"><ele>23.0</ele><time>2026-04-18T12:43:50Z</time></trkpt><trkpt lat="42.25580566149646" lon="11.744469230821295"><ele>23.0</ele><time>2026-04-18T12:43:51Z</time></trkpt><trkpt lat="42.25585820404174" lon="11.7445845049984"><ele>23.0</ele><time>2026-04-18T12:43:52Z</time></trkpt><trkpt lat="42.2559238844098" lon="11.74470593555014"><ele>23.0</ele><time>2026-04-18T12:43:53Z</time></trkpt><trkpt lat="42.255994074700425" lon="11.744820024960307"><ele>23.0</ele><time>2026-04-18T12:43:54Z</time></trkpt><trkpt lat="42.256069417494516" lon="11.74492211509234"><ele>23.0</ele><time>2026-04-18T12:43:55Z</time></trkpt><trkpt lat="42.256154741013056" lon="11.745026107134981"><ele>23.0</ele><time>2026-04-18T12:43:56Z</time></trkpt><trkpt lat="42.25624374019428" lon="11.7451306739147"><ele>23.599999999999998</ele><time>2026-04-18T12:43:57Z</time></trkpt><trkpt lat="42.25632902517745" lon="11.745221812862676"><ele>24.2</ele><time>2026-04-18T12:43:58Z</time></trkpt><trkpt lat="42.25641343519121" lon="11.745312946946388"><ele>24.8</ele><time>2026-04-18T12:43:59Z</time></trkpt><trkpt lat="42.25650022014279" lon="11.745400328575382"><ele>25.4</ele><time>2026-04-18T12:44:00Z</time></trkpt><trkpt lat="42.25659334561484" lon="11.74547952482756"><ele>26.0</ele><time>2026-04-18T12:44:01Z</time></trkpt><trkpt lat="42.256688238304285" lon="11.745562534795607"><ele>26.0</ele><time>2026-04-18T12:44:02Z</time></trkpt><trkpt lat="42.256783273750735" lon="11.745640090266912"><ele>26.0</ele><time>2026-04-18T12:44:03Z</time></trkpt><trkpt lat="42.256877235506614" lon="11.745722773367149"><ele>26.0</ele><time>2026-04-18T12:44:04Z</time></trkpt><trkpt lat="42.25696582845345" lon="11.74580589632982"><ele>26.0</ele><time>2026-04-18T12:44:05Z</time></trkpt><trkpt lat="42.25705169180986" lon="11.745889167355715"><ele>26.0</ele><time>2026-04-18T12:44:06Z</time></trkpt><trkpt lat="42.257141808462144" lon="11.745982423618496"><ele>26.25</ele><time>2026-04-18T12:44:07Z</time></trkpt><trkpt lat="42.25723675525415" lon="11.746084217337678"><ele>26.5</ele><time>2026-04-18T12:44:08Z</time></trkpt><trkpt lat="42.257328572984605" lon="11.746190903150088"><ele>26.75</ele><time>2026-04-18T12:44:09Z</time></trkpt><trkpt lat="42.25741073128765" lon="11.746297596271075"><ele>27.0</ele><time>2026-04-18T12:44:10Z</time></trkpt><trkpt lat="42.25748796834472" lon="11.746402550398985"><ele>27.0</ele><time>2026-04-18T12:44:11Z</time></trkpt><trkpt lat="42.257565911127394" lon="11.74652198062249"><ele>27.0</ele><time>2026-04-18T12:44:12Z</time></trkpt><trkpt lat="42.25764728777521" lon="11.746644079121413"><ele>27.0</ele><time>2026-04-18T12:44:13Z</time></trkpt><trkpt lat="42.25772883567275" lon="11.74676916456068"><ele>27.0</ele><time>2026-04-18T12:44:14.001Z</time></trkpt><trkpt lat="42.25780193221701" lon="11.74688760650878"><ele>28.8</ele><time>2026-04-18T12:44:15.001Z</time></trkpt><trkpt lat="42.257860455110226" lon="11.747014211544531"><ele>30.6</ele><time>2026-04-18T12:44:16.001Z</time></trkpt><trkpt lat="42.257914590125054" lon="11.74713076981296"><ele>32.400000000000006</ele><time>2026-04-18T12:44:17.001Z</time></trkpt><trkpt lat="42.25797157197702" lon="11.747253664247964"><ele>34.2</ele><time>2026-04-18T12:44:18.001Z</time></trkpt><trkpt lat="42.25803104525676" lon="11.747392262987406"><ele>36.0</ele><time>2026-04-18T12:44:19.001Z</time></trkpt><trkpt lat="42.25808912033205" lon="11.74754476548759"><ele>34.0</ele><time>2026-04-18T12:44:20.001Z</time></trkpt><trkpt lat="42.25815104727852" lon="11.747704539517454"><ele>32.0</ele><time>2026-04-18T12:44:21.001Z</time></trkpt><trkpt lat="42.25820597900742" lon="11.747873839280787"><ele>30.0</ele><time>2026-04-18T12:44:22.001Z</time></trkpt><trkpt lat="42.25826484181444" lon="11.748041577392684"><ele>28.0</ele><time>2026-04-18T12:44:23.001Z</time></trkpt><trkpt lat="42.258321738714976" lon="11.74822502388256"><ele>28.0</ele><time>2026-04-18T12:44:24.001Z</time></trkpt><trkpt lat="42.258365579094615" lon="11.748418069924476"><ele>28.0</ele><time>2026-04-18T12:44:25.001Z</time></trkpt><trkpt lat="42.25841366388808" lon="11.748602490295248"><ele>28.0</ele><time>2026-04-18T12:44:26.001Z</time></trkpt><trkpt lat="42.2584652969882" lon="11.748787918806196"><ele>28.0</ele><time>2026-04-18T12:44:27.001Z</time></trkpt><trkpt lat="42.25851375218496" lon="11.748975734878794"><ele>28.0</ele><time>2026-04-18T12:44:28.001Z</time></trkpt><trkpt lat="42.25856161473634" lon="11.749160050887257"><ele>28.0</ele><time>2026-04-18T12:44:29.001Z</time></trkpt><trkpt lat="42.25860710691073" lon="11.749339854777038"><ele>28.0</ele><time>2026-04-18T12:44:30.001Z</time></trkpt><trkpt lat="42.258654939458836" lon="11.749522677654413"><ele>28.0</ele><time>2026-04-18T12:44:31.001Z</time></trkpt><trkpt lat="42.2587005803965" lon="11.749707192729906"><ele>28.0</ele><time>2026-04-18T12:44:32.001Z</time></trkpt><trkpt lat="42.25875004341109" lon="11.749902886446876"><ele>28.0</ele><time>2026-04-18T12:44:33.001Z</time></trkpt><trkpt lat="42.25880257589432" lon="11.750108704367737"><ele>28.0</ele><time>2026-04-18T12:44:34.001Z</time></trkpt><trkpt lat="42.258854431774246" lon="11.750312449604024"><ele>28.0</ele><time>2026-04-18T12:44:35.001Z</time></trkpt><trkpt lat="42.25890628458185" lon="11.750504466350643"><ele>28.0</ele><time>2026-04-18T12:44:36.001Z</time></trkpt><trkpt lat="42.25896006979782" lon="11.750697822289881"><ele>28.0</ele><time>2026-04-18T12:44:37.001Z</time></trkpt><trkpt lat="42.25901171852578" lon="11.750902166033635"><ele>25.333333333333336</ele><time>2026-04-18T12:44:38.001Z</time></trkpt><trkpt lat="42.25906737652677" lon="11.75109903582078"><ele>22.666666666666668</ele><time>2026-04-18T12:44:39.001Z</time></trkpt><trkpt lat="42.25911873304115" lon="11.751292149071004"><ele>20.0</ele><time>2026-04-18T12:44:40.001Z</time></trkpt><trkpt lat="42.25916604338928" lon="11.751479167755313"><ele>20.0</ele><time>2026-04-18T12:44:41.001Z</time></trkpt><trkpt lat="42.25921133383391" lon="11.751660793610268"><ele>20.0</ele><time>2026-04-18T12:44:42.001Z</time></trkpt><trkpt lat="42.259252766628606" lon="11.751836663169412"><ele>20.0</ele><time>2026-04-18T12:44:43.001Z</time></trkpt><trkpt lat="42.25929613589524" lon="11.752013842768314"><ele>20.0</ele><time>2026-04-18T12:44:44.001Z</time></trkpt><trkpt lat="42.259343925523055" lon="11.752191262951849"><ele>21.5</ele><time>2026-04-18T12:44:45.001Z</time></trkpt><trkpt lat="42.25939365991114" lon="11.752362547407627"><ele>23.0</ele><time>2026-04-18T12:44:46.001Z</time></trkpt><trkpt lat="42.25944918091775" lon="11.752525953587332"><ele>24.5</ele><time>2026-04-18T12:44:47.001Z</time></trkpt><trkpt lat="42.25952244600768" lon="11.752689072583701"><ele>26.0</ele><time>2026-04-18T12:44:48.001Z</time></trkpt><trkpt lat="42.25961441828358" lon="11.75284654061114"><ele>25.25</ele><time>2026-04-18T12:44:49.001Z</time></trkpt><trkpt lat="42.25970889575147" lon="11.753001763691616"><ele>24.5</ele><time>2026-04-18T12:44:50.001Z</time></trkpt><trkpt lat="42.25980191945499" lon="11.753163932309793"><ele>23.75</ele><time>2026-04-18T12:44:51.001Z</time></trkpt><trkpt lat="42.25989376773242" lon="11.753319107996969"><ele>23.0</ele><time>2026-04-18T12:44:52.001Z</time></trkpt><trkpt lat="42.259982401557764" lon="11.753469623560006"><ele>24.25</ele><time>2026-04-18T12:44:53.001Z</time></trkpt><trkpt lat="42.26007260912712" lon="11.753620975089074"><ele>25.5</ele><time>2026-04-18T12:44:54.001Z</time></trkpt><trkpt lat="42.260165348924296" lon="11.753780471029984"><ele>26.75</ele><time>2026-04-18T12:44:55.001Z</time></trkpt><trkpt lat="42.26026069224139" lon="11.753942800211847"><ele>28.0</ele><time>2026-04-18T12:44:56.001Z</time></trkpt><trkpt lat="42.260355653438204" lon="11.754104807577885"><ele>28.0</ele><time>2026-04-18T12:44:57.001Z</time></trkpt><trkpt lat="42.2604496844542" lon="11.754267821298788"><ele>28.0</ele><time>2026-04-18T12:44:58.001Z</time></trkpt><trkpt lat="42.26053888665976" lon="11.754423003905584"><ele>28.0</ele><time>2026-04-18T12:44:59.001Z</time></trkpt><trkpt lat="42.26062384121581" lon="11.754569322510552"><ele>28.0</ele><time>2026-04-18T12:45:00.001Z</time></trkpt><trkpt lat="42.260704000840846" lon="11.754711587127094"><ele>26.25</ele><time>2026-04-18T12:45:01.001Z</time></trkpt><trkpt lat="42.26077637424257" lon="11.754851633397221"><ele>24.5</ele><time>2026-04-18T12:45:02.001Z</time></trkpt><trkpt lat="42.260846364610444" lon="11.754999238380194"><ele>22.75</ele><time>2026-04-18T12:45:03.001Z</time></trkpt><trkpt lat="42.26091792247085" lon="11.755164340387084"><ele>21.0</ele><time>2026-04-18T12:45:04.001Z</time></trkpt><trkpt lat="42.26098008483497" lon="11.755341456179213"><ele>21.0</ele><time>2026-04-18T12:45:05.001Z</time></trkpt><trkpt lat="42.261037779085775" lon="11.755530802387359"><ele>21.0</ele><time>2026-04-18T12:45:06.001Z</time></trkpt><trkpt lat="42.261087320094674" lon="11.75572758470548"><ele>21.0</ele><time>2026-04-18T12:45:07.001Z</time></trkpt><trkpt lat="42.26112631619048" lon="11.755934981415372"><ele>21.333333333333332</ele><time>2026-04-18T12:45:08.002Z</time></trkpt><trkpt lat="42.26116063970198" lon="11.75614766834473"><ele>21.666666666666664</ele><time>2026-04-18T12:45:09.002Z</time></trkpt><trkpt lat="42.261182295134795" lon="11.756358354616511"><ele>22.0</ele><time>2026-04-18T12:45:10.002Z</time></trkpt><trkpt lat="42.26119903710626" lon="11.756569516521015"><ele>22.0</ele><time>2026-04-18T12:45:11.002Z</time></trkpt><trkpt lat="42.261206005862455" lon="11.756783991000523"><ele>22.0</ele><time>2026-04-18T12:45:12.002Z</time></trkpt><trkpt lat="42.26120168708573" lon="11.756994605633365"><ele>22.0</ele><time>2026-04-18T12:45:13.002Z</time></trkpt><trkpt lat="42.261189510197454" lon="11.75720548521584"><ele>22.0</ele><time>2026-04-18T12:45:14.002Z</time></trkpt><trkpt lat="42.26117609862005" lon="11.757415045176622"><ele>22.0</ele><time>2026-04-18T12:45:15.002Z</time></trkpt><trkpt lat="42.26116262919694" lon="11.757625857182585"><ele>22.0</ele><time>2026-04-18T12:45:16.002Z</time></trkpt><trkpt lat="42.2611524299748" lon="11.757835141101506"><ele>22.666666666666664</ele><time>2026-04-18T12:45:17.002Z</time></trkpt><trkpt lat="42.2611420334695" lon="11.758036073313916"><ele>23.333333333333332</ele><time>2026-04-18T12:45:18.002Z</time></trkpt><trkpt lat="42.26112963954878" lon="11.758242110456358"><ele>24.0</ele><time>2026-04-18T12:45:19.002Z</time></trkpt><trkpt lat="42.26111849961708" lon="11.758443906615748"><ele>24.0</ele><time>2026-04-18T12:45:20.002Z</time></trkpt><trkpt lat="42.26110876414166" lon="11.758653795487277"><ele>24.0</ele><time>2026-04-18T12:45:21.002Z</time></trkpt><trkpt lat="42.26109825839121" lon="11.758881118965027"><ele>24.0</ele><time>2026-04-18T12:45:22.002Z</time></trkpt><trkpt lat="42.261085018888956" lon="11.75912393750058"><ele>24.0</ele><time>2026-04-18T12:45:23.002Z</time></trkpt><trkpt lat="42.26106846298634" lon="11.759365027746622"><ele>24.0</ele><time>2026-04-18T12:45:24.002Z</time></trkpt><trkpt lat="42.26104874100591" lon="11.759589609079914"><ele>24.0</ele><time>2026-04-18T12:45:25.002Z</time></trkpt><trkpt lat="42.26103591863553" lon="11.759802569682885"><ele>22.666666666666668</ele><time>2026-04-18T12:45:26.002Z</time></trkpt><trkpt lat="42.26102734553775" lon="11.760009061736278"><ele>21.333333333333336</ele><time>2026-04-18T12:45:27.002Z</time></trkpt><trkpt lat="42.261017519008675" lon="11.760218979161529"><ele>20.0</ele><time>2026-04-18T12:45:28.002Z</time></trkpt><trkpt lat="42.26100587303844" lon="11.76042770264128"><ele>19.0</ele><time>2026-04-18T12:45:29.002Z</time></trkpt><trkpt lat="42.26099558429697" lon="11.760635316571495"><ele>18.0</ele><time>2026-04-18T12:45:30.002Z</time></trkpt><trkpt lat="42.26099020025338" lon="11.76084417170983"><ele>17.0</ele><time>2026-04-18T12:45:30.999Z</time></trkpt><trkpt lat="42.260978392808845" lon="11.761043160336953"><ele>16.75</ele><time>2026-04-18T12:45:31.999Z</time></trkpt><trkpt lat="42.26096141358032" lon="11.761233022200708"><ele>16.5</ele><time>2026-04-18T12:45:32.999Z</time></trkpt><trkpt lat="42.26093873695157" lon="11.761427869859075"><ele>16.25</ele><time>2026-04-18T12:45:33.999Z</time></trkpt><trkpt lat="42.26089949222961" lon="11.76162575096772"><ele>16.0</ele><time>2026-04-18T12:45:34.999Z</time></trkpt><trkpt lat="42.260853251355755" lon="11.76181112406016"><ele>16.5</ele><time>2026-04-18T12:45:35.999Z</time></trkpt><trkpt lat="42.260809113142976" lon="11.761991642021533"><ele>17.0</ele><time>2026-04-18T12:45:36.999Z</time></trkpt><trkpt lat="42.26076806040762" lon="11.762169149326118"><ele>17.5</ele><time>2026-04-18T12:45:37.999Z</time></trkpt><trkpt lat="42.260724867409714" lon="11.7623455017395"><ele>18.0</ele><time>2026-04-18T12:45:38.999Z</time></trkpt><trkpt lat="42.26069109459665" lon="11.762528095465617"><ele>17.5</ele><time>2026-04-18T12:45:39.999Z</time></trkpt><trkpt lat="42.26066454924497" lon="11.762720161884218"><ele>17.0</ele><time>2026-04-18T12:45:40.999Z</time></trkpt><trkpt lat="42.26064605482601" lon="11.762919796728285"><ele>16.5</ele><time>2026-04-18T12:45:41.999Z</time></trkpt><trkpt lat="42.2606398644547" lon="11.76312046578576"><ele>16.0</ele><time>2026-04-18T12:45:42.999Z</time></trkpt><trkpt lat="42.26064431838319" lon="11.763322097516712"><ele>15.666666666666666</ele><time>2026-04-18T12:45:44Z</time></trkpt><trkpt lat="42.260652194145045" lon="11.763531462248142"><ele>15.333333333333332</ele><time>2026-04-18T12:45:45Z</time></trkpt><trkpt lat="42.26065818366614" lon="11.763739428525772"><ele>15.0</ele><time>2026-04-18T12:45:46Z</time></trkpt><trkpt lat="42.26066201421416" lon="11.763935921981881"><ele>15.0</ele><time>2026-04-18T12:45:47Z</time></trkpt><trkpt lat="42.260665809822164" lon="11.764120546520637"><ele>15.0</ele><time>2026-04-18T12:45:48Z</time></trkpt><trkpt lat="42.260669949068586" lon="11.764300965056067"><ele>15.0</ele><time>2026-04-18T12:45:49Z</time></trkpt><trkpt lat="42.26067363883868" lon="11.764484510591913"><ele>15.0</ele><time>2026-04-18T12:45:50Z</time></trkpt><trkpt lat="42.26067709825745" lon="11.764679220368029"><ele>15.8</ele><time>2026-04-18T12:45:51Z</time></trkpt><trkpt lat="42.26067803178217" lon="11.764856544973739"><ele>16.6</ele><time>2026-04-18T12:45:52Z</time></trkpt><trkpt lat="42.26068360900494" lon="11.76500785554739"><ele>17.4</ele><time>2026-04-18T12:45:53Z</time></trkpt><trkpt lat="42.26068659869701" lon="11.76513191263039"><ele>18.2</ele><time>2026-04-18T12:45:54Z</time></trkpt><trkpt lat="42.26068942822451" lon="11.765229077946014"><ele>19.0</ele><time>2026-04-18T12:45:55Z</time></trkpt><trkpt lat="42.26073070146264" lon="11.765357225276093"><ele>19.5</ele><time>2026-04-18T12:45:57Z</time></trkpt><trkpt lat="42.2607883031668" lon="11.765421867175801"><ele>20.0</ele><time>2026-04-18T12:45:58Z</time></trkpt><trkpt lat="42.26087658573193" lon="11.765491777722092"><ele>20.5</ele><time>2026-04-18T12:45:59Z</time></trkpt><trkpt lat="42.26098929162268" lon="11.765572817338644"><ele>21.0</ele><time>2026-04-18T12:46:00Z</time></trkpt><trkpt lat="42.26112330770082" lon="11.765677537764807"><ele>21.0</ele><time>2026-04-18T12:46:01Z</time></trkpt><trkpt lat="42.26126964108795" lon="11.765798340081128"><ele>21.0</ele><time>2026-04-18T12:46:02Z</time></trkpt><trkpt lat="42.261418810469586" lon="11.765930483390248"><ele>21.0</ele><time>2026-04-18T12:46:03Z</time></trkpt><trkpt lat="42.26159173437686" lon="11.766086174714948"><ele>19.5</ele><time>2026-04-18T12:46:04Z</time></trkpt><trkpt lat="42.26178392161862" lon="11.766260827634314"><ele>18.0</ele><time>2026-04-18T12:46:05Z</time></trkpt><trkpt lat="42.261970400126046" lon="11.766429828929407"><ele>18.0</ele><time>2026-04-18T12:46:06Z</time></trkpt><trkpt lat="42.26212925000906" lon="11.766573263554186"><ele>18.0</ele><time>2026-04-18T12:46:07Z</time></trkpt><trkpt lat="42.26227601062279" lon="11.76671210995998"><ele>18.0</ele><time>2026-04-18T12:46:08Z</time></trkpt><trkpt lat="42.262405978528044" lon="11.766856137675676"><ele>17.666666666666668</ele><time>2026-04-18T12:46:09Z</time></trkpt><trkpt lat="42.26253301677241" lon="11.767013566611773"><ele>17.333333333333336</ele><time>2026-04-18T12:46:10Z</time></trkpt><trkpt lat="42.26266462355483" lon="11.767183535967384"><ele>17.0</ele><time>2026-04-18T12:46:11Z</time></trkpt><trkpt lat="42.262791973288294" lon="11.767358340204535"><ele>17.0</ele><time>2026-04-18T12:46:12Z</time></trkpt><trkpt lat="42.26290866111436" lon="11.767523275459872"><ele>17.0</ele><time>2026-04-18T12:46:13Z</time></trkpt><trkpt lat="42.26302635291141" lon="11.767686865864858"><ele>17.0</ele><time>2026-04-18T12:46:14Z</time></trkpt><trkpt lat="42.26314335131023" lon="11.767849609743793"><ele>17.333333333333336</ele><time>2026-04-18T12:46:15Z</time></trkpt><trkpt lat="42.2632620873852" lon="11.768014526515561"><ele>17.666666666666668</ele><time>2026-04-18T12:46:16Z</time></trkpt><trkpt lat="42.26337834605954" lon="11.768168363034588"><ele>18.0</ele><time>2026-04-18T12:46:17Z</time></trkpt><trkpt lat="42.263495753624944" lon="11.768330206294785"><ele>18.0</ele><time>2026-04-18T12:46:18Z</time></trkpt><trkpt lat="42.26361656130702" lon="11.768498844515594"><ele>18.0</ele><time>2026-04-18T12:46:19Z</time></trkpt><trkpt lat="42.26373662120145" lon="11.76866203360484"><ele>18.0</ele><time>2026-04-18T12:46:20Z</time></trkpt><trkpt lat="42.26385553499863" lon="11.768827823328323"><ele>18.666666666666668</ele><time>2026-04-18T12:46:21Z</time></trkpt><trkpt lat="42.26398017735498" lon="11.768996503669968"><ele>19.333333333333336</ele><time>2026-04-18T12:46:22.001Z</time></trkpt><trkpt lat="42.2641047824034" lon="11.769162242072316"><ele>20.0</ele><time>2026-04-18T12:46:23.001Z</time></trkpt><trkpt lat="42.264221583141385" lon="11.76931968765065"><ele>20.333333333333336</ele><time>2026-04-18T12:46:24.001Z</time></trkpt><trkpt lat="42.26433371514694" lon="11.769475709554596"><ele>20.666666666666668</ele><time>2026-04-18T12:46:25.001Z</time></trkpt><trkpt lat="42.26444576186198" lon="11.769633314079195"><ele>21.0</ele><time>2026-04-18T12:46:26.001Z</time></trkpt><trkpt lat="42.264557725839246" lon="11.769791669422874"><ele>21.0</ele><time>2026-04-18T12:46:27.001Z</time></trkpt><trkpt lat="42.26466824951442" lon="11.769941669684513"><ele>21.0</ele><time>2026-04-18T12:46:28.001Z</time></trkpt><trkpt lat="42.26478231405913" lon="11.770099171625263"><ele>21.0</ele><time>2026-04-18T12:46:29.001Z</time></trkpt><trkpt lat="42.264891402160664" lon="11.77024618457231"><ele>21.0</ele><time>2026-04-18T12:46:30.001Z</time></trkpt><trkpt lat="42.26499401803153" lon="11.770379425966011"><ele>21.0</ele><time>2026-04-18T12:46:31.001Z</time></trkpt><trkpt lat="42.26509784857432" lon="11.770522205359145"><ele>21.0</ele><time>2026-04-18T12:46:32.001Z</time></trkpt><trkpt lat="42.26520747184532" lon="11.770673144287924"><ele>21.0</ele><time>2026-04-18T12:46:33.001Z</time></trkpt><trkpt lat="42.2653130055082" lon="11.770826184473734"><ele>21.0</ele><time>2026-04-18T12:46:34.001Z</time></trkpt><trkpt lat="42.265417336005584" lon="11.77096739359925"><ele>21.0</ele><time>2026-04-18T12:46:35.001Z</time></trkpt><trkpt lat="42.265517570168164" lon="11.77110458970241"><ele>21.0</ele><time>2026-04-18T12:46:36.001Z</time></trkpt><trkpt lat="42.2656112767258" lon="11.771238571128588"><ele>21.0</ele><time>2026-04-18T12:46:37.001Z</time></trkpt><trkpt lat="42.26570368952492" lon="11.771369225681452"><ele>20.5</ele><time>2026-04-18T12:46:38.001Z</time></trkpt><trkpt lat="42.26579588680866" lon="11.771505589433358"><ele>20.0</ele><time>2026-04-18T12:46:39.001Z</time></trkpt><trkpt lat="42.26588483958494" lon="11.77164975985295"><ele>19.5</ele><time>2026-04-18T12:46:40.001Z</time></trkpt><trkpt lat="42.26597056171925" lon="11.771796246678267"><ele>19.0</ele><time>2026-04-18T12:46:41.001Z</time></trkpt><trkpt lat="42.2660462344481" lon="11.77193252310121"><ele>19.0</ele><time>2026-04-18T12:46:42.001Z</time></trkpt><trkpt lat="42.26611287572185" lon="11.77206690948968"><ele>19.0</ele><time>2026-04-18T12:46:43.001Z</time></trkpt><trkpt lat="42.2661728378276" lon="11.772194173120983"><ele>19.0</ele><time>2026-04-18T12:46:44.001Z</time></trkpt><trkpt lat="42.266228842972" lon="11.77230289329732"><ele>19.0</ele><time>2026-04-18T12:46:45.001Z</time></trkpt><trkpt lat="42.26628609002092" lon="11.772380358163282"><ele>19.0</ele><time>2026-04-18T12:46:46.001Z</time></trkpt><trkpt lat="42.26636007181441" lon="11.772423802687346"><ele>19.0</ele><time>2026-04-18T12:46:47.001Z</time></trkpt><trkpt lat="42.266435561828814" lon="11.77245797976694"><ele>19.0</ele><time>2026-04-18T12:46:48.001Z</time></trkpt><trkpt lat="42.26653662638301" lon="11.77241435043149"><ele>19.0</ele><time>2026-04-18T12:46:49.001Z</time></trkpt><trkpt lat="42.266626400663334" lon="11.772307539774966"><ele>19.0</ele><time>2026-04-18T12:46:50.001Z</time></trkpt><trkpt lat="42.26674116818424" lon="11.772227085910984"><ele>19.0</ele><time>2026-04-18T12:46:51.001Z</time></trkpt><trkpt lat="42.266837469979286" lon="11.772139288470258"><ele>19.25</ele><time>2026-04-18T12:46:52.001Z</time></trkpt><trkpt lat="42.26692612129057" lon="11.772071333256205"><ele>19.5</ele><time>2026-04-18T12:46:53.001Z</time></trkpt><trkpt lat="42.26702361869625" lon="11.772026821193151"><ele>19.75</ele><time>2026-04-18T12:46:54.001Z</time></trkpt><trkpt lat="42.26713500518382" lon="11.772034429631592"><ele>20.0</ele><time>2026-04-18T12:46:55.001Z</time></trkpt><trkpt lat="42.267277546505284" lon="11.77206624266605"><ele>19.333333333333336</ele><time>2026-04-18T12:46:56.001Z</time></trkpt><trkpt lat="42.26744767489423" lon="11.77210725285552"><ele>18.666666666666668</ele><time>2026-04-18T12:46:57.001Z</time></trkpt><trkpt lat="42.26762661799742" lon="11.772148801891188"><ele>18.0</ele><time>2026-04-18T12:46:58.001Z</time></trkpt><trkpt lat="42.26782162298586" lon="11.77218652905549"><ele>18.0</ele><time>2026-04-18T12:46:59.001Z</time></trkpt><trkpt lat="42.26801529842007" lon="11.772226075120413"><ele>18.0</ele><time>2026-04-18T12:47:00.001Z</time></trkpt><trkpt lat="42.268207678848505" lon="11.772270049899719"><ele>18.0</ele><time>2026-04-18T12:47:01.001Z</time></trkpt><trkpt lat="42.268404352198" lon="11.772317983061292"><ele>18.0</ele><time>2026-04-18T12:47:02.001Z</time></trkpt><trkpt lat="42.268598070412246" lon="11.772364791585591"><ele>18.0</ele><time>2026-04-18T12:47:03.001Z</time></trkpt><trkpt lat="42.26878740747264" lon="11.772408001724974"><ele>18.0</ele><time>2026-04-18T12:47:04.001Z</time></trkpt><trkpt lat="42.268968732193585" lon="11.77244771842038"><ele>18.0</ele><time>2026-04-18T12:47:05.001Z</time></trkpt><trkpt lat="42.26914513281661" lon="11.77250031954613"><ele>18.0</ele><time>2026-04-18T12:47:06.001Z</time></trkpt><trkpt lat="42.26932412837381" lon="11.772542196127525"><ele>18.0</ele><time>2026-04-18T12:47:07.001Z</time></trkpt><trkpt lat="42.269497757660794" lon="11.77258270095833"><ele>18.0</ele><time>2026-04-18T12:47:08.001Z</time></trkpt><trkpt lat="42.26967193870242" lon="11.772603887920926"><ele>18.0</ele><time>2026-04-18T12:47:09.001Z</time></trkpt><trkpt lat="42.269845109292014" lon="11.772644043106657"><ele>18.0</ele><time>2026-04-18T12:47:10.001Z</time></trkpt><trkpt lat="42.270020723218735" lon="11.772684488915273"><ele>18.333333333333332</ele><time>2026-04-18T12:47:11.002Z</time></trkpt><trkpt lat="42.270195775247885" lon="11.772721474703744"><ele>18.666666666666664</ele><time>2026-04-18T12:47:12.002Z</time></trkpt><trkpt lat="42.270366054491035" lon="11.772760140072368"><ele>19.0</ele><time>2026-04-18T12:47:13.002Z</time></trkpt><trkpt lat="42.27053838964688" lon="11.772806380345903"><ele>19.333333333333332</ele><time>2026-04-18T12:47:14.002Z</time></trkpt><trkpt lat="42.27071411131681" lon="11.772850005946252"><ele>19.666666666666668</ele><time>2026-04-18T12:47:15.002Z</time></trkpt><trkpt lat="42.27088776737948" lon="11.772888591796802"><ele>20.0</ele><time>2026-04-18T12:47:16.002Z</time></trkpt><trkpt lat="42.27106508297469" lon="11.772927454763067"><ele>20.0</ele><time>2026-04-18T12:47:17.002Z</time></trkpt><trkpt lat="42.27123632258234" lon="11.772967681673842"><ele>20.0</ele><time>2026-04-18T12:47:18.002Z</time></trkpt><trkpt lat="42.2714049884245" lon="11.773007177776883"><ele>20.0</ele><time>2026-04-18T12:47:19.002Z</time></trkpt><trkpt lat="42.271574565219694" lon="11.773048141484256"><ele>19.666666666666668</ele><time>2026-04-18T12:47:20.002Z</time></trkpt><trkpt lat="42.27174115789748" lon="11.77308731255936"><ele>19.333333333333332</ele><time>2026-04-18T12:47:21.002Z</time></trkpt><trkpt lat="42.271900049856335" lon="11.773122346929691"><ele>19.0</ele><time>2026-04-18T12:47:22.002Z</time></trkpt><trkpt lat="42.27206154998658" lon="11.773155452517685"><ele>19.0</ele><time>2026-04-18T12:47:23.002Z</time></trkpt><trkpt lat="42.27221734003669" lon="11.773191482510246"><ele>19.0</ele><time>2026-04-18T12:47:24.002Z</time></trkpt><trkpt lat="42.27237711571254" lon="11.773225926491804"><ele>19.0</ele><time>2026-04-18T12:47:25.002Z</time></trkpt><trkpt lat="42.27253364855766" lon="11.773261054707394"><ele>19.0</ele><time>2026-04-18T12:47:26.002Z</time></trkpt><trkpt lat="42.272687393038055" lon="11.773294504977525"><ele>19.0</ele><time>2026-04-18T12:47:27.002Z</time></trkpt><trkpt lat="42.27283863119458" lon="11.773329119876417"><ele>19.0</ele><time>2026-04-18T12:47:28.002Z</time></trkpt><trkpt lat="42.27298873024948" lon="11.773364626058038"><ele>18.333333333333332</ele><time>2026-04-18T12:47:29.002Z</time></trkpt><trkpt lat="42.27314534434966" lon="11.773402026840984"><ele>17.666666666666668</ele><time>2026-04-18T12:47:30.002Z</time></trkpt><trkpt lat="42.27330456219315" lon="11.773437018799644"><ele>17.0</ele><time>2026-04-18T12:47:31.002Z</time></trkpt><trkpt lat="42.27346908768677" lon="11.7734739341251"><ele>17.0</ele><time>2026-04-18T12:47:32.002Z</time></trkpt><trkpt lat="42.27363085310425" lon="11.773511828938656"><ele>17.0</ele><time>2026-04-18T12:47:33.002Z</time></trkpt><trkpt lat="42.27378873528572" lon="11.773547275372938"><ele>17.0</ele><time>2026-04-18T12:47:34.002Z</time></trkpt><trkpt lat="42.27394583462549" lon="11.773584298224536"><ele>17.666666666666668</ele><time>2026-04-18T12:47:35.002Z</time></trkpt><trkpt lat="42.274103534059854" lon="11.773617519758027"><ele>18.333333333333332</ele><time>2026-04-18T12:47:36.002Z</time></trkpt><trkpt lat="42.27426463919745" lon="11.773655123375827"><ele>19.0</ele><time>2026-04-18T12:47:36.999Z</time></trkpt><trkpt lat="42.27442496409394" lon="11.77369189088728"><ele>19.0</ele><time>2026-04-18T12:47:37.999Z</time></trkpt><trkpt lat="42.274585773626214" lon="11.77372926784376"><ele>19.0</ele><time>2026-04-18T12:47:38.999Z</time></trkpt><trkpt lat="42.27474650151967" lon="11.77376676611734"><ele>19.0</ele><time>2026-04-18T12:47:39.999Z</time></trkpt><trkpt lat="42.274904691560344" lon="11.773803385124257"><ele>19.666666666666664</ele><time>2026-04-18T12:47:40.999Z</time></trkpt><trkpt lat="42.27506329647582" lon="11.773840580769612"><ele>20.333333333333332</ele><time>2026-04-18T12:47:41.999Z</time></trkpt><trkpt lat="42.27522419808736" lon="11.773878935286524"><ele>21.0</ele><time>2026-04-18T12:47:42.999Z</time></trkpt><trkpt lat="42.27538980935498" lon="11.773916041752596"><ele>21.0</ele><time>2026-04-18T12:47:43.999Z</time></trkpt><trkpt lat="42.27554681134737" lon="11.773943673422465"><ele>21.0</ele><time>2026-04-18T12:47:44.999Z</time></trkpt><trkpt lat="42.27569858312163" lon="11.773971754836255"><ele>21.0</ele><time>2026-04-18T12:47:45.999Z</time></trkpt><trkpt lat="42.275840765552864" lon="11.773999308300468"><ele>21.0</ele><time>2026-04-18T12:47:46.999Z</time></trkpt><trkpt lat="42.275976192623226" lon="11.774033815933837"><ele>21.0</ele><time>2026-04-18T12:47:47.999Z</time></trkpt><trkpt lat="42.276101505992216" lon="11.774072312127672"><ele>21.0</ele><time>2026-04-18T12:47:48.999Z</time></trkpt><trkpt lat="42.27622228618719" lon="11.77411579737158"><ele>21.0</ele><time>2026-04-18T12:47:49.999Z</time></trkpt><trkpt lat="42.27634335572777" lon="11.774157759399515"><ele>21.0</ele><time>2026-04-18T12:47:50.999Z</time></trkpt><trkpt lat="42.276472700898346" lon="11.774207368780093"><ele>21.0</ele><time>2026-04-18T12:47:51.999Z</time></trkpt><trkpt lat="42.27661371820581" lon="11.774294932572856"><ele>21.0</ele><time>2026-04-18T12:47:52.999Z</time></trkpt><trkpt lat="42.27676041704416" lon="11.774413972816225"><ele>21.0</ele><time>2026-04-18T12:47:53.999Z</time></trkpt><trkpt lat="42.27690106350085" lon="11.774537398046387"><ele>21.0</ele><time>2026-04-18T12:47:55Z</time></trkpt><trkpt lat="42.27704291114202" lon="11.774670244768846"><ele>21.0</ele><time>2026-04-18T12:47:56Z</time></trkpt><trkpt lat="42.27718167567089" lon="11.774802469095714"><ele>20.333333333333332</ele><time>2026-04-18T12:47:57Z</time></trkpt><trkpt lat="42.27731174225401" lon="11.77492415869306"><ele>19.666666666666664</ele><time>2026-04-18T12:47:58Z</time></trkpt><trkpt lat="42.277447118463265" lon="11.775051778895223"><ele>19.0</ele><time>2026-04-18T12:47:59Z</time></trkpt><trkpt lat="42.27759116176928" lon="11.77518755430185"><ele>19.0</ele><time>2026-04-18T12:48:00Z</time></trkpt><trkpt lat="42.27773917497123" lon="11.775326665525194"><ele>19.0</ele><time>2026-04-18T12:48:01Z</time></trkpt><trkpt lat="42.27788825616025" lon="11.775465865398672"><ele>19.0</ele><time>2026-04-18T12:48:02Z</time></trkpt><trkpt lat="42.27803577974028" lon="11.77559974240633"><ele>19.0</ele><time>2026-04-18T12:48:03Z</time></trkpt><trkpt lat="42.27818058472399" lon="11.77573606521303"><ele>19.0</ele><time>2026-04-18T12:48:04Z</time></trkpt><trkpt lat="42.278317176449825" lon="11.775869587465303"><ele>19.0</ele><time>2026-04-18T12:48:05Z</time></trkpt><trkpt lat="42.27845754894778" lon="11.77600313299652"><ele>19.333333333333332</ele><time>2026-04-18T12:48:06Z</time></trkpt><trkpt lat="42.278599078207804" lon="11.77613318014247"><ele>19.666666666666668</ele><time>2026-04-18T12:48:07Z</time></trkpt><trkpt lat="42.27873687186998" lon="11.776265455177407"><ele>20.0</ele><time>2026-04-18T12:48:08Z</time></trkpt><trkpt lat="42.278872612627715" lon="11.77639451893395"><ele>20.333333333333336</ele><time>2026-04-18T12:48:09Z</time></trkpt><trkpt lat="42.27901229190731" lon="11.776520213468546"><ele>20.666666666666668</ele><time>2026-04-18T12:48:10Z</time></trkpt><trkpt lat="42.279151823063984" lon="11.77665067162169"><ele>21.0</ele><time>2026-04-18T12:48:11Z</time></trkpt><trkpt lat="42.27928875674214" lon="11.776781113628756"><ele>21.333333333333332</ele><time>2026-04-18T12:48:12Z</time></trkpt><trkpt lat="42.279424468884166" lon="11.776912036798505"><ele>21.666666666666664</ele><time>2026-04-18T12:48:13Z</time></trkpt><trkpt lat="42.279560411221055" lon="11.777045347862122"><ele>22.0</ele><time>2026-04-18T12:48:14Z</time></trkpt><trkpt lat="42.27970066638015" lon="11.777177700872066"><ele>22.0</ele><time>2026-04-18T12:48:15Z</time></trkpt><trkpt lat="42.27984335183678" lon="11.777307961641837"><ele>22.0</ele><time>2026-04-18T12:48:16Z</time></trkpt><trkpt lat="42.27998210286305" lon="11.777438295743028"><ele>22.0</ele><time>2026-04-18T12:48:17Z</time></trkpt><trkpt lat="42.28011865671182" lon="11.777570402269397"><ele>24.0</ele><time>2026-04-18T12:48:18Z</time></trkpt><trkpt lat="42.28025291926896" lon="11.777696688090536"><ele>26.0</ele><time>2026-04-18T12:48:19Z</time></trkpt><trkpt lat="42.28038411474038" lon="11.777820572872807"><ele>28.0</ele><time>2026-04-18T12:48:20Z</time></trkpt><trkpt lat="42.2805153090385" lon="11.777949906615925"><ele>26.666666666666668</ele><time>2026-04-18T12:48:21Z</time></trkpt><trkpt lat="42.28064252835509" lon="11.778079537334536"><ele>25.333333333333336</ele><time>2026-04-18T12:48:22Z</time></trkpt><trkpt lat="42.2807684714729" lon="11.778213088428712"><ele>24.0</ele><time>2026-04-18T12:48:23Z</time></trkpt><trkpt lat="42.28089094791243" lon="11.778347407180663"><ele>24.0</ele><time>2026-04-18T12:48:24Z</time></trkpt><trkpt lat="42.28100863836681" lon="11.77848235789772"><ele>24.0</ele><time>2026-04-18T12:48:25Z</time></trkpt><trkpt lat="42.28112379446724" lon="11.77861317899427"><ele>24.0</ele><time>2026-04-18T12:48:26Z</time></trkpt><trkpt lat="42.28123786720808" lon="11.778742671435724"><ele>23.75</ele><time>2026-04-18T12:48:27Z</time></trkpt><trkpt lat="42.28134063225805" lon="11.778880234423921"><ele>23.5</ele><time>2026-04-18T12:48:28.001Z</time></trkpt><trkpt lat="42.28143455920236" lon="11.779028587041072"><ele>23.25</ele><time>2026-04-18T12:48:29.001Z</time></trkpt><trkpt lat="42.281520002053355" lon="11.779197438293437"><ele>23.0</ele><time>2026-04-18T12:48:30.001Z</time></trkpt><trkpt lat="42.28161811389155" lon="11.779367018449284"><ele>23.75</ele><time>2026-04-18T12:48:31.001Z</time></trkpt><trkpt lat="42.28168704138743" lon="11.779543345727266"><ele>24.5</ele><time>2026-04-18T12:48:32.001Z</time></trkpt><trkpt lat="42.28173938215419" lon="11.77972129871004"><ele>25.25</ele><time>2026-04-18T12:48:33.001Z</time></trkpt><trkpt lat="42.28180146743396" lon="11.779902195276124"><ele>26.0</ele><time>2026-04-18T12:48:34.001Z</time></trkpt><trkpt lat="42.28185389270269" lon="11.780091334293845"><ele>27.0</ele><time>2026-04-18T12:48:35.001Z</time></trkpt><trkpt lat="42.28189219699183" lon="11.78028929273968"><ele>28.0</ele><time>2026-04-18T12:48:36.001Z</time></trkpt><trkpt lat="42.28192236090924" lon="11.780491232463085"><ele>29.0</ele><time>2026-04-18T12:48:37.001Z</time></trkpt><trkpt lat="42.28195008405152" lon="11.780693403467962"><ele>29.0</ele><time>2026-04-18T12:48:38.001Z</time></trkpt><trkpt lat="42.28197372481625" lon="11.780898974800463"><ele>29.0</ele><time>2026-04-18T12:48:39.001Z</time></trkpt><trkpt lat="42.28199385985551" lon="11.781106278071375"><ele>29.0</ele><time>2026-04-18T12:48:40.001Z</time></trkpt><trkpt lat="42.2820099902596" lon="11.781309866033759"><ele>29.0</ele><time>2026-04-18T12:48:41.001Z</time></trkpt><trkpt lat="42.28202326276845" lon="11.781519177768683"><ele>29.0</ele><time>2026-04-18T12:48:42.001Z</time></trkpt><trkpt lat="42.28202526074342" lon="11.781736101015996"><ele>29.0</ele><time>2026-04-18T12:48:43.001Z</time></trkpt><trkpt lat="42.282022541255024" lon="11.78196586655874"><ele>29.333333333333332</ele><time>2026-04-18T12:48:44.001Z</time></trkpt><trkpt lat="42.28201686650107" lon="11.782211400792617"><ele>29.666666666666664</ele><time>2026-04-18T12:48:45.001Z</time></trkpt><trkpt lat="42.28201166969493" lon="11.782465347865099"><ele>30.0</ele><time>2026-04-18T12:48:46.001Z</time></trkpt><trkpt lat="42.28200812512543" lon="11.782714400332171"><ele>30.666666666666664</ele><time>2026-04-18T12:48:47.001Z</time></trkpt><trkpt lat="42.28200323862174" lon="11.78294591449956"><ele>31.333333333333332</ele><time>2026-04-18T12:48:48.001Z</time></trkpt><trkpt lat="42.28200115546943" lon="11.78315323776364"><ele>32.0</ele><time>2026-04-18T12:48:49.001Z</time></trkpt><trkpt lat="42.282000219766445" lon="11.783356895020988"><ele>32.0</ele><time>2026-04-18T12:48:50.001Z</time></trkpt><trkpt lat="42.28200321444759" lon="11.783560919817171"><ele>32.0</ele><time>2026-04-18T12:48:51.001Z</time></trkpt><trkpt lat="42.28200632705067" lon="11.78375811353036"><ele>32.0</ele><time>2026-04-18T12:48:52.001Z</time></trkpt><trkpt lat="42.28200578322918" lon="11.783949946529775"><ele>32.0</ele><time>2026-04-18T12:48:53.001Z</time></trkpt><trkpt lat="42.28200109257513" lon="11.784144111164947"><ele>32.0</ele><time>2026-04-18T12:48:54.001Z</time></trkpt><trkpt lat="42.28199877084951" lon="11.78434435463025"><ele>32.0</ele><time>2026-04-18T12:48:55.001Z</time></trkpt><trkpt lat="42.28199650983553" lon="11.784542939501204"><ele>32.0</ele><time>2026-04-18T12:48:56.001Z</time></trkpt><trkpt lat="42.28200509002134" lon="11.78475400203878"><ele>31.666666666666664</ele><time>2026-04-18T12:48:57.001Z</time></trkpt><trkpt lat="42.28201538823975" lon="11.784963397555385"><ele>31.333333333333336</ele><time>2026-04-18T12:48:58.001Z</time></trkpt><trkpt lat="42.282022956802116" lon="11.785169728425823"><ele>31.0</ele><time>2026-04-18T12:48:59.001Z</time></trkpt><trkpt lat="42.28203088647601" lon="11.785373873764964"><ele>30.666666666666668</ele><time>2026-04-18T12:49:00.001Z</time></trkpt><trkpt lat="42.28203937598439" lon="11.78559272253559"><ele>30.333333333333336</ele><time>2026-04-18T12:49:01.001Z</time></trkpt><trkpt lat="42.28204976193578" lon="11.785819340227528"><ele>30.0</ele><time>2026-04-18T12:49:02.001Z</time></trkpt><trkpt lat="42.28206071785519" lon="11.786063264170625"><ele>29.666666666666664</ele><time>2026-04-18T12:49:03.001Z</time></trkpt><trkpt lat="42.282072041605204" lon="11.78629937948699"><ele>29.333333333333332</ele><time>2026-04-18T12:49:04.001Z</time></trkpt><trkpt lat="42.28208253796048" lon="11.786513154875676"><ele>29.0</ele><time>2026-04-18T12:49:05.001Z</time></trkpt><trkpt lat="42.28209436675835" lon="11.786725667171082"><ele>29.0</ele><time>2026-04-18T12:49:06.001Z</time></trkpt><trkpt lat="42.28211094965095" lon="11.786928041820822"><ele>29.0</ele><time>2026-04-18T12:49:07.001Z</time></trkpt><trkpt lat="42.28213663414211" lon="11.787120229974166"><ele>29.0</ele><time>2026-04-18T12:49:08.001Z</time></trkpt><trkpt lat="42.2821708669016" lon="11.787316561028154"><ele>29.0</ele><time>2026-04-18T12:49:09.001Z</time></trkpt><trkpt lat="42.28221886390557" lon="11.78751042089238"><ele>28.0</ele><time>2026-04-18T12:49:10.001Z</time></trkpt><trkpt lat="42.28228122650847" lon="11.787713229398229"><ele>27.0</ele><time>2026-04-18T12:49:11.001Z</time></trkpt><trkpt lat="42.28234962351156" lon="11.787923730398767"><ele>26.0</ele><time>2026-04-18T12:49:12.002Z</time></trkpt><trkpt lat="42.282429105785134" lon="11.788163359011753"><ele>26.0</ele><time>2026-04-18T12:49:13.002Z</time></trkpt><trkpt lat="42.28251386086266" lon="11.788432382850981"><ele>26.0</ele><time>2026-04-18T12:49:14.002Z</time></trkpt><trkpt lat="42.282601354412535" lon="11.788727241874794"><ele>25.5</ele><time>2026-04-18T12:49:15.002Z</time></trkpt><trkpt lat="42.28270011825446" lon="11.78905015959768"><ele>25.0</ele><time>2026-04-18T12:49:16.002Z</time></trkpt><trkpt lat="42.28280953702109" lon="11.789402078676009"><ele>25.0</ele><time>2026-04-18T12:49:17.002Z</time></trkpt><trkpt lat="42.28291437264922" lon="11.78975116819105"><ele>25.0</ele><time>2026-04-18T12:49:18.002Z</time></trkpt><trkpt lat="42.283014210907446" lon="11.790077814065269"><ele>25.0</ele><time>2026-04-18T12:49:19.002Z</time></trkpt><trkpt lat="42.28310710370974" lon="11.790388499494176"><ele>25.0</ele><time>2026-04-18T12:49:20.002Z</time></trkpt><trkpt lat="42.28319534007152" lon="11.790680306270547"><ele>25.0</ele><time>2026-04-18T12:49:21.002Z</time></trkpt><trkpt lat="42.283280414462965" lon="11.79095843404271"><ele>25.0</ele><time>2026-04-18T12:49:22.002Z</time></trkpt><trkpt lat="42.28337011922345" lon="11.791243216823633"><ele>25.5</ele><time>2026-04-18T12:49:23.002Z</time></trkpt><trkpt lat="42.2834557001241" lon="11.791525588887263"><ele>26.0</ele><time>2026-04-18T12:49:24.002Z</time></trkpt><trkpt lat="42.283538209523435" lon="11.791807500767346"><ele>26.333333333333332</ele><time>2026-04-18T12:49:25.002Z</time></trkpt><trkpt lat="42.28362067856453" lon="11.792087428836394"><ele>26.666666666666664</ele><time>2026-04-18T12:49:26.002Z</time></trkpt><trkpt lat="42.28370894416683" lon="11.792362858574371"><ele>27.0</ele><time>2026-04-18T12:49:27.002Z</time></trkpt><trkpt lat="42.28379579687756" lon="11.792652483439126"><ele>26.666666666666664</ele><time>2026-04-18T12:49:28.002Z</time></trkpt><trkpt lat="42.283880424244614" lon="11.792932548406512"><ele>26.333333333333332</ele><time>2026-04-18T12:49:29.002Z</time></trkpt><trkpt lat="42.28396647124587" lon="11.793211042022174"><ele>26.0</ele><time>2026-04-18T12:49:30.002Z</time></trkpt><trkpt lat="42.28405453699738" lon="11.793491431262947"><ele>26.0</ele><time>2026-04-18T12:49:31.002Z</time></trkpt><trkpt lat="42.28413988200136" lon="11.793765922608042"><ele>26.0</ele><time>2026-04-18T12:49:32.002Z</time></trkpt><trkpt lat="42.28422635503249" lon="11.794036057447274"><ele>26.0</ele><time>2026-04-18T12:49:33.002Z</time></trkpt><trkpt lat="42.28431021594335" lon="11.794311871514227"><ele>26.333333333333332</ele><time>2026-04-18T12:49:34.002Z</time></trkpt><trkpt lat="42.28439154942921" lon="11.794590623972963"><ele>26.666666666666664</ele><time>2026-04-18T12:49:35.002Z</time></trkpt><trkpt lat="42.284469563261275" lon="11.794863020936003"><ele>27.0</ele><time>2026-04-18T12:49:36.002Z</time></trkpt><trkpt lat="42.28455864202853" lon="11.795143028304"><ele>27.333333333333336</ele><time>2026-04-18T12:49:37.002Z</time></trkpt><trkpt lat="42.28464426891636" lon="11.795425708300897"><ele>27.666666666666668</ele><time>2026-04-18T12:49:38.002Z</time></trkpt><trkpt lat="42.28472327114253" lon="11.795692837450153"><ele>28.0</ele><time>2026-04-18T12:49:39.002Z</time></trkpt><trkpt lat="42.28480247511073" lon="11.795955523323954"><ele>27.666666666666668</ele><time>2026-04-18T12:49:40.002Z</time></trkpt><trkpt lat="42.2848834060903" lon="11.796213551832533"><ele>27.333333333333336</ele><time>2026-04-18T12:49:41.002Z</time></trkpt><trkpt lat="42.28495603736466" lon="11.796458394850076"><ele>27.0</ele><time>2026-04-18T12:49:42.002Z</time></trkpt><trkpt lat="42.28502810661138" lon="11.796708994846943"><ele>26.666666666666664</ele><time>2026-04-18T12:49:42.999Z</time></trkpt><trkpt lat="42.28509847656463" lon="11.796961660432848"><ele>26.333333333333332</ele><time>2026-04-18T12:49:43.999Z</time></trkpt><trkpt lat="42.28516822197463" lon="11.797201680286951"><ele>26.0</ele><time>2026-04-18T12:49:44.999Z</time></trkpt><trkpt lat="42.28523651736994" lon="11.797434155322183"><ele>26.333333333333332</ele><time>2026-04-18T12:49:45.999Z</time></trkpt><trkpt lat="42.28531280064688" lon="11.797669873556552"><ele>26.666666666666664</ele><time>2026-04-18T12:49:46.999Z</time></trkpt><trkpt lat="42.28538822916996" lon="11.797911356036014"><ele>27.0</ele><time>2026-04-18T12:49:47.999Z</time></trkpt><trkpt lat="42.28545257741902" lon="11.798100462509042"><ele>27.0</ele><time>2026-04-18T12:49:48.999Z</time></trkpt><trkpt lat="42.28551261466425" lon="11.798290977464836"><ele>27.0</ele><time>2026-04-18T12:49:49.999Z</time></trkpt><trkpt lat="42.28556575367386" lon="11.798472241740843"><ele>27.0</ele><time>2026-04-18T12:49:50.999Z</time></trkpt><trkpt lat="42.28562215907015" lon="11.79865570873367"><ele>27.0</ele><time>2026-04-18T12:49:51.999Z</time></trkpt><trkpt lat="42.28567843699717" lon="11.798832155676925"><ele>27.25</ele><time>2026-04-18T12:49:52.999Z</time></trkpt><trkpt lat="42.28573726312958" lon="11.799010283609864"><ele>27.5</ele><time>2026-04-18T12:49:53.999Z</time></trkpt><trkpt lat="42.28580415393682" lon="11.799179822610109"><ele>27.75</ele><time>2026-04-18T12:49:54.999Z</time></trkpt><trkpt lat="42.28588026251146" lon="11.79932750517057"><ele>28.0</ele><time>2026-04-18T12:49:55.999Z</time></trkpt><trkpt lat="42.28596556839991" lon="11.799456737706258"><ele>28.2</ele><time>2026-04-18T12:49:57Z</time></trkpt><trkpt lat="42.28604630073011" lon="11.799574792505018"><ele>28.4</ele><time>2026-04-18T12:49:58Z</time></trkpt><trkpt lat="42.28611453955703" lon="11.79967781822214"><ele>28.599999999999998</ele><time>2026-04-18T12:49:59Z</time></trkpt><trkpt lat="42.28615164052754" lon="11.799753776031375"><ele>28.799999999999997</ele><time>2026-04-18T12:50:00Z</time></trkpt><trkpt lat="42.2861332851693" lon="11.799887149737764"><ele>29.0</ele><time>2026-04-18T12:50:02Z</time></trkpt><trkpt lat="42.28601729978488" lon="11.800007859352524"><ele>29.0</ele><time>2026-04-18T12:50:04Z</time></trkpt><trkpt lat="42.285914030164776" lon="11.800102203612404"><ele>29.0</ele><time>2026-04-18T12:50:05Z</time></trkpt><trkpt lat="42.28579015916154" lon="11.80021140761199"><ele>29.0</ele><time>2026-04-18T12:50:06Z</time></trkpt><trkpt lat="42.28567985713316" lon="11.800318677287647"><ele>29.0</ele><time>2026-04-18T12:50:07Z</time></trkpt><trkpt lat="42.285586303037405" lon="11.800405204399421"><ele>29.799999999999997</ele><time>2026-04-18T12:50:08Z</time></trkpt><trkpt lat="42.28549774134296" lon="11.800488618775235"><ele>30.599999999999998</ele><time>2026-04-18T12:50:09Z</time></trkpt><trkpt lat="42.28540689309545" lon="11.800580107507168"><ele>31.4</ele><time>2026-04-18T12:50:10Z</time></trkpt><trkpt lat="42.28529987778308" lon="11.800673892725655"><ele>32.199999999999996</ele><time>2026-04-18T12:50:11Z</time></trkpt><trkpt lat="42.285224490209416" lon="11.800734070605635"><ele>33.0</ele><time>2026-04-18T12:50:12Z</time></trkpt><trkpt lat="42.28509097072464" lon="11.800817831713523"><ele>33.0</ele><time>2026-04-18T12:50:14Z</time></trkpt><trkpt lat="42.28499061442793" lon="11.800892845809663"><ele>33.0</ele><time>2026-04-18T12:50:15Z</time></trkpt><trkpt lat="42.28488422471437" lon="11.80097075083585"><ele>33.0</ele><time>2026-04-18T12:50:16Z</time></trkpt><trkpt lat="42.28477444770772" lon="11.80105195295186"><ele>33.0</ele><time>2026-04-18T12:50:17Z</time></trkpt><trkpt lat="42.2846687156347" lon="11.801132627466448"><ele>33.5</ele><time>2026-04-18T12:50:18Z</time></trkpt><trkpt lat="42.28456365444013" lon="11.801197979118056"><ele>34.0</ele><time>2026-04-18T12:50:19Z</time></trkpt><trkpt lat="42.28444411635428" lon="11.801252580075003"><ele>34.5</ele><time>2026-04-18T12:50:20Z</time></trkpt><trkpt lat="42.284331207212496" lon="11.801309100435779"><ele>35.0</ele><time>2026-04-18T12:50:21Z</time></trkpt><trkpt lat="42.28423679165675" lon="11.801375004165974"><ele>35.0</ele><time>2026-04-18T12:50:22Z</time></trkpt><trkpt lat="42.284138280515855" lon="11.801459380041385"><ele>35.0</ele><time>2026-04-18T12:50:23Z</time></trkpt><trkpt lat="42.28403106985073" lon="11.801546207260516"><ele>35.0</ele><time>2026-04-18T12:50:24Z</time></trkpt><trkpt lat="42.2839255261353" lon="11.80162501154755"><ele>35.0</ele><time>2026-04-18T12:50:25Z</time></trkpt><trkpt lat="42.28383128810356" lon="11.80168935379063"><ele>34.75</ele><time>2026-04-18T12:50:26Z</time></trkpt><trkpt lat="42.28373045748381" lon="11.80175991210357"><ele>34.5</ele><time>2026-04-18T12:50:27Z</time></trkpt><trkpt lat="42.283622711830255" lon="11.801841066265139"><ele>34.25</ele><time>2026-04-18T12:50:28Z</time></trkpt><trkpt lat="42.28351324739109" lon="11.801915790403935"><ele>34.0</ele><time>2026-04-18T12:50:29Z</time></trkpt><trkpt lat="42.28339508260594" lon="11.80200256361428"><ele>34.66666666666667</ele><time>2026-04-18T12:50:30Z</time></trkpt><trkpt lat="42.28324833122817" lon="11.802102470737404"><ele>35.333333333333336</ele><time>2026-04-18T12:50:31.001Z</time></trkpt><trkpt lat="42.28309240165285" lon="11.802206051462889"><ele>36.0</ele><time>2026-04-18T12:50:32.001Z</time></trkpt><trkpt lat="42.28296621356201" lon="11.80229182046959"><ele>36.0</ele><time>2026-04-18T12:50:33.001Z</time></trkpt><trkpt lat="42.28286177994575" lon="11.80236785039242"><ele>36.0</ele><time>2026-04-18T12:50:34.001Z</time></trkpt><trkpt lat="42.28276339640293" lon="11.8024408490085"><ele>36.0</ele><time>2026-04-18T12:50:35.001Z</time></trkpt><trkpt lat="42.28264999313501" lon="11.802529554300127"><ele>36.0</ele><time>2026-04-18T12:50:36.001Z</time></trkpt><trkpt lat="42.28254643158179" lon="11.802597373807481"><ele>36.2</ele><time>2026-04-18T12:50:37.001Z</time></trkpt><trkpt lat="42.28244930750328" lon="11.802673030780428"><ele>36.400000000000006</ele><time>2026-04-18T12:50:38.001Z</time></trkpt><trkpt lat="42.282361009318876" lon="11.802735233020861"><ele>36.6</ele><time>2026-04-18T12:50:39.001Z</time></trkpt><trkpt lat="42.282297388282146" lon="11.802791099081956"><ele>36.800000000000004</ele><time>2026-04-18T12:50:40.001Z</time></trkpt><trkpt lat="42.28221159333175" lon="11.80286148555254"><ele>37.0</ele><time>2026-04-18T12:50:42.001Z</time></trkpt><trkpt lat="42.28212941598301" lon="11.802922327600207"><ele>37.0</ele><time>2026-04-18T12:50:44.001Z</time></trkpt><trkpt lat="42.28204697781073" lon="11.80296970371416"><ele>37.0</ele><time>2026-04-18T12:50:46.001Z</time></trkpt><trkpt lat="42.28191358790999" lon="11.80305654897192"><ele>37.0</ele><time>2026-04-18T12:50:48.001Z</time></trkpt><trkpt lat="42.28179804719521" lon="11.803132518642542"><ele>37.0</ele><time>2026-04-18T12:50:49.001Z</time></trkpt><trkpt lat="42.2816645915857" lon="11.803230059946541"><ele>37.0</ele><time>2026-04-18T12:50:50.001Z</time></trkpt><trkpt lat="42.28152768896287" lon="11.80333363670156"><ele>37.0</ele><time>2026-04-18T12:50:51.001Z</time></trkpt><trkpt lat="42.281410380934446" lon="11.803422088317598"><ele>37.0</ele><time>2026-04-18T12:50:52.001Z</time></trkpt><trkpt lat="42.28130713079015" lon="11.80349255177712"><ele>37.0</ele><time>2026-04-18T12:50:53.001Z</time></trkpt><trkpt lat="42.281206809161716" lon="11.803542656567767"><ele>37.0</ele><time>2026-04-18T12:50:54.001Z</time></trkpt><trkpt lat="42.28110160339406" lon="11.80357286735612"><ele>37.0</ele><time>2026-04-18T12:50:55.001Z</time></trkpt><trkpt lat="42.280997099374495" lon="11.803576783429431"><ele>37.0</ele><time>2026-04-18T12:50:56.001Z</time></trkpt><trkpt lat="42.28089509735291" lon="11.803551165838824"><ele>37.0</ele><time>2026-04-18T12:50:57.001Z</time></trkpt><trkpt lat="42.28078767550894" lon="11.803503833300764"><ele>37.0</ele><time>2026-04-18T12:50:58.001Z</time></trkpt><trkpt lat="42.28065412766995" lon="11.803432398155994"><ele>39.2</ele><time>2026-04-18T12:50:59.001Z</time></trkpt><trkpt lat="42.28051982944127" lon="11.803374770847265"><ele>41.400000000000006</ele><time>2026-04-18T12:51:00.001Z</time></trkpt><trkpt lat="42.280409789133806" lon="11.80333806307783"><ele>43.599999999999994</ele><time>2026-04-18T12:51:01.001Z</time></trkpt><trkpt lat="42.28031734932683" lon="11.803336074265028"><ele>45.8</ele><time>2026-04-18T12:51:02.001Z</time></trkpt><trkpt lat="42.28023464572863" lon="11.80337269063535"><ele>48.0</ele><time>2026-04-18T12:51:03.001Z</time></trkpt><trkpt lat="42.28015943160694" lon="11.803438984209574"><ele>45.75</ele><time>2026-04-18T12:51:04.001Z</time></trkpt><trkpt lat="42.28008449784594" lon="11.803543751054544"><ele>43.5</ele><time>2026-04-18T12:51:05.001Z</time></trkpt><trkpt lat="42.27999112356995" lon="11.803685834027073"><ele>41.25</ele><time>2026-04-18T12:51:06.001Z</time></trkpt><trkpt lat="42.279886357810284" lon="11.803813774770447"><ele>39.0</ele><time>2026-04-18T12:51:07.001Z</time></trkpt><trkpt lat="42.279798838057744" lon="11.803904913078247"><ele>40.2</ele><time>2026-04-18T12:51:08.001Z</time></trkpt><trkpt lat="42.279704308162835" lon="11.80396127566037"><ele>41.4</ele><time>2026-04-18T12:51:09.001Z</time></trkpt><trkpt lat="42.279619637114784" lon="11.804006749011089"><ele>42.6</ele><time>2026-04-18T12:51:10.001Z</time></trkpt><trkpt lat="42.27954265347579" lon="11.804045477903164"><ele>43.8</ele><time>2026-04-18T12:51:11.001Z</time></trkpt><trkpt lat="42.27947540085476" lon="11.804071183011345"><ele>45.0</ele><time>2026-04-18T12:51:12.002Z</time></trkpt><trkpt lat="42.2793484290657" lon="11.804077191844165"><ele>45.0</ele><time>2026-04-18T12:51:14.002Z</time></trkpt><trkpt lat="42.27928432210129" lon="11.804063507363557"><ele>45.0</ele><time>2026-04-18T12:51:15.002Z</time></trkpt><trkpt lat="42.27918642920772" lon="11.804011365863476"><ele>45.0</ele><time>2026-04-18T12:51:17.002Z</time></trkpt><trkpt lat="42.27912597006181" lon="11.803977981612487"><ele>45.0</ele><time>2026-04-18T12:51:18.002Z</time></trkpt><trkpt lat="42.27905112121563" lon="11.803924830396168"><ele>45.0</ele><time>2026-04-18T12:51:19.002Z</time></trkpt><trkpt lat="42.27895264441925" lon="11.803859420760284"><ele>45.0</ele><time>2026-04-18T12:51:21.002Z</time></trkpt><trkpt lat="42.27885825709352" lon="11.803776112214695"><ele>46.8</ele><time>2026-04-18T12:51:23.002Z</time></trkpt><trkpt lat="42.27877794650203" lon="11.803715963991298"><ele>48.6</ele><time>2026-04-18T12:51:24.002Z</time></trkpt><trkpt lat="42.27870335025474" lon="11.803644902119064"><ele>50.400000000000006</ele><time>2026-04-18T12:51:25.002Z</time></trkpt><trkpt lat="42.278620716142854" lon="11.803556192618215"><ele>52.2</ele><time>2026-04-18T12:51:26.002Z</time></trkpt><trkpt lat="42.27852581246311" lon="11.803467095701125"><ele>54.0</ele><time>2026-04-18T12:51:27.002Z</time></trkpt><trkpt lat="42.27843269216233" lon="11.803370297201386"><ele>54.333333333333336</ele><time>2026-04-18T12:51:28.002Z</time></trkpt><trkpt lat="42.27833953424178" lon="11.80327612156987"><ele>54.66666666666667</ele><time>2026-04-18T12:51:29.002Z</time></trkpt><trkpt lat="42.27825376753715" lon="11.803186734756633"><ele>55.0</ele><time>2026-04-18T12:51:30.002Z</time></trkpt><trkpt lat="42.278188458140505" lon="11.80312763651238"><ele>55.333333333333336</ele><time>2026-04-18T12:51:31.002Z</time></trkpt><trkpt lat="42.278128263916116" lon="11.803083375132442"><ele>55.66666666666667</ele><time>2026-04-18T12:51:32.002Z</time></trkpt><trkpt lat="42.278061576390364" lon="11.803039441953809"><ele>56.0</ele><time>2026-04-18T12:51:34.002Z</time></trkpt><trkpt lat="42.27799140705824" lon="11.803006929736243"><ele>58.4</ele><time>2026-04-18T12:51:37.002Z</time></trkpt><trkpt lat="42.27788144999901" lon="11.802905750643154"><ele>60.8</ele><time>2026-04-18T12:51:39.002Z</time></trkpt><trkpt lat="42.27780789568552" lon="11.80283747078387"><ele>63.199999999999996</ele><time>2026-04-18T12:51:40.002Z</time></trkpt><trkpt lat="42.27773054552336" lon="11.802751761864217"><ele>65.6</ele><time>2026-04-18T12:51:41.002Z</time></trkpt><trkpt lat="42.27765425204325" lon="11.802665755130365"><ele>68.0</ele><time>2026-04-18T12:51:42.002Z</time></trkpt><trkpt lat="42.277604412697855" lon="11.802596961203069"><ele>68.0</ele><time>2026-04-18T12:51:43.002Z</time></trkpt><trkpt lat="42.277565523717925" lon="11.80247514122479"><ele>68.0</ele><time>2026-04-18T12:51:45.002Z</time></trkpt><trkpt lat="42.277497680413745" lon="11.80236737820995"><ele>68.0</ele><time>2026-04-18T12:51:47.002Z</time></trkpt><trkpt lat="42.27743711933559" lon="11.80230155098768"><ele>68.0</ele><time>2026-04-18T12:51:48.002Z</time></trkpt><trkpt lat="42.27737372076542" lon="11.802231578211403"><ele>68.0</ele><time>2026-04-18T12:51:49Z</time></trkpt><trkpt lat="42.27730792301805" lon="11.802150314083864"><ele>70.2</ele><time>2026-04-18T12:51:51Z</time></trkpt><trkpt lat="42.277243275872934" lon="11.802068855347047"><ele>72.4</ele><time>2026-04-18T12:51:53Z</time></trkpt><trkpt lat="42.277193163286626" lon="11.801995781885736"><ele>74.60000000000001</ele><time>2026-04-18T12:51:54Z</time></trkpt><trkpt lat="42.27712177347564" lon="11.801921486602517"><ele>76.8</ele><time>2026-04-18T12:51:55Z</time></trkpt><trkpt lat="42.27702726788944" lon="11.801837024719156"><ele>79.0</ele><time>2026-04-18T12:51:56Z</time></trkpt><trkpt lat="42.27692988368028" lon="11.80171893320214"><ele>79.0</ele><time>2026-04-18T12:51:57Z</time></trkpt><trkpt lat="42.276849478697685" lon="11.801617411656098"><ele>79.0</ele><time>2026-04-18T12:51:58Z</time></trkpt><trkpt lat="42.27679714522099" lon="11.801550138494466"><ele>79.0</ele><time>2026-04-18T12:51:59Z</time></trkpt><trkpt lat="42.27672472900369" lon="11.801548697169489"><ele>79.0</ele><time>2026-04-18T12:52:01Z</time></trkpt><trkpt lat="42.27663683736781" lon="11.801452427808224"><ele>79.0</ele><time>2026-04-18T12:52:03Z</time></trkpt><trkpt lat="42.27656044170394" lon="11.801370349650485"><ele>79.0</ele><time>2026-04-18T12:52:04Z</time></trkpt><trkpt lat="42.276473838477884" lon="11.801278575752411"><ele>79.0</ele><time>2026-04-18T12:52:05Z</time></trkpt><trkpt lat="42.27638347090536" lon="11.801182457883078"><ele>79.0</ele><time>2026-04-18T12:52:06Z</time></trkpt><trkpt lat="42.27628376093185" lon="11.801087141232788"><ele>79.0</ele><time>2026-04-18T12:52:07Z</time></trkpt><trkpt lat="42.27620941452036" lon="11.801023197397674"><ele>79.0</ele><time>2026-04-18T12:52:08Z</time></trkpt><trkpt lat="42.27614968894614" lon="11.80096429648116"><ele>81.2</ele><time>2026-04-18T12:52:09.001Z</time></trkpt><trkpt lat="42.27609731455092" lon="11.80091493860199"><ele>83.4</ele><time>2026-04-18T12:52:10.001Z</time></trkpt><trkpt lat="42.27605230181896" lon="11.800847085079852"><ele>85.6</ele><time>2026-04-18T12:52:12.001Z</time></trkpt><trkpt lat="42.27592516328423" lon="11.8007228936857"><ele>87.8</ele><time>2026-04-18T12:52:14.001Z</time></trkpt><trkpt lat="42.27582375764881" lon="11.800666769531885"><ele>90.0</ele><time>2026-04-18T12:52:15.001Z</time></trkpt><trkpt lat="42.27573946258327" lon="11.800589784696273"><ele>90.0</ele><time>2026-04-18T12:52:17.001Z</time></trkpt><trkpt lat="42.27568049408437" lon="11.800549496181057"><ele>90.0</ele><time>2026-04-18T12:52:20.001Z</time></trkpt><trkpt lat="42.2756545736815" lon="11.800470822614857"><ele>90.0</ele><time>2026-04-18T12:53:56Z</time></trkpt><trkpt lat="42.27561015103035" lon="11.800408886423869"><ele>90.0</ele><time>2026-04-18T12:54:02Z</time></trkpt><trkpt lat="42.27550857908684" lon="11.80035123685062"><ele>90.0</ele><time>2026-04-18T12:55:22.002Z</time></trkpt><trkpt lat="42.27545605605337" lon="11.800302180740495"><ele>90.0</ele><time>2026-04-18T12:55:59.003Z</time></trkpt><trkpt lat="42.275392220800995" lon="11.800269129865097"><ele>90.0</ele><time>2026-04-18T12:56:05Z</time></trkpt><trkpt lat="42.27532980050187" lon="11.800238619031601"><ele>91.71428571428571</ele><time>2026-04-18T12:56:11Z</time></trkpt><trkpt lat="42.275269271308645" lon="11.800206703732933"><ele>93.42857142857143</ele><time>2026-04-18T12:56:21Z</time></trkpt><trkpt lat="42.2751961394276" lon="11.800181521624562"><ele>95.14285714285714</ele><time>2026-04-18T12:56:27Z</time></trkpt><trkpt lat="42.27526246234059" lon="11.8002010772966"><ele>96.85714285714286</ele><time>2026-04-18T12:56:46.001Z</time></trkpt><trkpt lat="42.27533279885467" lon="11.800230375110234"><ele>98.57142857142858</ele><time>2026-04-18T12:56:51.001Z</time></trkpt><trkpt lat="42.275401373477834" lon="11.800261597669728"><ele>100.28571428571429</ele><time>2026-04-18T12:56:56.001Z</time></trkpt><trkpt lat="42.27548542898805" lon="11.800317967025565"><ele>102.0</ele><time>2026-04-18T12:59:12.001Z</time></trkpt><trkpt lat="42.27553098733822" lon="11.800381650256924"><ele>102.0</ele><time>2026-04-18T12:59:17.001Z</time></trkpt><trkpt lat="42.27557710871361" lon="11.800448868646805"><ele>102.0</ele><time>2026-04-18T12:59:25.001Z</time></trkpt><trkpt lat="42.27564763292704" lon="11.800470072335534"><ele>102.0</ele><time>2026-04-18T12:59:42.002Z</time></trkpt><trkpt lat="42.27569207204385" lon="11.800532241543761"><ele>102.0</ele><time>2026-04-18T12:59:49.002Z</time></trkpt><trkpt lat="42.275742550961205" lon="11.80058356144341"><ele>102.0</ele><time>2026-04-18T12:59:54.002Z</time></trkpt><trkpt lat="42.27568531720329" lon="11.800531289582583"><ele>102.0</ele><time>2026-04-18T13:00:27Z</time></trkpt><trkpt lat="42.275741934336594" lon="11.80056874864047"><ele>102.0</ele><time>2026-04-18T13:01:15.001Z</time></trkpt><trkpt lat="42.27579683423014" lon="11.800622467084047"><ele>102.0</ele><time>2026-04-18T13:01:44.002Z</time></trkpt><trkpt lat="42.275870418130744" lon="11.800672382685047"><ele>102.0</ele><time>2026-04-18T13:01:50.002Z</time></trkpt><trkpt lat="42.275814501133674" lon="11.800610611409954"><ele>102.0</ele><time>2026-04-18T13:02:09.003Z</time></trkpt><trkpt lat="42.27575332810526" lon="11.800568573588743"><ele>102.0</ele><time>2026-04-18T13:02:15.003Z</time></trkpt><trkpt lat="42.27569854518198" lon="11.800525874471521"><ele>102.0</ele><time>2026-04-18T13:02:25.002Z</time></trkpt><trkpt lat="42.275590794990265" lon="11.80043807433768"><ele>102.0</ele><time>2026-04-18T13:10:07.001Z</time></trkpt><trkpt lat="42.27553820235658" lon="11.80038817882421"><ele>102.0</ele><time>2026-04-18T13:11:55Z</time></trkpt><trkpt lat="42.2754856420486" lon="11.800331040485935"><ele>102.0</ele><time>2026-04-18T13:12:01Z</time></trkpt><trkpt lat="42.275428079078225" lon="11.800272349791067"><ele>102.0</ele><time>2026-04-18T13:12:08Z</time></trkpt><trkpt lat="42.275361952908106" lon="11.800240640822974"><ele>102.0</ele><time>2026-04-18T13:12:14Z</time></trkpt><trkpt lat="42.27529881538869" lon="11.80020988127024"><ele>102.0</ele><time>2026-04-18T13:12:20Z</time></trkpt><trkpt lat="42.27523137365242" lon="11.80020082442957"><ele>102.0</ele><time>2026-04-18T13:12:26Z</time></trkpt><trkpt lat="42.275308440297046" lon="11.800234341379504"><ele>102.0</ele><time>2026-04-18T13:12:44.001Z</time></trkpt><trkpt lat="42.27537750666691" lon="11.800269673345015"><ele>102.0</ele><time>2026-04-18T13:12:49.998Z</time></trkpt><trkpt lat="42.27544189125456" lon="11.80029841588068"><ele>102.0</ele><time>2026-04-18T13:12:56.999Z</time></trkpt><trkpt lat="42.2754957429397" lon="11.800364001740693"><ele>102.0</ele><time>2026-04-18T13:13:07.999Z</time></trkpt><trkpt lat="42.27555742740816" lon="11.80041310693863"><ele>102.0</ele><time>2026-04-18T13:13:12.999Z</time></trkpt><trkpt lat="42.27561385056421" lon="11.800452949453351"><ele>102.0</ele><time>2026-04-18T13:13:18.999Z</time></trkpt><trkpt lat="42.27565373734065" lon="11.800531110206256"><ele>102.0</ele><time>2026-04-18T13:13:23.999Z</time></trkpt><trkpt lat="42.27571490204514" lon="11.800569914782525"><ele>102.0</ele><time>2026-04-18T13:13:29Z</time></trkpt><trkpt lat="42.27577376510875" lon="11.800617382658244"><ele>100.28571428571429</ele><time>2026-04-18T13:13:40Z</time></trkpt><trkpt lat="42.27583145860899" lon="11.800653757450894"><ele>98.57142857142858</ele><time>2026-04-18T13:13:47Z</time></trkpt><trkpt lat="42.27587965498915" lon="11.800714794201891"><ele>96.85714285714286</ele><time>2026-04-18T13:14:16Z</time></trkpt><trkpt lat="42.27594486038968" lon="11.800752880037217"><ele>95.14285714285714</ele><time>2026-04-18T13:14:21Z</time></trkpt><trkpt lat="42.27599740661155" lon="11.80080273469862"><ele>93.42857142857143</ele><time>2026-04-18T13:14:26Z</time></trkpt><trkpt lat="42.27604739096512" lon="11.80085906447505"><ele>91.71428571428571</ele><time>2026-04-18T13:14:31Z</time></trkpt><trkpt lat="42.276106211759014" lon="11.800918118009436"><ele>90.0</ele><time>2026-04-18T13:14:36Z</time></trkpt><trkpt lat="42.27616878493054" lon="11.8009708611667"><ele>90.0</ele><time>2026-04-18T13:16:13Z</time></trkpt><trkpt lat="42.27622370331219" lon="11.801041681323717"><ele>90.0</ele><time>2026-04-18T13:16:19.001Z</time></trkpt><trkpt lat="42.27619579683204" lon="11.800957381507617"><ele>90.0</ele><time>2026-04-18T13:17:35Z</time></trkpt><trkpt lat="42.27613888641901" lon="11.800889631488385"><ele>90.0</ele><time>2026-04-18T13:17:39.001Z</time></trkpt><trkpt lat="42.27606251584693" lon="11.800837819872326"><ele>90.0</ele><time>2026-04-18T13:17:53.001Z</time></trkpt><trkpt lat="42.27601095738701" lon="11.80078196604782"><ele>90.0</ele><time>2026-04-18T13:17:58.001Z</time></trkpt><trkpt lat="42.27594274699091" lon="11.800726124157082"><ele>90.0</ele><time>2026-04-18T13:18:03.001Z</time></trkpt><trkpt lat="42.27588018301257" lon="11.8006744098225"><ele>90.0</ele><time>2026-04-18T13:18:09.001Z</time></trkpt><trkpt lat="42.27582316372563" lon="11.80063353940245"><ele>90.0</ele><time>2026-04-18T13:18:15.001Z</time></trkpt><trkpt lat="42.275774070519645" lon="11.800576518395772"><ele>90.0</ele><time>2026-04-18T13:18:20.001Z</time></trkpt><trkpt lat="42.275719698826414" lon="11.800528120214702"><ele>90.0</ele><time>2026-04-18T13:18:24.001Z</time></trkpt><trkpt lat="42.27566310990582" lon="11.800478810542122"><ele>90.0</ele><time>2026-04-18T13:18:29.001Z</time></trkpt><trkpt lat="42.27560864522898" lon="11.800412788851313"><ele>90.0</ele><time>2026-04-18T13:18:35.001Z</time></trkpt><trkpt lat="42.275655828140906" lon="11.800484670524623"><ele>90.0</ele><time>2026-04-18T13:20:18.001Z</time></trkpt><trkpt lat="42.275605179233516" lon="11.800418720278968"><ele>90.0</ele><time>2026-04-18T13:22:23.001Z</time></trkpt><trkpt lat="42.27565956570495" lon="11.800483507463499"><ele>90.0</ele><time>2026-04-18T13:22:48.001Z</time></trkpt><trkpt lat="42.27560430138122" lon="11.800430109689987"><ele>90.0</ele><time>2026-04-18T13:25:13.001Z</time></trkpt><trkpt lat="42.27565717370577" lon="11.800480081488681"><ele>90.0</ele><time>2026-04-18T13:26:32.001Z</time></trkpt><trkpt lat="42.27568360991449" lon="11.800560584044636"><ele>90.0</ele><time>2026-04-18T13:26:45.001Z</time></trkpt><trkpt lat="42.27564115613012" lon="11.800476966423611"><ele>90.0</ele><time>2026-04-18T13:26:58.001Z</time></trkpt><trkpt lat="42.27568282166436" lon="11.800555410726126"><ele>90.0</ele><time>2026-04-18T13:28:47.001Z</time></trkpt><trkpt lat="42.27575712382106" lon="11.800599154010685"><ele>90.0</ele><time>2026-04-18T13:28:55.001Z</time></trkpt><trkpt lat="42.2756941978292" lon="11.800539494050232"><ele>90.0</ele><time>2026-04-18T13:29:09.001Z</time></trkpt><trkpt lat="42.275648424662066" lon="11.800464192688654"><ele>90.0</ele><time>2026-04-18T13:29:14.001Z</time></trkpt><trkpt lat="42.275593669298964" lon="11.800403761930957"><ele>90.0</ele><time>2026-04-18T13:30:04Z</time></trkpt><trkpt lat="42.27564023836846" lon="11.800476092849479"><ele>90.0</ele><time>2026-04-18T13:33:09Z</time></trkpt><trkpt lat="42.27559795297458" lon="11.80041188106391"><ele>90.0</ele><time>2026-04-18T13:34:32Z</time></trkpt><trkpt lat="42.27564640437867" lon="11.800484715435429"><ele>90.0</ele><time>2026-04-18T13:39:08Z</time></trkpt><trkpt lat="42.275701039932144" lon="11.800548920531574"><ele>90.0</ele><time>2026-04-18T13:39:32Z</time></trkpt><trkpt lat="42.27565392394557" lon="11.800488837586435"><ele>90.0</ele><time>2026-04-18T13:40:10Z</time></trkpt><trkpt lat="42.27561188479745" lon="11.800423401312278"><ele>90.0</ele><time>2026-04-18T13:40:29Z</time></trkpt><trkpt lat="42.275651970886514" lon="11.800494391023738"><ele>90.0</ele><time>2026-04-18T13:57:32Z</time></trkpt><trkpt lat="42.27569153733278" lon="11.80056265296724"><ele>90.0</ele><time>2026-04-18T13:57:38Z</time></trkpt><trkpt lat="42.27565359529678" lon="11.800493655211907"><ele>90.0</ele><time>2026-04-18T13:57:51Z</time></trkpt><trkpt lat="42.27560925105499" lon="11.800424227554382"><ele>90.0</ele><time>2026-04-18T13:58:01Z</time></trkpt><trkpt lat="42.27564313297788" lon="11.800504396645358"><ele>90.0</ele><time>2026-04-18T14:21:22Z</time></trkpt><trkpt lat="42.275603666220675" lon="11.800409104022394"><ele>90.0</ele><time>2026-04-18T14:23:07Z</time></trkpt><trkpt lat="42.27554638376957" lon="11.800359586997635"><ele>90.0</ele><time>2026-04-18T14:43:46Z</time></trkpt><trkpt lat="42.27549568242685" lon="11.800298143607023"><ele>90.0</ele><time>2026-04-18T14:43:51Z</time></trkpt><trkpt lat="42.27543353868072" lon="11.80026804877648"><ele>90.0</ele><time>2026-04-18T14:44:09Z</time></trkpt><trkpt lat="42.275501778865966" lon="11.800308723903205"><ele>90.0</ele><time>2026-04-18T14:45:02Z</time></trkpt><trkpt lat="42.27555783496116" lon="11.800374075469708"><ele>90.0</ele><time>2026-04-18T14:45:08Z</time></trkpt><trkpt lat="42.275598961893415" lon="11.800445263037423"><ele>90.0</ele><time>2026-04-18T14:45:17Z</time></trkpt><trkpt lat="42.27563994081077" lon="11.800379170521792"><ele>90.0</ele><time>2026-04-18T14:45:56Z</time></trkpt><trkpt lat="42.27567453813893" lon="11.800454120541364"><ele>90.0</ele><time>2026-04-18T14:48:11Z</time></trkpt><trkpt lat="42.275710619775694" lon="11.800527245524506"><ele>90.0</ele><time>2026-04-18T14:48:16Z</time></trkpt><trkpt lat="42.275685149924506" lon="11.800441363517777"><ele>90.0</ele><time>2026-04-18T14:49:20Z</time></trkpt><trkpt lat="42.27563150588278" lon="11.800392640449871"><ele>90.0</ele><time>2026-04-18T14:50:08Z</time></trkpt><trkpt lat="42.275578276342934" lon="11.800345233788748"><ele>90.0</ele><time>2026-04-18T14:50:14Z</time></trkpt><trkpt lat="42.27551664514367" lon="11.800297582389812"><ele>90.0</ele><time>2026-04-18T14:50:20Z</time></trkpt><trkpt lat="42.27546298368338" lon="11.800249264391176"><ele>90.0</ele><time>2026-04-18T14:50:29Z</time></trkpt><trkpt lat="42.27539662665755" lon="11.800253160330923"><ele>90.0</ele><time>2026-04-18T14:50:42Z</time></trkpt><trkpt lat="42.275463197314636" lon="11.800272892992346"><ele>90.0</ele><time>2026-04-18T14:51:08Z</time></trkpt><trkpt lat="42.275526874282136" lon="11.800305566228033"><ele>90.0</ele><time>2026-04-18T14:51:51Z</time></trkpt><trkpt lat="42.275571904060925" lon="11.800372865411243"><ele>90.0</ele><time>2026-04-18T14:51:56Z</time></trkpt><trkpt lat="42.27563243557849" lon="11.800421507809112"><ele>90.0</ele><time>2026-04-18T14:52:02Z</time></trkpt><trkpt lat="42.27569272591323" lon="11.8004823869995"><ele>90.0</ele><time>2026-04-18T14:52:08Z</time></trkpt><trkpt lat="42.27564489847854" lon="11.800408931809589"><ele>90.0</ele><time>2026-04-18T14:54:16Z</time></trkpt><trkpt lat="42.27557578072839" lon="11.800375275640265"><ele>90.0</ele><time>2026-04-18T14:54:18Z</time></trkpt><trkpt lat="42.275500187591" lon="11.80030212378855"><ele>90.0</ele><time>2026-04-18T14:54:20Z</time></trkpt><trkpt lat="42.2754437090681" lon="11.800244343944046"><ele>90.0</ele><time>2026-04-18T14:54:22Z</time></trkpt><trkpt lat="42.27532652418952" lon="11.800208390159515"><ele>92.0</ele><time>2026-04-18T14:54:31Z</time></trkpt><trkpt lat="42.27526014205754" lon="11.800195327980607"><ele>94.0</ele><time>2026-04-18T14:54:32Z</time></trkpt><trkpt lat="42.27514783201503" lon="11.800192480544611"><ele>96.0</ele><time>2026-04-18T14:54:34Z</time></trkpt><trkpt lat="42.27508221810849" lon="11.800214508223895"><ele>98.0</ele><time>2026-04-18T14:54:35Z</time></trkpt><trkpt lat="42.27500649291422" lon="11.80025554926224"><ele>100.0</ele><time>2026-04-18T14:54:36Z</time></trkpt><trkpt lat="42.27491678068177" lon="11.800297463168326"><ele>102.0</ele><time>2026-04-18T14:54:37Z</time></trkpt><trkpt lat="42.274815454173854" lon="11.80032389224192"><ele>103.0</ele><time>2026-04-18T14:54:38Z</time></trkpt><trkpt lat="42.274710169089445" lon="11.800348864614243"><ele>104.0</ele><time>2026-04-18T14:54:39Z</time></trkpt><trkpt lat="42.27460188560535" lon="11.80037014571569"><ele>104.99999999999999</ele><time>2026-04-18T14:54:40Z</time></trkpt><trkpt lat="42.27449570552014" lon="11.800400919609197"><ele>106.0</ele><time>2026-04-18T14:54:41Z</time></trkpt><trkpt lat="42.27439303674167" lon="11.800429225498261"><ele>107.0</ele><time>2026-04-18T14:54:42Z</time></trkpt><trkpt lat="42.27428923036533" lon="11.800459279180128"><ele>106.99999999999999</ele><time>2026-04-18T14:54:43Z</time></trkpt><trkpt lat="42.274196400822284" lon="11.800484479978833"><ele>107.0</ele><time>2026-04-18T14:54:44Z</time></trkpt><trkpt lat="42.2741116395218" lon="11.80049995231631"><ele>107.0</ele><time>2026-04-18T14:54:45Z</time></trkpt><trkpt lat="42.27402898657334" lon="11.800494070572343"><ele>107.0</ele><time>2026-04-18T14:54:46Z</time></trkpt><trkpt lat="42.273951700245775" lon="11.80051742711498"><ele>106.99999999999999</ele><time>2026-04-18T14:54:47Z</time></trkpt><trkpt lat="42.27387061049148" lon="11.80054193308378"><ele>107.0</ele><time>2026-04-18T14:54:48Z</time></trkpt><trkpt lat="42.27379805236836" lon="11.800562118661482"><ele>107.99999999999999</ele><time>2026-04-18T14:54:49Z</time></trkpt><trkpt lat="42.273720487169406" lon="11.80058232234896"><ele>109.0</ele><time>2026-04-18T14:54:51Z</time></trkpt><trkpt lat="42.27364760907188" lon="11.80060093946362"><ele>110.0</ele><time>2026-04-18T14:55:25.999Z</time></trkpt><trkpt lat="42.27356251312705" lon="11.800621985484367"><ele>111.0</ele><time>2026-04-18T14:55:27.999Z</time></trkpt><trkpt lat="42.27345633104854" lon="11.800669277160026"><ele>111.99999999999999</ele><time>2026-04-18T14:55:29.999Z</time></trkpt><trkpt lat="42.27339051304907" lon="11.800665758628066"><ele>113.0</ele><time>2026-04-18T14:55:30.999Z</time></trkpt><trkpt lat="42.273316453352045" lon="11.800685848260349"><ele>113.0</ele><time>2026-04-18T14:55:31.999Z</time></trkpt><trkpt lat="42.273221737363485" lon="11.800711541172944"><ele>113.00000000000001</ele><time>2026-04-18T14:55:32.999Z</time></trkpt><trkpt lat="42.27313110754319" lon="11.800734538947188"><ele>113.00000000000001</ele><time>2026-04-18T14:55:33.999Z</time></trkpt><trkpt lat="42.27303319928806" lon="11.80075757618925"><ele>113.0</ele><time>2026-04-18T14:55:34.999Z</time></trkpt><trkpt lat="42.27292440829029" lon="11.800777575845828"><ele>113.0</ele><time>2026-04-18T14:55:35.999Z</time></trkpt><trkpt lat="42.272813110626174" lon="11.800789679251075"><ele>114.0</ele><time>2026-04-18T14:55:36.999Z</time></trkpt><trkpt lat="42.27271275223796" lon="11.800791056121579"><ele>115.00000000000001</ele><time>2026-04-18T14:55:37.999Z</time></trkpt><trkpt lat="42.27263038457569" lon="11.800780979198999"><ele>116.00000000000001</ele><time>2026-04-18T14:55:38.999Z</time></trkpt><trkpt lat="42.27256493799376" lon="11.800751843531184"><ele>117.0</ele><time>2026-04-18T14:55:39.999Z</time></trkpt><trkpt lat="42.27245403153324" lon="11.800656038443565"><ele>118.0</ele><time>2026-04-18T14:55:41.998Z</time></trkpt><trkpt lat="42.27238794582406" lon="11.800602361152071"><ele>118.00000000000001</ele><time>2026-04-18T14:55:42.998Z</time></trkpt><trkpt lat="42.27230560860505" lon="11.800535483778061"><ele>118.0</ele><time>2026-04-18T14:55:44.998Z</time></trkpt><trkpt lat="42.27218618067896" lon="11.800492489871482"><ele>118.0</ele><time>2026-04-18T14:55:46.999Z</time></trkpt><trkpt lat="42.27211858085427" lon="11.800465806657424"><ele>118.0</ele><time>2026-04-18T14:55:47.999Z</time></trkpt><trkpt lat="42.272046158439" lon="11.80044626827831"><ele>118.00000000000001</ele><time>2026-04-18T14:55:48.999Z</time></trkpt><trkpt lat="42.27196962546597" lon="11.800434187982972"><ele>118.0</ele><time>2026-04-18T14:55:49.999Z</time></trkpt><trkpt lat="42.271882260826885" lon="11.800432148209921"><ele>119.00000000000001</ele><time>2026-04-18T14:55:50.999Z</time></trkpt><trkpt lat="42.271779453215814" lon="11.800445668077723"><ele>120.0</ele><time>2026-04-18T14:55:51.999Z</time></trkpt><trkpt lat="42.27167843783737" lon="11.800476889650596"><ele>121.0</ele><time>2026-04-18T14:55:52.999Z</time></trkpt><trkpt lat="42.271589303996016" lon="11.800497641871269"><ele>122.0</ele><time>2026-04-18T14:55:53.999Z</time></trkpt><trkpt lat="42.27151918164918" lon="11.800500938087284"><ele>123.00000000000001</ele><time>2026-04-18T14:55:54.999Z</time></trkpt><trkpt lat="42.27145741548174" lon="11.800532138630043"><ele>124.0</ele><time>2026-04-18T14:55:55.999Z</time></trkpt><trkpt lat="42.27138214228893" lon="11.800544274035918"><ele>124.66666666666667</ele><time>2026-04-18T14:55:56.999Z</time></trkpt><trkpt lat="42.27130309311204" lon="11.800549789229049"><ele>125.33333333333334</ele><time>2026-04-18T14:55:57.999Z</time></trkpt><trkpt lat="42.271224398207295" lon="11.800568085244674"><ele>126.0</ele><time>2026-04-18T14:55:58.999Z</time></trkpt><trkpt lat="42.27114396370083" lon="11.800587322298572"><ele>126.66666666666666</ele><time>2026-04-18T14:55:59.999Z</time></trkpt><trkpt lat="42.27104526306102" lon="11.800600463609117"><ele>127.33333333333333</ele><time>2026-04-18T14:56:00.999Z</time></trkpt><trkpt lat="42.27095861147049" lon="11.800612831825296"><ele>128.0</ele><time>2026-04-18T14:56:01.999Z</time></trkpt><trkpt lat="42.27088507515346" lon="11.800619838189759"><ele>127.99999999999999</ele><time>2026-04-18T14:56:02.999Z</time></trkpt><trkpt lat="42.27080616088532" lon="11.800615419279406"><ele>128.0</ele><time>2026-04-18T14:56:03.999Z</time></trkpt><trkpt lat="42.270708732072535" lon="11.80060722105561"><ele>128.0</ele><time>2026-04-18T14:56:04.999Z</time></trkpt><trkpt lat="42.270611311703156" lon="11.800598478601405"><ele>128.0</ele><time>2026-04-18T14:56:05.999Z</time></trkpt><trkpt lat="42.27054039365897" lon="11.800594786554838"><ele>127.99999999999999</ele><time>2026-04-18T14:56:06.999Z</time></trkpt><trkpt lat="42.27044032936105" lon="11.800568159081395"><ele>128.0</ele><time>2026-04-18T14:56:08.999Z</time></trkpt><trkpt lat="42.27034970305546" lon="11.800557555724216"><ele>129.0</ele><time>2026-04-18T14:56:10.999Z</time></trkpt><trkpt lat="42.27021847849432" lon="11.800541703455703"><ele>130.0</ele><time>2026-04-18T14:56:12.999Z</time></trkpt><trkpt lat="42.27013673645965" lon="11.800531419857629"><ele>131.0</ele><time>2026-04-18T14:56:13.999Z</time></trkpt><trkpt lat="42.27006091791443" lon="11.800536593577185"><ele>132.0</ele><time>2026-04-18T14:56:14.999Z</time></trkpt><trkpt lat="42.269980993263296" lon="11.800527336863327"><ele>133.0</ele><time>2026-04-18T14:56:15.999Z</time></trkpt><trkpt lat="42.269890340371845" lon="11.800532774913625"><ele>133.0</ele><time>2026-04-18T14:56:16.999Z</time></trkpt><trkpt lat="42.2697995968906" lon="11.800542703954608"><ele>133.0</ele><time>2026-04-18T14:56:17.999Z</time></trkpt><trkpt lat="42.26971692182099" lon="11.800568331481797"><ele>133.0</ele><time>2026-04-18T14:56:18.999Z</time></trkpt><trkpt lat="42.26962161097989" lon="11.80060488891958"><ele>133.0</ele><time>2026-04-18T14:56:19.999Z</time></trkpt><trkpt lat="42.269528458055895" lon="11.800658887231002"><ele>133.0</ele><time>2026-04-18T14:56:20.999Z</time></trkpt><trkpt lat="42.26943824525408" lon="11.800673157407761"><ele>135.0</ele><time>2026-04-18T14:56:21.999Z</time></trkpt><trkpt lat="42.26935558853542" lon="11.800708306250286"><ele>137.0</ele><time>2026-04-18T14:56:22.999Z</time></trkpt><trkpt lat="42.26926964546236" lon="11.800745421322627"><ele>139.0</ele><time>2026-04-18T14:56:23.999Z</time></trkpt><trkpt lat="42.26918376676412" lon="11.800782508550785"><ele>141.0</ele><time>2026-04-18T14:56:24.999Z</time></trkpt><trkpt lat="42.26910023552243" lon="11.800819289368306"><ele>143.0</ele><time>2026-04-18T14:56:25.999Z</time></trkpt><trkpt lat="42.26902373664797" lon="11.80085308525178"><ele>145.0</ele><time>2026-04-18T14:56:26.999Z</time></trkpt><trkpt lat="42.268951928918106" lon="11.800907185538353"><ele>146.16666666666669</ele><time>2026-04-18T14:56:27.999Z</time></trkpt><trkpt lat="42.268883193840914" lon="11.800926555290786"><ele>147.33333333333334</ele><time>2026-04-18T14:56:28.999Z</time></trkpt><trkpt lat="42.26881684115911" lon="11.800932359140386"><ele>148.5</ele><time>2026-04-18T14:56:29.999Z</time></trkpt><trkpt lat="42.26874736858514" lon="11.800958448342007"><ele>149.66666666666666</ele><time>2026-04-18T14:56:30.999Z</time></trkpt><trkpt lat="42.26867217717469" lon="11.801003383501003"><ele>150.83333333333331</ele><time>2026-04-18T14:56:31.999Z</time></trkpt><trkpt lat="42.268601476698855" lon="11.801044813652133"><ele>152.0</ele><time>2026-04-18T14:56:32.999Z</time></trkpt><trkpt lat="42.268526093646216" lon="11.80108777371894"><ele>152.5</ele><time>2026-04-18T14:56:33.999Z</time></trkpt><trkpt lat="42.26845024598004" lon="11.801130891583691"><ele>153.0</ele><time>2026-04-18T14:56:34.999Z</time></trkpt><trkpt lat="42.26837240844857" lon="11.801185561213977"><ele>153.5</ele><time>2026-04-18T14:56:35.999Z</time></trkpt><trkpt lat="42.26829736252977" lon="11.801242606480814"><ele>154.0</ele><time>2026-04-18T14:56:36.999Z</time></trkpt><trkpt lat="42.268223952721065" lon="11.80129268548921"><ele>154.5</ele><time>2026-04-18T14:56:37.999Z</time></trkpt><trkpt lat="42.26814558591248" lon="11.801344536026164"><ele>155.0</ele><time>2026-04-18T14:56:38.999Z</time></trkpt><trkpt lat="42.26807249589604" lon="11.8013999463595"><ele>155.33333333333331</ele><time>2026-04-18T14:56:39.999Z</time></trkpt><trkpt lat="42.26799544773195" lon="11.801456716509811"><ele>155.66666666666666</ele><time>2026-04-18T14:56:40.999Z</time></trkpt><trkpt lat="42.26791317832833" lon="11.801513593928384"><ele>156.0</ele><time>2026-04-18T14:56:41.999Z</time></trkpt><trkpt lat="42.26783858224945" lon="11.80155634854484"><ele>156.33333333333334</ele><time>2026-04-18T14:56:42.999Z</time></trkpt><trkpt lat="42.26776897500435" lon="11.801600233950564"><ele>156.66666666666669</ele><time>2026-04-18T14:56:43.999Z</time></trkpt><trkpt lat="42.267706333862854" lon="11.801637725588547"><ele>157.0</ele><time>2026-04-18T14:56:44.999Z</time></trkpt><trkpt lat="42.26759612802592" lon="11.801714600242478"><ele>157.0</ele><time>2026-04-18T14:56:46.999Z</time></trkpt><trkpt lat="42.26749906700518" lon="11.801767169950537"><ele>157.0</ele><time>2026-04-18T14:56:48.999Z</time></trkpt><trkpt lat="42.26739205304341" lon="11.801834503512996"><ele>157.0</ele><time>2026-04-18T14:56:50.999Z</time></trkpt><trkpt lat="42.2673208033234" lon="11.801891897551016"><ele>157.0</ele><time>2026-04-18T14:56:51.999Z</time></trkpt><trkpt lat="42.26724144158474" lon="11.801952224854674"><ele>157.0</ele><time>2026-04-18T14:56:52.999Z</time></trkpt><trkpt lat="42.26715954206182" lon="11.801999261926976"><ele>156.16666666666669</ele><time>2026-04-18T14:56:53.999Z</time></trkpt><trkpt lat="42.26708753902687" lon="11.802053915719313"><ele>155.33333333333334</ele><time>2026-04-18T14:56:54.999Z</time></trkpt><trkpt lat="42.26701507665828" lon="11.802108099187905"><ele>154.5</ele><time>2026-04-18T14:56:55.999Z</time></trkpt><trkpt lat="42.26694625874088" lon="11.80215992227197"><ele>153.66666666666666</ele><time>2026-04-18T14:56:56.999Z</time></trkpt><trkpt lat="42.266872157241906" lon="11.802214745028763"><ele>152.83333333333331</ele><time>2026-04-18T14:56:57.999Z</time></trkpt><trkpt lat="42.26679345156973" lon="11.802273557055122"><ele>152.0</ele><time>2026-04-18T14:56:58.999Z</time></trkpt><trkpt lat="42.266720108800484" lon="11.802327099662891"><ele>152.0</ele><time>2026-04-18T14:56:59.999Z</time></trkpt><trkpt lat="42.2666489113771" lon="11.802374409897748"><ele>152.0</ele><time>2026-04-18T14:57:00.999Z</time></trkpt><trkpt lat="42.26657449442459" lon="11.80242094847552"><ele>152.0</ele><time>2026-04-18T14:57:01.999Z</time></trkpt><trkpt lat="42.26650636841259" lon="11.802467681928512"><ele>152.0</ele><time>2026-04-18T14:57:02.999Z</time></trkpt><trkpt lat="42.266439926108866" lon="11.802518378368141"><ele>152.0</ele><time>2026-04-18T14:57:03.999Z</time></trkpt><trkpt lat="42.266371678592826" lon="11.802573006992324"><ele>152.0</ele><time>2026-04-18T14:57:04.999Z</time></trkpt><trkpt lat="42.26630115113492" lon="11.802631759304488"><ele>150.0</ele><time>2026-04-18T14:57:05.999Z</time></trkpt><trkpt lat="42.26623824687201" lon="11.80269481562738"><ele>148.0</ele><time>2026-04-18T14:57:06.999Z</time></trkpt><trkpt lat="42.26618603817726" lon="11.802768856088594"><ele>146.0</ele><time>2026-04-18T14:57:07.999Z</time></trkpt><trkpt lat="42.26612217920672" lon="11.802870147715872"><ele>144.0</ele><time>2026-04-18T14:57:08.999Z</time></trkpt><trkpt lat="42.266070196742575" lon="11.802964828694583"><ele>142.0</ele><time>2026-04-18T14:57:09.999Z</time></trkpt><trkpt lat="42.26603192615694" lon="11.80304702013535"><ele>140.0</ele><time>2026-04-18T14:57:10.999Z</time></trkpt><trkpt lat="42.26600002864299" lon="11.803142054716497"><ele>140.0</ele><time>2026-04-18T14:57:11.999Z</time></trkpt><trkpt lat="42.265968889237016" lon="11.803236330535393"><ele>140.0</ele><time>2026-04-18T14:57:12.999Z</time></trkpt><trkpt lat="42.265936876981854" lon="11.803333882910586"><ele>140.0</ele><time>2026-04-18T14:57:13.999Z</time></trkpt><trkpt lat="42.265904448243205" lon="11.803428953239584"><ele>140.0</ele><time>2026-04-18T14:57:14.999Z</time></trkpt><trkpt lat="42.26587296556489" lon="11.803505974559664"><ele>140.0</ele><time>2026-04-18T14:57:15.999Z</time></trkpt><trkpt lat="42.265833559183356" lon="11.803583612176187"><ele>140.0</ele><time>2026-04-18T14:57:17.999Z</time></trkpt><trkpt lat="42.265774462271494" lon="11.803695687874402"><ele>140.5</ele><time>2026-04-18T14:57:19.999Z</time></trkpt><trkpt lat="42.265726422088996" lon="11.803792203556082"><ele>141.0</ele><time>2026-04-18T14:57:20.999Z</time></trkpt><trkpt lat="42.26567097725559" lon="11.803894332584449"><ele>141.5</ele><time>2026-04-18T14:57:21.999Z</time></trkpt><trkpt lat="42.265604281505006" lon="11.804002418712873"><ele>142.0</ele><time>2026-04-18T14:57:22.999Z</time></trkpt><trkpt lat="42.26554058067562" lon="11.804075825906764"><ele>142.5</ele><time>2026-04-18T14:57:23.999Z</time></trkpt><trkpt lat="42.26547298639491" lon="11.804103977008262"><ele>143.0</ele><time>2026-04-18T14:57:24.999Z</time></trkpt><trkpt lat="42.265406793159684" lon="11.804152564692858"><ele>143.66666666666666</ele><time>2026-04-18T14:57:25.999Z</time></trkpt><trkpt lat="42.26533547671503" lon="11.804199442120675"><ele>144.33333333333331</ele><time>2026-04-18T14:57:26.999Z</time></trkpt><trkpt lat="42.26527049459932" lon="11.804264634597855"><ele>145.0</ele><time>2026-04-18T14:57:27.999Z</time></trkpt><trkpt lat="42.26518373259885" lon="11.804309796555101"><ele>145.66666666666666</ele><time>2026-04-18T14:57:28.999Z</time></trkpt><trkpt lat="42.26510198979509" lon="11.804364093446956"><ele>146.33333333333334</ele><time>2026-04-18T14:57:29.999Z</time></trkpt><trkpt lat="42.265020472835275" lon="11.80441934792827"><ele>147.0</ele><time>2026-04-18T14:57:30.999Z</time></trkpt><trkpt lat="42.264936295815566" lon="11.804469271511655"><ele>147.33333333333334</ele><time>2026-04-18T14:57:31.999Z</time></trkpt><trkpt lat="42.26486096397314" lon="11.804512517641756"><ele>147.66666666666666</ele><time>2026-04-18T14:57:32.999Z</time></trkpt><trkpt lat="42.26478862548518" lon="11.804565403571903"><ele>148.0</ele><time>2026-04-18T14:57:33.999Z</time></trkpt><trkpt lat="42.264719791349414" lon="11.804607791118656"><ele>148.33333333333331</ele><time>2026-04-18T14:57:34.999Z</time></trkpt><trkpt lat="42.264654290752276" lon="11.804644908361968"><ele>148.66666666666666</ele><time>2026-04-18T14:57:35.999Z</time></trkpt><trkpt lat="42.26458779545557" lon="11.804690050138696"><ele>149.0</ele><time>2026-04-18T14:57:36.999Z</time></trkpt><trkpt lat="42.264506996007704" lon="11.804743678989942"><ele>149.0</ele><time>2026-04-18T14:57:37.999Z</time></trkpt><trkpt lat="42.264430212038725" lon="11.80479159705639"><ele>149.0</ele><time>2026-04-18T14:57:38.999Z</time></trkpt><trkpt lat="42.26435631331428" lon="11.804833407307207"><ele>149.0</ele><time>2026-04-18T14:57:39.999Z</time></trkpt><trkpt lat="42.26428039745025" lon="11.804870566181002"><ele>149.0</ele><time>2026-04-18T14:57:40.999Z</time></trkpt><trkpt lat="42.26419980821359" lon="11.80491082971925"><ele>149.0</ele><time>2026-04-18T14:57:41.999Z</time></trkpt><trkpt lat="42.264122050293565" lon="11.804960831023537"><ele>149.0</ele><time>2026-04-18T14:57:42.999Z</time></trkpt><trkpt lat="42.264035727633356" lon="11.805037344988483"><ele>149.8</ele><time>2026-04-18T14:57:43.999Z</time></trkpt><trkpt lat="42.263939139305485" lon="11.805078453491927"><ele>150.60000000000002</ele><time>2026-04-18T14:57:44.999Z</time></trkpt><trkpt lat="42.26383590895857" lon="11.8051429388029"><ele>151.4</ele><time>2026-04-18T14:57:45.999Z</time></trkpt><trkpt lat="42.26373464813695" lon="11.805206193716337"><ele>152.20000000000002</ele><time>2026-04-18T14:57:46.997Z</time></trkpt><trkpt lat="42.26364794038128" lon="11.805260357786855"><ele>153.0</ele><time>2026-04-18T14:57:47.997Z</time></trkpt><trkpt lat="42.26356548000503" lon="11.805311868626392"><ele>153.33333333333334</ele><time>2026-04-18T14:57:48.997Z</time></trkpt><trkpt lat="42.26348037015737" lon="11.80536391068857"><ele>153.66666666666666</ele><time>2026-04-18T14:57:49.997Z</time></trkpt><trkpt lat="42.26339826958145" lon="11.805414060257391"><ele>154.0</ele><time>2026-04-18T14:57:50.997Z</time></trkpt><trkpt lat="42.26330869683023" lon="11.805468774068169"><ele>154.33333333333331</ele><time>2026-04-18T14:57:51.997Z</time></trkpt><trkpt lat="42.26323736787432" lon="11.805525502324885"><ele>154.66666666666666</ele><time>2026-04-18T14:57:52.997Z</time></trkpt><trkpt lat="42.263171037767776" lon="11.805571536157668"><ele>155.0</ele><time>2026-04-18T14:57:53.997Z</time></trkpt><trkpt lat="42.26310080555472" lon="11.805613317920331"><ele>155.0</ele><time>2026-04-18T14:57:54.997Z</time></trkpt><trkpt lat="42.263032226775216" lon="11.805658914841883"><ele>155.0</ele><time>2026-04-18T14:57:55.997Z</time></trkpt><trkpt lat="42.26296276543089" lon="11.805700461116944"><ele>155.0</ele><time>2026-04-18T14:57:56.998Z</time></trkpt><trkpt lat="42.26290137548596" lon="11.805734318349455"><ele>155.0</ele><time>2026-04-18T14:57:57.998Z</time></trkpt><trkpt lat="42.26284181810148" lon="11.805769647214028"><ele>155.0</ele><time>2026-04-18T14:57:58.998Z</time></trkpt><trkpt lat="42.26278195446579" lon="11.805801213321809"><ele>155.0</ele><time>2026-04-18T14:57:59.998Z</time></trkpt><trkpt lat="42.262680347248086" lon="11.805871483373878"><ele>155.0</ele><time>2026-04-18T14:58:01.998Z</time></trkpt><trkpt lat="42.262576909616115" lon="11.805929252880174"><ele>155.0</ele><time>2026-04-18T14:58:03.998Z</time></trkpt><trkpt lat="42.26247439463382" lon="11.805997037797356"><ele>155.0</ele><time>2026-04-18T14:58:05.998Z</time></trkpt><trkpt lat="42.26239872257915" lon="11.806050603370993"><ele>155.0</ele><time>2026-04-18T14:58:07.998Z</time></trkpt><trkpt lat="42.26233160062144" lon="11.806095441242576"><ele>155.0</ele><time>2026-04-18T14:58:09.998Z</time></trkpt><trkpt lat="42.26225425938817" lon="11.806126998415273"><ele>154.33333333333331</ele><time>2026-04-18T14:58:11.998Z</time></trkpt><trkpt lat="42.262196167495134" lon="11.806183430045783"><ele>153.66666666666666</ele><time>2026-04-18T14:58:13.998Z</time></trkpt><trkpt lat="42.262131786584185" lon="11.806213470812967"><ele>153.0</ele><time>2026-04-18T14:58:15.999Z</time></trkpt><trkpt lat="42.26205930329025" lon="11.806254106502937"><ele>152.33333333333334</ele><time>2026-04-18T14:58:17.999Z</time></trkpt><trkpt lat="42.261986128760356" lon="11.806300730603292"><ele>151.66666666666669</ele><time>2026-04-18T14:58:19.999Z</time></trkpt><trkpt lat="42.261897895136755" lon="11.806363177965508"><ele>151.0</ele><time>2026-04-18T14:58:21.999Z</time></trkpt><trkpt lat="42.26179386987236" lon="11.806423537467047"><ele>151.0</ele><time>2026-04-18T14:58:23.999Z</time></trkpt><trkpt lat="42.2617140607759" lon="11.806501898642626"><ele>151.0</ele><time>2026-04-18T14:58:25.999Z</time></trkpt><trkpt lat="42.26166372139582" lon="11.806592680590807"><ele>151.0</ele><time>2026-04-18T14:58:27.999Z</time></trkpt><trkpt lat="42.26158539778953" lon="11.806668738797848"><ele>151.0</ele><time>2026-04-18T14:58:30.999Z</time></trkpt><trkpt lat="42.2615236690138" lon="11.806757482896385"><ele>151.0</ele><time>2026-04-18T14:58:32.999Z</time></trkpt><trkpt lat="42.26146869303776" lon="11.80684370444069"><ele>150.66666666666669</ele><time>2026-04-18T14:58:34.999Z</time></trkpt><trkpt lat="42.261411610803265" lon="11.806936259652014"><ele>150.33333333333334</ele><time>2026-04-18T14:58:36.999Z</time></trkpt><trkpt lat="42.261361088058834" lon="11.807018103419708"><ele>150.0</ele><time>2026-04-18T14:58:38.999Z</time></trkpt><trkpt lat="42.26131844655569" lon="11.807101812376276"><ele>149.66666666666666</ele><time>2026-04-18T14:58:40.999Z</time></trkpt><trkpt lat="42.26126966113098" lon="11.80717952378707"><ele>149.33333333333331</ele><time>2026-04-18T14:58:42.999Z</time></trkpt><trkpt lat="42.26121688725238" lon="11.807272291774575"><ele>149.0</ele><time>2026-04-18T14:58:44.999Z</time></trkpt><trkpt lat="42.26114571643157" lon="11.807346425021418"><ele>149.0</ele><time>2026-04-18T14:58:46.999Z</time></trkpt><trkpt lat="42.26109223503932" lon="11.807459459020377"><ele>149.0</ele><time>2026-04-18T14:58:48.999Z</time></trkpt><trkpt lat="42.26101484269273" lon="11.807543157880287"><ele>149.0</ele><time>2026-04-18T14:58:50.999Z</time></trkpt><trkpt lat="42.26093673421505" lon="11.80766099728448"><ele>149.0</ele><time>2026-04-18T14:58:52.999Z</time></trkpt><trkpt lat="42.26086916523251" lon="11.80776293619031"><ele>149.0</ele><time>2026-04-18T14:58:54.999Z</time></trkpt><trkpt lat="42.26079164447747" lon="11.807879888865838"><ele>149.0</ele><time>2026-04-18T14:58:56.999Z</time></trkpt><trkpt lat="42.26071621923459" lon="11.807993680208856"><ele>149.0</ele><time>2026-04-18T14:58:58.999Z</time></trkpt><trkpt lat="42.26064484317435" lon="11.808102820450383"><ele>149.0</ele><time>2026-04-18T14:59:00.999Z</time></trkpt><trkpt lat="42.26058579140862" lon="11.80822423687786"><ele>149.0</ele><time>2026-04-18T14:59:02.999Z</time></trkpt><trkpt lat="42.26051311913433" lon="11.808319583981653"><ele>149.0</ele><time>2026-04-18T14:59:04.999Z</time></trkpt><trkpt lat="42.26044142084609" lon="11.80842094115126"><ele>147.0</ele><time>2026-04-18T14:59:06.999Z</time></trkpt><trkpt lat="42.26038643243693" lon="11.808548260377382"><ele>145.0</ele><time>2026-04-18T14:59:08.999Z</time></trkpt><trkpt lat="42.260371645390215" lon="11.808677407663358"><ele>143.0</ele><time>2026-04-18T14:59:10.999Z</time></trkpt><trkpt lat="42.26037087252739" lon="11.808809833691743"><ele>141.0</ele><time>2026-04-18T14:59:12.999Z</time></trkpt><trkpt lat="42.2603822361115" lon="11.808945366801009"><ele>139.0</ele><time>2026-04-18T14:59:14.999Z</time></trkpt><trkpt lat="42.26039162143793" lon="11.809059139420734"><ele>139.0</ele><time>2026-04-18T14:59:16.999Z</time></trkpt><trkpt lat="42.26040434514106" lon="11.809174266078616"><ele>139.0</ele><time>2026-04-18T14:59:18.999Z</time></trkpt><trkpt lat="42.26040029394088" lon="11.809306983274293"><ele>139.0</ele><time>2026-04-18T14:59:20.999Z</time></trkpt><trkpt lat="42.26040556042682" lon="11.809422572378752"><ele>139.0</ele><time>2026-04-18T14:59:22.999Z</time></trkpt><trkpt lat="42.26042162107331" lon="11.809534842299483"><ele>139.0</ele><time>2026-04-18T14:59:24.999Z</time></trkpt><trkpt lat="42.26043114744991" lon="11.809661551805643"><ele>139.0</ele><time>2026-04-18T14:59:26.999Z</time></trkpt><trkpt lat="42.26043520285834" lon="11.80977353892614"><ele>139.2</ele><time>2026-04-18T14:59:28.999Z</time></trkpt><trkpt lat="42.26043636045361" lon="11.809899663412104"><ele>139.4</ele><time>2026-04-18T14:59:30.999Z</time></trkpt><trkpt lat="42.26044058869651" lon="11.81003047054212"><ele>139.6</ele><time>2026-04-18T14:59:32.999Z</time></trkpt><trkpt lat="42.26044571720369" lon="11.81013644577969"><ele>139.8</ele><time>2026-04-18T14:59:34.999Z</time></trkpt><trkpt lat="42.26044290543504" lon="11.81025243514261"><ele>140.0</ele><time>2026-04-18T14:59:36.999Z</time></trkpt><trkpt lat="42.260447269542155" lon="11.8103935550163"><ele>138.8</ele><time>2026-04-18T14:59:38.999Z</time></trkpt><trkpt lat="42.26046071988982" lon="11.81052619388497"><ele>137.6</ele><time>2026-04-18T14:59:40.999Z</time></trkpt><trkpt lat="42.26048678961161" lon="11.810640757712749"><ele>136.4</ele><time>2026-04-18T14:59:42.999Z</time></trkpt><trkpt lat="42.26051248136414" lon="11.810736439930508"><ele>135.2</ele><time>2026-04-18T14:59:44.999Z</time></trkpt><trkpt lat="42.260537673660025" lon="11.810847193245626"><ele>134.0</ele><time>2026-04-18T14:59:46.999Z</time></trkpt><trkpt lat="42.26056792598457" lon="11.81098839536435"><ele>134.16666666666666</ele><time>2026-04-18T14:59:48.999Z</time></trkpt><trkpt lat="42.26059724823247" lon="11.811120169840882"><ele>134.33333333333331</ele><time>2026-04-18T14:59:51Z</time></trkpt><trkpt lat="42.26062640583523" lon="11.811238972575666"><ele>134.5</ele><time>2026-04-18T14:59:52.997Z</time></trkpt><trkpt lat="42.26065059100611" lon="11.811339166095454"><ele>134.66666666666666</ele><time>2026-04-18T14:59:54.998Z</time></trkpt><trkpt lat="42.260672550726504" lon="11.811432054563925"><ele>134.83333333333334</ele><time>2026-04-18T14:59:56.998Z</time></trkpt><trkpt lat="42.26070285193513" lon="11.811557554540961"><ele>135.0</ele><time>2026-04-18T14:59:58.998Z</time></trkpt><trkpt lat="42.26073486554155" lon="11.811674308339763"><ele>135.0</ele><time>2026-04-18T15:00:00.998Z</time></trkpt><trkpt lat="42.26075820681128" lon="11.811785144980192"><ele>135.0</ele><time>2026-04-18T15:00:02.998Z</time></trkpt><trkpt lat="42.26079910226882" lon="11.81189408983555"><ele>135.0</ele><time>2026-04-18T15:00:04.998Z</time></trkpt><trkpt lat="42.26081788347654" lon="11.811994916245538"><ele>135.0</ele><time>2026-04-18T15:00:06.998Z</time></trkpt><trkpt lat="42.26084735955699" lon="11.812098334599062"><ele>135.0</ele><time>2026-04-18T15:00:08.998Z</time></trkpt><trkpt lat="42.260867520331225" lon="11.812217524225119"><ele>135.0</ele><time>2026-04-18T15:00:10.998Z</time></trkpt><trkpt lat="42.260893594418754" lon="11.812318922992631"><ele>135.0</ele><time>2026-04-18T15:00:12.998Z</time></trkpt><trkpt lat="42.2609315959935" lon="11.812466974011176"><ele>135.0</ele><time>2026-04-18T15:00:14.999Z</time></trkpt><trkpt lat="42.26098435202727" lon="11.812613687394"><ele>135.0</ele><time>2026-04-18T15:00:16.999Z</time></trkpt><trkpt lat="42.26100759744813" lon="11.812713883377036"><ele>135.0</ele><time>2026-04-18T15:00:17.999Z</time></trkpt><trkpt lat="42.261033608140245" lon="11.812813347221223"><ele>135.0</ele><time>2026-04-18T15:00:18.999Z</time></trkpt><trkpt lat="42.26105792211807" lon="11.812911456879752"><ele>135.0</ele><time>2026-04-18T15:00:19.999Z</time></trkpt><trkpt lat="42.261079563931396" lon="11.813005299774833"><ele>135.0</ele><time>2026-04-18T15:00:20.999Z</time></trkpt><trkpt lat="42.26109501095769" lon="11.81309254009373"><ele>135.0</ele><time>2026-04-18T15:00:21.999Z</time></trkpt><trkpt lat="42.26109109058095" lon="11.81317894595992"><ele>135.0</ele><time>2026-04-18T15:00:22.999Z</time></trkpt><trkpt lat="42.261093962416965" lon="11.81336485484707"><ele>135.0</ele><time>2026-04-18T15:00:24.999Z</time></trkpt><trkpt lat="42.261083543685665" lon="11.813461402358131"><ele>135.0</ele><time>2026-04-18T15:00:25.999Z</time></trkpt><trkpt lat="42.26106573180405" lon="11.813554759260816"><ele>135.2</ele><time>2026-04-18T15:00:26.999Z</time></trkpt><trkpt lat="42.26104867359775" lon="11.813648306355022"><ele>135.4</ele><time>2026-04-18T15:00:27.999Z</time></trkpt><trkpt lat="42.26100962670833" lon="11.813725639929219"><ele>135.6</ele><time>2026-04-18T15:00:28.999Z</time></trkpt><trkpt lat="42.26092363886665" lon="11.813838969904054"><ele>135.8</ele><time>2026-04-18T15:00:30.999Z</time></trkpt><trkpt lat="42.26084742074884" lon="11.813971720506386"><ele>136.0</ele><time>2026-04-18T15:00:32.999Z</time></trkpt><trkpt lat="42.26076336545572" lon="11.81409607125597"><ele>136.0</ele><time>2026-04-18T15:00:34.999Z</time></trkpt><trkpt lat="42.26068382945331" lon="11.814216773285887"><ele>136.0</ele><time>2026-04-18T15:00:36.999Z</time></trkpt><trkpt lat="42.26060865013645" lon="11.814322210652143"><ele>136.0</ele><time>2026-04-18T15:00:38.999Z</time></trkpt><trkpt lat="42.26053779688886" lon="11.814430775020401"><ele>136.0</ele><time>2026-04-18T15:00:40.999Z</time></trkpt><trkpt lat="42.260461617967884" lon="11.81455005131096"><ele>137.16666666666669</ele><time>2026-04-18T15:00:42.999Z</time></trkpt><trkpt lat="42.26038870683877" lon="11.81465455509435"><ele>138.33333333333334</ele><time>2026-04-18T15:00:44.999Z</time></trkpt><trkpt lat="42.26031258333757" lon="11.814771178694455"><ele>139.5</ele><time>2026-04-18T15:00:46.999Z</time></trkpt><trkpt lat="42.26027206352169" lon="11.814837178302978"><ele>140.66666666666666</ele><time>2026-04-18T15:00:47.999Z</time></trkpt><trkpt lat="42.26022366547339" lon="11.81490015721738"><ele>141.83333333333331</ele><time>2026-04-18T15:00:49Z</time></trkpt><trkpt lat="42.26017864659333" lon="11.814968927344985"><ele>143.0</ele><time>2026-04-18T15:00:50Z</time></trkpt><trkpt lat="42.2601341697961" lon="11.81503701008349"><ele>143.0</ele><time>2026-04-18T15:00:51Z</time></trkpt><trkpt lat="42.26008788968165" lon="11.815105697746844"><ele>143.0</ele><time>2026-04-18T15:00:52Z</time></trkpt><trkpt lat="42.26004119600229" lon="11.815173785176192"><ele>143.0</ele><time>2026-04-18T15:00:53Z</time></trkpt><trkpt lat="42.25999432610383" lon="11.815248457968305"><ele>143.0</ele><time>2026-04-18T15:00:54Z</time></trkpt><trkpt lat="42.25990478218105" lon="11.815384207750547"><ele>143.0</ele><time>2026-04-18T15:00:56Z</time></trkpt><trkpt lat="42.259851344223335" lon="11.815460524699725"><ele>143.0</ele><time>2026-04-18T15:00:57Z</time></trkpt><trkpt lat="42.25979118170824" lon="11.815507671203356"><ele>145.16666666666666</ele><time>2026-04-18T15:00:58Z</time></trkpt><trkpt lat="42.25968406245658" lon="11.815585306305929"><ele>147.33333333333331</ele><time>2026-04-18T15:01:00Z</time></trkpt><trkpt lat="42.2596202887487" lon="11.815623291396982"><ele>149.5</ele><time>2026-04-18T15:01:01Z</time></trkpt><trkpt lat="42.259563977343134" lon="11.815678152788667"><ele>151.66666666666666</ele><time>2026-04-18T15:01:02Z</time></trkpt><trkpt lat="42.259506839588134" lon="11.81571557248792"><ele>153.83333333333334</ele><time>2026-04-18T15:01:03Z</time></trkpt><trkpt lat="42.25939197082379" lon="11.815768703758232"><ele>156.0</ele><time>2026-04-18T15:01:05Z</time></trkpt><trkpt lat="42.259292715487945" lon="11.81585541121292"><ele>156.0</ele><time>2026-04-18T15:01:07Z</time></trkpt><trkpt lat="42.25919901219388" lon="11.815911823508277"><ele>156.0</ele><time>2026-04-18T15:01:09Z</time></trkpt><trkpt lat="42.25908739565492" lon="11.815985912305344"><ele>156.0</ele><time>2026-04-18T15:01:11Z</time></trkpt><trkpt lat="42.25903132014832" lon="11.81602473205925"><ele>156.0</ele><time>2026-04-18T15:01:12Z</time></trkpt><trkpt lat="42.258928016259354" lon="11.81609308431143"><ele>156.0</ele><time>2026-04-18T15:01:14Z</time></trkpt><trkpt lat="42.25882829371245" lon="11.816126105870472"><ele>159.8</ele><time>2026-04-18T15:01:16Z</time></trkpt><trkpt lat="42.258720637567926" lon="11.81617047068727"><ele>163.6</ele><time>2026-04-18T15:01:18Z</time></trkpt><trkpt lat="42.25860787060675" lon="11.816220986648958"><ele>167.4</ele><time>2026-04-18T15:01:20Z</time></trkpt><trkpt lat="42.258546905063334" lon="11.816194722972746"><ele>171.2</ele><time>2026-04-18T15:01:21Z</time></trkpt><trkpt lat="42.25845281401616" lon="11.816162261975721"><ele>175.0</ele><time>2026-04-18T15:01:23Z</time></trkpt><trkpt lat="42.258360987725126" lon="11.816128960528296"><ele>175.0</ele><time>2026-04-18T15:01:25Z</time></trkpt><trkpt lat="42.258270531327334" lon="11.816076433536844"><ele>175.0</ele><time>2026-04-18T15:01:27Z</time></trkpt><trkpt lat="42.25815421323609" lon="11.816029814285555"><ele>175.0</ele><time>2026-04-18T15:01:29Z</time></trkpt><trkpt lat="42.25803314688858" lon="11.81600642008473"><ele>175.0</ele><time>2026-04-18T15:01:31Z</time></trkpt><trkpt lat="42.25792177013052" lon="11.81601439931162"><ele>175.5</ele><time>2026-04-18T15:01:33Z</time></trkpt><trkpt lat="42.25780598330607" lon="11.816068762929257"><ele>176.0</ele><time>2026-04-18T15:01:35Z</time></trkpt><trkpt lat="42.25770518876658" lon="11.816136871039866"><ele>176.5</ele><time>2026-04-18T15:01:37Z</time></trkpt><trkpt lat="42.25759390965169" lon="11.81619305631075"><ele>177.0</ele><time>2026-04-18T15:01:39Z</time></trkpt><trkpt lat="42.25749368685291" lon="11.81622266464746"><ele>177.0</ele><time>2026-04-18T15:01:41Z</time></trkpt><trkpt lat="42.257398154455416" lon="11.816246955666527"><ele>177.0</ele><time>2026-04-18T15:01:43Z</time></trkpt><trkpt lat="42.25731825223673" lon="11.816273760553273"><ele>177.0</ele><time>2026-04-18T15:01:45Z</time></trkpt><trkpt lat="42.25724119968199" lon="11.816295685986967"><ele>177.0</ele><time>2026-04-18T15:01:47Z</time></trkpt><trkpt lat="42.25713927298893" lon="11.816309905688918"><ele>177.0</ele><time>2026-04-18T15:01:49Z</time></trkpt><trkpt lat="42.25705864350713" lon="11.816345754274677"><ele>177.0</ele><time>2026-04-18T15:01:51Z</time></trkpt><trkpt lat="42.25695178116997" lon="11.816378970260596"><ele>175.2</ele><time>2026-04-18T15:01:53Z</time></trkpt><trkpt lat="42.25685743935581" lon="11.816401718825063"><ele>173.39999999999998</ele><time>2026-04-18T15:01:55Z</time></trkpt><trkpt lat="42.25678069638546" lon="11.816452195564331"><ele>171.60000000000002</ele><time>2026-04-18T15:01:57Z</time></trkpt><trkpt lat="42.25670956277963" lon="11.816527143301416"><ele>169.8</ele><time>2026-04-18T15:01:58.996Z</time></trkpt><trkpt lat="42.2566491182104" lon="11.816613298855673"><ele>168.0</ele><time>2026-04-18T15:02:00.996Z</time></trkpt><trkpt lat="42.25658739033115" lon="11.816703625843106"><ele>168.0</ele><time>2026-04-18T15:02:02.996Z</time></trkpt><trkpt lat="42.25653117797808" lon="11.816769430425941"><ele>168.0</ele><time>2026-04-18T15:02:04.996Z</time></trkpt><trkpt lat="42.25647173434182" lon="11.816853174141679"><ele>168.0</ele><time>2026-04-18T15:02:06.996Z</time></trkpt><trkpt lat="42.25641964727765" lon="11.816916000536802"><ele>168.0</ele><time>2026-04-18T15:02:08.997Z</time></trkpt><trkpt lat="42.2563607943857" lon="11.81698363027681"><ele>168.0</ele><time>2026-04-18T15:02:10.997Z</time></trkpt><trkpt lat="42.256303606085574" lon="11.817060922742682"><ele>168.0</ele><time>2026-04-18T15:02:12.997Z</time></trkpt><trkpt lat="42.256256270514115" lon="11.817117146230508"><ele>166.60000000000002</ele><time>2026-04-18T15:02:14.997Z</time></trkpt><trkpt lat="42.25620730177001" lon="11.817196476942318"><ele>165.20000000000002</ele><time>2026-04-18T15:02:17.997Z</time></trkpt><trkpt lat="42.25613878729647" lon="11.81725760957153"><ele>163.8</ele><time>2026-04-18T15:02:29.998Z</time></trkpt><trkpt lat="42.25606710296607" lon="11.817323400015887"><ele>162.4</ele><time>2026-04-18T15:03:17Z</time></trkpt><trkpt lat="42.25616659475251" lon="11.817506242564134"><ele>161.0</ele><time>2026-04-18T15:03:20Z</time></trkpt><trkpt lat="42.25624251311145" lon="11.817587159193012"><ele>161.5</ele><time>2026-04-18T15:03:21Z</time></trkpt><trkpt lat="42.256308209168346" lon="11.817695882864989"><ele>162.0</ele><time>2026-04-18T15:03:22Z</time></trkpt><trkpt lat="42.25640140381396" lon="11.817813977444459"><ele>162.5</ele><time>2026-04-18T15:03:23Z</time></trkpt><trkpt lat="42.25653326680786" lon="11.817972284931042"><ele>163.0</ele><time>2026-04-18T15:03:24Z</time></trkpt><trkpt lat="42.25665387771656" lon="11.818132125057588"><ele>164.66666666666669</ele><time>2026-04-18T15:03:25Z</time></trkpt><trkpt lat="42.25678326985473" lon="11.818281243302833"><ele>166.33333333333334</ele><time>2026-04-18T15:03:26Z</time></trkpt><trkpt lat="42.25694046789453" lon="11.818436180827439"><ele>168.0</ele><time>2026-04-18T15:03:27Z</time></trkpt><trkpt lat="42.25712913515537" lon="11.818578192634098"><ele>170.33333333333334</ele><time>2026-04-18T15:03:28Z</time></trkpt><trkpt lat="42.25732255787585" lon="11.81871378384986"><ele>172.66666666666669</ele><time>2026-04-18T15:03:29Z</time></trkpt><trkpt lat="42.257521933442696" lon="11.81885920486085"><ele>175.0</ele><time>2026-04-18T15:03:30Z</time></trkpt><trkpt lat="42.25769824495044" lon="11.819001177323699"><ele>175.0</ele><time>2026-04-18T15:03:31Z</time></trkpt><trkpt lat="42.257848734172846" lon="11.819140344013327"><ele>175.0</ele><time>2026-04-18T15:03:32Z</time></trkpt><trkpt lat="42.25798890886172" lon="11.819280909613855"><ele>175.0</ele><time>2026-04-18T15:03:33Z</time></trkpt><trkpt lat="42.25811661414591" lon="11.819423980264116"><ele>177.0</ele><time>2026-04-18T15:03:34Z</time></trkpt><trkpt lat="42.258236365578135" lon="11.81957025999382"><ele>179.0</ele><time>2026-04-18T15:03:35Z</time></trkpt><trkpt lat="42.25836137539351" lon="11.819720208676271"><ele>181.0</ele><time>2026-04-18T15:03:36Z</time></trkpt><trkpt lat="42.25849111069916" lon="11.81987149432635"><ele>181.0</ele><time>2026-04-18T15:03:37Z</time></trkpt><trkpt lat="42.25860392602975" lon="11.82001375911052"><ele>181.0</ele><time>2026-04-18T15:03:38Z</time></trkpt><trkpt lat="42.25871095912755" lon="11.820140153307241"><ele>181.0</ele><time>2026-04-18T15:03:39Z</time></trkpt><trkpt lat="42.258806030431" lon="11.82026195245817"><ele>181.0</ele><time>2026-04-18T15:03:40Z</time></trkpt><trkpt lat="42.25889373602997" lon="11.820375365010328"><ele>182.60000000000002</ele><time>2026-04-18T15:03:41Z</time></trkpt><trkpt lat="42.258971847032235" lon="11.820476713080026"><ele>184.2</ele><time>2026-04-18T15:03:42Z</time></trkpt><trkpt lat="42.25904501942642" lon="11.820566874445214"><ele>185.8</ele><time>2026-04-18T15:03:43Z</time></trkpt><trkpt lat="42.25911637192481" lon="11.820654925472384"><ele>187.39999999999998</ele><time>2026-04-18T15:03:44.001Z</time></trkpt><trkpt lat="42.2592135251437" lon="11.820771540292135"><ele>189.0</ele><time>2026-04-18T15:03:45.001Z</time></trkpt><trkpt lat="42.259335394104305" lon="11.820920458845722"><ele>191.33333333333331</ele><time>2026-04-18T15:03:46.001Z</time></trkpt><trkpt lat="42.25946897007299" lon="11.821079295892806"><ele>193.66666666666666</ele><time>2026-04-18T15:03:47.001Z</time></trkpt><trkpt lat="42.25961892226509" lon="11.821252546928525"><ele>196.0</ele><time>2026-04-18T15:03:48.001Z</time></trkpt><trkpt lat="42.25976781305071" lon="11.821426976107407"><ele>197.75</ele><time>2026-04-18T15:03:49.001Z</time></trkpt><trkpt lat="42.259883476471764" lon="11.821566784772168"><ele>199.5</ele><time>2026-04-18T15:03:50.001Z</time></trkpt><trkpt lat="42.25997618036595" lon="11.821701605931937"><ele>201.25</ele><time>2026-04-18T15:03:51.001Z</time></trkpt><trkpt lat="42.260029224672515" lon="11.821852445826435"><ele>203.0</ele><time>2026-04-18T15:03:52.001Z</time></trkpt><trkpt lat="42.260039895231905" lon="11.822016806729032"><ele>203.66666666666669</ele><time>2026-04-18T15:03:53.001Z</time></trkpt><trkpt lat="42.26001090343087" lon="11.822190807276588"><ele>204.33333333333331</ele><time>2026-04-18T15:03:54.001Z</time></trkpt><trkpt lat="42.259956513943685" lon="11.822387034618995"><ele>205.0</ele><time>2026-04-18T15:03:55.001Z</time></trkpt><trkpt lat="42.259888309345364" lon="11.822610662640216"><ele>207.33333333333331</ele><time>2026-04-18T15:03:56.001Z</time></trkpt><trkpt lat="42.259826334913555" lon="11.822856677393732"><ele>209.66666666666669</ele><time>2026-04-18T15:03:57.001Z</time></trkpt><trkpt lat="42.25975880129616" lon="11.823138095285477"><ele>212.0</ele><time>2026-04-18T15:03:58.001Z</time></trkpt><trkpt lat="42.25968252732416" lon="11.823444735628335"><ele>213.33333333333334</ele><time>2026-04-18T15:03:59.001Z</time></trkpt><trkpt lat="42.259624946807904" lon="11.823724907815807"><ele>214.66666666666669</ele><time>2026-04-18T15:04:00.001Z</time></trkpt><trkpt lat="42.25959913354308" lon="11.823981636665682"><ele>216.0</ele><time>2026-04-18T15:04:01.001Z</time></trkpt><trkpt lat="42.2596130322316" lon="11.82423342408514"><ele>216.33333333333331</ele><time>2026-04-18T15:04:02.001Z</time></trkpt><trkpt lat="42.25965870934765" lon="11.824486907954965"><ele>216.66666666666666</ele><time>2026-04-18T15:04:03.001Z</time></trkpt><trkpt lat="42.25974088299373" lon="11.824741179402034"><ele>217.0</ele><time>2026-04-18T15:04:04.001Z</time></trkpt><trkpt lat="42.259826346428724" lon="11.824990185234148"><ele>218.0</ele><time>2026-04-18T15:04:04.997Z</time></trkpt><trkpt lat="42.25991563127671" lon="11.825234718959349"><ele>219.0</ele><time>2026-04-18T15:04:05.997Z</time></trkpt><trkpt lat="42.260004540006896" lon="11.82545558540187"><ele>220.0</ele><time>2026-04-18T15:04:06.997Z</time></trkpt><trkpt lat="42.26009054342688" lon="11.825652672268557"><ele>220.0</ele><time>2026-04-18T15:04:07.997Z</time></trkpt><trkpt lat="42.260169439220206" lon="11.825836181551901"><ele>220.0</ele><time>2026-04-18T15:04:08.997Z</time></trkpt><trkpt lat="42.26023321447403" lon="11.826011305485885"><ele>220.0</ele><time>2026-04-18T15:04:09.997Z</time></trkpt><trkpt lat="42.26027818390218" lon="11.82618248833091"><ele>220.0</ele><time>2026-04-18T15:04:10.997Z</time></trkpt><trkpt lat="42.26030946838302" lon="11.82636713589315"><ele>220.33333333333331</ele><time>2026-04-18T15:04:11.997Z</time></trkpt><trkpt lat="42.26033161920843" lon="11.82658096290191"><ele>220.66666666666669</ele><time>2026-04-18T15:04:12.997Z</time></trkpt><trkpt lat="42.26034056104732" lon="11.826832568426639"><ele>221.0</ele><time>2026-04-18T15:04:13.997Z</time></trkpt><trkpt lat="42.260339184468954" lon="11.827119785207298"><ele>219.5</ele><time>2026-04-18T15:04:14.997Z</time></trkpt><trkpt lat="42.26032925476387" lon="11.827440014909447"><ele>218.0</ele><time>2026-04-18T15:04:15.997Z</time></trkpt><trkpt lat="42.26030085912022" lon="11.827786919708755"><ele>217.0</ele><time>2026-04-18T15:04:16.997Z</time></trkpt><trkpt lat="42.26026535700517" lon="11.828156440682184"><ele>216.0</ele><time>2026-04-18T15:04:17.998Z</time></trkpt><trkpt lat="42.26024607239378" lon="11.828539202799202"><ele>216.0</ele><time>2026-04-18T15:04:18.998Z</time></trkpt><trkpt lat="42.260224192513945" lon="11.828927928894071"><ele>216.0</ele><time>2026-04-18T15:04:19.998Z</time></trkpt><trkpt lat="42.26021428158351" lon="11.82924247042904"><ele>216.0</ele><time>2026-04-18T15:04:20.998Z</time></trkpt><trkpt lat="42.26020637650079" lon="11.829536514173281"><ele>216.0</ele><time>2026-04-18T15:04:21.998Z</time></trkpt><trkpt lat="42.260186626792915" lon="11.829832848580278"><ele>216.0</ele><time>2026-04-18T15:04:22.998Z</time></trkpt><trkpt lat="42.26015628647606" lon="11.830115868052006"><ele>216.33333333333331</ele><time>2026-04-18T15:04:23.998Z</time></trkpt><trkpt lat="42.26010025519153" lon="11.83039422833439"><ele>216.66666666666666</ele><time>2026-04-18T15:04:24.998Z</time></trkpt><trkpt lat="42.260037322205314" lon="11.830691671108937"><ele>217.0</ele><time>2026-04-18T15:04:25.998Z</time></trkpt><trkpt lat="42.259968727101715" lon="11.831004701604998"><ele>217.0</ele><time>2026-04-18T15:04:26.998Z</time></trkpt><trkpt lat="42.25990120719753" lon="11.831332363098824"><ele>217.0</ele><time>2026-04-18T15:04:27.998Z</time></trkpt><trkpt lat="42.25984181282249" lon="11.83161161247707"><ele>216.5</ele><time>2026-04-18T15:04:28.999Z</time></trkpt><trkpt lat="42.25978872444956" lon="11.831904813793546"><ele>216.0</ele><time>2026-04-18T15:04:29.999Z</time></trkpt><trkpt lat="42.25973514754601" lon="11.832334892067657"><ele>214.5</ele><time>2026-04-18T15:04:30.999Z</time></trkpt><trkpt lat="42.25969147478503" lon="11.83269813560224"><ele>213.0</ele><time>2026-04-18T15:04:31.999Z</time></trkpt><trkpt lat="42.2596496117919" lon="11.833088337649158"><ele>211.0</ele><time>2026-04-18T15:04:32.999Z</time></trkpt><trkpt lat="42.25961110203077" lon="11.833474194742804"><ele>209.0</ele><time>2026-04-18T15:04:33.999Z</time></trkpt><trkpt lat="42.259593700173504" lon="11.83380746112636"><ele>209.0</ele><time>2026-04-18T15:04:34.999Z</time></trkpt><trkpt lat="42.259594329994094" lon="11.834150545754884"><ele>209.0</ele><time>2026-04-18T15:04:35.999Z</time></trkpt><trkpt lat="42.25960223549022" lon="11.834494403438473"><ele>207.5</ele><time>2026-04-18T15:04:36.999Z</time></trkpt><trkpt lat="42.25961306170796" lon="11.834849954083715"><ele>206.0</ele><time>2026-04-18T15:04:37.999Z</time></trkpt><trkpt lat="42.2596285817195" lon="11.835194995584894"><ele>204.5</ele><time>2026-04-18T15:04:38.999Z</time></trkpt><trkpt lat="42.25964342592077" lon="11.835527330932571"><ele>203.0</ele><time>2026-04-18T15:04:39.999Z</time></trkpt><trkpt lat="42.25968268366758" lon="11.835857175400719"><ele>201.5</ele><time>2026-04-18T15:04:40.999Z</time></trkpt><trkpt lat="42.259734854517916" lon="11.836176319412168"><ele>200.0</ele><time>2026-04-18T15:04:41.999Z</time></trkpt><trkpt lat="42.25979072331468" lon="11.8364786796204"><ele>199.33333333333334</ele><time>2026-04-18T15:04:42.999Z</time></trkpt><trkpt lat="42.25984305374924" lon="11.836772169700383"><ele>198.66666666666669</ele><time>2026-04-18T15:04:43.999Z</time></trkpt><trkpt lat="42.25991498824893" lon="11.83705106012473"><ele>198.0</ele><time>2026-04-18T15:04:44.999Z</time></trkpt><trkpt lat="42.26000709142504" lon="11.837327185071361"><ele>197.0</ele><time>2026-04-18T15:04:45.999Z</time></trkpt><trkpt lat="42.2601337202913" lon="11.837594260065394"><ele>196.0</ele><time>2026-04-18T15:04:46.999Z</time></trkpt><trkpt lat="42.2602826311005" lon="11.837869149315797"><ele>195.0</ele><time>2026-04-18T15:04:48Z</time></trkpt><trkpt lat="42.260435835739464" lon="11.838132846145369"><ele>194.0</ele><time>2026-04-18T15:04:49Z</time></trkpt><trkpt lat="42.26057599123814" lon="11.838418834700585"><ele>191.0</ele><time>2026-04-18T15:04:50Z</time></trkpt><trkpt lat="42.26068542115087" lon="11.838714937747206"><ele>188.0</ele><time>2026-04-18T15:04:51Z</time></trkpt><trkpt lat="42.26078176772773" lon="11.83900825164382"><ele>187.0</ele><time>2026-04-18T15:04:52Z</time></trkpt><trkpt lat="42.26087306355487" lon="11.839324384515532"><ele>186.0</ele><time>2026-04-18T15:04:53Z</time></trkpt><trkpt lat="42.260950895463445" lon="11.839683301525762"><ele>186.0</ele><time>2026-04-18T15:04:54Z</time></trkpt><trkpt lat="42.2610359845654" lon="11.840032921364314"><ele>186.0</ele><time>2026-04-18T15:04:55Z</time></trkpt><trkpt lat="42.26110446891265" lon="11.840369710555441"><ele>185.5</ele><time>2026-04-18T15:04:56Z</time></trkpt><trkpt lat="42.26117389023716" lon="11.840689981130064"><ele>185.0</ele><time>2026-04-18T15:04:57Z</time></trkpt><trkpt lat="42.261239723294715" lon="11.840995387644856"><ele>182.5</ele><time>2026-04-18T15:04:58Z</time></trkpt><trkpt lat="42.26127550592038" lon="11.84132369453624"><ele>180.0</ele><time>2026-04-18T15:04:59Z</time></trkpt><trkpt lat="42.26134125568454" lon="11.841670357263865"><ele>177.5</ele><time>2026-04-18T15:05:00Z</time></trkpt><trkpt lat="42.26139002152935" lon="11.84204415686561"><ele>175.0</ele><time>2026-04-18T15:05:01Z</time></trkpt><trkpt lat="42.2614430374892" lon="11.842428609207612"><ele>173.0</ele><time>2026-04-18T15:05:02Z</time></trkpt><trkpt lat="42.26150090578683" lon="11.84278975578752"><ele>171.0</ele><time>2026-04-18T15:05:03Z</time></trkpt><trkpt lat="42.26153661009293" lon="11.843128532363783"><ele>171.0</ele><time>2026-04-18T15:05:04Z</time></trkpt><trkpt lat="42.261582292372786" lon="11.843437215477973"><ele>171.0</ele><time>2026-04-18T15:05:05Z</time></trkpt><trkpt lat="42.261623898372875" lon="11.843718360570799"><ele>171.0</ele><time>2026-04-18T15:05:06Z</time></trkpt><trkpt lat="42.26166357244108" lon="11.843986450972157"><ele>169.33333333333334</ele><time>2026-04-18T15:05:07Z</time></trkpt><trkpt lat="42.26173598038119" lon="11.844233022606138"><ele>167.66666666666669</ele><time>2026-04-18T15:05:08Z</time></trkpt><trkpt lat="42.26176461106528" lon="11.844482919114474"><ele>166.0</ele><time>2026-04-18T15:05:09Z</time></trkpt><trkpt lat="42.26177048953438" lon="11.844745154653236"><ele>163.5</ele><time>2026-04-18T15:05:10Z</time></trkpt><trkpt lat="42.26172490051064" lon="11.845061064899445"><ele>161.0</ele><time>2026-04-18T15:05:11Z</time></trkpt><trkpt lat="42.26168769292658" lon="11.845373674979278"><ele>159.0</ele><time>2026-04-18T15:05:12Z</time></trkpt><trkpt lat="42.26163589273869" lon="11.845712469078434"><ele>157.0</ele><time>2026-04-18T15:05:13Z</time></trkpt><trkpt lat="42.261624283905306" lon="11.846078408219457"><ele>155.5</ele><time>2026-04-18T15:05:14Z</time></trkpt><trkpt lat="42.26165136894191" lon="11.846479182297228"><ele>154.0</ele><time>2026-04-18T15:05:15Z</time></trkpt><trkpt lat="42.2616802487894" lon="11.846875426154414"><ele>152.5</ele><time>2026-04-18T15:05:16.001Z</time></trkpt><trkpt lat="42.26169132396644" lon="11.84723438838223"><ele>151.0</ele><time>2026-04-18T15:05:17.001Z</time></trkpt><trkpt lat="42.26169682647045" lon="11.847563330810669"><ele>151.5</ele><time>2026-04-18T15:05:18.001Z</time></trkpt><trkpt lat="42.26172115276712" lon="11.847878658455853"><ele>152.0</ele><time>2026-04-18T15:05:19.001Z</time></trkpt><trkpt lat="42.26176264387626" lon="11.848187175565744"><ele>152.5</ele><time>2026-04-18T15:05:20.001Z</time></trkpt><trkpt lat="42.26184582764621" lon="11.848522315411577"><ele>153.0</ele><time>2026-04-18T15:05:21.001Z</time></trkpt><trkpt lat="42.26193815603929" lon="11.84887273833606"><ele>153.0</ele><time>2026-04-18T15:05:22.001Z</time></trkpt><trkpt lat="42.26203719093298" lon="11.849218727394701"><ele>153.0</ele><time>2026-04-18T15:05:23.001Z</time></trkpt><trkpt lat="42.262145694204946" lon="11.849526920444774"><ele>153.0</ele><time>2026-04-18T15:05:24.001Z</time></trkpt><trkpt lat="42.26225117458679" lon="11.849814246655054"><ele>153.0</ele><time>2026-04-18T15:05:25.001Z</time></trkpt><trkpt lat="42.26235113519385" lon="11.850089742905123"><ele>150.33333333333334</ele><time>2026-04-18T15:05:26.001Z</time></trkpt><trkpt lat="42.26243052405535" lon="11.850360931325882"><ele>147.66666666666669</ele><time>2026-04-18T15:05:27.001Z</time></trkpt><trkpt lat="42.26249407045738" lon="11.85065736035552"><ele>145.0</ele><time>2026-04-18T15:05:28.001Z</time></trkpt><trkpt lat="42.262543319036226" lon="11.85099044581613"><ele>143.0</ele><time>2026-04-18T15:05:29.001Z</time></trkpt><trkpt lat="42.26257410149829" lon="11.85133535690757"><ele>141.0</ele><time>2026-04-18T15:05:30.001Z</time></trkpt><trkpt lat="42.26260026459253" lon="11.851649284572625"><ele>141.0</ele><time>2026-04-18T15:05:31.001Z</time></trkpt><trkpt lat="42.26261690503958" lon="11.851927746818166"><ele>141.0</ele><time>2026-04-18T15:05:32.001Z</time></trkpt><trkpt lat="42.26263592913434" lon="11.852189978687052"><ele>141.0</ele><time>2026-04-18T15:05:33.001Z</time></trkpt><trkpt lat="42.2626472956454" lon="11.85242367142554"><ele>142.0</ele><time>2026-04-18T15:05:34.001Z</time></trkpt><trkpt lat="42.26263450668775" lon="11.852631319996917"><ele>143.0</ele><time>2026-04-18T15:05:35.001Z</time></trkpt><trkpt lat="42.262582071567685" lon="11.852843320054474"><ele>144.0</ele><time>2026-04-18T15:05:36.001Z</time></trkpt><trkpt lat="42.26249058795836" lon="11.85307833762741"><ele>144.0</ele><time>2026-04-18T15:05:37.001Z</time></trkpt><trkpt lat="42.26238010987066" lon="11.853326913911575"><ele>144.0</ele><time>2026-04-18T15:05:38.001Z</time></trkpt><trkpt lat="42.2622796308663" lon="11.853595776198539"><ele>144.0</ele><time>2026-04-18T15:05:39.001Z</time></trkpt><trkpt lat="42.26222171927051" lon="11.85386678184904"><ele>144.33333333333334</ele><time>2026-04-18T15:05:40.001Z</time></trkpt><trkpt lat="42.262198325487034" lon="11.854148208532111"><ele>144.66666666666669</ele><time>2026-04-18T15:05:41.001Z</time></trkpt><trkpt lat="42.262206510423" lon="11.854463479626009"><ele>145.0</ele><time>2026-04-18T15:05:42.001Z</time></trkpt><trkpt lat="42.26223885683955" lon="11.854781332232037"><ele>145.5</ele><time>2026-04-18T15:05:43.001Z</time></trkpt><trkpt lat="42.26227995407815" lon="11.855088628443783"><ele>146.0</ele><time>2026-04-18T15:05:44.001Z</time></trkpt><trkpt lat="42.26231196260528" lon="11.85538989024295"><ele>147.33333333333331</ele><time>2026-04-18T15:05:45.001Z</time></trkpt><trkpt lat="42.262327325845014" lon="11.855631385087873"><ele>148.66666666666666</ele><time>2026-04-18T15:05:46.001Z</time></trkpt><trkpt lat="42.262333560959966" lon="11.85584168726355"><ele>150.0</ele><time>2026-04-18T15:05:47.001Z</time></trkpt><trkpt lat="42.2623374169448" lon="11.8560513265855"><ele>151.0</ele><time>2026-04-18T15:05:48.002Z</time></trkpt><trkpt lat="42.26234864513041" lon="11.856272585154029"><ele>152.0</ele><time>2026-04-18T15:05:49.002Z</time></trkpt><trkpt lat="42.2623659579387" lon="11.856477503770495"><ele>153.0</ele><time>2026-04-18T15:05:50.002Z</time></trkpt><trkpt lat="42.26239498570685" lon="11.856680155771912"><ele>152.0</ele><time>2026-04-18T15:05:51.002Z</time></trkpt><trkpt lat="42.26243989056011" lon="11.856933482741399"><ele>151.0</ele><time>2026-04-18T15:05:52.002Z</time></trkpt><trkpt lat="42.262499279666955" lon="11.857241716571533"><ele>150.0</ele><time>2026-04-18T15:05:53.002Z</time></trkpt><trkpt lat="42.26256459093908" lon="11.857583138784182"><ele>149.0</ele><time>2026-04-18T15:05:54.002Z</time></trkpt><trkpt lat="42.26263244779896" lon="11.857906479468676"><ele>148.0</ele><time>2026-04-18T15:05:55.002Z</time></trkpt><trkpt lat="42.26269795059395" lon="11.858233885112563"><ele>147.5</ele><time>2026-04-18T15:05:56.002Z</time></trkpt><trkpt lat="42.26275926535726" lon="11.858552982977274"><ele>147.0</ele><time>2026-04-18T15:05:57.002Z</time></trkpt><trkpt lat="42.262811692364615" lon="11.858843578636339"><ele>147.0</ele><time>2026-04-18T15:05:58.002Z</time></trkpt><trkpt lat="42.262859125047676" lon="11.859130827115889"><ele>147.0</ele><time>2026-04-18T15:05:59.002Z</time></trkpt><trkpt lat="42.26290009711159" lon="11.859392278008155"><ele>147.0</ele><time>2026-04-18T15:06:00.002Z</time></trkpt><trkpt lat="42.26293262392835" lon="11.859618572720512"><ele>148.0</ele><time>2026-04-18T15:06:01.002Z</time></trkpt><trkpt lat="42.26296201386552" lon="11.85982832596692"><ele>149.0</ele><time>2026-04-18T15:06:02.002Z</time></trkpt><trkpt lat="42.262997953112844" lon="11.860068365253515"><ele>150.0</ele><time>2026-04-18T15:06:03.002Z</time></trkpt><trkpt lat="42.263040854541956" lon="11.860367027266918"><ele>150.0</ele><time>2026-04-18T15:06:04.002Z</time></trkpt><trkpt lat="42.26308353199687" lon="11.86070994678986"><ele>150.0</ele><time>2026-04-18T15:06:05.002Z</time></trkpt><trkpt lat="42.263117732695214" lon="11.861062653668506"><ele>152.5</ele><time>2026-04-18T15:06:06.002Z</time></trkpt><trkpt lat="42.263162550837215" lon="11.86143333569155"><ele>155.0</ele><time>2026-04-18T15:06:07.002Z</time></trkpt><trkpt lat="42.263203750455" lon="11.861806178508626"><ele>155.5</ele><time>2026-04-18T15:06:08.002Z</time></trkpt><trkpt lat="42.26324755688256" lon="11.862199355060467"><ele>156.0</ele><time>2026-04-18T15:06:09.002Z</time></trkpt><trkpt lat="42.263287185741575" lon="11.862590813961196"><ele>156.5</ele><time>2026-04-18T15:06:10.002Z</time></trkpt><trkpt lat="42.26332418300445" lon="11.862958035840212"><ele>157.0</ele><time>2026-04-18T15:06:10.999Z</time></trkpt><trkpt lat="42.26335444683796" lon="11.863300625026076"><ele>157.5</ele><time>2026-04-18T15:06:11.999Z</time></trkpt><trkpt lat="42.26337887992039" lon="11.863632024726904"><ele>158.0</ele><time>2026-04-18T15:06:12.999Z</time></trkpt><trkpt lat="42.2634033044412" lon="11.863947775232592"><ele>158.0</ele><time>2026-04-18T15:06:13.999Z</time></trkpt><trkpt lat="42.263432473633465" lon="11.864248939827194"><ele>158.0</ele><time>2026-04-18T15:06:14.999Z</time></trkpt><trkpt lat="42.2634683993777" lon="11.864547144977912"><ele>158.0</ele><time>2026-04-18T15:06:15.999Z</time></trkpt><trkpt lat="42.26350966750873" lon="11.864850847860872"><ele>156.0</ele><time>2026-04-18T15:06:16.999Z</time></trkpt><trkpt lat="42.26354952630504" lon="11.865157994929248"><ele>154.0</ele><time>2026-04-18T15:06:17.999Z</time></trkpt><trkpt lat="42.263582014976635" lon="11.865473292901154"><ele>154.0</ele><time>2026-04-18T15:06:18.999Z</time></trkpt><trkpt lat="42.26359894204213" lon="11.865789535730727"><ele>154.0</ele><time>2026-04-18T15:06:19.999Z</time></trkpt><trkpt lat="42.26359816767791" lon="11.866105177996479"><ele>153.0</ele><time>2026-04-18T15:06:20.999Z</time></trkpt><trkpt lat="42.26358025644835" lon="11.86641666415697"><ele>152.0</ele><time>2026-04-18T15:06:21.999Z</time></trkpt><trkpt lat="42.26355051450256" lon="11.866737405028358"><ele>153.5</ele><time>2026-04-18T15:06:23Z</time></trkpt><trkpt lat="42.263489157453975" lon="11.867059669526114"><ele>155.0</ele><time>2026-04-18T15:06:24Z</time></trkpt><trkpt lat="42.26343525851525" lon="11.86740091115582"><ele>157.5</ele><time>2026-04-18T15:06:25Z</time></trkpt><trkpt lat="42.26337831972071" lon="11.867743818745106"><ele>160.0</ele><time>2026-04-18T15:06:26Z</time></trkpt><trkpt lat="42.26334396635444" lon="11.868051446836576"><ele>160.0</ele><time>2026-04-18T15:06:27Z</time></trkpt><trkpt lat="42.26329298521784" lon="11.86831982527931"><ele>160.0</ele><time>2026-04-18T15:06:28Z</time></trkpt><trkpt lat="42.263249591573654" lon="11.868558799557878"><ele>160.0</ele><time>2026-04-18T15:06:29Z</time></trkpt><trkpt lat="42.26321334979329" lon="11.868775520556328"><ele>161.0</ele><time>2026-04-18T15:06:30Z</time></trkpt><trkpt lat="42.26318455560476" lon="11.868982624767527"><ele>162.0</ele><time>2026-04-18T15:06:31Z</time></trkpt><trkpt lat="42.263161017031834" lon="11.8691847743992"><ele>163.0</ele><time>2026-04-18T15:06:32Z</time></trkpt><trkpt lat="42.26315240767342" lon="11.86939503363301"><ele>163.0</ele><time>2026-04-18T15:06:33Z</time></trkpt><trkpt lat="42.26316305614162" lon="11.869614896221481"><ele>163.0</ele><time>2026-04-18T15:06:34Z</time></trkpt><trkpt lat="42.26319649569757" lon="11.869830639255085"><ele>163.0</ele><time>2026-04-18T15:06:35Z</time></trkpt><trkpt lat="42.263248976970694" lon="11.8700364907565"><ele>162.33333333333334</ele><time>2026-04-18T15:06:36Z</time></trkpt><trkpt lat="42.26331152414934" lon="11.87022723835082"><ele>161.66666666666666</ele><time>2026-04-18T15:06:37Z</time></trkpt><trkpt lat="42.26337458545595" lon="11.870419250372143"><ele>161.0</ele><time>2026-04-18T15:06:38Z</time></trkpt><trkpt lat="42.26344562820405" lon="11.870620227144009"><ele>161.0</ele><time>2026-04-18T15:06:39Z</time></trkpt><trkpt lat="42.263528934686555" lon="11.870835657859162"><ele>161.0</ele><time>2026-04-18T15:06:40Z</time></trkpt><trkpt lat="42.263606211547916" lon="11.871117353138835"><ele>161.0</ele><time>2026-04-18T15:06:41Z</time></trkpt><trkpt lat="42.26371471277956" lon="11.871439533545415"><ele>160.0</ele><time>2026-04-18T15:06:42Z</time></trkpt><trkpt lat="42.26383648610147" lon="11.871801427932992"><ele>159.0</ele><time>2026-04-18T15:06:43Z</time></trkpt><trkpt lat="42.263974956044116" lon="11.872185421125184"><ele>159.0</ele><time>2026-04-18T15:06:44Z</time></trkpt><trkpt lat="42.26409409051814" lon="11.87257805977935"><ele>159.0</ele><time>2026-04-18T15:06:45.001Z</time></trkpt><trkpt lat="42.264220286194735" lon="11.872970979962274"><ele>159.5</ele><time>2026-04-18T15:06:46.001Z</time></trkpt><trkpt lat="42.26436054436771" lon="11.873388751870896"><ele>160.0</ele><time>2026-04-18T15:06:47.001Z</time></trkpt><trkpt lat="42.26450720325396" lon="11.873817366666048"><ele>160.5</ele><time>2026-04-18T15:06:48.001Z</time></trkpt><trkpt lat="42.26465232403214" lon="11.874261339566305"><ele>161.0</ele><time>2026-04-18T15:06:49.001Z</time></trkpt><trkpt lat="42.26479893448259" lon="11.874715491513115"><ele>162.5</ele><time>2026-04-18T15:06:50.001Z</time></trkpt><trkpt lat="42.264944288940086" lon="11.875163810897712"><ele>164.0</ele><time>2026-04-18T15:06:51.001Z</time></trkpt><trkpt lat="42.265082845723406" lon="11.87558984422034"><ele>164.5</ele><time>2026-04-18T15:06:52.001Z</time></trkpt><trkpt lat="42.26521034880604" lon="11.875985158056999"><ele>165.0</ele><time>2026-04-18T15:06:53.001Z</time></trkpt><trkpt lat="42.26532982490038" lon="11.876354736977374"><ele>165.0</ele><time>2026-04-18T15:06:54.001Z</time></trkpt><trkpt lat="42.26544250847358" lon="11.876704463255397"><ele>165.0</ele><time>2026-04-18T15:06:55.001Z</time></trkpt><trkpt lat="42.26555401876474" lon="11.877056207370027"><ele>164.5</ele><time>2026-04-18T15:06:56.001Z</time></trkpt><trkpt lat="42.265663939555196" lon="11.87738531017785"><ele>164.0</ele><time>2026-04-18T15:06:57.001Z</time></trkpt><trkpt lat="42.265766288447985" lon="11.877708471827916"><ele>164.0</ele><time>2026-04-18T15:06:58.001Z</time></trkpt><trkpt lat="42.26586695326952" lon="11.87802791487429"><ele>164.0</ele><time>2026-04-18T15:06:59.001Z</time></trkpt><trkpt lat="42.265961725064315" lon="11.878335979907282"><ele>163.66666666666666</ele><time>2026-04-18T15:07:00.001Z</time></trkpt><trkpt lat="42.26604630606362" lon="11.8786204171776"><ele>163.33333333333334</ele><time>2026-04-18T15:07:01.001Z</time></trkpt><trkpt lat="42.26612445271501" lon="11.878873084983"><ele>163.0</ele><time>2026-04-18T15:07:02.001Z</time></trkpt><trkpt lat="42.26620405944016" lon="11.879113298466265"><ele>163.0</ele><time>2026-04-18T15:07:03.001Z</time></trkpt><trkpt lat="42.26627832277991" lon="11.879359985403283"><ele>163.0</ele><time>2026-04-18T15:07:04.001Z</time></trkpt><trkpt lat="42.26634323102068" lon="11.87959708402161"><ele>163.0</ele><time>2026-04-18T15:07:05.001Z</time></trkpt><trkpt lat="42.26639481534697" lon="11.879842982721874"><ele>163.0</ele><time>2026-04-18T15:07:06.001Z</time></trkpt><trkpt lat="42.266442019102925" lon="11.880096753845944"><ele>163.0</ele><time>2026-04-18T15:07:07.001Z</time></trkpt><trkpt lat="42.266495145471" lon="11.880391072554545"><ele>163.0</ele><time>2026-04-18T15:07:08.001Z</time></trkpt><trkpt lat="42.26654850955442" lon="11.880726431952962"><ele>168.0</ele><time>2026-04-18T15:07:09.001Z</time></trkpt><trkpt lat="42.266574870775216" lon="11.881091425634262"><ele>173.0</ele><time>2026-04-18T15:07:10.001Z</time></trkpt><trkpt lat="42.266594858598246" lon="11.881478955553103"><ele>172.5</ele><time>2026-04-18T15:07:11.001Z</time></trkpt><trkpt lat="42.26662888071434" lon="11.88185128705464"><ele>172.0</ele><time>2026-04-18T15:07:12.001Z</time></trkpt><trkpt lat="42.266663914594425" lon="11.882180148893715"><ele>172.0</ele><time>2026-04-18T15:07:13.001Z</time></trkpt><trkpt lat="42.266696994351825" lon="11.882479663905123"><ele>172.0</ele><time>2026-04-18T15:07:14.001Z</time></trkpt><trkpt lat="42.26672348413731" lon="11.882771228656019"><ele>172.0</ele><time>2026-04-18T15:07:15.002Z</time></trkpt><trkpt lat="42.26674801058273" lon="11.883062431518148"><ele>172.33333333333334</ele><time>2026-04-18T15:07:16.002Z</time></trkpt><trkpt lat="42.26677487792712" lon="11.883341313928456"><ele>172.66666666666666</ele><time>2026-04-18T15:07:17.002Z</time></trkpt><trkpt lat="42.26680203671189" lon="11.883595139566424"><ele>173.0</ele><time>2026-04-18T15:07:18.002Z</time></trkpt><trkpt lat="42.26682641307182" lon="11.883839435870184"><ele>174.33333333333331</ele><time>2026-04-18T15:07:19.002Z</time></trkpt><trkpt lat="42.266849419469715" lon="11.884086629859812"><ele>175.66666666666666</ele><time>2026-04-18T15:07:20.002Z</time></trkpt><trkpt lat="42.26687408491814" lon="11.884346622066541"><ele>177.0</ele><time>2026-04-18T15:07:21.002Z</time></trkpt><trkpt lat="42.2669107655526" lon="11.884629229146203"><ele>179.0</ele><time>2026-04-18T15:07:22.002Z</time></trkpt><trkpt lat="42.2669488634958" lon="11.884945639397488"><ele>181.0</ele><time>2026-04-18T15:07:23.002Z</time></trkpt><trkpt lat="42.26697132547434" lon="11.885301183222428"><ele>181.5</ele><time>2026-04-18T15:07:24.002Z</time></trkpt><trkpt lat="42.26698832257871" lon="11.885673593388267"><ele>182.0</ele><time>2026-04-18T15:07:25.002Z</time></trkpt><trkpt lat="42.26702228642146" lon="11.886065491812241"><ele>182.0</ele><time>2026-04-18T15:07:26.002Z</time></trkpt><trkpt lat="42.26706324226644" lon="11.886467790172537"><ele>182.0</ele><time>2026-04-18T15:07:27.002Z</time></trkpt><trkpt lat="42.26710026395164" lon="11.886858873242819"><ele>182.0</ele><time>2026-04-18T15:07:28.002Z</time></trkpt><trkpt lat="42.267135636721335" lon="11.88722159766076"><ele>182.0</ele><time>2026-04-18T15:07:29.002Z</time></trkpt><trkpt lat="42.26716734128677" lon="11.887553491096515"><ele>182.5</ele><time>2026-04-18T15:07:30.002Z</time></trkpt><trkpt lat="42.267196356045396" lon="11.887867010704083"><ele>183.0</ele><time>2026-04-18T15:07:31.002Z</time></trkpt><trkpt lat="42.26722488481739" lon="11.888181606371386"><ele>184.0</ele><time>2026-04-18T15:07:32.002Z</time></trkpt><trkpt lat="42.26725154186667" lon="11.888501637302054"><ele>185.0</ele><time>2026-04-18T15:07:33.002Z</time></trkpt><trkpt lat="42.26727524387353" lon="11.888815071069136"><ele>187.33333333333331</ele><time>2026-04-18T15:07:34.002Z</time></trkpt><trkpt lat="42.26729452055245" lon="11.889117265571432"><ele>189.66666666666666</ele><time>2026-04-18T15:07:35.002Z</time></trkpt><trkpt lat="42.26731115091836" lon="11.889414921862087"><ele>192.0</ele><time>2026-04-18T15:07:36.002Z</time></trkpt><trkpt lat="42.26732382475269" lon="11.889673208439106"><ele>192.75</ele><time>2026-04-18T15:07:37.002Z</time></trkpt><trkpt lat="42.2673313906403" lon="11.889878160028413"><ele>193.5</ele><time>2026-04-18T15:07:38.002Z</time></trkpt><trkpt lat="42.2673380306484" lon="11.890068416699645"><ele>194.25</ele><time>2026-04-18T15:07:39.002Z</time></trkpt><trkpt lat="42.267343845897855" lon="11.890252326546014"><ele>195.0</ele><time>2026-04-18T15:07:40.002Z</time></trkpt><trkpt lat="42.26734757330268" lon="11.890424250333652"><ele>195.5</ele><time>2026-04-18T15:07:41.002Z</time></trkpt><trkpt lat="42.26735215303407" lon="11.890595361518846"><ele>196.0</ele><time>2026-04-18T15:07:42.002Z</time></trkpt><trkpt lat="42.267360289749085" lon="11.890773878032373"><ele>196.5</ele><time>2026-04-18T15:07:43.002Z</time></trkpt><trkpt lat="42.26736851285769" lon="11.890945381254332"><ele>197.0</ele><time>2026-04-18T15:07:44.002Z</time></trkpt><trkpt lat="42.26737702827911" lon="11.891086300743206"><ele>197.8</ele><time>2026-04-18T15:07:45.002Z</time></trkpt><trkpt lat="42.267384135071886" lon="11.891218834735463"><ele>198.6</ele><time>2026-04-18T15:07:46.002Z</time></trkpt><trkpt lat="42.26739021485995" lon="11.891358183161678"><ele>199.4</ele><time>2026-04-18T15:07:47.002Z</time></trkpt><trkpt lat="42.26739653630283" lon="11.891509916196812"><ele>200.20000000000002</ele><time>2026-04-18T15:07:48.002Z</time></trkpt><trkpt lat="42.267401311993055" lon="11.891662236111667"><ele>201.0</ele><time>2026-04-18T15:07:49.003Z</time></trkpt><trkpt lat="42.26740725420894" lon="11.891815168819"><ele>202.0</ele><time>2026-04-18T15:07:50.003Z</time></trkpt><trkpt lat="42.26741317487051" lon="11.891960563817454"><ele>203.0</ele><time>2026-04-18T15:07:51.003Z</time></trkpt><trkpt lat="42.267414883578304" lon="11.892106215766157"><ele>204.0</ele><time>2026-04-18T15:07:52.003Z</time></trkpt><trkpt lat="42.2674198226923" lon="11.892243945127285"><ele>205.0</ele><time>2026-04-18T15:07:53.003Z</time></trkpt><trkpt lat="42.26742883357745" lon="11.892370228485134"><ele>206.0</ele><time>2026-04-18T15:07:54.003Z</time></trkpt><trkpt lat="42.26743597330342" lon="11.892487416069963"><ele>206.83333333333334</ele><time>2026-04-18T15:07:55.003Z</time></trkpt><trkpt lat="42.267442178705515" lon="11.892604444920284"><ele>207.66666666666669</ele><time>2026-04-18T15:07:56.003Z</time></trkpt><trkpt lat="42.26745012889185" lon="11.892718713363628"><ele>208.5</ele><time>2026-04-18T15:07:57.003Z</time></trkpt><trkpt lat="42.26745760367802" lon="11.892812418938684"><ele>209.33333333333331</ele><time>2026-04-18T15:07:58.003Z</time></trkpt><trkpt lat="42.26746632909114" lon="11.892949205596679"><ele>210.16666666666666</ele><time>2026-04-18T15:08:00.003Z</time></trkpt><trkpt lat="42.26747171032183" lon="11.893092230850282"><ele>211.0</ele><time>2026-04-18T15:08:02.003Z</time></trkpt><trkpt lat="42.267473640288976" lon="11.893214196956485"><ele>211.0</ele><time>2026-04-18T15:08:03.003Z</time></trkpt><trkpt lat="42.26747514916976" lon="11.893378315730256"><ele>211.0</ele><time>2026-04-18T15:08:04.003Z</time></trkpt><trkpt lat="42.26748098077739" lon="11.893560637170362"><ele>211.0</ele><time>2026-04-18T15:08:05.003Z</time></trkpt><trkpt lat="42.26748626878935" lon="11.893710537583436"><ele>211.0</ele><time>2026-04-18T15:08:06.003Z</time></trkpt><trkpt lat="42.2674931862074" lon="11.893872440029167"><ele>211.75</ele><time>2026-04-18T15:08:07.003Z</time></trkpt><trkpt lat="42.26750116798906" lon="11.894048696008603"><ele>212.5</ele><time>2026-04-18T15:08:08.003Z</time></trkpt><trkpt lat="42.26750583233279" lon="11.894230180435443"><ele>213.25</ele><time>2026-04-18T15:08:09.003Z</time></trkpt><trkpt lat="42.26750944841326" lon="11.894423416062377"><ele>214.0</ele><time>2026-04-18T15:08:10.003Z</time></trkpt><trkpt lat="42.26750555790205" lon="11.894642314825205"><ele>214.75</ele><time>2026-04-18T15:08:11.003Z</time></trkpt><trkpt lat="42.26749535453985" lon="11.894863039237025"><ele>215.5</ele><time>2026-04-18T15:08:12.003Z</time></trkpt><trkpt lat="42.267484927554825" lon="11.895057664975837"><ele>216.25</ele><time>2026-04-18T15:08:13.003Z</time></trkpt><trkpt lat="42.267475087310416" lon="11.895242757618188"><ele>217.0</ele><time>2026-04-18T15:08:14.003Z</time></trkpt><trkpt lat="42.26746790514587" lon="11.895430732031484"><ele>219.25</ele><time>2026-04-18T15:08:15.003Z</time></trkpt><trkpt lat="42.267464265169174" lon="11.895614623157732"><ele>221.5</ele><time>2026-04-18T15:08:16.003Z</time></trkpt><trkpt lat="42.26746833826724" lon="11.895796300878757"><ele>223.75</ele><time>2026-04-18T15:08:17.001Z</time></trkpt><trkpt lat="42.26748395655184" lon="11.895994473785695"><ele>226.0</ele><time>2026-04-18T15:08:18.001Z</time></trkpt><trkpt lat="42.26750329635473" lon="11.896192437822235"><ele>226.75</ele><time>2026-04-18T15:08:19.001Z</time></trkpt><trkpt lat="42.267520700630214" lon="11.896367327226912"><ele>227.5</ele><time>2026-04-18T15:08:20.001Z</time></trkpt><trkpt lat="42.26754116160178" lon="11.896523706252804"><ele>228.25</ele><time>2026-04-18T15:08:21.001Z</time></trkpt><trkpt lat="42.26756345672438" lon="11.89666921793511"><ele>229.0</ele><time>2026-04-18T15:08:22.001Z</time></trkpt><trkpt lat="42.26758923110725" lon="11.896809973329997"><ele>230.0</ele><time>2026-04-18T15:08:23.001Z</time></trkpt><trkpt lat="42.267607513476406" lon="11.896941042861524"><ele>230.99999999999997</ele><time>2026-04-18T15:08:24.001Z</time></trkpt><trkpt lat="42.26761636344451" lon="11.89706325116954"><ele>231.99999999999997</ele><time>2026-04-18T15:08:25.001Z</time></trkpt><trkpt lat="42.26761449678255" lon="11.897192759277964"><ele>233.0</ele><time>2026-04-18T15:08:26.001Z</time></trkpt><trkpt lat="42.26760836266726" lon="11.897332948869739"><ele>234.0</ele><time>2026-04-18T15:08:27.001Z</time></trkpt><trkpt lat="42.26762725196114" lon="11.897473482914704"><ele>234.5</ele><time>2026-04-18T15:08:28.001Z</time></trkpt><trkpt lat="42.26768046746715" lon="11.897620688850726"><ele>235.0</ele><time>2026-04-18T15:08:29.001Z</time></trkpt><trkpt lat="42.26773904596161" lon="11.897776414876857"><ele>235.5</ele><time>2026-04-18T15:08:30.001Z</time></trkpt><trkpt lat="42.26779356228257" lon="11.897929056579324"><ele>236.0</ele><time>2026-04-18T15:08:31.001Z</time></trkpt><trkpt lat="42.267847534209736" lon="11.898066323534088"><ele>236.0</ele><time>2026-04-18T15:08:32.001Z</time></trkpt><trkpt lat="42.26790625215918" lon="11.89819937254571"><ele>236.0</ele><time>2026-04-18T15:08:33.001Z</time></trkpt><trkpt lat="42.267972650662344" lon="11.898335833354842"><ele>236.0</ele><time>2026-04-18T15:08:34.001Z</time></trkpt><trkpt lat="42.26804053525033" lon="11.898474284632213"><ele>236.0</ele><time>2026-04-18T15:08:35.001Z</time></trkpt><trkpt lat="42.268102310090725" lon="11.898604571268917"><ele>236.16666666666669</ele><time>2026-04-18T15:08:36.001Z</time></trkpt><trkpt lat="42.26814745998606" lon="11.898708654024757"><ele>236.33333333333334</ele><time>2026-04-18T15:08:37.001Z</time></trkpt><trkpt lat="42.26818678285657" lon="11.898786187597604"><ele>236.5</ele><time>2026-04-18T15:08:38.001Z</time></trkpt><trkpt lat="42.2682519247942" lon="11.898922966384026"><ele>236.66666666666669</ele><time>2026-04-18T15:08:40.001Z</time></trkpt><trkpt lat="42.26828750994725" lon="11.898998760868654"><ele>236.83333333333334</ele><time>2026-04-18T15:08:41.001Z</time></trkpt><trkpt lat="42.268326710630824" lon="11.899078539372036"><ele>237.0</ele><time>2026-04-18T15:08:42.001Z</time></trkpt><trkpt lat="42.268368506129534" lon="11.899165101584554"><ele>237.2</ele><time>2026-04-18T15:08:43.001Z</time></trkpt><trkpt lat="42.2684153098249" lon="11.89925451140926"><ele>237.39999999999998</ele><time>2026-04-18T15:08:44.001Z</time></trkpt><trkpt lat="42.26846330789642" lon="11.899357093509805"><ele>237.60000000000002</ele><time>2026-04-18T15:08:45.001Z</time></trkpt><trkpt lat="42.268512494708304" lon="11.899463609268956"><ele>237.8</ele><time>2026-04-18T15:08:46.001Z</time></trkpt><trkpt lat="42.26856469555347" lon="11.899573977410641"><ele>238.0</ele><time>2026-04-18T15:08:47.001Z</time></trkpt><trkpt lat="42.268620834509726" lon="11.899692303878535"><ele>238.0</ele><time>2026-04-18T15:08:48.001Z</time></trkpt><trkpt lat="42.26868910908616" lon="11.89983504276255"><ele>238.0</ele><time>2026-04-18T15:08:49.001Z</time></trkpt><trkpt lat="42.26876451126819" lon="11.899986509320197"><ele>238.0</ele><time>2026-04-18T15:08:50.001Z</time></trkpt><trkpt lat="42.26883652526784" lon="11.900136168514871"><ele>238.0</ele><time>2026-04-18T15:08:51.001Z</time></trkpt><trkpt lat="42.26890547677722" lon="11.900272936424852"><ele>238.75</ele><time>2026-04-18T15:08:52.001Z</time></trkpt><trkpt lat="42.26897356476332" lon="11.900411202957148"><ele>239.5</ele><time>2026-04-18T15:08:53.001Z</time></trkpt><trkpt lat="42.26903955563117" lon="11.900548614086894"><ele>240.25</ele><time>2026-04-18T15:08:54.001Z</time></trkpt><trkpt lat="42.269101484729354" lon="11.900676593439782"><ele>241.0</ele><time>2026-04-18T15:08:55.001Z</time></trkpt><trkpt lat="42.269162671793644" lon="11.900804513838835"><ele>240.25</ele><time>2026-04-18T15:08:56.001Z</time></trkpt><trkpt lat="42.26922191086302" lon="11.90093049525997"><ele>239.5</ele><time>2026-04-18T15:08:57.001Z</time></trkpt><trkpt lat="42.26928462504697" lon="11.901056677462215"><ele>238.75</ele><time>2026-04-18T15:08:58.001Z</time></trkpt><trkpt lat="42.26935135972886" lon="11.901191762450331"><ele>238.0</ele><time>2026-04-18T15:08:59.001Z</time></trkpt><trkpt lat="42.26941769921266" lon="11.901327021361928"><ele>238.0</ele><time>2026-04-18T15:09:00.001Z</time></trkpt><trkpt lat="42.26948568538328" lon="11.901468089554104"><ele>238.0</ele><time>2026-04-18T15:09:01.001Z</time></trkpt><trkpt lat="42.2695531498679" lon="11.90161218249436"><ele>238.0</ele><time>2026-04-18T15:09:02.001Z</time></trkpt><trkpt lat="42.26962117240838" lon="11.901753891851369"><ele>238.0</ele><time>2026-04-18T15:09:03.001Z</time></trkpt><trkpt lat="42.26968695239181" lon="11.901884989350398"><ele>237.5</ele><time>2026-04-18T15:09:04.001Z</time></trkpt><trkpt lat="42.269754720403164" lon="11.902012100925777"><ele>237.0</ele><time>2026-04-18T15:09:05.001Z</time></trkpt><trkpt lat="42.2698253985434" lon="11.90213311138519"><ele>236.5</ele><time>2026-04-18T15:09:06.001Z</time></trkpt><trkpt lat="42.2699049310255" lon="11.902260572593367"><ele>236.0</ele><time>2026-04-18T15:09:07.001Z</time></trkpt><trkpt lat="42.26998910887593" lon="11.902394999163949"><ele>236.0</ele><time>2026-04-18T15:09:08.001Z</time></trkpt><trkpt lat="42.27007645173918" lon="11.90253335165991"><ele>236.0</ele><time>2026-04-18T15:09:09.001Z</time></trkpt><trkpt lat="42.270161103030006" lon="11.902668569596347"><ele>236.0</ele><time>2026-04-18T15:09:10.001Z</time></trkpt><trkpt lat="42.270242154154474" lon="11.902797615528689"><ele>236.0</ele><time>2026-04-18T15:09:11.001Z</time></trkpt><trkpt lat="42.27032633482925" lon="11.902931946466605"><ele>234.75</ele><time>2026-04-18T15:09:12.001Z</time></trkpt><trkpt lat="42.27041233977874" lon="11.90306867783184"><ele>233.5</ele><time>2026-04-18T15:09:13.001Z</time></trkpt><trkpt lat="42.27049526468613" lon="11.903200933049567"><ele>232.25</ele><time>2026-04-18T15:09:14.001Z</time></trkpt><trkpt lat="42.27057129306" lon="11.903319567041073"><ele>231.0</ele><time>2026-04-18T15:09:15.001Z</time></trkpt><trkpt lat="42.27064236165731" lon="11.90343094304629"><ele>230.60000000000002</ele><time>2026-04-18T15:09:16.001Z</time></trkpt><trkpt lat="42.27071172443362" lon="11.90354171138989"><ele>230.20000000000002</ele><time>2026-04-18T15:09:17.001Z</time></trkpt><trkpt lat="42.270772739774685" lon="11.903643217943367"><ele>229.79999999999998</ele><time>2026-04-18T15:09:18.001Z</time></trkpt><trkpt lat="42.270813247542065" lon="11.903742166214434"><ele>229.39999999999998</ele><time>2026-04-18T15:09:19.001Z</time></trkpt><trkpt lat="42.27084782587582" lon="11.903859622608696"><ele>229.0</ele><time>2026-04-18T15:09:21.001Z</time></trkpt><trkpt lat="42.270712739864166" lon="11.903976932048137"><ele>229.0</ele><time>2026-04-18T15:09:22.001Z</time></trkpt><trkpt lat="42.27064262495279" lon="11.904042157188943"><ele>228.99999999999997</ele><time>2026-04-18T15:09:23.001Z</time></trkpt><trkpt lat="42.270726798982466" lon="11.904022582453914"><ele>228.99999999999997</ele><time>2026-04-18T15:38:22Z</time></trkpt><trkpt lat="42.270783578096314" lon="11.903974358363426"><ele>229.0</ele><time>2026-04-18T15:38:23Z</time></trkpt><trkpt lat="42.2708523392544" lon="11.903931888228707"><ele>229.0</ele><time>2026-04-18T15:38:24Z</time></trkpt><trkpt lat="42.27100578126531" lon="11.903984597585524"><ele>229.0</ele><time>2026-04-18T15:38:27Z</time></trkpt><trkpt lat="42.2710687507919" lon="11.904075268824428"><ele>228.99999999999997</ele><time>2026-04-18T15:38:28Z</time></trkpt><trkpt lat="42.271134618013996" lon="11.904180380381572"><ele>228.99999999999997</ele><time>2026-04-18T15:38:29Z</time></trkpt><trkpt lat="42.27120635767097" lon="11.904301049593952"><ele>229.0</ele><time>2026-04-18T15:38:30Z</time></trkpt><trkpt lat="42.27127647445883" lon="11.904416188434293"><ele>229.0</ele><time>2026-04-18T15:38:31Z</time></trkpt><trkpt lat="42.271343064192145" lon="11.904524153560603"><ele>228.2</ele><time>2026-04-18T15:38:32Z</time></trkpt><trkpt lat="42.27140501160018" lon="11.904625187336276"><ele>227.39999999999998</ele><time>2026-04-18T15:38:33Z</time></trkpt><trkpt lat="42.27146453488094" lon="11.904733506233152"><ele>226.6</ele><time>2026-04-18T15:38:34Z</time></trkpt><trkpt lat="42.27152602504008" lon="11.904834894955695"><ele>225.8</ele><time>2026-04-18T15:38:35Z</time></trkpt><trkpt lat="42.27159496282945" lon="11.904931382523982"><ele>225.0</ele><time>2026-04-18T15:38:36Z</time></trkpt><trkpt lat="42.27165913779287" lon="11.905026767845996"><ele>224.5</ele><time>2026-04-18T15:38:37Z</time></trkpt><trkpt lat="42.2717311368597" lon="11.905141761545057"><ele>224.0</ele><time>2026-04-18T15:38:38Z</time></trkpt><trkpt lat="42.27180457885699" lon="11.905263235705787"><ele>223.5</ele><time>2026-04-18T15:38:39Z</time></trkpt><trkpt lat="42.27187936440693" lon="11.905391564254323"><ele>223.0</ele><time>2026-04-18T15:38:40Z</time></trkpt><trkpt lat="42.27196174713875" lon="11.90552249812535"><ele>223.0</ele><time>2026-04-18T15:38:41Z</time></trkpt><trkpt lat="42.272050423129635" lon="11.905665853376616"><ele>223.0</ele><time>2026-04-18T15:38:42Z</time></trkpt><trkpt lat="42.272137630377266" lon="11.90580810970917"><ele>223.0</ele><time>2026-04-18T15:38:43Z</time></trkpt><trkpt lat="42.27222391629989" lon="11.90594431669606"><ele>223.0</ele><time>2026-04-18T15:38:44Z</time></trkpt><trkpt lat="42.27231065679269" lon="11.906077757026546"><ele>222.5</ele><time>2026-04-18T15:38:45Z</time></trkpt><trkpt lat="42.2723952598637" lon="11.906211582560573"><ele>222.0</ele><time>2026-04-18T15:38:46Z</time></trkpt><trkpt lat="42.27248633542838" lon="11.90635426926577"><ele>221.5</ele><time>2026-04-18T15:38:47Z</time></trkpt><trkpt lat="42.27257502233019" lon="11.90649428883539"><ele>221.0</ele><time>2026-04-18T15:38:48Z</time></trkpt><trkpt lat="42.27266101405974" lon="11.906624574430042"><ele>220.5</ele><time>2026-04-18T15:38:49Z</time></trkpt><trkpt lat="42.2727381414447" lon="11.906750316625919"><ele>220.0</ele><time>2026-04-18T15:38:50Z</time></trkpt><trkpt lat="42.27281360483049" lon="11.906878769625258"><ele>219.5</ele><time>2026-04-18T15:38:51Z</time></trkpt><trkpt lat="42.272893340129194" lon="11.907005329350307"><ele>219.0</ele><time>2026-04-18T15:38:52Z</time></trkpt><trkpt lat="42.2729770181967" lon="11.9071374962214"><ele>219.0</ele><time>2026-04-18T15:38:53Z</time></trkpt><trkpt lat="42.27305544408666" lon="11.907270977672322"><ele>219.0</ele><time>2026-04-18T15:38:54Z</time></trkpt><trkpt lat="42.27313521485329" lon="11.907403191070776"><ele>219.0</ele><time>2026-04-18T15:38:55Z</time></trkpt><trkpt lat="42.27321396232317" lon="11.907527070107244"><ele>219.0</ele><time>2026-04-18T15:38:56Z</time></trkpt><trkpt lat="42.27329147958158" lon="11.90764921324097"><ele>218.5</ele><time>2026-04-18T15:38:57Z</time></trkpt><trkpt lat="42.2733681427832" lon="11.907777269186568"><ele>218.0</ele><time>2026-04-18T15:38:58Z</time></trkpt><trkpt lat="42.273451481829426" lon="11.907907320057069"><ele>217.5</ele><time>2026-04-18T15:38:59Z</time></trkpt><trkpt lat="42.27353960125931" lon="11.908040145813853"><ele>217.0</ele><time>2026-04-18T15:39:00Z</time></trkpt><trkpt lat="42.27362857901826" lon="11.908179695578069"><ele>217.0</ele><time>2026-04-18T15:39:01Z</time></trkpt><trkpt lat="42.2737205583277" lon="11.908331320638862"><ele>217.0</ele><time>2026-04-18T15:39:02Z</time></trkpt><trkpt lat="42.27382596173803" lon="11.908483643981318"><ele>217.0</ele><time>2026-04-18T15:39:03Z</time></trkpt><trkpt lat="42.27392974577401" lon="11.908646972667857"><ele>216.66666666666666</ele><time>2026-04-18T15:39:04Z</time></trkpt><trkpt lat="42.274030092481695" lon="11.908809069873802"><ele>216.33333333333331</ele><time>2026-04-18T15:39:05Z</time></trkpt><trkpt lat="42.27413584149371" lon="11.908982870370481"><ele>216.0</ele><time>2026-04-18T15:39:06Z</time></trkpt><trkpt lat="42.2742411699264" lon="11.909153519831763"><ele>214.33333333333331</ele><time>2026-04-18T15:39:07Z</time></trkpt><trkpt lat="42.27434638000049" lon="11.909315754380561"><ele>212.66666666666666</ele><time>2026-04-18T15:39:08Z</time></trkpt><trkpt lat="42.27445632249043" lon="11.909481894536054"><ele>211.0</ele><time>2026-04-18T15:39:09Z</time></trkpt><trkpt lat="42.27457016618109" lon="11.909655202634982"><ele>211.0</ele><time>2026-04-18T15:39:10Z</time></trkpt><trkpt lat="42.27467110780075" lon="11.909847925770714"><ele>211.0</ele><time>2026-04-18T15:39:11Z</time></trkpt><trkpt lat="42.274788589024915" lon="11.910018729541525"><ele>211.0</ele><time>2026-04-18T15:39:12Z</time></trkpt><trkpt lat="42.27490138411569" lon="11.910199387528698"><ele>210.0</ele><time>2026-04-18T15:39:13Z</time></trkpt><trkpt lat="42.27501910078508" lon="11.91038078219587"><ele>209.0</ele><time>2026-04-18T15:39:14Z</time></trkpt><trkpt lat="42.27514103101563" lon="11.910557624935802"><ele>208.0</ele><time>2026-04-18T15:39:15Z</time></trkpt><trkpt lat="42.275264164221205" lon="11.91074854609894"><ele>207.33333333333331</ele><time>2026-04-18T15:39:16Z</time></trkpt><trkpt lat="42.275385723042916" lon="11.910968120151333"><ele>206.66666666666669</ele><time>2026-04-18T15:39:17Z</time></trkpt><trkpt lat="42.275553321925145" lon="11.911202923948933"><ele>206.0</ele><time>2026-04-18T15:39:18Z</time></trkpt><trkpt lat="42.27569261448892" lon="11.911432093829838"><ele>205.0</ele><time>2026-04-18T15:39:19Z</time></trkpt><trkpt lat="42.275830314858645" lon="11.911657720567357"><ele>204.0</ele><time>2026-04-18T15:39:20Z</time></trkpt><trkpt lat="42.27596934549222" lon="11.91187797851178"><ele>203.0</ele><time>2026-04-18T15:39:21Z</time></trkpt><trkpt lat="42.27611023690015" lon="11.91210232723266"><ele>203.0</ele><time>2026-04-18T15:39:22Z</time></trkpt><trkpt lat="42.2761891945012" lon="11.912235906597955"><ele>203.0</ele><time>2026-04-18T15:39:23Z</time></trkpt><trkpt lat="42.27633446873506" lon="11.912462854741616"><ele>203.0</ele><time>2026-04-18T15:39:24Z</time></trkpt><trkpt lat="42.27647606521213" lon="11.912685037252478"><ele>202.33333333333334</ele><time>2026-04-18T15:39:25Z</time></trkpt><trkpt lat="42.27661209825402" lon="11.912891430828193"><ele>201.66666666666669</ele><time>2026-04-18T15:39:26Z</time></trkpt><trkpt lat="42.27674692094415" lon="11.913105374808598"><ele>201.0</ele><time>2026-04-18T15:39:27Z</time></trkpt><trkpt lat="42.27688331425042" lon="11.91332288123539"><ele>201.33333333333331</ele><time>2026-04-18T15:39:28Z</time></trkpt><trkpt lat="42.27701662698355" lon="11.913539558966697"><ele>201.66666666666666</ele><time>2026-04-18T15:39:29Z</time></trkpt><trkpt lat="42.27715030367428" lon="11.913769725131637"><ele>202.0</ele><time>2026-04-18T15:39:30Z</time></trkpt><trkpt lat="42.277267489861295" lon="11.914005799049692"><ele>201.33333333333331</ele><time>2026-04-18T15:39:31Z</time></trkpt><trkpt lat="42.27738310585867" lon="11.91423787115975"><ele>200.66666666666669</ele><time>2026-04-18T15:39:32Z</time></trkpt><trkpt lat="42.2774965353689" lon="11.91446054125156"><ele>200.0</ele><time>2026-04-18T15:39:33Z</time></trkpt><trkpt lat="42.27761140033488" lon="11.914686660934683"><ele>202.0</ele><time>2026-04-18T15:39:34Z</time></trkpt><trkpt lat="42.277735008174815" lon="11.914915882581884"><ele>204.0</ele><time>2026-04-18T15:39:35Z</time></trkpt><trkpt lat="42.27785065499446" lon="11.915136851184231"><ele>206.0</ele><time>2026-04-18T15:39:36Z</time></trkpt><trkpt lat="42.27796132468565" lon="11.915347270821805"><ele>205.66666666666669</ele><time>2026-04-18T15:39:37Z</time></trkpt><trkpt lat="42.27807164313828" lon="11.915563967176064"><ele>205.33333333333331</ele><time>2026-04-18T15:39:38Z</time></trkpt><trkpt lat="42.27818065465709" lon="11.915790917854983"><ele>205.0</ele><time>2026-04-18T15:39:39Z</time></trkpt><trkpt lat="42.27829528091777" lon="11.916017610609831"><ele>206.33333333333331</ele><time>2026-04-18T15:39:40Z</time></trkpt><trkpt lat="42.27840721746009" lon="11.916239330905936"><ele>207.66666666666669</ele><time>2026-04-18T15:39:41Z</time></trkpt><trkpt lat="42.27851306164727" lon="11.916454201120576"><ele>209.0</ele><time>2026-04-18T15:39:42Z</time></trkpt><trkpt lat="42.27861853620865" lon="11.916656966732706"><ele>209.66666666666669</ele><time>2026-04-18T15:39:43Z</time></trkpt><trkpt lat="42.27872142739773" lon="11.916864460725783"><ele>210.33333333333331</ele><time>2026-04-18T15:39:44Z</time></trkpt><trkpt lat="42.27883292851361" lon="11.91707182613635"><ele>211.0</ele><time>2026-04-18T15:39:45Z</time></trkpt><trkpt lat="42.2789363466193" lon="11.917280542859405"><ele>210.33333333333331</ele><time>2026-04-18T15:39:46Z</time></trkpt><trkpt lat="42.27904401782284" lon="11.917491589448312"><ele>209.66666666666669</ele><time>2026-04-18T15:39:46.998Z</time></trkpt><trkpt lat="42.279143831221475" lon="11.917685513983107"><ele>209.0</ele><time>2026-04-18T15:39:47.998Z</time></trkpt><trkpt lat="42.27924590776181" lon="11.917882440538996"><ele>209.0</ele><time>2026-04-18T15:39:48.998Z</time></trkpt><trkpt lat="42.27934820998557" lon="11.918080781841478"><ele>209.0</ele><time>2026-04-18T15:39:49.998Z</time></trkpt><trkpt lat="42.27945308441169" lon="11.918281754606427"><ele>209.0</ele><time>2026-04-18T15:39:50.998Z</time></trkpt><trkpt lat="42.27957142898623" lon="11.918488586989564"><ele>209.0</ele><time>2026-04-18T15:39:51.998Z</time></trkpt><trkpt lat="42.27969203727612" lon="11.918696859263298"><ele>209.0</ele><time>2026-04-18T15:39:52.998Z</time></trkpt><trkpt lat="42.279823307621044" lon="11.918916328986665"><ele>209.0</ele><time>2026-04-18T15:39:53.998Z</time></trkpt><trkpt lat="42.279956626213064" lon="11.919134257834788"><ele>210.0</ele><time>2026-04-18T15:39:54.998Z</time></trkpt><trkpt lat="42.280083025389004" lon="11.919342198371183"><ele>211.0</ele><time>2026-04-18T15:39:55.998Z</time></trkpt><trkpt lat="42.28020342180651" lon="11.919536195852675"><ele>212.0</ele><time>2026-04-18T15:39:56.998Z</time></trkpt><trkpt lat="42.28032155497889" lon="11.919730588616982"><ele>212.0</ele><time>2026-04-18T15:39:57.998Z</time></trkpt><trkpt lat="42.28043554921159" lon="11.919928308077338"><ele>212.0</ele><time>2026-04-18T15:39:58.998Z</time></trkpt><trkpt lat="42.28054871935085" lon="11.920128846546376"><ele>212.0</ele><time>2026-04-18T15:39:59.998Z</time></trkpt><trkpt lat="42.28067211216076" lon="11.92032429881043"><ele>211.66666666666669</ele><time>2026-04-18T15:40:00.998Z</time></trkpt><trkpt lat="42.28079383515529" lon="11.920526355606015"><ele>211.33333333333331</ele><time>2026-04-18T15:40:01.998Z</time></trkpt><trkpt lat="42.28091953569265" lon="11.920738381911697"><ele>211.0</ele><time>2026-04-18T15:40:02.998Z</time></trkpt><trkpt lat="42.281050911181566" lon="11.92095711322471"><ele>211.0</ele><time>2026-04-18T15:40:03.998Z</time></trkpt><trkpt lat="42.28117247750855" lon="11.921159074923892"><ele>211.0</ele><time>2026-04-18T15:40:04.999Z</time></trkpt><trkpt lat="42.28128798862529" lon="11.921349138507079"><ele>211.0</ele><time>2026-04-18T15:40:05.999Z</time></trkpt><trkpt lat="42.28139952233763" lon="11.92153497166559"><ele>211.0</ele><time>2026-04-18T15:40:06.999Z</time></trkpt><trkpt lat="42.28150414084838" lon="11.921721827022687"><ele>211.0</ele><time>2026-04-18T15:40:07.999Z</time></trkpt><trkpt lat="42.28160762158901" lon="11.921884557433081"><ele>211.0</ele><time>2026-04-18T15:40:08.999Z</time></trkpt><trkpt lat="42.28170542014966" lon="11.922060847125838"><ele>210.75</ele><time>2026-04-18T15:40:09.999Z</time></trkpt><trkpt lat="42.28175713824636" lon="11.92222866546932"><ele>210.5</ele><time>2026-04-18T15:40:10.999Z</time></trkpt><trkpt lat="42.281779151134494" lon="11.92242598385659"><ele>210.25</ele><time>2026-04-18T15:40:11.999Z</time></trkpt><trkpt lat="42.281765410664256" lon="11.922602595652238"><ele>210.0</ele><time>2026-04-18T15:40:12.999Z</time></trkpt><trkpt lat="42.281719406310934" lon="11.922787412203048"><ele>209.5</ele><time>2026-04-18T15:40:13.999Z</time></trkpt><trkpt lat="42.28165205664091" lon="11.922957968773932"><ele>209.0</ele><time>2026-04-18T15:40:14.999Z</time></trkpt><trkpt lat="42.28160875092553" lon="11.923117986431949"><ele>208.5</ele><time>2026-04-18T15:40:15.999Z</time></trkpt><trkpt lat="42.2816076245219" lon="11.923285569887678"><ele>208.0</ele><time>2026-04-18T15:40:16.999Z</time></trkpt><trkpt lat="42.28165877397043" lon="11.923464977626384"><ele>208.0</ele><time>2026-04-18T15:40:17.999Z</time></trkpt><trkpt lat="42.28172298672122" lon="11.923631680987393"><ele>208.0</ele><time>2026-04-18T15:40:18.999Z</time></trkpt><trkpt lat="42.28180182806411" lon="11.9237772469242"><ele>208.0</ele><time>2026-04-18T15:40:19.999Z</time></trkpt><trkpt lat="42.28189375911924" lon="11.92390990035365"><ele>208.0</ele><time>2026-04-18T15:40:20.999Z</time></trkpt><trkpt lat="42.281974437120965" lon="11.924062013691064"><ele>209.0</ele><time>2026-04-18T15:40:21.999Z</time></trkpt><trkpt lat="42.28201197758752" lon="11.924255800108773"><ele>210.0</ele><time>2026-04-18T15:40:22.999Z</time></trkpt><trkpt lat="42.28199473222915" lon="11.924458086377328"><ele>211.0</ele><time>2026-04-18T15:40:23.999Z</time></trkpt><trkpt lat="42.28193275672852" lon="11.92464754331786"><ele>211.0</ele><time>2026-04-18T15:40:24.999Z</time></trkpt><trkpt lat="42.28181487161886" lon="11.924815207617334"><ele>211.0</ele><time>2026-04-18T15:40:25.999Z</time></trkpt><trkpt lat="42.281693919414145" lon="11.924937862390706"><ele>211.0</ele><time>2026-04-18T15:40:26.999Z</time></trkpt><trkpt lat="42.281610835727015" lon="11.925061753113521"><ele>211.0</ele><time>2026-04-18T15:40:27.999Z</time></trkpt><trkpt lat="42.28155636987389" lon="11.925217728195829"><ele>211.0</ele><time>2026-04-18T15:40:28.999Z</time></trkpt><trkpt lat="42.28151251555517" lon="11.925379407225957"><ele>211.0</ele><time>2026-04-18T15:40:29.999Z</time></trkpt><trkpt lat="42.28148799744351" lon="11.925556091858054"><ele>211.0</ele><time>2026-04-18T15:40:30.999Z</time></trkpt><trkpt lat="42.281480239851064" lon="11.92574952238581"><ele>211.0</ele><time>2026-04-18T15:40:31.999Z</time></trkpt><trkpt lat="42.28149455241337" lon="11.92595331703785"><ele>211.0</ele><time>2026-04-18T15:40:32.999Z</time></trkpt><trkpt lat="42.28154237532073" lon="11.926174064347046"><ele>211.0</ele><time>2026-04-18T15:40:33.999Z</time></trkpt><trkpt lat="42.2816184604543" lon="11.926405140637565"><ele>211.0</ele><time>2026-04-18T15:40:34.999Z</time></trkpt><trkpt lat="42.281693062973396" lon="11.926639290332027"><ele>209.33333333333331</ele><time>2026-04-18T15:40:35.999Z</time></trkpt><trkpt lat="42.281763382732365" lon="11.926869169786997"><ele>207.66666666666669</ele><time>2026-04-18T15:40:36.999Z</time></trkpt><trkpt lat="42.2818327045145" lon="11.927097781640253"><ele>206.0</ele><time>2026-04-18T15:40:37.999Z</time></trkpt><trkpt lat="42.28190274857352" lon="11.927318661957685"><ele>206.0</ele><time>2026-04-18T15:40:38.999Z</time></trkpt><trkpt lat="42.281971617987764" lon="11.927532163028605"><ele>206.0</ele><time>2026-04-18T15:40:39.999Z</time></trkpt><trkpt lat="42.28203960228209" lon="11.927739771787664"><ele>206.0</ele><time>2026-04-18T15:40:40.999Z</time></trkpt><trkpt lat="42.282112644629194" lon="11.927950806887795"><ele>205.33333333333334</ele><time>2026-04-18T15:40:41.999Z</time></trkpt><trkpt lat="42.28218757443208" lon="11.928169933211489"><ele>204.66666666666669</ele><time>2026-04-18T15:40:42.999Z</time></trkpt><trkpt lat="42.28226794085599" lon="11.928404885098049"><ele>204.0</ele><time>2026-04-18T15:40:43.999Z</time></trkpt><trkpt lat="42.28235732064671" lon="11.928641738544556"><ele>203.33333333333331</ele><time>2026-04-18T15:40:44.999Z</time></trkpt><trkpt lat="42.28245011046313" lon="11.928876420358575"><ele>202.66666666666666</ele><time>2026-04-18T15:40:45.999Z</time></trkpt><trkpt lat="42.282537681152355" lon="11.929109295771582"><ele>202.0</ele><time>2026-04-18T15:40:46.999Z</time></trkpt><trkpt lat="42.2826240748692" lon="11.929341184383413"><ele>201.66666666666666</ele><time>2026-04-18T15:40:47.999Z</time></trkpt><trkpt lat="42.28271911622094" lon="11.92957693777815"><ele>201.33333333333331</ele><time>2026-04-18T15:40:48.999Z</time></trkpt><trkpt lat="42.282817858348906" lon="11.929804161423306"><ele>201.0</ele><time>2026-04-18T15:40:49.999Z</time></trkpt><trkpt lat="42.282917030064795" lon="11.930031478811589"><ele>203.0</ele><time>2026-04-18T15:40:50.999Z</time></trkpt><trkpt lat="42.28301794702182" lon="11.930259210189384"><ele>205.0</ele><time>2026-04-18T15:40:51.999Z</time></trkpt><trkpt lat="42.283121351783436" lon="11.930489808345179"><ele>207.0</ele><time>2026-04-18T15:40:52.999Z</time></trkpt><trkpt lat="42.28322498887119" lon="11.930711661411108"><ele>209.0</ele><time>2026-04-18T15:40:53.999Z</time></trkpt><trkpt lat="42.28333257018713" lon="11.93093588141938"><ele>211.0</ele><time>2026-04-18T15:40:54.999Z</time></trkpt><trkpt lat="42.28344358021005" lon="11.931164194990894"><ele>213.0</ele><time>2026-04-18T15:40:55.999Z</time></trkpt><trkpt lat="42.28355947291966" lon="11.931394848499375"><ele>213.0</ele><time>2026-04-18T15:40:56.999Z</time></trkpt><trkpt lat="42.28367861149909" lon="11.93162887498516"><ele>213.0</ele><time>2026-04-18T15:40:57.999Z</time></trkpt><trkpt lat="42.2838033168502" lon="11.931860729808726"><ele>213.0</ele><time>2026-04-18T15:40:58.999Z</time></trkpt><trkpt lat="42.28392779541376" lon="11.932084106476514"><ele>215.66666666666669</ele><time>2026-04-18T15:40:59.999Z</time></trkpt><trkpt lat="42.28405261048531" lon="11.932305254519521"><ele>218.33333333333334</ele><time>2026-04-18T15:41:00.999Z</time></trkpt><trkpt lat="42.284185109195185" lon="11.932536415088"><ele>221.0</ele><time>2026-04-18T15:41:01.999Z</time></trkpt><trkpt lat="42.28431737575974" lon="11.932772136315613"><ele>223.33333333333334</ele><time>2026-04-18T15:41:02.999Z</time></trkpt><trkpt lat="42.2844521109568" lon="11.9330109791365"><ele>225.66666666666669</ele><time>2026-04-18T15:41:04.013Z</time></trkpt><trkpt lat="42.284584876622894" lon="11.933243944295143"><ele>228.0</ele><time>2026-04-18T15:41:05.016Z</time></trkpt><trkpt lat="42.28471824858956" lon="11.933480900238155"><ele>222.5</ele><time>2026-04-18T15:41:06.017Z</time></trkpt><trkpt lat="42.28486793650646" lon="11.933704362582695"><ele>217.0</ele><time>2026-04-18T15:41:07.017Z</time></trkpt><trkpt lat="42.28505142441347" lon="11.933938798140868"><ele>217.0</ele><time>2026-04-18T15:41:07.999Z</time></trkpt><trkpt lat="42.285256555815174" lon="11.93418757892432"><ele>217.0</ele><time>2026-04-18T15:41:08.999Z</time></trkpt><trkpt lat="42.28541732966054" lon="11.934412471938042"><ele>216.66666666666666</ele><time>2026-04-18T15:41:09.999Z</time></trkpt><trkpt lat="42.28557607207026" lon="11.93463716311595"><ele>216.33333333333331</ele><time>2026-04-18T15:41:10.999Z</time></trkpt><trkpt lat="42.285727723963284" lon="11.934841706747678"><ele>216.0</ele><time>2026-04-18T15:41:11.999Z</time></trkpt><trkpt lat="42.28587411625924" lon="11.935033506033072"><ele>218.33333333333331</ele><time>2026-04-18T15:41:12.999Z</time></trkpt><trkpt lat="42.2860338937351" lon="11.935237961045928"><ele>220.66666666666666</ele><time>2026-04-18T15:41:13.999Z</time></trkpt><trkpt lat="42.28619588049526" lon="11.93544073299943"><ele>223.0</ele><time>2026-04-18T15:41:14.999Z</time></trkpt><trkpt lat="42.28635843229543" lon="11.935638778309762"><ele>218.0</ele><time>2026-04-18T15:41:15.999Z</time></trkpt><trkpt lat="42.28651337949825" lon="11.93583031055853"><ele>213.0</ele><time>2026-04-18T15:41:16.999Z</time></trkpt><trkpt lat="42.28665653187625" lon="11.936018403490678"><ele>208.0</ele><time>2026-04-18T15:41:17.999Z</time></trkpt><trkpt lat="42.286817766396624" lon="11.93614184698202"><ele>208.0</ele><time>2026-04-18T15:41:18.999Z</time></trkpt><trkpt lat="42.28696321455607" lon="11.936316100908934"><ele>208.0</ele><time>2026-04-18T15:41:19.999Z</time></trkpt><trkpt lat="42.28712300484702" lon="11.936498902060608"><ele>208.0</ele><time>2026-04-18T15:41:20.999Z</time></trkpt><trkpt lat="42.2872883549685" lon="11.93668922666281"><ele>208.33333333333331</ele><time>2026-04-18T15:41:21.999Z</time></trkpt><trkpt lat="42.287453242491544" lon="11.936862690600858"><ele>208.66666666666669</ele><time>2026-04-18T15:41:23Z</time></trkpt><trkpt lat="42.28761678926648" lon="11.937034271761311"><ele>209.0</ele><time>2026-04-18T15:41:24Z</time></trkpt><trkpt lat="42.28777975165673" lon="11.937205428606521"><ele>209.0</ele><time>2026-04-18T15:41:25Z</time></trkpt><trkpt lat="42.28793956396297" lon="11.937367637792942"><ele>209.0</ele><time>2026-04-18T15:41:26Z</time></trkpt><trkpt lat="42.28810434574742" lon="11.937517501124491"><ele>209.0</ele><time>2026-04-18T15:41:27Z</time></trkpt><trkpt lat="42.288266104565686" lon="11.937668028684904"><ele>208.0</ele><time>2026-04-18T15:41:28Z</time></trkpt><trkpt lat="42.28842089610723" lon="11.937824067470855"><ele>207.0</ele><time>2026-04-18T15:41:29Z</time></trkpt><trkpt lat="42.288579327549066" lon="11.937983537176029"><ele>206.0</ele><time>2026-04-18T15:41:30Z</time></trkpt><trkpt lat="42.288746636529304" lon="11.93814637214676"><ele>206.0</ele><time>2026-04-18T15:41:31Z</time></trkpt><trkpt lat="42.28891727030004" lon="11.938307112880926"><ele>206.0</ele><time>2026-04-18T15:41:32Z</time></trkpt><trkpt lat="42.28908851352372" lon="11.93847105858944"><ele>206.0</ele><time>2026-04-18T15:41:33Z</time></trkpt><trkpt lat="42.289248542021" lon="11.938627704613769"><ele>205.0</ele><time>2026-04-18T15:41:34Z</time></trkpt><trkpt lat="42.289402595688436" lon="11.938778333678414"><ele>204.0</ele><time>2026-04-18T15:41:35Z</time></trkpt><trkpt lat="42.28955241392612" lon="11.938920788461031"><ele>203.0</ele><time>2026-04-18T15:41:36Z</time></trkpt><trkpt lat="42.289706895801885" lon="11.939064154292303"><ele>203.66666666666669</ele><time>2026-04-18T15:41:37Z</time></trkpt><trkpt lat="42.28986584157356" lon="11.93921117414377"><ele>204.33333333333331</ele><time>2026-04-18T15:41:38Z</time></trkpt><trkpt lat="42.290020714893195" lon="11.939359787611682"><ele>205.0</ele><time>2026-04-18T15:41:39Z</time></trkpt><trkpt lat="42.290170126549555" lon="11.93950378447782"><ele>205.0</ele><time>2026-04-18T15:41:40Z</time></trkpt><trkpt lat="42.29032406024737" lon="11.939649596106145"><ele>205.0</ele><time>2026-04-18T15:41:41Z</time></trkpt><trkpt lat="42.29048002143468" lon="11.939799933760213"><ele>205.0</ele><time>2026-04-18T15:41:42Z</time></trkpt><trkpt lat="42.290637560865875" lon="11.93995218861714"><ele>205.66666666666666</ele><time>2026-04-18T15:41:43Z</time></trkpt><trkpt lat="42.290794949824296" lon="11.940104658165723"><ele>206.33333333333331</ele><time>2026-04-18T15:41:44Z</time></trkpt><trkpt lat="42.29095425427522" lon="11.940256303521355"><ele>207.0</ele><time>2026-04-18T15:41:45Z</time></trkpt><trkpt lat="42.29111542184798" lon="11.940414441701877"><ele>207.0</ele><time>2026-04-18T15:41:46Z</time></trkpt><trkpt lat="42.29127570912407" lon="11.940572529556519"><ele>207.0</ele><time>2026-04-18T15:41:47Z</time></trkpt><trkpt lat="42.29143293886578" lon="11.94072680643479"><ele>207.0</ele><time>2026-04-18T15:41:48Z</time></trkpt><trkpt lat="42.29158015704899" lon="11.940880242213867"><ele>207.66666666666669</ele><time>2026-04-18T15:41:49Z</time></trkpt><trkpt lat="42.29172555815957" lon="11.941036886426941"><ele>208.33333333333334</ele><time>2026-04-18T15:41:50Z</time></trkpt><trkpt lat="42.29187948385839" lon="11.941193515465766"><ele>209.0</ele><time>2026-04-18T15:41:51Z</time></trkpt><trkpt lat="42.292036410694585" lon="11.941353340219136"><ele>209.0</ele><time>2026-04-18T15:41:52Z</time></trkpt><trkpt lat="42.2921896842526" lon="11.941516500203925"><ele>209.0</ele><time>2026-04-18T15:41:52.997Z</time></trkpt><trkpt lat="42.29234125374239" lon="11.941685860168663"><ele>209.0</ele><time>2026-04-18T15:41:53.997Z</time></trkpt><trkpt lat="42.29249424867169" lon="11.941856572135148"><ele>208.66666666666669</ele><time>2026-04-18T15:41:54.997Z</time></trkpt><trkpt lat="42.2926506775848" lon="11.942029768698045"><ele>208.33333333333331</ele><time>2026-04-18T15:41:55.997Z</time></trkpt><trkpt lat="42.2928092338965" lon="11.942204057978028"><ele>208.0</ele><time>2026-04-18T15:41:56.997Z</time></trkpt><trkpt lat="42.29296065677984" lon="11.942386178693223"><ele>204.0</ele><time>2026-04-18T15:41:57.997Z</time></trkpt><trkpt lat="42.29310843269501" lon="11.942566839438035"><ele>200.0</ele><time>2026-04-18T15:41:58.998Z</time></trkpt><trkpt lat="42.293251267052405" lon="11.942748187306874"><ele>196.0</ele><time>2026-04-18T15:41:59.998Z</time></trkpt><trkpt lat="42.293391192402375" lon="11.942935903197018"><ele>196.0</ele><time>2026-04-18T15:42:00.998Z</time></trkpt><trkpt lat="42.293528808264675" lon="11.943125634330634"><ele>196.0</ele><time>2026-04-18T15:42:01.998Z</time></trkpt><trkpt lat="42.29366721644088" lon="11.943313438572316"><ele>196.0</ele><time>2026-04-18T15:42:02.998Z</time></trkpt><trkpt lat="42.293803676088196" lon="11.94349834064947"><ele>195.33333333333331</ele><time>2026-04-18T15:42:03.998Z</time></trkpt><trkpt lat="42.2939405281636" lon="11.943689483349548"><ele>194.66666666666669</ele><time>2026-04-18T15:42:04.998Z</time></trkpt><trkpt lat="42.29407379574287" lon="11.943888780894131"><ele>194.0</ele><time>2026-04-18T15:42:05.998Z</time></trkpt><trkpt lat="42.29420621806517" lon="11.944095813126525"><ele>197.0</ele><time>2026-04-18T15:42:06.998Z</time></trkpt><trkpt lat="42.29433422303706" lon="11.944302066013341"><ele>200.0</ele><time>2026-04-18T15:42:07.998Z</time></trkpt><trkpt lat="42.29445823880225" lon="11.944510342357567"><ele>203.0</ele><time>2026-04-18T15:42:08.998Z</time></trkpt><trkpt lat="42.294581054077256" lon="11.944723226049136"><ele>203.0</ele><time>2026-04-18T15:42:09.998Z</time></trkpt><trkpt lat="42.29470371443166" lon="11.9449363260724"><ele>203.0</ele><time>2026-04-18T15:42:10.998Z</time></trkpt><trkpt lat="42.29482545630388" lon="11.945160140590422"><ele>203.0</ele><time>2026-04-18T15:42:11.998Z</time></trkpt><trkpt lat="42.29494647386761" lon="11.945394273520623"><ele>203.0</ele><time>2026-04-18T15:42:12.998Z</time></trkpt><trkpt lat="42.29507058664004" lon="11.945647004877515"><ele>203.0</ele><time>2026-04-18T15:42:13.998Z</time></trkpt><trkpt lat="42.295202496672125" lon="11.945922162726532"><ele>203.0</ele><time>2026-04-18T15:42:14.998Z</time></trkpt><trkpt lat="42.29533621179683" lon="11.946213757859573"><ele>203.0</ele><time>2026-04-18T15:42:15.999Z</time></trkpt><trkpt lat="42.29547516485402" lon="11.946528636814818"><ele>193.5</ele><time>2026-04-18T15:42:16.999Z</time></trkpt><trkpt lat="42.29562348641802" lon="11.946874860825297"><ele>184.0</ele><time>2026-04-18T15:42:17.999Z</time></trkpt><trkpt lat="42.29577376979647" lon="11.947258344411074"><ele>183.0</ele><time>2026-04-18T15:42:18.999Z</time></trkpt><trkpt lat="42.29591260003096" lon="11.947648264506437"><ele>182.0</ele><time>2026-04-18T15:42:19.999Z</time></trkpt><trkpt lat="42.296037881944265" lon="11.948035151363916"><ele>180.5</ele><time>2026-04-18T15:42:20.999Z</time></trkpt><trkpt lat="42.29615547084676" lon="11.948411209640623"><ele>179.0</ele><time>2026-04-18T15:42:21.999Z</time></trkpt><trkpt lat="42.29626761063107" lon="11.948790903076112"><ele>179.0</ele><time>2026-04-18T15:42:22.999Z</time></trkpt><trkpt lat="42.296373708903104" lon="11.94917370193965"><ele>179.0</ele><time>2026-04-18T15:42:23.999Z</time></trkpt><trkpt lat="42.296471261450904" lon="11.949561806717757"><ele>172.5</ele><time>2026-04-18T15:42:24.999Z</time></trkpt><trkpt lat="42.29655575443552" lon="11.94993898099119"><ele>166.0</ele><time>2026-04-18T15:42:25.999Z</time></trkpt><trkpt lat="42.29663156338749" lon="11.950314248539456"><ele>166.0</ele><time>2026-04-18T15:42:26.999Z</time></trkpt><trkpt lat="42.296699856938375" lon="11.95069062233298"><ele>166.0</ele><time>2026-04-18T15:42:27.999Z</time></trkpt><trkpt lat="42.29676262004822" lon="11.951065124783433"><ele>167.0</ele><time>2026-04-18T15:42:28.999Z</time></trkpt><trkpt lat="42.29682230616879" lon="11.951446616587791"><ele>168.0</ele><time>2026-04-18T15:42:29.999Z</time></trkpt><trkpt lat="42.29687231423283" lon="11.951816365562667"><ele>168.5</ele><time>2026-04-18T15:42:30.999Z</time></trkpt><trkpt lat="42.29691293330266" lon="11.952194051726638"><ele>169.0</ele><time>2026-04-18T15:42:31.999Z</time></trkpt><trkpt lat="42.29694541632383" lon="11.952575454375706"><ele>169.5</ele><time>2026-04-18T15:42:32.999Z</time></trkpt><trkpt lat="42.296970941878016" lon="11.952935213713905"><ele>170.0</ele><time>2026-04-18T15:42:33.999Z</time></trkpt><trkpt lat="42.29699250699289" lon="11.95328999941585"><ele>171.5</ele><time>2026-04-18T15:42:34.999Z</time></trkpt><trkpt lat="42.297007355393504" lon="11.953642746262604"><ele>173.0</ele><time>2026-04-18T15:42:35.999Z</time></trkpt><trkpt lat="42.29701680875996" lon="11.953998477543703"><ele>176.5</ele><time>2026-04-18T15:42:36.999Z</time></trkpt><trkpt lat="42.29702217674253" lon="11.95434944479747"><ele>180.0</ele><time>2026-04-18T15:42:37.999Z</time></trkpt><trkpt lat="42.297024042793645" lon="11.954687146794264"><ele>180.0</ele><time>2026-04-18T15:42:38.999Z</time></trkpt><trkpt lat="42.297024950886694" lon="11.955018965315885"><ele>180.0</ele><time>2026-04-18T15:42:39.999Z</time></trkpt><trkpt lat="42.29700796994268" lon="11.955355687270036"><ele>185.0</ele><time>2026-04-18T15:42:40.999Z</time></trkpt><trkpt lat="42.297016894169396" lon="11.955676177813164"><ele>190.0</ele><time>2026-04-18T15:42:41.999Z</time></trkpt><trkpt lat="42.29701634388699" lon="11.956003202909427"><ele>191.0</ele><time>2026-04-18T15:42:42.999Z</time></trkpt><trkpt lat="42.29702198248594" lon="11.956333796683682"><ele>192.0</ele><time>2026-04-18T15:42:43.999Z</time></trkpt><trkpt lat="42.29702961344581" lon="11.956665212845563"><ele>189.5</ele><time>2026-04-18T15:42:44.999Z</time></trkpt><trkpt lat="42.297037980408966" lon="11.957005847980064"><ele>187.0</ele><time>2026-04-18T15:42:45.999Z</time></trkpt><trkpt lat="42.29704568430605" lon="11.957344493300171"><ele>183.0</ele><time>2026-04-18T15:42:46.999Z</time></trkpt><trkpt lat="42.29705356107532" lon="11.957684552421663"><ele>179.0</ele><time>2026-04-18T15:42:47.999Z</time></trkpt><trkpt lat="42.29705062865955" lon="11.958019921831886"><ele>179.0</ele><time>2026-04-18T15:42:48.999Z</time></trkpt><trkpt lat="42.2970262099981" lon="11.95832224102589"><ele>179.0</ele><time>2026-04-18T15:42:49.999Z</time></trkpt><trkpt lat="42.297017156835636" lon="11.958645394927416"><ele>176.5</ele><time>2026-04-18T15:42:50.999Z</time></trkpt><trkpt lat="42.297006115518975" lon="11.958957451288983"><ele>174.0</ele><time>2026-04-18T15:42:51.999Z</time></trkpt><trkpt lat="42.29700042596768" lon="11.959268529516521"><ele>172.0</ele><time>2026-04-18T15:42:52.999Z</time></trkpt><trkpt lat="42.2970118719965" lon="11.959576741850858"><ele>170.0</ele><time>2026-04-18T15:42:54Z</time></trkpt><trkpt lat="42.29702340870534" lon="11.959885106755996"><ele>167.0</ele><time>2026-04-18T15:42:55Z</time></trkpt><trkpt lat="42.297030288672445" lon="11.960190759244757"><ele>164.0</ele><time>2026-04-18T15:42:56Z</time></trkpt><trkpt lat="42.29704263125226" lon="11.960502994155068"><ele>164.0</ele><time>2026-04-18T15:42:57Z</time></trkpt><trkpt lat="42.297061278672125" lon="11.960806998621607"><ele>164.0</ele><time>2026-04-18T15:42:58Z</time></trkpt><trkpt lat="42.29708317751697" lon="11.961110589404992"><ele>162.33333333333331</ele><time>2026-04-18T15:42:59Z</time></trkpt><trkpt lat="42.29710597307122" lon="11.961407852249376"><ele>160.66666666666666</ele><time>2026-04-18T15:43:00Z</time></trkpt><trkpt lat="42.2971293950495" lon="11.961701520513975"><ele>159.0</ele><time>2026-04-18T15:43:01Z</time></trkpt><trkpt lat="42.297158359926506" lon="11.961998798767288"><ele>159.0</ele><time>2026-04-18T15:43:02Z</time></trkpt><trkpt lat="42.29719077420544" lon="11.962297337810607"><ele>159.0</ele><time>2026-04-18T15:43:03Z</time></trkpt><trkpt lat="42.29722767051892" lon="11.962586697102592"><ele>159.0</ele><time>2026-04-18T15:43:04Z</time></trkpt><trkpt lat="42.29726673552157" lon="11.962867386219088"><ele>157.66666666666666</ele><time>2026-04-18T15:43:05Z</time></trkpt><trkpt lat="42.29730494667169" lon="11.963145002068057"><ele>156.33333333333331</ele><time>2026-04-18T15:43:06Z</time></trkpt><trkpt lat="42.29734346680808" lon="11.963417029805706"><ele>155.0</ele><time>2026-04-18T15:43:07Z</time></trkpt><trkpt lat="42.297385033998346" lon="11.963681376289419"><ele>154.33333333333331</ele><time>2026-04-18T15:43:08Z</time></trkpt><trkpt lat="42.2974321274868" lon="11.963966718903354"><ele>153.66666666666666</ele><time>2026-04-18T15:43:09Z</time></trkpt><trkpt lat="42.2974902182617" lon="11.964266107824516"><ele>153.0</ele><time>2026-04-18T15:43:10Z</time></trkpt><trkpt lat="42.29754569002233" lon="11.964551154386205"><ele>152.66666666666666</ele><time>2026-04-18T15:43:11Z</time></trkpt><trkpt lat="42.29760076298961" lon="11.964835386113663"><ele>152.33333333333331</ele><time>2026-04-18T15:43:12Z</time></trkpt><trkpt lat="42.29767734892724" lon="11.965115340826166"><ele>152.0</ele><time>2026-04-18T15:43:13Z</time></trkpt><trkpt lat="42.29773776343848" lon="11.965410184348993"><ele>151.33333333333331</ele><time>2026-04-18T15:43:14Z</time></trkpt><trkpt lat="42.29780573224944" lon="11.96569688419975"><ele>150.66666666666666</ele><time>2026-04-18T15:43:15Z</time></trkpt><trkpt lat="42.297881634066265" lon="11.965981593507859"><ele>150.0</ele><time>2026-04-18T15:43:16Z</time></trkpt><trkpt lat="42.29795104017449" lon="11.966258155524633"><ele>150.0</ele><time>2026-04-18T15:43:17Z</time></trkpt><trkpt lat="42.298023359398215" lon="11.966527836434423"><ele>150.0</ele><time>2026-04-18T15:43:18Z</time></trkpt><trkpt lat="42.29809677792663" lon="11.966796504918019"><ele>150.0</ele><time>2026-04-18T15:43:19Z</time></trkpt><trkpt lat="42.29817439145687" lon="11.96706134221868"><ele>152.66666666666666</ele><time>2026-04-18T15:43:20Z</time></trkpt><trkpt lat="42.298260712809096" lon="11.967329326415092"><ele>155.33333333333331</ele><time>2026-04-18T15:43:21Z</time></trkpt><trkpt lat="42.2983415207624" lon="11.967612395472134"><ele>158.0</ele><time>2026-04-18T15:43:22Z</time></trkpt><trkpt lat="42.298415459855406" lon="11.967890264966936"><ele>158.0</ele><time>2026-04-18T15:43:23Z</time></trkpt><trkpt lat="42.29848821048239" lon="11.96815416100664"><ele>158.0</ele><time>2026-04-18T15:43:24Z</time></trkpt><trkpt lat="42.29856233007552" lon="11.968418187697763"><ele>158.0</ele><time>2026-04-18T15:43:25Z</time></trkpt><trkpt lat="42.298635839659184" lon="11.968674826223678"><ele>159.0</ele><time>2026-04-18T15:43:26Z</time></trkpt><trkpt lat="42.29870960713991" lon="11.968930079950544"><ele>160.0</ele><time>2026-04-18T15:43:27Z</time></trkpt><trkpt lat="42.29878317730459" lon="11.969181169381537"><ele>161.0</ele><time>2026-04-18T15:43:28Z</time></trkpt><trkpt lat="42.29885633550607" lon="11.969436101442211"><ele>162.33333333333331</ele><time>2026-04-18T15:43:29Z</time></trkpt><trkpt lat="42.29892671539429" lon="11.969684712797893"><ele>163.66666666666666</ele><time>2026-04-18T15:43:30Z</time></trkpt><trkpt lat="42.29899761404685" lon="11.969932510213392"><ele>165.0</ele><time>2026-04-18T15:43:31Z</time></trkpt><trkpt lat="42.299072207033525" lon="11.97018360241593"><ele>165.0</ele><time>2026-04-18T15:43:32Z</time></trkpt><trkpt lat="42.299146251596184" lon="11.970440386869756"><ele>165.0</ele><time>2026-04-18T15:43:33Z</time></trkpt><trkpt lat="42.299219886843154" lon="11.97070517706619"><ele>165.0</ele><time>2026-04-18T15:43:34Z</time></trkpt><trkpt lat="42.29929549026366" lon="11.970976068040109"><ele>165.33333333333334</ele><time>2026-04-18T15:43:35Z</time></trkpt><trkpt lat="42.299372182991156" lon="11.971249737993013"><ele>165.66666666666669</ele><time>2026-04-18T15:43:36Z</time></trkpt><trkpt lat="42.299446633175734" lon="11.971521529808278"><ele>166.0</ele><time>2026-04-18T15:43:37Z</time></trkpt><trkpt lat="42.299518649649684" lon="11.971794023115068"><ele>167.0</ele><time>2026-04-18T15:43:38Z</time></trkpt><trkpt lat="42.299599685459114" lon="11.97206215516982"><ele>168.0</ele><time>2026-04-18T15:43:39Z</time></trkpt><trkpt lat="42.2996820706219" lon="11.972331447024658"><ele>169.0</ele><time>2026-04-18T15:43:40Z</time></trkpt><trkpt lat="42.299755763097" lon="11.972597499997391"><ele>169.66666666666669</ele><time>2026-04-18T15:43:41Z</time></trkpt><trkpt lat="42.29982516606492" lon="11.972849420322147"><ele>170.33333333333334</ele><time>2026-04-18T15:43:42Z</time></trkpt><trkpt lat="42.29989477450895" lon="11.973092437614481"><ele>171.0</ele><time>2026-04-18T15:43:43Z</time></trkpt><trkpt lat="42.29996347142066" lon="11.97333394839167"><ele>171.66666666666666</ele><time>2026-04-18T15:43:44Z</time></trkpt><trkpt lat="42.30003356801319" lon="11.973582673588359"><ele>172.33333333333331</ele><time>2026-04-18T15:43:45Z</time></trkpt><trkpt lat="42.30010328509595" lon="11.97383268841824"><ele>173.0</ele><time>2026-04-18T15:43:46Z</time></trkpt><trkpt lat="42.30017591028246" lon="11.974086743312071"><ele>173.33333333333331</ele><time>2026-04-18T15:43:47Z</time></trkpt><trkpt lat="42.30025077513141" lon="11.974351451009522"><ele>173.66666666666666</ele><time>2026-04-18T15:43:48Z</time></trkpt><trkpt lat="42.30032712074325" lon="11.974619728970582"><ele>174.0</ele><time>2026-04-18T15:43:49Z</time></trkpt><trkpt lat="42.30040231887616" lon="11.974883551173649"><ele>174.66666666666666</ele><time>2026-04-18T15:43:50Z</time></trkpt><trkpt lat="42.30047623570663" lon="11.975148499119225"><ele>175.33333333333331</ele><time>2026-04-18T15:43:51Z</time></trkpt><trkpt lat="42.30055267016728" lon="11.97542099946099"><ele>176.0</ele><time>2026-04-18T15:43:52Z</time></trkpt><trkpt lat="42.300630759920644" lon="11.975692456638303"><ele>176.33333333333331</ele><time>2026-04-18T15:43:53Z</time></trkpt><trkpt lat="42.30071113630247" lon="11.975964996091925"><ele>176.66666666666666</ele><time>2026-04-18T15:43:54Z</time></trkpt><trkpt lat="42.30078943565637" lon="11.976240122915428"><ele>177.0</ele><time>2026-04-18T15:43:55Z</time></trkpt><trkpt lat="42.30086792863622" lon="11.976515327495575"><ele>177.33333333333334</ele><time>2026-04-18T15:43:56Z</time></trkpt><trkpt lat="42.30094656460066" lon="11.976792139045903"><ele>177.66666666666669</ele><time>2026-04-18T15:43:57Z</time></trkpt><trkpt lat="42.301022981405666" lon="11.977061003475272"><ele>178.0</ele><time>2026-04-18T15:43:58Z</time></trkpt><trkpt lat="42.301096487912226" lon="11.977319442123745"><ele>178.66666666666669</ele><time>2026-04-18T15:43:58.998Z</time></trkpt><trkpt lat="42.301168806661494" lon="11.977572544395391"><ele>179.33333333333334</ele><time>2026-04-18T15:43:59.998Z</time></trkpt><trkpt lat="42.30124437522038" lon="11.977829538046535"><ele>180.0</ele><time>2026-04-18T15:44:00.998Z</time></trkpt><trkpt lat="42.30131927974356" lon="11.97808623295477"><ele>180.0</ele><time>2026-04-18T15:44:01.998Z</time></trkpt><trkpt lat="42.301392296837875" lon="11.978349760053984"><ele>180.0</ele><time>2026-04-18T15:44:02.998Z</time></trkpt><trkpt lat="42.30146617457693" lon="11.978616765464674"><ele>180.0</ele><time>2026-04-18T15:44:03.998Z</time></trkpt><trkpt lat="42.30153899883022" lon="11.978883601373468"><ele>180.0</ele><time>2026-04-18T15:44:04.998Z</time></trkpt><trkpt lat="42.30161572478922" lon="11.979153026331153"><ele>180.0</ele><time>2026-04-18T15:44:05.998Z</time></trkpt><trkpt lat="42.30169508075169" lon="11.9794254882765"><ele>180.0</ele><time>2026-04-18T15:44:06.998Z</time></trkpt><trkpt lat="42.30177389030875" lon="11.9796976859938"><ele>180.66666666666666</ele><time>2026-04-18T15:44:07.998Z</time></trkpt><trkpt lat="42.301853108145636" lon="11.97996755653289"><ele>181.33333333333331</ele><time>2026-04-18T15:44:08.998Z</time></trkpt><trkpt lat="42.30193064224354" lon="11.980236209523135"><ele>182.0</ele><time>2026-04-18T15:44:09.999Z</time></trkpt><trkpt lat="42.30200493104513" lon="11.980497444890783"><ele>182.66666666666666</ele><time>2026-04-18T15:44:10.999Z</time></trkpt><trkpt lat="42.30207814572979" lon="11.980753818617682"><ele>183.33333333333334</ele><time>2026-04-18T15:44:11.999Z</time></trkpt><trkpt lat="42.30215294959571" lon="11.981015720293424"><ele>184.0</ele><time>2026-04-18T15:44:12.999Z</time></trkpt><trkpt lat="42.302229113048156" lon="11.981278132126763"><ele>184.33333333333334</ele><time>2026-04-18T15:44:13.999Z</time></trkpt><trkpt lat="42.302306438510236" lon="11.981532808654183"><ele>184.66666666666666</ele><time>2026-04-18T15:44:14.999Z</time></trkpt><trkpt lat="42.30238127378095" lon="11.98178133312839"><ele>185.0</ele><time>2026-04-18T15:44:15.999Z</time></trkpt><trkpt lat="42.30245427555666" lon="11.982031340352867"><ele>185.0</ele><time>2026-04-18T15:44:16.999Z</time></trkpt><trkpt lat="42.302528012671736" lon="11.982287044924693"><ele>185.0</ele><time>2026-04-18T15:44:17.999Z</time></trkpt><trkpt lat="42.302608596239516" lon="11.982547673344449"><ele>185.0</ele><time>2026-04-18T15:44:18.999Z</time></trkpt><trkpt lat="42.30269451482661" lon="11.982819819526517"><ele>186.0</ele><time>2026-04-18T15:44:19.999Z</time></trkpt><trkpt lat="42.30278135399853" lon="11.983094180150971"><ele>187.0</ele><time>2026-04-18T15:44:20.999Z</time></trkpt><trkpt lat="42.302867544776134" lon="11.983366770468995"><ele>188.0</ele><time>2026-04-18T15:44:21.999Z</time></trkpt><trkpt lat="42.302956015675804" lon="11.983634538559077"><ele>188.33333333333331</ele><time>2026-04-18T15:44:22.999Z</time></trkpt><trkpt lat="42.30304979895507" lon="11.983901578388766"><ele>188.66666666666666</ele><time>2026-04-18T15:44:23.999Z</time></trkpt><trkpt lat="42.30314334401197" lon="11.984159380131272"><ele>189.0</ele><time>2026-04-18T15:44:24.999Z</time></trkpt><trkpt lat="42.30323820517771" lon="11.98441661503795"><ele>189.66666666666666</ele><time>2026-04-18T15:44:25.999Z</time></trkpt><trkpt lat="42.303333421730045" lon="11.984673945689979"><ele>190.33333333333331</ele><time>2026-04-18T15:44:26.999Z</time></trkpt><trkpt lat="42.30343094398844" lon="11.984929109474308"><ele>191.0</ele><time>2026-04-18T15:44:27.999Z</time></trkpt><trkpt lat="42.303537852907425" lon="11.985197900725588"><ele>192.0</ele><time>2026-04-18T15:44:28.999Z</time></trkpt><trkpt lat="42.3036498804108" lon="11.98546831777699"><ele>193.0</ele><time>2026-04-18T15:44:29.999Z</time></trkpt><trkpt lat="42.303761713471985" lon="11.985728086331525"><ele>193.0</ele><time>2026-04-18T15:44:30.999Z</time></trkpt><trkpt lat="42.303879921056016" lon="11.985987924578668"><ele>193.0</ele><time>2026-04-18T15:44:31.999Z</time></trkpt><trkpt lat="42.304002693197695" lon="11.986244944814453"><ele>193.0</ele><time>2026-04-18T15:44:33Z</time></trkpt><trkpt lat="42.3041265446575" lon="11.986492058592608"><ele>193.0</ele><time>2026-04-18T15:44:34Z</time></trkpt><trkpt lat="42.30424842019045" lon="11.986735291704605"><ele>193.0</ele><time>2026-04-18T15:44:35Z</time></trkpt><trkpt lat="42.3043707393656" lon="11.986974433730062"><ele>193.33333333333331</ele><time>2026-04-18T15:44:36Z</time></trkpt><trkpt lat="42.304499594067" lon="11.987209095526124"><ele>193.66666666666669</ele><time>2026-04-18T15:44:37Z</time></trkpt><trkpt lat="42.304635527206194" lon="11.987440035670254"><ele>194.0</ele><time>2026-04-18T15:44:38Z</time></trkpt><trkpt lat="42.30477270679117" lon="11.987672176173318"><ele>194.33333333333334</ele><time>2026-04-18T15:44:39Z</time></trkpt><trkpt lat="42.30491313845217" lon="11.987898084934962"><ele>194.66666666666669</ele><time>2026-04-18T15:44:40Z</time></trkpt><trkpt lat="42.30505789693869" lon="11.988118572761852"><ele>195.0</ele><time>2026-04-18T15:44:41Z</time></trkpt><trkpt lat="42.305202213783126" lon="11.988332059881026"><ele>195.66666666666669</ele><time>2026-04-18T15:44:42Z</time></trkpt><trkpt lat="42.30535132534593" lon="11.988538650047321"><ele>196.33333333333334</ele><time>2026-04-18T15:44:43Z</time></trkpt><trkpt lat="42.30550860435138" lon="11.988732622020361"><ele>197.0</ele><time>2026-04-18T15:44:44Z</time></trkpt><trkpt lat="42.30566456146143" lon="11.988919023523211"><ele>197.33333333333334</ele><time>2026-04-18T15:44:45Z</time></trkpt><trkpt lat="42.30582313585312" lon="11.98909900447019"><ele>197.66666666666669</ele><time>2026-04-18T15:44:46Z</time></trkpt><trkpt lat="42.305988804343386" lon="11.989279806626968"><ele>198.0</ele><time>2026-04-18T15:44:47Z</time></trkpt><trkpt lat="42.30615813452922" lon="11.98945726741177"><ele>198.66666666666669</ele><time>2026-04-18T15:44:48Z</time></trkpt><trkpt lat="42.30632842794853" lon="11.989634366955894"><ele>199.33333333333334</ele><time>2026-04-18T15:44:49Z</time></trkpt><trkpt lat="42.30650228745389" lon="11.989805118618039"><ele>200.0</ele><time>2026-04-18T15:44:50Z</time></trkpt><trkpt lat="42.306682281678334" lon="11.989970509154528"><ele>200.0</ele><time>2026-04-18T15:44:51Z</time></trkpt><trkpt lat="42.306865174385266" lon="11.990132214755363"><ele>200.0</ele><time>2026-04-18T15:44:52Z</time></trkpt><trkpt lat="42.30704761977162" lon="11.99028797742429"><ele>200.0</ele><time>2026-04-18T15:44:53Z</time></trkpt><trkpt lat="42.30723555011008" lon="11.990439690254735"><ele>199.33333333333334</ele><time>2026-04-18T15:44:54Z</time></trkpt><trkpt lat="42.307427847403936" lon="11.990588310426382"><ele>198.66666666666669</ele><time>2026-04-18T15:44:55Z</time></trkpt><trkpt lat="42.307627626708886" lon="11.990729457039222"><ele>198.0</ele><time>2026-04-18T15:44:56Z</time></trkpt><trkpt lat="42.30783153423286" lon="11.990867680750712"><ele>198.0</ele><time>2026-04-18T15:44:57Z</time></trkpt><trkpt lat="42.30803761717938" lon="11.991000931435895"><ele>198.0</ele><time>2026-04-18T15:44:58Z</time></trkpt><trkpt lat="42.30824898165946" lon="11.991123031543179"><ele>197.0</ele><time>2026-04-18T15:44:59Z</time></trkpt><trkpt lat="42.30846826958901" lon="11.991240990545581"><ele>196.0</ele><time>2026-04-18T15:45:00Z</time></trkpt><trkpt lat="42.308692141716904" lon="11.99135373763432"><ele>196.5</ele><time>2026-04-18T15:45:01Z</time></trkpt><trkpt lat="42.30892648308194" lon="11.991461285089393"><ele>197.0</ele><time>2026-04-18T15:45:02Z</time></trkpt><trkpt lat="42.309160453965944" lon="11.99155537677959"><ele>197.0</ele><time>2026-04-18T15:45:03Z</time></trkpt><trkpt lat="42.30939375814944" lon="11.991644461127533"><ele>197.0</ele><time>2026-04-18T15:45:04Z</time></trkpt><trkpt lat="42.309629888313886" lon="11.991726307350373"><ele>199.0</ele><time>2026-04-18T15:45:05Z</time></trkpt><trkpt lat="42.309866665691935" lon="11.991794500998356"><ele>201.0</ele><time>2026-04-18T15:45:06Z</time></trkpt><trkpt lat="42.31010262718907" lon="11.991862125575258"><ele>201.0</ele><time>2026-04-18T15:45:07Z</time></trkpt><trkpt lat="42.31034340725029" lon="11.991920451658721"><ele>201.0</ele><time>2026-04-18T15:45:08Z</time></trkpt><trkpt lat="42.31058392052975" lon="11.991966986038358"><ele>200.5</ele><time>2026-04-18T15:45:09Z</time></trkpt><trkpt lat="42.31082062483062" lon="11.99200299186187"><ele>200.0</ele><time>2026-04-18T15:45:10Z</time></trkpt><trkpt lat="42.31105791012034" lon="11.992027738789611"><ele>200.0</ele><time>2026-04-18T15:45:11Z</time></trkpt><trkpt lat="42.31129497600063" lon="11.992046382368638"><ele>200.0</ele><time>2026-04-18T15:45:12Z</time></trkpt><trkpt lat="42.31153071253957" lon="11.992059373766038"><ele>200.5</ele><time>2026-04-18T15:45:13Z</time></trkpt><trkpt lat="42.31176145973021" lon="11.99206665717574"><ele>201.0</ele><time>2026-04-18T15:45:14Z</time></trkpt><trkpt lat="42.31199109028163" lon="11.992065714140304"><ele>201.0</ele><time>2026-04-18T15:45:15Z</time></trkpt><trkpt lat="42.312222345903244" lon="11.992058998031373"><ele>201.0</ele><time>2026-04-18T15:45:16Z</time></trkpt><trkpt lat="42.31245072421722" lon="11.992051865439954"><ele>201.0</ele><time>2026-04-18T15:45:17Z</time></trkpt><trkpt lat="42.31267729864128" lon="11.992038748673783"><ele>201.0</ele><time>2026-04-18T15:45:18Z</time></trkpt><trkpt lat="42.31290333538418" lon="11.99202146552331"><ele>199.0</ele><time>2026-04-18T15:45:19Z</time></trkpt><trkpt lat="42.313127579186016" lon="11.992000486704772"><ele>197.0</ele><time>2026-04-18T15:45:20Z</time></trkpt><trkpt lat="42.31335239123776" lon="11.991977243150906"><ele>197.0</ele><time>2026-04-18T15:45:21Z</time></trkpt><trkpt lat="42.31357908507457" lon="11.991949234088832"><ele>197.0</ele><time>2026-04-18T15:45:22.001Z</time></trkpt><trkpt lat="42.31379907541988" lon="11.991914419903884"><ele>197.0</ele><time>2026-04-18T15:45:23.001Z</time></trkpt><trkpt lat="42.31401704114423" lon="11.991878189806815"><ele>196.0</ele><time>2026-04-18T15:45:24.001Z</time></trkpt><trkpt lat="42.31423606573313" lon="11.991838482007388"><ele>195.0</ele><time>2026-04-18T15:45:25.001Z</time></trkpt><trkpt lat="42.31445557038212" lon="11.991801261000466"><ele>194.0</ele><time>2026-04-18T15:45:26.001Z</time></trkpt><trkpt lat="42.31467141751399" lon="11.991762049562046"><ele>194.33333333333334</ele><time>2026-04-18T15:45:27.001Z</time></trkpt><trkpt lat="42.314887519402575" lon="11.99172029177057"><ele>194.66666666666669</ele><time>2026-04-18T15:45:28.001Z</time></trkpt><trkpt lat="42.31510778720994" lon="11.991679156445501"><ele>195.0</ele><time>2026-04-18T15:45:29.001Z</time></trkpt><trkpt lat="42.31534392389524" lon="11.991632326114624"><ele>195.5</ele><time>2026-04-18T15:45:30.001Z</time></trkpt><trkpt lat="42.315589484909765" lon="11.991580468564592"><ele>196.0</ele><time>2026-04-18T15:45:31.001Z</time></trkpt><trkpt lat="42.31583403464898" lon="11.99152737357899"><ele>196.0</ele><time>2026-04-18T15:45:32.001Z</time></trkpt><trkpt lat="42.31607996419262" lon="11.991478063688454"><ele>196.0</ele><time>2026-04-18T15:45:33.001Z</time></trkpt><trkpt lat="42.31632558899674" lon="11.991426281113407"><ele>196.5</ele><time>2026-04-18T15:45:34.001Z</time></trkpt><trkpt lat="42.31657101438331" lon="11.991379946797165"><ele>197.0</ele><time>2026-04-18T15:45:35.001Z</time></trkpt><trkpt lat="42.316814830158535" lon="11.991332767039053"><ele>197.0</ele><time>2026-04-18T15:45:36.001Z</time></trkpt><trkpt lat="42.317058709919735" lon="11.991284166443931"><ele>197.0</ele><time>2026-04-18T15:45:37.001Z</time></trkpt><trkpt lat="42.31730193774157" lon="11.991233084210991"><ele>197.0</ele><time>2026-04-18T15:45:38.001Z</time></trkpt><trkpt lat="42.31754679528719" lon="11.99118303507958"><ele>197.0</ele><time>2026-04-18T15:45:39.001Z</time></trkpt><trkpt lat="42.3177888554343" lon="11.991133651533778"><ele>197.0</ele><time>2026-04-18T15:45:40.001Z</time></trkpt><trkpt lat="42.31802848407104" lon="11.991083244333648"><ele>197.0</ele><time>2026-04-18T15:45:41.001Z</time></trkpt><trkpt lat="42.31826887611387" lon="11.991032966294156"><ele>195.5</ele><time>2026-04-18T15:45:42.001Z</time></trkpt><trkpt lat="42.318507674542936" lon="11.990985783584437"><ele>194.0</ele><time>2026-04-18T15:45:43.001Z</time></trkpt><trkpt lat="42.31874697804835" lon="11.990938326385221"><ele>193.0</ele><time>2026-04-18T15:45:44.001Z</time></trkpt><trkpt lat="42.31899067567064" lon="11.990887976851988"><ele>192.0</ele><time>2026-04-18T15:45:45.001Z</time></trkpt><trkpt lat="42.31923178165078" lon="11.990835485652763"><ele>192.0</ele><time>2026-04-18T15:45:46.001Z</time></trkpt><trkpt lat="42.319472769924644" lon="11.99078033243709"><ele>192.0</ele><time>2026-04-18T15:45:47.001Z</time></trkpt><trkpt lat="42.31971314081399" lon="11.990722092249692"><ele>192.0</ele><time>2026-04-18T15:45:48.001Z</time></trkpt><trkpt lat="42.31995850282189" lon="11.990656014890181"><ele>192.0</ele><time>2026-04-18T15:45:49.001Z</time></trkpt><trkpt lat="42.32019271876425" lon="11.990585096445795"><ele>192.0</ele><time>2026-04-18T15:45:50.001Z</time></trkpt><trkpt lat="42.32042975211047" lon="11.99050894971376"><ele>192.0</ele><time>2026-04-18T15:45:51.001Z</time></trkpt><trkpt lat="42.3206692874821" lon="11.990431470848767"><ele>192.0</ele><time>2026-04-18T15:45:52.001Z</time></trkpt><trkpt lat="42.320905913849366" lon="11.990348842857507"><ele>192.0</ele><time>2026-04-18T15:45:53.001Z</time></trkpt><trkpt lat="42.32114259439731" lon="11.990266433400391"><ele>192.0</ele><time>2026-04-18T15:45:54.001Z</time></trkpt><trkpt lat="42.321381168648934" lon="11.990177986521953"><ele>192.0</ele><time>2026-04-18T15:45:55.001Z</time></trkpt><trkpt lat="42.32161811486346" lon="11.990082837620324"><ele>191.5</ele><time>2026-04-18T15:45:56.001Z</time></trkpt><trkpt lat="42.32185188247729" lon="11.989983306307863"><ele>191.0</ele><time>2026-04-18T15:45:57.001Z</time></trkpt><trkpt lat="42.32208241512619" lon="11.98988053448561"><ele>191.0</ele><time>2026-04-18T15:45:58.001Z</time></trkpt><trkpt lat="42.32231202766699" lon="11.989772623784505"><ele>191.0</ele><time>2026-04-18T15:45:59.001Z</time></trkpt><trkpt lat="42.32253841513428" lon="11.989664862303677"><ele>191.0</ele><time>2026-04-18T15:46:00.001Z</time></trkpt><trkpt lat="42.32276415039154" lon="11.989553807409502"><ele>191.0</ele><time>2026-04-18T15:46:01.001Z</time></trkpt><trkpt lat="42.32298418223199" lon="11.9894363877007"><ele>190.33333333333331</ele><time>2026-04-18T15:46:02.001Z</time></trkpt><trkpt lat="42.32319082014508" lon="11.989325849819165"><ele>189.66666666666666</ele><time>2026-04-18T15:46:03.001Z</time></trkpt><trkpt lat="42.32339348898734" lon="11.989214864047137"><ele>189.0</ele><time>2026-04-18T15:46:04.001Z</time></trkpt><trkpt lat="42.32359630026031" lon="11.989098985258538"><ele>188.66666666666666</ele><time>2026-04-18T15:46:04.999Z</time></trkpt><trkpt lat="42.32379757157415" lon="11.988976872370511"><ele>188.33333333333331</ele><time>2026-04-18T15:46:05.999Z</time></trkpt><trkpt lat="42.32400059081591" lon="11.988855712920795"><ele>188.0</ele><time>2026-04-18T15:46:06.999Z</time></trkpt><trkpt lat="42.32420139182625" lon="11.98873202951046"><ele>188.0</ele><time>2026-04-18T15:46:07.999Z</time></trkpt><trkpt lat="42.32440067384683" lon="11.988610371534342"><ele>188.0</ele><time>2026-04-18T15:46:08.999Z</time></trkpt><trkpt lat="42.32459934256231" lon="11.988487066194637"><ele>188.0</ele><time>2026-04-18T15:46:09.999Z</time></trkpt><trkpt lat="42.32479784910821" lon="11.988361478400458"><ele>188.33333333333331</ele><time>2026-04-18T15:46:10.999Z</time></trkpt><trkpt lat="42.32499502811035" lon="11.988236159034377"><ele>188.66666666666666</ele><time>2026-04-18T15:46:11.999Z</time></trkpt><trkpt lat="42.32519210538612" lon="11.988112733635019"><ele>189.0</ele><time>2026-04-18T15:46:12.999Z</time></trkpt><trkpt lat="42.32538754288157" lon="11.987986288744052"><ele>188.66666666666666</ele><time>2026-04-18T15:46:13.999Z</time></trkpt><trkpt lat="42.325584041457525" lon="11.987861464434095"><ele>188.33333333333331</ele><time>2026-04-18T15:46:14.999Z</time></trkpt><trkpt lat="42.325783531579006" lon="11.987738084304445"><ele>188.0</ele><time>2026-04-18T15:46:15.999Z</time></trkpt><trkpt lat="42.32598511571852" lon="11.987613159659821"><ele>187.33333333333331</ele><time>2026-04-18T15:46:16.999Z</time></trkpt><trkpt lat="42.32618829628393" lon="11.98748634026274"><ele>186.66666666666666</ele><time>2026-04-18T15:46:17.999Z</time></trkpt><trkpt lat="42.32639351543345" lon="11.987360454932332"><ele>186.0</ele><time>2026-04-18T15:46:18.999Z</time></trkpt><trkpt lat="42.32660064329747" lon="11.987232295399407"><ele>186.0</ele><time>2026-04-18T15:46:19.999Z</time></trkpt><trkpt lat="42.326807962312444" lon="11.987100778770733"><ele>186.0</ele><time>2026-04-18T15:46:20.999Z</time></trkpt><trkpt lat="42.32701292089954" lon="11.986968072116566"><ele>186.0</ele><time>2026-04-18T15:46:21.999Z</time></trkpt><trkpt lat="42.32722135811333" lon="11.986837272731162"><ele>186.0</ele><time>2026-04-18T15:46:22.999Z</time></trkpt><trkpt lat="42.327432035505126" lon="11.986712508356105"><ele>186.0</ele><time>2026-04-18T15:46:23.999Z</time></trkpt><trkpt lat="42.327640453358526" lon="11.986593393976007"><ele>186.0</ele><time>2026-04-18T15:46:24.999Z</time></trkpt><trkpt lat="42.32784373544589" lon="11.986475977768135"><ele>186.0</ele><time>2026-04-18T15:46:25.999Z</time></trkpt><trkpt lat="42.32804580621181" lon="11.986364929935936"><ele>184.66666666666666</ele><time>2026-04-18T15:46:26.999Z</time></trkpt><trkpt lat="42.328248354234844" lon="11.986257448721389"><ele>183.33333333333331</ele><time>2026-04-18T15:46:27.999Z</time></trkpt><trkpt lat="42.3284451646758" lon="11.986151426479728"><ele>182.0</ele><time>2026-04-18T15:46:28.999Z</time></trkpt><trkpt lat="42.328647515241165" lon="11.986051062365226"><ele>182.0</ele><time>2026-04-18T15:46:29.999Z</time></trkpt><trkpt lat="42.32884964490644" lon="11.985952354738675"><ele>182.0</ele><time>2026-04-18T15:46:31Z</time></trkpt><trkpt lat="42.32905809376854" lon="11.985857557170384"><ele>182.0</ele><time>2026-04-18T15:46:32Z</time></trkpt><trkpt lat="42.329267873813016" lon="11.98576087028492"><ele>181.5</ele><time>2026-04-18T15:46:33Z</time></trkpt><trkpt lat="42.329485855792164" lon="11.98566260574297"><ele>181.0</ele><time>2026-04-18T15:46:34Z</time></trkpt><trkpt lat="42.32971161908688" lon="11.985570150102076"><ele>175.5</ele><time>2026-04-18T15:46:35Z</time></trkpt><trkpt lat="42.32994190818342" lon="11.985479654138938"><ele>170.0</ele><time>2026-04-18T15:46:36Z</time></trkpt><trkpt lat="42.3301733746978" lon="11.985391214832312"><ele>170.0</ele><time>2026-04-18T15:46:37Z</time></trkpt><trkpt lat="42.33040584502169" lon="11.985305866273764"><ele>170.0</ele><time>2026-04-18T15:46:38Z</time></trkpt><trkpt lat="42.330641829546266" lon="11.98522700589844"><ele>169.0</ele><time>2026-04-18T15:46:39Z</time></trkpt><trkpt lat="42.330876655418834" lon="11.985151257761098"><ele>168.0</ele><time>2026-04-18T15:46:40Z</time></trkpt><trkpt lat="42.33110932620922" lon="11.985081132534363"><ele>168.0</ele><time>2026-04-18T15:46:41Z</time></trkpt><trkpt lat="42.33134139389238" lon="11.98501266604404"><ele>168.0</ele><time>2026-04-18T15:46:42Z</time></trkpt><trkpt lat="42.33157117952193" lon="11.984951796629108"><ele>165.0</ele><time>2026-04-18T15:46:43Z</time></trkpt><trkpt lat="42.331803050123284" lon="11.984896629906716"><ele>162.0</ele><time>2026-04-18T15:46:44Z</time></trkpt><trkpt lat="42.33203532856895" lon="11.984842003364598"><ele>168.5</ele><time>2026-04-18T15:46:45Z</time></trkpt><trkpt lat="42.33226855433277" lon="11.984787795599807"><ele>175.0</ele><time>2026-04-18T15:46:46Z</time></trkpt><trkpt lat="42.332506456599674" lon="11.984733492013405"><ele>175.0</ele><time>2026-04-18T15:46:47Z</time></trkpt><trkpt lat="42.332749664652745" lon="11.984678622531028"><ele>175.0</ele><time>2026-04-18T15:46:48Z</time></trkpt><trkpt lat="42.332990605867366" lon="11.984621157423671"><ele>179.0</ele><time>2026-04-18T15:46:49Z</time></trkpt><trkpt lat="42.33322975896708" lon="11.98456661968823"><ele>183.0</ele><time>2026-04-18T15:46:50Z</time></trkpt><trkpt lat="42.33346655775491" lon="11.984515848299722"><ele>183.0</ele><time>2026-04-18T15:46:51Z</time></trkpt><trkpt lat="42.33370220716213" lon="11.984466974122068"><ele>183.0</ele><time>2026-04-18T15:46:52Z</time></trkpt><trkpt lat="42.33394007500693" lon="11.984412139041096"><ele>180.5</ele><time>2026-04-18T15:46:53Z</time></trkpt><trkpt lat="42.33417671893921" lon="11.984356798888015"><ele>178.0</ele><time>2026-04-18T15:46:54Z</time></trkpt><trkpt lat="42.33440962118927" lon="11.984306282378759"><ele>178.0</ele><time>2026-04-18T15:46:55Z</time></trkpt><trkpt lat="42.33464077912533" lon="11.98425843339"><ele>178.0</ele><time>2026-04-18T15:46:56Z</time></trkpt><trkpt lat="42.33487552027274" lon="11.984209037174688"><ele>177.0</ele><time>2026-04-18T15:46:57Z</time></trkpt><trkpt lat="42.33511430280256" lon="11.984157217800595"><ele>176.0</ele><time>2026-04-18T15:46:58Z</time></trkpt><trkpt lat="42.335353382220404" lon="11.98410581953869"><ele>178.0</ele><time>2026-04-18T15:46:59Z</time></trkpt><trkpt lat="42.335592219123164" lon="11.984051588684444"><ele>180.0</ele><time>2026-04-18T15:47:00Z</time></trkpt><trkpt lat="42.335831652498236" lon="11.983999296640848"><ele>180.0</ele><time>2026-04-18T15:47:01Z</time></trkpt><trkpt lat="42.336070141087916" lon="11.98394880508524"><ele>180.0</ele><time>2026-04-18T15:47:02Z</time></trkpt><trkpt lat="42.33630340587475" lon="11.983900036049464"><ele>180.0</ele><time>2026-04-18T15:47:03Z</time></trkpt><trkpt lat="42.33653363352457" lon="11.98385158880169"><ele>180.0</ele><time>2026-04-18T15:47:04Z</time></trkpt><trkpt lat="42.336761228479084" lon="11.98380109560492"><ele>180.0</ele><time>2026-04-18T15:47:05Z</time></trkpt><trkpt lat="42.33698412977359" lon="11.98374945303459"><ele>180.0</ele><time>2026-04-18T15:47:06Z</time></trkpt><trkpt lat="42.33721786690924" lon="11.983698593610663"><ele>179.0</ele><time>2026-04-18T15:47:07Z</time></trkpt><trkpt lat="42.33745279089743" lon="11.983646666752959"><ele>178.0</ele><time>2026-04-18T15:47:08Z</time></trkpt><trkpt lat="42.33768935838631" lon="11.983594379096639"><ele>178.0</ele><time>2026-04-18T15:47:09Z</time></trkpt><trkpt lat="42.33791783946578" lon="11.983543194532503"><ele>178.0</ele><time>2026-04-18T15:47:10Z</time></trkpt><trkpt lat="42.338141860046875" lon="11.983498209845484"><ele>176.66666666666669</ele><time>2026-04-18T15:47:11Z</time></trkpt><trkpt lat="42.33836014539576" lon="11.98345189391384"><ele>175.33333333333334</ele><time>2026-04-18T15:47:12Z</time></trkpt><trkpt lat="42.338580128862816" lon="11.983404223142616"><ele>174.0</ele><time>2026-04-18T15:47:13.001Z</time></trkpt><trkpt lat="42.33880067878126" lon="11.983355475742062"><ele>174.66666666666666</ele><time>2026-04-18T15:47:14.001Z</time></trkpt><trkpt lat="42.33902160111387" lon="11.983307527405564"><ele>175.33333333333331</ele><time>2026-04-18T15:47:15.001Z</time></trkpt><trkpt lat="42.339240323117245" lon="11.983258993091265"><ele>176.0</ele><time>2026-04-18T15:47:16.001Z</time></trkpt><trkpt lat="42.339456021991175" lon="11.983212090335305"><ele>176.0</ele><time>2026-04-18T15:47:17.001Z</time></trkpt><trkpt lat="42.3396751590479" lon="11.983167055492029"><ele>176.0</ele><time>2026-04-18T15:47:18.001Z</time></trkpt><trkpt lat="42.339898372787005" lon="11.983120397693195"><ele>176.0</ele><time>2026-04-18T15:47:19.001Z</time></trkpt><trkpt lat="42.34012668623512" lon="11.983069024460201"><ele>177.5</ele><time>2026-04-18T15:47:20.001Z</time></trkpt><trkpt lat="42.34035684535667" lon="11.9830164614556"><ele>179.0</ele><time>2026-04-18T15:47:21.001Z</time></trkpt><trkpt lat="42.340592278418455" lon="11.982965521058068"><ele>179.0</ele><time>2026-04-18T15:47:22.001Z</time></trkpt><trkpt lat="42.34082472449086" lon="11.98291682927388"><ele>179.0</ele><time>2026-04-18T15:47:23.001Z</time></trkpt><trkpt lat="42.34105203788213" lon="11.982870655102051"><ele>179.0</ele><time>2026-04-18T15:47:24.001Z</time></trkpt><trkpt lat="42.341277261364006" lon="11.982818402496452"><ele>179.0</ele><time>2026-04-18T15:47:25.001Z</time></trkpt><trkpt lat="42.34150476264383" lon="11.982767835073307"><ele>177.5</ele><time>2026-04-18T15:47:26.001Z</time></trkpt><trkpt lat="42.341733183535474" lon="11.982719035602646"><ele>176.0</ele><time>2026-04-18T15:47:27.001Z</time></trkpt><trkpt lat="42.34195683757674" lon="11.982668978945071"><ele>176.0</ele><time>2026-04-18T15:47:28.001Z</time></trkpt><trkpt lat="42.34218139044161" lon="11.982619373676814"><ele>176.0</ele><time>2026-04-18T15:47:29.001Z</time></trkpt><trkpt lat="42.3424073874917" lon="11.982567633262917"><ele>174.0</ele><time>2026-04-18T15:47:30.001Z</time></trkpt><trkpt lat="42.34262809978268" lon="11.982520384495784"><ele>172.0</ele><time>2026-04-18T15:47:31.001Z</time></trkpt><trkpt lat="42.342844329865045" lon="11.982475323999157"><ele>170.0</ele><time>2026-04-18T15:47:32.001Z</time></trkpt><trkpt lat="42.34305157345226" lon="11.982432159019861"><ele>168.0</ele><time>2026-04-18T15:47:33.001Z</time></trkpt><trkpt lat="42.343248511020086" lon="11.982389478089884"><ele>166.0</ele><time>2026-04-18T15:47:34.001Z</time></trkpt><trkpt lat="42.343453754275366" lon="11.982344230291003"><ele>164.0</ele><time>2026-04-18T15:47:35.001Z</time></trkpt><trkpt lat="42.34365718154555" lon="11.982299878348938"><ele>164.0</ele><time>2026-04-18T15:47:36.001Z</time></trkpt><trkpt lat="42.34386657093496" lon="11.982260470092877"><ele>164.0</ele><time>2026-04-18T15:47:37.001Z</time></trkpt><trkpt lat="42.344074517693585" lon="11.982218305252255"><ele>164.0</ele><time>2026-04-18T15:47:38.001Z</time></trkpt><trkpt lat="42.34428907147888" lon="11.982171624390986"><ele>165.66666666666666</ele><time>2026-04-18T15:47:39.001Z</time></trkpt><trkpt lat="42.344508785053804" lon="11.982124332814768"><ele>167.33333333333334</ele><time>2026-04-18T15:47:40.001Z</time></trkpt><trkpt lat="42.34472671808634" lon="11.98206919139224"><ele>169.0</ele><time>2026-04-18T15:47:41.001Z</time></trkpt><trkpt lat="42.34494646034335" lon="11.982022477031272"><ele>170.33333333333334</ele><time>2026-04-18T15:47:42.001Z</time></trkpt><trkpt lat="42.345166735968434" lon="11.981972331318376"><ele>171.66666666666666</ele><time>2026-04-18T15:47:43.001Z</time></trkpt><trkpt lat="42.345385388523965" lon="11.981924200594333"><ele>173.0</ele><time>2026-04-18T15:47:44.001Z</time></trkpt><trkpt lat="42.345601403651855" lon="11.981875294944384"><ele>173.0</ele><time>2026-04-18T15:47:45.001Z</time></trkpt><trkpt lat="42.34582260396031" lon="11.9818277738809"><ele>173.0</ele><time>2026-04-18T15:47:46.001Z</time></trkpt><trkpt lat="42.34604373805594" lon="11.981782321028634"><ele>173.0</ele><time>2026-04-18T15:47:47.001Z</time></trkpt><trkpt lat="42.346253659755604" lon="11.981736967161927"><ele>173.0</ele><time>2026-04-18T15:47:48.001Z</time></trkpt><trkpt lat="42.34646640676349" lon="11.981691709885046"><ele>173.0</ele><time>2026-04-18T15:47:49.001Z</time></trkpt><trkpt lat="42.34667664401592" lon="11.981649477112233"><ele>173.0</ele><time>2026-04-18T15:47:50.001Z</time></trkpt><trkpt lat="42.346881860810434" lon="11.981608079952943"><ele>172.66666666666666</ele><time>2026-04-18T15:47:51.001Z</time></trkpt><trkpt lat="42.34708527450296" lon="11.981562715311782"><ele>172.33333333333334</ele><time>2026-04-18T15:47:52.001Z</time></trkpt><trkpt lat="42.34728739133095" lon="11.981516859584245"><ele>172.0</ele><time>2026-04-18T15:47:53.001Z</time></trkpt><trkpt lat="42.34749639444485" lon="11.981470591604305"><ele>171.0</ele><time>2026-04-18T15:47:54.001Z</time></trkpt><trkpt lat="42.34770770841029" lon="11.981429342920517"><ele>170.0</ele><time>2026-04-18T15:47:55.001Z</time></trkpt><trkpt lat="42.34792050141308" lon="11.981393620375862"><ele>169.0</ele><time>2026-04-18T15:47:56.001Z</time></trkpt><trkpt lat="42.34813173915435" lon="11.981360431602091"><ele>168.66666666666669</ele><time>2026-04-18T15:47:57.001Z</time></trkpt><trkpt lat="42.3483414785144" lon="11.981332038910105"><ele>168.33333333333334</ele><time>2026-04-18T15:47:58.001Z</time></trkpt><trkpt lat="42.34855047150153" lon="11.98130795005259"><ele>168.0</ele><time>2026-04-18T15:47:59.001Z</time></trkpt><trkpt lat="42.34877019784882" lon="11.981286287338932"><ele>168.66666666666666</ele><time>2026-04-18T15:48:00.001Z</time></trkpt><trkpt lat="42.34898758639053" lon="11.981270372219265"><ele>169.33333333333331</ele><time>2026-04-18T15:48:01.001Z</time></trkpt><trkpt lat="42.34920396217798" lon="11.981256094937924"><ele>170.0</ele><time>2026-04-18T15:48:02.001Z</time></trkpt><trkpt lat="42.349419812986845" lon="11.981245121577706"><ele>170.0</ele><time>2026-04-18T15:48:03.002Z</time></trkpt><trkpt lat="42.34963650824304" lon="11.981239956393315"><ele>170.0</ele><time>2026-04-18T15:48:04.002Z</time></trkpt><trkpt lat="42.349854038692946" lon="11.981242076885529"><ele>170.0</ele><time>2026-04-18T15:48:05.002Z</time></trkpt><trkpt lat="42.350075297105796" lon="11.981247945674147"><ele>170.0</ele><time>2026-04-18T15:48:06.002Z</time></trkpt><trkpt lat="42.35029925260471" lon="11.981260094458534"><ele>170.0</ele><time>2026-04-18T15:48:07.002Z</time></trkpt><trkpt lat="42.350525631564494" lon="11.9812802478773"><ele>170.0</ele><time>2026-04-18T15:48:08.002Z</time></trkpt><trkpt lat="42.3507506667315" lon="11.981301814251166"><ele>170.0</ele><time>2026-04-18T15:48:09.002Z</time></trkpt><trkpt lat="42.350970714716794" lon="11.981330024194525"><ele>170.0</ele><time>2026-04-18T15:48:10.002Z</time></trkpt><trkpt lat="42.35117964726589" lon="11.981359408981199"><ele>169.66666666666666</ele><time>2026-04-18T15:48:11Z</time></trkpt><trkpt lat="42.35139315110835" lon="11.981398775383676"><ele>169.33333333333334</ele><time>2026-04-18T15:48:12Z</time></trkpt><trkpt lat="42.35159686474922" lon="11.981440633030852"><ele>169.0</ele><time>2026-04-18T15:48:13Z</time></trkpt><trkpt lat="42.35178968647009" lon="11.981483917644224"><ele>169.0</ele><time>2026-04-18T15:48:14Z</time></trkpt><trkpt lat="42.35197090182939" lon="11.981527257264347"><ele>169.0</ele><time>2026-04-18T15:48:15Z</time></trkpt><trkpt lat="42.352154563636404" lon="11.981574676546819"><ele>169.0</ele><time>2026-04-18T15:48:16Z</time></trkpt><trkpt lat="42.35234565203786" lon="11.981628478582918"><ele>168.33333333333334</ele><time>2026-04-18T15:48:17Z</time></trkpt><trkpt lat="42.35255100192807" lon="11.981691282144151"><ele>167.66666666666666</ele><time>2026-04-18T15:48:18Z</time></trkpt><trkpt lat="42.35276181123007" lon="11.981761522179525"><ele>167.0</ele><time>2026-04-18T15:48:19Z</time></trkpt><trkpt lat="42.35297529087254" lon="11.98183354933743"><ele>167.0</ele><time>2026-04-18T15:48:20Z</time></trkpt><trkpt lat="42.353187597874964" lon="11.981914813061307"><ele>167.0</ele><time>2026-04-18T15:48:21Z</time></trkpt><trkpt lat="42.35339465947997" lon="11.982004528017946"><ele>167.0</ele><time>2026-04-18T15:48:22Z</time></trkpt><trkpt lat="42.35360394286113" lon="11.982097549578523"><ele>167.0</ele><time>2026-04-18T15:48:23Z</time></trkpt><trkpt lat="42.353813889440595" lon="11.982197598955079"><ele>167.0</ele><time>2026-04-18T15:48:24Z</time></trkpt><trkpt lat="42.354025731693966" lon="11.982301683132276"><ele>167.0</ele><time>2026-04-18T15:48:25Z</time></trkpt><trkpt lat="42.35423821437214" lon="11.982411168304187"><ele>167.0</ele><time>2026-04-18T15:48:26Z</time></trkpt><trkpt lat="42.35445114046689" lon="11.982523882841685"><ele>167.0</ele><time>2026-04-18T15:48:27Z</time></trkpt><trkpt lat="42.35466277433289" lon="11.982640280242588"><ele>166.0</ele><time>2026-04-18T15:48:28Z</time></trkpt><trkpt lat="42.35487260248392" lon="11.982761872790025"><ele>165.0</ele><time>2026-04-18T15:48:29Z</time></trkpt><trkpt lat="42.35507860882195" lon="11.982888878995997"><ele>165.0</ele><time>2026-04-18T15:48:30Z</time></trkpt><trkpt lat="42.3552847917431" lon="11.983022828421674"><ele>165.0</ele><time>2026-04-18T15:48:31Z</time></trkpt><trkpt lat="42.35548424219585" lon="11.983161295017636"><ele>165.33333333333334</ele><time>2026-04-18T15:48:32Z</time></trkpt><trkpt lat="42.35567985762188" lon="11.983303883756205"><ele>165.66666666666669</ele><time>2026-04-18T15:48:33Z</time></trkpt><trkpt lat="42.35587277055579" lon="11.98345202670011"><ele>166.0</ele><time>2026-04-18T15:48:34Z</time></trkpt><trkpt lat="42.356059527398735" lon="11.983599542151444"><ele>165.33333333333334</ele><time>2026-04-18T15:48:35Z</time></trkpt><trkpt lat="42.35624663114673" lon="11.98375225248881"><ele>164.66666666666666</ele><time>2026-04-18T15:48:36Z</time></trkpt><trkpt lat="42.356422188854616" lon="11.983901295347449"><ele>164.0</ele><time>2026-04-18T15:48:37Z</time></trkpt><trkpt lat="42.35659427827064" lon="11.984054366893236"><ele>164.33333333333331</ele><time>2026-04-18T15:48:38Z</time></trkpt><trkpt lat="42.35676425374677" lon="11.984206766939218"><ele>164.66666666666666</ele><time>2026-04-18T15:48:39Z</time></trkpt><trkpt lat="42.356928174864805" lon="11.984363342392326"><ele>165.0</ele><time>2026-04-18T15:48:40Z</time></trkpt><trkpt lat="42.35708667146406" lon="11.984523953857735"><ele>162.0</ele><time>2026-04-18T15:48:41Z</time></trkpt><trkpt lat="42.35724930695074" lon="11.984684662029503"><ele>159.0</ele><time>2026-04-18T15:48:42Z</time></trkpt><trkpt lat="42.3574173376536" lon="11.984855897950903"><ele>156.0</ele><time>2026-04-18T15:48:43.001Z</time></trkpt><trkpt lat="42.35759413113664" lon="11.98504316255423"><ele>151.0</ele><time>2026-04-18T15:48:44.001Z</time></trkpt><trkpt lat="42.357775894556056" lon="11.985244408059453"><ele>146.0</ele><time>2026-04-18T15:48:45.001Z</time></trkpt><trkpt lat="42.357956229859184" lon="11.985448967166938"><ele>145.5</ele><time>2026-04-18T15:48:46.001Z</time></trkpt><trkpt lat="42.3581291655" lon="11.985657308453339"><ele>145.0</ele><time>2026-04-18T15:48:47.001Z</time></trkpt><trkpt lat="42.35829774045275" lon="11.985870002789273"><ele>145.0</ele><time>2026-04-18T15:48:48.001Z</time></trkpt><trkpt lat="42.358463240337805" lon="11.986084845556244"><ele>145.0</ele><time>2026-04-18T15:48:49.001Z</time></trkpt><trkpt lat="42.358627549551734" lon="11.986304517384312"><ele>145.0</ele><time>2026-04-18T15:48:50.001Z</time></trkpt><trkpt lat="42.35878313951287" lon="11.986534184664846"><ele>145.0</ele><time>2026-04-18T15:48:51.001Z</time></trkpt><trkpt lat="42.35894162729356" lon="11.986770143941268"><ele>148.5</ele><time>2026-04-18T15:48:52.001Z</time></trkpt><trkpt lat="42.35910914451808" lon="11.987010033221141"><ele>152.0</ele><time>2026-04-18T15:48:53.001Z</time></trkpt><trkpt lat="42.35927079353937" lon="11.987271662347903"><ele>151.0</ele><time>2026-04-18T15:48:54.001Z</time></trkpt><trkpt lat="42.359431139355" lon="11.987532921992754"><ele>150.0</ele><time>2026-04-18T15:48:55.001Z</time></trkpt><trkpt lat="42.359594356200105" lon="11.987785579334414"><ele>153.0</ele><time>2026-04-18T15:48:56.001Z</time></trkpt><trkpt lat="42.359733052387696" lon="11.98805768238291"><ele>156.0</ele><time>2026-04-18T15:48:57.001Z</time></trkpt><trkpt lat="42.35988880897236" lon="11.988312925058768"><ele>155.5</ele><time>2026-04-18T15:48:58.001Z</time></trkpt><trkpt lat="42.36002532529043" lon="11.988587174927599"><ele>155.0</ele><time>2026-04-18T15:48:59.001Z</time></trkpt><trkpt lat="42.36014926195922" lon="11.988865492594824"><ele>155.0</ele><time>2026-04-18T15:49:00.001Z</time></trkpt><trkpt lat="42.360292472191375" lon="11.989127053008765"><ele>155.0</ele><time>2026-04-18T15:49:01.001Z</time></trkpt><trkpt lat="42.36040563367494" lon="11.989398000942474"><ele>155.66666666666666</ele><time>2026-04-18T15:49:02.001Z</time></trkpt><trkpt lat="42.36051097427609" lon="11.98965392415922"><ele>156.33333333333334</ele><time>2026-04-18T15:49:03.001Z</time></trkpt><trkpt lat="42.36062402366035" lon="11.989905982886452"><ele>157.0</ele><time>2026-04-18T15:49:04.001Z</time></trkpt><trkpt lat="42.360730413360294" lon="11.990163535324399"><ele>160.0</ele><time>2026-04-18T15:49:05.001Z</time></trkpt><trkpt lat="42.36083368425207" lon="11.990429810104981"><ele>163.0</ele><time>2026-04-18T15:49:06.001Z</time></trkpt><trkpt lat="42.36093828638163" lon="11.990700142582412"><ele>166.0</ele><time>2026-04-18T15:49:07.001Z</time></trkpt><trkpt lat="42.361041950721656" lon="11.990979729487588"><ele>167.0</ele><time>2026-04-18T15:49:08.001Z</time></trkpt><trkpt lat="42.361138200731645" lon="11.991263851479632"><ele>168.0</ele><time>2026-04-18T15:49:09.001Z</time></trkpt><trkpt lat="42.36122619618626" lon="11.991550909946389"><ele>167.66666666666666</ele><time>2026-04-18T15:49:10.001Z</time></trkpt><trkpt lat="42.361313318622365" lon="11.991835224937654"><ele>167.33333333333331</ele><time>2026-04-18T15:49:11.001Z</time></trkpt><trkpt lat="42.3613957116816" lon="11.99210813398473"><ele>167.0</ele><time>2026-04-18T15:49:12.001Z</time></trkpt><trkpt lat="42.36147202887534" lon="11.992378970599427"><ele>168.0</ele><time>2026-04-18T15:49:13.001Z</time></trkpt><trkpt lat="42.36154451976578" lon="11.992653276275302"><ele>169.0</ele><time>2026-04-18T15:49:14.001Z</time></trkpt><trkpt lat="42.36161303413232" lon="11.992934229791997"><ele>170.0</ele><time>2026-04-18T15:49:15.001Z</time></trkpt><trkpt lat="42.36167799084422" lon="11.993217949249926"><ele>170.33333333333331</ele><time>2026-04-18T15:49:16.001Z</time></trkpt><trkpt lat="42.36173807871146" lon="11.993500916788932"><ele>170.66666666666666</ele><time>2026-04-18T15:49:17.001Z</time></trkpt><trkpt lat="42.361794524492915" lon="11.99378677090038"><ele>171.0</ele><time>2026-04-18T15:49:18.001Z</time></trkpt><trkpt lat="42.3618500359765" lon="11.994073375367753"><ele>170.5</ele><time>2026-04-18T15:49:19.001Z</time></trkpt><trkpt lat="42.36190809134917" lon="11.994371428572485"><ele>170.0</ele><time>2026-04-18T15:49:20.001Z</time></trkpt><trkpt lat="42.36196295090516" lon="11.994670924452246"><ele>170.0</ele><time>2026-04-18T15:49:21.001Z</time></trkpt><trkpt lat="42.36201344493118" lon="11.994968270115393"><ele>170.0</ele><time>2026-04-18T15:49:22.001Z</time></trkpt><trkpt lat="42.36206252964938" lon="11.995264516499054"><ele>169.5</ele><time>2026-04-18T15:49:23.001Z</time></trkpt><trkpt lat="42.36211274992139" lon="11.99556220641374"><ele>169.0</ele><time>2026-04-18T15:49:24.001Z</time></trkpt><trkpt lat="42.36216117836044" lon="11.995864105756633"><ele>171.0</ele><time>2026-04-18T15:49:25.001Z</time></trkpt><trkpt lat="42.36221023588849" lon="11.996168454589801"><ele>173.0</ele><time>2026-04-18T15:49:26.001Z</time></trkpt><trkpt lat="42.36225887010858" lon="11.996475131249861"><ele>173.5</ele><time>2026-04-18T15:49:27.001Z</time></trkpt><trkpt lat="42.36230471205785" lon="11.996781602813815"><ele>174.0</ele><time>2026-04-18T15:49:28.001Z</time></trkpt><trkpt lat="42.36235183259493" lon="11.997089176386925"><ele>174.0</ele><time>2026-04-18T15:49:29.001Z</time></trkpt><trkpt lat="42.36239803200462" lon="11.997391596666473"><ele>174.0</ele><time>2026-04-18T15:49:30.001Z</time></trkpt><trkpt lat="42.36244259852235" lon="11.99769584326927"><ele>174.5</ele><time>2026-04-18T15:49:31.001Z</time></trkpt><trkpt lat="42.36248861532899" lon="11.997995038429572"><ele>175.0</ele><time>2026-04-18T15:49:32.001Z</time></trkpt><trkpt lat="42.36253431182126" lon="11.99829252632276"><ele>175.0</ele><time>2026-04-18T15:49:33.001Z</time></trkpt><trkpt lat="42.36258125633175" lon="11.998591404580655"><ele>175.0</ele><time>2026-04-18T15:49:34.001Z</time></trkpt><trkpt lat="42.362627401956935" lon="11.99888371440505"><ele>175.0</ele><time>2026-04-18T15:49:35.001Z</time></trkpt><trkpt lat="42.362672983816616" lon="11.999167231027812"><ele>175.0</ele><time>2026-04-18T15:49:36.001Z</time></trkpt><trkpt lat="42.3627166680886" lon="11.999450656356172"><ele>175.0</ele><time>2026-04-18T15:49:37.002Z</time></trkpt><trkpt lat="42.36276034427961" lon="11.999733488364113"><ele>175.0</ele><time>2026-04-18T15:49:38.002Z</time></trkpt><trkpt lat="42.36280179922468" lon="12.00002038726029"><ele>175.0</ele><time>2026-04-18T15:49:39.002Z</time></trkpt><trkpt lat="42.36284503571044" lon="12.000304276241794"><ele>175.0</ele><time>2026-04-18T15:49:40.002Z</time></trkpt><trkpt lat="42.36289172189813" lon="12.000592894614842"><ele>175.0</ele><time>2026-04-18T15:49:41.002Z</time></trkpt><trkpt lat="42.362944481206675" lon="12.000885854345022"><ele>175.0</ele><time>2026-04-18T15:49:42.002Z</time></trkpt><trkpt lat="42.36298577370433" lon="12.001185847730206"><ele>175.0</ele><time>2026-04-18T15:49:43.002Z</time></trkpt><trkpt lat="42.3630278678982" lon="12.001484561747517"><ele>177.5</ele><time>2026-04-18T15:49:44.002Z</time></trkpt><trkpt lat="42.36308007701895" lon="12.001788181115513"><ele>180.0</ele><time>2026-04-18T15:49:45.002Z</time></trkpt><trkpt lat="42.36311996223698" lon="12.002100325038889"><ele>180.0</ele><time>2026-04-18T15:49:46.002Z</time></trkpt><trkpt lat="42.36317291622115" lon="12.0024051924316"><ele>180.0</ele><time>2026-04-18T15:49:47.002Z</time></trkpt><trkpt lat="42.36322261909265" lon="12.002710910261264"><ele>180.33333333333334</ele><time>2026-04-18T15:49:48.002Z</time></trkpt><trkpt lat="42.36326503090796" lon="12.003008992733935"><ele>180.66666666666669</ele><time>2026-04-18T15:49:49.002Z</time></trkpt><trkpt lat="42.36331407567823" lon="12.003298240529176"><ele>181.0</ele><time>2026-04-18T15:49:50.002Z</time></trkpt><trkpt lat="42.36334208328717" lon="12.003600369753096"><ele>181.0</ele><time>2026-04-18T15:49:51.002Z</time></trkpt><trkpt lat="42.36339779376182" lon="12.00390122080844"><ele>181.0</ele><time>2026-04-18T15:49:52.002Z</time></trkpt><trkpt lat="42.36344153183655" lon="12.004207102193558"><ele>181.0</ele><time>2026-04-18T15:49:53.002Z</time></trkpt><trkpt lat="42.36349033231836" lon="12.00451927319629"><ele>181.0</ele><time>2026-04-18T15:49:54.002Z</time></trkpt><trkpt lat="42.363538103280135" lon="12.004823438672029"><ele>180.33333333333334</ele><time>2026-04-18T15:49:55.002Z</time></trkpt><trkpt lat="42.363576762829354" lon="12.005115090253987"><ele>179.66666666666666</ele><time>2026-04-18T15:49:56.002Z</time></trkpt><trkpt lat="42.36362761825868" lon="12.005414018547933"><ele>179.0</ele><time>2026-04-18T15:49:57.002Z</time></trkpt><trkpt lat="42.3636771696815" lon="12.005716157807907"><ele>179.5</ele><time>2026-04-18T15:49:58.002Z</time></trkpt><trkpt lat="42.36372497711395" lon="12.006016093204922"><ele>180.0</ele><time>2026-04-18T15:49:59.002Z</time></trkpt><trkpt lat="42.36377416651697" lon="12.00631438482464"><ele>180.0</ele><time>2026-04-18T15:50:00.002Z</time></trkpt><trkpt lat="42.363819070868445" lon="12.006611092465468"><ele>180.0</ele><time>2026-04-18T15:50:01.002Z</time></trkpt><trkpt lat="42.363864928729754" lon="12.006910062327343"><ele>180.0</ele><time>2026-04-18T15:50:02.002Z</time></trkpt><trkpt lat="42.363911894504035" lon="12.007230681045337"><ele>179.5</ele><time>2026-04-18T15:50:03.002Z</time></trkpt><trkpt lat="42.36396794720814" lon="12.00754275972274"><ele>179.0</ele><time>2026-04-18T15:50:04.002Z</time></trkpt><trkpt lat="42.36402373545452" lon="12.00785904902084"><ele>179.0</ele><time>2026-04-18T15:50:05.002Z</time></trkpt><trkpt lat="42.364080918846824" lon="12.008180723552893"><ele>179.0</ele><time>2026-04-18T15:50:06.002Z</time></trkpt><trkpt lat="42.36415006637437" lon="12.008491650787024"><ele>180.5</ele><time>2026-04-18T15:50:07.002Z</time></trkpt><trkpt lat="42.36422309392942" lon="12.008802929576209"><ele>182.0</ele><time>2026-04-18T15:50:08.002Z</time></trkpt><trkpt lat="42.36429087155329" lon="12.00909998671214"><ele>182.0</ele><time>2026-04-18T15:50:09.002Z</time></trkpt><trkpt lat="42.36436242656321" lon="12.009388379552764"><ele>182.0</ele><time>2026-04-18T15:50:10.002Z</time></trkpt><trkpt lat="42.364435550228905" lon="12.009665751771534"><ele>182.0</ele><time>2026-04-18T15:50:11.002Z</time></trkpt><trkpt lat="42.36451213104138" lon="12.009950734065477"><ele>181.33333333333331</ele><time>2026-04-18T15:50:12.002Z</time></trkpt><trkpt lat="42.36458646394151" lon="12.010229988049032"><ele>180.66666666666666</ele><time>2026-04-18T15:50:13.002Z</time></trkpt><trkpt lat="42.36466214638659" lon="12.010497958347301"><ele>180.0</ele><time>2026-04-18T15:50:14.002Z</time></trkpt><trkpt lat="42.364732842178604" lon="12.010763894406429"><ele>178.33333333333334</ele><time>2026-04-18T15:50:15.002Z</time></trkpt><trkpt lat="42.36479949851403" lon="12.01101816686377"><ele>176.66666666666669</ele><time>2026-04-18T15:50:16.002Z</time></trkpt><trkpt lat="42.36487967464743" lon="12.011272706599454"><ele>175.0</ele><time>2026-04-18T15:50:17.002Z</time></trkpt><trkpt lat="42.3649606729066" lon="12.011543985006195"><ele>173.33333333333334</ele><time>2026-04-18T15:50:18.002Z</time></trkpt><trkpt lat="42.365033303598125" lon="12.011812788298759"><ele>171.66666666666666</ele><time>2026-04-18T15:50:19.002Z</time></trkpt><trkpt lat="42.365108970409786" lon="12.012084379756514"><ele>170.0</ele><time>2026-04-18T15:50:20.001Z</time></trkpt><trkpt lat="42.36518563274644" lon="12.012352465658466"><ele>170.66666666666666</ele><time>2026-04-18T15:50:21.001Z</time></trkpt><trkpt lat="42.36526372728647" lon="12.01262486879354"><ele>171.33333333333334</ele><time>2026-04-18T15:50:22.001Z</time></trkpt><trkpt lat="42.36534628576704" lon="12.012899491549028"><ele>172.0</ele><time>2026-04-18T15:50:23.001Z</time></trkpt><trkpt lat="42.36543318660019" lon="12.01318723236579"><ele>171.5</ele><time>2026-04-18T15:50:24.001Z</time></trkpt><trkpt lat="42.36551836798423" lon="12.013494526217281"><ele>171.0</ele><time>2026-04-18T15:50:25.001Z</time></trkpt><trkpt lat="42.36561787763197" lon="12.013816787854916"><ele>171.0</ele><time>2026-04-18T15:50:26.001Z</time></trkpt><trkpt lat="42.365695202764535" lon="12.014129340761714"><ele>171.0</ele><time>2026-04-18T15:50:27.001Z</time></trkpt><trkpt lat="42.365778202626096" lon="12.01441373656591"><ele>171.66666666666666</ele><time>2026-04-18T15:50:28.001Z</time></trkpt><trkpt lat="42.36585547357122" lon="12.014697594258553"><ele>172.33333333333331</ele><time>2026-04-18T15:50:29.001Z</time></trkpt><trkpt lat="42.365934081776146" lon="12.014970508055823"><ele>173.0</ele><time>2026-04-18T15:50:30.001Z</time></trkpt><trkpt lat="42.36601530297646" lon="12.015226396447195"><ele>173.66666666666666</ele><time>2026-04-18T15:50:31.001Z</time></trkpt><trkpt lat="42.366092339866626" lon="12.015501883731515"><ele>174.33333333333334</ele><time>2026-04-18T15:50:32.001Z</time></trkpt><trkpt lat="42.36616564534061" lon="12.0157693090038"><ele>175.0</ele><time>2026-04-18T15:50:33.001Z</time></trkpt><trkpt lat="42.366238788660155" lon="12.016033415306392"><ele>175.0</ele><time>2026-04-18T15:50:34.001Z</time></trkpt><trkpt lat="42.36631147740197" lon="12.016289539660603"><ele>175.0</ele><time>2026-04-18T15:50:35.001Z</time></trkpt><trkpt lat="42.36638665401698" lon="12.016553246063479"><ele>175.0</ele><time>2026-04-18T15:50:36.001Z</time></trkpt><trkpt lat="42.36646034416482" lon="12.016812757228"><ele>176.0</ele><time>2026-04-18T15:50:37.001Z</time></trkpt><trkpt lat="42.36653525972008" lon="12.017080438265472"><ele>177.0</ele><time>2026-04-18T15:50:38.001Z</time></trkpt><trkpt lat="42.36661433803792" lon="12.017352439984661"><ele>178.0</ele><time>2026-04-18T15:50:39.001Z</time></trkpt><trkpt lat="42.36669003327294" lon="12.017621574519113"><ele>179.33333333333334</ele><time>2026-04-18T15:50:40.001Z</time></trkpt><trkpt lat="42.3667687700551" lon="12.017899524427655"><ele>180.66666666666666</ele><time>2026-04-18T15:50:41.001Z</time></trkpt><trkpt lat="42.36684636119108" lon="12.018168455011809"><ele>182.0</ele><time>2026-04-18T15:50:42.001Z</time></trkpt><trkpt lat="42.366921860800915" lon="12.018437852827681"><ele>183.33333333333331</ele><time>2026-04-18T15:50:43.001Z</time></trkpt><trkpt lat="42.36699603145734" lon="12.018701115716555"><ele>184.66666666666666</ele><time>2026-04-18T15:50:44.001Z</time></trkpt><trkpt lat="42.36706704495234" lon="12.018960008262136"><ele>186.0</ele><time>2026-04-18T15:50:45.001Z</time></trkpt><trkpt lat="42.36713584765194" lon="12.019212706005879"><ele>187.0</ele><time>2026-04-18T15:50:46.001Z</time></trkpt><trkpt lat="42.36720975674496" lon="12.019481223009016"><ele>188.0</ele><time>2026-04-18T15:50:47.001Z</time></trkpt><trkpt lat="42.36728029152222" lon="12.01975800743892"><ele>189.0</ele><time>2026-04-18T15:50:48.001Z</time></trkpt><trkpt lat="42.36734832799221" lon="12.020033707057127"><ele>189.0</ele><time>2026-04-18T15:50:49.001Z</time></trkpt><trkpt lat="42.36741695753434" lon="12.02031359305599"><ele>189.0</ele><time>2026-04-18T15:50:50.001Z</time></trkpt><trkpt lat="42.36748287499829" lon="12.020590054745144"><ele>189.0</ele><time>2026-04-18T15:50:51.001Z</time></trkpt><trkpt lat="42.36754706544194" lon="12.020863731830826"><ele>189.33333333333334</ele><time>2026-04-18T15:50:52.001Z</time></trkpt><trkpt lat="42.36760880218935" lon="12.021139495993742"><ele>189.66666666666669</ele><time>2026-04-18T15:50:53.001Z</time></trkpt><trkpt lat="42.36766770652939" lon="12.021402321865331"><ele>190.0</ele><time>2026-04-18T15:50:54.001Z</time></trkpt><trkpt lat="42.36772775804751" lon="12.021678787775205"><ele>190.66666666666669</ele><time>2026-04-18T15:50:55.001Z</time></trkpt><trkpt lat="42.36778535461228" lon="12.021956892373552"><ele>191.33333333333334</ele><time>2026-04-18T15:50:56.001Z</time></trkpt><trkpt lat="42.36784112800973" lon="12.022247130241817"><ele>192.0</ele><time>2026-04-18T15:50:57.001Z</time></trkpt><trkpt lat="42.36789386362783" lon="12.02253330433456"><ele>192.5</ele><time>2026-04-18T15:50:58.001Z</time></trkpt><trkpt lat="42.36794971135271" lon="12.022824492238536"><ele>193.0</ele><time>2026-04-18T15:50:59.001Z</time></trkpt><trkpt lat="42.36800273538509" lon="12.023128483939745"><ele>193.5</ele><time>2026-04-18T15:51:00.001Z</time></trkpt><trkpt lat="42.36805466392147" lon="12.023433685550776"><ele>194.0</ele><time>2026-04-18T15:51:01.001Z</time></trkpt><trkpt lat="42.36810535194803" lon="12.023738654124417"><ele>194.0</ele><time>2026-04-18T15:51:02.001Z</time></trkpt><trkpt lat="42.36815673611896" lon="12.02404979082489"><ele>194.0</ele><time>2026-04-18T15:51:03.001Z</time></trkpt><trkpt lat="42.368208300821664" lon="12.02435515695335"><ele>195.0</ele><time>2026-04-18T15:51:04.001Z</time></trkpt><trkpt lat="42.368256246282996" lon="12.024656260181594"><ele>196.0</ele><time>2026-04-18T15:51:05.001Z</time></trkpt><trkpt lat="42.368290934349325" lon="12.02495584374265"><ele>196.0</ele><time>2026-04-18T15:51:06.001Z</time></trkpt><trkpt lat="42.36832939074706" lon="12.025257632838716"><ele>196.0</ele><time>2026-04-18T15:51:07.001Z</time></trkpt><trkpt lat="42.36837398322712" lon="12.025555514589369"><ele>196.0</ele><time>2026-04-18T15:51:08.001Z</time></trkpt><trkpt lat="42.368412320079536" lon="12.025838135643246"><ele>196.0</ele><time>2026-04-18T15:51:09.001Z</time></trkpt><trkpt lat="42.3684478842429" lon="12.026107972916979"><ele>196.0</ele><time>2026-04-18T15:51:10.001Z</time></trkpt><trkpt lat="42.36847947402009" lon="12.026362756361479"><ele>196.0</ele><time>2026-04-18T15:51:11.001Z</time></trkpt><trkpt lat="42.36850917447201" lon="12.026629577278172"><ele>196.0</ele><time>2026-04-18T15:51:12.001Z</time></trkpt><trkpt lat="42.36854118084506" lon="12.02688745703714"><ele>196.0</ele><time>2026-04-18T15:51:13.001Z</time></trkpt><trkpt lat="42.36857449078962" lon="12.027153184692368"><ele>196.33333333333331</ele><time>2026-04-18T15:51:14.001Z</time></trkpt><trkpt lat="42.36860779858964" lon="12.027419908665733"><ele>196.66666666666669</ele><time>2026-04-18T15:51:15.001Z</time></trkpt><trkpt lat="42.36864370755124" lon="12.02769291770143"><ele>197.0</ele><time>2026-04-18T15:51:16.001Z</time></trkpt><trkpt lat="42.36867822351944" lon="12.027982189899266"><ele>196.66666666666669</ele><time>2026-04-18T15:51:17.001Z</time></trkpt><trkpt lat="42.36871721434345" lon="12.02828139494738"><ele>196.33333333333331</ele><time>2026-04-18T15:51:18.001Z</time></trkpt><trkpt lat="42.36875307949627" lon="12.028575476124482"><ele>196.0</ele><time>2026-04-18T15:51:19.001Z</time></trkpt><trkpt lat="42.36878735070242" lon="12.028862641320567"><ele>195.33333333333331</ele><time>2026-04-18T15:51:20.001Z</time></trkpt><trkpt lat="42.36881940649277" lon="12.029148097843427"><ele>194.66666666666669</ele><time>2026-04-18T15:51:21.001Z</time></trkpt><trkpt lat="42.368853561281156" lon="12.029433519474656"><ele>194.0</ele><time>2026-04-18T15:51:22.001Z</time></trkpt><trkpt lat="42.368889338678926" lon="12.029717497965514"><ele>196.66666666666669</ele><time>2026-04-18T15:51:23.001Z</time></trkpt><trkpt lat="42.368929733162865" lon="12.030006017800279"><ele>199.33333333333331</ele><time>2026-04-18T15:51:24.001Z</time></trkpt><trkpt lat="42.36896789104955" lon="12.030291788594397"><ele>202.0</ele><time>2026-04-18T15:51:25.001Z</time></trkpt><trkpt lat="42.36900157960262" lon="12.03057631266706"><ele>201.33333333333331</ele><time>2026-04-18T15:51:26.001Z</time></trkpt><trkpt lat="42.36903496858867" lon="12.030853308494569"><ele>200.66666666666669</ele><time>2026-04-18T15:51:27.001Z</time></trkpt><trkpt lat="42.36907154798931" lon="12.031130962624108"><ele>200.0</ele><time>2026-04-18T15:51:28.001Z</time></trkpt><trkpt lat="42.369106276572985" lon="12.031406440108626"><ele>200.0</ele><time>2026-04-18T15:51:29.002Z</time></trkpt><trkpt lat="42.36913858266921" lon="12.031670982986723"><ele>200.0</ele><time>2026-04-18T15:51:30.002Z</time></trkpt><trkpt lat="42.36917555856253" lon="12.031942879904443"><ele>200.0</ele><time>2026-04-18T15:51:31.002Z</time></trkpt><trkpt lat="42.3692152019759" lon="12.03221961584496"><ele>200.5</ele><time>2026-04-18T15:51:32.002Z</time></trkpt><trkpt lat="42.36925601723556" lon="12.032512828291587"><ele>201.0</ele><time>2026-04-18T15:51:33.002Z</time></trkpt><trkpt lat="42.36929928954022" lon="12.032829411626905"><ele>201.0</ele><time>2026-04-18T15:51:34.002Z</time></trkpt><trkpt lat="42.36934300524381" lon="12.033145218775035"><ele>201.0</ele><time>2026-04-18T15:51:35.002Z</time></trkpt><trkpt lat="42.36939058352131" lon="12.03346105565446"><ele>201.0</ele><time>2026-04-18T15:51:36.002Z</time></trkpt><trkpt lat="42.36944066938945" lon="12.033776900067046"><ele>201.0</ele><time>2026-04-18T15:51:37.002Z</time></trkpt><trkpt lat="42.3694862178787" lon="12.034080838992528"><ele>202.0</ele><time>2026-04-18T15:51:38.002Z</time></trkpt><trkpt lat="42.36953667205095" lon="12.034411333419289"><ele>203.0</ele><time>2026-04-18T15:51:39.002Z</time></trkpt><trkpt lat="42.369587737532015" lon="12.03473955767752"><ele>204.0</ele><time>2026-04-18T15:51:40.002Z</time></trkpt><trkpt lat="42.36963547754684" lon="12.035047262723072"><ele>205.0</ele><time>2026-04-18T15:51:41.002Z</time></trkpt><trkpt lat="42.369678403097616" lon="12.035331464950888"><ele>206.0</ele><time>2026-04-18T15:51:42.002Z</time></trkpt><trkpt lat="42.36971826076555" lon="12.035603294447379"><ele>207.33333333333334</ele><time>2026-04-18T15:51:43.002Z</time></trkpt><trkpt lat="42.36976084477621" lon="12.035877081595018"><ele>208.66666666666669</ele><time>2026-04-18T15:51:44.002Z</time></trkpt><trkpt lat="42.369802928961896" lon="12.03614474108237"><ele>210.0</ele><time>2026-04-18T15:51:45.002Z</time></trkpt><trkpt lat="42.369844959694575" lon="12.036411865640883"><ele>210.33333333333331</ele><time>2026-04-18T15:51:46.002Z</time></trkpt><trkpt lat="42.36988668210152" lon="12.036677244191134"><ele>210.66666666666666</ele><time>2026-04-18T15:51:47.002Z</time></trkpt><trkpt lat="42.36992894016522" lon="12.036949879860078"><ele>211.0</ele><time>2026-04-18T15:51:48.002Z</time></trkpt><trkpt lat="42.3699697357235" lon="12.03721788750319"><ele>211.33333333333331</ele><time>2026-04-18T15:51:49.002Z</time></trkpt><trkpt lat="42.370009932155774" lon="12.037486135513316"><ele>211.66666666666669</ele><time>2026-04-18T15:51:50.002Z</time></trkpt><trkpt lat="42.37005275140921" lon="12.037758568248911"><ele>212.0</ele><time>2026-04-18T15:51:51.002Z</time></trkpt><trkpt lat="42.37009539243589" lon="12.038036240394579"><ele>212.0</ele><time>2026-04-18T15:51:52.002Z</time></trkpt><trkpt lat="42.37013644846466" lon="12.038312932130774"><ele>212.0</ele><time>2026-04-18T15:51:53.002Z</time></trkpt><trkpt lat="42.37017897696698" lon="12.038580481931358"><ele>212.0</ele><time>2026-04-18T15:51:54.002Z</time></trkpt><trkpt lat="42.37021993747074" lon="12.038853731917216"><ele>212.0</ele><time>2026-04-18T15:51:55.002Z</time></trkpt><trkpt lat="42.37026145072989" lon="12.03912948290459"><ele>212.0</ele><time>2026-04-18T15:51:56.002Z</time></trkpt><trkpt lat="42.37030688058787" lon="12.039405807681836"><ele>212.0</ele><time>2026-04-18T15:51:57.002Z</time></trkpt><trkpt lat="42.370351458319064" lon="12.039687102983637"><ele>212.5</ele><time>2026-04-18T15:51:58.002Z</time></trkpt><trkpt lat="42.37039890788062" lon="12.039981766403832"><ele>213.0</ele><time>2026-04-18T15:51:59.002Z</time></trkpt><trkpt lat="42.37044735276361" lon="12.040289149635205"><ele>213.0</ele><time>2026-04-18T15:52:00.002Z</time></trkpt><trkpt lat="42.37049501216493" lon="12.040596924481388"><ele>213.0</ele><time>2026-04-18T15:52:01.002Z</time></trkpt><trkpt lat="42.37054388356555" lon="12.0409149405669"><ele>214.5</ele><time>2026-04-18T15:52:02.002Z</time></trkpt><trkpt lat="42.37059582297442" lon="12.041237430472345"><ele>216.0</ele><time>2026-04-18T15:52:03.002Z</time></trkpt><trkpt lat="42.3706450669501" lon="12.041550586529455"><ele>217.5</ele><time>2026-04-18T15:52:04.002Z</time></trkpt><trkpt lat="42.37069308262388" lon="12.041862051792007"><ele>219.0</ele><time>2026-04-18T15:52:05.002Z</time></trkpt><trkpt lat="42.37073812384588" lon="12.042168943584167"><ele>220.0</ele><time>2026-04-18T15:52:06.002Z</time></trkpt><trkpt lat="42.37078560834044" lon="12.042483652778465"><ele>221.0</ele><time>2026-04-18T15:52:07.002Z</time></trkpt><trkpt lat="42.37083213463665" lon="12.042796040374297"><ele>221.0</ele><time>2026-04-18T15:52:08.002Z</time></trkpt><trkpt lat="42.37087849548147" lon="12.043102765462999"><ele>221.0</ele><time>2026-04-18T15:52:09.002Z</time></trkpt><trkpt lat="42.37092422782198" lon="12.043400014903415"><ele>221.33333333333334</ele><time>2026-04-18T15:52:10.002Z</time></trkpt><trkpt lat="42.37097026565382" lon="12.043689850090434"><ele>221.66666666666669</ele><time>2026-04-18T15:52:11.002Z</time></trkpt><trkpt lat="42.37101655636668" lon="12.043972810491901"><ele>222.0</ele><time>2026-04-18T15:52:12.002Z</time></trkpt><trkpt lat="42.37106318345721" lon="12.04424424736391"><ele>222.0</ele><time>2026-04-18T15:52:13.002Z</time></trkpt><trkpt lat="42.37110700664397" lon="12.044524232698516"><ele>222.0</ele><time>2026-04-18T15:52:14.002Z</time></trkpt><trkpt lat="42.37115124624168" lon="12.044797644771535"><ele>222.0</ele><time>2026-04-18T15:52:15.002Z</time></trkpt><trkpt lat="42.37119594703611" lon="12.045077449439676"><ele>222.0</ele><time>2026-04-18T15:52:16.002Z</time></trkpt><trkpt lat="42.37124326083837" lon="12.045356349190149"><ele>222.0</ele><time>2026-04-18T15:52:17.002Z</time></trkpt><trkpt lat="42.37129148528674" lon="12.045631473968594"><ele>222.0</ele><time>2026-04-18T15:52:18.002Z</time></trkpt><trkpt lat="42.371340916268096" lon="12.045902627178792"><ele>223.66666666666669</ele><time>2026-04-18T15:52:19.002Z</time></trkpt><trkpt lat="42.371398361955166" lon="12.046180369667931"><ele>225.33333333333334</ele><time>2026-04-18T15:52:20.002Z</time></trkpt><trkpt lat="42.37145819481073" lon="12.046447270737543"><ele>227.0</ele><time>2026-04-18T15:52:21.002Z</time></trkpt><trkpt lat="42.37151772513069" lon="12.046714439387623"><ele>227.33333333333334</ele><time>2026-04-18T15:52:22.002Z</time></trkpt><trkpt lat="42.371581853850536" lon="12.046989387509358"><ele>227.66666666666669</ele><time>2026-04-18T15:52:23.002Z</time></trkpt><trkpt lat="42.371649724140156" lon="12.047258304799984"><ele>228.0</ele><time>2026-04-18T15:52:24.002Z</time></trkpt><trkpt lat="42.37172264502162" lon="12.047523980938362"><ele>228.66666666666669</ele><time>2026-04-18T15:52:25.002Z</time></trkpt><trkpt lat="42.37180092388194" lon="12.047782516453704"><ele>229.33333333333334</ele><time>2026-04-18T15:52:26.002Z</time></trkpt><trkpt lat="42.37188627083289" lon="12.04804185656541"><ele>230.0</ele><time>2026-04-18T15:52:27.002Z</time></trkpt><trkpt lat="42.37197623006729" lon="12.048297319921323"><ele>230.33333333333334</ele><time>2026-04-18T15:52:28.002Z</time></trkpt><trkpt lat="42.37206866922444" lon="12.048542231149652"><ele>230.66666666666669</ele><time>2026-04-18T15:52:29.001Z</time></trkpt><trkpt lat="42.37217037226047" lon="12.04879406365253"><ele>231.0</ele><time>2026-04-18T15:52:30.001Z</time></trkpt><trkpt lat="42.37227855577511" lon="12.04904181913306"><ele>230.0</ele><time>2026-04-18T15:52:31.001Z</time></trkpt><trkpt lat="42.37239797005318" lon="12.049296075283605"><ele>229.0</ele><time>2026-04-18T15:52:32.001Z</time></trkpt><trkpt lat="42.37252561962301" lon="12.0495461635187"><ele>228.0</ele><time>2026-04-18T15:52:33.001Z</time></trkpt><trkpt lat="42.372658169756505" lon="12.049790175275533"><ele>228.33333333333331</ele><time>2026-04-18T15:52:34.001Z</time></trkpt><trkpt lat="42.37279917883777" lon="12.05003116465588"><ele>228.66666666666666</ele><time>2026-04-18T15:52:35.001Z</time></trkpt><trkpt lat="42.372939769855684" lon="12.050262125241481"><ele>229.0</ele><time>2026-04-18T15:52:36.001Z</time></trkpt><trkpt lat="42.373080763336034" lon="12.050479163097616"><ele>228.33333333333331</ele><time>2026-04-18T15:52:37.001Z</time></trkpt><trkpt lat="42.373230835333494" lon="12.050694488043208"><ele>227.66666666666669</ele><time>2026-04-18T15:52:38.001Z</time></trkpt><trkpt lat="42.37339062365513" lon="12.050915122531933"><ele>227.0</ele><time>2026-04-18T15:52:39.001Z</time></trkpt><trkpt lat="42.3735569756052" lon="12.05113434039099"><ele>228.5</ele><time>2026-04-18T15:52:40.001Z</time></trkpt><trkpt lat="42.37373124745975" lon="12.05134830289536"><ele>230.0</ele><time>2026-04-18T15:52:41.001Z</time></trkpt><trkpt lat="42.373911861004906" lon="12.051552038100505"><ele>233.0</ele><time>2026-04-18T15:52:42.001Z</time></trkpt><trkpt lat="42.37410239004714" lon="12.05174482800253"><ele>236.0</ele><time>2026-04-18T15:52:43.001Z</time></trkpt><trkpt lat="42.374294185823935" lon="12.051925757149116"><ele>236.0</ele><time>2026-04-18T15:52:44.001Z</time></trkpt><trkpt lat="42.37448166326204" lon="12.052100373048965"><ele>236.0</ele><time>2026-04-18T15:52:45.001Z</time></trkpt><trkpt lat="42.374686615330454" lon="12.052274025172103"><ele>236.0</ele><time>2026-04-18T15:52:46.001Z</time></trkpt><trkpt lat="42.37488262333785" lon="12.052435037350095"><ele>236.0</ele><time>2026-04-18T15:52:47.001Z</time></trkpt><trkpt lat="42.37508658842273" lon="12.052590060937126"><ele>236.0</ele><time>2026-04-18T15:52:48.001Z</time></trkpt><trkpt lat="42.37528566018677" lon="12.052733849859106"><ele>236.0</ele><time>2026-04-18T15:52:49.001Z</time></trkpt><trkpt lat="42.37549104071519" lon="12.052871069722462"><ele>235.5</ele><time>2026-04-18T15:52:50.001Z</time></trkpt><trkpt lat="42.37569573332091" lon="12.053001212064064"><ele>235.0</ele><time>2026-04-18T15:52:51.001Z</time></trkpt><trkpt lat="42.37589833074856" lon="12.053130120391039"><ele>235.0</ele><time>2026-04-18T15:52:52.001Z</time></trkpt><trkpt lat="42.37609198067338" lon="12.053244930373223"><ele>235.0</ele><time>2026-04-18T15:52:53.001Z</time></trkpt><trkpt lat="42.376294432473564" lon="12.053356152535994"><ele>235.0</ele><time>2026-04-18T15:52:54.001Z</time></trkpt><trkpt lat="42.376486542015456" lon="12.05346513442049"><ele>236.33333333333331</ele><time>2026-04-18T15:52:55.001Z</time></trkpt><trkpt lat="42.37667990378995" lon="12.053568743775129"><ele>237.66666666666669</ele><time>2026-04-18T15:52:56.001Z</time></trkpt><trkpt lat="42.37687675782578" lon="12.05367332309375"><ele>239.0</ele><time>2026-04-18T15:52:57.001Z</time></trkpt><trkpt lat="42.37706850360827" lon="12.053778616870048"><ele>239.0</ele><time>2026-04-18T15:52:58.001Z</time></trkpt><trkpt lat="42.37725912162315" lon="12.053883265768135"><ele>239.0</ele><time>2026-04-18T15:52:59.001Z</time></trkpt><trkpt lat="42.3774429400145" lon="12.053980590562151"><ele>239.0</ele><time>2026-04-18T15:53:00.001Z</time></trkpt><trkpt lat="42.37762930973496" lon="12.05407827907777"><ele>239.33333333333334</ele><time>2026-04-18T15:53:01.001Z</time></trkpt><trkpt lat="42.377814267527434" lon="12.054173418269393"><ele>239.66666666666669</ele><time>2026-04-18T15:53:02.001Z</time></trkpt><trkpt lat="42.37800192268327" lon="12.054270254188921"><ele>240.0</ele><time>2026-04-18T15:53:03.001Z</time></trkpt><trkpt lat="42.378187269777136" lon="12.054368157477764"><ele>240.0</ele><time>2026-04-18T15:53:04.001Z</time></trkpt><trkpt lat="42.3783719490146" lon="12.054465535449724"><ele>240.0</ele><time>2026-04-18T15:53:05.001Z</time></trkpt><trkpt lat="42.378558988881906" lon="12.054563942664807"><ele>240.0</ele><time>2026-04-18T15:53:06.001Z</time></trkpt><trkpt lat="42.37874547367793" lon="12.054662679782329"><ele>239.33333333333331</ele><time>2026-04-18T15:53:07.001Z</time></trkpt><trkpt lat="42.37893368594796" lon="12.0547613763604"><ele>238.66666666666666</ele><time>2026-04-18T15:53:08.001Z</time></trkpt><trkpt lat="42.379119987755544" lon="12.05485876983403"><ele>238.0</ele><time>2026-04-18T15:53:09.001Z</time></trkpt><trkpt lat="42.37930965374725" lon="12.054959349210261"><ele>237.66666666666666</ele><time>2026-04-18T15:53:10.001Z</time></trkpt><trkpt lat="42.37949886081677" lon="12.055057975196894"><ele>237.33333333333331</ele><time>2026-04-18T15:53:11.001Z</time></trkpt><trkpt lat="42.37969046242813" lon="12.055155668657562"><ele>237.0</ele><time>2026-04-18T15:53:12.001Z</time></trkpt><trkpt lat="42.37988102267948" lon="12.055253173552384"><ele>237.0</ele><time>2026-04-18T15:53:13.001Z</time></trkpt><trkpt lat="42.380069226479094" lon="12.055350176102678"><ele>237.0</ele><time>2026-04-18T15:53:14.001Z</time></trkpt><trkpt lat="42.380254059581496" lon="12.055448360885014"><ele>237.0</ele><time>2026-04-18T15:53:15.001Z</time></trkpt><trkpt lat="42.38044035701995" lon="12.055545201803943"><ele>238.0</ele><time>2026-04-18T15:53:16.001Z</time></trkpt><trkpt lat="42.38062371575129" lon="12.055639400606053"><ele>239.0</ele><time>2026-04-18T15:53:17.001Z</time></trkpt><trkpt lat="42.38081042596844" lon="12.05574022750878"><ele>240.0</ele><time>2026-04-18T15:53:18.001Z</time></trkpt><trkpt lat="42.38099457993707" lon="12.055839553417094"><ele>240.33333333333331</ele><time>2026-04-18T15:53:19.001Z</time></trkpt><trkpt lat="42.38117845358219" lon="12.055938427460047"><ele>240.66666666666666</ele><time>2026-04-18T15:53:20.001Z</time></trkpt><trkpt lat="42.38136552901979" lon="12.056036433390302"><ele>241.0</ele><time>2026-04-18T15:53:21.001Z</time></trkpt><trkpt lat="42.381549628489815" lon="12.05613324399225"><ele>241.66666666666666</ele><time>2026-04-18T15:53:22.001Z</time></trkpt><trkpt lat="42.38173584542027" lon="12.056231472716489"><ele>242.33333333333331</ele><time>2026-04-18T15:53:23.001Z</time></trkpt><trkpt lat="42.381924469177896" lon="12.056329422652903"><ele>243.0</ele><time>2026-04-18T15:53:24.001Z</time></trkpt><trkpt lat="42.382114515760264" lon="12.05642588942962"><ele>242.66666666666669</ele><time>2026-04-18T15:53:25.001Z</time></trkpt><trkpt lat="42.382313811414065" lon="12.05652911047666"><ele>242.33333333333334</ele><time>2026-04-18T15:53:26.001Z</time></trkpt><trkpt lat="42.38251692026684" lon="12.056633645668292"><ele>242.0</ele><time>2026-04-18T15:53:27.001Z</time></trkpt><trkpt lat="42.382720090879985" lon="12.056740244408015"><ele>243.0</ele><time>2026-04-18T15:53:28.001Z</time></trkpt><trkpt lat="42.382918837027326" lon="12.05684661835077"><ele>244.0</ele><time>2026-04-18T15:53:29.001Z</time></trkpt><trkpt lat="42.38311854466899" lon="12.056946397792421"><ele>245.0</ele><time>2026-04-18T15:53:30.001Z</time></trkpt><trkpt lat="42.383321660135806" lon="12.057053066278263"><ele>245.0</ele><time>2026-04-18T15:53:31.001Z</time></trkpt><trkpt lat="42.38352639774786" lon="12.057165896130336"><ele>245.0</ele><time>2026-04-18T15:53:32.001Z</time></trkpt><trkpt lat="42.383729229181085" lon="12.057270318963806"><ele>245.0</ele><time>2026-04-18T15:53:33.001Z</time></trkpt><trkpt lat="42.38393385923356" lon="12.057377315402963"><ele>246.0</ele><time>2026-04-18T15:53:34.001Z</time></trkpt><trkpt lat="42.38413822317768" lon="12.057486307001708"><ele>247.0</ele><time>2026-04-18T15:53:35.001Z</time></trkpt><trkpt lat="42.38434442986428" lon="12.057596739820637"><ele>248.0</ele><time>2026-04-18T15:53:36.001Z</time></trkpt><trkpt lat="42.38454839291055" lon="12.05770753231221"><ele>247.0</ele><time>2026-04-18T15:53:37.001Z</time></trkpt><trkpt lat="42.38475210373171" lon="12.057812569586071"><ele>246.0</ele><time>2026-04-18T15:53:38.001Z</time></trkpt><trkpt lat="42.38495626334383" lon="12.057923314115811"><ele>245.0</ele><time>2026-04-18T15:53:39.001Z</time></trkpt><trkpt lat="42.3851585481353" lon="12.058034466128714"><ele>245.0</ele><time>2026-04-18T15:53:40.001Z</time></trkpt><trkpt lat="42.385364247574245" lon="12.058144833661203"><ele>245.0</ele><time>2026-04-18T15:53:41.001Z</time></trkpt><trkpt lat="42.38556959238326" lon="12.058259666561076"><ele>245.0</ele><time>2026-04-18T15:53:42.001Z</time></trkpt><trkpt lat="42.385769681047556" lon="12.058374862383923"><ele>245.66666666666669</ele><time>2026-04-18T15:53:43.001Z</time></trkpt><trkpt lat="42.385967286609905" lon="12.058489782718361"><ele>246.33333333333331</ele><time>2026-04-18T15:53:44.001Z</time></trkpt><trkpt lat="42.3861675184021" lon="12.058603249326252"><ele>247.0</ele><time>2026-04-18T15:53:45.001Z</time></trkpt><trkpt lat="42.386368721600014" lon="12.058719667201432"><ele>247.0</ele><time>2026-04-18T15:53:46.001Z</time></trkpt><trkpt lat="42.3865686862268" lon="12.058839968999001"><ele>247.0</ele><time>2026-04-18T15:53:47.001Z</time></trkpt><trkpt lat="42.38676995160112" lon="12.05895885111802"><ele>247.0</ele><time>2026-04-18T15:53:48.001Z</time></trkpt><trkpt lat="42.3869715247583" lon="12.059079205969482"><ele>246.5</ele><time>2026-04-18T15:53:49.001Z</time></trkpt><trkpt lat="42.387175425645964" lon="12.059201119441335"><ele>246.0</ele><time>2026-04-18T15:53:50.001Z</time></trkpt><trkpt lat="42.387384159920586" lon="12.059322722942742"><ele>246.0</ele><time>2026-04-18T15:53:51.001Z</time></trkpt><trkpt lat="42.38759195574017" lon="12.059447284787574"><ele>246.0</ele><time>2026-04-18T15:53:52.002Z</time></trkpt><trkpt lat="42.38780275604361" lon="12.059577764500903"><ele>245.5</ele><time>2026-04-18T15:53:53.002Z</time></trkpt><trkpt lat="42.38801473866051" lon="12.059706903421931"><ele>245.0</ele><time>2026-04-18T15:53:54.002Z</time></trkpt><trkpt lat="42.388228100691194" lon="12.059836149119102"><ele>244.5</ele><time>2026-04-18T15:53:55.002Z</time></trkpt><trkpt lat="42.38843977726617" lon="12.059964483157225"><ele>244.0</ele><time>2026-04-18T15:53:56.002Z</time></trkpt><trkpt lat="42.388652996238356" lon="12.060090865203358"><ele>243.5</ele><time>2026-04-18T15:53:57.002Z</time></trkpt><trkpt lat="42.38886364708347" lon="12.060212568119828"><ele>243.0</ele><time>2026-04-18T15:53:58.002Z</time></trkpt><trkpt lat="42.389073421401086" lon="12.06033970171069"><ele>243.0</ele><time>2026-04-18T15:53:59.002Z</time></trkpt><trkpt lat="42.3892842650674" lon="12.060471792276845"><ele>243.0</ele><time>2026-04-18T15:54:00.002Z</time></trkpt><trkpt lat="42.38949366517224" lon="12.060592672223763"><ele>243.0</ele><time>2026-04-18T15:54:01.002Z</time></trkpt><trkpt lat="42.38969854520824" lon="12.06071766115578"><ele>243.0</ele><time>2026-04-18T15:54:02.002Z</time></trkpt><trkpt lat="42.38990553746483" lon="12.060842946027647"><ele>243.0</ele><time>2026-04-18T15:54:03.002Z</time></trkpt><trkpt lat="42.390105385820235" lon="12.060965533324211"><ele>243.0</ele><time>2026-04-18T15:54:04.002Z</time></trkpt><trkpt lat="42.39030876193203" lon="12.06109080675153"><ele>243.0</ele><time>2026-04-18T15:54:05.002Z</time></trkpt><trkpt lat="42.390513933444666" lon="12.061217023988316"><ele>243.0</ele><time>2026-04-18T15:54:06.002Z</time></trkpt><trkpt lat="42.39071872020209" lon="12.06134176665209"><ele>243.0</ele><time>2026-04-18T15:54:07.002Z</time></trkpt><trkpt lat="42.39092803007703" lon="12.061469848605343"><ele>243.0</ele><time>2026-04-18T15:54:08.002Z</time></trkpt><trkpt lat="42.39114010881619" lon="12.061599857511185"><ele>243.0</ele><time>2026-04-18T15:54:09.002Z</time></trkpt><trkpt lat="42.39135323174059" lon="12.061726478901754"><ele>244.5</ele><time>2026-04-18T15:54:10.002Z</time></trkpt><trkpt lat="42.391564227164224" lon="12.06185373603898"><ele>246.0</ele><time>2026-04-18T15:54:11.002Z</time></trkpt><trkpt lat="42.39176960518152" lon="12.061979871704054"><ele>246.0</ele><time>2026-04-18T15:54:12.002Z</time></trkpt><trkpt lat="42.391979510313696" lon="12.062107285901616"><ele>246.0</ele><time>2026-04-18T15:54:13.002Z</time></trkpt><trkpt lat="42.39218877125894" lon="12.062232406774273"><ele>246.66666666666669</ele><time>2026-04-18T15:54:14.002Z</time></trkpt><trkpt lat="42.39238914245174" lon="12.062353858708061"><ele>247.33333333333334</ele><time>2026-04-18T15:54:15.002Z</time></trkpt><trkpt lat="42.392575930882884" lon="12.062470654854456"><ele>248.0</ele><time>2026-04-18T15:54:16.002Z</time></trkpt><trkpt lat="42.39275620945008" lon="12.06258375821749"><ele>248.33333333333334</ele><time>2026-04-18T15:54:17.002Z</time></trkpt><trkpt lat="42.3929256626585" lon="12.062689485620544"><ele>248.66666666666669</ele><time>2026-04-18T15:54:18.002Z</time></trkpt><trkpt lat="42.393093315439714" lon="12.062791073662506"><ele>249.0</ele><time>2026-04-18T15:54:19.002Z</time></trkpt><trkpt lat="42.393253052625546" lon="12.062884745696904"><ele>249.0</ele><time>2026-04-18T15:54:20.002Z</time></trkpt><trkpt lat="42.39342139170749" lon="12.062982460209556"><ele>249.0</ele><time>2026-04-18T15:54:21.002Z</time></trkpt><trkpt lat="42.39360920691898" lon="12.063088173766833"><ele>249.0</ele><time>2026-04-18T15:54:22.002Z</time></trkpt><trkpt lat="42.39380993997793" lon="12.06320663785658"><ele>250.66666666666669</ele><time>2026-04-18T15:54:23.002Z</time></trkpt><trkpt lat="42.39400794710271" lon="12.063319462719235"><ele>252.33333333333334</ele><time>2026-04-18T15:54:24.002Z</time></trkpt><trkpt lat="42.39420375681355" lon="12.06343089903777"><ele>254.0</ele><time>2026-04-18T15:54:25.002Z</time></trkpt><trkpt lat="42.39439857434784" lon="12.063556009405925"><ele>254.0</ele><time>2026-04-18T15:54:26.002Z</time></trkpt><trkpt lat="42.39460370210352" lon="12.063676184491277"><ele>254.0</ele><time>2026-04-18T15:54:27.002Z</time></trkpt><trkpt lat="42.39482931328692" lon="12.063788062422951"><ele>253.5</ele><time>2026-04-18T15:54:28.002Z</time></trkpt><trkpt lat="42.39505463933289" lon="12.063919013141588"><ele>253.0</ele><time>2026-04-18T15:54:29.001Z</time></trkpt><trkpt lat="42.39529609946492" lon="12.06403975615741"><ele>254.0</ele><time>2026-04-18T15:54:30.001Z</time></trkpt><trkpt lat="42.39554633579312" lon="12.064171259384247"><ele>255.0</ele><time>2026-04-18T15:54:31.001Z</time></trkpt><trkpt lat="42.39579937861319" lon="12.064297938700836"><ele>255.0</ele><time>2026-04-18T15:54:32.001Z</time></trkpt><trkpt lat="42.396031370425085" lon="12.064422769511081"><ele>255.0</ele><time>2026-04-18T15:54:33.001Z</time></trkpt><trkpt lat="42.39625486599728" lon="12.064530013959185"><ele>252.5</ele><time>2026-04-18T15:54:34.001Z</time></trkpt><trkpt lat="42.396476016746696" lon="12.064644151278346"><ele>250.0</ele><time>2026-04-18T15:54:35.001Z</time></trkpt><trkpt lat="42.39669876690007" lon="12.06475688132912"><ele>250.0</ele><time>2026-04-18T15:54:36.001Z</time></trkpt><trkpt lat="42.39692009929334" lon="12.064869086545642"><ele>250.0</ele><time>2026-04-18T15:54:37.001Z</time></trkpt><trkpt lat="42.39714007050633" lon="12.064982908391212"><ele>249.0</ele><time>2026-04-18T15:54:38.001Z</time></trkpt><trkpt lat="42.397358291928455" lon="12.065089877837131"><ele>248.0</ele><time>2026-04-18T15:54:39.001Z</time></trkpt><trkpt lat="42.3975746808613" lon="12.06519620020904"><ele>248.0</ele><time>2026-04-18T15:54:40.001Z</time></trkpt><trkpt lat="42.39777979899115" lon="12.065297838597099"><ele>248.0</ele><time>2026-04-18T15:54:41.001Z</time></trkpt><trkpt lat="42.39797488247265" lon="12.06539073188086"><ele>248.0</ele><time>2026-04-18T15:54:42.001Z</time></trkpt><trkpt lat="42.39815857461915" lon="12.065486528114224"><ele>247.66666666666669</ele><time>2026-04-18T15:54:43.001Z</time></trkpt><trkpt lat="42.39833987347313" lon="12.065580487906471"><ele>247.33333333333331</ele><time>2026-04-18T15:54:44.001Z</time></trkpt><trkpt lat="42.39851979798449" lon="12.065670728167442"><ele>247.0</ele><time>2026-04-18T15:54:45.001Z</time></trkpt><trkpt lat="42.398702544137535" lon="12.065759413649735"><ele>247.33333333333331</ele><time>2026-04-18T15:54:46.001Z</time></trkpt><trkpt lat="42.398888242781545" lon="12.065849197449134"><ele>247.66666666666669</ele><time>2026-04-18T15:54:47.001Z</time></trkpt><trkpt lat="42.399077762504206" lon="12.06594146077998"><ele>248.0</ele><time>2026-04-18T15:54:48.001Z</time></trkpt><trkpt lat="42.399273231795874" lon="12.066042207160038"><ele>248.0</ele><time>2026-04-18T15:54:49.001Z</time></trkpt><trkpt lat="42.39947200715088" lon="12.066146902277886"><ele>248.0</ele><time>2026-04-18T15:54:50.001Z</time></trkpt><trkpt lat="42.399672428145976" lon="12.066250879385786"><ele>248.0</ele><time>2026-04-18T15:54:51.001Z</time></trkpt><trkpt lat="42.3998763408628" lon="12.066356678618266"><ele>248.66666666666669</ele><time>2026-04-18T15:54:52.001Z</time></trkpt><trkpt lat="42.400078019773524" lon="12.06645842876905"><ele>249.33333333333331</ele><time>2026-04-18T15:54:53.001Z</time></trkpt><trkpt lat="42.40028070953932" lon="12.066558722618847"><ele>250.0</ele><time>2026-04-18T15:54:54.001Z</time></trkpt><trkpt lat="42.40048183366102" lon="12.06665603906182"><ele>253.66666666666666</ele><time>2026-04-18T15:54:55.001Z</time></trkpt><trkpt lat="42.40068752696247" lon="12.066758231291647"><ele>257.3333333333333</ele><time>2026-04-18T15:54:56.001Z</time></trkpt><trkpt lat="42.40089453553599" lon="12.066862474907497"><ele>261.0</ele><time>2026-04-18T15:54:57.001Z</time></trkpt><trkpt lat="42.401098792618" lon="12.066966891574008"><ele>261.0</ele><time>2026-04-18T15:54:58.001Z</time></trkpt><trkpt lat="42.40130755555498" lon="12.067073739179866"><ele>261.0</ele><time>2026-04-18T15:54:59.001Z</time></trkpt><trkpt lat="42.40151110085974" lon="12.0671793258234"><ele>261.0</ele><time>2026-04-18T15:55:00.001Z</time></trkpt><trkpt lat="42.401717332515524" lon="12.067286759405981"><ele>262.0</ele><time>2026-04-18T15:55:01.001Z</time></trkpt><trkpt lat="42.40192273290186" lon="12.067391638639362"><ele>263.0</ele><time>2026-04-18T15:55:02.001Z</time></trkpt><trkpt lat="42.40213219888403" lon="12.067497271956139"><ele>264.0</ele><time>2026-04-18T15:55:03.001Z</time></trkpt><trkpt lat="42.40234908497474" lon="12.067605500338352"><ele>265.5</ele><time>2026-04-18T15:55:04.001Z</time></trkpt><trkpt lat="42.40256509202105" lon="12.067711691678804"><ele>267.0</ele><time>2026-04-18T15:55:05.001Z</time></trkpt><trkpt lat="42.402782253171715" lon="12.067818725543722"><ele>263.5</ele><time>2026-04-18T15:55:06.001Z</time></trkpt><trkpt lat="42.40300230052299" lon="12.067929024203936"><ele>260.0</ele><time>2026-04-18T15:55:07.001Z</time></trkpt><trkpt lat="42.4032181993203" lon="12.06803794361452"><ele>260.0</ele><time>2026-04-18T15:55:08.001Z</time></trkpt><trkpt lat="42.403431008819524" lon="12.068145850347523"><ele>260.0</ele><time>2026-04-18T15:55:09.001Z</time></trkpt><trkpt lat="42.403641685374524" lon="12.068263786226746"><ele>253.5</ele><time>2026-04-18T15:55:10.001Z</time></trkpt><trkpt lat="42.40385348397481" lon="12.068388589207524"><ele>247.0</ele><time>2026-04-18T15:55:11.001Z</time></trkpt><trkpt lat="42.40406502389957" lon="12.068519182710086"><ele>247.0</ele><time>2026-04-18T15:55:12.001Z</time></trkpt><trkpt lat="42.4042728137376" lon="12.068651351293644"><ele>247.0</ele><time>2026-04-18T15:55:13.001Z</time></trkpt><trkpt lat="42.404477002776474" lon="12.068789309319627"><ele>246.33333333333331</ele><time>2026-04-18T15:55:14.001Z</time></trkpt><trkpt lat="42.40467515551033" lon="12.068928489875043"><ele>245.66666666666669</ele><time>2026-04-18T15:55:15.001Z</time></trkpt><trkpt lat="42.404873773505486" lon="12.06907462310266"><ele>245.0</ele><time>2026-04-18T15:55:16.001Z</time></trkpt><trkpt lat="42.405073269817265" lon="12.06923066595825"><ele>245.0</ele><time>2026-04-18T15:55:17.001Z</time></trkpt><trkpt lat="42.405276243025995" lon="12.069388103654621"><ele>245.0</ele><time>2026-04-18T15:55:18.001Z</time></trkpt><trkpt lat="42.405478682245445" lon="12.069542364050534"><ele>250.5</ele><time>2026-04-18T15:55:19.001Z</time></trkpt><trkpt lat="42.40568154719433" lon="12.069697343387567"><ele>256.0</ele><time>2026-04-18T15:55:20.001Z</time></trkpt><trkpt lat="42.40588421997518" lon="12.069857921684724"><ele>258.0</ele><time>2026-04-18T15:55:21.001Z</time></trkpt><trkpt lat="42.40609004272095" lon="12.070023646059097"><ele>260.0</ele><time>2026-04-18T15:55:22.001Z</time></trkpt><trkpt lat="42.40630544212522" lon="12.070190570213233"><ele>263.0</ele><time>2026-04-18T15:55:23.001Z</time></trkpt><trkpt lat="42.40651739275663" lon="12.07035432375699"><ele>266.0</ele><time>2026-04-18T15:55:24.001Z</time></trkpt><trkpt lat="42.406730220658325" lon="12.070522030847997"><ele>266.0</ele><time>2026-04-18T15:55:25.001Z</time></trkpt><trkpt lat="42.40693813284895" lon="12.070678342264035"><ele>266.0</ele><time>2026-04-18T15:55:26.001Z</time></trkpt><trkpt lat="42.40713892594351" lon="12.070828271594504"><ele>264.5</ele><time>2026-04-18T15:55:27.001Z</time></trkpt><trkpt lat="42.40733223883383" lon="12.070979827317943"><ele>263.0</ele><time>2026-04-18T15:55:28.001Z</time></trkpt><trkpt lat="42.40752780974828" lon="12.071135268757544"><ele>263.0</ele><time>2026-04-18T15:55:29.001Z</time></trkpt><trkpt lat="42.40772215838772" lon="12.071283290739013"><ele>263.0</ele><time>2026-04-18T15:55:30.001Z</time></trkpt><trkpt lat="42.40791689885343" lon="12.071427573642396"><ele>263.0</ele><time>2026-04-18T15:55:31.001Z</time></trkpt><trkpt lat="42.408115903509376" lon="12.0715758251696"><ele>263.6666666666667</ele><time>2026-04-18T15:55:32.001Z</time></trkpt><trkpt lat="42.40831291681512" lon="12.071719104513503"><ele>264.3333333333333</ele><time>2026-04-18T15:55:33.001Z</time></trkpt><trkpt lat="42.408506439772715" lon="12.071861940284677"><ele>265.0</ele><time>2026-04-18T15:55:34.001Z</time></trkpt><trkpt lat="42.40869557526103" lon="12.071998141600375"><ele>266.66666666666663</ele><time>2026-04-18T15:55:35.001Z</time></trkpt><trkpt lat="42.408881250572485" lon="12.07213215532534"><ele>268.3333333333333</ele><time>2026-04-18T15:55:36.001Z</time></trkpt><trkpt lat="42.40906559972588" lon="12.072264902637558"><ele>270.0</ele><time>2026-04-18T15:55:37.001Z</time></trkpt><trkpt lat="42.40925096872874" lon="12.0723979226546"><ele>270.0</ele><time>2026-04-18T15:55:38.001Z</time></trkpt><trkpt lat="42.4094387571645" lon="12.072529824302062"><ele>270.0</ele><time>2026-04-18T15:55:39.001Z</time></trkpt><trkpt lat="42.40962726988509" lon="12.072661049730787"><ele>270.0</ele><time>2026-04-18T15:55:40.001Z</time></trkpt><trkpt lat="42.40982561640964" lon="12.07279580499971"><ele>270.6666666666667</ele><time>2026-04-18T15:55:41.001Z</time></trkpt><trkpt lat="42.410019382993696" lon="12.072931984890708"><ele>271.33333333333337</ele><time>2026-04-18T15:55:42.001Z</time></trkpt><trkpt lat="42.41022043659103" lon="12.07307133010402"><ele>272.0</ele><time>2026-04-18T15:55:43.001Z</time></trkpt><trkpt lat="42.41042072063446" lon="12.073212420613519"><ele>273.5</ele><time>2026-04-18T15:55:44.001Z</time></trkpt><trkpt lat="42.41062711538939" lon="12.073354470941641"><ele>275.0</ele><time>2026-04-18T15:55:45.001Z</time></trkpt><trkpt lat="42.41082982315263" lon="12.07349612722028"><ele>275.0</ele><time>2026-04-18T15:55:46.001Z</time></trkpt><trkpt lat="42.411028988871685" lon="12.073633690371656"><ele>275.0</ele><time>2026-04-18T15:55:47.001Z</time></trkpt><trkpt lat="42.4112297607325" lon="12.073773410225"><ele>275.0</ele><time>2026-04-18T15:55:48.001Z</time></trkpt><trkpt lat="42.41142860570626" lon="12.07391044976386"><ele>274.0</ele><time>2026-04-18T15:55:49.001Z</time></trkpt><trkpt lat="42.411631108237884" lon="12.074055506910074"><ele>273.0</ele><time>2026-04-18T15:55:50.001Z</time></trkpt><trkpt lat="42.41183227445347" lon="12.074192410387363"><ele>273.5</ele><time>2026-04-18T15:55:51.001Z</time></trkpt><trkpt lat="42.41203533993177" lon="12.074329006919648"><ele>274.0</ele><time>2026-04-18T15:55:52.001Z</time></trkpt><trkpt lat="42.4122356310362" lon="12.074470553422186"><ele>274.0</ele><time>2026-04-18T15:55:53.001Z</time></trkpt><trkpt lat="42.41243572943679" lon="12.074613412590843"><ele>274.0</ele><time>2026-04-18T15:55:54.001Z</time></trkpt><trkpt lat="42.41264216528633" lon="12.0747602850888"><ele>274.0</ele><time>2026-04-18T15:55:55.001Z</time></trkpt><trkpt lat="42.41284910174186" lon="12.074907011623145"><ele>274.0</ele><time>2026-04-18T15:55:56.001Z</time></trkpt><trkpt lat="42.41305316780737" lon="12.075052525772056"><ele>276.0</ele><time>2026-04-18T15:55:57.001Z</time></trkpt><trkpt lat="42.41325400154541" lon="12.075193212961038"><ele>278.0</ele><time>2026-04-18T15:55:58.001Z</time></trkpt><trkpt lat="42.41345287999445" lon="12.075334944258131"><ele>278.0</ele><time>2026-04-18T15:55:59.001Z</time></trkpt><trkpt lat="42.413653322771616" lon="12.075477822355287"><ele>278.0</ele><time>2026-04-18T15:56:00.001Z</time></trkpt><trkpt lat="42.4138523209155" lon="12.075619131260963"><ele>279.33333333333337</ele><time>2026-04-18T15:56:01.001Z</time></trkpt><trkpt lat="42.4140500389995" lon="12.075755591856566"><ele>280.6666666666667</ele><time>2026-04-18T15:56:02.001Z</time></trkpt><trkpt lat="42.414248052828036" lon="12.075893990878535"><ele>282.0</ele><time>2026-04-18T15:56:03.001Z</time></trkpt><trkpt lat="42.41445346644779" lon="12.076015058391167"><ele>282.0</ele><time>2026-04-18T15:56:04.001Z</time></trkpt><trkpt lat="42.41465051803262" lon="12.076161661006502"><ele>282.0</ele><time>2026-04-18T15:56:05.001Z</time></trkpt><trkpt lat="42.41484657307606" lon="12.076295622746457"><ele>282.0</ele><time>2026-04-18T15:56:06.001Z</time></trkpt><trkpt lat="42.41504443088541" lon="12.076422077228157"><ele>282.3333333333333</ele><time>2026-04-18T15:56:07.001Z</time></trkpt><trkpt lat="42.41524485020353" lon="12.07654069396055"><ele>282.66666666666663</ele><time>2026-04-18T15:56:08.001Z</time></trkpt><trkpt lat="42.41544427660237" lon="12.076656736822411"><ele>283.0</ele><time>2026-04-18T15:56:09.001Z</time></trkpt><trkpt lat="42.41565211456364" lon="12.076777369842304"><ele>279.5</ele><time>2026-04-18T15:56:10.001Z</time></trkpt><trkpt lat="42.41586685686832" lon="12.076898554468675"><ele>276.0</ele><time>2026-04-18T15:56:11.001Z</time></trkpt><trkpt lat="42.41608909810403" lon="12.0770216963126"><ele>276.0</ele><time>2026-04-18T15:56:12.001Z</time></trkpt><trkpt lat="42.41631556027032" lon="12.077136905151379"><ele>276.0</ele><time>2026-04-18T15:56:13.001Z</time></trkpt><trkpt lat="42.416549239318186" lon="12.07724760990088"><ele>273.5</ele><time>2026-04-18T15:56:14.001Z</time></trkpt><trkpt lat="42.41678586565016" lon="12.077356137953611"><ele>271.0</ele><time>2026-04-18T15:56:15.001Z</time></trkpt><trkpt lat="42.417016109119125" lon="12.077455785388187"><ele>274.0</ele><time>2026-04-18T15:56:16.001Z</time></trkpt><trkpt lat="42.417238012347404" lon="12.077547142657188"><ele>277.0</ele><time>2026-04-18T15:56:17.001Z</time></trkpt><trkpt lat="42.41744549073476" lon="12.077629698311824"><ele>280.0</ele><time>2026-04-18T15:56:18.001Z</time></trkpt><trkpt lat="42.41765283644167" lon="12.07771081610701"><ele>280.0</ele><time>2026-04-18T15:56:19.001Z</time></trkpt><trkpt lat="42.4178624040015" lon="12.07779613092099"><ele>280.0</ele><time>2026-04-18T15:56:20.001Z</time></trkpt><trkpt lat="42.41806752478493" lon="12.0778783032279"><ele>280.0</ele><time>2026-04-18T15:56:21.001Z</time></trkpt><trkpt lat="42.41827494458521" lon="12.077960413596179"><ele>282.3333333333333</ele><time>2026-04-18T15:56:22.001Z</time></trkpt><trkpt lat="42.41847654267301" lon="12.07804072792524"><ele>284.6666666666667</ele><time>2026-04-18T15:56:23.001Z</time></trkpt><trkpt lat="42.41867980996672" lon="12.078118203275798"><ele>287.0</ele><time>2026-04-18T15:56:24.001Z</time></trkpt><trkpt lat="42.418888081039384" lon="12.078195152727238"><ele>288.33333333333337</ele><time>2026-04-18T15:56:25.001Z</time></trkpt><trkpt lat="42.419091664656825" lon="12.078272202787929"><ele>289.6666666666667</ele><time>2026-04-18T15:56:26.001Z</time></trkpt><trkpt lat="42.419306995012576" lon="12.078362134029216"><ele>291.0</ele><time>2026-04-18T15:56:27.001Z</time></trkpt><trkpt lat="42.419522948068526" lon="12.07845245609407"><ele>292.0</ele><time>2026-04-18T15:56:28.001Z</time></trkpt><trkpt lat="42.41973998121846" lon="12.078539972388443"><ele>293.0</ele><time>2026-04-18T15:56:29.001Z</time></trkpt><trkpt lat="42.41995707231271" lon="12.078624043213102"><ele>293.0</ele><time>2026-04-18T15:56:30.001Z</time></trkpt><trkpt lat="42.42016929140905" lon="12.078709667903325"><ele>293.0</ele><time>2026-04-18T15:56:31.001Z</time></trkpt><trkpt lat="42.42038071090766" lon="12.078794595961053"><ele>293.0</ele><time>2026-04-18T15:56:32.001Z</time></trkpt><trkpt lat="42.42059543929645" lon="12.078866447859507"><ele>292.6666666666667</ele><time>2026-04-18T15:56:33.001Z</time></trkpt><trkpt lat="42.42080713078441" lon="12.07894338816647"><ele>292.3333333333333</ele><time>2026-04-18T15:56:34.001Z</time></trkpt><trkpt lat="42.421024849024505" lon="12.079036988000853"><ele>292.0</ele><time>2026-04-18T15:56:35Z</time></trkpt><trkpt lat="42.421236926046475" lon="12.07913322268222"><ele>293.66666666666663</ele><time>2026-04-18T15:56:36Z</time></trkpt><trkpt lat="42.42145020349617" lon="12.079215647073855"><ele>295.3333333333333</ele><time>2026-04-18T15:56:37Z</time></trkpt><trkpt lat="42.42166399237573" lon="12.079302917865379"><ele>297.0</ele><time>2026-04-18T15:56:38Z</time></trkpt><trkpt lat="42.42187715825082" lon="12.079388723612912"><ele>297.0</ele><time>2026-04-18T15:56:39Z</time></trkpt><trkpt lat="42.422088611849894" lon="12.07947408921596"><ele>297.0</ele><time>2026-04-18T15:56:40Z</time></trkpt><trkpt lat="42.4223027960536" lon="12.07955973038767"><ele>297.0</ele><time>2026-04-18T15:56:41Z</time></trkpt><trkpt lat="42.42251717378907" lon="12.079643391832503"><ele>296.6666666666667</ele><time>2026-04-18T15:56:42Z</time></trkpt><trkpt lat="42.422730871840685" lon="12.07973340437574"><ele>296.33333333333337</ele><time>2026-04-18T15:56:43Z</time></trkpt><trkpt lat="42.42294631427472" lon="12.079820478255696"><ele>296.0</ele><time>2026-04-18T15:56:44Z</time></trkpt><trkpt lat="42.42315819295017" lon="12.079903846681946"><ele>297.33333333333337</ele><time>2026-04-18T15:56:45Z</time></trkpt><trkpt lat="42.42336933924406" lon="12.079986768049944"><ele>298.6666666666667</ele><time>2026-04-18T15:56:46Z</time></trkpt><trkpt lat="42.423581620332556" lon="12.080066552922847"><ele>300.0</ele><time>2026-04-18T15:56:47Z</time></trkpt><trkpt lat="42.42378743083145" lon="12.080146044101687"><ele>300.0</ele><time>2026-04-18T15:56:48Z</time></trkpt><trkpt lat="42.42399308510009" lon="12.080235285933208"><ele>300.0</ele><time>2026-04-18T15:56:49Z</time></trkpt><trkpt lat="42.42419590496155" lon="12.080323656192245"><ele>300.0</ele><time>2026-04-18T15:56:50Z</time></trkpt><trkpt lat="42.42440104786405" lon="12.080402827081612"><ele>300.0</ele><time>2026-04-18T15:56:51Z</time></trkpt><trkpt lat="42.424606636515485" lon="12.080486291083675"><ele>300.0</ele><time>2026-04-18T15:56:52Z</time></trkpt><trkpt lat="42.42481308758131" lon="12.080566216072306"><ele>300.0</ele><time>2026-04-18T15:56:53Z</time></trkpt><trkpt lat="42.42501094431907" lon="12.080645746306502"><ele>300.3333333333333</ele><time>2026-04-18T15:56:54Z</time></trkpt><trkpt lat="42.42520436742435" lon="12.080723615777027"><ele>300.66666666666663</ele><time>2026-04-18T15:56:55Z</time></trkpt><trkpt lat="42.42540518651373" lon="12.08079968767827"><ele>301.0</ele><time>2026-04-18T15:56:56Z</time></trkpt><trkpt lat="42.42560428609396" lon="12.080880245020927"><ele>302.0</ele><time>2026-04-18T15:56:57Z</time></trkpt><trkpt lat="42.42580184332296" lon="12.080960247253364"><ele>303.0</ele><time>2026-04-18T15:56:58Z</time></trkpt><trkpt lat="42.4259986639417" lon="12.081038030555732"><ele>304.0</ele><time>2026-04-18T15:56:59Z</time></trkpt><trkpt lat="42.426194737352354" lon="12.08111992886075"><ele>304.3333333333333</ele><time>2026-04-18T15:57:00Z</time></trkpt><trkpt lat="42.42638962031073" lon="12.081203276174284"><ele>304.6666666666667</ele><time>2026-04-18T15:57:01Z</time></trkpt><trkpt lat="42.42658398077939" lon="12.081295651812708"><ele>305.0</ele><time>2026-04-18T15:57:02Z</time></trkpt><trkpt lat="42.426781945207125" lon="12.081389064349565"><ele>305.0</ele><time>2026-04-18T15:57:03Z</time></trkpt><trkpt lat="42.42698498567892" lon="12.081486432368784"><ele>305.0</ele><time>2026-04-18T15:57:04Z</time></trkpt><trkpt lat="42.42718830245121" lon="12.081585709057611"><ele>305.0</ele><time>2026-04-18T15:57:05Z</time></trkpt><trkpt lat="42.427394766660974" lon="12.08169102156799"><ele>306.0</ele><time>2026-04-18T15:57:06Z</time></trkpt><trkpt lat="42.42759860913917" lon="12.081804167886158"><ele>307.0</ele><time>2026-04-18T15:57:07Z</time></trkpt><trkpt lat="42.42780083270149" lon="12.081920300506711"><ele>308.0</ele><time>2026-04-18T15:57:08Z</time></trkpt><trkpt lat="42.4279994992557" lon="12.082038848329464"><ele>308.0</ele><time>2026-04-18T15:57:09Z</time></trkpt><trkpt lat="42.42819590894271" lon="12.082158906734943"><ele>308.0</ele><time>2026-04-18T15:57:10Z</time></trkpt><trkpt lat="42.42838992686304" lon="12.082281137513483"><ele>308.0</ele><time>2026-04-18T15:57:11Z</time></trkpt><trkpt lat="42.42858281502756" lon="12.082401981112804"><ele>308.6666666666667</ele><time>2026-04-18T15:57:12Z</time></trkpt><trkpt lat="42.4287771240619" lon="12.082524648226551"><ele>309.3333333333333</ele><time>2026-04-18T15:57:13Z</time></trkpt><trkpt lat="42.428973153968045" lon="12.08265591739922"><ele>310.0</ele><time>2026-04-18T15:57:14Z</time></trkpt><trkpt lat="42.429167539419616" lon="12.08279117572526"><ele>310.66666666666663</ele><time>2026-04-18T15:57:15Z</time></trkpt><trkpt lat="42.42935903272873" lon="12.082930968883119"><ele>311.3333333333333</ele><time>2026-04-18T15:57:16Z</time></trkpt><trkpt lat="42.429549146717825" lon="12.08306834618651"><ele>312.0</ele><time>2026-04-18T15:57:17Z</time></trkpt><trkpt lat="42.42973729201786" lon="12.083211332693585"><ele>313.0</ele><time>2026-04-18T15:57:18Z</time></trkpt><trkpt lat="42.42992173269102" lon="12.083361283763523"><ele>314.0</ele><time>2026-04-18T15:57:19Z</time></trkpt><trkpt lat="42.43010423619858" lon="12.0835142044304"><ele>315.0</ele><time>2026-04-18T15:57:20Z</time></trkpt><trkpt lat="42.430285719876004" lon="12.083666543910029"><ele>315.0</ele><time>2026-04-18T15:57:21Z</time></trkpt><trkpt lat="42.43046737496529" lon="12.083815551290224"><ele>315.0</ele><time>2026-04-18T15:57:22Z</time></trkpt><trkpt lat="42.43064805705991" lon="12.083968777623339"><ele>315.0</ele><time>2026-04-18T15:57:23Z</time></trkpt><trkpt lat="42.430831184167374" lon="12.084128993698581"><ele>315.0</ele><time>2026-04-18T15:57:24Z</time></trkpt><trkpt lat="42.43101344118337" lon="12.084294040543877"><ele>315.0</ele><time>2026-04-18T15:57:25Z</time></trkpt><trkpt lat="42.431199793271475" lon="12.084472820541306"><ele>315.0</ele><time>2026-04-18T15:57:26Z</time></trkpt><trkpt lat="42.431387219533555" lon="12.084654572029878"><ele>315.0</ele><time>2026-04-18T15:57:27.001Z</time></trkpt><trkpt lat="42.43157592374352" lon="12.08483901847293"><ele>315.0</ele><time>2026-04-18T15:57:28.001Z</time></trkpt><trkpt lat="42.431755218200074" lon="12.085023613187872"><ele>315.5</ele><time>2026-04-18T15:57:29.001Z</time></trkpt><trkpt lat="42.431934589148376" lon="12.085212409264155"><ele>316.0</ele><time>2026-04-18T15:57:30.001Z</time></trkpt><trkpt lat="42.432111926745215" lon="12.085398276402412"><ele>315.66666666666663</ele><time>2026-04-18T15:57:31.001Z</time></trkpt><trkpt lat="42.4322908133546" lon="12.085584017945385"><ele>315.3333333333333</ele><time>2026-04-18T15:57:32.001Z</time></trkpt><trkpt lat="42.43246731757559" lon="12.085769581476459"><ele>315.0</ele><time>2026-04-18T15:57:33.001Z</time></trkpt><trkpt lat="42.43264276016228" lon="12.085953288492409"><ele>315.3333333333333</ele><time>2026-04-18T15:57:34.001Z</time></trkpt><trkpt lat="42.43281488511627" lon="12.086134226887717"><ele>315.66666666666663</ele><time>2026-04-18T15:57:35.001Z</time></trkpt><trkpt lat="42.43298991355941" lon="12.086316517884974"><ele>316.0</ele><time>2026-04-18T15:57:36.001Z</time></trkpt><trkpt lat="42.43316414206946" lon="12.086503892819035"><ele>316.0</ele><time>2026-04-18T15:57:37.001Z</time></trkpt><trkpt lat="42.43333377387418" lon="12.086687276720435"><ele>316.0</ele><time>2026-04-18T15:57:38.001Z</time></trkpt><trkpt lat="42.43350602146309" lon="12.086870237834278"><ele>316.0</ele><time>2026-04-18T15:57:39.001Z</time></trkpt><trkpt lat="42.43367808196357" lon="12.087052259202745"><ele>315.66666666666663</ele><time>2026-04-18T15:57:40.001Z</time></trkpt><trkpt lat="42.43385328032276" lon="12.087237475280876"><ele>315.3333333333333</ele><time>2026-04-18T15:57:41.001Z</time></trkpt><trkpt lat="42.43402661373253" lon="12.087425117625271"><ele>315.0</ele><time>2026-04-18T15:57:42.001Z</time></trkpt><trkpt lat="42.434199281438" lon="12.087608582792743"><ele>315.0</ele><time>2026-04-18T15:57:43.001Z</time></trkpt><trkpt lat="42.43437169886806" lon="12.087788869210387"><ele>315.0</ele><time>2026-04-18T15:57:44.001Z</time></trkpt><trkpt lat="42.434542965192406" lon="12.087966579428453"><ele>315.0</ele><time>2026-04-18T15:57:45.001Z</time></trkpt><trkpt lat="42.43471866915458" lon="12.088146307701258"><ele>315.6666666666667</ele><time>2026-04-18T15:57:46.001Z</time></trkpt><trkpt lat="42.43488988039966" lon="12.088322595817536"><ele>316.33333333333337</ele><time>2026-04-18T15:57:47.001Z</time></trkpt><trkpt lat="42.435060412878" lon="12.088502633854382"><ele>317.0</ele><time>2026-04-18T15:57:48.001Z</time></trkpt><trkpt lat="42.43522741196019" lon="12.088680265111241"><ele>317.0</ele><time>2026-04-18T15:57:49.001Z</time></trkpt><trkpt lat="42.43539570728711" lon="12.088857176581746"><ele>317.0</ele><time>2026-04-18T15:57:50.001Z</time></trkpt><trkpt lat="42.43556183239004" lon="12.089031981833253"><ele>317.0</ele><time>2026-04-18T15:57:51.001Z</time></trkpt><trkpt lat="42.435729714243145" lon="12.08920656299912"><ele>317.6666666666667</ele><time>2026-04-18T15:57:52.001Z</time></trkpt><trkpt lat="42.4358949397451" lon="12.089377953218852"><ele>318.3333333333333</ele><time>2026-04-18T15:57:53.001Z</time></trkpt><trkpt lat="42.43605771372869" lon="12.089553784682076"><ele>319.0</ele><time>2026-04-18T15:57:54.001Z</time></trkpt><trkpt lat="42.43622115340899" lon="12.08973369727587"><ele>319.3333333333333</ele><time>2026-04-18T15:57:55.001Z</time></trkpt><trkpt lat="42.43638862560323" lon="12.089905433036863"><ele>319.6666666666667</ele><time>2026-04-18T15:57:56.001Z</time></trkpt><trkpt lat="42.436555770931946" lon="12.090077593732591"><ele>320.0</ele><time>2026-04-18T15:57:57.001Z</time></trkpt><trkpt lat="42.436721360824016" lon="12.09025025556239"><ele>320.6666666666667</ele><time>2026-04-18T15:57:58.001Z</time></trkpt><trkpt lat="42.43688385696911" lon="12.090422643152936"><ele>321.3333333333333</ele><time>2026-04-18T15:57:59.001Z</time></trkpt><trkpt lat="42.43704833750255" lon="12.090596117504422"><ele>322.0</ele><time>2026-04-18T15:58:00.001Z</time></trkpt><trkpt lat="42.437214484494824" lon="12.090775077608217"><ele>322.66666666666663</ele><time>2026-04-18T15:58:01.001Z</time></trkpt><trkpt lat="42.43737723175297" lon="12.09096561948039"><ele>323.3333333333333</ele><time>2026-04-18T15:58:02.001Z</time></trkpt><trkpt lat="42.43753698123495" lon="12.091169703031834"><ele>324.0</ele><time>2026-04-18T15:58:03.001Z</time></trkpt><trkpt lat="42.437690335110204" lon="12.09138757820498"><ele>324.0</ele><time>2026-04-18T15:58:04.001Z</time></trkpt><trkpt lat="42.43783512865935" lon="12.091613062729138"><ele>324.0</ele><time>2026-04-18T15:58:05.001Z</time></trkpt><trkpt lat="42.43797209668502" lon="12.09184690423258"><ele>324.0</ele><time>2026-04-18T15:58:06.001Z</time></trkpt><trkpt lat="42.438105454906626" lon="12.092085906206753"><ele>324.3333333333333</ele><time>2026-04-18T15:58:07.001Z</time></trkpt><trkpt lat="42.43823350943446" lon="12.092332662113748"><ele>324.66666666666663</ele><time>2026-04-18T15:58:08.001Z</time></trkpt><trkpt lat="42.438359748830386" lon="12.092585632105811"><ele>325.0</ele><time>2026-04-18T15:58:09.001Z</time></trkpt><trkpt lat="42.43847908392807" lon="12.092837372782935"><ele>325.0</ele><time>2026-04-18T15:58:10.001Z</time></trkpt><trkpt lat="42.43857152903001" lon="12.0930485916432"><ele>325.0</ele><time>2026-04-18T15:58:11.001Z</time></trkpt><trkpt lat="42.43863531270148" lon="12.093213204321222"><ele>325.0</ele><time>2026-04-18T15:58:12.001Z</time></trkpt><trkpt lat="42.43867839962353" lon="12.093346601611042"><ele>325.0</ele><time>2026-04-18T15:58:13.001Z</time></trkpt><trkpt lat="42.438706866925145" lon="12.09347366334556"><ele>325.2</ele><time>2026-04-18T15:58:14.001Z</time></trkpt><trkpt lat="42.43871366563934" lon="12.093593741070054"><ele>325.4</ele><time>2026-04-18T15:58:15.001Z</time></trkpt><trkpt lat="42.43868787130207" lon="12.093702835394685"><ele>325.6</ele><time>2026-04-18T15:58:16.001Z</time></trkpt><trkpt lat="42.43862945111693" lon="12.09378490341116"><ele>325.8</ele><time>2026-04-18T15:58:17.001Z</time></trkpt><trkpt lat="42.438543509776984" lon="12.093834979506966"><ele>326.0</ele><time>2026-04-18T15:58:18.001Z</time></trkpt><trkpt lat="42.438445206452386" lon="12.093854626901452"><ele>326.0</ele><time>2026-04-18T15:58:19.001Z</time></trkpt><trkpt lat="42.438332785776296" lon="12.093847120878815"><ele>326.0</ele><time>2026-04-18T15:58:20.001Z</time></trkpt><trkpt lat="42.438228771196265" lon="12.09382467786786"><ele>326.0</ele><time>2026-04-18T15:58:21.001Z</time></trkpt><trkpt lat="42.43813871865794" lon="12.093771619292113"><ele>326.0</ele><time>2026-04-18T15:58:22.001Z</time></trkpt><trkpt lat="42.438074321204624" lon="12.093690057189564"><ele>326.0</ele><time>2026-04-18T15:58:23.001Z</time></trkpt><trkpt lat="42.43804115222851" lon="12.093575492931803"><ele>326.0</ele><time>2026-04-18T15:58:24.001Z</time></trkpt><trkpt lat="42.43804087664369" lon="12.093441560797942"><ele>326.0</ele><time>2026-04-18T15:58:25.001Z</time></trkpt><trkpt lat="42.438072520230264" lon="12.093319851728124"><ele>326.0</ele><time>2026-04-18T15:58:26.001Z</time></trkpt><trkpt lat="42.4381299249438" lon="12.093211645468205"><ele>326.0</ele><time>2026-04-18T15:58:27.001Z</time></trkpt><trkpt lat="42.43818905454657" lon="12.09312467188771"><ele>326.0</ele><time>2026-04-18T15:58:28.001Z</time></trkpt><trkpt lat="42.438248980230995" lon="12.09304006485998"><ele>325.8</ele><time>2026-04-18T15:58:29.001Z</time></trkpt><trkpt lat="42.43829582683433" lon="12.092948158802987"><ele>325.6</ele><time>2026-04-18T15:58:30.001Z</time></trkpt><trkpt lat="42.43835160081984" lon="12.09284160498466"><ele>325.4</ele><time>2026-04-18T15:58:31.001Z</time></trkpt><trkpt lat="42.438419820531045" lon="12.09272692703502"><ele>325.2</ele><time>2026-04-18T15:58:32.001Z</time></trkpt><trkpt lat="42.43848376022734" lon="12.092604973043722"><ele>325.0</ele><time>2026-04-18T15:58:33.001Z</time></trkpt><trkpt lat="42.43856444347399" lon="12.092470439883995"><ele>324.0</ele><time>2026-04-18T15:58:34.001Z</time></trkpt><trkpt lat="42.438658622589955" lon="12.09230676411843"><ele>323.0</ele><time>2026-04-18T15:58:35.001Z</time></trkpt><trkpt lat="42.43876253148203" lon="12.092106813342307"><ele>322.0</ele><time>2026-04-18T15:58:36.001Z</time></trkpt><trkpt lat="42.43887690875099" lon="12.091876208437716"><ele>321.3333333333333</ele><time>2026-04-18T15:58:37.001Z</time></trkpt><trkpt lat="42.43899122109948" lon="12.091642919867098"><ele>320.6666666666667</ele><time>2026-04-18T15:58:38.001Z</time></trkpt><trkpt lat="42.43910048522486" lon="12.091419185536882"><ele>320.0</ele><time>2026-04-18T15:58:39.001Z</time></trkpt><trkpt lat="42.439201976161186" lon="12.091216135354886"><ele>320.0</ele><time>2026-04-18T15:58:40.001Z</time></trkpt><trkpt lat="42.43930403046507" lon="12.09103054111122"><ele>320.0</ele><time>2026-04-18T15:58:41Z</time></trkpt><trkpt lat="42.43940642857992" lon="12.090869476484642"><ele>320.0</ele><time>2026-04-18T15:58:42Z</time></trkpt><trkpt lat="42.43950790941921" lon="12.090712023119709"><ele>319.25</ele><time>2026-04-18T15:58:43Z</time></trkpt><trkpt lat="42.43960878894095" lon="12.09055867572378"><ele>318.5</ele><time>2026-04-18T15:58:44Z</time></trkpt><trkpt lat="42.439706798997086" lon="12.090403283556594"><ele>317.75</ele><time>2026-04-18T15:58:45Z</time></trkpt><trkpt lat="42.43979730538934" lon="12.090257990162142"><ele>317.0</ele><time>2026-04-18T15:58:46Z</time></trkpt><trkpt lat="42.439875831680716" lon="12.090130594054958"><ele>316.2</ele><time>2026-04-18T15:58:47Z</time></trkpt><trkpt lat="42.43994663118592" lon="12.090022679443207"><ele>315.4</ele><time>2026-04-18T15:58:48Z</time></trkpt><trkpt lat="42.440007567465756" lon="12.089932165031625"><ele>314.6</ele><time>2026-04-18T15:58:49Z</time></trkpt><trkpt lat="42.440062540933255" lon="12.08984813017387"><ele>313.8</ele><time>2026-04-18T15:58:50Z</time></trkpt><trkpt lat="42.440112385468545" lon="12.089776811125285"><ele>313.0</ele><time>2026-04-18T15:58:51Z</time></trkpt><trkpt lat="42.44019386887909" lon="12.089663251010503"><ele>313.16666666666663</ele><time>2026-04-18T15:58:53Z</time></trkpt><trkpt lat="42.44026007210305" lon="12.089572116168029"><ele>313.3333333333333</ele><time>2026-04-18T15:58:55Z</time></trkpt><trkpt lat="42.44031263125762" lon="12.08950850304272"><ele>313.5</ele><time>2026-04-18T15:58:57Z</time></trkpt><trkpt lat="42.440401908288926" lon="12.089471870431419"><ele>313.6666666666667</ele><time>2026-04-18T15:59:00Z</time></trkpt><trkpt lat="42.44049939029624" lon="12.089468959091855"><ele>313.83333333333337</ele><time>2026-04-18T15:59:02Z</time></trkpt><trkpt lat="42.44056619720734" lon="12.089446780700586"><ele>314.0</ele><time>2026-04-18T15:59:03Z</time></trkpt><trkpt lat="42.44062190147887" lon="12.08940071733705"><ele>313.99999999999994</ele><time>2026-04-18T15:59:04Z</time></trkpt><trkpt lat="42.44067481666035" lon="12.089337752157679"><ele>314.0</ele><time>2026-04-18T15:59:05Z</time></trkpt><trkpt lat="42.44072132003458" lon="12.089262092176101"><ele>314.0</ele><time>2026-04-18T15:59:06Z</time></trkpt><trkpt lat="42.44077032731387" lon="12.089196953777435"><ele>314.0</ele><time>2026-04-18T15:59:07Z</time></trkpt><trkpt lat="42.440829614020195" lon="12.08914879351112"><ele>314.0</ele><time>2026-04-18T15:59:08Z</time></trkpt><trkpt lat="42.44089816688506" lon="12.08912148215078"><ele>313.99999999999994</ele><time>2026-04-18T15:59:09Z</time></trkpt><trkpt lat="42.440979782249265" lon="12.089092814510852"><ele>314.0</ele><time>2026-04-18T15:59:10Z</time></trkpt><trkpt lat="42.44106850173884" lon="12.089063459870795"><ele>314.0</ele><time>2026-04-18T15:59:11Z</time></trkpt><trkpt lat="42.44115774102222" lon="12.089032477319158"><ele>314.0</ele><time>2026-04-18T15:59:12Z</time></trkpt><trkpt lat="42.44124965472788" lon="12.08899759591333"><ele>314.0</ele><time>2026-04-18T15:59:13Z</time></trkpt><trkpt lat="42.44133951304247" lon="12.088955911116361"><ele>314.0</ele><time>2026-04-18T15:59:14Z</time></trkpt><trkpt lat="42.441428532255564" lon="12.088914079927243"><ele>314.0</ele><time>2026-04-18T15:59:15Z</time></trkpt><trkpt lat="42.44151654890921" lon="12.088870003136929"><ele>314.0</ele><time>2026-04-18T15:59:16Z</time></trkpt><trkpt lat="42.441606750076765" lon="12.088826063222937"><ele>314.0</ele><time>2026-04-18T15:59:17Z</time></trkpt><trkpt lat="42.4416985797365" lon="12.08878236450384"><ele>314.0</ele><time>2026-04-18T15:59:18Z</time></trkpt><trkpt lat="42.441791960544585" lon="12.088739076784432"><ele>314.0</ele><time>2026-04-18T15:59:19Z</time></trkpt><trkpt lat="42.441886088110785" lon="12.088694305956974"><ele>314.0</ele><time>2026-04-18T15:59:20Z</time></trkpt><trkpt lat="42.44199004690008" lon="12.08864703370907"><ele>314.0</ele><time>2026-04-18T15:59:21Z</time></trkpt><trkpt lat="42.44209811543857" lon="12.088601305819884"><ele>314.0</ele><time>2026-04-18T15:59:22Z</time></trkpt><trkpt lat="42.44220683794989" lon="12.088552135113405"><ele>314.0</ele><time>2026-04-18T15:59:23Z</time></trkpt><trkpt lat="42.44231094586825" lon="12.088500595108531"><ele>314.0</ele><time>2026-04-18T15:59:24Z</time></trkpt><trkpt lat="42.442411859224094" lon="12.088445987919018"><ele>314.0</ele><time>2026-04-18T15:59:25Z</time></trkpt><trkpt lat="42.4425106079985" lon="12.088390083266775"><ele>314.4</ele><time>2026-04-18T15:59:26Z</time></trkpt><trkpt lat="42.44260738054239" lon="12.08833473021072"><ele>314.79999999999995</ele><time>2026-04-18T15:59:27Z</time></trkpt><trkpt lat="42.44269953922527" lon="12.088275950973623"><ele>315.20000000000005</ele><time>2026-04-18T15:59:28Z</time></trkpt><trkpt lat="42.442782117369646" lon="12.088213260830445"><ele>315.6</ele><time>2026-04-18T15:59:29Z</time></trkpt><trkpt lat="42.44284986640467" lon="12.088160444668821"><ele>316.0</ele><time>2026-04-18T15:59:30Z</time></trkpt><trkpt lat="42.44291411580296" lon="12.088112951825362"><ele>316.5</ele><time>2026-04-18T15:59:31Z</time></trkpt><trkpt lat="42.44297418949025" lon="12.088066318694255"><ele>317.0</ele><time>2026-04-18T15:59:32Z</time></trkpt><trkpt lat="42.44304088008162" lon="12.088012440844649"><ele>317.5</ele><time>2026-04-18T15:59:33Z</time></trkpt><trkpt lat="42.44311146679547" lon="12.087951568313962"><ele>318.0</ele><time>2026-04-18T15:59:34Z</time></trkpt><trkpt lat="42.44318749424421" lon="12.087881373419014"><ele>318.5</ele><time>2026-04-18T15:59:35Z</time></trkpt><trkpt lat="42.44328687592795" lon="12.087783202367447"><ele>319.0</ele><time>2026-04-18T15:59:36Z</time></trkpt><trkpt lat="42.44339884661725" lon="12.087664818075538"><ele>319.0</ele><time>2026-04-18T15:59:37Z</time></trkpt><trkpt lat="42.44353401129884" lon="12.087531897252095"><ele>319.0</ele><time>2026-04-18T15:59:38Z</time></trkpt><trkpt lat="42.443671182955775" lon="12.087406617340367"><ele>319.0</ele><time>2026-04-18T15:59:39Z</time></trkpt><trkpt lat="42.443796566822044" lon="12.0873004869064"><ele>318.25</ele><time>2026-04-18T15:59:40Z</time></trkpt><trkpt lat="42.44392227315732" lon="12.087187072468906"><ele>317.5</ele><time>2026-04-18T15:59:41Z</time></trkpt><trkpt lat="42.444046983597126" lon="12.087078313364902"><ele>316.75</ele><time>2026-04-18T15:59:42Z</time></trkpt><trkpt lat="42.444166128209524" lon="12.08697819099811"><ele>316.0</ele><time>2026-04-18T15:59:43Z</time></trkpt><trkpt lat="42.44427981465868" lon="12.086885858001008"><ele>316.0</ele><time>2026-04-18T15:59:44Z</time></trkpt><trkpt lat="42.444396492388435" lon="12.08678336304112"><ele>316.0</ele><time>2026-04-18T15:59:45Z</time></trkpt><trkpt lat="42.44450847127716" lon="12.086685980930303"><ele>316.0</ele><time>2026-04-18T15:59:46Z</time></trkpt><trkpt lat="42.44460741618772" lon="12.086601234126176"><ele>316.0</ele><time>2026-04-18T15:59:47Z</time></trkpt><trkpt lat="42.44469703338812" lon="12.08652962742418"><ele>315.5</ele><time>2026-04-18T15:59:48Z</time></trkpt><trkpt lat="42.44480882196422" lon="12.08644168010549"><ele>315.0</ele><time>2026-04-18T15:59:49Z</time></trkpt><trkpt lat="42.444931473947356" lon="12.08633933996828"><ele>314.5</ele><time>2026-04-18T15:59:50Z</time></trkpt><trkpt lat="42.44504589370064" lon="12.086250700981706"><ele>314.0</ele><time>2026-04-18T15:59:51Z</time></trkpt><trkpt lat="42.4451616436327" lon="12.086166514781297"><ele>314.0</ele><time>2026-04-18T15:59:52Z</time></trkpt><trkpt lat="42.44527661527278" lon="12.086090151553634"><ele>314.0</ele><time>2026-04-18T15:59:53Z</time></trkpt><trkpt lat="42.4453872864791" lon="12.08601984542733"><ele>314.0</ele><time>2026-04-18T15:59:54.001Z</time></trkpt><trkpt lat="42.445498341512035" lon="12.085949845902167"><ele>314.0</ele><time>2026-04-18T15:59:55.001Z</time></trkpt><trkpt lat="42.44560886580544" lon="12.085890211327412"><ele>313.8</ele><time>2026-04-18T15:59:56.001Z</time></trkpt><trkpt lat="42.44571866064146" lon="12.085836677731768"><ele>313.59999999999997</ele><time>2026-04-18T15:59:57.001Z</time></trkpt><trkpt lat="42.44582660045035" lon="12.085787363640307"><ele>313.4</ele><time>2026-04-18T15:59:58.001Z</time></trkpt><trkpt lat="42.44593265291262" lon="12.085743530978359"><ele>313.2</ele><time>2026-04-18T15:59:59.001Z</time></trkpt><trkpt lat="42.446033191944565" lon="12.085697724317344"><ele>313.0</ele><time>2026-04-18T16:00:00.001Z</time></trkpt><trkpt lat="42.44612622121498" lon="12.085653732362122"><ele>312.8</ele><time>2026-04-18T16:00:01.001Z</time></trkpt><trkpt lat="42.446222491023214" lon="12.085606858293373"><ele>312.6</ele><time>2026-04-18T16:00:02.001Z</time></trkpt><trkpt lat="42.44630927373496" lon="12.08556269653963"><ele>312.4</ele><time>2026-04-18T16:00:03.001Z</time></trkpt><trkpt lat="42.44639348500377" lon="12.085519499375437"><ele>312.2</ele><time>2026-04-18T16:00:04.001Z</time></trkpt><trkpt lat="42.44647942251478" lon="12.085473649753487"><ele>312.0</ele><time>2026-04-18T16:00:05.001Z</time></trkpt><trkpt lat="42.44656688397562" lon="12.08541759851909"><ele>312.4</ele><time>2026-04-18T16:00:06.001Z</time></trkpt><trkpt lat="42.44665453534767" lon="12.085355653683546"><ele>312.79999999999995</ele><time>2026-04-18T16:00:07.001Z</time></trkpt><trkpt lat="42.44675016143683" lon="12.085284813207808"><ele>313.2</ele><time>2026-04-18T16:00:08.001Z</time></trkpt><trkpt lat="42.4468507821558" lon="12.085205637169437"><ele>313.59999999999997</ele><time>2026-04-18T16:00:09.001Z</time></trkpt><trkpt lat="42.44695572228367" lon="12.085129038171187"><ele>314.0</ele><time>2026-04-18T16:00:10.001Z</time></trkpt><trkpt lat="42.44706399391508" lon="12.08504485155598"><ele>314.25</ele><time>2026-04-18T16:00:11.001Z</time></trkpt><trkpt lat="42.447174728301995" lon="12.084959701262266"><ele>314.5</ele><time>2026-04-18T16:00:12.001Z</time></trkpt><trkpt lat="42.44728429166265" lon="12.084872779680811"><ele>314.75</ele><time>2026-04-18T16:00:13.001Z</time></trkpt><trkpt lat="42.44738443727859" lon="12.084791763859394"><ele>315.0</ele><time>2026-04-18T16:00:14.001Z</time></trkpt><trkpt lat="42.44748054787814" lon="12.084712003395179"><ele>315.2</ele><time>2026-04-18T16:00:15.001Z</time></trkpt><trkpt lat="42.44757041611841" lon="12.084630191606887"><ele>315.4</ele><time>2026-04-18T16:00:16.001Z</time></trkpt><trkpt lat="42.44765871104365" lon="12.084547315579695"><ele>315.6</ele><time>2026-04-18T16:00:17.001Z</time></trkpt><trkpt lat="42.447747535297474" lon="12.084460799236604"><ele>315.8</ele><time>2026-04-18T16:00:18.001Z</time></trkpt><trkpt lat="42.4478340933815" lon="12.084372362902512"><ele>316.0</ele><time>2026-04-18T16:00:19.001Z</time></trkpt><trkpt lat="42.44792303987908" lon="12.084284142131041"><ele>316.0</ele><time>2026-04-18T16:00:20.001Z</time></trkpt><trkpt lat="42.4480175129563" lon="12.084192401305327"><ele>316.0</ele><time>2026-04-18T16:00:21.001Z</time></trkpt><trkpt lat="42.44812887083651" lon="12.084089926485122"><ele>316.0</ele><time>2026-04-18T16:00:22.001Z</time></trkpt><trkpt lat="42.4482478744814" lon="12.083995312433359"><ele>316.0</ele><time>2026-04-18T16:00:23.001Z</time></trkpt><trkpt lat="42.44836197833947" lon="12.083909466832308"><ele>316.0</ele><time>2026-04-18T16:00:24.001Z</time></trkpt><trkpt lat="42.448477768703036" lon="12.083822997547657"><ele>316.0</ele><time>2026-04-18T16:00:25.001Z</time></trkpt><trkpt lat="42.4485865310778" lon="12.083743513505945"><ele>316.0</ele><time>2026-04-18T16:00:26.001Z</time></trkpt><trkpt lat="42.44868731472184" lon="12.083663397673671"><ele>316.0</ele><time>2026-04-18T16:00:27.001Z</time></trkpt><trkpt lat="42.448786636428956" lon="12.083587872330433"><ele>316.0</ele><time>2026-04-18T16:00:28.001Z</time></trkpt><trkpt lat="42.448886566246856" lon="12.083510657528297"><ele>316.0</ele><time>2026-04-18T16:00:29.001Z</time></trkpt><trkpt lat="42.448990564579844" lon="12.083433222920023"><ele>316.0</ele><time>2026-04-18T16:00:30.001Z</time></trkpt><trkpt lat="42.44908755937165" lon="12.083360902094787"><ele>316.0</ele><time>2026-04-18T16:00:31.001Z</time></trkpt><trkpt lat="42.44917660110526" lon="12.083291863565849"><ele>316.0</ele><time>2026-04-18T16:00:32.001Z</time></trkpt><trkpt lat="42.44926453522674" lon="12.08322719115078"><ele>316.0</ele><time>2026-04-18T16:00:33.001Z</time></trkpt><trkpt lat="42.44935385789544" lon="12.083164518107735"><ele>316.0</ele><time>2026-04-18T16:00:34.001Z</time></trkpt><trkpt lat="42.44944702083211" lon="12.083100302919183"><ele>316.0</ele><time>2026-04-18T16:00:35.001Z</time></trkpt><trkpt lat="42.44953946710907" lon="12.083031099202055"><ele>316.0</ele><time>2026-04-18T16:00:36.001Z</time></trkpt><trkpt lat="42.449626498416386" lon="12.082962783966389"><ele>316.0</ele><time>2026-04-18T16:00:37.001Z</time></trkpt><trkpt lat="42.449709436412874" lon="12.082899603798586"><ele>316.0</ele><time>2026-04-18T16:00:38.001Z</time></trkpt><trkpt lat="42.449789864773116" lon="12.08283793761862"><ele>316.0</ele><time>2026-04-18T16:00:39.001Z</time></trkpt><trkpt lat="42.449871909328984" lon="12.082781956441304"><ele>316.0</ele><time>2026-04-18T16:00:40.001Z</time></trkpt><trkpt lat="42.44995277041682" lon="12.082724894615348"><ele>316.0</ele><time>2026-04-18T16:00:41.001Z</time></trkpt><trkpt lat="42.45003495814972" lon="12.082665546791372"><ele>316.0</ele><time>2026-04-18T16:00:42.001Z</time></trkpt><trkpt lat="42.45012406123349" lon="12.082600685581534"><ele>316.0</ele><time>2026-04-18T16:00:43.001Z</time></trkpt><trkpt lat="42.45021397538681" lon="12.082534247952154"><ele>316.0</ele><time>2026-04-18T16:00:44.001Z</time></trkpt><trkpt lat="42.45030241475164" lon="12.082468224958214"><ele>316.0</ele><time>2026-04-18T16:00:45.001Z</time></trkpt><trkpt lat="42.450385894443514" lon="12.082404530327556"><ele>316.0</ele><time>2026-04-18T16:00:46.001Z</time></trkpt><trkpt lat="42.45046606452659" lon="12.08234422582816"><ele>316.0</ele><time>2026-04-18T16:00:47Z</time></trkpt><trkpt lat="42.45054703079059" lon="12.082285742938367"><ele>315.8</ele><time>2026-04-18T16:00:48Z</time></trkpt><trkpt lat="42.45062918176419" lon="12.082225752506202"><ele>315.6</ele><time>2026-04-18T16:00:49Z</time></trkpt><trkpt lat="42.450713430608296" lon="12.082163167553134"><ele>315.4</ele><time>2026-04-18T16:00:50Z</time></trkpt><trkpt lat="42.45080671492195" lon="12.082088759223469"><ele>315.2</ele><time>2026-04-18T16:00:51Z</time></trkpt><trkpt lat="42.45092969198879" lon="12.081996261439699"><ele>315.0</ele><time>2026-04-18T16:00:52Z</time></trkpt><trkpt lat="42.45107042284988" lon="12.081890685980717"><ele>315.0</ele><time>2026-04-18T16:00:53Z</time></trkpt><trkpt lat="42.45122906405299" lon="12.081769966672852"><ele>315.0</ele><time>2026-04-18T16:00:54Z</time></trkpt><trkpt lat="42.451401606740774" lon="12.081635880380846"><ele>315.0</ele><time>2026-04-18T16:00:55Z</time></trkpt><trkpt lat="42.45156652763125" lon="12.081522921221369"><ele>314.3333333333333</ele><time>2026-04-18T16:00:56Z</time></trkpt><trkpt lat="42.45171484222348" lon="12.081430864695143"><ele>313.66666666666663</ele><time>2026-04-18T16:00:57Z</time></trkpt><trkpt lat="42.451853470773564" lon="12.081344416043057"><ele>313.0</ele><time>2026-04-18T16:00:58Z</time></trkpt><trkpt lat="42.4519885039863" lon="12.081274703362764"><ele>313.0</ele><time>2026-04-18T16:00:59Z</time></trkpt><trkpt lat="42.45211781226958" lon="12.081214086253018"><ele>313.0</ele><time>2026-04-18T16:01:00Z</time></trkpt><trkpt lat="42.45225441801519" lon="12.081161448851402"><ele>313.0</ele><time>2026-04-18T16:01:01Z</time></trkpt><trkpt lat="42.45239998058955" lon="12.081101940732005"><ele>313.0</ele><time>2026-04-18T16:01:02Z</time></trkpt><trkpt lat="42.452549531379525" lon="12.081045633736016"><ele>312.66666666666663</ele><time>2026-04-18T16:01:03Z</time></trkpt><trkpt lat="42.45267614789807" lon="12.080990179295636"><ele>312.3333333333333</ele><time>2026-04-18T16:01:04Z</time></trkpt><trkpt lat="42.45281426891743" lon="12.080907304435096"><ele>312.0</ele><time>2026-04-18T16:01:05Z</time></trkpt><trkpt lat="42.452975874547896" lon="12.080780739689887"><ele>311.0</ele><time>2026-04-18T16:01:06Z</time></trkpt><trkpt lat="42.45312717261318" lon="12.080640283378482"><ele>310.0</ele><time>2026-04-18T16:01:07Z</time></trkpt><trkpt lat="42.453281891925855" lon="12.080507805093477"><ele>309.0</ele><time>2026-04-18T16:01:08Z</time></trkpt><trkpt lat="42.453420153520156" lon="12.080395273657567"><ele>309.0</ele><time>2026-04-18T16:01:09Z</time></trkpt><trkpt lat="42.45353353501163" lon="12.080298733709098"><ele>309.0</ele><time>2026-04-18T16:01:10Z</time></trkpt><trkpt lat="42.45363362526295" lon="12.080220691270295"><ele>309.0</ele><time>2026-04-18T16:01:11Z</time></trkpt><trkpt lat="42.45373060754942" lon="12.08014445562523"><ele>309.0</ele><time>2026-04-18T16:01:12Z</time></trkpt><trkpt lat="42.45400171657836" lon="12.079907422098193"><ele>308.3333333333333</ele><time>2026-04-18T16:01:13Z</time></trkpt><trkpt lat="42.4541411780355" lon="12.079800959652193"><ele>307.66666666666663</ele><time>2026-04-18T16:01:14Z</time></trkpt><trkpt lat="42.454265396287795" lon="12.079690153087055"><ele>307.0</ele><time>2026-04-18T16:01:15Z</time></trkpt><trkpt lat="42.45438724762042" lon="12.079578789084367"><ele>307.0</ele><time>2026-04-18T16:01:16Z</time></trkpt><trkpt lat="42.45450962168594" lon="12.079482915785468"><ele>307.0</ele><time>2026-04-18T16:01:17Z</time></trkpt><trkpt lat="42.454632032308886" lon="12.079377524114147"><ele>307.0</ele><time>2026-04-18T16:01:18Z</time></trkpt><trkpt lat="42.454752457075806" lon="12.07927611060981"><ele>307.0</ele><time>2026-04-18T16:01:19Z</time></trkpt><trkpt lat="42.45487463842288" lon="12.079177074900949"><ele>307.5</ele><time>2026-04-18T16:01:20Z</time></trkpt><trkpt lat="42.455006422203475" lon="12.079069982940446"><ele>308.0</ele><time>2026-04-18T16:01:21Z</time></trkpt><trkpt lat="42.45513287443952" lon="12.078970460757906"><ele>308.5</ele><time>2026-04-18T16:01:22Z</time></trkpt><trkpt lat="42.45526235718661" lon="12.07886991673269"><ele>309.0</ele><time>2026-04-18T16:01:23Z</time></trkpt><trkpt lat="42.455390410103675" lon="12.078771837258206"><ele>308.0</ele><time>2026-04-18T16:01:24Z</time></trkpt><trkpt lat="42.455525049052675" lon="12.078676883797375"><ele>307.0</ele><time>2026-04-18T16:01:25Z</time></trkpt><trkpt lat="42.455660829357406" lon="12.078584213863659"><ele>306.0</ele><time>2026-04-18T16:01:26Z</time></trkpt><trkpt lat="42.45580045474504" lon="12.07848484640845"><ele>306.0</ele><time>2026-04-18T16:01:27Z</time></trkpt><trkpt lat="42.455939536020324" lon="12.078389400560873"><ele>306.0</ele><time>2026-04-18T16:01:28Z</time></trkpt><trkpt lat="42.456081698250834" lon="12.07829146041314"><ele>306.0</ele><time>2026-04-18T16:01:29Z</time></trkpt><trkpt lat="42.45622309066266" lon="12.078201111022198"><ele>306.5</ele><time>2026-04-18T16:01:30Z</time></trkpt><trkpt lat="42.45636092303597" lon="12.078113687219577"><ele>307.0</ele><time>2026-04-18T16:01:31Z</time></trkpt><trkpt lat="42.456482603875166" lon="12.078032100152296"><ele>307.5</ele><time>2026-04-18T16:01:32Z</time></trkpt><trkpt lat="42.45659234986898" lon="12.077959424120948"><ele>308.0</ele><time>2026-04-18T16:01:33Z</time></trkpt><trkpt lat="42.45670171668102" lon="12.077887952922447"><ele>308.0</ele><time>2026-04-18T16:01:34Z</time></trkpt><trkpt lat="42.45680788628035" lon="12.077813844432747"><ele>308.0</ele><time>2026-04-18T16:01:35Z</time></trkpt><trkpt lat="42.45691053296721" lon="12.077739279924053"><ele>308.0</ele><time>2026-04-18T16:01:36Z</time></trkpt><trkpt lat="42.45701636237458" lon="12.0776696664415"><ele>308.0</ele><time>2026-04-18T16:01:37Z</time></trkpt><trkpt lat="42.4571243838411" lon="12.077600285684571"><ele>307.75</ele><time>2026-04-18T16:01:38Z</time></trkpt><trkpt lat="42.457232889904155" lon="12.077517517341187"><ele>307.5</ele><time>2026-04-18T16:01:39Z</time></trkpt><trkpt lat="42.457349128446666" lon="12.077439976177386"><ele>307.25</ele><time>2026-04-18T16:01:40Z</time></trkpt><trkpt lat="42.45746685763935" lon="12.077359438308758"><ele>307.0</ele><time>2026-04-18T16:01:41Z</time></trkpt><trkpt lat="42.457590512021035" lon="12.07726766686719"><ele>307.3333333333333</ele><time>2026-04-18T16:01:42Z</time></trkpt><trkpt lat="42.45772518297417" lon="12.077187857547816"><ele>307.6666666666667</ele><time>2026-04-18T16:01:43Z</time></trkpt><trkpt lat="42.457873829993844" lon="12.077074267920114"><ele>308.0</ele><time>2026-04-18T16:01:44Z</time></trkpt><trkpt lat="42.45803028525717" lon="12.076957128253007"><ele>308.0</ele><time>2026-04-18T16:01:45Z</time></trkpt><trkpt lat="42.45820276474198" lon="12.076860715484449"><ele>308.0</ele><time>2026-04-18T16:01:46Z</time></trkpt><trkpt lat="42.45835805580576" lon="12.076754499696225"><ele>308.0</ele><time>2026-04-18T16:01:47Z</time></trkpt><trkpt lat="42.458498424976796" lon="12.07664218657772"><ele>308.6666666666667</ele><time>2026-04-18T16:01:48Z</time></trkpt><trkpt lat="42.4586293873511" lon="12.07654838305741"><ele>309.3333333333333</ele><time>2026-04-18T16:01:49Z</time></trkpt><trkpt lat="42.4587582017936" lon="12.076461005328813"><ele>310.0</ele><time>2026-04-18T16:01:50Z</time></trkpt><trkpt lat="42.45891720752811" lon="12.076375030311613"><ele>310.66666666666663</ele><time>2026-04-18T16:01:51Z</time></trkpt><trkpt lat="42.45908910435738" lon="12.076259958147904"><ele>311.3333333333333</ele><time>2026-04-18T16:01:52Z</time></trkpt><trkpt lat="42.45927338313618" lon="12.07611392800537"><ele>312.0</ele><time>2026-04-18T16:01:53Z</time></trkpt><trkpt lat="42.45948070059879" lon="12.075981970911009"><ele>312.3333333333333</ele><time>2026-04-18T16:01:54Z</time></trkpt><trkpt lat="42.45967399506732" lon="12.075871490504666"><ele>312.66666666666663</ele><time>2026-04-18T16:01:55Z</time></trkpt><trkpt lat="42.45982548559216" lon="12.075786396131473"><ele>313.0</ele><time>2026-04-18T16:01:56Z</time></trkpt><trkpt lat="42.4599626347445" lon="12.075709579123032"><ele>313.0</ele><time>2026-04-18T16:01:57Z</time></trkpt><trkpt lat="42.46010068975108" lon="12.075636726150131"><ele>313.0</ele><time>2026-04-18T16:01:58Z</time></trkpt><trkpt lat="42.46023009559723" lon="12.075568957055717"><ele>313.0</ele><time>2026-04-18T16:01:59Z</time></trkpt><trkpt lat="42.46035790099833" lon="12.075500888835169"><ele>313.0</ele><time>2026-04-18T16:02:00Z</time></trkpt><trkpt lat="42.460479574085795" lon="12.075435646330433"><ele>313.0</ele><time>2026-04-18T16:02:01Z</time></trkpt><trkpt lat="42.46059357368272" lon="12.075373776690002"><ele>313.0</ele><time>2026-04-18T16:02:02Z</time></trkpt><trkpt lat="42.46070039707739" lon="12.075316120415655"><ele>313.0</ele><time>2026-04-18T16:02:03.001Z</time></trkpt><trkpt lat="42.46080074592019" lon="12.075255654699182"><ele>313.0</ele><time>2026-04-18T16:02:04.001Z</time></trkpt><trkpt lat="42.46090006273748" lon="12.075202469423228"><ele>313.0</ele><time>2026-04-18T16:02:05.001Z</time></trkpt><trkpt lat="42.46099865393115" lon="12.075152751062717"><ele>313.0</ele><time>2026-04-18T16:02:06.001Z</time></trkpt><trkpt lat="42.461094806868125" lon="12.075103331743815"><ele>313.0</ele><time>2026-04-18T16:02:07.001Z</time></trkpt><trkpt lat="42.46120132899981" lon="12.075046116087435"><ele>313.0</ele><time>2026-04-18T16:02:08.001Z</time></trkpt><trkpt lat="42.46131619180181" lon="12.074981362523403"><ele>313.0</ele><time>2026-04-18T16:02:09.001Z</time></trkpt><trkpt lat="42.46143439352152" lon="12.074914742955212"><ele>313.0</ele><time>2026-04-18T16:02:10.001Z</time></trkpt><trkpt lat="42.46155447836944" lon="12.074853249125926"><ele>313.0</ele><time>2026-04-18T16:02:11.001Z</time></trkpt><trkpt lat="42.461657448180745" lon="12.074799309668204"><ele>313.0</ele><time>2026-04-18T16:02:12.001Z</time></trkpt><trkpt lat="42.46173271724426" lon="12.074760072880082"><ele>313.0</ele><time>2026-04-18T16:02:13.001Z</time></trkpt><trkpt lat="42.461790919937016" lon="12.074725540035317"><ele>313.0</ele><time>2026-04-18T16:02:14.001Z</time></trkpt><trkpt lat="42.4618760213864" lon="12.074678765023204"><ele>313.0</ele><time>2026-04-18T16:02:16.001Z</time></trkpt><trkpt lat="42.461948142853" lon="12.074644573754641"><ele>313.0</ele><time>2026-04-18T16:02:18.001Z</time></trkpt><trkpt lat="42.46201904891431" lon="12.074610145600555"><ele>313.0</ele><time>2026-04-18T16:02:20.001Z</time></trkpt><trkpt lat="42.462132975110215" lon="12.074556331077092"><ele>313.0</ele><time>2026-04-18T16:02:22.001Z</time></trkpt><trkpt lat="42.462221971738714" lon="12.074508481162104"><ele>313.0</ele><time>2026-04-18T16:02:23.001Z</time></trkpt><trkpt lat="42.46230596083309" lon="12.074467001397846"><ele>313.0</ele><time>2026-04-18T16:02:24.001Z</time></trkpt><trkpt lat="42.46237812247827" lon="12.074418624156955"><ele>313.0</ele><time>2026-04-18T16:02:25.001Z</time></trkpt><trkpt lat="42.46244736352599" lon="12.074369243277555"><ele>313.0</ele><time>2026-04-18T16:02:26.001Z</time></trkpt><trkpt lat="42.46250670554523" lon="12.074336708739297"><ele>313.0</ele><time>2026-04-18T16:02:27.001Z</time></trkpt><trkpt lat="42.4625939429305" lon="12.074287624095472"><ele>313.0</ele><time>2026-04-18T16:02:29.001Z</time></trkpt><trkpt lat="42.4626953870628" lon="12.074221952648376"><ele>313.0</ele><time>2026-04-18T16:02:31.001Z</time></trkpt><trkpt lat="42.46279976400093" lon="12.074180907194505"><ele>313.0</ele><time>2026-04-18T16:02:32.001Z</time></trkpt><trkpt lat="42.46291755845737" lon="12.074117472477868"><ele>313.0</ele><time>2026-04-18T16:02:33.001Z</time></trkpt><trkpt lat="42.46307850222959" lon="12.074018812484212"><ele>313.0</ele><time>2026-04-18T16:02:34.001Z</time></trkpt><trkpt lat="42.46328555797718" lon="12.07391984385246"><ele>314.0</ele><time>2026-04-18T16:02:35.001Z</time></trkpt><trkpt lat="42.46352402924716" lon="12.073797021350016"><ele>315.0</ele><time>2026-04-18T16:02:36.001Z</time></trkpt><trkpt lat="42.46381025062107" lon="12.073674146053312"><ele>315.0</ele><time>2026-04-18T16:02:37.001Z</time></trkpt><trkpt lat="42.46411240418717" lon="12.073582395461225"><ele>315.0</ele><time>2026-04-18T16:02:38.001Z</time></trkpt><trkpt lat="42.464413984209955" lon="12.073517558319232"><ele>315.0</ele><time>2026-04-18T16:02:39.001Z</time></trkpt><trkpt lat="42.464680397199366" lon="12.07345448290103"><ele>315.0</ele><time>2026-04-18T16:02:40.001Z</time></trkpt><trkpt lat="42.46491300929814" lon="12.073384696732736"><ele>315.0</ele><time>2026-04-18T16:02:41.001Z</time></trkpt><trkpt lat="42.46513124891743" lon="12.073325103961412"><ele>315.0</ele><time>2026-04-18T16:02:42.001Z</time></trkpt><trkpt lat="42.465343491739986" lon="12.07328140372471"><ele>315.0</ele><time>2026-04-18T16:02:43.001Z</time></trkpt><trkpt lat="42.46554991747277" lon="12.073270083529787"><ele>315.6666666666667</ele><time>2026-04-18T16:02:44.001Z</time></trkpt><trkpt lat="42.46576683901045" lon="12.073283716718628"><ele>316.33333333333337</ele><time>2026-04-18T16:02:45.001Z</time></trkpt><trkpt lat="42.465983961866115" lon="12.073324691793566"><ele>317.0</ele><time>2026-04-18T16:02:46.001Z</time></trkpt><trkpt lat="42.46618622010558" lon="12.073371088869283"><ele>317.33333333333337</ele><time>2026-04-18T16:02:47.001Z</time></trkpt><trkpt lat="42.466372776371074" lon="12.073416489395042"><ele>317.6666666666667</ele><time>2026-04-18T16:02:48.001Z</time></trkpt><trkpt lat="42.46655437920508" lon="12.073455733430892"><ele>318.0</ele><time>2026-04-18T16:02:49.001Z</time></trkpt><trkpt lat="42.466737308339255" lon="12.073496932426414"><ele>318.0</ele><time>2026-04-18T16:02:50.001Z</time></trkpt><trkpt lat="42.46692488062828" lon="12.073533998000697"><ele>318.0</ele><time>2026-04-18T16:02:51.001Z</time></trkpt><trkpt lat="42.46712059802458" lon="12.073567408663076"><ele>318.0</ele><time>2026-04-18T16:02:52.001Z</time></trkpt><trkpt lat="42.4673194402903" lon="12.07360799787651"><ele>317.3333333333333</ele><time>2026-04-18T16:02:53Z</time></trkpt><trkpt lat="42.46751480015639" lon="12.073651311625001"><ele>316.66666666666663</ele><time>2026-04-18T16:02:54Z</time></trkpt><trkpt lat="42.46772216945637" lon="12.073686344692062"><ele>316.0</ele><time>2026-04-18T16:02:55Z</time></trkpt><trkpt lat="42.46791922846156" lon="12.073719559802797"><ele>315.66666666666663</ele><time>2026-04-18T16:02:56Z</time></trkpt><trkpt lat="42.468111637192955" lon="12.073754637124823"><ele>315.3333333333333</ele><time>2026-04-18T16:02:57Z</time></trkpt><trkpt lat="42.46830959962269" lon="12.073792484344178"><ele>315.0</ele><time>2026-04-18T16:02:58Z</time></trkpt><trkpt lat="42.46851067638726" lon="12.073830232914593"><ele>315.0</ele><time>2026-04-18T16:02:59Z</time></trkpt><trkpt lat="42.468705832660696" lon="12.073867439224022"><ele>315.0</ele><time>2026-04-18T16:03:00Z</time></trkpt><trkpt lat="42.46889724563473" lon="12.073902902975583"><ele>315.0</ele><time>2026-04-18T16:03:01Z</time></trkpt><trkpt lat="42.4690941310002" lon="12.073935935725347"><ele>315.0</ele><time>2026-04-18T16:03:02Z</time></trkpt><trkpt lat="42.46929844902411" lon="12.073957945650054"><ele>315.0</ele><time>2026-04-18T16:03:03Z</time></trkpt><trkpt lat="42.46951085472733" lon="12.07397243877633"><ele>315.0</ele><time>2026-04-18T16:03:04Z</time></trkpt><trkpt lat="42.46972505677799" lon="12.073973456997479"><ele>315.0</ele><time>2026-04-18T16:03:05Z</time></trkpt><trkpt lat="42.469932424275086" lon="12.073959577736781"><ele>315.0</ele><time>2026-04-18T16:03:06Z</time></trkpt><trkpt lat="42.47012243215755" lon="12.073935044531412"><ele>315.0</ele><time>2026-04-18T16:03:07Z</time></trkpt><trkpt lat="42.47031515236611" lon="12.073900990665342"><ele>313.0</ele><time>2026-04-18T16:03:08Z</time></trkpt><trkpt lat="42.470497722475876" lon="12.07387616209309"><ele>311.0</ele><time>2026-04-18T16:03:09Z</time></trkpt><trkpt lat="42.47068148525541" lon="12.073850445292262"><ele>309.0</ele><time>2026-04-18T16:03:10Z</time></trkpt><trkpt lat="42.470866150851535" lon="12.073826326392124"><ele>309.0</ele><time>2026-04-18T16:03:11Z</time></trkpt><trkpt lat="42.4710527412761" lon="12.073799701668653"><ele>309.0</ele><time>2026-04-18T16:03:12Z</time></trkpt><trkpt lat="42.47124551079203" lon="12.073770311916189"><ele>309.0</ele><time>2026-04-18T16:03:13Z</time></trkpt><trkpt lat="42.47144874348378" lon="12.073739309538086"><ele>309.6666666666667</ele><time>2026-04-18T16:03:14Z</time></trkpt><trkpt lat="42.471652200270896" lon="12.07370493788688"><ele>310.33333333333337</ele><time>2026-04-18T16:03:15Z</time></trkpt><trkpt lat="42.471863190659946" lon="12.073672197353398"><ele>311.0</ele><time>2026-04-18T16:03:16Z</time></trkpt><trkpt lat="42.47207515174784" lon="12.07363334394823"><ele>311.6666666666667</ele><time>2026-04-18T16:03:17Z</time></trkpt><trkpt lat="42.47228738479841" lon="12.073577091792213"><ele>312.3333333333333</ele><time>2026-04-18T16:03:18Z</time></trkpt><trkpt lat="42.47250774215595" lon="12.073517190755773"><ele>313.0</ele><time>2026-04-18T16:03:19Z</time></trkpt><trkpt lat="42.47273092082192" lon="12.073440076513437"><ele>315.0</ele><time>2026-04-18T16:03:20Z</time></trkpt><trkpt lat="42.47296291103227" lon="12.073341543516642"><ele>317.0</ele><time>2026-04-18T16:03:21Z</time></trkpt><trkpt lat="42.47319384147577" lon="12.073239082142532"><ele>317.0</ele><time>2026-04-18T16:03:22Z</time></trkpt><trkpt lat="42.47341979453524" lon="12.073140993627353"><ele>317.0</ele><time>2026-04-18T16:03:23Z</time></trkpt><trkpt lat="42.47363260379825" lon="12.073050127966415"><ele>316.6666666666667</ele><time>2026-04-18T16:03:24Z</time></trkpt><trkpt lat="42.47384589155251" lon="12.07295414868378"><ele>316.3333333333333</ele><time>2026-04-18T16:03:25Z</time></trkpt><trkpt lat="42.4740517754577" lon="12.072850102117604"><ele>316.0</ele><time>2026-04-18T16:03:26Z</time></trkpt><trkpt lat="42.474251378778476" lon="12.072737822549787"><ele>316.0</ele><time>2026-04-18T16:03:27Z</time></trkpt><trkpt lat="42.474446193189195" lon="12.072615109641026"><ele>316.0</ele><time>2026-04-18T16:03:28Z</time></trkpt><trkpt lat="42.47464156411875" lon="12.072493526651526"><ele>316.0</ele><time>2026-04-18T16:03:29Z</time></trkpt><trkpt lat="42.47483131316025" lon="12.072373839433428"><ele>316.66666666666663</ele><time>2026-04-18T16:03:30Z</time></trkpt><trkpt lat="42.475015362646324" lon="12.07225748677904"><ele>317.3333333333333</ele><time>2026-04-18T16:03:31Z</time></trkpt><trkpt lat="42.47519948959802" lon="12.072142858192302"><ele>318.0</ele><time>2026-04-18T16:03:32Z</time></trkpt><trkpt lat="42.47538587500629" lon="12.072039190340638"><ele>317.6666666666667</ele><time>2026-04-18T16:03:33Z</time></trkpt><trkpt lat="42.47557684018565" lon="12.07193509222868"><ele>317.33333333333337</ele><time>2026-04-18T16:03:34Z</time></trkpt><trkpt lat="42.47576782263311" lon="12.071831012321494"><ele>317.0</ele><time>2026-04-18T16:03:35Z</time></trkpt><trkpt lat="42.47596037580126" lon="12.07172950675352"><ele>317.0</ele><time>2026-04-18T16:03:36Z</time></trkpt><trkpt lat="42.47615130678136" lon="12.071620420717997"><ele>317.0</ele><time>2026-04-18T16:03:37Z</time></trkpt><trkpt lat="42.47634299785224" lon="12.071509661137737"><ele>317.0</ele><time>2026-04-18T16:03:38Z</time></trkpt><trkpt lat="42.47653402263299" lon="12.07140063125987"><ele>317.6666666666667</ele><time>2026-04-18T16:03:39Z</time></trkpt><trkpt lat="42.476717282512624" lon="12.07129745705989"><ele>318.3333333333333</ele><time>2026-04-18T16:03:40Z</time></trkpt><trkpt lat="42.47689846633208" lon="12.07119472292716"><ele>319.0</ele><time>2026-04-18T16:03:41Z</time></trkpt><trkpt lat="42.4770798006593" lon="12.071096653200033"><ele>318.66666666666663</ele><time>2026-04-18T16:03:42Z</time></trkpt><trkpt lat="42.47726376750758" lon="12.070995646838053"><ele>318.3333333333333</ele><time>2026-04-18T16:03:43Z</time></trkpt><trkpt lat="42.47744810676927" lon="12.070891072561757"><ele>318.0</ele><time>2026-04-18T16:03:44Z</time></trkpt><trkpt lat="42.47763285129893" lon="12.070788815259535"><ele>319.0</ele><time>2026-04-18T16:03:45Z</time></trkpt><trkpt lat="42.47782092164975" lon="12.07068990787116"><ele>320.0</ele><time>2026-04-18T16:03:46Z</time></trkpt><trkpt lat="42.47801439532437" lon="12.070605461197614"><ele>321.0</ele><time>2026-04-18T16:03:47Z</time></trkpt><trkpt lat="42.47821440376115" lon="12.070531220890334"><ele>321.0</ele><time>2026-04-18T16:03:48Z</time></trkpt><trkpt lat="42.478415913675335" lon="12.0704625536747"><ele>321.0</ele><time>2026-04-18T16:03:49Z</time></trkpt><trkpt lat="42.47862099403241" lon="12.070391114362632"><ele>321.0</ele><time>2026-04-18T16:03:50Z</time></trkpt><trkpt lat="42.478824526823324" lon="12.07032279398232"><ele>322.0</ele><time>2026-04-18T16:03:51Z</time></trkpt><trkpt lat="42.47903863124561" lon="12.070250917609881"><ele>323.0</ele><time>2026-04-18T16:03:52Z</time></trkpt><trkpt lat="42.479248148339735" lon="12.070178489659993"><ele>324.0</ele><time>2026-04-18T16:03:53Z</time></trkpt><trkpt lat="42.47945681511549" lon="12.070107903496032"><ele>325.0</ele><time>2026-04-18T16:03:54Z</time></trkpt><trkpt lat="42.47966281085414" lon="12.070036426085009"><ele>326.0</ele><time>2026-04-18T16:03:55Z</time></trkpt><trkpt lat="42.47986585882173" lon="12.069968053411"><ele>327.0</ele><time>2026-04-18T16:03:56Z</time></trkpt><trkpt lat="42.48006416923108" lon="12.069902404938812"><ele>327.0</ele><time>2026-04-18T16:03:57Z</time></trkpt><trkpt lat="42.48025579758024" lon="12.069840875594819"><ele>327.0</ele><time>2026-04-18T16:03:58Z</time></trkpt><trkpt lat="42.48045201611673" lon="12.069770571622415"><ele>327.0</ele><time>2026-04-18T16:03:59Z</time></trkpt><trkpt lat="42.48065176533054" lon="12.069704412760528"><ele>326.0</ele><time>2026-04-18T16:04:00Z</time></trkpt><trkpt lat="42.48085612508394" lon="12.06963554933594"><ele>325.0</ele><time>2026-04-18T16:04:01Z</time></trkpt><trkpt lat="42.48105854657322" lon="12.069570353992374"><ele>324.0</ele><time>2026-04-18T16:04:02Z</time></trkpt><trkpt lat="42.4812605904152" lon="12.069502646899965"><ele>323.3333333333333</ele><time>2026-04-18T16:04:03Z</time></trkpt><trkpt lat="42.481462571239895" lon="12.06943526513371"><ele>322.66666666666663</ele><time>2026-04-18T16:04:04Z</time></trkpt><trkpt lat="42.48166380052692" lon="12.06936864827276"><ele>322.0</ele><time>2026-04-18T16:04:05Z</time></trkpt><trkpt lat="42.48186287173199" lon="12.069299713582868"><ele>322.0</ele><time>2026-04-18T16:04:06Z</time></trkpt><trkpt lat="42.482052634015965" lon="12.069233515489767"><ele>322.0</ele><time>2026-04-18T16:04:07Z</time></trkpt><trkpt lat="42.48223085555433" lon="12.069171847886384"><ele>322.0</ele><time>2026-04-18T16:04:08Z</time></trkpt><trkpt lat="42.482404149871485" lon="12.069112625833531"><ele>320.66666666666663</ele><time>2026-04-18T16:04:09Z</time></trkpt><trkpt lat="42.48257132218134" lon="12.069052981681088"><ele>319.3333333333333</ele><time>2026-04-18T16:04:10Z</time></trkpt><trkpt lat="42.48273479448287" lon="12.068998502965039"><ele>318.0</ele><time>2026-04-18T16:04:11Z</time></trkpt><trkpt lat="42.48289142481328" lon="12.068947380411222"><ele>318.0</ele><time>2026-04-18T16:04:12Z</time></trkpt><trkpt lat="42.48304167922584" lon="12.068898318561791"><ele>318.0</ele><time>2026-04-18T16:04:13.001Z</time></trkpt><trkpt lat="42.48318582505053" lon="12.068850795103728"><ele>318.0</ele><time>2026-04-18T16:04:14.001Z</time></trkpt><trkpt lat="42.48332740005107" lon="12.068800295494826"><ele>318.0</ele><time>2026-04-18T16:04:15.001Z</time></trkpt><trkpt lat="42.48346488362288" lon="12.068751446543411"><ele>318.0</ele><time>2026-04-18T16:04:16.001Z</time></trkpt><trkpt lat="42.483602995190296" lon="12.068708357144983"><ele>318.0</ele><time>2026-04-18T16:04:17.001Z</time></trkpt><trkpt lat="42.48373480637899" lon="12.068666456744488"><ele>318.0</ele><time>2026-04-18T16:04:18.001Z</time></trkpt><trkpt lat="42.48386315543492" lon="12.068622914290577"><ele>318.0</ele><time>2026-04-18T16:04:19.001Z</time></trkpt><trkpt lat="42.483990714376326" lon="12.068579323645112"><ele>317.75</ele><time>2026-04-18T16:04:20.001Z</time></trkpt><trkpt lat="42.48411510601653" lon="12.06853929836487"><ele>317.5</ele><time>2026-04-18T16:04:21.001Z</time></trkpt><trkpt lat="42.48423477145018" lon="12.06849840187276"><ele>317.25</ele><time>2026-04-18T16:04:22.001Z</time></trkpt><trkpt lat="42.48435695940877" lon="12.068455019167462"><ele>317.0</ele><time>2026-04-18T16:04:23.001Z</time></trkpt><trkpt lat="42.484482140185456" lon="12.068411993150672"><ele>317.0</ele><time>2026-04-18T16:04:24.001Z</time></trkpt><trkpt lat="42.48460789984533" lon="12.068370936055976"><ele>317.0</ele><time>2026-04-18T16:04:25.001Z</time></trkpt><trkpt lat="42.48473487697949" lon="12.068327389415563"><ele>317.0</ele><time>2026-04-18T16:04:26.001Z</time></trkpt><trkpt lat="42.48486332879117" lon="12.06828318534768"><ele>317.0</ele><time>2026-04-18T16:04:27.001Z</time></trkpt><trkpt lat="42.48499711521001" lon="12.068234472670722"><ele>317.33333333333337</ele><time>2026-04-18T16:04:28.001Z</time></trkpt><trkpt lat="42.48513532083545" lon="12.068189008139292"><ele>317.6666666666667</ele><time>2026-04-18T16:04:29.001Z</time></trkpt><trkpt lat="42.48528293354504" lon="12.068145353272435"><ele>318.0</ele><time>2026-04-18T16:04:30.001Z</time></trkpt><trkpt lat="42.48544647327961" lon="12.068087897459902"><ele>318.6666666666667</ele><time>2026-04-18T16:04:31.001Z</time></trkpt><trkpt lat="42.485625984018704" lon="12.068027464560837"><ele>319.33333333333337</ele><time>2026-04-18T16:04:32.001Z</time></trkpt><trkpt lat="42.485813276729296" lon="12.067962696679619"><ele>320.0</ele><time>2026-04-18T16:04:33.001Z</time></trkpt><trkpt lat="42.4859986150763" lon="12.067896744187427"><ele>320.0</ele><time>2026-04-18T16:04:34.001Z</time></trkpt><trkpt lat="42.486183311493804" lon="12.067831625837803"><ele>320.0</ele><time>2026-04-18T16:04:35.001Z</time></trkpt><trkpt lat="42.48636767097077" lon="12.067772558499477"><ele>320.0</ele><time>2026-04-18T16:04:36.001Z</time></trkpt><trkpt lat="42.48655249841011" lon="12.067717876744062"><ele>319.6666666666667</ele><time>2026-04-18T16:04:37.001Z</time></trkpt><trkpt lat="42.4867391183232" lon="12.067656409600243"><ele>319.3333333333333</ele><time>2026-04-18T16:04:38.001Z</time></trkpt><trkpt lat="42.48693761612696" lon="12.067585248394774"><ele>319.0</ele><time>2026-04-18T16:04:39.001Z</time></trkpt><trkpt lat="42.487158161904745" lon="12.067519352746864"><ele>320.5</ele><time>2026-04-18T16:04:40.001Z</time></trkpt><trkpt lat="42.487389815525134" lon="12.067439782871183"><ele>322.0</ele><time>2026-04-18T16:04:41.001Z</time></trkpt><trkpt lat="42.487632416667225" lon="12.067354976079924"><ele>322.0</ele><time>2026-04-18T16:04:42.001Z</time></trkpt><trkpt lat="42.4878875377722" lon="12.067254155257356"><ele>322.0</ele><time>2026-04-18T16:04:43.001Z</time></trkpt><trkpt lat="42.48812268586584" lon="12.067154594639879"><ele>323.5</ele><time>2026-04-18T16:04:44.001Z</time></trkpt><trkpt lat="42.48834489841592" lon="12.06705592473214"><ele>325.0</ele><time>2026-04-18T16:04:45.001Z</time></trkpt><trkpt lat="42.488569136138615" lon="12.066953995113826"><ele>324.0</ele><time>2026-04-18T16:04:46.001Z</time></trkpt><trkpt lat="42.48878872510245" lon="12.066845571982672"><ele>323.0</ele><time>2026-04-18T16:04:47.001Z</time></trkpt><trkpt lat="42.488994759995585" lon="12.066737179222038"><ele>323.0</ele><time>2026-04-18T16:04:48.001Z</time></trkpt><trkpt lat="42.48919027451128" lon="12.066627112361871"><ele>323.0</ele><time>2026-04-18T16:04:49.001Z</time></trkpt><trkpt lat="42.48938023220249" lon="12.066507679995663"><ele>323.0</ele><time>2026-04-18T16:04:50.001Z</time></trkpt><trkpt lat="42.48956742019941" lon="12.066376415298238"><ele>321.6666666666667</ele><time>2026-04-18T16:04:51.001Z</time></trkpt><trkpt lat="42.48975293071305" lon="12.066232532404095"><ele>320.3333333333333</ele><time>2026-04-18T16:04:52.001Z</time></trkpt><trkpt lat="42.489938983616575" lon="12.066081642347184"><ele>319.0</ele><time>2026-04-18T16:04:53.001Z</time></trkpt><trkpt lat="42.49011697818475" lon="12.065931945110044"><ele>319.0</ele><time>2026-04-18T16:04:54.001Z</time></trkpt><trkpt lat="42.49028557892594" lon="12.065784174743738"><ele>319.0</ele><time>2026-04-18T16:04:55.001Z</time></trkpt><trkpt lat="42.49044483406055" lon="12.065638026113525"><ele>319.0</ele><time>2026-04-18T16:04:56.001Z</time></trkpt><trkpt lat="42.49059592719925" lon="12.06550226362093"><ele>318.3333333333333</ele><time>2026-04-18T16:04:57.001Z</time></trkpt><trkpt lat="42.49074556471685" lon="12.065373558416395"><ele>317.6666666666667</ele><time>2026-04-18T16:04:58.001Z</time></trkpt><trkpt lat="42.490890941995396" lon="12.065246635053036"><ele>317.0</ele><time>2026-04-18T16:04:59Z</time></trkpt><trkpt lat="42.49103769732782" lon="12.065125681638373"><ele>317.0</ele><time>2026-04-18T16:05:00Z</time></trkpt><trkpt lat="42.49118508777102" lon="12.065007280044163"><ele>317.0</ele><time>2026-04-18T16:05:01Z</time></trkpt><trkpt lat="42.49133077758022" lon="12.064889203424483"><ele>317.0</ele><time>2026-04-18T16:05:02Z</time></trkpt><trkpt lat="42.4914746903023" lon="12.064772094711868"><ele>316.6666666666667</ele><time>2026-04-18T16:05:03Z</time></trkpt><trkpt lat="42.49162098213898" lon="12.064657990229831"><ele>316.3333333333333</ele><time>2026-04-18T16:05:04Z</time></trkpt><trkpt lat="42.49176714028259" lon="12.06454780600328"><ele>316.0</ele><time>2026-04-18T16:05:05Z</time></trkpt><trkpt lat="42.491912300115985" lon="12.064442092858156"><ele>316.0</ele><time>2026-04-18T16:05:06Z</time></trkpt><trkpt lat="42.49205936523331" lon="12.064340217241243"><ele>316.0</ele><time>2026-04-18T16:05:07Z</time></trkpt><trkpt lat="42.49220944136646" lon="12.06423816681035"><ele>316.0</ele><time>2026-04-18T16:05:08Z</time></trkpt><trkpt lat="42.49236317469042" lon="12.064134738708757"><ele>316.0</ele><time>2026-04-18T16:05:09Z</time></trkpt><trkpt lat="42.492520582186174" lon="12.064036214847535"><ele>316.0</ele><time>2026-04-18T16:05:10Z</time></trkpt><trkpt lat="42.492675588695356" lon="12.063955530477354"><ele>316.0</ele><time>2026-04-18T16:05:11Z</time></trkpt><trkpt lat="42.49283853011414" lon="12.06388279826484"><ele>314.3333333333333</ele><time>2026-04-18T16:05:12Z</time></trkpt><trkpt lat="42.4930090449714" lon="12.063820961087846"><ele>312.6666666666667</ele><time>2026-04-18T16:05:13Z</time></trkpt><trkpt lat="42.493181616652485" lon="12.063777580267445"><ele>311.0</ele><time>2026-04-18T16:05:14Z</time></trkpt><trkpt lat="42.49335517650213" lon="12.06374316051032"><ele>311.0</ele><time>2026-04-18T16:05:15Z</time></trkpt><trkpt lat="42.49352841776081" lon="12.063717636595815"><ele>311.0</ele><time>2026-04-18T16:05:16Z</time></trkpt><trkpt lat="42.493701719581516" lon="12.063697526169259"><ele>311.0</ele><time>2026-04-18T16:05:17Z</time></trkpt><trkpt lat="42.493878549583656" lon="12.063679151084493"><ele>311.0</ele><time>2026-04-18T16:05:18Z</time></trkpt><trkpt lat="42.49405594519272" lon="12.063657434121046"><ele>311.0</ele><time>2026-04-18T16:05:19Z</time></trkpt><trkpt lat="42.49423451849989" lon="12.06363714724709"><ele>311.0</ele><time>2026-04-18T16:05:20Z</time></trkpt><trkpt lat="42.4944136709704" lon="12.063604454402208"><ele>311.33333333333337</ele><time>2026-04-18T16:05:21Z</time></trkpt><trkpt lat="42.49458902228258" lon="12.063560976925412"><ele>311.6666666666667</ele><time>2026-04-18T16:05:22Z</time></trkpt><trkpt lat="42.494763990817674" lon="12.063510381312481"><ele>312.0</ele><time>2026-04-18T16:05:23Z</time></trkpt><trkpt lat="42.49493891724783" lon="12.063452657648588"><ele>312.0</ele><time>2026-04-18T16:05:24Z</time></trkpt><trkpt lat="42.49511226881112" lon="12.063391174328874"><ele>312.0</ele><time>2026-04-18T16:05:25Z</time></trkpt><trkpt lat="42.49528798979775" lon="12.063324880359424"><ele>312.0</ele><time>2026-04-18T16:05:26Z</time></trkpt><trkpt lat="42.495472930855485" lon="12.063253505088417"><ele>312.6666666666667</ele><time>2026-04-18T16:05:27Z</time></trkpt><trkpt lat="42.49564948568971" lon="12.063190189551195"><ele>313.33333333333337</ele><time>2026-04-18T16:05:28Z</time></trkpt><trkpt lat="42.49582774709883" lon="12.063119302140063"><ele>314.0</ele><time>2026-04-18T16:05:29Z</time></trkpt><trkpt lat="42.496007566593825" lon="12.063047977501476"><ele>314.0</ele><time>2026-04-18T16:05:30Z</time></trkpt><trkpt lat="42.4961945659609" lon="12.06297501248203"><ele>314.0</ele><time>2026-04-18T16:05:31Z</time></trkpt><trkpt lat="42.496382565606645" lon="12.062906381627485"><ele>314.0</ele><time>2026-04-18T16:05:32Z</time></trkpt><trkpt lat="42.49656019359813" lon="12.062841981293197"><ele>314.6666666666667</ele><time>2026-04-18T16:05:33Z</time></trkpt><trkpt lat="42.496729095102104" lon="12.062777561627302"><ele>315.3333333333333</ele><time>2026-04-18T16:05:34Z</time></trkpt><trkpt lat="42.49689189050481" lon="12.062708943509937"><ele>316.0</ele><time>2026-04-18T16:05:35Z</time></trkpt><trkpt lat="42.497060316244415" lon="12.062639876703544"><ele>316.0</ele><time>2026-04-18T16:05:36Z</time></trkpt><trkpt lat="42.49723241594931" lon="12.062574370732275"><ele>316.0</ele><time>2026-04-18T16:05:37Z</time></trkpt><trkpt lat="42.497414755463474" lon="12.062505676304152"><ele>316.0</ele><time>2026-04-18T16:05:38Z</time></trkpt><trkpt lat="42.497609862311386" lon="12.062431250322518"><ele>316.66666666666663</ele><time>2026-04-18T16:05:39Z</time></trkpt><trkpt lat="42.49781934642751" lon="12.062350435981651"><ele>317.3333333333333</ele><time>2026-04-18T16:05:40Z</time></trkpt><trkpt lat="42.498041907859196" lon="12.06226301340057"><ele>318.0</ele><time>2026-04-18T16:05:41Z</time></trkpt><trkpt lat="42.498277417660695" lon="12.062169947884849"><ele>318.0</ele><time>2026-04-18T16:05:42Z</time></trkpt><trkpt lat="42.49851485107664" lon="12.062075718159386"><ele>318.0</ele><time>2026-04-18T16:05:43Z</time></trkpt><trkpt lat="42.4987556040951" lon="12.062004821834224"><ele>321.0</ele><time>2026-04-18T16:05:44Z</time></trkpt><trkpt lat="42.498994314111805" lon="12.061914525100761"><ele>324.0</ele><time>2026-04-18T16:05:45Z</time></trkpt><trkpt lat="42.49921819072832" lon="12.061820592314799"><ele>324.0</ele><time>2026-04-18T16:05:46Z</time></trkpt><trkpt lat="42.499428632102905" lon="12.061746541468093"><ele>324.0</ele><time>2026-04-18T16:05:47Z</time></trkpt><trkpt lat="42.499632877868244" lon="12.061665312030573"><ele>324.0</ele><time>2026-04-18T16:05:48Z</time></trkpt><trkpt lat="42.49983638753343" lon="12.06158880276133"><ele>325.3333333333333</ele><time>2026-04-18T16:05:49Z</time></trkpt><trkpt lat="42.50003965239829" lon="12.061511299295846"><ele>326.66666666666663</ele><time>2026-04-18T16:05:50Z</time></trkpt><trkpt lat="42.500239455147906" lon="12.061434197704965"><ele>328.0</ele><time>2026-04-18T16:05:51Z</time></trkpt><trkpt lat="42.500439037309015" lon="12.061359830520576"><ele>331.0</ele><time>2026-04-18T16:05:52Z</time></trkpt><trkpt lat="42.5006374480424" lon="12.06128396742541"><ele>334.0</ele><time>2026-04-18T16:05:53Z</time></trkpt><trkpt lat="42.50083948030168" lon="12.061204971604718"><ele>337.0</ele><time>2026-04-18T16:05:54Z</time></trkpt><trkpt lat="42.50104504484297" lon="12.061126461535475"><ele>338.3333333333333</ele><time>2026-04-18T16:05:55Z</time></trkpt><trkpt lat="42.50125312679913" lon="12.061049480104256"><ele>339.6666666666667</ele><time>2026-04-18T16:05:56Z</time></trkpt><trkpt lat="42.501459224625755" lon="12.060973657096811"><ele>341.0</ele><time>2026-04-18T16:05:57Z</time></trkpt><trkpt lat="42.501648765703656" lon="12.060900885250614"><ele>341.0</ele><time>2026-04-18T16:05:58Z</time></trkpt><trkpt lat="42.501830016854434" lon="12.060830212053808"><ele>341.0</ele><time>2026-04-18T16:05:59Z</time></trkpt><trkpt lat="42.50200600355076" lon="12.060761183555691"><ele>341.0</ele><time>2026-04-18T16:06:00Z</time></trkpt><trkpt lat="42.50218422133593" lon="12.06068985880454"><ele>342.0</ele><time>2026-04-18T16:06:01Z</time></trkpt><trkpt lat="42.50236339974022" lon="12.060621571729042"><ele>343.0</ele><time>2026-04-18T16:06:02Z</time></trkpt><trkpt lat="42.5025427058301" lon="12.060554246218079"><ele>344.0</ele><time>2026-04-18T16:06:03Z</time></trkpt><trkpt lat="42.50272748420047" lon="12.060485195124524"><ele>344.0</ele><time>2026-04-18T16:06:04Z</time></trkpt><trkpt lat="42.50291344987071" lon="12.060417094246482"><ele>344.0</ele><time>2026-04-18T16:06:05Z</time></trkpt><trkpt lat="42.50309729926602" lon="12.060340206632477"><ele>344.0</ele><time>2026-04-18T16:06:06Z</time></trkpt><trkpt lat="42.503271003697755" lon="12.060261290000353"><ele>344.0</ele><time>2026-04-18T16:06:07Z</time></trkpt><trkpt lat="42.5034340833946" lon="12.06018065602188"><ele>344.0</ele><time>2026-04-18T16:06:08Z</time></trkpt><trkpt lat="42.50359043173911" lon="12.060097318296748"><ele>344.0</ele><time>2026-04-18T16:06:09Z</time></trkpt><trkpt lat="42.50373831649591" lon="12.060017828104561"><ele>344.0</ele><time>2026-04-18T16:06:10Z</time></trkpt><trkpt lat="42.50388286401112" lon="12.059934639963812"><ele>344.0</ele><time>2026-04-18T16:06:11Z</time></trkpt><trkpt lat="42.50402996606328" lon="12.059847630896213"><ele>344.0</ele><time>2026-04-18T16:06:12Z</time></trkpt><trkpt lat="42.5041868466553" lon="12.059745143161331"><ele>344.0</ele><time>2026-04-18T16:06:13Z</time></trkpt><trkpt lat="42.50435077815233" lon="12.059633715648639"><ele>344.0</ele><time>2026-04-18T16:06:14Z</time></trkpt><trkpt lat="42.504510408813374" lon="12.059511449353572"><ele>344.0</ele><time>2026-04-18T16:06:15Z</time></trkpt><trkpt lat="42.50466949611641" lon="12.059381453047441"><ele>344.33333333333337</ele><time>2026-04-18T16:06:16Z</time></trkpt><trkpt lat="42.50483437488032" lon="12.05923982814385"><ele>344.6666666666667</ele><time>2026-04-18T16:06:17Z</time></trkpt><trkpt lat="42.50501879413216" lon="12.059112812255249"><ele>345.0</ele><time>2026-04-18T16:06:18Z</time></trkpt><trkpt lat="42.50518406648078" lon="12.058936628880137"><ele>345.3333333333333</ele><time>2026-04-18T16:06:19Z</time></trkpt><trkpt lat="42.5053643272807" lon="12.058791210227168"><ele>345.66666666666663</ele><time>2026-04-18T16:06:20Z</time></trkpt><trkpt lat="42.50555029096052" lon="12.058649016801462"><ele>346.0</ele><time>2026-04-18T16:06:21Z</time></trkpt><trkpt lat="42.505754189628604" lon="12.058531711255565"><ele>346.0</ele><time>2026-04-18T16:06:22Z</time></trkpt><trkpt lat="42.505970933716256" lon="12.05842916451864"><ele>346.0</ele><time>2026-04-18T16:06:23Z</time></trkpt><trkpt lat="42.506169399150785" lon="12.05834107707299"><ele>346.0</ele><time>2026-04-18T16:06:24Z</time></trkpt><trkpt lat="42.50636363237067" lon="12.05826404686846"><ele>346.0</ele><time>2026-04-18T16:06:25Z</time></trkpt><trkpt lat="42.50655743594861" lon="12.058190561846759"><ele>346.0</ele><time>2026-04-18T16:06:26Z</time></trkpt><trkpt lat="42.50675323680175" lon="12.058110473557269"><ele>346.0</ele><time>2026-04-18T16:06:27Z</time></trkpt><trkpt lat="42.50694991434615" lon="12.058022537711652"><ele>347.3333333333333</ele><time>2026-04-18T16:06:28Z</time></trkpt><trkpt lat="42.507144346987054" lon="12.057926696609"><ele>348.6666666666667</ele><time>2026-04-18T16:06:29Z</time></trkpt><trkpt lat="42.50733879344759" lon="12.057829244764468"><ele>350.0</ele><time>2026-04-18T16:06:30Z</time></trkpt><trkpt lat="42.50753645013191" lon="12.057721872949887"><ele>350.0</ele><time>2026-04-18T16:06:31Z</time></trkpt><trkpt lat="42.50773533098337" lon="12.057604148771983"><ele>350.0</ele><time>2026-04-18T16:06:32Z</time></trkpt><trkpt lat="42.50793280774896" lon="12.05748053028172"><ele>350.0</ele><time>2026-04-18T16:06:33Z</time></trkpt><trkpt lat="42.508126626559594" lon="12.057356605197599"><ele>351.0</ele><time>2026-04-18T16:06:34Z</time></trkpt><trkpt lat="42.50831431355048" lon="12.057233669352858"><ele>352.0</ele><time>2026-04-18T16:06:35Z</time></trkpt><trkpt lat="42.50849948447027" lon="12.057114655169524"><ele>353.0</ele><time>2026-04-18T16:06:36Z</time></trkpt><trkpt lat="42.50867038908438" lon="12.057002415120857"><ele>353.33333333333337</ele><time>2026-04-18T16:06:37Z</time></trkpt><trkpt lat="42.508836563661625" lon="12.056892436375136"><ele>353.6666666666667</ele><time>2026-04-18T16:06:38Z</time></trkpt><trkpt lat="42.50899474998209" lon="12.056783025928684"><ele>354.0</ele><time>2026-04-18T16:06:39Z</time></trkpt><trkpt lat="42.50915412594134" lon="12.056675415758088"><ele>354.0</ele><time>2026-04-18T16:06:40Z</time></trkpt><trkpt lat="42.5093139643683" lon="12.056561981890166"><ele>354.0</ele><time>2026-04-18T16:06:41Z</time></trkpt><trkpt lat="42.50947156004092" lon="12.056447822165051"><ele>354.0</ele><time>2026-04-18T16:06:42Z</time></trkpt><trkpt lat="42.5096257743493" lon="12.05633220968524"><ele>355.0</ele><time>2026-04-18T16:06:43Z</time></trkpt><trkpt lat="42.50978440210583" lon="12.056214784494319"><ele>356.0</ele><time>2026-04-18T16:06:44Z</time></trkpt><trkpt lat="42.509941981492084" lon="12.056095677088978"><ele>357.0</ele><time>2026-04-18T16:06:45Z</time></trkpt><trkpt lat="42.51009946379329" lon="12.055975404993065"><ele>357.0</ele><time>2026-04-18T16:06:46Z</time></trkpt><trkpt lat="42.51026063475849" lon="12.055857007014176"><ele>357.0</ele><time>2026-04-18T16:06:47Z</time></trkpt><trkpt lat="42.51042294235587" lon="12.055738326864768"><ele>357.0</ele><time>2026-04-18T16:06:48Z</time></trkpt><trkpt lat="42.51058626767292" lon="12.05561695590521"><ele>358.6666666666667</ele><time>2026-04-18T16:06:49Z</time></trkpt><trkpt lat="42.510753952318524" lon="12.05549148567616"><ele>360.33333333333337</ele><time>2026-04-18T16:06:50Z</time></trkpt><trkpt lat="42.5109241284752" lon="12.055363469104556"><ele>362.0</ele><time>2026-04-18T16:06:51Z</time></trkpt><trkpt lat="42.51109817164459" lon="12.055230892087401"><ele>363.33333333333337</ele><time>2026-04-18T16:06:52Z</time></trkpt><trkpt lat="42.51127556431528" lon="12.055098104461697"><ele>364.6666666666667</ele><time>2026-04-18T16:06:53Z</time></trkpt><trkpt lat="42.51146058693772" lon="12.054956362308117"><ele>366.0</ele><time>2026-04-18T16:06:54.001Z</time></trkpt><trkpt lat="42.5116376794631" lon="12.05482544430725"><ele>366.3333333333333</ele><time>2026-04-18T16:06:55.001Z</time></trkpt><trkpt lat="42.51180697750845" lon="12.054700289177491"><ele>366.66666666666663</ele><time>2026-04-18T16:06:56.001Z</time></trkpt><trkpt lat="42.5119765934741" lon="12.0545759578579"><ele>367.0</ele><time>2026-04-18T16:06:57.001Z</time></trkpt><trkpt lat="42.51215340875299" lon="12.054445253651016"><ele>368.66666666666663</ele><time>2026-04-18T16:06:58.001Z</time></trkpt><trkpt lat="42.5123438122168" lon="12.054307799535275"><ele>370.3333333333333</ele><time>2026-04-18T16:06:59.001Z</time></trkpt><trkpt lat="42.51254300673534" lon="12.054161350970624"><ele>372.0</ele><time>2026-04-18T16:07:00.001Z</time></trkpt><trkpt lat="42.51274470920123" lon="12.054015834562396"><ele>374.0</ele><time>2026-04-18T16:07:01.001Z</time></trkpt><trkpt lat="42.51293962452032" lon="12.053884959440065"><ele>376.0</ele><time>2026-04-18T16:07:02.001Z</time></trkpt><trkpt lat="42.51313697839994" lon="12.053764790899644"><ele>378.0</ele><time>2026-04-18T16:07:03.001Z</time></trkpt><trkpt lat="42.51332628335033" lon="12.053654589057576"><ele>378.0</ele><time>2026-04-18T16:07:04.001Z</time></trkpt><trkpt lat="42.51349883950645" lon="12.053546687399214"><ele>378.0</ele><time>2026-04-18T16:07:05Z</time></trkpt><trkpt lat="42.513672979419454" lon="12.053434427279983"><ele>378.0</ele><time>2026-04-18T16:07:06Z</time></trkpt><trkpt lat="42.513848971452354" lon="12.053318306837932"><ele>379.0</ele><time>2026-04-18T16:07:07Z</time></trkpt><trkpt lat="42.51403341228817" lon="12.05319755876419"><ele>380.0</ele><time>2026-04-18T16:07:08Z</time></trkpt><trkpt lat="42.51422869998943" lon="12.053071092857822"><ele>381.0</ele><time>2026-04-18T16:07:09Z</time></trkpt><trkpt lat="42.51442401014124" lon="12.052943864379893"><ele>383.0</ele><time>2026-04-18T16:07:10Z</time></trkpt><trkpt lat="42.51461290109202" lon="12.052820706928863"><ele>385.0</ele><time>2026-04-18T16:07:11Z</time></trkpt><trkpt lat="42.514799898200486" lon="12.052695270688902"><ele>387.0</ele><time>2026-04-18T16:07:12Z</time></trkpt><trkpt lat="42.51498787465432" lon="12.052567219379679"><ele>386.66666666666663</ele><time>2026-04-18T16:07:13Z</time></trkpt><trkpt lat="42.51517363480577" lon="12.052451562429907"><ele>386.3333333333333</ele><time>2026-04-18T16:07:14Z</time></trkpt><trkpt lat="42.515366942098204" lon="12.05232705602987"><ele>386.0</ele><time>2026-04-18T16:07:15Z</time></trkpt><trkpt lat="42.51556022555155" lon="12.0521950616535"><ele>388.0</ele><time>2026-04-18T16:07:16Z</time></trkpt><trkpt lat="42.51575672730412" lon="12.052048010725674"><ele>390.0</ele><time>2026-04-18T16:07:17Z</time></trkpt><trkpt lat="42.51595736670535" lon="12.051864521374887"><ele>390.0</ele><time>2026-04-18T16:07:18Z</time></trkpt><trkpt lat="42.516153931878655" lon="12.051652623304722"><ele>390.0</ele><time>2026-04-18T16:07:19Z</time></trkpt><trkpt lat="42.51634522453083" lon="12.051425014014036"><ele>393.0</ele><time>2026-04-18T16:07:20Z</time></trkpt><trkpt lat="42.51654156788122" lon="12.05120387380588"><ele>396.0</ele><time>2026-04-18T16:07:21Z</time></trkpt><trkpt lat="42.51671735912938" lon="12.051004467941723"><ele>396.0</ele><time>2026-04-18T16:07:22Z</time></trkpt><trkpt lat="42.516890971442386" lon="12.050810556988884"><ele>396.0</ele><time>2026-04-18T16:07:23Z</time></trkpt><trkpt lat="42.517062680342455" lon="12.050618068967305"><ele>396.0</ele><time>2026-04-18T16:07:24Z</time></trkpt><trkpt lat="42.517229991439365" lon="12.050424868544615"><ele>398.33333333333337</ele><time>2026-04-18T16:07:25Z</time></trkpt><trkpt lat="42.51739469200141" lon="12.050231507204996"><ele>400.6666666666667</ele><time>2026-04-18T16:07:26Z</time></trkpt><trkpt lat="42.51755956155826" lon="12.050046353513979"><ele>403.0</ele><time>2026-04-18T16:07:27Z</time></trkpt><trkpt lat="42.51771905189327" lon="12.049861604285795"><ele>405.0</ele><time>2026-04-18T16:07:28Z</time></trkpt><trkpt lat="42.51786538863913" lon="12.049696430681902"><ele>407.0</ele><time>2026-04-18T16:07:29Z</time></trkpt><trkpt lat="42.51799708834637" lon="12.049548245567133"><ele>409.0</ele><time>2026-04-18T16:07:30Z</time></trkpt><trkpt lat="42.518121739521874" lon="12.049400207317511"><ele>410.0</ele><time>2026-04-18T16:07:31Z</time></trkpt><trkpt lat="42.51826051976316" lon="12.049233458444121"><ele>411.0</ele><time>2026-04-18T16:07:32Z</time></trkpt><trkpt lat="42.51842438146497" lon="12.04905047888279"><ele>412.0</ele><time>2026-04-18T16:07:33Z</time></trkpt><trkpt lat="42.51859299891306" lon="12.048878700196374"><ele>412.0</ele><time>2026-04-18T16:07:34Z</time></trkpt><trkpt lat="42.51875668123886" lon="12.048718716778867"><ele>412.0</ele><time>2026-04-18T16:07:35Z</time></trkpt><trkpt lat="42.51892411266645" lon="12.04856459458425"><ele>412.0</ele><time>2026-04-18T16:07:36Z</time></trkpt><trkpt lat="42.51910201880661" lon="12.048424076784546"><ele>412.0</ele><time>2026-04-18T16:07:37Z</time></trkpt><trkpt lat="42.519293445524745" lon="12.04829775251976"><ele>412.0</ele><time>2026-04-18T16:07:38Z</time></trkpt><trkpt lat="42.51949816016545" lon="12.048190461823117"><ele>412.0</ele><time>2026-04-18T16:07:39Z</time></trkpt><trkpt lat="42.519713258109654" lon="12.048099841876997"><ele>410.33333333333337</ele><time>2026-04-18T16:07:40Z</time></trkpt><trkpt lat="42.519924374049836" lon="12.048036736183644"><ele>408.66666666666663</ele><time>2026-04-18T16:07:41Z</time></trkpt><trkpt lat="42.520132802381795" lon="12.047999588585617"><ele>407.0</ele><time>2026-04-18T16:07:42Z</time></trkpt><trkpt lat="42.52034219612027" lon="12.047984570431543"><ele>406.66666666666663</ele><time>2026-04-18T16:07:43Z</time></trkpt><trkpt lat="42.52055164033583" lon="12.048006295228086"><ele>406.33333333333337</ele><time>2026-04-18T16:07:44Z</time></trkpt><trkpt lat="42.520762534052125" lon="12.048032838857928"><ele>406.0</ele><time>2026-04-18T16:07:45Z</time></trkpt><trkpt lat="42.52096888847209" lon="12.048077315281342"><ele>406.0</ele><time>2026-04-18T16:07:46Z</time></trkpt><trkpt lat="42.52117043550752" lon="12.048145250464213"><ele>406.0</ele><time>2026-04-18T16:07:47Z</time></trkpt><trkpt lat="42.521365942485616" lon="12.048229437392205"><ele>406.0</ele><time>2026-04-18T16:07:48Z</time></trkpt><trkpt lat="42.52155894200124" lon="12.048306994930803"><ele>407.0</ele><time>2026-04-18T16:07:49Z</time></trkpt><trkpt lat="42.52172663838902" lon="12.048439274093571"><ele>408.0</ele><time>2026-04-18T16:07:50Z</time></trkpt><trkpt lat="42.52189111477413" lon="12.048538138144508"><ele>409.0</ele><time>2026-04-18T16:07:51Z</time></trkpt><trkpt lat="42.52203599765362" lon="12.048667833495315"><ele>410.0</ele><time>2026-04-18T16:07:52Z</time></trkpt><trkpt lat="42.52216889338188" lon="12.048806913240695"><ele>411.0</ele><time>2026-04-18T16:07:53Z</time></trkpt><trkpt lat="42.522299887299425" lon="12.048949467025153"><ele>412.0</ele><time>2026-04-18T16:07:54Z</time></trkpt><trkpt lat="42.522422979398144" lon="12.049103271938561"><ele>414.33333333333337</ele><time>2026-04-18T16:07:55Z</time></trkpt><trkpt lat="42.522536546970215" lon="12.049265270138772"><ele>416.66666666666663</ele><time>2026-04-18T16:07:56Z</time></trkpt><trkpt lat="42.52263700215683" lon="12.049419283608993"><ele>419.0</ele><time>2026-04-18T16:07:57Z</time></trkpt><trkpt lat="42.522722127169935" lon="12.049570446925"><ele>419.0</ele><time>2026-04-18T16:07:58Z</time></trkpt><trkpt lat="42.52280075747772" lon="12.049711807998289"><ele>419.0</ele><time>2026-04-18T16:07:59Z</time></trkpt><trkpt lat="42.52287270968156" lon="12.049842575256378"><ele>419.0</ele><time>2026-04-18T16:08:00Z</time></trkpt><trkpt lat="42.522938130209766" lon="12.04995630044183"><ele>419.0</ele><time>2026-04-18T16:08:01Z</time></trkpt><trkpt lat="42.522997758931965" lon="12.05006374875488"><ele>419.71428571428567</ele><time>2026-04-18T16:08:02Z</time></trkpt><trkpt lat="42.52304793025854" lon="12.050153124180326"><ele>420.42857142857144</ele><time>2026-04-18T16:08:03Z</time></trkpt><trkpt lat="42.52309681468771" lon="12.050238135445866"><ele>421.1428571428571</ele><time>2026-04-18T16:08:04Z</time></trkpt><trkpt lat="42.52313883949051" lon="12.050312180171147"><ele>421.85714285714283</ele><time>2026-04-18T16:08:05Z</time></trkpt><trkpt lat="42.523178149862765" lon="12.05038042015796"><ele>422.57142857142856</ele><time>2026-04-18T16:08:06Z</time></trkpt><trkpt lat="42.52321697801205" lon="12.050460382319969"><ele>423.2857142857143</ele><time>2026-04-18T16:08:07Z</time></trkpt><trkpt lat="42.52326113670619" lon="12.050544882910165"><ele>424.0</ele><time>2026-04-18T16:08:08Z</time></trkpt><trkpt lat="42.523315502259365" lon="12.050645890691985"><ele>424.0</ele><time>2026-04-18T16:08:09Z</time></trkpt><trkpt lat="42.523372102917975" lon="12.050749625191566"><ele>424.0</ele><time>2026-04-18T16:08:10Z</time></trkpt><trkpt lat="42.52343105238593" lon="12.050856047436366"><ele>424.0</ele><time>2026-04-18T16:08:11Z</time></trkpt><trkpt lat="42.52348560530335" lon="12.05095787553685"><ele>424.0</ele><time>2026-04-18T16:08:12Z</time></trkpt><trkpt lat="42.52353744069749" lon="12.051053261609942"><ele>424.0</ele><time>2026-04-18T16:08:13Z</time></trkpt><trkpt lat="42.52358975288623" lon="12.051149098957373"><ele>424.79999999999995</ele><time>2026-04-18T16:08:14Z</time></trkpt><trkpt lat="42.52364184038279" lon="12.051246990663222"><ele>425.59999999999997</ele><time>2026-04-18T16:08:15Z</time></trkpt><trkpt lat="42.523695212984414" lon="12.051345826199174"><ele>426.4</ele><time>2026-04-18T16:08:16Z</time></trkpt><trkpt lat="42.52375098109119" lon="12.051448309177946"><ele>427.2</ele><time>2026-04-18T16:08:17Z</time></trkpt><trkpt lat="42.52380638303936" lon="12.051546376409183"><ele>428.0</ele><time>2026-04-18T16:08:18Z</time></trkpt><trkpt lat="42.52386086008425" lon="12.051643667007394"><ele>429.2</ele><time>2026-04-18T16:08:19Z</time></trkpt><trkpt lat="42.52391370673684" lon="12.05174289793831"><ele>430.4</ele><time>2026-04-18T16:08:20Z</time></trkpt><trkpt lat="42.523966809304795" lon="12.051842014626663"><ele>431.59999999999997</ele><time>2026-04-18T16:08:21Z</time></trkpt><trkpt lat="42.524021478903066" lon="12.0519412949989"><ele>432.79999999999995</ele><time>2026-04-18T16:08:22Z</time></trkpt><trkpt lat="42.52407805933233" lon="12.052041896136085"><ele>434.0</ele><time>2026-04-18T16:08:23Z</time></trkpt><trkpt lat="42.524135306268306" lon="12.052145466102873"><ele>434.0</ele><time>2026-04-18T16:08:24Z</time></trkpt><trkpt lat="42.52419183099035" lon="12.052251712702624"><ele>434.0</ele><time>2026-04-18T16:08:25Z</time></trkpt><trkpt lat="42.52424871930021" lon="12.05235836814012"><ele>434.0</ele><time>2026-04-18T16:08:26Z</time></trkpt><trkpt lat="42.52430525927638" lon="12.052464354702591"><ele>434.0</ele><time>2026-04-18T16:08:27Z</time></trkpt><trkpt lat="42.52436330188973" lon="12.052566310303048"><ele>434.0</ele><time>2026-04-18T16:08:28Z</time></trkpt><trkpt lat="42.52441794775724" lon="12.052666857935593"><ele>434.4</ele><time>2026-04-18T16:08:29Z</time></trkpt><trkpt lat="42.524471457567394" lon="12.052766884629106"><ele>434.79999999999995</ele><time>2026-04-18T16:08:30Z</time></trkpt><trkpt lat="42.524526084039366" lon="12.052864823596556"><ele>435.20000000000005</ele><time>2026-04-18T16:08:31Z</time></trkpt><trkpt lat="42.52458459183259" lon="12.052958976413244"><ele>435.6</ele><time>2026-04-18T16:08:32Z</time></trkpt><trkpt lat="42.52465144195626" lon="12.053050444935465"><ele>436.0</ele><time>2026-04-18T16:08:33Z</time></trkpt><trkpt lat="42.52472881019394" lon="12.053132172916648"><ele>436.8</ele><time>2026-04-18T16:08:34Z</time></trkpt><trkpt lat="42.52481029268473" lon="12.05319539260486"><ele>437.6</ele><time>2026-04-18T16:08:35Z</time></trkpt><trkpt lat="42.52489875654828" lon="12.053252339464432"><ele>438.4</ele><time>2026-04-18T16:08:36Z</time></trkpt><trkpt lat="42.52499144755376" lon="12.053299405336706"><ele>439.2</ele><time>2026-04-18T16:08:37Z</time></trkpt><trkpt lat="42.52508296408971" lon="12.053343570905758"><ele>440.0</ele><time>2026-04-18T16:08:38Z</time></trkpt><trkpt lat="42.52517776075578" lon="12.053384423612501"><ele>440.0</ele><time>2026-04-18T16:08:39Z</time></trkpt><trkpt lat="42.52527269549922" lon="12.053417558256603"><ele>440.0</ele><time>2026-04-18T16:08:40Z</time></trkpt><trkpt lat="42.52537723951969" lon="12.053437529253346"><ele>440.0</ele><time>2026-04-18T16:08:41Z</time></trkpt><trkpt lat="42.52548227819539" lon="12.053453869948784"><ele>440.0</ele><time>2026-04-18T16:08:42Z</time></trkpt><trkpt lat="42.52558794935124" lon="12.053472699407664"><ele>440.0</ele><time>2026-04-18T16:08:43Z</time></trkpt><trkpt lat="42.525691425026245" lon="12.053487979371825"><ele>441.0</ele><time>2026-04-18T16:08:44Z</time></trkpt><trkpt lat="42.525796147263925" lon="12.053500791347643"><ele>442.0</ele><time>2026-04-18T16:08:45Z</time></trkpt><trkpt lat="42.525894706291524" lon="12.053507018645696"><ele>443.0</ele><time>2026-04-18T16:08:46Z</time></trkpt><trkpt lat="42.525993977553924" lon="12.053503769888176"><ele>444.0</ele><time>2026-04-18T16:08:47Z</time></trkpt><trkpt lat="42.52609380162278" lon="12.053504601553925"><ele>445.0</ele><time>2026-04-18T16:08:48Z</time></trkpt><trkpt lat="42.52619215954927" lon="12.053500727490723"><ele>445.6</ele><time>2026-04-18T16:08:49Z</time></trkpt><trkpt lat="42.52629670092643" lon="12.053514784154448"><ele>446.2</ele><time>2026-04-18T16:08:50Z</time></trkpt><trkpt lat="42.52640535231147" lon="12.053515803212242"><ele>446.79999999999995</ele><time>2026-04-18T16:08:51Z</time></trkpt><trkpt lat="42.52651673409346" lon="12.053521109689438"><ele>447.4</ele><time>2026-04-18T16:08:52Z</time></trkpt><trkpt lat="42.526624624536375" lon="12.053519249173673"><ele>448.0</ele><time>2026-04-18T16:08:53Z</time></trkpt><trkpt lat="42.52673625320518" lon="12.053522587857259"><ele>448.0</ele><time>2026-04-18T16:08:54Z</time></trkpt><trkpt lat="42.52684923057966" lon="12.053525149289406"><ele>448.0</ele><time>2026-04-18T16:08:55Z</time></trkpt><trkpt lat="42.526966026061444" lon="12.053532572220055"><ele>448.0</ele><time>2026-04-18T16:08:56Z</time></trkpt><trkpt lat="42.52708400805206" lon="12.053537578283493"><ele>448.0</ele><time>2026-04-18T16:08:57Z</time></trkpt><trkpt lat="42.52719862286193" lon="12.053551622857137"><ele>449.25</ele><time>2026-04-18T16:08:58Z</time></trkpt><trkpt lat="42.52731662776052" lon="12.053572241316978"><ele>450.5</ele><time>2026-04-18T16:08:59Z</time></trkpt><trkpt lat="42.527432479540344" lon="12.05358686364739"><ele>451.75</ele><time>2026-04-18T16:09:00Z</time></trkpt><trkpt lat="42.5275461522904" lon="12.053602248931305"><ele>453.0</ele><time>2026-04-18T16:09:01Z</time></trkpt><trkpt lat="42.52766081743345" lon="12.05362536399198"><ele>453.0</ele><time>2026-04-18T16:09:02Z</time></trkpt><trkpt lat="42.52777119303536" lon="12.053651272669166"><ele>452.99999999999994</ele><time>2026-04-18T16:09:03Z</time></trkpt><trkpt lat="42.527880974484404" lon="12.053685798994309"><ele>452.99999999999994</ele><time>2026-04-18T16:09:04.001Z</time></trkpt><trkpt lat="42.527988323943156" lon="12.053722554784057"><ele>453.0</ele><time>2026-04-18T16:09:05.001Z</time></trkpt><trkpt lat="42.52809754572025" lon="12.053757260880378"><ele>453.0</ele><time>2026-04-18T16:09:06.001Z</time></trkpt><trkpt lat="42.52819883345994" lon="12.053791374325247"><ele>453.75</ele><time>2026-04-18T16:09:07.001Z</time></trkpt><trkpt lat="42.52830913683551" lon="12.053855650637317"><ele>454.5</ele><time>2026-04-18T16:09:08.001Z</time></trkpt><trkpt lat="42.5284132340691" lon="12.053879279184367"><ele>455.25</ele><time>2026-04-18T16:09:09.001Z</time></trkpt><trkpt lat="42.52853652051638" lon="12.053893119677344"><ele>456.0</ele><time>2026-04-18T16:09:10.001Z</time></trkpt><trkpt lat="42.528683302737946" lon="12.053889084995376"><ele>457.5</ele><time>2026-04-18T16:09:11Z</time></trkpt><trkpt lat="42.52883165194146" lon="12.053858204842717"><ele>459.0</ele><time>2026-04-18T16:09:12Z</time></trkpt><trkpt lat="42.528956331668596" lon="12.05381302124622"><ele>460.5</ele><time>2026-04-18T16:09:13Z</time></trkpt><trkpt lat="42.52906842686356" lon="12.05377961573259"><ele>462.0</ele><time>2026-04-18T16:09:14Z</time></trkpt><trkpt lat="42.52917265119975" lon="12.053751384702464"><ele>462.0</ele><time>2026-04-18T16:09:15Z</time></trkpt><trkpt lat="42.529272117411516" lon="12.053733751169853"><ele>462.00000000000006</ele><time>2026-04-18T16:09:16Z</time></trkpt><trkpt lat="42.52936842601672" lon="12.053706998195217"><ele>462.00000000000006</ele><time>2026-04-18T16:09:17Z</time></trkpt><trkpt lat="42.52947678227927" lon="12.053677886644467"><ele>462.0</ele><time>2026-04-18T16:09:18Z</time></trkpt><trkpt lat="42.52960229910682" lon="12.053654523603592"><ele>462.0</ele><time>2026-04-18T16:09:19Z</time></trkpt><trkpt lat="42.5297240024536" lon="12.053621825098038"><ele>463.0</ele><time>2026-04-18T16:09:20Z</time></trkpt><trkpt lat="42.52984257341139" lon="12.053594548113892"><ele>464.0</ele><time>2026-04-18T16:09:21Z</time></trkpt><trkpt lat="42.52996285980624" lon="12.053568380735642"><ele>465.0</ele><time>2026-04-18T16:09:22Z</time></trkpt><trkpt lat="42.53008414124001" lon="12.053543226400926"><ele>466.0</ele><time>2026-04-18T16:09:23Z</time></trkpt><trkpt lat="42.53020622366506" lon="12.053515925726273"><ele>466.0</ele><time>2026-04-18T16:09:24Z</time></trkpt><trkpt lat="42.530327075441434" lon="12.053484605996895"><ele>466.0</ele><time>2026-04-18T16:09:25Z</time></trkpt><trkpt lat="42.53044470001794" lon="12.053438653414092"><ele>466.0</ele><time>2026-04-18T16:09:26Z</time></trkpt><trkpt lat="42.53055406992914" lon="12.053378899568012"><ele>466.0</ele><time>2026-04-18T16:09:27Z</time></trkpt><trkpt lat="42.53065400700945" lon="12.05329460102286"><ele>467.0</ele><time>2026-04-18T16:09:28Z</time></trkpt><trkpt lat="42.53074190916414" lon="12.053184538521533"><ele>468.0</ele><time>2026-04-18T16:09:29Z</time></trkpt><trkpt lat="42.53080172827927" lon="12.053033169069861"><ele>469.0</ele><time>2026-04-18T16:09:30Z</time></trkpt><trkpt lat="42.53083586215514" lon="12.052864848153792"><ele>470.0</ele><time>2026-04-18T16:09:31Z</time></trkpt><trkpt lat="42.53086279509572" lon="12.052711448323631"><ele>470.0</ele><time>2026-04-18T16:09:32Z</time></trkpt><trkpt lat="42.53088934013431" lon="12.05255066934272"><ele>470.0</ele><time>2026-04-18T16:09:33Z</time></trkpt><trkpt lat="42.530918975933616" lon="12.052391816577934"><ele>470.0</ele><time>2026-04-18T16:09:34Z</time></trkpt><trkpt lat="42.53094989913709" lon="12.052227339901663"><ele>470.0</ele><time>2026-04-18T16:09:35Z</time></trkpt><trkpt lat="42.53098143810478" lon="12.052059159570849"><ele>470.5</ele><time>2026-04-18T16:09:36Z</time></trkpt><trkpt lat="42.53101284427684" lon="12.051890932589144"><ele>471.0</ele><time>2026-04-18T16:09:37Z</time></trkpt><trkpt lat="42.53104468522649" lon="12.051721194489787"><ele>471.5</ele><time>2026-04-18T16:09:38Z</time></trkpt><trkpt lat="42.53107425869048" lon="12.051560215153375"><ele>472.0</ele><time>2026-04-18T16:09:39Z</time></trkpt><trkpt lat="42.53110309517592" lon="12.051403205779625"><ele>473.5</ele><time>2026-04-18T16:09:40Z</time></trkpt><trkpt lat="42.531132943813624" lon="12.051243058793338"><ele>475.0</ele><time>2026-04-18T16:09:41Z</time></trkpt><trkpt lat="42.53116231864543" lon="12.051087912886327"><ele>476.5</ele><time>2026-04-18T16:09:42Z</time></trkpt><trkpt lat="42.53118571271656" lon="12.050939305093387"><ele>478.0</ele><time>2026-04-18T16:09:43Z</time></trkpt><trkpt lat="42.5312188748657" lon="12.050777391255766"><ele>478.25</ele><time>2026-04-18T16:09:44Z</time></trkpt><trkpt lat="42.53125321795576" lon="12.050620638996273"><ele>478.5</ele><time>2026-04-18T16:09:45Z</time></trkpt><trkpt lat="42.53128411197813" lon="12.050473367553916"><ele>478.75</ele><time>2026-04-18T16:09:46Z</time></trkpt><trkpt lat="42.53131428298481" lon="12.050322037199258"><ele>479.0</ele><time>2026-04-18T16:09:47Z</time></trkpt><trkpt lat="42.53135071188413" lon="12.050163324456639"><ele>479.0</ele><time>2026-04-18T16:09:48Z</time></trkpt><trkpt lat="42.53138517828279" lon="12.049992691496298"><ele>479.0</ele><time>2026-04-18T16:09:49Z</time></trkpt><trkpt lat="42.531422617115666" lon="12.049819699814321"><ele>479.0</ele><time>2026-04-18T16:09:50Z</time></trkpt><trkpt lat="42.53145952253362" lon="12.04963880963171"><ele>479.0</ele><time>2026-04-18T16:09:51Z</time></trkpt><trkpt lat="42.53149250662526" lon="12.04945739854361"><ele>480.25</ele><time>2026-04-18T16:09:52Z</time></trkpt><trkpt lat="42.531522655864926" lon="12.049284299198414"><ele>481.5</ele><time>2026-04-18T16:09:53Z</time></trkpt><trkpt lat="42.53155635107524" lon="12.049112201306569"><ele>482.75</ele><time>2026-04-18T16:09:54Z</time></trkpt><trkpt lat="42.53159279781459" lon="12.048931129956975"><ele>484.0</ele><time>2026-04-18T16:09:55Z</time></trkpt><trkpt lat="42.531629150555744" lon="12.048751533410059"><ele>484.75</ele><time>2026-04-18T16:09:56Z</time></trkpt><trkpt lat="42.53166742048624" lon="12.048572678815583"><ele>485.5</ele><time>2026-04-18T16:09:57Z</time></trkpt><trkpt lat="42.53170156715295" lon="12.04840668869349"><ele>486.25</ele><time>2026-04-18T16:09:58Z</time></trkpt><trkpt lat="42.53173616618508" lon="12.048245090776659"><ele>487.0</ele><time>2026-04-18T16:09:59Z</time></trkpt><trkpt lat="42.53177660869364" lon="12.048072081513817"><ele>487.0</ele><time>2026-04-18T16:10:00Z</time></trkpt><trkpt lat="42.53181990026024" lon="12.047897023696224"><ele>487.0</ele><time>2026-04-18T16:10:01Z</time></trkpt><trkpt lat="42.531877061670485" lon="12.04772318186266"><ele>487.0</ele><time>2026-04-18T16:10:02Z</time></trkpt><trkpt lat="42.53194029184221" lon="12.047550357800969"><ele>487.0</ele><time>2026-04-18T16:10:03Z</time></trkpt><trkpt lat="42.532003283013346" lon="12.047375752139443"><ele>488.6666666666667</ele><time>2026-04-18T16:10:04Z</time></trkpt><trkpt lat="42.53206373112482" lon="12.047190703895685"><ele>490.33333333333337</ele><time>2026-04-18T16:10:05Z</time></trkpt><trkpt lat="42.53211938777791" lon="12.047000701773303"><ele>492.0</ele><time>2026-04-18T16:10:06Z</time></trkpt><trkpt lat="42.532166613474985" lon="12.046799571773253"><ele>493.25</ele><time>2026-04-18T16:10:07Z</time></trkpt><trkpt lat="42.532209923292356" lon="12.046597555628303"><ele>494.5</ele><time>2026-04-18T16:10:08Z</time></trkpt><trkpt lat="42.53224695998876" lon="12.046405633003358"><ele>495.75</ele><time>2026-04-18T16:10:09Z</time></trkpt><trkpt lat="42.53228284166628" lon="12.046215262596032"><ele>497.0</ele><time>2026-04-18T16:10:10Z</time></trkpt><trkpt lat="42.532316745790645" lon="12.046050825965008"><ele>497.0</ele><time>2026-04-18T16:10:11Z</time></trkpt><trkpt lat="42.53234916129702" lon="12.04588133431679"><ele>497.0</ele><time>2026-04-18T16:10:12Z</time></trkpt><trkpt lat="42.53238349768725" lon="12.045707132092165"><ele>497.0</ele><time>2026-04-18T16:10:13Z</time></trkpt><trkpt lat="42.53241639510892" lon="12.04552980503748"><ele>497.0</ele><time>2026-04-18T16:10:14Z</time></trkpt><trkpt lat="42.53245147055555" lon="12.045353722148647"><ele>498.0</ele><time>2026-04-18T16:10:15Z</time></trkpt><trkpt lat="42.53248972522126" lon="12.045172313520048"><ele>499.0</ele><time>2026-04-18T16:10:16Z</time></trkpt><trkpt lat="42.53252992427864" lon="12.044988214847184"><ele>500.0</ele><time>2026-04-18T16:10:17Z</time></trkpt><trkpt lat="42.53257420444097" lon="12.04480131978088"><ele>501.0</ele><time>2026-04-18T16:10:18Z</time></trkpt><trkpt lat="42.532629509847844" lon="12.044620012626854"><ele>501.33333333333337</ele><time>2026-04-18T16:10:19Z</time></trkpt><trkpt lat="42.53269805360272" lon="12.044439421290052"><ele>501.6666666666667</ele><time>2026-04-18T16:10:20Z</time></trkpt><trkpt lat="42.532787833632405" lon="12.044275839194286"><ele>502.0</ele><time>2026-04-18T16:10:21Z</time></trkpt><trkpt lat="42.532898261277836" lon="12.04410519167945"><ele>504.25</ele><time>2026-04-18T16:10:22Z</time></trkpt><trkpt lat="42.532982531294195" lon="12.043959045277361"><ele>506.5</ele><time>2026-04-18T16:10:23Z</time></trkpt><trkpt lat="42.53307195356577" lon="12.043817139671244"><ele>508.75</ele><time>2026-04-18T16:10:24Z</time></trkpt><trkpt lat="42.53315866879645" lon="12.043653162050175"><ele>511.0</ele><time>2026-04-18T16:10:25Z</time></trkpt><trkpt lat="42.53325131133642" lon="12.043515523456296"><ele>511.0</ele><time>2026-04-18T16:10:26Z</time></trkpt><trkpt lat="42.53334367370507" lon="12.043363751857456"><ele>511.0</ele><time>2026-04-18T16:10:27Z</time></trkpt><trkpt lat="42.53343256635733" lon="12.043210490170514"><ele>511.0</ele><time>2026-04-18T16:10:28Z</time></trkpt><trkpt lat="42.533521075838664" lon="12.043058345341993"><ele>511.0</ele><time>2026-04-18T16:10:29Z</time></trkpt><trkpt lat="42.5336040825647" lon="12.042911887473021"><ele>510.5</ele><time>2026-04-18T16:10:30Z</time></trkpt><trkpt lat="42.533683738922626" lon="12.042765534934478"><ele>510.0</ele><time>2026-04-18T16:10:31Z</time></trkpt><trkpt lat="42.533759007959596" lon="12.042619720072054"><ele>509.5</ele><time>2026-04-18T16:10:32Z</time></trkpt><trkpt lat="42.533833497606125" lon="12.042473657169575"><ele>509.0</ele><time>2026-04-18T16:10:33Z</time></trkpt><trkpt lat="42.53391191060989" lon="12.042321150699086"><ele>511.5</ele><time>2026-04-18T16:10:34Z</time></trkpt><trkpt lat="42.53399247550192" lon="12.042169844183233"><ele>514.0</ele><time>2026-04-18T16:10:35Z</time></trkpt><trkpt lat="42.534065888409636" lon="12.042019751967024"><ele>516.5</ele><time>2026-04-18T16:10:36Z</time></trkpt><trkpt lat="42.534135477860296" lon="12.041864610262998"><ele>519.0</ele><time>2026-04-18T16:10:37Z</time></trkpt><trkpt lat="42.53421119763135" lon="12.041701476423391"><ele>520.25</ele><time>2026-04-18T16:10:38Z</time></trkpt><trkpt lat="42.534288231357614" lon="12.041541725518094"><ele>521.5</ele><time>2026-04-18T16:10:39Z</time></trkpt><trkpt lat="42.534371177630625" lon="12.041382820689904"><ele>522.75</ele><time>2026-04-18T16:10:40Z</time></trkpt><trkpt lat="42.53445598673772" lon="12.041221170281936"><ele>524.0</ele><time>2026-04-18T16:10:41Z</time></trkpt><trkpt lat="42.53454377816405" lon="12.041067456201844"><ele>523.75</ele><time>2026-04-18T16:10:42Z</time></trkpt><trkpt lat="42.53463477622107" lon="12.040917076770201"><ele>523.5</ele><time>2026-04-18T16:10:43Z</time></trkpt><trkpt lat="42.53472738086542" lon="12.040768758093499"><ele>523.25</ele><time>2026-04-18T16:10:44Z</time></trkpt><trkpt lat="42.534819443580325" lon="12.040621203760644"><ele>523.0</ele><time>2026-04-18T16:10:45Z</time></trkpt><trkpt lat="42.53491003720418" lon="12.040481741068632"><ele>524.75</ele><time>2026-04-18T16:10:46Z</time></trkpt><trkpt lat="42.53500129334895" lon="12.040347648654725"><ele>526.5</ele><time>2026-04-18T16:10:47Z</time></trkpt><trkpt lat="42.53510072005736" lon="12.040208005168719"><ele>528.25</ele><time>2026-04-18T16:10:48Z</time></trkpt><trkpt lat="42.535207452885615" lon="12.040059391731164"><ele>530.0</ele><time>2026-04-18T16:10:49Z</time></trkpt><trkpt lat="42.5353255665267" lon="12.039900085711382"><ele>532.0</ele><time>2026-04-18T16:10:50Z</time></trkpt><trkpt lat="42.53544860139379" lon="12.039746178480266"><ele>534.0</ele><time>2026-04-18T16:10:51Z</time></trkpt><trkpt lat="42.53556677883256" lon="12.039602364969785"><ele>536.0</ele><time>2026-04-18T16:10:52Z</time></trkpt><trkpt lat="42.53568129250036" lon="12.039463602499046"><ele>536.0</ele><time>2026-04-18T16:10:53Z</time></trkpt><trkpt lat="42.53579613342983" lon="12.039324057562503"><ele>536.0</ele><time>2026-04-18T16:10:54Z</time></trkpt><trkpt lat="42.535907801843024" lon="12.039187935165678"><ele>536.0</ele><time>2026-04-18T16:10:55Z</time></trkpt><trkpt lat="42.53601266948893" lon="12.039062935155656"><ele>536.0</ele><time>2026-04-18T16:10:56Z</time></trkpt><trkpt lat="42.53611187751585" lon="12.038941133370585"><ele>537.0</ele><time>2026-04-18T16:10:57Z</time></trkpt><trkpt lat="42.53621083390169" lon="12.038818758664132"><ele>538.0</ele><time>2026-04-18T16:10:58Z</time></trkpt><trkpt lat="42.53630562301036" lon="12.038702796115057"><ele>539.0</ele><time>2026-04-18T16:10:59Z</time></trkpt><trkpt lat="42.5363950177339" lon="12.038596209182371"><ele>540.0</ele><time>2026-04-18T16:11:00Z</time></trkpt><trkpt lat="42.53648130356884" lon="12.038495311778581"><ele>540.0</ele><time>2026-04-18T16:11:01Z</time></trkpt><trkpt lat="42.53656170591916" lon="12.038394636542783"><ele>540.0</ele><time>2026-04-18T16:11:02Z</time></trkpt><trkpt lat="42.53663241581757" lon="12.03829716086101"><ele>540.0</ele><time>2026-04-18T16:11:03Z</time></trkpt><trkpt lat="42.536700349592344" lon="12.038200591560516"><ele>540.0</ele><time>2026-04-18T16:11:04Z</time></trkpt><trkpt lat="42.53676430469275" lon="12.038107855411731"><ele>540.0</ele><time>2026-04-18T16:11:05Z</time></trkpt><trkpt lat="42.53682762036614" lon="12.038022033309904"><ele>539.8333333333334</ele><time>2026-04-18T16:11:06Z</time></trkpt><trkpt lat="42.53688633951494" lon="12.037940402486756"><ele>539.6666666666666</ele><time>2026-04-18T16:11:07Z</time></trkpt><trkpt lat="42.53693378442971" lon="12.037870408752198"><ele>539.5</ele><time>2026-04-18T16:11:08Z</time></trkpt><trkpt lat="42.537010927520434" lon="12.037761479658569"><ele>539.3333333333333</ele><time>2026-04-18T16:11:10Z</time></trkpt><trkpt lat="42.53707487603057" lon="12.03767784696976"><ele>539.1666666666666</ele><time>2026-04-18T16:11:12Z</time></trkpt><trkpt lat="42.53713010049186" lon="12.037601896987843"><ele>539.0</ele><time>2026-04-18T16:11:14Z</time></trkpt><trkpt lat="42.53720560077995" lon="12.037498930596968"><ele>540.0</ele><time>2026-04-18T16:11:16Z</time></trkpt><trkpt lat="42.53729997485479" lon="12.03736472407901"><ele>541.0</ele><time>2026-04-18T16:11:18Z</time></trkpt><trkpt lat="42.53734991327761" lon="12.037293054103163"><ele>542.0</ele><time>2026-04-18T16:11:19Z</time></trkpt><trkpt lat="42.53740552253935" lon="12.037215058761033"><ele>543.0</ele><time>2026-04-18T16:11:20Z</time></trkpt><trkpt lat="42.537463134661664" lon="12.037137367247233"><ele>544.0</ele><time>2026-04-18T16:11:21Z</time></trkpt><trkpt lat="42.5375175005023" lon="12.03705389686411"><ele>544.0</ele><time>2026-04-18T16:11:22Z</time></trkpt><trkpt lat="42.537579344137086" lon="12.036968875664929"><ele>544.0</ele><time>2026-04-18T16:11:23Z</time></trkpt><trkpt lat="42.537641442324855" lon="12.036882561123974"><ele>544.0</ele><time>2026-04-18T16:11:24Z</time></trkpt><trkpt lat="42.537705790119524" lon="12.036795396362054"><ele>544.0</ele><time>2026-04-18T16:11:25Z</time></trkpt><trkpt lat="42.537769033880295" lon="12.036707044755305"><ele>544.0</ele><time>2026-04-18T16:11:26Z</time></trkpt><trkpt lat="42.537836623861836" lon="12.036615570524228"><ele>544.5</ele><time>2026-04-18T16:11:27Z</time></trkpt><trkpt lat="42.53789994856369" lon="12.036529046049433"><ele>545.0</ele><time>2026-04-18T16:11:28Z</time></trkpt><trkpt lat="42.53796209102628" lon="12.036445750476469"><ele>545.5</ele><time>2026-04-18T16:11:29Z</time></trkpt><trkpt lat="42.53802330453207" lon="12.036363888891403"><ele>546.0</ele><time>2026-04-18T16:11:30Z</time></trkpt><trkpt lat="42.53808356732487" lon="12.036283845576108"><ele>546.5</ele><time>2026-04-18T16:11:31Z</time></trkpt><trkpt lat="42.5381455615482" lon="12.036203706069836"><ele>547.0</ele><time>2026-04-18T16:11:32Z</time></trkpt><trkpt lat="42.538206661202" lon="12.036123895428698"><ele>547.0</ele><time>2026-04-18T16:11:33Z</time></trkpt><trkpt lat="42.53826740528595" lon="12.036042416593792"><ele>547.0</ele><time>2026-04-18T16:11:34Z</time></trkpt><trkpt lat="42.53832582245217" lon="12.035960655069596"><ele>547.0</ele><time>2026-04-18T16:11:35Z</time></trkpt><trkpt lat="42.538385172544636" lon="12.035877955413508"><ele>547.0</ele><time>2026-04-18T16:11:36Z</time></trkpt><trkpt lat="42.538447525908126" lon="12.035788906619887"><ele>547.0</ele><time>2026-04-18T16:11:37Z</time></trkpt><trkpt lat="42.538513254433774" lon="12.035695373448668"><ele>547.0</ele><time>2026-04-18T16:11:38Z</time></trkpt><trkpt lat="42.53857990054172" lon="12.035603792365826"><ele>547.8000000000001</ele><time>2026-04-18T16:11:39Z</time></trkpt><trkpt lat="42.53865146102108" lon="12.035524417036724"><ele>548.6</ele><time>2026-04-18T16:11:40Z</time></trkpt><trkpt lat="42.538731402965425" lon="12.03546056569513"><ele>549.4000000000001</ele><time>2026-04-18T16:11:41Z</time></trkpt><trkpt lat="42.53882379743222" lon="12.035427465805917"><ele>550.2</ele><time>2026-04-18T16:11:42Z</time></trkpt><trkpt lat="42.53892545466701" lon="12.035423419633661"><ele>551.0</ele><time>2026-04-18T16:11:43Z</time></trkpt><trkpt lat="42.53904082719649" lon="12.035462296435771"><ele>552.75</ele><time>2026-04-18T16:11:44Z</time></trkpt><trkpt lat="42.539168672787746" lon="12.035528404250904"><ele>554.5</ele><time>2026-04-18T16:11:45Z</time></trkpt><trkpt lat="42.53930896023928" lon="12.035570508012535"><ele>556.25</ele><time>2026-04-18T16:11:46Z</time></trkpt><trkpt lat="42.53943392428395" lon="12.03561092990808"><ele>558.0</ele><time>2026-04-18T16:11:47Z</time></trkpt><trkpt lat="42.53955487933065" lon="12.035660411680723"><ele>558.75</ele><time>2026-04-18T16:11:48Z</time></trkpt><trkpt lat="42.53968009607642" lon="12.03570246354753"><ele>559.5</ele><time>2026-04-18T16:11:49Z</time></trkpt><trkpt lat="42.539809142548954" lon="12.035732695226063"><ele>560.25</ele><time>2026-04-18T16:11:50Z</time></trkpt><trkpt lat="42.53993951924872" lon="12.03575601792377"><ele>561.0</ele><time>2026-04-18T16:11:51Z</time></trkpt><trkpt lat="42.54006850634568" lon="12.035778902989087"><ele>561.0</ele><time>2026-04-18T16:11:52Z</time></trkpt><trkpt lat="42.54018468765045" lon="12.035796800769523"><ele>561.0</ele><time>2026-04-18T16:11:53Z</time></trkpt><trkpt lat="42.540302956146526" lon="12.035815981131346"><ele>561.0</ele><time>2026-04-18T16:11:54Z</time></trkpt><trkpt lat="42.54041501780137" lon="12.035838582858862"><ele>561.0</ele><time>2026-04-18T16:11:55Z</time></trkpt><trkpt lat="42.5405357824045" lon="12.035856501893305"><ele>559.25</ele><time>2026-04-18T16:11:56Z</time></trkpt><trkpt lat="42.540656270102225" lon="12.035871770670456"><ele>557.5</ele><time>2026-04-18T16:11:57Z</time></trkpt><trkpt lat="42.54078011253822" lon="12.035892139882847"><ele>555.75</ele><time>2026-04-18T16:11:58Z</time></trkpt><trkpt lat="42.54089977578535" lon="12.035911531686361"><ele>554.0</ele><time>2026-04-18T16:11:59Z</time></trkpt><trkpt lat="42.54102054668752" lon="12.03593426172456"><ele>554.0</ele><time>2026-04-18T16:12:00Z</time></trkpt><trkpt lat="42.54114172413489" lon="12.035947879801896"><ele>554.0</ele><time>2026-04-18T16:12:01Z</time></trkpt><trkpt lat="42.54125760803018" lon="12.035974734252116"><ele>554.0</ele><time>2026-04-18T16:12:02Z</time></trkpt><trkpt lat="42.5413651638269" lon="12.036003450205738"><ele>554.0</ele><time>2026-04-18T16:12:03Z</time></trkpt><trkpt lat="42.54146832551895" lon="12.036033868541942"><ele>552.0</ele><time>2026-04-18T16:12:04Z</time></trkpt><trkpt lat="42.54156121365462" lon="12.03606868510545"><ele>550.0</ele><time>2026-04-18T16:12:05Z</time></trkpt><trkpt lat="42.541640047354775" lon="12.036107042625142"><ele>548.0</ele><time>2026-04-18T16:12:06Z</time></trkpt><trkpt lat="42.54171305777654" lon="12.036151007038127"><ele>546.0</ele><time>2026-04-18T16:12:08Z</time></trkpt><trkpt lat="42.54178235735726" lon="12.036171030562537"><ele>544.0</ele><time>2026-04-18T16:12:11Z</time></trkpt><trkpt lat="42.54186257503414" lon="12.036206594217223"><ele>542.0</ele><time>2026-04-18T16:12:13Z</time></trkpt><trkpt lat="42.5419590983365" lon="12.036244056736152"><ele>541.0</ele><time>2026-04-18T16:12:15Z</time></trkpt><trkpt lat="42.54207562562172" lon="12.036312641845605"><ele>540.0</ele><time>2026-04-18T16:12:17Z</time></trkpt><trkpt lat="42.54214084642585" lon="12.036348975570887"><ele>539.0</ele><time>2026-04-18T16:12:18Z</time></trkpt><trkpt lat="42.54220931507309" lon="12.036414582079818"><ele>538.0</ele><time>2026-04-18T16:12:19Z</time></trkpt><trkpt lat="42.54229638677726" lon="12.0364679951143"><ele>537.0</ele><time>2026-04-18T16:12:20Z</time></trkpt><trkpt lat="42.54237601175361" lon="12.036496968288526"><ele>537.0</ele><time>2026-04-18T16:12:21Z</time></trkpt><trkpt lat="42.54245636638517" lon="12.03654652391843"><ele>537.0</ele><time>2026-04-18T16:12:22Z</time></trkpt><trkpt lat="42.54253479032325" lon="12.036600402471548"><ele>537.0</ele><time>2026-04-18T16:12:23Z</time></trkpt><trkpt lat="42.54261020601115" lon="12.036665086488183"><ele>537.0</ele><time>2026-04-18T16:12:24Z</time></trkpt><trkpt lat="42.542681235337746" lon="12.036739353739922"><ele>537.0</ele><time>2026-04-18T16:12:25Z</time></trkpt><trkpt lat="42.5427475089427" lon="12.036823004570346"><ele>537.0</ele><time>2026-04-18T16:12:26Z</time></trkpt><trkpt lat="42.54280634280527" lon="12.03691439184997"><ele>537.0</ele><time>2026-04-18T16:12:27Z</time></trkpt><trkpt lat="42.542858933271425" lon="12.037029142192385"><ele>537.0</ele><time>2026-04-18T16:12:28Z</time></trkpt><trkpt lat="42.542910521756646" lon="12.037167066612012"><ele>537.0</ele><time>2026-04-18T16:12:29Z</time></trkpt><trkpt lat="42.54295771586002" lon="12.037307961642737"><ele>537.0</ele><time>2026-04-18T16:12:30Z</time></trkpt><trkpt lat="42.54301125220728" lon="12.037450672906793"><ele>537.0</ele><time>2026-04-18T16:12:31Z</time></trkpt><trkpt lat="42.54306563756741" lon="12.03759370902272"><ele>536.25</ele><time>2026-04-18T16:12:32Z</time></trkpt><trkpt lat="42.543135764746694" lon="12.037731601382648"><ele>535.5</ele><time>2026-04-18T16:12:33Z</time></trkpt><trkpt lat="42.54322537498286" lon="12.037839354926971"><ele>534.75</ele><time>2026-04-18T16:12:34Z</time></trkpt><trkpt lat="42.543324738409254" lon="12.037919050475258"><ele>534.0</ele><time>2026-04-18T16:12:35Z</time></trkpt><trkpt lat="42.54342066804234" lon="12.037977841340549"><ele>534.0</ele><time>2026-04-18T16:12:36Z</time></trkpt><trkpt lat="42.54351328717167" lon="12.03800422394416"><ele>534.0</ele><time>2026-04-18T16:12:37Z</time></trkpt><trkpt lat="42.54359592714903" lon="12.038022886312264"><ele>534.0</ele><time>2026-04-18T16:12:38Z</time></trkpt><trkpt lat="42.54367532443363" lon="12.03803866881578"><ele>534.0</ele><time>2026-04-18T16:12:39Z</time></trkpt><trkpt lat="42.543739517715224" lon="12.038050699498545"><ele>534.0</ele><time>2026-04-18T16:12:40Z</time></trkpt><trkpt lat="42.54384227607987" lon="12.038108450722653"><ele>534.0</ele><time>2026-04-18T16:12:42Z</time></trkpt><trkpt lat="42.543925264085935" lon="12.038133997106609"><ele>533.75</ele><time>2026-04-18T16:12:44Z</time></trkpt><trkpt lat="42.543994700681964" lon="12.038159118556703"><ele>533.5</ele><time>2026-04-18T16:12:46Z</time></trkpt><trkpt lat="42.54411180064247" lon="12.038027254654171"><ele>533.25</ele><time>2026-04-18T16:12:48Z</time></trkpt><trkpt lat="42.54417305892827" lon="12.03786689474509"><ele>533.0</ele><time>2026-04-18T16:12:50Z</time></trkpt><trkpt lat="42.54421787154344" lon="12.037731664646568"><ele>533.0</ele><time>2026-04-18T16:12:51Z</time></trkpt><trkpt lat="42.544259470217554" lon="12.03762797722868"><ele>533.0</ele><time>2026-04-18T16:12:52Z</time></trkpt><trkpt lat="42.54429497080888" lon="12.037530738476018"><ele>533.0</ele><time>2026-04-18T16:12:53Z</time></trkpt><trkpt lat="42.54432683421142" lon="12.037444390529004"><ele>533.0</ele><time>2026-04-18T16:12:54Z</time></trkpt><trkpt lat="42.54436307158459" lon="12.037337056604025"><ele>533.0</ele><time>2026-04-18T16:12:55Z</time></trkpt><trkpt lat="42.544404124811074" lon="12.037219306271348"><ele>533.0</ele><time>2026-04-18T16:12:56Z</time></trkpt><trkpt lat="42.544447136878375" lon="12.037099571621749"><ele>533.4</ele><time>2026-04-18T16:12:57Z</time></trkpt><trkpt lat="42.54449141086974" lon="12.036986351763504"><ele>533.8</ele><time>2026-04-18T16:12:58Z</time></trkpt><trkpt lat="42.54452996495465" lon="12.036866708835525"><ele>534.2</ele><time>2026-04-18T16:12:59Z</time></trkpt><trkpt lat="42.54456760677019" lon="12.036743659749753"><ele>534.6</ele><time>2026-04-18T16:13:00Z</time></trkpt><trkpt lat="42.54460363667002" lon="12.036621167468702"><ele>535.0</ele><time>2026-04-18T16:13:01Z</time></trkpt><trkpt lat="42.54463446077485" lon="12.03649664777973"><ele>537.25</ele><time>2026-04-18T16:13:02Z</time></trkpt><trkpt lat="42.54466226047973" lon="12.036366318907907"><ele>539.5</ele><time>2026-04-18T16:13:03Z</time></trkpt><trkpt lat="42.54468738629896" lon="12.036230729978183"><ele>541.75</ele><time>2026-04-18T16:13:04Z</time></trkpt><trkpt lat="42.54470041932674" lon="12.036061778456673"><ele>544.0</ele><time>2026-04-18T16:13:05Z</time></trkpt><trkpt lat="42.54471316100913" lon="12.035892189218904"><ele>544.5</ele><time>2026-04-18T16:13:06Z</time></trkpt><trkpt lat="42.544723956672804" lon="12.03575811263458"><ele>545.0</ele><time>2026-04-18T16:13:07Z</time></trkpt><trkpt lat="42.544728260405016" lon="12.03562166796174"><ele>545.5</ele><time>2026-04-18T16:13:08Z</time></trkpt><trkpt lat="42.544735369502654" lon="12.035503274941243"><ele>546.0</ele><time>2026-04-18T16:13:09Z</time></trkpt><trkpt lat="42.54474681398292" lon="12.03540335289748"><ele>546.5</ele><time>2026-04-18T16:13:10Z</time></trkpt><trkpt lat="42.54476337313999" lon="12.035317426947307"><ele>547.0</ele><time>2026-04-18T16:13:11Z</time></trkpt><trkpt lat="42.54480146433214" lon="12.035244911430167"><ele>547.0</ele><time>2026-04-18T16:13:12Z</time></trkpt><trkpt lat="42.54486497343218" lon="12.035167428520868"><ele>547.0</ele><time>2026-04-18T16:13:13Z</time></trkpt><trkpt lat="42.54495682646626" lon="12.035113341392218"><ele>547.0</ele><time>2026-04-18T16:13:14Z</time></trkpt><trkpt lat="42.54504676217516" lon="12.035083752708644"><ele>547.0</ele><time>2026-04-18T16:13:15Z</time></trkpt><trkpt lat="42.54512956295538" lon="12.035050845334446"><ele>547.0</ele><time>2026-04-18T16:13:16Z</time></trkpt><trkpt lat="42.54520725019114" lon="12.035019502957196"><ele>547.0</ele><time>2026-04-18T16:13:17Z</time></trkpt><trkpt lat="42.545285147286535" lon="12.034995664122265"><ele>548.5</ele><time>2026-04-18T16:13:18Z</time></trkpt><trkpt lat="42.54535762619186" lon="12.03497039293094"><ele>550.0</ele><time>2026-04-18T16:13:19Z</time></trkpt><trkpt lat="42.545423155943475" lon="12.034938889539186"><ele>551.5</ele><time>2026-04-18T16:13:20Z</time></trkpt><trkpt lat="42.545494823891666" lon="12.03491450035018"><ele>553.0</ele><time>2026-04-18T16:13:21Z</time></trkpt><trkpt lat="42.54556731295982" lon="12.034885632283588"><ele>554.5</ele><time>2026-04-18T16:13:22Z</time></trkpt><trkpt lat="42.545646839576456" lon="12.03484602051788"><ele>556.0</ele><time>2026-04-18T16:13:23Z</time></trkpt><trkpt lat="42.54572439738206" lon="12.03481495177633"><ele>556.3333333333334</ele><time>2026-04-18T16:13:24Z</time></trkpt><trkpt lat="42.54580334116019" lon="12.034785861227235"><ele>556.6666666666667</ele><time>2026-04-18T16:13:25Z</time></trkpt><trkpt lat="42.545877127014634" lon="12.034751091343388"><ele>557.0</ele><time>2026-04-18T16:13:26Z</time></trkpt><trkpt lat="42.54594129260107" lon="12.034719087327442"><ele>557.3333333333334</ele><time>2026-04-18T16:13:27Z</time></trkpt><trkpt lat="42.5460114218158" lon="12.034687829785453"><ele>557.6666666666666</ele><time>2026-04-18T16:13:28Z</time></trkpt><trkpt lat="42.54608445013033" lon="12.034654619966513"><ele>558.0</ele><time>2026-04-18T16:13:29Z</time></trkpt><trkpt lat="42.54616414627844" lon="12.034617399769925"><ele>557.1999999999999</ele><time>2026-04-18T16:13:30Z</time></trkpt><trkpt lat="42.546246338625174" lon="12.034578489173148"><ele>556.4</ele><time>2026-04-18T16:13:31Z</time></trkpt><trkpt lat="42.546334899013004" lon="12.034533255911262"><ele>555.5999999999999</ele><time>2026-04-18T16:13:32Z</time></trkpt><trkpt lat="42.54642955616481" lon="12.034489150130867"><ele>554.8</ele><time>2026-04-18T16:13:33Z</time></trkpt><trkpt lat="42.54653342510274" lon="12.0344456035615"><ele>554.0</ele><time>2026-04-18T16:13:34Z</time></trkpt><trkpt lat="42.546641115300204" lon="12.03438915046698"><ele>554.0</ele><time>2026-04-18T16:13:35Z</time></trkpt><trkpt lat="42.546750061307364" lon="12.034319319797131"><ele>554.0</ele><time>2026-04-18T16:13:36Z</time></trkpt><trkpt lat="42.546860451234686" lon="12.034248011208598"><ele>554.0</ele><time>2026-04-18T16:13:37Z</time></trkpt><trkpt lat="42.546976033557314" lon="12.03416993765564"><ele>554.0</ele><time>2026-04-18T16:13:38Z</time></trkpt><trkpt lat="42.547086980863945" lon="12.03408157587558"><ele>554.75</ele><time>2026-04-18T16:13:39Z</time></trkpt><trkpt lat="42.54720379526971" lon="12.034001052786094"><ele>555.5</ele><time>2026-04-18T16:13:40Z</time></trkpt><trkpt lat="42.54733228397531" lon="12.03391665997062"><ele>556.25</ele><time>2026-04-18T16:13:41Z</time></trkpt><trkpt lat="42.54745725441145" lon="12.033804999993071"><ele>557.0</ele><time>2026-04-18T16:13:42Z</time></trkpt><trkpt lat="42.54757536132283" lon="12.033711459388106"><ele>557.0</ele><time>2026-04-18T16:13:43Z</time></trkpt><trkpt lat="42.54768470918648" lon="12.033620763960263"><ele>557.0</ele><time>2026-04-18T16:13:44Z</time></trkpt><trkpt lat="42.54779005859141" lon="12.033539184917343"><ele>557.0</ele><time>2026-04-18T16:13:45Z</time></trkpt><trkpt lat="42.54787304723589" lon="12.033462729790243"><ele>557.0</ele><time>2026-04-18T16:13:46Z</time></trkpt><trkpt lat="42.547947954460575" lon="12.033405438871181"><ele>557.0</ele><time>2026-04-18T16:13:47Z</time></trkpt><trkpt lat="42.548011110125465" lon="12.033334112868411"><ele>556.8571428571429</ele><time>2026-04-18T16:13:48Z</time></trkpt><trkpt lat="42.54806727300414" lon="12.033259107916058"><ele>556.7142857142857</ele><time>2026-04-18T16:13:49Z</time></trkpt><trkpt lat="42.54812534653804" lon="12.033190486061194"><ele>556.5714285714286</ele><time>2026-04-18T16:13:50Z</time></trkpt><trkpt lat="42.54817296177364" lon="12.033113357239394"><ele>556.4285714285714</ele><time>2026-04-18T16:13:51Z</time></trkpt><trkpt lat="42.54821701660463" lon="12.033043616295448"><ele>556.2857142857143</ele><time>2026-04-18T16:13:52Z</time></trkpt><trkpt lat="42.548257717059805" lon="12.032977477940161"><ele>556.1428571428571</ele><time>2026-04-18T16:13:53Z</time></trkpt><trkpt lat="42.548300253305484" lon="12.032909494127267"><ele>556.0</ele><time>2026-04-18T16:13:54Z</time></trkpt><trkpt lat="42.54834380346094" lon="12.032831011884465"><ele>556.0</ele><time>2026-04-18T16:13:55Z</time></trkpt><trkpt lat="42.54838831065292" lon="12.032752091209181"><ele>556.0</ele><time>2026-04-18T16:13:56Z</time></trkpt><trkpt lat="42.5484352084921" lon="12.032672097493204"><ele>556.0</ele><time>2026-04-18T16:13:57Z</time></trkpt><trkpt lat="42.54848344301557" lon="12.032589617862467"><ele>556.0</ele><time>2026-04-18T16:13:58Z</time></trkpt><trkpt lat="42.54853289222313" lon="12.03250422914442"><ele>556.0</ele><time>2026-04-18T16:13:59Z</time></trkpt><trkpt lat="42.54857157302361" lon="12.032395254277747"><ele>556.0</ele><time>2026-04-18T16:14:00Z</time></trkpt><trkpt lat="42.54861378321649" lon="12.032308970388629"><ele>555.6</ele><time>2026-04-18T16:14:01Z</time></trkpt><trkpt lat="42.548668116575875" lon="12.032218899355186"><ele>555.2</ele><time>2026-04-18T16:14:02Z</time></trkpt><trkpt lat="42.54871735106535" lon="12.0321196058715"><ele>554.8</ele><time>2026-04-18T16:14:03Z</time></trkpt><trkpt lat="42.54876162796925" lon="12.032004821434247"><ele>554.4</ele><time>2026-04-18T16:14:04Z</time></trkpt><trkpt lat="42.54880643342246" lon="12.031876593811122"><ele>554.0</ele><time>2026-04-18T16:14:05Z</time></trkpt><trkpt lat="42.54885805314301" lon="12.031743968027024"><ele>550.6</ele><time>2026-04-18T16:14:06Z</time></trkpt><trkpt lat="42.548903666906575" lon="12.031610582107088"><ele>547.2</ele><time>2026-04-18T16:14:07Z</time></trkpt><trkpt lat="42.5489473057213" lon="12.031473512092056"><ele>543.8000000000001</ele><time>2026-04-18T16:14:08Z</time></trkpt><trkpt lat="42.54898962198101" lon="12.031340025908365"><ele>540.4</ele><time>2026-04-18T16:14:09Z</time></trkpt><trkpt lat="42.548996229774474" lon="12.031184072980563"><ele>537.0</ele><time>2026-04-18T16:14:10Z</time></trkpt><trkpt lat="42.54903176313288" lon="12.031007765812351"><ele>537.0</ele><time>2026-04-18T16:14:11Z</time></trkpt><trkpt lat="42.54901622120524" lon="12.030813377212056"><ele>537.0</ele><time>2026-04-18T16:14:12Z</time></trkpt><trkpt lat="42.54900084020485" lon="12.030679066300047"><ele>537.0</ele><time>2026-04-18T16:14:13Z</time></trkpt><trkpt lat="42.54899303938563" lon="12.030565691719588"><ele>537.0</ele><time>2026-04-18T16:14:14Z</time></trkpt><trkpt lat="42.54898838210715" lon="12.030450217006978"><ele>537.0</ele><time>2026-04-18T16:14:15Z</time></trkpt><trkpt lat="42.548975725511745" lon="12.030332015015098"><ele>536.3333333333334</ele><time>2026-04-18T16:14:16Z</time></trkpt><trkpt lat="42.548953297894585" lon="12.030224504349208"><ele>535.6666666666666</ele><time>2026-04-18T16:14:17Z</time></trkpt><trkpt lat="42.548936100125" lon="12.030115528740604"><ele>535.0</ele><time>2026-04-18T16:14:18Z</time></trkpt><trkpt lat="42.54895637976742" lon="12.030014994623757"><ele>534.3333333333333</ele><time>2026-04-18T16:14:19Z</time></trkpt><trkpt lat="42.54895777974987" lon="12.029929434793816"><ele>533.6666666666666</ele><time>2026-04-18T16:14:20Z</time></trkpt><trkpt lat="42.548975147265374" lon="12.02983241288241"><ele>533.0</ele><time>2026-04-18T16:14:21Z</time></trkpt><trkpt lat="42.54898883234602" lon="12.029722512493999"><ele>532.5</ele><time>2026-04-18T16:14:22Z</time></trkpt><trkpt lat="42.549116747760095" lon="12.029672034057498"><ele>532.0</ele><time>2026-04-18T16:14:23Z</time></trkpt><trkpt lat="42.5492119667565" lon="12.029595517236396"><ele>531.5</ele><time>2026-04-18T16:14:24Z</time></trkpt><trkpt lat="42.54930794174267" lon="12.029489692667626"><ele>531.0</ele><time>2026-04-18T16:14:25Z</time></trkpt><trkpt lat="42.549411257864676" lon="12.029376889398131"><ele>531.0</ele><time>2026-04-18T16:14:26Z</time></trkpt><trkpt lat="42.54952134971503" lon="12.029271043538214"><ele>531.0</ele><time>2026-04-18T16:14:27Z</time></trkpt><trkpt lat="42.54963612370318" lon="12.029174089977511"><ele>531.0</ele><time>2026-04-18T16:14:28Z</time></trkpt><trkpt lat="42.54976195701589" lon="12.029080072938143"><ele>531.0</ele><time>2026-04-18T16:14:29Z</time></trkpt><trkpt lat="42.5498852054106" lon="12.028985050923808"><ele>531.0</ele><time>2026-04-18T16:14:30Z</time></trkpt><trkpt lat="42.55001066982469" lon="12.028885875654622"><ele>531.0</ele><time>2026-04-18T16:14:31Z</time></trkpt><trkpt lat="42.55013506141094" lon="12.028793251125927"><ele>531.0</ele><time>2026-04-18T16:14:32Z</time></trkpt><trkpt lat="42.550257165452265" lon="12.028711479876327"><ele>531.0</ele><time>2026-04-18T16:14:33Z</time></trkpt><trkpt lat="42.55037138095452" lon="12.02863220462671"><ele>531.0</ele><time>2026-04-18T16:14:34Z</time></trkpt><trkpt lat="42.550487204919925" lon="12.028565507189052"><ele>531.0</ele><time>2026-04-18T16:14:35Z</time></trkpt><trkpt lat="42.5505997838603" lon="12.028512682124681"><ele>531.0</ele><time>2026-04-18T16:14:36Z</time></trkpt><trkpt lat="42.55070763747249" lon="12.028472086067467"><ele>531.0</ele><time>2026-04-18T16:14:37Z</time></trkpt><trkpt lat="42.55081219314133" lon="12.028439101242432"><ele>531.0</ele><time>2026-04-18T16:14:38Z</time></trkpt><trkpt lat="42.55091802866221" lon="12.028410454388466"><ele>531.0</ele><time>2026-04-18T16:14:39Z</time></trkpt><trkpt lat="42.55102587514586" lon="12.028383890558656"><ele>531.0</ele><time>2026-04-18T16:14:40Z</time></trkpt><trkpt lat="42.55112939959031" lon="12.028361607165799"><ele>531.0</ele><time>2026-04-18T16:14:41Z</time></trkpt><trkpt lat="42.55123475890379" lon="12.02834211497018"><ele>531.0</ele><time>2026-04-18T16:14:42Z</time></trkpt><trkpt lat="42.551355523795216" lon="12.028325858177956"><ele>532.0</ele><time>2026-04-18T16:14:43Z</time></trkpt><trkpt lat="42.551485267426706" lon="12.028298603389011"><ele>533.0</ele><time>2026-04-18T16:14:44Z</time></trkpt><trkpt lat="42.551621572949635" lon="12.028267704645954"><ele>534.0</ele><time>2026-04-18T16:14:45Z</time></trkpt><trkpt lat="42.551757524013155" lon="12.028242993516109"><ele>535.0</ele><time>2026-04-18T16:14:46Z</time></trkpt><trkpt lat="42.55189207719905" lon="12.028191080570064"><ele>535.0</ele><time>2026-04-18T16:14:47Z</time></trkpt><trkpt lat="42.55202626805416" lon="12.028107171313692"><ele>535.0</ele><time>2026-04-18T16:14:48Z</time></trkpt><trkpt lat="42.552158301148275" lon="12.028007785694172"><ele>535.0</ele><time>2026-04-18T16:14:49Z</time></trkpt><trkpt lat="42.55229463970957" lon="12.02794108343871"><ele>535.0</ele><time>2026-04-18T16:14:50Z</time></trkpt><trkpt lat="42.55242682926113" lon="12.027847737067896"><ele>535.25</ele><time>2026-04-18T16:14:51Z</time></trkpt><trkpt lat="42.552572199544734" lon="12.027779263422719"><ele>535.5</ele><time>2026-04-18T16:14:52Z</time></trkpt><trkpt lat="42.55271339962833" lon="12.027737548197118"><ele>535.75</ele><time>2026-04-18T16:14:53Z</time></trkpt><trkpt lat="42.5528611921059" lon="12.027754784373602"><ele>536.0</ele><time>2026-04-18T16:14:54Z</time></trkpt><trkpt lat="42.553003468525105" lon="12.027788865978634"><ele>537.0</ele><time>2026-04-18T16:14:55Z</time></trkpt><trkpt lat="42.553128019171886" lon="12.027854254257399"><ele>538.0</ele><time>2026-04-18T16:14:56Z</time></trkpt><trkpt lat="42.55325707984158" lon="12.027920896000085"><ele>539.0</ele><time>2026-04-18T16:14:57Z</time></trkpt><trkpt lat="42.55336194949811" lon="12.028002602939562"><ele>540.0</ele><time>2026-04-18T16:14:58Z</time></trkpt><trkpt lat="42.55344751929376" lon="12.028095627702259"><ele>540.0</ele><time>2026-04-18T16:14:59Z</time></trkpt><trkpt lat="42.553525308954235" lon="12.028200117450192"><ele>540.0</ele><time>2026-04-18T16:15:00Z</time></trkpt><trkpt lat="42.55359908400119" lon="12.028322633552083"><ele>540.0</ele><time>2026-04-18T16:15:01Z</time></trkpt><trkpt lat="42.55366784069692" lon="12.028450440051374"><ele>540.0</ele><time>2026-04-18T16:15:02Z</time></trkpt><trkpt lat="42.55373178837527" lon="12.028573337468803"><ele>538.0</ele><time>2026-04-18T16:15:03Z</time></trkpt><trkpt lat="42.55379887925032" lon="12.028702195986625"><ele>536.0</ele><time>2026-04-18T16:15:04Z</time></trkpt><trkpt lat="42.55387864894602" lon="12.028818012923596"><ele>534.0</ele><time>2026-04-18T16:15:05Z</time></trkpt><trkpt lat="42.553934551676406" lon="12.02895602614813"><ele>532.0</ele><time>2026-04-18T16:15:06Z</time></trkpt><trkpt lat="42.55402520533968" lon="12.029077076865384"><ele>531.0</ele><time>2026-04-18T16:15:07Z</time></trkpt><trkpt lat="42.55411600088196" lon="12.029205114229326"><ele>530.0</ele><time>2026-04-18T16:15:08Z</time></trkpt><trkpt lat="42.55421151681648" lon="12.029344702772676"><ele>529.0</ele><time>2026-04-18T16:15:09Z</time></trkpt><trkpt lat="42.554328445068265" lon="12.029432361058063"><ele>528.0</ele><time>2026-04-18T16:15:10Z</time></trkpt><trkpt lat="42.554436160201135" lon="12.029524815931826"><ele>527.5</ele><time>2026-04-18T16:15:11Z</time></trkpt><trkpt lat="42.55455060786098" lon="12.029591960465362"><ele>527.0</ele><time>2026-04-18T16:15:12Z</time></trkpt><trkpt lat="42.55467989289856" lon="12.02961618606328"><ele>526.5</ele><time>2026-04-18T16:15:13Z</time></trkpt><trkpt lat="42.55481093907375" lon="12.029628505961737"><ele>526.0</ele><time>2026-04-18T16:15:14Z</time></trkpt><trkpt lat="42.55494846156144" lon="12.029595886589687"><ele>526.0</ele><time>2026-04-18T16:15:15Z</time></trkpt><trkpt lat="42.55508391908906" lon="12.029540855893202"><ele>526.0</ele><time>2026-04-18T16:15:16Z</time></trkpt><trkpt lat="42.555218496868804" lon="12.029482354799063"><ele>526.0</ele><time>2026-04-18T16:15:17Z</time></trkpt><trkpt lat="42.55535467150542" lon="12.029425151960712"><ele>526.0</ele><time>2026-04-18T16:15:18Z</time></trkpt><trkpt lat="42.55549677135789" lon="12.029393759406165"><ele>525.3333333333334</ele><time>2026-04-18T16:15:19Z</time></trkpt><trkpt lat="42.555636600386435" lon="12.029315997614688"><ele>524.6666666666666</ele><time>2026-04-18T16:15:20Z</time></trkpt><trkpt lat="42.555786200639915" lon="12.029264530829893"><ele>524.0</ele><time>2026-04-18T16:15:21Z</time></trkpt><trkpt lat="42.55593737822593" lon="12.029210099869786"><ele>524.0</ele><time>2026-04-18T16:15:22Z</time></trkpt><trkpt lat="42.556093156624115" lon="12.029144890900527"><ele>524.0</ele><time>2026-04-18T16:15:23Z</time></trkpt><trkpt lat="42.55624475604339" lon="12.029091160053625"><ele>524.0</ele><time>2026-04-18T16:15:24Z</time></trkpt><trkpt lat="42.55639038164571" lon="12.029034057950359"><ele>523.75</ele><time>2026-04-18T16:15:25Z</time></trkpt><trkpt lat="42.556528821207216" lon="12.028985126417648"><ele>523.5</ele><time>2026-04-18T16:15:26Z</time></trkpt><trkpt lat="42.556660093323394" lon="12.028949487312588"><ele>523.25</ele><time>2026-04-18T16:15:27Z</time></trkpt><trkpt lat="42.55678321358033" lon="12.02888828319696"><ele>523.0</ele><time>2026-04-18T16:15:28Z</time></trkpt><trkpt lat="42.55691225281966" lon="12.028846830251796"><ele>521.75</ele><time>2026-04-18T16:15:29Z</time></trkpt><trkpt lat="42.55704989844093" lon="12.028797468121846"><ele>520.5</ele><time>2026-04-18T16:15:30Z</time></trkpt><trkpt lat="42.55718418980993" lon="12.028746307096318"><ele>519.25</ele><time>2026-04-18T16:15:31Z</time></trkpt><trkpt lat="42.557321015473484" lon="12.028695995739655"><ele>518.0</ele><time>2026-04-18T16:15:32Z</time></trkpt><trkpt lat="42.55746268678544" lon="12.028645509653298"><ele>518.0</ele><time>2026-04-18T16:15:33Z</time></trkpt><trkpt lat="42.55761151321625" lon="12.028589932329231"><ele>518.0</ele><time>2026-04-18T16:15:34Z</time></trkpt><trkpt lat="42.55776048266687" lon="12.028539081303737"><ele>518.0</ele><time>2026-04-18T16:15:35Z</time></trkpt><trkpt lat="42.55790371586744" lon="12.028493585120128"><ele>516.5</ele><time>2026-04-18T16:15:36Z</time></trkpt><trkpt lat="42.558038697074885" lon="12.028445453987635"><ele>515.0</ele><time>2026-04-18T16:15:37Z</time></trkpt><trkpt lat="42.55817067879216" lon="12.028400385057699"><ele>513.5</ele><time>2026-04-18T16:15:38Z</time></trkpt><trkpt lat="42.55830386748225" lon="12.028355884866784"><ele>512.0</ele><time>2026-04-18T16:15:39Z</time></trkpt><trkpt lat="42.558442079498825" lon="12.02830776674985"><ele>512.0</ele><time>2026-04-18T16:15:40Z</time></trkpt><trkpt lat="42.55858828726374" lon="12.028253900765767"><ele>512.0</ele><time>2026-04-18T16:15:41Z</time></trkpt><trkpt lat="42.55874066680697" lon="12.028197679965151"><ele>512.0</ele><time>2026-04-18T16:15:42Z</time></trkpt><trkpt lat="42.55888789753438" lon="12.028149440476748"><ele>512.0</ele><time>2026-04-18T16:15:43Z</time></trkpt><trkpt lat="42.55903022279155" lon="12.02810135885959"><ele>512.0</ele><time>2026-04-18T16:15:44Z</time></trkpt><trkpt lat="42.55916216835112" lon="12.028051957398736"><ele>512.0</ele><time>2026-04-18T16:15:45Z</time></trkpt><trkpt lat="42.55929634392233" lon="12.02800308630812"><ele>512.0</ele><time>2026-04-18T16:15:46Z</time></trkpt><trkpt lat="42.55943443536166" lon="12.027957916952609"><ele>513.0</ele><time>2026-04-18T16:15:47Z</time></trkpt><trkpt lat="42.55957292085753" lon="12.027916706694118"><ele>514.0</ele><time>2026-04-18T16:15:48Z</time></trkpt><trkpt lat="42.55970865328965" lon="12.027870317151143"><ele>515.0</ele><time>2026-04-18T16:15:49Z</time></trkpt><trkpt lat="42.55985138610331" lon="12.027823546976558"><ele>516.0</ele><time>2026-04-18T16:15:50Z</time></trkpt><trkpt lat="42.5600035858923" lon="12.027796743309446"><ele>516.0</ele><time>2026-04-18T16:15:51Z</time></trkpt><trkpt lat="42.56017181960314" lon="12.027782128629935"><ele>516.0</ele><time>2026-04-18T16:15:52Z</time></trkpt><trkpt lat="42.560346550095396" lon="12.027783660453807"><ele>516.0</ele><time>2026-04-18T16:15:53Z</time></trkpt><trkpt lat="42.56052087663507" lon="12.02779021691954"><ele>514.6666666666666</ele><time>2026-04-18T16:15:54Z</time></trkpt><trkpt lat="42.5606822682" lon="12.027792933329119"><ele>513.3333333333333</ele><time>2026-04-18T16:15:55Z</time></trkpt><trkpt lat="42.56083535910975" lon="12.027792580840574"><ele>512.0</ele><time>2026-04-18T16:15:56Z</time></trkpt><trkpt lat="42.56098191137242" lon="12.027795517949274"><ele>512.0</ele><time>2026-04-18T16:15:57Z</time></trkpt><trkpt lat="42.56112706123036" lon="12.027798037240702"><ele>512.0</ele><time>2026-04-18T16:15:58Z</time></trkpt><trkpt lat="42.561274234328565" lon="12.02779973397414"><ele>512.0</ele><time>2026-04-18T16:15:59Z</time></trkpt><trkpt lat="42.56142829319343" lon="12.027800662449174"><ele>512.0</ele><time>2026-04-18T16:16:00Z</time></trkpt><trkpt lat="42.561594303502474" lon="12.027802488659551"><ele>511.3333333333333</ele><time>2026-04-18T16:16:01Z</time></trkpt><trkpt lat="42.56176482472083" lon="12.027803725836678"><ele>510.66666666666663</ele><time>2026-04-18T16:16:02Z</time></trkpt><trkpt lat="42.561943717305326" lon="12.027811831698099"><ele>510.0</ele><time>2026-04-18T16:16:03Z</time></trkpt><trkpt lat="42.56212461937831" lon="12.027812467216783"><ele>510.0</ele><time>2026-04-18T16:16:04Z</time></trkpt><trkpt lat="42.56230432155976" lon="12.027807964238065"><ele>510.0</ele><time>2026-04-18T16:16:05Z</time></trkpt><trkpt lat="42.56248516813834" lon="12.027799385054335"><ele>510.0</ele><time>2026-04-18T16:16:06Z</time></trkpt><trkpt lat="42.56265617017538" lon="12.02778109950528"><ele>510.0</ele><time>2026-04-18T16:16:07Z</time></trkpt><trkpt lat="42.56283054393165" lon="12.027750078372318"><ele>510.0</ele><time>2026-04-18T16:16:08Z</time></trkpt><trkpt lat="42.56300849240941" lon="12.02771051269046"><ele>510.0</ele><time>2026-04-18T16:16:09Z</time></trkpt><trkpt lat="42.56318095489619" lon="12.02766786984659"><ele>507.33333333333337</ele><time>2026-04-18T16:16:10Z</time></trkpt><trkpt lat="42.56334663882459" lon="12.027613024602015"><ele>504.6666666666667</ele><time>2026-04-18T16:16:11Z</time></trkpt><trkpt lat="42.5635044862589" lon="12.027547956713807"><ele>502.0</ele><time>2026-04-18T16:16:12Z</time></trkpt><trkpt lat="42.563652579812384" lon="12.027465145496542"><ele>500.33333333333337</ele><time>2026-04-18T16:16:13Z</time></trkpt><trkpt lat="42.56378527555676" lon="12.02735618262568"><ele>498.66666666666663</ele><time>2026-04-18T16:16:14Z</time></trkpt><trkpt lat="42.56391836259004" lon="12.027212092680791"><ele>497.0</ele><time>2026-04-18T16:16:15Z</time></trkpt><trkpt lat="42.56403818899931" lon="12.02705824171588"><ele>497.0</ele><time>2026-04-18T16:16:16Z</time></trkpt><trkpt lat="42.564155320018685" lon="12.026893653835083"><ele>497.0</ele><time>2026-04-18T16:16:17Z</time></trkpt><trkpt lat="42.564270600899995" lon="12.026733969407404"><ele>497.0</ele><time>2026-04-18T16:16:18Z</time></trkpt><trkpt lat="42.56438208912621" lon="12.026578959731017"><ele>493.3333333333333</ele><time>2026-04-18T16:16:19Z</time></trkpt><trkpt lat="42.56450188260418" lon="12.026430406596054"><ele>489.66666666666663</ele><time>2026-04-18T16:16:20Z</time></trkpt><trkpt lat="42.56464584483337" lon="12.026308468698696"><ele>486.0</ele><time>2026-04-18T16:16:21Z</time></trkpt><trkpt lat="42.56480805350656" lon="12.026257385523603"><ele>486.0</ele><time>2026-04-18T16:16:22Z</time></trkpt><trkpt lat="42.56498700894538" lon="12.026206578891744"><ele>486.0</ele><time>2026-04-18T16:16:23Z</time></trkpt><trkpt lat="42.565164029049654" lon="12.026160294384727"><ele>486.0</ele><time>2026-04-18T16:16:24Z</time></trkpt><trkpt lat="42.56533763368084" lon="12.026115979621128"><ele>485.66666666666663</ele><time>2026-04-18T16:16:25Z</time></trkpt><trkpt lat="42.56550455739104" lon="12.026069853302731"><ele>485.3333333333333</ele><time>2026-04-18T16:16:26Z</time></trkpt><trkpt lat="42.56567040909035" lon="12.026012626299591"><ele>485.0</ele><time>2026-04-18T16:16:27Z</time></trkpt><trkpt lat="42.56583087868271" lon="12.025958410454367"><ele>485.0</ele><time>2026-04-18T16:16:28Z</time></trkpt><trkpt lat="42.565996230522764" lon="12.025888322667347"><ele>485.0</ele><time>2026-04-18T16:16:29Z</time></trkpt><trkpt lat="42.566169398443556" lon="12.025812111562473"><ele>485.0</ele><time>2026-04-18T16:16:30Z</time></trkpt><trkpt lat="42.5663513897562" lon="12.025736596692402"><ele>482.3333333333333</ele><time>2026-04-18T16:16:31Z</time></trkpt><trkpt lat="42.566531364065895" lon="12.02565862727178"><ele>479.66666666666663</ele><time>2026-04-18T16:16:32Z</time></trkpt><trkpt lat="42.566702835070764" lon="12.025581940115918"><ele>477.0</ele><time>2026-04-18T16:16:33Z</time></trkpt><trkpt lat="42.566870795426375" lon="12.025508943079236"><ele>477.66666666666663</ele><time>2026-04-18T16:16:34Z</time></trkpt><trkpt lat="42.56703460566536" lon="12.025434713998026"><ele>478.3333333333333</ele><time>2026-04-18T16:16:35Z</time></trkpt><trkpt lat="42.567193000173795" lon="12.025361491337032"><ele>479.0</ele><time>2026-04-18T16:16:36Z</time></trkpt><trkpt lat="42.567353321900455" lon="12.025270920613186"><ele>479.0</ele><time>2026-04-18T16:16:37Z</time></trkpt><trkpt lat="42.567501172943004" lon="12.025150101818513"><ele>479.0</ele><time>2026-04-18T16:16:38Z</time></trkpt><trkpt lat="42.56764402078101" lon="12.025004095530972"><ele>479.0</ele><time>2026-04-18T16:16:39Z</time></trkpt><trkpt lat="42.567793774913056" lon="12.024850482051319"><ele>477.66666666666663</ele><time>2026-04-18T16:16:40Z</time></trkpt><trkpt lat="42.56794664240152" lon="12.024699248185042"><ele>476.33333333333337</ele><time>2026-04-18T16:16:41Z</time></trkpt><trkpt lat="42.568093425592565" lon="12.024555464828358"><ele>475.0</ele><time>2026-04-18T16:16:42Z</time></trkpt><trkpt lat="42.568238203027" lon="12.024412930203479"><ele>475.0</ele><time>2026-04-18T16:16:43Z</time></trkpt><trkpt lat="42.568389375075405" lon="12.024266339207612"><ele>475.0</ele><time>2026-04-18T16:16:44Z</time></trkpt><trkpt lat="42.568542148141916" lon="12.024116211971517"><ele>475.0</ele><time>2026-04-18T16:16:45Z</time></trkpt><trkpt lat="42.56869064782768" lon="12.02396913555676"><ele>474.6666666666667</ele><time>2026-04-18T16:16:46Z</time></trkpt><trkpt lat="42.56883335866648" lon="12.023831674451175"><ele>474.33333333333337</ele><time>2026-04-18T16:16:47Z</time></trkpt><trkpt lat="42.56897221650348" lon="12.023696283249159"><ele>474.0</ele><time>2026-04-18T16:16:48Z</time></trkpt><trkpt lat="42.5691139759369" lon="12.023562167798088"><ele>474.0</ele><time>2026-04-18T16:16:49Z</time></trkpt><trkpt lat="42.56925940130511" lon="12.023424388483338"><ele>474.0</ele><time>2026-04-18T16:16:50Z</time></trkpt><trkpt lat="42.56940770264101" lon="12.023286739462675"><ele>474.0</ele><time>2026-04-18T16:16:51Z</time></trkpt><trkpt lat="42.56955785018638" lon="12.023154992931019"><ele>472.66666666666663</ele><time>2026-04-18T16:16:52Z</time></trkpt><trkpt lat="42.569704667274976" lon="12.023034655338554"><ele>471.3333333333333</ele><time>2026-04-18T16:16:53Z</time></trkpt><trkpt lat="42.56985494829746" lon="12.022917423051053"><ele>470.0</ele><time>2026-04-18T16:16:54Z</time></trkpt><trkpt lat="42.57000254991532" lon="12.022815925062654"><ele>470.0</ele><time>2026-04-18T16:16:55Z</time></trkpt><trkpt lat="42.57015647236532" lon="12.022719892135168"><ele>470.0</ele><time>2026-04-18T16:16:56Z</time></trkpt><trkpt lat="42.57031179396106" lon="12.022635406364891"><ele>470.0</ele><time>2026-04-18T16:16:57Z</time></trkpt><trkpt lat="42.570463693927906" lon="12.022558176705964"><ele>469.3333333333333</ele><time>2026-04-18T16:16:58Z</time></trkpt><trkpt lat="42.57061633263675" lon="12.022490428613175"><ele>468.66666666666663</ele><time>2026-04-18T16:16:59Z</time></trkpt><trkpt lat="42.570771112544925" lon="12.022430843656846"><ele>468.0</ele><time>2026-04-18T16:17:00Z</time></trkpt><trkpt lat="42.57092268451044" lon="12.022372813631932"><ele>468.0</ele><time>2026-04-18T16:17:01Z</time></trkpt><trkpt lat="42.57107879600478" lon="12.022323274697072"><ele>468.0</ele><time>2026-04-18T16:17:02Z</time></trkpt><trkpt lat="42.57122952590194" lon="12.022276861611877"><ele>468.0</ele><time>2026-04-18T16:17:03Z</time></trkpt><trkpt lat="42.57138715079513" lon="12.022239327933681"><ele>467.66666666666663</ele><time>2026-04-18T16:17:04Z</time></trkpt><trkpt lat="42.57155865178879" lon="12.02220779172393"><ele>467.3333333333333</ele><time>2026-04-18T16:17:05Z</time></trkpt><trkpt lat="42.57173363379375" lon="12.022179039426018"><ele>467.0</ele><time>2026-04-18T16:17:06Z</time></trkpt><trkpt lat="42.57192124032935" lon="12.02215527076715"><ele>467.3333333333333</ele><time>2026-04-18T16:17:07Z</time></trkpt><trkpt lat="42.572101837663936" lon="12.022126276847025"><ele>467.66666666666663</ele><time>2026-04-18T16:17:08Z</time></trkpt><trkpt lat="42.57232202441607" lon="12.022091945459954"><ele>468.0</ele><time>2026-04-18T16:17:09Z</time></trkpt><trkpt lat="42.57253852872793" lon="12.022063850028891"><ele>468.0</ele><time>2026-04-18T16:17:10Z</time></trkpt><trkpt lat="42.5727347474839" lon="12.022034869837135"><ele>468.0</ele><time>2026-04-18T16:17:11Z</time></trkpt><trkpt lat="42.57291646953083" lon="12.022007018578718"><ele>468.0</ele><time>2026-04-18T16:17:12Z</time></trkpt><trkpt lat="42.57309164067595" lon="12.021981655476539"><ele>468.33333333333337</ele><time>2026-04-18T16:17:13Z</time></trkpt><trkpt lat="42.57326184235564" lon="12.021958951005082"><ele>468.6666666666667</ele><time>2026-04-18T16:17:14Z</time></trkpt><trkpt lat="42.573428534169615" lon="12.021931813838227"><ele>469.0</ele><time>2026-04-18T16:17:15Z</time></trkpt><trkpt lat="42.57360961192035" lon="12.021901127310802"><ele>469.0</ele><time>2026-04-18T16:17:16Z</time></trkpt><trkpt lat="42.57379736222402" lon="12.02187132669233"><ele>469.0</ele><time>2026-04-18T16:17:17Z</time></trkpt><trkpt lat="42.57399260913251" lon="12.021847767240256"><ele>469.0</ele><time>2026-04-18T16:17:18Z</time></trkpt><trkpt lat="42.57419783038424" lon="12.021824319561334"><ele>469.0</ele><time>2026-04-18T16:17:19Z</time></trkpt><trkpt lat="42.5743939712084" lon="12.021794368220023"><ele>469.0</ele><time>2026-04-18T16:17:20Z</time></trkpt><trkpt lat="42.57457530754404" lon="12.021764724194908"><ele>469.0</ele><time>2026-04-18T16:17:21Z</time></trkpt><trkpt lat="42.57475431733613" lon="12.021736994122872"><ele>470.0</ele><time>2026-04-18T16:17:22Z</time></trkpt><trkpt lat="42.574938177702265" lon="12.02171325276087"><ele>471.0</ele><time>2026-04-18T16:17:23Z</time></trkpt><trkpt lat="42.57512457121581" lon="12.021684232693602"><ele>472.0</ele><time>2026-04-18T16:17:24Z</time></trkpt><trkpt lat="42.57532402707637" lon="12.021655748426996"><ele>470.0</ele><time>2026-04-18T16:17:25Z</time></trkpt><trkpt lat="42.57552594647943" lon="12.021626243941576"><ele>468.0</ele><time>2026-04-18T16:17:26Z</time></trkpt><trkpt lat="42.57574147587385" lon="12.021591556836565"><ele>466.0</ele><time>2026-04-18T16:17:27Z</time></trkpt><trkpt lat="42.57596568759654" lon="12.021557817683876"><ele>466.0</ele><time>2026-04-18T16:17:28Z</time></trkpt><trkpt lat="42.57616861227592" lon="12.021528479408794"><ele>466.0</ele><time>2026-04-18T16:17:29Z</time></trkpt><trkpt lat="42.57637146354917" lon="12.021496230939356"><ele>466.0</ele><time>2026-04-18T16:17:30Z</time></trkpt><trkpt lat="42.57657785195556" lon="12.021470745474543"><ele>466.33333333333337</ele><time>2026-04-18T16:17:31Z</time></trkpt><trkpt lat="42.57677675728872" lon="12.02144581515512"><ele>466.66666666666663</ele><time>2026-04-18T16:17:32Z</time></trkpt><trkpt lat="42.576982419858766" lon="12.021415898788181"><ele>467.0</ele><time>2026-04-18T16:17:33Z</time></trkpt><trkpt lat="42.57717991745549" lon="12.021385533574284"><ele>467.0</ele><time>2026-04-18T16:17:34Z</time></trkpt><trkpt lat="42.577371705279766" lon="12.021352497528984"><ele>467.0</ele><time>2026-04-18T16:17:35Z</time></trkpt><trkpt lat="42.577573919588716" lon="12.021323530319748"><ele>467.0</ele><time>2026-04-18T16:17:36Z</time></trkpt><trkpt lat="42.57777686382048" lon="12.02129512990215"><ele>467.0</ele><time>2026-04-18T16:17:37Z</time></trkpt><trkpt lat="42.57796871560282" lon="12.02126542714607"><ele>467.0</ele><time>2026-04-18T16:17:38Z</time></trkpt><trkpt lat="42.57815345953214" lon="12.021237131309613"><ele>467.0</ele><time>2026-04-18T16:17:39Z</time></trkpt><trkpt lat="42.57833721703785" lon="12.021213389780678"><ele>467.0</ele><time>2026-04-18T16:17:40Z</time></trkpt><trkpt lat="42.57853448142825" lon="12.021190734607131"><ele>467.0</ele><time>2026-04-18T16:17:41Z</time></trkpt><trkpt lat="42.57872595216166" lon="12.02116567602245"><ele>467.0</ele><time>2026-04-18T16:17:42Z</time></trkpt><trkpt lat="42.57890830716132" lon="12.021151505669733"><ele>467.3333333333333</ele><time>2026-04-18T16:17:43Z</time></trkpt><trkpt lat="42.57908833978057" lon="12.021135287802174"><ele>467.66666666666663</ele><time>2026-04-18T16:17:44Z</time></trkpt><trkpt lat="42.57927532074905" lon="12.021107904330153"><ele>468.0</ele><time>2026-04-18T16:17:45Z</time></trkpt><trkpt lat="42.579467560594125" lon="12.021083994167748"><ele>468.33333333333337</ele><time>2026-04-18T16:17:46Z</time></trkpt><trkpt lat="42.57964764971302" lon="12.021064115705148"><ele>468.6666666666667</ele><time>2026-04-18T16:17:47Z</time></trkpt><trkpt lat="42.57982129928465" lon="12.021044873634121"><ele>469.0</ele><time>2026-04-18T16:17:48Z</time></trkpt><trkpt lat="42.57999835699618" lon="12.021021217243339"><ele>469.0</ele><time>2026-04-18T16:17:49Z</time></trkpt><trkpt lat="42.580185641796135" lon="12.020984785940978"><ele>469.0</ele><time>2026-04-18T16:17:50Z</time></trkpt><trkpt lat="42.58037963949958" lon="12.020929719793214"><ele>469.0</ele><time>2026-04-18T16:17:51Z</time></trkpt><trkpt lat="42.58058403898965" lon="12.020860084367463"><ele>469.0</ele><time>2026-04-18T16:17:52Z</time></trkpt><trkpt lat="42.580770431131825" lon="12.02079336798547"><ele>469.0</ele><time>2026-04-18T16:17:53Z</time></trkpt><trkpt lat="42.580941927801454" lon="12.020727831378315"><ele>469.0</ele><time>2026-04-18T16:17:54Z</time></trkpt><trkpt lat="42.581118168812765" lon="12.020658755358996"><ele>470.0</ele><time>2026-04-18T16:17:55Z</time></trkpt><trkpt lat="42.581298984852545" lon="12.020588393088323"><ele>471.0</ele><time>2026-04-18T16:17:56Z</time></trkpt><trkpt lat="42.58148894983002" lon="12.02050789764559"><ele>472.0</ele><time>2026-04-18T16:17:57Z</time></trkpt><trkpt lat="42.581671802402525" lon="12.020423682286603"><ele>472.0</ele><time>2026-04-18T16:17:58Z</time></trkpt><trkpt lat="42.58185304235155" lon="12.0203431636125"><ele>472.0</ele><time>2026-04-18T16:17:59Z</time></trkpt><trkpt lat="42.582030000354926" lon="12.020256318516495"><ele>472.0</ele><time>2026-04-18T16:18:00Z</time></trkpt><trkpt lat="42.58221182257511" lon="12.020164598527282"><ele>472.0</ele><time>2026-04-18T16:18:01Z</time></trkpt><trkpt lat="42.582399083234485" lon="12.020082800647566"><ele>472.0</ele><time>2026-04-18T16:18:02Z</time></trkpt><trkpt lat="42.582581842350145" lon="12.020004311812968"><ele>472.0</ele><time>2026-04-18T16:18:03Z</time></trkpt><trkpt lat="42.58276345137411" lon="12.019927152595823"><ele>473.6666666666667</ele><time>2026-04-18T16:18:04Z</time></trkpt><trkpt lat="42.582945275944354" lon="12.019848779280077"><ele>475.33333333333337</ele><time>2026-04-18T16:18:05Z</time></trkpt><trkpt lat="42.58312779690228" lon="12.019775077967426"><ele>477.0</ele><time>2026-04-18T16:18:06Z</time></trkpt><trkpt lat="42.583304659762746" lon="12.01970781467461"><ele>477.0</ele><time>2026-04-18T16:18:07Z</time></trkpt><trkpt lat="42.58347157412564" lon="12.019648952054583"><ele>477.0</ele><time>2026-04-18T16:18:08Z</time></trkpt><trkpt lat="42.5836336822751" lon="12.019599155061366"><ele>477.0</ele><time>2026-04-18T16:18:09Z</time></trkpt><trkpt lat="42.583800510517456" lon="12.019544212605327"><ele>478.0</ele><time>2026-04-18T16:18:10Z</time></trkpt><trkpt lat="42.58395096880189" lon="12.019495929403334"><ele>479.0</ele><time>2026-04-18T16:18:11Z</time></trkpt><trkpt lat="42.58409871974473" lon="12.01944472519056"><ele>480.0</ele><time>2026-04-18T16:18:12Z</time></trkpt><trkpt lat="42.58423980785008" lon="12.01937817383909"><ele>480.0</ele><time>2026-04-18T16:18:13Z</time></trkpt><trkpt lat="42.58437887300436" lon="12.019306298235767"><ele>480.0</ele><time>2026-04-18T16:18:14Z</time></trkpt><trkpt lat="42.58451095361736" lon="12.019215994961195"><ele>480.0</ele><time>2026-04-18T16:18:15Z</time></trkpt><trkpt lat="42.58463157066435" lon="12.019114313822568"><ele>480.0</ele><time>2026-04-18T16:18:16Z</time></trkpt><trkpt lat="42.58474479595311" lon="12.019007064912826"><ele>478.75</ele><time>2026-04-18T16:18:17Z</time></trkpt><trkpt lat="42.58485473879508" lon="12.01888765103177"><ele>477.5</ele><time>2026-04-18T16:18:18Z</time></trkpt><trkpt lat="42.58496462512196" lon="12.018748237770813"><ele>476.25</ele><time>2026-04-18T16:18:19Z</time></trkpt><trkpt lat="42.58506894622537" lon="12.018600706826088"><ele>475.0</ele><time>2026-04-18T16:18:20Z</time></trkpt><trkpt lat="42.58517331894792" lon="12.018446777145506"><ele>474.0</ele><time>2026-04-18T16:18:21Z</time></trkpt><trkpt lat="42.58527981357475" lon="12.018289758690285"><ele>473.0</ele><time>2026-04-18T16:18:22Z</time></trkpt><trkpt lat="42.585393015554594" lon="12.018127327100583"><ele>472.0</ele><time>2026-04-18T16:18:23Z</time></trkpt><trkpt lat="42.58550320788326" lon="12.017967401599176"><ele>471.0</ele><time>2026-04-18T16:18:24Z</time></trkpt><trkpt lat="42.585607789068085" lon="12.017815317353723"><ele>470.0</ele><time>2026-04-18T16:18:25Z</time></trkpt><trkpt lat="42.5856961091666" lon="12.017686506250406"><ele>469.0</ele><time>2026-04-18T16:18:26Z</time></trkpt><trkpt lat="42.58577898000848" lon="12.017569077919728"><ele>468.0</ele><time>2026-04-18T16:18:27Z</time></trkpt><trkpt lat="42.58585805011092" lon="12.017451092082242"><ele>467.4</ele><time>2026-04-18T16:18:28Z</time></trkpt><trkpt lat="42.585933289967464" lon="12.017338841263529"><ele>466.79999999999995</ele><time>2026-04-18T16:18:29Z</time></trkpt><trkpt lat="42.5859975630775" lon="12.01723430457032"><ele>466.2</ele><time>2026-04-18T16:18:30Z</time></trkpt><trkpt lat="42.586055271045566" lon="12.017123646804038"><ele>465.6</ele><time>2026-04-18T16:18:31Z</time></trkpt><trkpt lat="42.58610840604008" lon="12.016996371228426"><ele>465.0</ele><time>2026-04-18T16:18:32Z</time></trkpt><trkpt lat="42.58613972183633" lon="12.016859583570016"><ele>465.0</ele><time>2026-04-18T16:18:33Z</time></trkpt><trkpt lat="42.58617501720944" lon="12.016722893447417"><ele>465.0</ele><time>2026-04-18T16:18:34Z</time></trkpt><trkpt lat="42.58619684028908" lon="12.016572349453886"><ele>465.0</ele><time>2026-04-18T16:18:35Z</time></trkpt><trkpt lat="42.58620545922497" lon="12.016420509070718"><ele>465.0</ele><time>2026-04-18T16:18:36Z</time></trkpt><trkpt lat="42.58620689525095" lon="12.01627052775066"><ele>465.0</ele><time>2026-04-18T16:18:37Z</time></trkpt><trkpt lat="42.586200701101205" lon="12.016114189349949"><ele>465.0</ele><time>2026-04-18T16:18:38Z</time></trkpt><trkpt lat="42.58617824918461" lon="12.01594384315527"><ele>465.0</ele><time>2026-04-18T16:18:39Z</time></trkpt><trkpt lat="42.586131267849495" lon="12.015766556602287"><ele>465.0</ele><time>2026-04-18T16:18:40Z</time></trkpt><trkpt lat="42.5860703126007" lon="12.015606353568623"><ele>465.0</ele><time>2026-04-18T16:18:41Z</time></trkpt><trkpt lat="42.58599974429169" lon="12.015461028830662"><ele>463.5</ele><time>2026-04-18T16:18:42Z</time></trkpt><trkpt lat="42.585926177708586" lon="12.015335146609932"><ele>462.0</ele><time>2026-04-18T16:18:43Z</time></trkpt><trkpt lat="42.58584401054224" lon="12.015225536874546"><ele>460.5</ele><time>2026-04-18T16:18:44Z</time></trkpt><trkpt lat="42.58575596477451" lon="12.015132826174588"><ele>459.0</ele><time>2026-04-18T16:18:45Z</time></trkpt><trkpt lat="42.58564843522608" lon="12.015030050309669"><ele>459.75</ele><time>2026-04-18T16:18:46Z</time></trkpt><trkpt lat="42.585547273706545" lon="12.014921368183293"><ele>460.5</ele><time>2026-04-18T16:18:47Z</time></trkpt><trkpt lat="42.58544518862697" lon="12.014803558291085"><ele>461.25</ele><time>2026-04-18T16:18:48Z</time></trkpt><trkpt lat="42.58531643758895" lon="12.014686043237704"><ele>462.0</ele><time>2026-04-18T16:18:49Z</time></trkpt><trkpt lat="42.58520160763068" lon="12.014568022357757"><ele>461.5</ele><time>2026-04-18T16:18:50Z</time></trkpt><trkpt lat="42.58508707142227" lon="12.01444808996472"><ele>461.0</ele><time>2026-04-18T16:18:51Z</time></trkpt><trkpt lat="42.584976580692164" lon="12.014329057052574"><ele>460.5</ele><time>2026-04-18T16:18:52Z</time></trkpt><trkpt lat="42.58485894917083" lon="12.014207420979956"><ele>460.0</ele><time>2026-04-18T16:18:53Z</time></trkpt><trkpt lat="42.5847356164778" lon="12.01407961369624"><ele>460.0</ele><time>2026-04-18T16:18:54Z</time></trkpt><trkpt lat="42.58462011139422" lon="12.013951514630156"><ele>460.0</ele><time>2026-04-18T16:18:55Z</time></trkpt><trkpt lat="42.58450070217801" lon="12.013837611474223"><ele>460.0</ele><time>2026-04-18T16:18:56Z</time></trkpt><trkpt lat="42.58439278177699" lon="12.013717057021168"><ele>460.0</ele><time>2026-04-18T16:18:57Z</time></trkpt><trkpt lat="42.58428216764932" lon="12.013597638231406"><ele>457.6666666666667</ele><time>2026-04-18T16:18:58Z</time></trkpt><trkpt lat="42.58416603638746" lon="12.013477203397851"><ele>455.33333333333337</ele><time>2026-04-18T16:18:59Z</time></trkpt><trkpt lat="42.58405103378564" lon="12.01336379473034"><ele>453.0</ele><time>2026-04-18T16:19:00Z</time></trkpt><trkpt lat="42.58391734397403" lon="12.013226447997223"><ele>453.0</ele><time>2026-04-18T16:19:01Z</time></trkpt><trkpt lat="42.58376469070167" lon="12.013071176428738"><ele>453.0</ele><time>2026-04-18T16:19:02Z</time></trkpt><trkpt lat="42.58361385873957" lon="12.012926803299704"><ele>453.0</ele><time>2026-04-18T16:19:03Z</time></trkpt><trkpt lat="42.58346510115441" lon="12.012790877576826"><ele>449.66666666666663</ele><time>2026-04-18T16:19:04Z</time></trkpt><trkpt lat="42.58329493560804" lon="12.01264117475592"><ele>446.3333333333333</ele><time>2026-04-18T16:19:05Z</time></trkpt><trkpt lat="42.58311020541965" lon="12.012487028133625"><ele>443.0</ele><time>2026-04-18T16:19:06Z</time></trkpt><trkpt lat="42.5829312563367" lon="12.01234199761494"><ele>439.3333333333333</ele><time>2026-04-18T16:19:07Z</time></trkpt><trkpt lat="42.582754223529065" lon="12.012204119148665"><ele>435.66666666666663</ele><time>2026-04-18T16:19:08Z</time></trkpt><trkpt lat="42.58259012445078" lon="12.012079286476839"><ele>432.0</ele><time>2026-04-18T16:19:09Z</time></trkpt><trkpt lat="42.58243630503777" lon="12.011965070972819"><ele>432.0</ele><time>2026-04-18T16:19:10Z</time></trkpt><trkpt lat="42.582289515581685" lon="12.011855856688527"><ele>432.0</ele><time>2026-04-18T16:19:11Z</time></trkpt><trkpt lat="42.58215108992965" lon="12.011755582909183"><ele>432.0</ele><time>2026-04-18T16:19:12Z</time></trkpt><trkpt lat="42.58200996945651" lon="12.011651330807354"><ele>430.66666666666663</ele><time>2026-04-18T16:19:13Z</time></trkpt><trkpt lat="42.58186575087132" lon="12.011541917654519"><ele>429.3333333333333</ele><time>2026-04-18T16:19:14Z</time></trkpt><trkpt lat="42.58172097607631" lon="12.011438399475967"><ele>428.0</ele><time>2026-04-18T16:19:15Z</time></trkpt><trkpt lat="42.58158904900981" lon="12.011336958810759"><ele>428.0</ele><time>2026-04-18T16:19:16Z</time></trkpt><trkpt lat="42.581464842202806" lon="12.011240932821247"><ele>428.0</ele><time>2026-04-18T16:19:17Z</time></trkpt><trkpt lat="42.581348337049235" lon="12.011146938334562"><ele>428.0</ele><time>2026-04-18T16:19:18Z</time></trkpt><trkpt lat="42.581224098506375" lon="12.011064165336736"><ele>428.0</ele><time>2026-04-18T16:19:19Z</time></trkpt><trkpt lat="42.58111010119072" lon="12.01097525176348"><ele>426.0</ele><time>2026-04-18T16:19:20Z</time></trkpt><trkpt lat="42.58100225921693" lon="12.010892022750555"><ele>424.0</ele><time>2026-04-18T16:19:21Z</time></trkpt><trkpt lat="42.58090485456325" lon="12.010802774789566"><ele>422.0</ele><time>2026-04-18T16:19:22Z</time></trkpt><trkpt lat="42.58081151988857" lon="12.010686391039643"><ele>420.0</ele><time>2026-04-18T16:19:23Z</time></trkpt><trkpt lat="42.58071702013675" lon="12.010545692743797"><ele>420.0</ele><time>2026-04-18T16:19:24Z</time></trkpt><trkpt lat="42.58062654769157" lon="12.010402768495881"><ele>420.0</ele><time>2026-04-18T16:19:25Z</time></trkpt><trkpt lat="42.58054798901059" lon="12.010273006482695"><ele>420.0</ele><time>2026-04-18T16:19:26Z</time></trkpt><trkpt lat="42.58047520616399" lon="12.010157568276282"><ele>420.0</ele><time>2026-04-18T16:19:27Z</time></trkpt><trkpt lat="42.58042495187589" lon="12.010035447284785"><ele>419.1666666666667</ele><time>2026-04-18T16:19:28Z</time></trkpt><trkpt lat="42.58036748022115" lon="12.009928469338659"><ele>418.33333333333337</ele><time>2026-04-18T16:19:29Z</time></trkpt><trkpt lat="42.580321414040725" lon="12.009816436956433"><ele>417.5</ele><time>2026-04-18T16:19:30Z</time></trkpt><trkpt lat="42.580287273230624" lon="12.009708633952647"><ele>416.6666666666667</ele><time>2026-04-18T16:19:31Z</time></trkpt><trkpt lat="42.580274120222626" lon="12.009622259025637"><ele>415.83333333333337</ele><time>2026-04-18T16:19:32Z</time></trkpt><trkpt lat="42.580261947875634" lon="12.009525022173758"><ele>415.0</ele><time>2026-04-18T16:19:34Z</time></trkpt><trkpt lat="42.580263223236486" lon="12.009427339111035"><ele>414.2</ele><time>2026-04-18T16:19:38Z</time></trkpt><trkpt lat="42.58026583110998" lon="12.009341815250602"><ele>413.4</ele><time>2026-04-18T16:19:40Z</time></trkpt><trkpt lat="42.58031176608816" lon="12.009258700540144"><ele>412.6</ele><time>2026-04-18T16:19:41Z</time></trkpt><trkpt lat="42.58039101329759" lon="12.00915661526461"><ele>411.8</ele><time>2026-04-18T16:19:42Z</time></trkpt><trkpt lat="42.58047946925279" lon="12.0090298094562"><ele>411.0</ele><time>2026-04-18T16:19:43Z</time></trkpt><trkpt lat="42.58056387694068" lon="12.008907268688217"><ele>410.25</ele><time>2026-04-18T16:19:44Z</time></trkpt><trkpt lat="42.5806538285789" lon="12.008788780634728"><ele>409.5</ele><time>2026-04-18T16:19:45Z</time></trkpt><trkpt lat="42.58074920886057" lon="12.008672729587493"><ele>408.75</ele><time>2026-04-18T16:19:46Z</time></trkpt><trkpt lat="42.580839268103844" lon="12.008561505330773"><ele>408.0</ele><time>2026-04-18T16:19:47Z</time></trkpt><trkpt lat="42.580938005123414" lon="12.00846449598497"><ele>408.0</ele><time>2026-04-18T16:19:48Z</time></trkpt><trkpt lat="42.581057892203425" lon="12.008385819499297"><ele>408.0</ele><time>2026-04-18T16:19:49Z</time></trkpt><trkpt lat="42.58120387140297" lon="12.008335356203768"><ele>408.0</ele><time>2026-04-18T16:19:50Z</time></trkpt><trkpt lat="42.58138711679706" lon="12.008309144029631"><ele>404.66666666666663</ele><time>2026-04-18T16:19:51Z</time></trkpt><trkpt lat="42.581611179679044" lon="12.008286525302863"><ele>401.3333333333333</ele><time>2026-04-18T16:19:52Z</time></trkpt><trkpt lat="42.581808613659426" lon="12.008290573645533"><ele>398.0</ele><time>2026-04-18T16:19:53Z</time></trkpt><trkpt lat="42.581986668829046" lon="12.008234608760187"><ele>399.66666666666663</ele><time>2026-04-18T16:19:54Z</time></trkpt><trkpt lat="42.582153313166664" lon="12.008123549962475"><ele>401.33333333333337</ele><time>2026-04-18T16:19:55Z</time></trkpt><trkpt lat="42.58231848050046" lon="12.007948793999818"><ele>403.0</ele><time>2026-04-18T16:19:56Z</time></trkpt><trkpt lat="42.58247562616413" lon="12.00775299206222"><ele>403.0</ele><time>2026-04-18T16:19:57Z</time></trkpt><trkpt lat="42.582612712196884" lon="12.007597435804215"><ele>403.0</ele><time>2026-04-18T16:19:58Z</time></trkpt><trkpt lat="42.5827507361836" lon="12.007456247511653"><ele>403.0</ele><time>2026-04-18T16:19:59Z</time></trkpt><trkpt lat="42.58288095343949" lon="12.007312437583426"><ele>402.33333333333337</ele><time>2026-04-18T16:20:00Z</time></trkpt><trkpt lat="42.58301684669247" lon="12.007171105891425"><ele>401.66666666666663</ele><time>2026-04-18T16:20:01Z</time></trkpt><trkpt lat="42.58315177430478" lon="12.007025693945016"><ele>401.0</ele><time>2026-04-18T16:20:02Z</time></trkpt><trkpt lat="42.58328431881827" lon="12.00687163844186"><ele>401.0</ele><time>2026-04-18T16:20:03Z</time></trkpt><trkpt lat="42.5833862921289" lon="12.006742342506612"><ele>401.0</ele><time>2026-04-18T16:20:04Z</time></trkpt><trkpt lat="42.58345370585742" lon="12.006629870143215"><ele>401.0</ele><time>2026-04-18T16:20:05Z</time></trkpt><trkpt lat="42.58351686140421" lon="12.006503576838574"><ele>401.0</ele><time>2026-04-18T16:20:06Z</time></trkpt><trkpt lat="42.58358057649589" lon="12.006372557433899"><ele>401.0</ele><time>2026-04-18T16:20:07Z</time></trkpt><trkpt lat="42.58364910663641" lon="12.006237258368225"><ele>401.0</ele><time>2026-04-18T16:20:08Z</time></trkpt><trkpt lat="42.5837179324263" lon="12.006114271384915"><ele>401.0</ele><time>2026-04-18T16:20:09Z</time></trkpt><trkpt lat="42.58379902737093" lon="12.005992519347837"><ele>401.0</ele><time>2026-04-18T16:20:10Z</time></trkpt><trkpt lat="42.58393078818031" lon="12.005886405112193"><ele>400.3333333333333</ele><time>2026-04-18T16:20:11Z</time></trkpt><trkpt lat="42.58409131502927" lon="12.00576365848675"><ele>399.66666666666663</ele><time>2026-04-18T16:20:12Z</time></trkpt><trkpt lat="42.584295094138625" lon="12.005615928393496"><ele>399.0</ele><time>2026-04-18T16:20:13Z</time></trkpt><trkpt lat="42.584521813406944" lon="12.005438595135566"><ele>399.0</ele><time>2026-04-18T16:20:14Z</time></trkpt><trkpt lat="42.584768173178034" lon="12.005264951276772"><ele>399.0</ele><time>2026-04-18T16:20:15Z</time></trkpt><trkpt lat="42.58497998386675" lon="12.005104715469571"><ele>399.66666666666663</ele><time>2026-04-18T16:20:16Z</time></trkpt><trkpt lat="42.585163567259215" lon="12.004967831526463"><ele>400.3333333333333</ele><time>2026-04-18T16:20:17Z</time></trkpt><trkpt lat="42.58532727557189" lon="12.00484512925602"><ele>401.0</ele><time>2026-04-18T16:20:18Z</time></trkpt><trkpt lat="42.585476836292955" lon="12.004729782492184"><ele>401.0</ele><time>2026-04-18T16:20:19Z</time></trkpt><trkpt lat="42.58559120166428" lon="12.004597687049456"><ele>401.0</ele><time>2026-04-18T16:20:20Z</time></trkpt><trkpt lat="42.58568448428885" lon="12.004421500127116"><ele>401.0</ele><time>2026-04-18T16:20:21Z</time></trkpt><trkpt lat="42.58572756763763" lon="12.004201030761061"><ele>401.3333333333333</ele><time>2026-04-18T16:20:22Z</time></trkpt><trkpt lat="42.58569972748925" lon="12.003948867254616"><ele>401.66666666666663</ele><time>2026-04-18T16:20:23Z</time></trkpt><trkpt lat="42.58564328842884" lon="12.003743463108021"><ele>402.0</ele><time>2026-04-18T16:20:24Z</time></trkpt><trkpt lat="42.58551758036865" lon="12.003554292588671"><ele>402.0</ele><time>2026-04-18T16:20:25Z</time></trkpt><trkpt lat="42.585359003634046" lon="12.003351538596707"><ele>402.0</ele><time>2026-04-18T16:20:26Z</time></trkpt><trkpt lat="42.585224681658886" lon="12.003154332525284"><ele>402.0</ele><time>2026-04-18T16:20:27Z</time></trkpt><trkpt lat="42.58514778782539" lon="12.002994465456293"><ele>399.0</ele><time>2026-04-18T16:20:28Z</time></trkpt><trkpt lat="42.585099521836284" lon="12.002833588304537"><ele>396.0</ele><time>2026-04-18T16:20:29Z</time></trkpt><trkpt lat="42.58509173755292" lon="12.002675363136115"><ele>393.0</ele><time>2026-04-18T16:20:30Z</time></trkpt><trkpt lat="42.58513151794151" lon="12.002498336151326"><ele>390.0</ele><time>2026-04-18T16:20:31Z</time></trkpt><trkpt lat="42.58525347014938" lon="12.00237367410881"><ele>388.66666666666663</ele><time>2026-04-18T16:20:32Z</time></trkpt><trkpt lat="42.58539933117255" lon="12.002275517974677"><ele>387.3333333333333</ele><time>2026-04-18T16:20:33Z</time></trkpt><trkpt lat="42.58558387197851" lon="12.002212268104024"><ele>386.0</ele><time>2026-04-18T16:20:34Z</time></trkpt><trkpt lat="42.585814269417405" lon="12.00213265340217"><ele>386.0</ele><time>2026-04-18T16:20:35Z</time></trkpt><trkpt lat="42.586064432850236" lon="12.002025087259401"><ele>386.0</ele><time>2026-04-18T16:20:36Z</time></trkpt><trkpt lat="42.58633377349407" lon="12.001952080722322"><ele>386.0</ele><time>2026-04-18T16:20:37Z</time></trkpt><trkpt lat="42.58656012577583" lon="12.001875417562893"><ele>386.0</ele><time>2026-04-18T16:20:38Z</time></trkpt><trkpt lat="42.58676935618579" lon="12.001837247066728"><ele>386.0</ele><time>2026-04-18T16:20:39Z</time></trkpt><trkpt lat="42.58701776970515" lon="12.001835712263832"><ele>386.0</ele><time>2026-04-18T16:20:40Z</time></trkpt><trkpt lat="42.58728970060908" lon="12.00186097693867"><ele>386.0</ele><time>2026-04-18T16:20:41Z</time></trkpt><trkpt lat="42.58753318748905" lon="12.001861063335557"><ele>386.0</ele><time>2026-04-18T16:20:42Z</time></trkpt><trkpt lat="42.58775148881227" lon="12.001864796354791"><ele>386.0</ele><time>2026-04-18T16:20:43Z</time></trkpt><trkpt lat="42.58795882875584" lon="12.001816850111632"><ele>386.0</ele><time>2026-04-18T16:20:44Z</time></trkpt><trkpt lat="42.58815189451176" lon="12.001754565388865"><ele>386.0</ele><time>2026-04-18T16:20:45Z</time></trkpt><trkpt lat="42.5883319257295" lon="12.001668194027914"><ele>386.0</ele><time>2026-04-18T16:20:46Z</time></trkpt><trkpt lat="42.588514140706685" lon="12.001601429622148"><ele>386.0</ele><time>2026-04-18T16:20:47Z</time></trkpt><trkpt lat="42.58868448429148" lon="12.001542849436698"><ele>383.3333333333333</ele><time>2026-04-18T16:20:48Z</time></trkpt><trkpt lat="42.58884568359144" lon="12.001486250429744"><ele>380.66666666666663</ele><time>2026-04-18T16:20:49Z</time></trkpt><trkpt lat="42.58899725618459" lon="12.00143259503912"><ele>378.0</ele><time>2026-04-18T16:20:50Z</time></trkpt><trkpt lat="42.58914924850146" lon="12.001383381089893"><ele>378.0</ele><time>2026-04-18T16:20:51Z</time></trkpt><trkpt lat="42.5892936158319" lon="12.001327894255866"><ele>378.0</ele><time>2026-04-18T16:20:52Z</time></trkpt><trkpt lat="42.589426603120344" lon="12.00126472665862"><ele>378.0</ele><time>2026-04-18T16:20:53Z</time></trkpt><trkpt lat="42.58958182348586" lon="12.001161561175936"><ele>378.6666666666667</ele><time>2026-04-18T16:20:54Z</time></trkpt><trkpt lat="42.589733525076134" lon="12.001042319255813"><ele>379.33333333333337</ele><time>2026-04-18T16:20:55Z</time></trkpt><trkpt lat="42.589872692774186" lon="12.000933617144907"><ele>380.0</ele><time>2026-04-18T16:20:56Z</time></trkpt><trkpt lat="42.59000498125729" lon="12.000834618488446"><ele>378.25</ele><time>2026-04-18T16:20:57Z</time></trkpt><trkpt lat="42.590146858319095" lon="12.000756833874457"><ele>376.5</ele><time>2026-04-18T16:20:58Z</time></trkpt><trkpt lat="42.590288112336104" lon="12.000694288782688"><ele>374.75</ele><time>2026-04-18T16:20:59Z</time></trkpt><trkpt lat="42.590428129808934" lon="12.000662569085884"><ele>373.0</ele><time>2026-04-18T16:21:00Z</time></trkpt><trkpt lat="42.590567747471475" lon="12.00064888741485"><ele>373.0</ele><time>2026-04-18T16:21:01Z</time></trkpt><trkpt lat="42.59070798406448" lon="12.00065929788875"><ele>373.0</ele><time>2026-04-18T16:21:02Z</time></trkpt><trkpt lat="42.59086102827158" lon="12.000673024492121"><ele>373.0</ele><time>2026-04-18T16:21:03Z</time></trkpt><trkpt lat="42.591044165564455" lon="12.000705076603335"><ele>371.0</ele><time>2026-04-18T16:21:04Z</time></trkpt><trkpt lat="42.59122743569122" lon="12.00073483130125"><ele>369.0</ele><time>2026-04-18T16:21:05Z</time></trkpt><trkpt lat="42.591409219948204" lon="12.000765770432482"><ele>367.0</ele><time>2026-04-18T16:21:06Z</time></trkpt><trkpt lat="42.591597144568595" lon="12.000799657828308"><ele>367.0</ele><time>2026-04-18T16:21:07Z</time></trkpt><trkpt lat="42.59178599903228" lon="12.000828158918269"><ele>367.0</ele><time>2026-04-18T16:21:08Z</time></trkpt><trkpt lat="42.59199119405524" lon="12.000837748253506"><ele>367.0</ele><time>2026-04-18T16:21:09Z</time></trkpt><trkpt lat="42.59223203544877" lon="12.000819791422673"><ele>364.3333333333333</ele><time>2026-04-18T16:21:10Z</time></trkpt><trkpt lat="42.59244173449695" lon="12.000773661622512"><ele>361.6666666666667</ele><time>2026-04-18T16:21:11Z</time></trkpt><trkpt lat="42.59263758620694" lon="12.000731343459076"><ele>359.0</ele><time>2026-04-18T16:21:12Z</time></trkpt><trkpt lat="42.59281097159831" lon="12.000695709680851"><ele>358.0</ele><time>2026-04-18T16:21:13Z</time></trkpt><trkpt lat="42.59298066173772" lon="12.000659839961553"><ele>357.0</ele><time>2026-04-18T16:21:14Z</time></trkpt><trkpt lat="42.593150817183876" lon="12.000627817576875"><ele>356.0</ele><time>2026-04-18T16:21:15Z</time></trkpt><trkpt lat="42.593317748633666" lon="12.000607021763702"><ele>356.0</ele><time>2026-04-18T16:21:16Z</time></trkpt><trkpt lat="42.59347946670436" lon="12.000586822907403"><ele>356.0</ele><time>2026-04-18T16:21:17Z</time></trkpt><trkpt lat="42.593650299541544" lon="12.000573903738262"><ele>356.0</ele><time>2026-04-18T16:21:18Z</time></trkpt><trkpt lat="42.59382019916356" lon="12.000565330335041"><ele>355.33333333333337</ele><time>2026-04-18T16:21:19Z</time></trkpt><trkpt lat="42.5939898538761" lon="12.000554800256733"><ele>354.6666666666667</ele><time>2026-04-18T16:21:20Z</time></trkpt><trkpt lat="42.59415408462587" lon="12.000548384419142"><ele>354.0</ele><time>2026-04-18T16:21:21Z</time></trkpt><trkpt lat="42.59431945058399" lon="12.000532989942132"><ele>354.0</ele><time>2026-04-18T16:21:22Z</time></trkpt><trkpt lat="42.594491649756954" lon="12.000516409265227"><ele>354.0</ele><time>2026-04-18T16:21:23Z</time></trkpt><trkpt lat="42.59466895538073" lon="12.000501854026188"><ele>354.0</ele><time>2026-04-18T16:21:24Z</time></trkpt><trkpt lat="42.594848666517976" lon="12.000479221398464"><ele>353.3333333333333</ele><time>2026-04-18T16:21:25Z</time></trkpt><trkpt lat="42.59502717158582" lon="12.00041450062188"><ele>352.66666666666663</ele><time>2026-04-18T16:21:26Z</time></trkpt><trkpt lat="42.595214140048526" lon="12.000318871350279"><ele>352.0</ele><time>2026-04-18T16:21:27Z</time></trkpt><trkpt lat="42.59539650909448" lon="12.000191448846099"><ele>351.66666666666663</ele><time>2026-04-18T16:21:28Z</time></trkpt><trkpt lat="42.59557713702279" lon="12.000066869331107"><ele>351.3333333333333</ele><time>2026-04-18T16:21:29Z</time></trkpt><trkpt lat="42.59574105281627" lon="11.999954451716132"><ele>351.0</ele><time>2026-04-18T16:21:30Z</time></trkpt><trkpt lat="42.5959004858078" lon="11.999850383050358"><ele>351.0</ele><time>2026-04-18T16:21:31Z</time></trkpt><trkpt lat="42.59604862939685" lon="11.999751583252639"><ele>351.0</ele><time>2026-04-18T16:21:32Z</time></trkpt><trkpt lat="42.59619688558175" lon="11.999662140382968"><ele>351.0</ele><time>2026-04-18T16:21:33Z</time></trkpt><trkpt lat="42.596348532167035" lon="11.999587383391285"><ele>351.0</ele><time>2026-04-18T16:21:34Z</time></trkpt><trkpt lat="42.596502592739824" lon="11.999528205214636"><ele>351.0</ele><time>2026-04-18T16:21:35Z</time></trkpt><trkpt lat="42.59666542426863" lon="11.99948391881833"><ele>351.0</ele><time>2026-04-18T16:21:36Z</time></trkpt><trkpt lat="42.59682785045187" lon="11.999455442235538"><ele>351.0</ele><time>2026-04-18T16:21:37Z</time></trkpt><trkpt lat="42.5969954429607" lon="11.999452905532925"><ele>351.0</ele><time>2026-04-18T16:21:38Z</time></trkpt><trkpt lat="42.597175906638206" lon="11.999476089051127"><ele>351.0</ele><time>2026-04-18T16:21:39Z</time></trkpt><trkpt lat="42.597369632978236" lon="11.999510076689022"><ele>350.3333333333333</ele><time>2026-04-18T16:21:40Z</time></trkpt><trkpt lat="42.597571902359704" lon="11.999539803627899"><ele>349.66666666666663</ele><time>2026-04-18T16:21:41Z</time></trkpt><trkpt lat="42.59777166456467" lon="11.999552863744352"><ele>349.0</ele><time>2026-04-18T16:21:42Z</time></trkpt><trkpt lat="42.59796311922488" lon="11.99955159366494"><ele>348.66666666666663</ele><time>2026-04-18T16:21:43Z</time></trkpt><trkpt lat="42.59815073068737" lon="11.999528894367364"><ele>348.3333333333333</ele><time>2026-04-18T16:21:44Z</time></trkpt><trkpt lat="42.598334248914924" lon="11.999491526247912"><ele>348.0</ele><time>2026-04-18T16:21:45Z</time></trkpt><trkpt lat="42.59850425152918" lon="11.999425576934417"><ele>348.0</ele><time>2026-04-18T16:21:46Z</time></trkpt><trkpt lat="42.59867053851831" lon="11.999318351158037"><ele>348.0</ele><time>2026-04-18T16:21:47Z</time></trkpt><trkpt lat="42.59883590110647" lon="11.999208227811602"><ele>348.0</ele><time>2026-04-18T16:21:48Z</time></trkpt><trkpt lat="42.598986102470846" lon="11.999100978003618"><ele>344.3333333333333</ele><time>2026-04-18T16:21:49Z</time></trkpt><trkpt lat="42.59913425300844" lon="11.99900373597478"><ele>340.66666666666663</ele><time>2026-04-18T16:21:50Z</time></trkpt><trkpt lat="42.59928168148527" lon="11.998911490882463"><ele>337.0</ele><time>2026-04-18T16:21:51Z</time></trkpt><trkpt lat="42.59942270789636" lon="11.998816852334821"><ele>337.3333333333333</ele><time>2026-04-18T16:21:52Z</time></trkpt><trkpt lat="42.59956375518765" lon="11.998720669410718"><ele>337.6666666666667</ele><time>2026-04-18T16:21:53Z</time></trkpt><trkpt lat="42.59971585904302" lon="11.998635237912106"><ele>338.0</ele><time>2026-04-18T16:21:54Z</time></trkpt><trkpt lat="42.599884604766636" lon="11.998579171227098"><ele>338.0</ele><time>2026-04-18T16:21:55Z</time></trkpt><trkpt lat="42.600063072157546" lon="11.998538659677628"><ele>338.0</ele><time>2026-04-18T16:21:56Z</time></trkpt><trkpt lat="42.60024699435122" lon="11.998498352883322"><ele>338.0</ele><time>2026-04-18T16:21:57Z</time></trkpt><trkpt lat="42.60043168526088" lon="11.998460332786156"><ele>338.6666666666667</ele><time>2026-04-18T16:21:58Z</time></trkpt><trkpt lat="42.60061390724401" lon="11.998428086258448"><ele>339.3333333333333</ele><time>2026-04-18T16:21:59Z</time></trkpt><trkpt lat="42.60078814169475" lon="11.998401957713236"><ele>340.0</ele><time>2026-04-18T16:22:00Z</time></trkpt><trkpt lat="42.600960821051395" lon="11.998365295008812"><ele>336.3333333333333</ele><time>2026-04-18T16:22:01Z</time></trkpt><trkpt lat="42.60112967107449" lon="11.998332112320885"><ele>332.6666666666667</ele><time>2026-04-18T16:22:02Z</time></trkpt><trkpt lat="42.60129860374366" lon="11.998300713702658"><ele>329.0</ele><time>2026-04-18T16:22:03Z</time></trkpt><trkpt lat="42.60146821606406" lon="11.998268847850992"><ele>329.0</ele><time>2026-04-18T16:22:04Z</time></trkpt><trkpt lat="42.6016365378721" lon="11.998238750092264"><ele>329.0</ele><time>2026-04-18T16:22:05Z</time></trkpt><trkpt lat="42.601801827741205" lon="11.998224403851456"><ele>329.0</ele><time>2026-04-18T16:22:06Z</time></trkpt><trkpt lat="42.601954397707054" lon="11.998196787613116"><ele>328.75</ele><time>2026-04-18T16:22:07Z</time></trkpt><trkpt lat="42.60209721999696" lon="11.998151702415425"><ele>328.5</ele><time>2026-04-18T16:22:08Z</time></trkpt><trkpt lat="42.602245849479495" lon="11.998132791545405"><ele>328.25</ele><time>2026-04-18T16:22:09Z</time></trkpt><trkpt lat="42.60236505236095" lon="11.998108664259295"><ele>328.0</ele><time>2026-04-18T16:22:10Z</time></trkpt><trkpt lat="42.60246557472727" lon="11.998096607155054"><ele>328.0</ele><time>2026-04-18T16:22:11Z</time></trkpt><trkpt lat="42.60254880247161" lon="11.998082775528626"><ele>328.0</ele><time>2026-04-18T16:22:12Z</time></trkpt><trkpt lat="42.60261468731163" lon="11.99806953823331"><ele>328.0</ele><time>2026-04-18T16:22:13Z</time></trkpt><trkpt lat="42.60270084310891" lon="11.998062801481922"><ele>328.0</ele><time>2026-04-18T16:22:15Z</time></trkpt><trkpt lat="42.60278627151464" lon="11.998038724536276"><ele>328.0</ele><time>2026-04-18T16:22:32Z</time></trkpt><trkpt lat="42.602644043847825" lon="11.998068873469036"><ele>328.0</ele><time>2026-04-18T16:23:08Z</time></trkpt><trkpt lat="42.60268470688162" lon="11.997947650154439"><ele>328.0</ele><time>2026-04-18T16:23:09Z</time></trkpt><trkpt lat="42.602334134470304" lon="11.998185157295005"><ele>328.0</ele><time>2026-04-18T16:23:10Z</time></trkpt><trkpt lat="42.60217822812899" lon="11.998226609699708"><ele>328.0</ele><time>2026-04-18T16:23:11Z</time></trkpt><trkpt lat="42.60201208804543" lon="11.998273467423711"><ele>328.0</ele><time>2026-04-18T16:23:12Z</time></trkpt><trkpt lat="42.601839261287665" lon="11.998331185941888"><ele>331.0</ele><time>2026-04-18T16:23:13Z</time></trkpt><trkpt lat="42.6016940116897" lon="11.998385181914918"><ele>334.0</ele><time>2026-04-18T16:23:14Z</time></trkpt><trkpt lat="42.60157653741963" lon="11.998436673490172"><ele>337.0</ele><time>2026-04-18T16:23:15Z</time></trkpt><trkpt lat="42.601480069162236" lon="11.998490891272986"><ele>340.0</ele><time>2026-04-18T16:23:16Z</time></trkpt><trkpt lat="42.60139204797005" lon="11.998545363100298"><ele>340.0</ele><time>2026-04-18T16:23:17Z</time></trkpt><trkpt lat="42.60133374520653" lon="11.998590658010247"><ele>340.0</ele><time>2026-04-18T16:23:18Z</time></trkpt><trkpt lat="42.60127301480143" lon="11.998635081281476"><ele>340.0</ele><time>2026-04-18T16:23:19Z</time></trkpt><trkpt lat="42.60123490508789" lon="11.998718891204062"><ele>340.0</ele><time>2026-04-18T16:23:21Z</time></trkpt><trkpt lat="42.600958316880714" lon="11.998306734884492"><ele>338.14285714285717</ele><time>2026-04-18T16:23:22Z</time></trkpt><trkpt lat="42.60091805320753" lon="11.998228189739798"><ele>336.2857142857143</ele><time>2026-04-18T16:23:24Z</time></trkpt><trkpt lat="42.600865646314006" lon="11.998166198888839"><ele>334.42857142857144</ele><time>2026-04-18T16:23:26Z</time></trkpt><trkpt lat="42.600794686578574" lon="11.99811442266911"><ele>332.57142857142856</ele><time>2026-04-18T16:23:28Z</time></trkpt><trkpt lat="42.60072631869267" lon="11.9980898844623"><ele>330.7142857142857</ele><time>2026-04-18T16:23:30Z</time></trkpt><trkpt lat="42.60067116110308" lon="11.998002880184885"><ele>328.85714285714283</ele><time>2026-04-18T16:23:33Z</time></trkpt><trkpt lat="42.600661339029536" lon="11.997915208303134"><ele>327.0</ele><time>2026-04-18T16:23:35Z</time></trkpt><trkpt lat="42.60063624317595" lon="11.998009956436206"><ele>327.0</ele><time>2026-04-18T16:32:32Z</time></trkpt><trkpt lat="42.60073471235408" lon="11.998081875101912"><ele>327.0</ele><time>2026-04-18T16:32:51Z</time></trkpt><trkpt lat="42.600791484520904" lon="11.998127846046481"><ele>327.0</ele><time>2026-04-18T16:32:53Z</time></trkpt><trkpt lat="42.60086283366021" lon="11.998172922068957"><ele>327.0</ele><time>2026-04-18T16:33:25Z</time></trkpt><trkpt lat="42.600930305801235" lon="11.998234260725445"><ele>327.0</ele><time>2026-04-18T16:33:27Z</time></trkpt><trkpt lat="42.60096048861745" lon="11.998317769155152"><ele>327.0</ele><time>2026-04-18T16:33:29Z</time></trkpt><trkpt lat="42.60100154272728" lon="11.998389437184523"><ele>327.5</ele><time>2026-04-18T16:33:36Z</time></trkpt><trkpt lat="42.60109413226236" lon="11.998397917429573"><ele>328.0</ele><time>2026-04-18T16:33:37Z</time></trkpt><trkpt lat="42.601233948588266" lon="11.998352022212284"><ele>328.5</ele><time>2026-04-18T16:33:38Z</time></trkpt><trkpt lat="42.601345959114546" lon="11.998322212546547"><ele>329.0</ele><time>2026-04-18T16:33:39Z</time></trkpt><trkpt lat="42.601483581188305" lon="11.998296907707307"><ele>329.0</ele><time>2026-04-18T16:33:40Z</time></trkpt><trkpt lat="42.60163993763187" lon="11.99826334990414"><ele>329.0</ele><time>2026-04-18T16:33:41Z</time></trkpt><trkpt lat="42.60179059605172" lon="11.998230662980342"><ele>329.0</ele><time>2026-04-18T16:33:42Z</time></trkpt><trkpt lat="42.60194577205732" lon="11.998205895363782"><ele>328.75</ele><time>2026-04-18T16:33:43Z</time></trkpt><trkpt lat="42.602097804697735" lon="11.998175868085692"><ele>328.5</ele><time>2026-04-18T16:33:44Z</time></trkpt><trkpt lat="42.602244016655206" lon="11.99814967120607"><ele>328.25</ele><time>2026-04-18T16:33:45Z</time></trkpt><trkpt lat="42.602387510291834" lon="11.998121208513137"><ele>328.0</ele><time>2026-04-18T16:33:46Z</time></trkpt><trkpt lat="42.60252758169764" lon="11.998099248451679"><ele>328.0</ele><time>2026-04-18T16:33:47Z</time></trkpt><trkpt lat="42.60265765151208" lon="11.998061095046205"><ele>328.0</ele><time>2026-04-18T16:33:48Z</time></trkpt><trkpt lat="42.60280216248607" lon="11.99800525104758"><ele>328.0</ele><time>2026-04-18T16:33:49Z</time></trkpt><trkpt lat="42.60293966333335" lon="11.997920007884298"><ele>328.0</ele><time>2026-04-18T16:33:50Z</time></trkpt><trkpt lat="42.60307448296465" lon="11.997816791196957"><ele>329.0</ele><time>2026-04-18T16:33:51Z</time></trkpt><trkpt lat="42.60320970773854" lon="11.997697240497427"><ele>330.0</ele><time>2026-04-18T16:33:52Z</time></trkpt><trkpt lat="42.6033465229967" lon="11.997574898847473"><ele>331.0</ele><time>2026-04-18T16:33:53Z</time></trkpt><trkpt lat="42.603477187721516" lon="11.997456083760435"><ele>328.25</ele><time>2026-04-18T16:33:54Z</time></trkpt><trkpt lat="42.603604677277794" lon="11.99734418107343"><ele>325.5</ele><time>2026-04-18T16:33:55Z</time></trkpt><trkpt lat="42.60372786621144" lon="11.99723045782622"><ele>322.75</ele><time>2026-04-18T16:33:56Z</time></trkpt><trkpt lat="42.603849013346874" lon="11.99712079502692"><ele>320.0</ele><time>2026-04-18T16:33:57Z</time></trkpt><trkpt lat="42.603967825543776" lon="11.99701477070094"><ele>319.5</ele><time>2026-04-18T16:33:58Z</time></trkpt><trkpt lat="42.604084457751995" lon="11.996908762802374"><ele>319.0</ele><time>2026-04-18T16:33:59Z</time></trkpt><trkpt lat="42.60419764779914" lon="11.99680656112104"><ele>318.5</ele><time>2026-04-18T16:34:00Z</time></trkpt><trkpt lat="42.60431037181067" lon="11.996712211667957"><ele>318.0</ele><time>2026-04-18T16:34:01Z</time></trkpt><trkpt lat="42.60442341106727" lon="11.996621108479648"><ele>317.5</ele><time>2026-04-18T16:34:02Z</time></trkpt><trkpt lat="42.60453775032264" lon="11.996529040762816"><ele>317.0</ele><time>2026-04-18T16:34:03Z</time></trkpt><trkpt lat="42.60466133369887" lon="11.99645999699606"><ele>316.5</ele><time>2026-04-18T16:34:04Z</time></trkpt><trkpt lat="42.604800564105965" lon="11.996428798404963"><ele>316.0</ele><time>2026-04-18T16:34:05Z</time></trkpt><trkpt lat="42.60494780671017" lon="11.996421446425282"><ele>316.0</ele><time>2026-04-18T16:34:06Z</time></trkpt><trkpt lat="42.60510627141504" lon="11.996433581414692"><ele>316.0</ele><time>2026-04-18T16:34:07Z</time></trkpt><trkpt lat="42.60527304027566" lon="11.99645001155964"><ele>316.0</ele><time>2026-04-18T16:34:08Z</time></trkpt><trkpt lat="42.60544104585128" lon="11.996468114588357"><ele>315.0</ele><time>2026-04-18T16:34:09Z</time></trkpt><trkpt lat="42.60560704561189" lon="11.996486759348539"><ele>314.0</ele><time>2026-04-18T16:34:10Z</time></trkpt><trkpt lat="42.60576809650867" lon="11.996502073796794"><ele>313.0</ele><time>2026-04-18T16:34:11Z</time></trkpt><trkpt lat="42.60592817205636" lon="11.996518174932877"><ele>313.0</ele><time>2026-04-18T16:34:12Z</time></trkpt><trkpt lat="42.60609245084596" lon="11.996544007034744"><ele>313.0</ele><time>2026-04-18T16:34:13Z</time></trkpt><trkpt lat="42.60625648208137" lon="11.996561990106438"><ele>313.0</ele><time>2026-04-18T16:34:14Z</time></trkpt><trkpt lat="42.60641849681432" lon="11.996580718610867"><ele>312.66666666666663</ele><time>2026-04-18T16:34:15Z</time></trkpt><trkpt lat="42.60658374151048" lon="11.996598901102685"><ele>312.3333333333333</ele><time>2026-04-18T16:34:16Z</time></trkpt><trkpt lat="42.60672926559642" lon="11.996620342380904"><ele>312.0</ele><time>2026-04-18T16:34:17Z</time></trkpt><trkpt lat="42.60687445855617" lon="11.996641810250976"><ele>312.0</ele><time>2026-04-18T16:34:18Z</time></trkpt><trkpt lat="42.60715604679632" lon="11.996625548046374"><ele>312.0</ele><time>2026-04-18T16:34:19Z</time></trkpt><trkpt lat="42.60733571338584" lon="11.996639670163427"><ele>312.0</ele><time>2026-04-18T16:34:20Z</time></trkpt><trkpt lat="42.60750807474219" lon="11.996647847666342"><ele>312.0</ele><time>2026-04-18T16:34:21Z</time></trkpt><trkpt lat="42.60767423023517" lon="11.996668328374763"><ele>312.0</ele><time>2026-04-18T16:34:22Z</time></trkpt><trkpt lat="42.60783094566675" lon="11.996683813133062"><ele>313.3333333333333</ele><time>2026-04-18T16:34:22.998Z</time></trkpt><trkpt lat="42.607991185990386" lon="11.996701541446829"><ele>314.66666666666663</ele><time>2026-04-18T16:34:23.998Z</time></trkpt><trkpt lat="42.608154164155195" lon="11.996722696845902"><ele>316.0</ele><time>2026-04-18T16:34:24.998Z</time></trkpt><trkpt lat="42.60832826150217" lon="11.996737169383335"><ele>316.0</ele><time>2026-04-18T16:34:25.998Z</time></trkpt><trkpt lat="42.608517144864486" lon="11.996751450390498"><ele>316.0</ele><time>2026-04-18T16:34:26.998Z</time></trkpt><trkpt lat="42.608717684077924" lon="11.99677141831123"><ele>316.0</ele><time>2026-04-18T16:34:27.998Z</time></trkpt><trkpt lat="42.6089093817427" lon="11.996796805279134"><ele>317.66666666666663</ele><time>2026-04-18T16:34:28.998Z</time></trkpt><trkpt lat="42.609097316848384" lon="11.99681385661789"><ele>319.3333333333333</ele><time>2026-04-18T16:34:29.998Z</time></trkpt><trkpt lat="42.60928957223443" lon="11.996825711259572"><ele>321.0</ele><time>2026-04-18T16:34:30.998Z</time></trkpt><trkpt lat="42.60948155448285" lon="11.996835659487248"><ele>325.3333333333333</ele><time>2026-04-18T16:34:31.998Z</time></trkpt><trkpt lat="42.609667449625675" lon="11.996838447584043"><ele>329.66666666666663</ele><time>2026-04-18T16:34:32.998Z</time></trkpt><trkpt lat="42.60985898561447" lon="11.996821404022649"><ele>334.0</ele><time>2026-04-18T16:34:33.998Z</time></trkpt><trkpt lat="42.610052000989135" lon="11.996805053583016"><ele>334.0</ele><time>2026-04-18T16:34:34.998Z</time></trkpt><trkpt lat="42.61023811845919" lon="11.996797086912187"><ele>334.0</ele><time>2026-04-18T16:34:35.998Z</time></trkpt><trkpt lat="42.61042083058522" lon="11.996797445771577"><ele>334.0</ele><time>2026-04-18T16:34:36.998Z</time></trkpt><trkpt lat="42.61058836294571" lon="11.996797866897825"><ele>333.0</ele><time>2026-04-18T16:34:37.998Z</time></trkpt><trkpt lat="42.6107464720237" lon="11.996786519989678"><ele>332.0</ele><time>2026-04-18T16:34:38.998Z</time></trkpt><trkpt lat="42.61090861993017" lon="11.996824877366905"><ele>331.0</ele><time>2026-04-18T16:34:39.998Z</time></trkpt><trkpt lat="42.61109646934151" lon="11.996884968713672"><ele>328.3333333333333</ele><time>2026-04-18T16:34:40.998Z</time></trkpt><trkpt lat="42.61129428242694" lon="11.996989522810482"><ele>325.6666666666667</ele><time>2026-04-18T16:34:41.998Z</time></trkpt><trkpt lat="42.61147244022506" lon="11.997092165116083"><ele>323.0</ele><time>2026-04-18T16:34:42.999Z</time></trkpt><trkpt lat="42.61163629554083" lon="11.997181590332724"><ele>323.0</ele><time>2026-04-18T16:34:43.999Z</time></trkpt><trkpt lat="42.611791259169" lon="11.997265480508648"><ele>323.0</ele><time>2026-04-18T16:34:44.999Z</time></trkpt><trkpt lat="42.611958303213434" lon="11.997350493761212"><ele>323.0</ele><time>2026-04-18T16:34:45.999Z</time></trkpt><trkpt lat="42.61213731297435" lon="11.99744395033867"><ele>329.0</ele><time>2026-04-18T16:34:46.999Z</time></trkpt><trkpt lat="42.61233383332965" lon="11.997527295347906"><ele>335.0</ele><time>2026-04-18T16:34:47.999Z</time></trkpt><trkpt lat="42.61254243050233" lon="11.997587687469384"><ele>341.0</ele><time>2026-04-18T16:34:48.999Z</time></trkpt><trkpt lat="42.612758033942725" lon="11.997600333385805"><ele>340.6666666666667</ele><time>2026-04-18T16:34:49.999Z</time></trkpt><trkpt lat="42.61296833573011" lon="11.997584878939673"><ele>340.3333333333333</ele><time>2026-04-18T16:34:50.999Z</time></trkpt><trkpt lat="42.61317148941223" lon="11.997535703137327"><ele>340.0</ele><time>2026-04-18T16:34:51.999Z</time></trkpt><trkpt lat="42.61335430211137" lon="11.997478194049233"><ele>334.3333333333333</ele><time>2026-04-18T16:34:52.999Z</time></trkpt><trkpt lat="42.61352646796555" lon="11.997417193862075"><ele>328.6666666666667</ele><time>2026-04-18T16:34:53.999Z</time></trkpt><trkpt lat="42.6136964961044" lon="11.997350396869802"><ele>323.0</ele><time>2026-04-18T16:34:54.999Z</time></trkpt><trkpt lat="42.61386876952153" lon="11.997261988594307"><ele>323.0</ele><time>2026-04-18T16:34:55.999Z</time></trkpt><trkpt lat="42.614046388664455" lon="11.99716304254418"><ele>323.0</ele><time>2026-04-18T16:34:56.999Z</time></trkpt><trkpt lat="42.6142243905558" lon="11.997054400162625"><ele>323.0</ele><time>2026-04-18T16:34:57.999Z</time></trkpt><trkpt lat="42.61440664410558" lon="11.996936982282369"><ele>325.33333333333337</ele><time>2026-04-18T16:34:58.999Z</time></trkpt><trkpt lat="42.61458293958992" lon="11.9968152041447"><ele>327.6666666666667</ele><time>2026-04-18T16:34:59.999Z</time></trkpt><trkpt lat="42.61475543104378" lon="11.996682280292077"><ele>330.0</ele><time>2026-04-18T16:35:00.999Z</time></trkpt><trkpt lat="42.614920686119866" lon="11.996533664095423"><ele>325.0</ele><time>2026-04-18T16:35:01.999Z</time></trkpt><trkpt lat="42.61506890181077" lon="11.996371881661023"><ele>320.0</ele><time>2026-04-18T16:35:02.999Z</time></trkpt><trkpt lat="42.615196289673094" lon="11.99620510156898"><ele>315.0</ele><time>2026-04-18T16:35:03.999Z</time></trkpt><trkpt lat="42.61531939910511" lon="11.996046979930375"><ele>316.5</ele><time>2026-04-18T16:35:04.999Z</time></trkpt><trkpt lat="42.615444765262936" lon="11.99592109760045"><ele>318.0</ele><time>2026-04-18T16:35:05.999Z</time></trkpt><trkpt lat="42.615584471180114" lon="11.995848480369373"><ele>319.5</ele><time>2026-04-18T16:35:06.999Z</time></trkpt><trkpt lat="42.61571764375475" lon="11.995874910953276"><ele>321.0</ele><time>2026-04-18T16:35:07.999Z</time></trkpt><trkpt lat="42.61584990838129" lon="11.995956619012642"><ele>321.0</ele><time>2026-04-18T16:35:08.999Z</time></trkpt><trkpt lat="42.615997249484394" lon="11.996096889398544"><ele>321.0</ele><time>2026-04-18T16:35:09.999Z</time></trkpt><trkpt lat="42.616171460443816" lon="11.996230110068824"><ele>321.0</ele><time>2026-04-18T16:35:10.999Z</time></trkpt><trkpt lat="42.61631206556215" lon="11.996346653920538"><ele>318.3333333333333</ele><time>2026-04-18T16:35:11.999Z</time></trkpt><trkpt lat="42.61645094396815" lon="11.996442652573224"><ele>315.66666666666663</ele><time>2026-04-18T16:35:12.999Z</time></trkpt><trkpt lat="42.61659151995178" lon="11.996531055428735"><ele>313.0</ele><time>2026-04-18T16:35:13.999Z</time></trkpt><trkpt lat="42.61674158446889" lon="11.99660657668661"><ele>314.3333333333333</ele><time>2026-04-18T16:35:14.999Z</time></trkpt><trkpt lat="42.61690629279794" lon="11.996679273910722"><ele>315.6666666666667</ele><time>2026-04-18T16:35:15.999Z</time></trkpt><trkpt lat="42.61708773401842" lon="11.996736490400817"><ele>317.0</ele><time>2026-04-18T16:35:16.999Z</time></trkpt><trkpt lat="42.6172770537873" lon="11.996774994734409"><ele>317.0</ele><time>2026-04-18T16:35:17.999Z</time></trkpt><trkpt lat="42.617460598873365" lon="11.996819435161337"><ele>317.0</ele><time>2026-04-18T16:35:18.999Z</time></trkpt><trkpt lat="42.61764061468399" lon="11.996878848247274"><ele>317.0</ele><time>2026-04-18T16:35:19.999Z</time></trkpt><trkpt lat="42.6178168705685" lon="11.996930190394107"><ele>316.6666666666667</ele><time>2026-04-18T16:35:20.999Z</time></trkpt><trkpt lat="42.61799460848641" lon="11.996976273892061"><ele>316.3333333333333</ele><time>2026-04-18T16:35:21.999Z</time></trkpt><trkpt lat="42.6181653143813" lon="11.997022674805939"><ele>316.0</ele><time>2026-04-18T16:35:22.999Z</time></trkpt><trkpt lat="42.61833472478208" lon="11.997067379273608"><ele>316.0</ele><time>2026-04-18T16:35:23.999Z</time></trkpt><trkpt lat="42.61850758692621" lon="11.997114776839936"><ele>316.0</ele><time>2026-04-18T16:35:24.999Z</time></trkpt><trkpt lat="42.61868241894991" lon="11.997157710741492"><ele>316.0</ele><time>2026-04-18T16:35:25.999Z</time></trkpt><trkpt lat="42.61885703384039" lon="11.997208216968593"><ele>316.0</ele><time>2026-04-18T16:35:26.999Z</time></trkpt><trkpt lat="42.61902630916911" lon="11.997275841065683"><ele>316.0</ele><time>2026-04-18T16:35:27.999Z</time></trkpt><trkpt lat="42.619194662622405" lon="11.997373920298514"><ele>316.0</ele><time>2026-04-18T16:35:28.999Z</time></trkpt><trkpt lat="42.619361513398125" lon="11.997502157179278"><ele>318.3333333333333</ele><time>2026-04-18T16:35:29.999Z</time></trkpt><trkpt lat="42.61951539080178" lon="11.997644662966685"><ele>320.6666666666667</ele><time>2026-04-18T16:35:31Z</time></trkpt><trkpt lat="42.61965703342098" lon="11.997779287452865"><ele>323.0</ele><time>2026-04-18T16:35:32Z</time></trkpt><trkpt lat="42.619812341166565" lon="11.997903228439698"><ele>323.0</ele><time>2026-04-18T16:35:33Z</time></trkpt><trkpt lat="42.61998208801227" lon="11.998004573486888"><ele>323.0</ele><time>2026-04-18T16:35:34Z</time></trkpt><trkpt lat="42.62016423185184" lon="11.998072889949885"><ele>323.0</ele><time>2026-04-18T16:35:35Z</time></trkpt><trkpt lat="42.62035132214644" lon="11.998100350466512"><ele>321.6666666666667</ele><time>2026-04-18T16:35:36Z</time></trkpt><trkpt lat="42.620537216445534" lon="11.998103947846612"><ele>320.3333333333333</ele><time>2026-04-18T16:35:37Z</time></trkpt><trkpt lat="42.6207187467142" lon="11.998105596152705"><ele>319.0</ele><time>2026-04-18T16:35:38Z</time></trkpt><trkpt lat="42.620898592297856" lon="11.998121225503679"><ele>319.0</ele><time>2026-04-18T16:35:39Z</time></trkpt><trkpt lat="42.62108109438008" lon="11.99813871504603"><ele>319.0</ele><time>2026-04-18T16:35:40Z</time></trkpt><trkpt lat="42.62125785050551" lon="11.998152909520543"><ele>319.0</ele><time>2026-04-18T16:35:41Z</time></trkpt><trkpt lat="42.62143122130508" lon="11.998165249136754"><ele>318.66666666666663</ele><time>2026-04-18T16:35:42Z</time></trkpt><trkpt lat="42.62161325632732" lon="11.998184520801077"><ele>318.3333333333333</ele><time>2026-04-18T16:35:43Z</time></trkpt><trkpt lat="42.621800088516814" lon="11.998204950343707"><ele>318.0</ele><time>2026-04-18T16:35:44Z</time></trkpt><trkpt lat="42.62198029343934" lon="11.998221513443951"><ele>317.6666666666667</ele><time>2026-04-18T16:35:45Z</time></trkpt><trkpt lat="42.62215951376798" lon="11.998242484199197"><ele>317.33333333333337</ele><time>2026-04-18T16:35:46Z</time></trkpt><trkpt lat="42.622335313534144" lon="11.998274623840906"><ele>317.0</ele><time>2026-04-18T16:35:47Z</time></trkpt><trkpt lat="42.622501413528795" lon="11.998345605419598"><ele>317.6666666666667</ele><time>2026-04-18T16:35:48Z</time></trkpt><trkpt lat="42.62266116412695" lon="11.998480816660967"><ele>318.3333333333333</ele><time>2026-04-18T16:35:49Z</time></trkpt><trkpt lat="42.62279420384252" lon="11.998678874160786"><ele>319.0</ele><time>2026-04-18T16:35:50Z</time></trkpt><trkpt lat="42.622926534329395" lon="11.998855031379529"><ele>319.0</ele><time>2026-04-18T16:35:51Z</time></trkpt><trkpt lat="42.62304767880286" lon="11.99901738932416"><ele>319.0</ele><time>2026-04-18T16:35:52Z</time></trkpt><trkpt lat="42.6231848114502" lon="11.999148648627433"><ele>319.0</ele><time>2026-04-18T16:35:53Z</time></trkpt><trkpt lat="42.62333217512956" lon="11.999254389415112"><ele>321.0</ele><time>2026-04-18T16:35:54Z</time></trkpt><trkpt lat="42.623490875715326" lon="11.999344487476353"><ele>323.0</ele><time>2026-04-18T16:35:55Z</time></trkpt><trkpt lat="42.62365217640865" lon="11.99940076838222"><ele>325.0</ele><time>2026-04-18T16:35:56Z</time></trkpt><trkpt lat="42.62382140135067" lon="11.999426240259542"><ele>325.0</ele><time>2026-04-18T16:35:57Z</time></trkpt><trkpt lat="42.623994627504956" lon="11.999433217595922"><ele>325.0</ele><time>2026-04-18T16:35:58Z</time></trkpt><trkpt lat="42.62417618847559" lon="11.999426287801885"><ele>325.0</ele><time>2026-04-18T16:35:59Z</time></trkpt><trkpt lat="42.62436701016436" lon="11.999416156158354"><ele>327.0</ele><time>2026-04-18T16:36:00Z</time></trkpt><trkpt lat="42.62455654421861" lon="11.9994096001536"><ele>329.0</ele><time>2026-04-18T16:36:01Z</time></trkpt><trkpt lat="42.62474954946363" lon="11.999406170233106"><ele>331.0</ele><time>2026-04-18T16:36:02Z</time></trkpt><trkpt lat="42.62494376163981" lon="11.999403313144843"><ele>331.0</ele><time>2026-04-18T16:36:03Z</time></trkpt><trkpt lat="42.6251428997825" lon="11.999394535678622"><ele>331.0</ele><time>2026-04-18T16:36:04Z</time></trkpt><trkpt lat="42.625344828464044" lon="11.999386286650749"><ele>331.0</ele><time>2026-04-18T16:36:05Z</time></trkpt><trkpt lat="42.62554760367955" lon="11.999381099282644"><ele>335.0</ele><time>2026-04-18T16:36:06Z</time></trkpt><trkpt lat="42.62574953770979" lon="11.999373431874057"><ele>339.0</ele><time>2026-04-18T16:36:07Z</time></trkpt><trkpt lat="42.62595496557282" lon="11.99936169728642"><ele>343.0</ele><time>2026-04-18T16:36:08Z</time></trkpt><trkpt lat="42.626150298726444" lon="11.999350756914613"><ele>346.3333333333333</ele><time>2026-04-18T16:36:09Z</time></trkpt><trkpt lat="42.62633582026332" lon="11.999328893717784"><ele>349.6666666666667</ele><time>2026-04-18T16:36:10Z</time></trkpt><trkpt lat="42.62652904246023" lon="11.999300496768573"><ele>353.0</ele><time>2026-04-18T16:36:11Z</time></trkpt><trkpt lat="42.626724029202705" lon="11.999259720931217"><ele>353.0</ele><time>2026-04-18T16:36:12Z</time></trkpt><trkpt lat="42.62692061048121" lon="11.999194365681651"><ele>353.0</ele><time>2026-04-18T16:36:13Z</time></trkpt><trkpt lat="42.62712081570012" lon="11.99911544239599"><ele>353.0</ele><time>2026-04-18T16:36:14Z</time></trkpt><trkpt lat="42.627311012600245" lon="11.999043370700639"><ele>346.33333333333337</ele><time>2026-04-18T16:36:15Z</time></trkpt><trkpt lat="42.62749213587723" lon="11.998970761954299"><ele>339.6666666666667</ele><time>2026-04-18T16:36:16Z</time></trkpt><trkpt lat="42.627660634771104" lon="11.998894728346933"><ele>333.0</ele><time>2026-04-18T16:36:17Z</time></trkpt><trkpt lat="42.62782599898599" lon="11.99883219061068"><ele>333.0</ele><time>2026-04-18T16:36:18Z</time></trkpt><trkpt lat="42.62798686925309" lon="11.998747293196251"><ele>333.0</ele><time>2026-04-18T16:36:19Z</time></trkpt><trkpt lat="42.62815495663066" lon="11.998665721556904"><ele>333.0</ele><time>2026-04-18T16:36:20Z</time></trkpt><trkpt lat="42.62832927974158" lon="11.998591026892097"><ele>333.0</ele><time>2026-04-18T16:36:21Z</time></trkpt><trkpt lat="42.628517148158345" lon="11.998520789281669"><ele>333.0</ele><time>2026-04-18T16:36:22Z</time></trkpt><trkpt lat="42.62871060430853" lon="11.998461105890202"><ele>333.0</ele><time>2026-04-18T16:36:23Z</time></trkpt><trkpt lat="42.62889838625737" lon="11.998420403346614"><ele>335.6666666666667</ele><time>2026-04-18T16:36:24Z</time></trkpt><trkpt lat="42.62908257301297" lon="11.998384419817658"><ele>338.33333333333337</ele><time>2026-04-18T16:36:25Z</time></trkpt><trkpt lat="42.629270761024436" lon="11.998352980778227"><ele>341.0</ele><time>2026-04-18T16:36:26Z</time></trkpt><trkpt lat="42.62946150414817" lon="11.998324440221625"><ele>336.0</ele><time>2026-04-18T16:36:27Z</time></trkpt><trkpt lat="42.62965498075313" lon="11.99831112444129"><ele>331.0</ele><time>2026-04-18T16:36:28Z</time></trkpt><trkpt lat="42.62984877539291" lon="11.99830116046802"><ele>326.0</ele><time>2026-04-18T16:36:28.998Z</time></trkpt><trkpt lat="42.630040907211416" lon="11.998269501151762"><ele>326.0</ele><time>2026-04-18T16:36:29.998Z</time></trkpt><trkpt lat="42.63021977352378" lon="11.998208978434198"><ele>326.0</ele><time>2026-04-18T16:36:30.998Z</time></trkpt><trkpt lat="42.63039500904645" lon="11.998147338858326"><ele>326.0</ele><time>2026-04-18T16:36:31.998Z</time></trkpt><trkpt lat="42.63056819992993" lon="11.998083859299348"><ele>330.33333333333337</ele><time>2026-04-18T16:36:32.998Z</time></trkpt><trkpt lat="42.630742951575144" lon="11.998013682096259"><ele>334.6666666666667</ele><time>2026-04-18T16:36:33.998Z</time></trkpt><trkpt lat="42.630921282303895" lon="11.997928487593695"><ele>339.0</ele><time>2026-04-18T16:36:34.998Z</time></trkpt><trkpt lat="42.6310964892352" lon="11.997831573871172"><ele>343.3333333333333</ele><time>2026-04-18T16:36:35.998Z</time></trkpt><trkpt lat="42.63126613594771" lon="11.997732632823762"><ele>347.66666666666663</ele><time>2026-04-18T16:36:36.998Z</time></trkpt><trkpt lat="42.63143093867119" lon="11.997645205720467"><ele>352.0</ele><time>2026-04-18T16:36:37.998Z</time></trkpt><trkpt lat="42.6315964557008" lon="11.99753997655608"><ele>348.0</ele><time>2026-04-18T16:36:38.998Z</time></trkpt><trkpt lat="42.63176245013039" lon="11.997437320775354"><ele>344.0</ele><time>2026-04-18T16:36:39.998Z</time></trkpt><trkpt lat="42.63192499694881" lon="11.99733744516295"><ele>340.0</ele><time>2026-04-18T16:36:40.998Z</time></trkpt><trkpt lat="42.63207900682575" lon="11.997248274359205"><ele>340.0</ele><time>2026-04-18T16:36:41.998Z</time></trkpt><trkpt lat="42.63222331525761" lon="11.997159141512725"><ele>340.0</ele><time>2026-04-18T16:36:42.998Z</time></trkpt><trkpt lat="42.63236956836194" lon="11.997071330298024"><ele>340.0</ele><time>2026-04-18T16:36:43.998Z</time></trkpt><trkpt lat="42.63251847349758" lon="11.996975634484711"><ele>340.0</ele><time>2026-04-18T16:36:44.998Z</time></trkpt><trkpt lat="42.6326668698194" lon="11.996873456125018"><ele>340.0</ele><time>2026-04-18T16:36:45.998Z</time></trkpt><trkpt lat="42.63282484235133" lon="11.996772497582848"><ele>340.0</ele><time>2026-04-18T16:36:46.999Z</time></trkpt><trkpt lat="42.63297316287491" lon="11.996660495701384"><ele>336.66666666666663</ele><time>2026-04-18T16:36:47.999Z</time></trkpt><trkpt lat="42.633112707791376" lon="11.996540279765505"><ele>333.3333333333333</ele><time>2026-04-18T16:36:48.999Z</time></trkpt><trkpt lat="42.63325917542654" lon="11.996416657568073"><ele>330.0</ele><time>2026-04-18T16:36:49.999Z</time></trkpt><trkpt lat="42.633405385924206" lon="11.996286386750688"><ele>330.0</ele><time>2026-04-18T16:36:50.999Z</time></trkpt><trkpt lat="42.63354413640627" lon="11.996156201380074"><ele>330.0</ele><time>2026-04-18T16:36:51.999Z</time></trkpt><trkpt lat="42.63367668455703" lon="11.99603171218821"><ele>330.0</ele><time>2026-04-18T16:36:52.999Z</time></trkpt><trkpt lat="42.633806565473286" lon="11.9959102551793"><ele>326.0</ele><time>2026-04-18T16:36:53.999Z</time></trkpt><trkpt lat="42.63394481977769" lon="11.995784226693086"><ele>322.0</ele><time>2026-04-18T16:36:54.999Z</time></trkpt><trkpt lat="42.63408338417627" lon="11.99566104557481"><ele>318.0</ele><time>2026-04-18T16:36:55.999Z</time></trkpt><trkpt lat="42.634224785001635" lon="11.995546405975654"><ele>318.0</ele><time>2026-04-18T16:36:56.999Z</time></trkpt><trkpt lat="42.634360304292144" lon="11.995442343382965"><ele>318.0</ele><time>2026-04-18T16:36:57.999Z</time></trkpt><trkpt lat="42.63450040462242" lon="11.995338437628952"><ele>318.0</ele><time>2026-04-18T16:36:58.999Z</time></trkpt><trkpt lat="42.63465665071686" lon="11.995253772081726"><ele>319.0</ele><time>2026-04-18T16:36:59.999Z</time></trkpt><trkpt lat="42.63482149709695" lon="11.995184260845024"><ele>320.0</ele><time>2026-04-18T16:37:00.999Z</time></trkpt><trkpt lat="42.63497463636151" lon="11.995133649918706"><ele>321.0</ele><time>2026-04-18T16:37:01.999Z</time></trkpt><trkpt lat="42.63512357655172" lon="11.9950814990862"><ele>321.0</ele><time>2026-04-18T16:37:02.999Z</time></trkpt><trkpt lat="42.63527241734109" lon="11.99503611037681"><ele>321.0</ele><time>2026-04-18T16:37:03.999Z</time></trkpt><trkpt lat="42.63542637042748" lon="11.99499274672938"><ele>321.0</ele><time>2026-04-18T16:37:04.999Z</time></trkpt><trkpt lat="42.63558935460005" lon="11.994949166917154"><ele>318.6666666666667</ele><time>2026-04-18T16:37:05.999Z</time></trkpt><trkpt lat="42.63575261486105" lon="11.994897041901257"><ele>316.33333333333337</ele><time>2026-04-18T16:37:06.999Z</time></trkpt><trkpt lat="42.63592278665912" lon="11.994845573699475"><ele>314.0</ele><time>2026-04-18T16:37:07.999Z</time></trkpt><trkpt lat="42.63609501547162" lon="11.994790239167646"><ele>315.6666666666667</ele><time>2026-04-18T16:37:08.999Z</time></trkpt><trkpt lat="42.636273350512006" lon="11.994729982658917"><ele>317.3333333333333</ele><time>2026-04-18T16:37:09.999Z</time></trkpt><trkpt lat="42.636451553766626" lon="11.994653286514787"><ele>319.0</ele><time>2026-04-18T16:37:10.999Z</time></trkpt><trkpt lat="42.63661989234704" lon="11.994554594592627"><ele>319.0</ele><time>2026-04-18T16:37:11.999Z</time></trkpt><trkpt lat="42.63677544844425" lon="11.994442086289077"><ele>319.0</ele><time>2026-04-18T16:37:12.999Z</time></trkpt><trkpt lat="42.63691718612383" lon="11.994320037362158"><ele>319.0</ele><time>2026-04-18T16:37:13.999Z</time></trkpt><trkpt lat="42.63704757622729" lon="11.994194629352991"><ele>318.5</ele><time>2026-04-18T16:37:14.999Z</time></trkpt><trkpt lat="42.63717422144969" lon="11.994085147655671"><ele>318.0</ele><time>2026-04-18T16:37:15.999Z</time></trkpt><trkpt lat="42.63729700122633" lon="11.993978968061278"><ele>317.5</ele><time>2026-04-18T16:37:17Z</time></trkpt><trkpt lat="42.637419024658726" lon="11.993869903155392"><ele>317.0</ele><time>2026-04-18T16:37:18Z</time></trkpt><trkpt lat="42.63753985302278" lon="11.99376146946177"><ele>317.0</ele><time>2026-04-18T16:37:19Z</time></trkpt><trkpt lat="42.637655005227465" lon="11.993658355012673"><ele>317.0</ele><time>2026-04-18T16:37:20Z</time></trkpt><trkpt lat="42.63776844940364" lon="11.993557820917824"><ele>317.0</ele><time>2026-04-18T16:37:21Z</time></trkpt><trkpt lat="42.63788236907141" lon="11.993457065167972"><ele>317.0</ele><time>2026-04-18T16:37:22Z</time></trkpt><trkpt lat="42.637996284668674" lon="11.993360983093256"><ele>317.5</ele><time>2026-04-18T16:37:23Z</time></trkpt><trkpt lat="42.638112930144786" lon="11.993267119893586"><ele>318.0</ele><time>2026-04-18T16:37:24Z</time></trkpt><trkpt lat="42.638231226811754" lon="11.993179642939342"><ele>318.5</ele><time>2026-04-18T16:37:25Z</time></trkpt><trkpt lat="42.63835190022296" lon="11.993093271930821"><ele>319.0</ele><time>2026-04-18T16:37:26Z</time></trkpt><trkpt lat="42.638474508520396" lon="11.993001099348573"><ele>319.0</ele><time>2026-04-18T16:37:27Z</time></trkpt><trkpt lat="42.63858633773431" lon="11.99289435978703"><ele>319.0</ele><time>2026-04-18T16:37:28Z</time></trkpt><trkpt lat="42.63868849548972" lon="11.992769700525876"><ele>319.0</ele><time>2026-04-18T16:37:29Z</time></trkpt><trkpt lat="42.6387914411269" lon="11.992639865747462"><ele>319.0</ele><time>2026-04-18T16:37:30Z</time></trkpt><trkpt lat="42.638897978055205" lon="11.992508700632952"><ele>320.0</ele><time>2026-04-18T16:37:31Z</time></trkpt><trkpt lat="42.638998699450994" lon="11.992383766800623"><ele>321.0</ele><time>2026-04-18T16:37:32Z</time></trkpt><trkpt lat="42.639092609902264" lon="11.992263512100127"><ele>322.0</ele><time>2026-04-18T16:37:33Z</time></trkpt><trkpt lat="42.63918634420342" lon="11.992139662866222"><ele>323.0</ele><time>2026-04-18T16:37:34Z</time></trkpt><trkpt lat="42.639276978197394" lon="11.992018858945572"><ele>323.0</ele><time>2026-04-18T16:37:35Z</time></trkpt><trkpt lat="42.6393705367058" lon="11.991902948203768"><ele>323.0</ele><time>2026-04-18T16:37:36Z</time></trkpt><trkpt lat="42.63945691378461" lon="11.991792778986074"><ele>323.0</ele><time>2026-04-18T16:37:37Z</time></trkpt><trkpt lat="42.63954227154867" lon="11.991693176607583"><ele>323.0</ele><time>2026-04-18T16:37:38Z</time></trkpt><trkpt lat="42.6396230305711" lon="11.991604802483234"><ele>322.4</ele><time>2026-04-18T16:37:39Z</time></trkpt><trkpt lat="42.639704584232994" lon="11.99152170605219"><ele>321.79999999999995</ele><time>2026-04-18T16:37:40Z</time></trkpt><trkpt lat="42.639789227836346" lon="11.991441603178398"><ele>321.2</ele><time>2026-04-18T16:37:41Z</time></trkpt><trkpt lat="42.639874433555384" lon="11.991373339885826"><ele>320.6</ele><time>2026-04-18T16:37:42Z</time></trkpt><trkpt lat="42.63995905048534" lon="11.99130409875465"><ele>320.0</ele><time>2026-04-18T16:37:43Z</time></trkpt><trkpt lat="42.64004276568558" lon="11.991234120917392"><ele>320.0</ele><time>2026-04-18T16:37:44Z</time></trkpt><trkpt lat="42.64012802611505" lon="11.991166902326734"><ele>320.0</ele><time>2026-04-18T16:37:45Z</time></trkpt><trkpt lat="42.64021236192451" lon="11.991097913931533"><ele>320.0</ele><time>2026-04-18T16:37:46Z</time></trkpt><trkpt lat="42.640298766333785" lon="11.991026630398478"><ele>320.0</ele><time>2026-04-18T16:37:47Z</time></trkpt><trkpt lat="42.64038444822467" lon="11.990955108074509"><ele>320.0</ele><time>2026-04-18T16:37:48Z</time></trkpt><trkpt lat="42.64046946734776" lon="11.990891375165345"><ele>320.0</ele><time>2026-04-18T16:37:49Z</time></trkpt><trkpt lat="42.64054923355449" lon="11.990831390252026"><ele>320.0</ele><time>2026-04-18T16:37:50Z</time></trkpt><trkpt lat="42.640626207415565" lon="11.990772244415147"><ele>320.0</ele><time>2026-04-18T16:37:51Z</time></trkpt><trkpt lat="42.64070413047234" lon="11.990713289791676"><ele>320.0</ele><time>2026-04-18T16:37:52Z</time></trkpt><trkpt lat="42.6407812394254" lon="11.990651560895595"><ele>320.0</ele><time>2026-04-18T16:37:53Z</time></trkpt><trkpt lat="42.64085228566316" lon="11.990594088729955"><ele>320.0</ele><time>2026-04-18T16:37:54Z</time></trkpt><trkpt lat="42.6409187641242" lon="11.990541454843116"><ele>320.0</ele><time>2026-04-18T16:37:55Z</time></trkpt><trkpt lat="42.640982026749455" lon="11.990488239921989"><ele>320.0</ele><time>2026-04-18T16:37:56Z</time></trkpt><trkpt lat="42.64105041361854" lon="11.990422773330824"><ele>320.0</ele><time>2026-04-18T16:37:57Z</time></trkpt><trkpt lat="42.64111603856777" lon="11.990351752656778"><ele>320.0</ele><time>2026-04-18T16:37:58Z</time></trkpt><trkpt lat="42.64117955769954" lon="11.99028293927708"><ele>320.0</ele><time>2026-04-18T16:37:59Z</time></trkpt><trkpt lat="42.64123501691072" lon="11.990208274489111"><ele>320.0</ele><time>2026-04-18T16:38:00Z</time></trkpt><trkpt lat="42.64128737641951" lon="11.990124820715915"><ele>320.0</ele><time>2026-04-18T16:38:01Z</time></trkpt><trkpt lat="42.641343888203465" lon="11.990033675721147"><ele>320.0</ele><time>2026-04-18T16:38:02Z</time></trkpt><trkpt lat="42.64140379114385" lon="11.989938190196622"><ele>320.0</ele><time>2026-04-18T16:38:03Z</time></trkpt><trkpt lat="42.641463947713014" lon="11.989839350652254"><ele>320.0</ele><time>2026-04-18T16:38:04Z</time></trkpt><trkpt lat="42.64151956921581" lon="11.989742870495789"><ele>320.0</ele><time>2026-04-18T16:38:05Z</time></trkpt><trkpt lat="42.641574259463226" lon="11.989644265826596"><ele>320.0</ele><time>2026-04-18T16:38:06Z</time></trkpt><trkpt lat="42.64163550406935" lon="11.98953889149446"><ele>320.0</ele><time>2026-04-18T16:38:07Z</time></trkpt><trkpt lat="42.641696901233594" lon="11.989433154337126"><ele>320.0</ele><time>2026-04-18T16:38:08Z</time></trkpt><trkpt lat="42.64175763168741" lon="11.989324220052909"><ele>320.0</ele><time>2026-04-18T16:38:09Z</time></trkpt><trkpt lat="42.64181820538075" lon="11.989213138584413"><ele>320.0</ele><time>2026-04-18T16:38:10Z</time></trkpt><trkpt lat="42.641881232978974" lon="11.98910087006912"><ele>319.8</ele><time>2026-04-18T16:38:11Z</time></trkpt><trkpt lat="42.64194537033231" lon="11.98898927055331"><ele>319.6</ele><time>2026-04-18T16:38:12Z</time></trkpt><trkpt lat="42.642011954451476" lon="11.988887930405191"><ele>319.4</ele><time>2026-04-18T16:38:13Z</time></trkpt><trkpt lat="42.642077191677515" lon="11.988782768630806"><ele>319.2</ele><time>2026-04-18T16:38:14Z</time></trkpt><trkpt lat="42.64214367171798" lon="11.988681693015149"><ele>319.0</ele><time>2026-04-18T16:38:15Z</time></trkpt><trkpt lat="42.64221345330003" lon="11.988583906755444"><ele>319.0</ele><time>2026-04-18T16:38:16Z</time></trkpt><trkpt lat="42.64228428088595" lon="11.988488698556411"><ele>319.0</ele><time>2026-04-18T16:38:17Z</time></trkpt><trkpt lat="42.64235943124944" lon="11.988402226446826"><ele>319.0</ele><time>2026-04-18T16:38:18Z</time></trkpt><trkpt lat="42.64243709454375" lon="11.988318113986066"><ele>319.0</ele><time>2026-04-18T16:38:19Z</time></trkpt><trkpt lat="42.642515069827475" lon="11.988236487267882"><ele>319.0</ele><time>2026-04-18T16:38:20Z</time></trkpt><trkpt lat="42.64259344220949" lon="11.988154332004296"><ele>319.3333333333333</ele><time>2026-04-18T16:38:21Z</time></trkpt><trkpt lat="42.64267114870854" lon="11.988073416639653"><ele>319.66666666666663</ele><time>2026-04-18T16:38:22.001Z</time></trkpt><trkpt lat="42.64274336294073" lon="11.98799823267104"><ele>320.0</ele><time>2026-04-18T16:38:23.001Z</time></trkpt><trkpt lat="42.64281185313855" lon="11.987926980537022"><ele>320.3333333333333</ele><time>2026-04-18T16:38:24.001Z</time></trkpt><trkpt lat="42.642881630422536" lon="11.987855233661586"><ele>320.6666666666667</ele><time>2026-04-18T16:38:25.001Z</time></trkpt><trkpt lat="42.64294933382033" lon="11.987785905596"><ele>321.0</ele><time>2026-04-18T16:38:26.001Z</time></trkpt><trkpt lat="42.64301447984884" lon="11.987719885990124"><ele>321.0</ele><time>2026-04-18T16:38:27.001Z</time></trkpt><trkpt lat="42.64306934196745" lon="11.987664146025848"><ele>321.0</ele><time>2026-04-18T16:38:28.001Z</time></trkpt><trkpt lat="42.6431194636667" lon="11.987611571167376"><ele>321.0</ele><time>2026-04-18T16:38:29.001Z</time></trkpt><trkpt lat="42.643206394476366" lon="11.98752020480574"><ele>321.0</ele><time>2026-04-18T16:38:31.001Z</time></trkpt><trkpt lat="42.64329159024897" lon="11.987431109527265"><ele>321.0</ele><time>2026-04-18T16:38:33.001Z</time></trkpt><trkpt lat="42.643365309190415" lon="11.987352110432445"><ele>321.0</ele><time>2026-04-18T16:38:34.999Z</time></trkpt><trkpt lat="42.64342229136309" lon="11.987289822249878"><ele>320.40000000000003</ele><time>2026-04-18T16:38:36.999Z</time></trkpt><trkpt lat="42.643481708336274" lon="11.987220356238707"><ele>319.8</ele><time>2026-04-18T16:38:38.999Z</time></trkpt><trkpt lat="42.643562190570755" lon="11.98712399609507"><ele>319.20000000000005</ele><time>2026-04-18T16:38:40.999Z</time></trkpt><trkpt lat="42.643650657180714" lon="11.987028296491397"><ele>318.6</ele><time>2026-04-18T16:38:42.999Z</time></trkpt><trkpt lat="42.643721515770395" lon="11.986946310900224"><ele>318.0</ele><time>2026-04-18T16:38:44.999Z</time></trkpt><trkpt lat="42.64380342150242" lon="11.98684456097138"><ele>318.4</ele><time>2026-04-18T16:38:46.999Z</time></trkpt><trkpt lat="42.64389874894573" lon="11.986765466019934"><ele>318.8</ele><time>2026-04-18T16:38:48.999Z</time></trkpt><trkpt lat="42.64396325137255" lon="11.98666547340578"><ele>319.2</ele><time>2026-04-18T16:38:50.999Z</time></trkpt><trkpt lat="42.64402219937942" lon="11.98659884226727"><ele>319.6</ele><time>2026-04-18T16:39:06Z</time></trkpt><trkpt lat="42.644074522729575" lon="11.986550311323871"><ele>320.0</ele><time>2026-04-18T16:39:20Z</time></trkpt><trkpt lat="42.64417886337646" lon="11.986563417899132"><ele>320.0</ele><time>2026-04-18T16:39:22Z</time></trkpt><trkpt lat="42.64422006100157" lon="11.986644903164873"><ele>320.0</ele><time>2026-04-18T16:39:23Z</time></trkpt><trkpt lat="42.64428107471633" lon="11.986698933007554"><ele>320.0</ele><time>2026-04-18T16:39:24Z</time></trkpt><trkpt lat="42.644345894837905" lon="11.986811413360993"><ele>320.0</ele><time>2026-04-18T16:39:26Z</time></trkpt><trkpt lat="42.64441863492348" lon="11.986937361378466"><ele>320.0</ele><time>2026-04-18T16:39:28Z</time></trkpt><trkpt lat="42.64447556910903" lon="11.987026834556676"><ele>320.6666666666667</ele><time>2026-04-18T16:39:30Z</time></trkpt><trkpt lat="42.64450971807044" lon="11.987117759753609"><ele>321.33333333333337</ele><time>2026-04-18T16:39:33Z</time></trkpt><trkpt lat="42.6445186735973" lon="11.987209956954104"><ele>322.0</ele><time>2026-04-18T16:39:36Z</time></trkpt><trkpt lat="42.644503233237444" lon="11.987305122236219"><ele>322.6666666666667</ele><time>2026-04-18T16:39:39Z</time></trkpt><trkpt lat="42.644477435730316" lon="11.987389573978579"><ele>323.3333333333333</ele><time>2026-04-18T16:39:41.001Z</time></trkpt><trkpt lat="42.644460713515045" lon="11.98749569561315"><ele>324.0</ele><time>2026-04-18T16:39:42.001Z</time></trkpt><trkpt lat="42.64444119883181" lon="11.987641200216178"><ele>324.6</ele><time>2026-04-18T16:39:43.001Z</time></trkpt><trkpt lat="42.644403416168565" lon="11.987778573786718"><ele>325.2</ele><time>2026-04-18T16:39:44.001Z</time></trkpt><trkpt lat="42.644412244018916" lon="11.987912029549015"><ele>325.8</ele><time>2026-04-18T16:39:45.001Z</time></trkpt><trkpt lat="42.64444253331502" lon="11.988016385747366"><ele>326.40000000000003</ele><time>2026-04-18T16:39:46.001Z</time></trkpt><trkpt lat="42.644566311417044" lon="11.98808087630319"><ele>327.0</ele><time>2026-04-18T16:39:47.001Z</time></trkpt><trkpt lat="42.64466287884337" lon="11.988105321384994"><ele>329.5</ele><time>2026-04-18T16:39:48.001Z</time></trkpt><trkpt lat="42.644765336378434" lon="11.988043258764032"><ele>332.0</ele><time>2026-04-18T16:39:49.001Z</time></trkpt><trkpt lat="42.64486265626111" lon="11.987941360510886"><ele>334.5</ele><time>2026-04-18T16:39:50.001Z</time></trkpt><trkpt lat="42.644970579305095" lon="11.987791094920182"><ele>337.0</ele><time>2026-04-18T16:39:51.001Z</time></trkpt><trkpt lat="42.64506172357495" lon="11.987676316477204"><ele>337.0</ele><time>2026-04-18T16:39:52.001Z</time></trkpt><trkpt lat="42.64514706548007" lon="11.987604194987528"><ele>337.0</ele><time>2026-04-18T16:39:53.001Z</time></trkpt><trkpt lat="42.64521997564347" lon="11.987550862072917"><ele>337.0</ele><time>2026-04-18T16:39:54.001Z</time></trkpt><trkpt lat="42.64530999179406" lon="11.987553775212412"><ele>337.0</ele><time>2026-04-18T16:39:55.001Z</time></trkpt><trkpt lat="42.645381405097346" lon="11.987598091256043"><ele>337.0</ele><time>2026-04-18T16:39:56.001Z</time></trkpt><trkpt lat="42.6454276979601" lon="11.987691473970198"><ele>337.0</ele><time>2026-04-18T16:39:57.001Z</time></trkpt><trkpt lat="42.64544954810929" lon="11.987834256347746"><ele>338.6</ele><time>2026-04-18T16:39:58.001Z</time></trkpt><trkpt lat="42.645532677144736" lon="11.987930660450672"><ele>340.20000000000005</ele><time>2026-04-18T16:39:59.001Z</time></trkpt><trkpt lat="42.64564631941265" lon="11.987993411654083"><ele>341.8</ele><time>2026-04-18T16:40:00.001Z</time></trkpt><trkpt lat="42.645745808303566" lon="11.98796982230533"><ele>343.4</ele><time>2026-04-18T16:40:01.001Z</time></trkpt><trkpt lat="42.6458105547242" lon="11.987893616171819"><ele>345.0</ele><time>2026-04-18T16:40:02.001Z</time></trkpt><trkpt lat="42.64584633821689" lon="11.987770842401199"><ele>345.0</ele><time>2026-04-18T16:40:03.001Z</time></trkpt><trkpt lat="42.64583257614032" lon="11.987611588668829"><ele>345.0</ele><time>2026-04-18T16:40:04.001Z</time></trkpt><trkpt lat="42.645800870315554" lon="11.987448026454922"><ele>345.0</ele><time>2026-04-18T16:40:05.001Z</time></trkpt><trkpt lat="42.64580404231739" lon="11.987313600779164"><ele>345.0</ele><time>2026-04-18T16:40:06.001Z</time></trkpt><trkpt lat="42.645859200768456" lon="11.987251335802926"><ele>345.0</ele><time>2026-04-18T16:40:07.001Z</time></trkpt><trkpt lat="42.645944708980124" lon="11.987212220564945"><ele>345.0</ele><time>2026-04-18T16:40:08.001Z</time></trkpt><trkpt lat="42.64602709080399" lon="11.987248652582252"><ele>345.0</ele><time>2026-04-18T16:40:09.001Z</time></trkpt><trkpt lat="42.64608010835387" lon="11.987351410590463"><ele>345.0</ele><time>2026-04-18T16:40:10.001Z</time></trkpt><trkpt lat="42.64609213322318" lon="11.987502833499088"><ele>345.0</ele><time>2026-04-18T16:40:11.001Z</time></trkpt><trkpt lat="42.64605804592598" lon="11.987689897248194"><ele>345.0</ele><time>2026-04-18T16:40:12.001Z</time></trkpt><trkpt lat="42.6460403621562" lon="11.987916119101875"><ele>345.0</ele><time>2026-04-18T16:40:13.001Z</time></trkpt><trkpt lat="42.64603270949889" lon="11.988083026272959"><ele>345.0</ele><time>2026-04-18T16:40:14.001Z</time></trkpt><trkpt lat="42.646073075659736" lon="11.988220766851606"><ele>345.0</ele><time>2026-04-18T16:40:15.001Z</time></trkpt><trkpt lat="42.646154841715735" lon="11.988333778894956"><ele>345.0</ele><time>2026-04-18T16:40:16.001Z</time></trkpt><trkpt lat="42.64626234455966" lon="11.988440970963447"><ele>349.5</ele><time>2026-04-18T16:40:17.001Z</time></trkpt><trkpt lat="42.646380136032825" lon="11.988556466369703"><ele>354.0</ele><time>2026-04-18T16:40:18.001Z</time></trkpt><trkpt lat="42.64648568397286" lon="11.988659381484885"><ele>358.5</ele><time>2026-04-18T16:40:19.001Z</time></trkpt><trkpt lat="42.64658234452292" lon="11.98869027426801"><ele>363.0</ele><time>2026-04-18T16:40:20.001Z</time></trkpt><trkpt lat="42.64668321726814" lon="11.988654976345785"><ele>363.0</ele><time>2026-04-18T16:40:21.001Z</time></trkpt><trkpt lat="42.64674928541245" lon="11.988546153258623"><ele>363.0</ele><time>2026-04-18T16:40:22.001Z</time></trkpt><trkpt lat="42.64677000490769" lon="11.98841840333701"><ele>363.0</ele><time>2026-04-18T16:40:23.001Z</time></trkpt><trkpt lat="42.64674233432105" lon="11.988291981134953"><ele>363.0</ele><time>2026-04-18T16:40:24.001Z</time></trkpt><trkpt lat="42.64667905444138" lon="11.988187852601305"><ele>363.0</ele><time>2026-04-18T16:40:25.001Z</time></trkpt><trkpt lat="42.64655903609466" lon="11.98807959293701"><ele>361.25</ele><time>2026-04-18T16:40:26.001Z</time></trkpt><trkpt lat="42.64643657433294" lon="11.98797190072916"><ele>359.5</ele><time>2026-04-18T16:40:27.001Z</time></trkpt><trkpt lat="42.64636095242255" lon="11.987860073241453"><ele>357.75</ele><time>2026-04-18T16:40:28.001Z</time></trkpt><trkpt lat="42.64633404199333" lon="11.987733463039431"><ele>356.0</ele><time>2026-04-18T16:40:29.001Z</time></trkpt><trkpt lat="42.646311742687544" lon="11.987526838037276"><ele>357.6666666666667</ele><time>2026-04-18T16:40:30.001Z</time></trkpt><trkpt lat="42.646293161258505" lon="11.987291040215592"><ele>359.3333333333333</ele><time>2026-04-18T16:40:31.001Z</time></trkpt><trkpt lat="42.6462726100233" lon="11.98708457494888"><ele>361.0</ele><time>2026-04-18T16:40:32.001Z</time></trkpt><trkpt lat="42.64625511858927" lon="11.986906825114266"><ele>361.0</ele><time>2026-04-18T16:40:33.001Z</time></trkpt><trkpt lat="42.646244687056324" lon="11.986746334888027"><ele>361.0</ele><time>2026-04-18T16:40:34.001Z</time></trkpt><trkpt lat="42.64625147075213" lon="11.986582439083012"><ele>361.0</ele><time>2026-04-18T16:40:35.001Z</time></trkpt><trkpt lat="42.64627442895154" lon="11.986416752861889"><ele>361.0</ele><time>2026-04-18T16:40:36.001Z</time></trkpt><trkpt lat="42.646299252164454" lon="11.986247519941031"><ele>361.0</ele><time>2026-04-18T16:40:37.001Z</time></trkpt><trkpt lat="42.64631342512897" lon="11.986114012729454"><ele>361.0</ele><time>2026-04-18T16:40:38.001Z</time></trkpt><trkpt lat="42.64632455069762" lon="11.985996010701799"><ele>361.0</ele><time>2026-04-18T16:40:39.002Z</time></trkpt><trkpt lat="42.64634534215676" lon="11.985873918130872"><ele>361.0</ele><time>2026-04-18T16:40:41Z</time></trkpt><trkpt lat="42.64638817307871" lon="11.985807194125366"><ele>361.0</ele><time>2026-04-18T16:40:43Z</time></trkpt><trkpt lat="42.64642404151799" lon="11.985727995961364"><ele>361.0</ele><time>2026-04-18T16:40:46Z</time></trkpt><trkpt lat="42.64633822991437" lon="11.985701634477987"><ele>361.0</ele><time>2026-04-18T16:42:03.001Z</time></trkpt><trkpt lat="42.646299582829705" lon="11.985780019605391"><ele>361.0</ele><time>2026-04-18T16:42:11.001Z</time></trkpt><trkpt lat="42.646269386378414" lon="11.985885315786348"><ele>361.0</ele><time>2026-04-18T16:42:19.001Z</time></trkpt><trkpt lat="42.646308083811164" lon="11.98581092262613"><ele>361.0</ele><time>2026-04-18T16:42:36.002Z</time></trkpt><trkpt lat="42.646434330272854" lon="11.98582954233686"><ele>361.0</ele><time>2026-04-18T16:48:55.001Z</time></trkpt><trkpt lat="42.64636882602543" lon="11.985832734911327"><ele>361.0</ele><time>2026-04-18T16:49:09.002Z</time></trkpt><trkpt lat="42.64629401903815" lon="11.985820026882084"><ele>361.0</ele><time>2026-04-18T16:49:35.001Z</time></trkpt><trkpt lat="42.64638396587274" lon="11.985822462524242"><ele>361.0</ele><time>2026-04-18T16:51:48Z</time></trkpt><trkpt lat="42.646316064164" lon="11.98582748072615"><ele>361.0</ele><time>2026-04-18T16:52:54Z</time></trkpt><trkpt lat="42.64625591243441" lon="11.985856787580824"><ele>361.0</ele><time>2026-04-18T16:56:46Z</time></trkpt><trkpt lat="42.646184414308" lon="11.985832713495077"><ele>361.0</ele><time>2026-04-18T17:01:47Z</time></trkpt><trkpt lat="42.646262260791346" lon="11.98577901211372"><ele>361.0</ele><time>2026-04-18T17:06:04Z</time></trkpt><trkpt lat="42.64628710344772" lon="11.985693987322408"><ele>361.0</ele><time>2026-04-18T17:06:52Z</time></trkpt><trkpt lat="42.64634866379186" lon="11.98564590082692"><ele>361.0</ele><time>2026-04-18T17:09:11Z</time></trkpt><trkpt lat="42.64639498659348" lon="11.98572789427423"><ele>361.0</ele><time>2026-04-18T17:09:22Z</time></trkpt><trkpt lat="42.646351861873484" lon="11.985804404574258"><ele>361.0</ele><time>2026-04-18T17:09:24Z</time></trkpt><trkpt lat="42.64630989267768" lon="11.985914250576174"><ele>361.0</ele><time>2026-04-18T17:09:25Z</time></trkpt><trkpt lat="42.64629910887953" lon="11.986072685322021"><ele>361.0</ele><time>2026-04-18T17:09:26Z</time></trkpt><trkpt lat="42.646280877688845" lon="11.986227748502534"><ele>361.0</ele><time>2026-04-18T17:09:27Z</time></trkpt><trkpt lat="42.646259984411465" lon="11.986384269469543"><ele>361.0</ele><time>2026-04-18T17:09:28Z</time></trkpt><trkpt lat="42.64623588079874" lon="11.986521100984298"><ele>361.0</ele><time>2026-04-18T17:09:29Z</time></trkpt><trkpt lat="42.64621672294175" lon="11.986654060142797"><ele>361.0</ele><time>2026-04-18T17:09:30Z</time></trkpt><trkpt lat="42.6461980389713" lon="11.986785483628744"><ele>361.0</ele><time>2026-04-18T17:09:31Z</time></trkpt><trkpt lat="42.64623344043541" lon="11.986942439087494"><ele>361.0</ele><time>2026-04-18T17:09:32Z</time></trkpt><trkpt lat="42.646254592099474" lon="11.987108998175461"><ele>361.0</ele><time>2026-04-18T17:09:33Z</time></trkpt><trkpt lat="42.646253757783725" lon="11.987266280645207"><ele>361.0</ele><time>2026-04-18T17:09:34Z</time></trkpt><trkpt lat="42.64626652500977" lon="11.987402648619833"><ele>361.0</ele><time>2026-04-18T17:09:35Z</time></trkpt><trkpt lat="42.64628288346174" lon="11.98750942045439"><ele>361.0</ele><time>2026-04-18T17:09:36Z</time></trkpt><trkpt lat="42.64628882693003" lon="11.98763686892364"><ele>360.0</ele><time>2026-04-18T17:09:37Z</time></trkpt><trkpt lat="42.64630402498271" lon="11.987752161010034"><ele>359.0</ele><time>2026-04-18T17:09:37.999Z</time></trkpt><trkpt lat="42.64633366607695" lon="11.987860575748154"><ele>358.0</ele><time>2026-04-18T17:09:38.999Z</time></trkpt><trkpt lat="42.64638378875817" lon="11.987978570938338"><ele>357.0</ele><time>2026-04-18T17:09:39.999Z</time></trkpt><trkpt lat="42.64646444161351" lon="11.988063517836302"><ele>356.0</ele><time>2026-04-18T17:09:40.999Z</time></trkpt><trkpt lat="42.646530482140854" lon="11.988121602826633"><ele>356.0</ele><time>2026-04-18T17:09:41.999Z</time></trkpt><trkpt lat="42.64658605331364" lon="11.988173559820956"><ele>356.0</ele><time>2026-04-18T17:09:42.999Z</time></trkpt><trkpt lat="42.64663779646853" lon="11.98822445946617"><ele>356.0</ele><time>2026-04-18T17:09:43.999Z</time></trkpt><trkpt lat="42.64669401914096" lon="11.988266357477137"><ele>356.0</ele><time>2026-04-18T17:09:44.999Z</time></trkpt><trkpt lat="42.64672653625152" lon="11.988346409981988"><ele>356.0</ele><time>2026-04-18T17:09:45.999Z</time></trkpt><trkpt lat="42.64671365827577" lon="11.98851105124151"><ele>356.0</ele><time>2026-04-18T17:09:47.999Z</time></trkpt><trkpt lat="42.64661130196748" lon="11.98860760083543"><ele>356.0</ele><time>2026-04-18T17:09:49.999Z</time></trkpt><trkpt lat="42.64653223938604" lon="11.98860213454538"><ele>356.0</ele><time>2026-04-18T17:09:50.999Z</time></trkpt><trkpt lat="42.64645896321897" lon="11.988571923191145"><ele>356.0</ele><time>2026-04-18T17:09:51.999Z</time></trkpt><trkpt lat="42.64639342905066" lon="11.988528650464994"><ele>356.0</ele><time>2026-04-18T17:09:52.999Z</time></trkpt><trkpt lat="42.64633379915787" lon="11.988466279304546"><ele>356.0</ele><time>2026-04-18T17:09:53.999Z</time></trkpt><trkpt lat="42.64628070661522" lon="11.98839876459836"><ele>356.0</ele><time>2026-04-18T17:09:54.999Z</time></trkpt><trkpt lat="42.64622000416898" lon="11.988333680011072"><ele>356.0</ele><time>2026-04-18T17:09:55.999Z</time></trkpt><trkpt lat="42.64616773798341" lon="11.988251077028298"><ele>356.0</ele><time>2026-04-18T17:09:56.999Z</time></trkpt><trkpt lat="42.64611776871524" lon="11.988191931910679"><ele>356.0</ele><time>2026-04-18T17:09:57.999Z</time></trkpt><trkpt lat="42.64606646965229" lon="11.988134448781093"><ele>356.0</ele><time>2026-04-18T17:09:58.999Z</time></trkpt><trkpt lat="42.646047182689294" lon="11.987993638410314"><ele>356.0</ele><time>2026-04-18T17:10:00.999Z</time></trkpt><trkpt lat="42.64605969361427" lon="11.987870477742755"><ele>356.0</ele><time>2026-04-18T17:10:02.999Z</time></trkpt><trkpt lat="42.6460754713192" lon="11.987721816841058"><ele>353.8</ele><time>2026-04-18T17:10:05Z</time></trkpt><trkpt lat="42.64611170279211" lon="11.987544781522205"><ele>351.6</ele><time>2026-04-18T17:10:07Z</time></trkpt><trkpt lat="42.646116170273345" lon="11.987453861867687"><ele>349.4</ele><time>2026-04-18T17:10:08Z</time></trkpt><trkpt lat="42.64611397549295" lon="11.987363691250723"><ele>347.2</ele><time>2026-04-18T17:10:09Z</time></trkpt><trkpt lat="42.646057767738554" lon="11.987216044881896"><ele>345.0</ele><time>2026-04-18T17:10:11Z</time></trkpt><trkpt lat="42.64595071287776" lon="11.987162671048958"><ele>345.0</ele><time>2026-04-18T17:10:13Z</time></trkpt><trkpt lat="42.64588025746455" lon="11.98715762407018"><ele>345.0</ele><time>2026-04-18T17:10:14Z</time></trkpt><trkpt lat="42.64581133536253" lon="11.98719379087027"><ele>345.0</ele><time>2026-04-18T17:10:15Z</time></trkpt><trkpt lat="42.645759827335354" lon="11.98726529477247"><ele>345.0</ele><time>2026-04-18T17:10:16Z</time></trkpt><trkpt lat="42.645738963769176" lon="11.987361667050468"><ele>345.0</ele><time>2026-04-18T17:10:17Z</time></trkpt><trkpt lat="42.64574845076325" lon="11.987512041111719"><ele>345.0</ele><time>2026-04-18T17:10:19Z</time></trkpt><trkpt lat="42.645775578399146" lon="11.98764934980156"><ele>345.0</ele><time>2026-04-18T17:10:21Z</time></trkpt><trkpt lat="42.6457772098227" lon="11.987792740464954"><ele>345.0</ele><time>2026-04-18T17:10:23Z</time></trkpt><trkpt lat="42.645719383291535" lon="11.987910611981103"><ele>345.0</ele><time>2026-04-18T17:10:25Z</time></trkpt><trkpt lat="42.64561670898984" lon="11.987920331845686"><ele>345.0</ele><time>2026-04-18T17:10:27Z</time></trkpt><trkpt lat="42.64551955296262" lon="11.987889996785219"><ele>345.0</ele><time>2026-04-18T17:10:29Z</time></trkpt><trkpt lat="42.645455207815715" lon="11.987768802907278"><ele>345.0</ele><time>2026-04-18T17:10:31Z</time></trkpt><trkpt lat="42.64540268957702" lon="11.987626947170947"><ele>345.0</ele><time>2026-04-18T17:10:33Z</time></trkpt><trkpt lat="42.645297413496415" lon="11.9875357925157"><ele>345.0</ele><time>2026-04-18T17:10:35Z</time></trkpt><trkpt lat="42.645165304100594" lon="11.98755428225824"><ele>345.0</ele><time>2026-04-18T17:10:37Z</time></trkpt><trkpt lat="42.64507502553166" lon="11.987621487923814"><ele>343.4</ele><time>2026-04-18T17:10:38Z</time></trkpt><trkpt lat="42.644977383460386" lon="11.98772210250222"><ele>341.8</ele><time>2026-04-18T17:10:39Z</time></trkpt><trkpt lat="42.64489109675348" lon="11.987824104231647"><ele>340.20000000000005</ele><time>2026-04-18T17:10:40Z</time></trkpt><trkpt lat="42.644815269339986" lon="11.987911064990202"><ele>338.6</ele><time>2026-04-18T17:10:41Z</time></trkpt><trkpt lat="42.64475189964623" lon="11.98797804538491"><ele>337.0</ele><time>2026-04-18T17:10:42Z</time></trkpt><trkpt lat="42.64469498589587" lon="11.988031263313248"><ele>337.0</ele><time>2026-04-18T17:10:43Z</time></trkpt><trkpt lat="42.644575543327235" lon="11.988028346124308"><ele>337.0</ele><time>2026-04-18T17:10:45Z</time></trkpt><trkpt lat="42.64451591567221" lon="11.987983198670502"><ele>337.0</ele><time>2026-04-18T17:10:46Z</time></trkpt><trkpt lat="42.644440144590384" lon="11.987866168780677"><ele>337.0</ele><time>2026-04-18T17:10:48Z</time></trkpt><trkpt lat="42.64443436440353" lon="11.987730517346792"><ele>337.0</ele><time>2026-04-18T17:10:50Z</time></trkpt><trkpt lat="42.64444955421426" lon="11.98763639606952"><ele>337.0</ele><time>2026-04-18T17:10:52Z</time></trkpt><trkpt lat="42.644475186376205" lon="11.987526211960995"><ele>337.0</ele><time>2026-04-18T17:10:54Z</time></trkpt><trkpt lat="42.64450734419328" lon="11.987443030149045"><ele>337.0</ele><time>2026-04-18T17:10:56Z</time></trkpt><trkpt lat="42.644550354101355" lon="11.98726023788584"><ele>337.0</ele><time>2026-04-18T17:10:58Z</time></trkpt><trkpt lat="42.64457327381598" lon="11.987160918367932"><ele>337.0</ele><time>2026-04-18T17:10:59Z</time></trkpt><trkpt lat="42.64450818593929" lon="11.987027646309977"><ele>334.8333333333333</ele><time>2026-04-18T17:11:00Z</time></trkpt><trkpt lat="42.6444390846451" lon="11.986947614494536"><ele>332.66666666666663</ele><time>2026-04-18T17:11:01Z</time></trkpt><trkpt lat="42.64440286369522" lon="11.986858478489765"><ele>330.5</ele><time>2026-04-18T17:11:02Z</time></trkpt><trkpt lat="42.6443503822461" lon="11.98675293027046"><ele>328.3333333333333</ele><time>2026-04-18T17:11:04Z</time></trkpt><trkpt lat="42.64429363691676" lon="11.986695329326848"><ele>326.1666666666667</ele><time>2026-04-18T17:11:08Z</time></trkpt><trkpt lat="42.644247588903305" lon="11.986574170413304"><ele>324.0</ele><time>2026-04-18T17:11:11Z</time></trkpt><trkpt lat="42.64422827800523" lon="11.98647441312111"><ele>323.2</ele><time>2026-04-18T17:11:14Z</time></trkpt><trkpt lat="42.644254940781146" lon="11.9863333521493"><ele>322.4</ele><time>2026-04-18T17:11:22Z</time></trkpt><trkpt lat="42.644215508874346" lon="11.986244644986856"><ele>321.6</ele><time>2026-04-18T17:11:23Z</time></trkpt><trkpt lat="42.644290603694145" lon="11.986116237236608"><ele>320.8</ele><time>2026-04-18T17:11:24Z</time></trkpt><trkpt lat="42.64431206332421" lon="11.985988078007546"><ele>320.0</ele><time>2026-04-18T17:11:25Z</time></trkpt><trkpt lat="42.64433518106937" lon="11.985881469019887"><ele>319.5</ele><time>2026-04-18T17:11:26Z</time></trkpt><trkpt lat="42.644384468629674" lon="11.98575212596212"><ele>319.0</ele><time>2026-04-18T17:11:27Z</time></trkpt><trkpt lat="42.6444485462376" lon="11.985624822276302"><ele>318.5</ele><time>2026-04-18T17:11:28Z</time></trkpt><trkpt lat="42.644524219951386" lon="11.985511812687069"><ele>318.0</ele><time>2026-04-18T17:11:29Z</time></trkpt><trkpt lat="42.644610839128966" lon="11.985399797677506"><ele>317.75</ele><time>2026-04-18T17:11:30Z</time></trkpt><trkpt lat="42.64470320372217" lon="11.985290544259618"><ele>317.5</ele><time>2026-04-18T17:11:31Z</time></trkpt><trkpt lat="42.64479191014785" lon="11.98518477058765"><ele>317.25</ele><time>2026-04-18T17:11:32Z</time></trkpt><trkpt lat="42.64487576891709" lon="11.985076604033651"><ele>317.0</ele><time>2026-04-18T17:11:33Z</time></trkpt><trkpt lat="42.64495562232944" lon="11.984964109801933"><ele>317.0</ele><time>2026-04-18T17:11:34Z</time></trkpt><trkpt lat="42.64502917261879" lon="11.984843113944777"><ele>317.0</ele><time>2026-04-18T17:11:35Z</time></trkpt><trkpt lat="42.645094838052636" lon="11.984704669866527"><ele>317.0</ele><time>2026-04-18T17:11:36Z</time></trkpt><trkpt lat="42.6451475406907" lon="11.984554639585266"><ele>317.0</ele><time>2026-04-18T17:11:37Z</time></trkpt><trkpt lat="42.64521352705436" lon="11.984408945270673"><ele>317.75</ele><time>2026-04-18T17:11:38Z</time></trkpt><trkpt lat="42.64529561589765" lon="11.984279903818924"><ele>318.5</ele><time>2026-04-18T17:11:39Z</time></trkpt><trkpt lat="42.64539129395117" lon="11.984151865456264"><ele>319.25</ele><time>2026-04-18T17:11:40Z</time></trkpt><trkpt lat="42.6454974591952" lon="11.98400165315961"><ele>320.0</ele><time>2026-04-18T17:11:41Z</time></trkpt><trkpt lat="42.64560137950496" lon="11.98385450706501"><ele>320.0</ele><time>2026-04-18T17:11:42Z</time></trkpt><trkpt lat="42.64569861230537" lon="11.983714063812457"><ele>320.0</ele><time>2026-04-18T17:11:43Z</time></trkpt><trkpt lat="42.64579809059531" lon="11.983570980915314"><ele>320.0</ele><time>2026-04-18T17:11:44Z</time></trkpt><trkpt lat="42.645902958651945" lon="11.983420694099252"><ele>320.0</ele><time>2026-04-18T17:11:45Z</time></trkpt><trkpt lat="42.64601416723789" lon="11.983271981947627"><ele>320.25</ele><time>2026-04-18T17:11:46Z</time></trkpt><trkpt lat="42.64610581575703" lon="11.983146063418692"><ele>320.5</ele><time>2026-04-18T17:11:47Z</time></trkpt><trkpt lat="42.64619927966436" lon="11.983023877567481"><ele>320.75</ele><time>2026-04-18T17:11:48Z</time></trkpt><trkpt lat="42.64629622306669" lon="11.982890076522365"><ele>321.0</ele><time>2026-04-18T17:11:49Z</time></trkpt><trkpt lat="42.64639473463593" lon="11.982721619181854"><ele>320.6666666666667</ele><time>2026-04-18T17:11:50Z</time></trkpt><trkpt lat="42.64648462695105" lon="11.98250440401021"><ele>320.33333333333337</ele><time>2026-04-18T17:11:51Z</time></trkpt><trkpt lat="42.646569805227706" lon="11.982243702707603"><ele>320.0</ele><time>2026-04-18T17:11:52Z</time></trkpt><trkpt lat="42.64665087564172" lon="11.981946036183095"><ele>319.0</ele><time>2026-04-18T17:11:53Z</time></trkpt><trkpt lat="42.64671669600482" lon="11.981667516627683"><ele>318.0</ele><time>2026-04-18T17:11:54Z</time></trkpt><trkpt lat="42.64678616045616" lon="11.981380422032103"><ele>317.0</ele><time>2026-04-18T17:11:55Z</time></trkpt><trkpt lat="42.646864272972934" lon="11.981094353108473"><ele>316.5</ele><time>2026-04-18T17:11:56Z</time></trkpt><trkpt lat="42.6469516062104" lon="11.980774274053882"><ele>316.0</ele><time>2026-04-18T17:11:57Z</time></trkpt><trkpt lat="42.64703144000195" lon="11.98046659582002"><ele>317.5</ele><time>2026-04-18T17:11:58Z</time></trkpt><trkpt lat="42.64710482860918" lon="11.980175332017627"><ele>319.0</ele><time>2026-04-18T17:11:59Z</time></trkpt><trkpt lat="42.64718140007252" lon="11.979868390628324"><ele>319.0</ele><time>2026-04-18T17:12:00Z</time></trkpt><trkpt lat="42.64726445809479" lon="11.979544327023982"><ele>319.0</ele><time>2026-04-18T17:12:00.999Z</time></trkpt><trkpt lat="42.647358175876754" lon="11.979195961693057"><ele>316.5</ele><time>2026-04-18T17:12:01.999Z</time></trkpt><trkpt lat="42.64745058928714" lon="11.978833625112031"><ele>314.0</ele><time>2026-04-18T17:12:02.999Z</time></trkpt><trkpt lat="42.64754998715382" lon="11.978453526481063"><ele>313.5</ele><time>2026-04-18T17:12:03.999Z</time></trkpt><trkpt lat="42.647649318141994" lon="11.978064719085435"><ele>313.0</ele><time>2026-04-18T17:12:04.999Z</time></trkpt><trkpt lat="42.64774912293028" lon="11.977675023096836"><ele>313.0</ele><time>2026-04-18T17:12:05.999Z</time></trkpt><trkpt lat="42.64784139593086" lon="11.977315213049751"><ele>313.0</ele><time>2026-04-18T17:12:06.999Z</time></trkpt><trkpt lat="42.6479283849254" lon="11.97697812000249"><ele>312.0</ele><time>2026-04-18T17:12:07.999Z</time></trkpt><trkpt lat="42.64801047615617" lon="11.976653476995216"><ele>311.0</ele><time>2026-04-18T17:12:08.999Z</time></trkpt><trkpt lat="42.64808525187856" lon="11.976353435618481"><ele>311.0</ele><time>2026-04-18T17:12:10Z</time></trkpt><trkpt lat="42.64816365979271" lon="11.976054327386228"><ele>311.0</ele><time>2026-04-18T17:12:11Z</time></trkpt><trkpt lat="42.64823631973949" lon="11.975774217974527"><ele>310.33333333333337</ele><time>2026-04-18T17:12:12Z</time></trkpt><trkpt lat="42.648306544834576" lon="11.97550325680187"><ele>309.6666666666667</ele><time>2026-04-18T17:12:13Z</time></trkpt><trkpt lat="42.64837086592524" lon="11.97524498653958"><ele>309.0</ele><time>2026-04-18T17:12:14Z</time></trkpt><trkpt lat="42.64843212268568" lon="11.974986375375872"><ele>308.6666666666667</ele><time>2026-04-18T17:12:15Z</time></trkpt><trkpt lat="42.648491263986685" lon="11.974724022023459"><ele>308.33333333333337</ele><time>2026-04-18T17:12:16Z</time></trkpt><trkpt lat="42.64854838601961" lon="11.974463064566747"><ele>308.0</ele><time>2026-04-18T17:12:17Z</time></trkpt><trkpt lat="42.64860237621952" lon="11.97419991225018"><ele>308.33333333333337</ele><time>2026-04-18T17:12:18Z</time></trkpt><trkpt lat="42.648657168697824" lon="11.973938215180222"><ele>308.6666666666667</ele><time>2026-04-18T17:12:19Z</time></trkpt><trkpt lat="42.64871124132101" lon="11.973677207961547"><ele>309.0</ele><time>2026-04-18T17:12:20Z</time></trkpt><trkpt lat="42.648766032029855" lon="11.973411487829184"><ele>308.3333333333333</ele><time>2026-04-18T17:12:21Z</time></trkpt><trkpt lat="42.64882057839299" lon="11.973133126512575"><ele>307.66666666666663</ele><time>2026-04-18T17:12:22Z</time></trkpt><trkpt lat="42.64887983421851" lon="11.97283400644987"><ele>307.0</ele><time>2026-04-18T17:12:23Z</time></trkpt><trkpt lat="42.64894528640029" lon="11.972516392986487"><ele>306.5</ele><time>2026-04-18T17:12:24Z</time></trkpt><trkpt lat="42.64901179319785" lon="11.97217863268133"><ele>306.0</ele><time>2026-04-18T17:12:25Z</time></trkpt><trkpt lat="42.6491126526786" lon="11.971839121943495"><ele>306.0</ele><time>2026-04-18T17:12:26Z</time></trkpt><trkpt lat="42.64920135477472" lon="11.97148203699436"><ele>306.0</ele><time>2026-04-18T17:12:27Z</time></trkpt><trkpt lat="42.64928303832611" lon="11.971115221010372"><ele>306.5</ele><time>2026-04-18T17:12:28Z</time></trkpt><trkpt lat="42.64937693684008" lon="11.9707471783827"><ele>307.0</ele><time>2026-04-18T17:12:29Z</time></trkpt><trkpt lat="42.649473212694254" lon="11.970373838667873"><ele>306.5</ele><time>2026-04-18T17:12:30Z</time></trkpt><trkpt lat="42.649574609568205" lon="11.970011059896411"><ele>306.0</ele><time>2026-04-18T17:12:31Z</time></trkpt><trkpt lat="42.64967630882994" lon="11.969656777295512"><ele>306.0</ele><time>2026-04-18T17:12:32Z</time></trkpt><trkpt lat="42.649770611049334" lon="11.96930704518188"><ele>306.0</ele><time>2026-04-18T17:12:33Z</time></trkpt><trkpt lat="42.64985570695266" lon="11.968957723728224"><ele>306.5</ele><time>2026-04-18T17:12:34Z</time></trkpt><trkpt lat="42.64993038054297" lon="11.968614116717601"><ele>307.0</ele><time>2026-04-18T17:12:35Z</time></trkpt><trkpt lat="42.65000466140113" lon="11.968271273455091"><ele>307.0</ele><time>2026-04-18T17:12:36Z</time></trkpt><trkpt lat="42.65006332575463" lon="11.967943791278465"><ele>307.0</ele><time>2026-04-18T17:12:37Z</time></trkpt><trkpt lat="42.650116719752056" lon="11.96765355172584"><ele>307.0</ele><time>2026-04-18T17:12:38Z</time></trkpt><trkpt lat="42.650169613289165" lon="11.967372252560223"><ele>307.0</ele><time>2026-04-18T17:12:39Z</time></trkpt><trkpt lat="42.650211656319506" lon="11.967121505754404"><ele>307.0</ele><time>2026-04-18T17:12:40Z</time></trkpt><trkpt lat="42.6502543234223" lon="11.966900742561377"><ele>307.0</ele><time>2026-04-18T17:12:41Z</time></trkpt><trkpt lat="42.65029099282285" lon="11.966670135587638"><ele>307.0</ele><time>2026-04-18T17:12:42Z</time></trkpt><trkpt lat="42.65033120865595" lon="11.966422754404906"><ele>307.0</ele><time>2026-04-18T17:12:43Z</time></trkpt><trkpt lat="42.65037043185019" lon="11.966145272093879"><ele>307.0</ele><time>2026-04-18T17:12:44Z</time></trkpt><trkpt lat="42.65041028947065" lon="11.965832087713743"><ele>307.0</ele><time>2026-04-18T17:12:45Z</time></trkpt><trkpt lat="42.65045101414478" lon="11.965492323897145"><ele>307.0</ele><time>2026-04-18T17:12:46Z</time></trkpt><trkpt lat="42.65050566607217" lon="11.965126547957487"><ele>307.0</ele><time>2026-04-18T17:12:47Z</time></trkpt><trkpt lat="42.65057295687754" lon="11.964740437985771"><ele>307.0</ele><time>2026-04-18T17:12:48Z</time></trkpt><trkpt lat="42.65062192340265" lon="11.964352946037016"><ele>307.0</ele><time>2026-04-18T17:12:49Z</time></trkpt><trkpt lat="42.650661803637085" lon="11.96398126068122"><ele>307.0</ele><time>2026-04-18T17:12:50Z</time></trkpt><trkpt lat="42.65072404997652" lon="11.963581536849002"><ele>307.0</ele><time>2026-04-18T17:12:51Z</time></trkpt><trkpt lat="42.65075212030413" lon="11.96317878142338"><ele>307.0</ele><time>2026-04-18T17:12:52Z</time></trkpt><trkpt lat="42.65079655869954" lon="11.962808858400738"><ele>307.0</ele><time>2026-04-18T17:12:53Z</time></trkpt><trkpt lat="42.65084456056781" lon="11.962436973399509"><ele>307.0</ele><time>2026-04-18T17:12:54Z</time></trkpt><trkpt lat="42.65089514427537" lon="11.96205460492312"><ele>307.0</ele><time>2026-04-18T17:12:55Z</time></trkpt><trkpt lat="42.65094717303692" lon="11.961650053700914"><ele>307.5</ele><time>2026-04-18T17:12:56Z</time></trkpt><trkpt lat="42.650992160176514" lon="11.9612607956476"><ele>308.0</ele><time>2026-04-18T17:12:57Z</time></trkpt><trkpt lat="42.651038429327706" lon="11.960894842073643"><ele>307.0</ele><time>2026-04-18T17:12:58Z</time></trkpt><trkpt lat="42.65107638157935" lon="11.960553696593804"><ele>306.0</ele><time>2026-04-18T17:12:59Z</time></trkpt><trkpt lat="42.65111637974525" lon="11.960220486316246"><ele>306.5</ele><time>2026-04-18T17:13:00Z</time></trkpt><trkpt lat="42.65116192529035" lon="11.95989394018005"><ele>307.0</ele><time>2026-04-18T17:13:01Z</time></trkpt><trkpt lat="42.651208356545766" lon="11.959568610046757"><ele>307.0</ele><time>2026-04-18T17:13:02Z</time></trkpt><trkpt lat="42.65125429517548" lon="11.959235494684048"><ele>307.0</ele><time>2026-04-18T17:13:03Z</time></trkpt><trkpt lat="42.65129876086446" lon="11.95889724957235"><ele>306.5</ele><time>2026-04-18T17:13:04Z</time></trkpt><trkpt lat="42.651346835646535" lon="11.958557986042345"><ele>306.0</ele><time>2026-04-18T17:13:05Z</time></trkpt><trkpt lat="42.65139059394315" lon="11.958227799091492"><ele>305.5</ele><time>2026-04-18T17:13:06Z</time></trkpt><trkpt lat="42.65143364482995" lon="11.957900168540807"><ele>305.0</ele><time>2026-04-18T17:13:07Z</time></trkpt><trkpt lat="42.651474750217474" lon="11.95757477609741"><ele>306.0</ele><time>2026-04-18T17:13:08Z</time></trkpt><trkpt lat="42.65152283359773" lon="11.957236157658716"><ele>307.0</ele><time>2026-04-18T17:13:09Z</time></trkpt><trkpt lat="42.65156798808594" lon="11.956889481980939"><ele>307.5</ele><time>2026-04-18T17:13:10Z</time></trkpt><trkpt lat="42.65161095801387" lon="11.956524635825563"><ele>308.0</ele><time>2026-04-18T17:13:11Z</time></trkpt><trkpt lat="42.65166061327391" lon="11.956164902685012"><ele>308.5</ele><time>2026-04-18T17:13:12Z</time></trkpt><trkpt lat="42.65170853099821" lon="11.95580851699949"><ele>309.0</ele><time>2026-04-18T17:13:13Z</time></trkpt><trkpt lat="42.65175479932537" lon="11.955471016019368"><ele>309.0</ele><time>2026-04-18T17:13:14Z</time></trkpt><trkpt lat="42.65180001790997" lon="11.955136876265113"><ele>309.0</ele><time>2026-04-18T17:13:15Z</time></trkpt><trkpt lat="42.651852157784894" lon="11.95479813156198"><ele>308.0</ele><time>2026-04-18T17:13:16Z</time></trkpt><trkpt lat="42.65190133860731" lon="11.954446093833418"><ele>307.0</ele><time>2026-04-18T17:13:17Z</time></trkpt><trkpt lat="42.651951655162534" lon="11.95409092885938"><ele>307.0</ele><time>2026-04-18T17:13:18Z</time></trkpt><trkpt lat="42.65199759860221" lon="11.953743410692752"><ele>307.0</ele><time>2026-04-18T17:13:19Z</time></trkpt><trkpt lat="42.65204232428371" lon="11.953404929476637"><ele>307.0</ele><time>2026-04-18T17:13:20Z</time></trkpt><trkpt lat="42.65208032443188" lon="11.953072881222665"><ele>307.0</ele><time>2026-04-18T17:13:21Z</time></trkpt><trkpt lat="42.652122598606596" lon="11.95272768352238"><ele>307.0</ele><time>2026-04-18T17:13:22Z</time></trkpt><trkpt lat="42.65215837009778" lon="11.95238142357092"><ele>307.0</ele><time>2026-04-18T17:13:23Z</time></trkpt><trkpt lat="42.65219024678087" lon="11.952030039360753"><ele>306.5</ele><time>2026-04-18T17:13:24Z</time></trkpt><trkpt lat="42.6522228578836" lon="11.951672240020068"><ele>306.0</ele><time>2026-04-18T17:13:25Z</time></trkpt><trkpt lat="42.65225319586286" lon="11.951314237117927"><ele>306.0</ele><time>2026-04-18T17:13:26Z</time></trkpt><trkpt lat="42.65228482701305" lon="11.950957948526284"><ele>306.0</ele><time>2026-04-18T17:13:27Z</time></trkpt><trkpt lat="42.652315918922056" lon="11.950612819442977"><ele>306.0</ele><time>2026-04-18T17:13:28Z</time></trkpt><trkpt lat="42.65234723782476" lon="11.950276172576553"><ele>306.0</ele><time>2026-04-18T17:13:29Z</time></trkpt><trkpt lat="42.652382237243586" lon="11.949936486640288"><ele>306.0</ele><time>2026-04-18T17:13:30Z</time></trkpt><trkpt lat="42.652411961722855" lon="11.949596922668288"><ele>306.0</ele><time>2026-04-18T17:13:31Z</time></trkpt><trkpt lat="42.65243824889867" lon="11.949247704022183"><ele>306.0</ele><time>2026-04-18T17:13:32Z</time></trkpt><trkpt lat="42.65246419985489" lon="11.948901190376892"><ele>306.0</ele><time>2026-04-18T17:13:33Z</time></trkpt><trkpt lat="42.65248606003934" lon="11.948562223384307"><ele>305.5</ele><time>2026-04-18T17:13:34Z</time></trkpt><trkpt lat="42.652510576561596" lon="11.948221728903937"><ele>305.0</ele><time>2026-04-18T17:13:35Z</time></trkpt><trkpt lat="42.65253495531871" lon="11.947877945747448"><ele>305.0</ele><time>2026-04-18T17:13:36Z</time></trkpt><trkpt lat="42.65255232445774" lon="11.94755288798052"><ele>305.0</ele><time>2026-04-18T17:13:37Z</time></trkpt><trkpt lat="42.652566986796465" lon="11.94724126454274"><ele>305.0</ele><time>2026-04-18T17:13:38Z</time></trkpt><trkpt lat="42.65257757676187" lon="11.946938063625986"><ele>305.0</ele><time>2026-04-18T17:13:39Z</time></trkpt><trkpt lat="42.65259190282352" lon="11.946639835449442"><ele>305.0</ele><time>2026-04-18T17:13:40Z</time></trkpt><trkpt lat="42.65260488416559" lon="11.94636274854235"><ele>305.33333333333337</ele><time>2026-04-18T17:13:41Z</time></trkpt><trkpt lat="42.652634796363735" lon="11.94609680266938"><ele>305.6666666666667</ele><time>2026-04-18T17:13:42Z</time></trkpt><trkpt lat="42.652696987586644" lon="11.945833380393358"><ele>306.0</ele><time>2026-04-18T17:13:43Z</time></trkpt><trkpt lat="42.65279555995273" lon="11.94556194711084"><ele>306.3333333333333</ele><time>2026-04-18T17:13:44Z</time></trkpt><trkpt lat="42.65290835039135" lon="11.945290821687662"><ele>306.66666666666663</ele><time>2026-04-18T17:13:45Z</time></trkpt><trkpt lat="42.65301332899357" lon="11.945039552807273"><ele>307.0</ele><time>2026-04-18T17:13:46Z</time></trkpt><trkpt lat="42.6531121645077" lon="11.94480621034641"><ele>307.0</ele><time>2026-04-18T17:13:47Z</time></trkpt><trkpt lat="42.653200906011456" lon="11.944585947613556"><ele>307.0</ele><time>2026-04-18T17:13:48Z</time></trkpt><trkpt lat="42.653287997759705" lon="11.94437738820362"><ele>307.0</ele><time>2026-04-18T17:13:49Z</time></trkpt><trkpt lat="42.65336287013087" lon="11.944191284758496"><ele>307.0</ele><time>2026-04-18T17:13:50Z</time></trkpt><trkpt lat="42.65343312345353" lon="11.94402165271651"><ele>307.0</ele><time>2026-04-18T17:13:51Z</time></trkpt><trkpt lat="42.653489849805304" lon="11.943896957711324"><ele>307.0</ele><time>2026-04-18T17:13:52Z</time></trkpt><trkpt lat="42.65353528287075" lon="11.943790711240087"><ele>307.0</ele><time>2026-04-18T17:13:53Z</time></trkpt><trkpt lat="42.65361284257878" lon="11.94373844057594"><ele>307.0</ele><time>2026-04-18T17:13:56Z</time></trkpt><trkpt lat="42.65370094874094" lon="11.943769884293596"><ele>306.99999999999994</ele><time>2026-04-18T17:13:58Z</time></trkpt><trkpt lat="42.65378638280288" lon="11.943769998818837"><ele>307.0</ele><time>2026-04-18T17:14:00Z</time></trkpt><trkpt lat="42.65386926750507" lon="11.943774505680755"><ele>307.0</ele><time>2026-04-18T17:14:02Z</time></trkpt><trkpt lat="42.65391208473596" lon="11.943850789302184"><ele>307.0</ele><time>2026-04-18T17:14:16Z</time></trkpt><trkpt lat="42.65396147059603" lon="11.943791820397612"><ele>307.0</ele><time>2026-04-18T17:21:12Z</time></trkpt><trkpt lat="42.65402014536422" lon="11.943743235694232"><ele>306.99999999999994</ele><time>2026-04-18T17:21:18Z</time></trkpt><trkpt lat="42.65409100268489" lon="11.943754747600568"><ele>307.0</ele><time>2026-04-18T17:21:24Z</time></trkpt><trkpt lat="42.65415661424427" lon="11.943758213159514"><ele>306.99999999999994</ele><time>2026-04-18T17:21:30Z</time></trkpt><trkpt lat="42.65422190650195" lon="11.943737372597907"><ele>307.0</ele><time>2026-04-18T17:21:37Z</time></trkpt><trkpt lat="42.65429346578663" lon="11.943730319297721"><ele>307.0</ele><time>2026-04-18T17:22:12Z</time></trkpt><trkpt lat="42.65421172243521" lon="11.94368779970002"><ele>307.0</ele><time>2026-04-18T17:22:15Z</time></trkpt><trkpt lat="42.65428734588899" lon="11.943653137602764"><ele>307.0</ele><time>2026-04-18T17:22:52Z</time></trkpt><trkpt lat="42.654264505986454" lon="11.943738928714257"><ele>306.99999999999994</ele><time>2026-04-18T17:49:55.001Z</time></trkpt><trkpt lat="42.654194284748506" lon="11.94377530936367"><ele>307.0</ele><time>2026-04-18T17:50:05.001Z</time></trkpt><trkpt lat="42.654127382482606" lon="11.943787242023886"><ele>306.99999999999994</ele><time>2026-04-18T17:50:10.001Z</time></trkpt><trkpt lat="42.6540651242281" lon="11.943771671371085"><ele>307.0</ele><time>2026-04-18T17:50:14.001Z</time></trkpt><trkpt lat="42.65399046096207" lon="11.94377139949364"><ele>307.0</ele><time>2026-04-18T17:50:20.001Z</time></trkpt><trkpt lat="42.65393660137876" lon="11.943822715161351"><ele>307.0</ele><time>2026-04-18T17:50:27.001Z</time></trkpt><trkpt lat="42.653974649694106" lon="11.9437521661831"><ele>307.0</ele><time>2026-04-18T17:54:53Z</time></trkpt><trkpt lat="42.653903174120984" lon="11.943766507235155"><ele>306.99999999999994</ele><time>2026-04-18T17:54:55Z</time></trkpt><trkpt lat="42.65381198881173" lon="11.943765472604788"><ele>307.0</ele><time>2026-04-18T17:54:57Z</time></trkpt><trkpt lat="42.65371065607949" lon="11.94375499971256"><ele>307.0</ele><time>2026-04-18T17:54:59Z</time></trkpt><trkpt lat="42.65362270112873" lon="11.943757635475716"><ele>307.0</ele><time>2026-04-18T17:55:01Z</time></trkpt><trkpt lat="42.65356311171729" lon="11.943729445694132"><ele>307.0</ele><time>2026-04-18T17:55:04Z</time></trkpt><trkpt lat="42.6534930817664" lon="11.94378394951585"><ele>307.0</ele><time>2026-04-18T17:55:07Z</time></trkpt><trkpt lat="42.65345044031375" lon="11.943867208534732"><ele>307.0</ele><time>2026-04-18T17:55:08Z</time></trkpt><trkpt lat="42.65340424875753" lon="11.943995562566545"><ele>307.0</ele><time>2026-04-18T17:55:09Z</time></trkpt><trkpt lat="42.6533486062042" lon="11.944134428981801"><ele>307.0</ele><time>2026-04-18T17:55:10Z</time></trkpt><trkpt lat="42.65327807910038" lon="11.944298381375427"><ele>307.0</ele><time>2026-04-18T17:55:11Z</time></trkpt><trkpt lat="42.653201511536516" lon="11.944479834220639"><ele>307.0</ele><time>2026-04-18T17:55:12Z</time></trkpt><trkpt lat="42.65312661473576" lon="11.944663304858368"><ele>307.0</ele><time>2026-04-18T17:55:13Z</time></trkpt><trkpt lat="42.65304797825415" lon="11.944854370436733"><ele>307.0</ele><time>2026-04-18T17:55:14Z</time></trkpt><trkpt lat="42.65296752655994" lon="11.945053413456899"><ele>307.0</ele><time>2026-04-18T17:55:15Z</time></trkpt><trkpt lat="42.652883197942565" lon="11.945260682844156"><ele>307.0</ele><time>2026-04-18T17:55:16Z</time></trkpt><trkpt lat="42.65280015887433" lon="11.945464730526483"><ele>307.0</ele><time>2026-04-18T17:55:17Z</time></trkpt><trkpt lat="42.65271982194871" lon="11.945671786410356"><ele>307.0</ele><time>2026-04-18T17:55:18Z</time></trkpt><trkpt lat="42.65265348980482" lon="11.945879972781752"><ele>307.0</ele><time>2026-04-18T17:55:19Z</time></trkpt><trkpt lat="42.652607194467656" lon="11.946094410299674"><ele>306.66666666666663</ele><time>2026-04-18T17:55:20Z</time></trkpt><trkpt lat="42.65258181251298" lon="11.946323637452567"><ele>306.3333333333333</ele><time>2026-04-18T17:55:21Z</time></trkpt><trkpt lat="42.65257301663592" lon="11.946560076222813"><ele>306.0</ele><time>2026-04-18T17:55:22Z</time></trkpt><trkpt lat="42.65256208569969" lon="11.94680812929194"><ele>305.6666666666667</ele><time>2026-04-18T17:55:23Z</time></trkpt><trkpt lat="42.65254611453688" lon="11.947055403456945"><ele>305.33333333333337</ele><time>2026-04-18T17:55:24Z</time></trkpt><trkpt lat="42.6525277615371" lon="11.947314740590205"><ele>305.0</ele><time>2026-04-18T17:55:25Z</time></trkpt><trkpt lat="42.65250996324549" lon="11.947575378249894"><ele>305.0</ele><time>2026-04-18T17:55:26Z</time></trkpt><trkpt lat="42.65249452152858" lon="11.947851205960044"><ele>305.0</ele><time>2026-04-18T17:55:27Z</time></trkpt><trkpt lat="42.652478513953426" lon="11.9481017899288"><ele>305.0</ele><time>2026-04-18T17:55:28Z</time></trkpt><trkpt lat="42.65246352487402" lon="11.948325113141365"><ele>305.25</ele><time>2026-04-18T17:55:29Z</time></trkpt><trkpt lat="42.6524498426034" lon="11.948530707246578"><ele>305.5</ele><time>2026-04-18T17:55:30Z</time></trkpt><trkpt lat="42.65243478616867" lon="11.948718844609669"><ele>305.75</ele><time>2026-04-18T17:55:31Z</time></trkpt><trkpt lat="42.65241773935685" lon="11.948897679685054"><ele>306.0</ele><time>2026-04-18T17:55:32Z</time></trkpt><trkpt lat="42.652401148638596" lon="11.949054894728178"><ele>306.0</ele><time>2026-04-18T17:55:33Z</time></trkpt><trkpt lat="42.65238702781424" lon="11.94921134027132"><ele>306.0</ele><time>2026-04-18T17:55:34Z</time></trkpt><trkpt lat="42.65237568424039" lon="11.94935840428835"><ele>306.0</ele><time>2026-04-18T17:55:35Z</time></trkpt><trkpt lat="42.652366690833794" lon="11.949494981413304"><ele>306.0</ele><time>2026-04-18T17:55:36Z</time></trkpt><trkpt lat="42.65235560440802" lon="11.94964143942477"><ele>306.0</ele><time>2026-04-18T17:55:37Z</time></trkpt><trkpt lat="42.652342785973836" lon="11.949805896238297"><ele>306.0</ele><time>2026-04-18T17:55:38Z</time></trkpt><trkpt lat="42.65232878330613" lon="11.949971727048709"><ele>306.0</ele><time>2026-04-18T17:55:39Z</time></trkpt><trkpt lat="42.65231532454048" lon="11.95015171281077"><ele>306.0</ele><time>2026-04-18T17:55:40Z</time></trkpt><trkpt lat="42.65230112941082" lon="11.950346399378647"><ele>306.0</ele><time>2026-04-18T17:55:41Z</time></trkpt><trkpt lat="42.65228472464249" lon="11.950556662606909"><ele>306.0</ele><time>2026-04-18T17:55:42Z</time></trkpt><trkpt lat="42.65226711604651" lon="11.950784161313248"><ele>306.0</ele><time>2026-04-18T17:55:43Z</time></trkpt><trkpt lat="42.65224665722586" lon="11.95101216305972"><ele>306.0</ele><time>2026-04-18T17:55:44Z</time></trkpt><trkpt lat="42.652226078924414" lon="11.95124102732765"><ele>306.0</ele><time>2026-04-18T17:55:45Z</time></trkpt><trkpt lat="42.652206232124776" lon="11.951475646688927"><ele>306.0</ele><time>2026-04-18T17:55:46Z</time></trkpt><trkpt lat="42.65218706536309" lon="11.951716736362652"><ele>306.0</ele><time>2026-04-18T17:55:47Z</time></trkpt><trkpt lat="42.65216850359809" lon="11.951968222125087"><ele>306.3333333333333</ele><time>2026-04-18T17:55:48Z</time></trkpt><trkpt lat="42.652145755153725" lon="11.952245897846298"><ele>306.66666666666663</ele><time>2026-04-18T17:55:49Z</time></trkpt><trkpt lat="42.65211535904306" lon="11.95251653613822"><ele>307.0</ele><time>2026-04-18T17:55:50Z</time></trkpt><trkpt lat="42.65208468695803" lon="11.952791625440923"><ele>307.0</ele><time>2026-04-18T17:55:51Z</time></trkpt><trkpt lat="42.65205414616439" lon="11.953075776046889"><ele>307.0</ele><time>2026-04-18T17:55:52Z</time></trkpt><trkpt lat="42.65201911136023" lon="11.953371490539539"><ele>307.0</ele><time>2026-04-18T17:55:53Z</time></trkpt><trkpt lat="42.65195694446916" lon="11.95368102932215"><ele>307.0</ele><time>2026-04-18T17:55:54Z</time></trkpt><trkpt lat="42.651925214698956" lon="11.954005968104521"><ele>307.0</ele><time>2026-04-18T17:55:55Z</time></trkpt><trkpt lat="42.651894651642245" lon="11.954300635681605"><ele>307.0</ele><time>2026-04-18T17:55:56Z</time></trkpt><trkpt lat="42.65185602942166" lon="11.954600079263768"><ele>307.0</ele><time>2026-04-18T17:55:57Z</time></trkpt><trkpt lat="42.65181789093211" lon="11.954897800232883"><ele>307.0</ele><time>2026-04-18T17:55:58Z</time></trkpt><trkpt lat="42.65178015982462" lon="11.955193944554965"><ele>307.3333333333333</ele><time>2026-04-18T17:55:59Z</time></trkpt><trkpt lat="42.651738455044146" lon="11.955488743078822"><ele>307.6666666666667</ele><time>2026-04-18T17:56:00Z</time></trkpt><trkpt lat="42.651698561107885" lon="11.955788514652804"><ele>308.0</ele><time>2026-04-18T17:56:01Z</time></trkpt><trkpt lat="42.651655446957385" lon="11.956088247148196"><ele>308.0</ele><time>2026-04-18T17:56:02Z</time></trkpt><trkpt lat="42.651612247854146" lon="11.95638883188007"><ele>308.0</ele><time>2026-04-18T17:56:03Z</time></trkpt><trkpt lat="42.65157062939215" lon="11.956691201073694"><ele>307.5</ele><time>2026-04-18T17:56:04Z</time></trkpt><trkpt lat="42.651529978136864" lon="11.956996405886358"><ele>307.0</ele><time>2026-04-18T17:56:05Z</time></trkpt><trkpt lat="42.6514879925326" lon="11.957307830766721"><ele>306.0</ele><time>2026-04-18T17:56:06Z</time></trkpt><trkpt lat="42.65144812682415" lon="11.957619106655654"><ele>305.0</ele><time>2026-04-18T17:56:07Z</time></trkpt><trkpt lat="42.651405703743016" lon="11.957931269477163"><ele>305.0</ele><time>2026-04-18T17:56:08Z</time></trkpt><trkpt lat="42.651361946256934" lon="11.958240766453883"><ele>305.0</ele><time>2026-04-18T17:56:09Z</time></trkpt><trkpt lat="42.65132055350316" lon="11.958557098970639"><ele>305.5</ele><time>2026-04-18T17:56:10Z</time></trkpt><trkpt lat="42.651278734946764" lon="11.958883876528676"><ele>306.0</ele><time>2026-04-18T17:56:11Z</time></trkpt><trkpt lat="42.6512371783552" lon="11.959214676151069"><ele>306.5</ele><time>2026-04-18T17:56:12Z</time></trkpt><trkpt lat="42.651187313046925" lon="11.959547784437534"><ele>307.0</ele><time>2026-04-18T17:56:13Z</time></trkpt><trkpt lat="42.651136845007294" lon="11.95989057114013"><ele>306.5</ele><time>2026-04-18T17:56:14Z</time></trkpt><trkpt lat="42.65109103061034" lon="11.96023552538145"><ele>306.0</ele><time>2026-04-18T17:56:15Z</time></trkpt><trkpt lat="42.6510480983716" lon="11.960583549535963"><ele>307.0</ele><time>2026-04-18T17:56:16Z</time></trkpt><trkpt lat="42.651009111984436" lon="11.960925939041092"><ele>308.0</ele><time>2026-04-18T17:56:17Z</time></trkpt><trkpt lat="42.65097249091492" lon="11.9612640713961"><ele>308.0</ele><time>2026-04-18T17:56:18Z</time></trkpt><trkpt lat="42.6509368605814" lon="11.961601106038113"><ele>308.0</ele><time>2026-04-18T17:56:19Z</time></trkpt><trkpt lat="42.650900811791814" lon="11.96193949772431"><ele>307.5</ele><time>2026-04-18T17:56:20Z</time></trkpt><trkpt lat="42.65085881831248" lon="11.96225176276641"><ele>307.0</ele><time>2026-04-18T17:56:21Z</time></trkpt><trkpt lat="42.65082061274993" lon="11.962547257216169"><ele>307.0</ele><time>2026-04-18T17:56:22Z</time></trkpt><trkpt lat="42.65078447483739" lon="11.962836037837613"><ele>307.0</ele><time>2026-04-18T17:56:23Z</time></trkpt><trkpt lat="42.650751016313954" lon="11.963119999407846"><ele>307.0</ele><time>2026-04-18T17:56:24Z</time></trkpt><trkpt lat="42.65071752788825" lon="11.963404427461796"><ele>307.0</ele><time>2026-04-18T17:56:25Z</time></trkpt><trkpt lat="42.65068294734614" lon="11.963682980326507"><ele>307.0</ele><time>2026-04-18T17:56:26Z</time></trkpt><trkpt lat="42.650647981422665" lon="11.963958416557578"><ele>307.0</ele><time>2026-04-18T17:56:27Z</time></trkpt><trkpt lat="42.65061371471939" lon="11.964234336614282"><ele>307.0</ele><time>2026-04-18T17:56:28Z</time></trkpt><trkpt lat="42.650576884165325" lon="11.964514960153217"><ele>307.0</ele><time>2026-04-18T17:56:29Z</time></trkpt><trkpt lat="42.650498520629306" lon="11.965075147663251"><ele>307.0</ele><time>2026-04-18T17:56:31Z</time></trkpt><trkpt lat="42.65045311631258" lon="11.965358035495008"><ele>307.0</ele><time>2026-04-18T17:56:32Z</time></trkpt><trkpt lat="42.650413803758006" lon="11.965639251085276"><ele>307.0</ele><time>2026-04-18T17:56:33Z</time></trkpt><trkpt lat="42.65037410994589" lon="11.965926721973526"><ele>307.0</ele><time>2026-04-18T17:56:34Z</time></trkpt><trkpt lat="42.650332329977644" lon="11.966219701183181"><ele>307.0</ele><time>2026-04-18T17:56:35Z</time></trkpt><trkpt lat="42.65028612258059" lon="11.966510068403931"><ele>307.0</ele><time>2026-04-18T17:56:36Z</time></trkpt><trkpt lat="42.650239800588494" lon="11.966802987644733"><ele>307.0</ele><time>2026-04-18T17:56:37Z</time></trkpt><trkpt lat="42.65018896071711" lon="11.967110116169673"><ele>307.0</ele><time>2026-04-18T17:56:38Z</time></trkpt><trkpt lat="42.6501325832302" lon="11.967417571103525"><ele>307.0</ele><time>2026-04-18T17:56:39Z</time></trkpt><trkpt lat="42.65005786850701" lon="11.967717682346843"><ele>307.0</ele><time>2026-04-18T17:56:40Z</time></trkpt><trkpt lat="42.64999959631716" lon="11.968020118464405"><ele>307.0</ele><time>2026-04-18T17:56:41Z</time></trkpt><trkpt lat="42.649941486271096" lon="11.968321713003295"><ele>307.0</ele><time>2026-04-18T17:56:42Z</time></trkpt><trkpt lat="42.64989316228816" lon="11.968627915407106"><ele>307.0</ele><time>2026-04-18T17:56:43Z</time></trkpt><trkpt lat="42.64979822278548" lon="11.96895547773334"><ele>307.0</ele><time>2026-04-18T17:56:44Z</time></trkpt><trkpt lat="42.6497071361636" lon="11.9693305662817"><ele>307.0</ele><time>2026-04-18T17:56:45Z</time></trkpt><trkpt lat="42.64961177942243" lon="11.969723696798448"><ele>307.0</ele><time>2026-04-18T17:56:46Z</time></trkpt><trkpt lat="42.649509499238484" lon="11.970145437870922"><ele>307.0</ele><time>2026-04-18T17:56:47Z</time></trkpt><trkpt lat="42.64939808304516" lon="11.970589238939931"><ele>307.0</ele><time>2026-04-18T17:56:48Z</time></trkpt><trkpt lat="42.64928864620056" lon="11.971010439600782"><ele>306.5</ele><time>2026-04-18T17:56:49Z</time></trkpt><trkpt lat="42.64919148502884" lon="11.971384236770358"><ele>306.0</ele><time>2026-04-18T17:56:50Z</time></trkpt><trkpt lat="42.64910898459243" lon="11.971731138436542"><ele>306.0</ele><time>2026-04-18T17:56:51Z</time></trkpt><trkpt lat="42.649027511203606" lon="11.97205823391282"><ele>306.0</ele><time>2026-04-18T17:56:52Z</time></trkpt><trkpt lat="42.64895900957256" lon="11.972371821560236"><ele>306.5</ele><time>2026-04-18T17:56:53Z</time></trkpt><trkpt lat="42.64889769982793" lon="11.972670647403627"><ele>307.0</ele><time>2026-04-18T17:56:54Z</time></trkpt><trkpt lat="42.64883436728397" lon="11.972976788561088"><ele>307.0</ele><time>2026-04-18T17:56:55Z</time></trkpt><trkpt lat="42.648770603869785" lon="11.973282915765289"><ele>307.0</ele><time>2026-04-18T17:56:56Z</time></trkpt><trkpt lat="42.64870749662339" lon="11.973585483219164"><ele>307.5</ele><time>2026-04-18T17:56:57Z</time></trkpt><trkpt lat="42.648643277354736" lon="11.973889305940281"><ele>308.0</ele><time>2026-04-18T17:56:58Z</time></trkpt><trkpt lat="42.64857979990579" lon="11.974190741234313"><ele>308.0</ele><time>2026-04-18T17:56:59Z</time></trkpt><trkpt lat="42.64851191807301" lon="11.974498190784583"><ele>308.0</ele><time>2026-04-18T17:57:00Z</time></trkpt><trkpt lat="42.64843745884889" lon="11.974809978997522"><ele>308.5</ele><time>2026-04-18T17:57:01Z</time></trkpt><trkpt lat="42.648360760377784" lon="11.975121091603416"><ele>309.0</ele><time>2026-04-18T17:57:02Z</time></trkpt><trkpt lat="42.64828324789528" lon="11.975431373524513"><ele>309.0</ele><time>2026-04-18T17:57:03Z</time></trkpt><trkpt lat="42.64820605817979" lon="11.975736884643064"><ele>309.0</ele><time>2026-04-18T17:57:04Z</time></trkpt><trkpt lat="42.648131509769925" lon="11.976042893210572"><ele>310.0</ele><time>2026-04-18T17:57:05Z</time></trkpt><trkpt lat="42.64805606499948" lon="11.976348255979778"><ele>311.0</ele><time>2026-04-18T17:57:06Z</time></trkpt><trkpt lat="42.647983210977166" lon="11.976631451700422"><ele>311.0</ele><time>2026-04-18T17:57:07Z</time></trkpt><trkpt lat="42.64791432833543" lon="11.976896853264373"><ele>311.0</ele><time>2026-04-18T17:57:08Z</time></trkpt><trkpt lat="42.64784636793889" lon="11.977157960607132"><ele>311.0</ele><time>2026-04-18T17:57:09Z</time></trkpt><trkpt lat="42.64778323935998" lon="11.977412459479769"><ele>311.5</ele><time>2026-04-18T17:57:10Z</time></trkpt><trkpt lat="42.64772433323746" lon="11.977644449264279"><ele>312.0</ele><time>2026-04-18T17:57:11Z</time></trkpt><trkpt lat="42.6476774345273" lon="11.977828571834383"><ele>312.5</ele><time>2026-04-18T17:57:12Z</time></trkpt><trkpt lat="42.647635720229765" lon="11.977988846894561"><ele>313.0</ele><time>2026-04-18T17:57:13Z</time></trkpt><trkpt lat="42.647599027241164" lon="11.97813694038573"><ele>313.0</ele><time>2026-04-18T17:57:14Z</time></trkpt><trkpt lat="42.64756314857046" lon="11.97827355531898"><ele>313.0</ele><time>2026-04-18T17:57:15Z</time></trkpt><trkpt lat="42.647527882631145" lon="11.978415643370072"><ele>313.0</ele><time>2026-04-18T17:57:16Z</time></trkpt><trkpt lat="42.647485095871" lon="11.97857488032221"><ele>313.0</ele><time>2026-04-18T17:57:17Z</time></trkpt><trkpt lat="42.64744307056923" lon="11.978739799707695"><ele>313.25</ele><time>2026-04-18T17:57:18Z</time></trkpt><trkpt lat="42.647398933222505" lon="11.978902234407592"><ele>313.5</ele><time>2026-04-18T17:57:19Z</time></trkpt><trkpt lat="42.647352884635154" lon="11.979071551811666"><ele>313.75</ele><time>2026-04-18T17:57:20Z</time></trkpt><trkpt lat="42.647306443267894" lon="11.979245371528451"><ele>314.0</ele><time>2026-04-18T17:57:21Z</time></trkpt><trkpt lat="42.64726026737974" lon="11.979421662688374"><ele>315.6666666666667</ele><time>2026-04-18T17:57:22Z</time></trkpt><trkpt lat="42.64721189267943" lon="11.979616050859864"><ele>317.3333333333333</ele><time>2026-04-18T17:57:23Z</time></trkpt><trkpt lat="42.64715853009099" lon="11.979839786818792"><ele>319.0</ele><time>2026-04-18T17:57:24Z</time></trkpt><trkpt lat="42.64711192798854" lon="11.980026996972072"><ele>319.5</ele><time>2026-04-18T17:57:25Z</time></trkpt><trkpt lat="42.647071255341444" lon="11.980189285687766"><ele>320.0</ele><time>2026-04-18T17:57:26Z</time></trkpt><trkpt lat="42.647024798623896" lon="11.98037759563057"><ele>320.5</ele><time>2026-04-18T17:57:27Z</time></trkpt><trkpt lat="42.646975839567254" lon="11.980564958435115"><ele>321.0</ele><time>2026-04-18T17:57:28Z</time></trkpt><trkpt lat="42.64693013828986" lon="11.980747656490752"><ele>319.6666666666667</ele><time>2026-04-18T17:57:29Z</time></trkpt><trkpt lat="42.646873769658626" lon="11.98095415277714"><ele>318.33333333333337</ele><time>2026-04-18T17:57:30Z</time></trkpt><trkpt lat="42.64680990947011" lon="11.98120466522841"><ele>317.0</ele><time>2026-04-18T17:57:31Z</time></trkpt><trkpt lat="42.64674846672315" lon="11.981437407420144"><ele>317.0</ele><time>2026-04-18T17:57:32Z</time></trkpt><trkpt lat="42.64669416622836" lon="11.981648082654832"><ele>317.0</ele><time>2026-04-18T17:57:33Z</time></trkpt><trkpt lat="42.64664453850881" lon="11.98182962928387"><ele>317.0</ele><time>2026-04-18T17:57:34Z</time></trkpt><trkpt lat="42.6465962614513" lon="11.981994807745462"><ele>317.0</ele><time>2026-04-18T17:57:35Z</time></trkpt><trkpt lat="42.64655019543876" lon="11.982160345636533"><ele>317.75</ele><time>2026-04-18T17:57:36Z</time></trkpt><trkpt lat="42.64650000649246" lon="11.982333864340207"><ele>318.5</ele><time>2026-04-18T17:57:37Z</time></trkpt><trkpt lat="42.646446032090786" lon="11.982502035238582"><ele>319.25</ele><time>2026-04-18T17:57:38Z</time></trkpt><trkpt lat="42.64638341401282" lon="11.982647891264174"><ele>320.0</ele><time>2026-04-18T17:57:39Z</time></trkpt><trkpt lat="42.646314053678026" lon="11.982778765945966"><ele>320.25</ele><time>2026-04-18T17:57:40Z</time></trkpt><trkpt lat="42.64623062122875" lon="11.982912375868377"><ele>320.5</ele><time>2026-04-18T17:57:41Z</time></trkpt><trkpt lat="42.64614115868844" lon="11.983047636139283"><ele>320.75</ele><time>2026-04-18T17:57:42Z</time></trkpt><trkpt lat="42.64604740351775" lon="11.98319009837445"><ele>321.0</ele><time>2026-04-18T17:57:43Z</time></trkpt><trkpt lat="42.64591789380148" lon="11.98333595892282"><ele>320.6666666666667</ele><time>2026-04-18T17:57:44Z</time></trkpt><trkpt lat="42.64578230895349" lon="11.983529357268164"><ele>320.33333333333337</ele><time>2026-04-18T17:57:45Z</time></trkpt><trkpt lat="42.645667922259676" lon="11.98371702144019"><ele>320.0</ele><time>2026-04-18T17:57:46Z</time></trkpt><trkpt lat="42.64555247568305" lon="11.983867181951647"><ele>320.0</ele><time>2026-04-18T17:57:47Z</time></trkpt><trkpt lat="42.64544908860093" lon="11.984011333572822"><ele>320.0</ele><time>2026-04-18T17:57:48Z</time></trkpt><trkpt lat="42.6453464125689" lon="11.98415203257684"><ele>320.0</ele><time>2026-04-18T17:57:49Z</time></trkpt><trkpt lat="42.645241807130404" lon="11.984312860014434"><ele>319.0</ele><time>2026-04-18T17:57:50Z</time></trkpt><trkpt lat="42.64514953039735" lon="11.984494272387238"><ele>318.0</ele><time>2026-04-18T17:57:51Z</time></trkpt><trkpt lat="42.64506703172828" lon="11.98467503087673"><ele>317.0</ele><time>2026-04-18T17:57:52Z</time></trkpt><trkpt lat="42.64498540378006" lon="11.984850462700747"><ele>317.0</ele><time>2026-04-18T17:57:53Z</time></trkpt><trkpt lat="42.64488770764165" lon="11.98500421660317"><ele>317.0</ele><time>2026-04-18T17:57:54Z</time></trkpt><trkpt lat="42.644789551433405" lon="11.985122594271228"><ele>317.0</ele><time>2026-04-18T17:57:55Z</time></trkpt><trkpt lat="42.64469316892102" lon="11.985230426886751"><ele>317.0</ele><time>2026-04-18T17:57:56Z</time></trkpt><trkpt lat="42.64459892719709" lon="11.98533858625269"><ele>317.25</ele><time>2026-04-18T17:57:57Z</time></trkpt><trkpt lat="42.64451284864378" lon="11.98545211726243"><ele>317.5</ele><time>2026-04-18T17:57:58Z</time></trkpt><trkpt lat="42.644438679448086" lon="11.985572886206137"><ele>317.75</ele><time>2026-04-18T17:57:59Z</time></trkpt><trkpt lat="42.64438010078726" lon="11.985695466148337"><ele>318.0</ele><time>2026-04-18T17:58:00Z</time></trkpt><trkpt lat="42.644319289235526" lon="11.985815555167466"><ele>318.3333333333333</ele><time>2026-04-18T17:58:01Z</time></trkpt><trkpt lat="42.64428480480161" lon="11.985931133121486"><ele>318.6666666666667</ele><time>2026-04-18T17:58:02Z</time></trkpt><trkpt lat="42.64425428846693" lon="11.986045432167883"><ele>319.0</ele><time>2026-04-18T17:58:03Z</time></trkpt><trkpt lat="42.64422747136817" lon="11.986145751606092"><ele>319.33333333333337</ele><time>2026-04-18T17:58:04Z</time></trkpt><trkpt lat="42.644202884435764" lon="11.986237676982265"><ele>319.6666666666667</ele><time>2026-04-18T17:58:05Z</time></trkpt><trkpt lat="42.64417719213317" lon="11.9863273704507"><ele>320.0</ele><time>2026-04-18T17:58:06Z</time></trkpt><trkpt lat="42.64414702531315" lon="11.986411923418727"><ele>320.0</ele><time>2026-04-18T17:58:07Z</time></trkpt><trkpt lat="42.644216054494706" lon="11.986638062223506"><ele>320.0</ele><time>2026-04-18T17:58:09Z</time></trkpt><trkpt lat="42.6442939013143" lon="11.986722763065721"><ele>320.0</ele><time>2026-04-18T17:58:10Z</time></trkpt><trkpt lat="42.644353971945264" lon="11.98682425769352"><ele>320.0</ele><time>2026-04-18T17:58:11Z</time></trkpt><trkpt lat="42.6443971339687" lon="11.986897053511747"><ele>320.0</ele><time>2026-04-18T17:58:12Z</time></trkpt><trkpt lat="42.644469004570375" lon="11.987012762985563"><ele>321.4</ele><time>2026-04-18T17:58:14Z</time></trkpt><trkpt lat="42.644509152571985" lon="11.987114625837823"><ele>322.8</ele><time>2026-04-18T17:58:16Z</time></trkpt><trkpt lat="42.64452944492847" lon="11.987234853201304"><ele>324.20000000000005</ele><time>2026-04-18T17:58:18Z</time></trkpt><trkpt lat="42.644515602504505" lon="11.987342786628497"><ele>325.6</ele><time>2026-04-18T17:58:20Z</time></trkpt><trkpt lat="42.644468536007516" lon="11.98745876431072"><ele>327.0</ele><time>2026-04-18T17:58:22Z</time></trkpt><trkpt lat="42.644446391960784" lon="11.98759224908515"><ele>327.0</ele><time>2026-04-18T17:58:24Z</time></trkpt><trkpt lat="42.64441000021517" lon="11.98771962922747"><ele>327.0</ele><time>2026-04-18T17:58:26Z</time></trkpt><trkpt lat="42.64440896515591" lon="11.9878754143688"><ele>327.0</ele><time>2026-04-18T17:58:28Z</time></trkpt><trkpt lat="42.644506355654514" lon="11.988020523204598"><ele>327.0</ele><time>2026-04-18T17:58:30Z</time></trkpt><trkpt lat="42.64457138496591" lon="11.988063997898717"><ele>327.0</ele><time>2026-04-18T17:58:31Z</time></trkpt><trkpt lat="42.64464210799194" lon="11.988069643672127"><ele>329.5</ele><time>2026-04-18T17:58:32Z</time></trkpt><trkpt lat="42.64473107597563" lon="11.988050034414977"><ele>332.0</ele><time>2026-04-18T17:58:33Z</time></trkpt><trkpt lat="42.644815300115134" lon="11.98796217206743"><ele>334.5</ele><time>2026-04-18T17:58:34Z</time></trkpt><trkpt lat="42.644925014523345" lon="11.987838916248489"><ele>337.0</ele><time>2026-04-18T17:58:35Z</time></trkpt><trkpt lat="42.64503415141377" lon="11.987703584466724"><ele>337.0</ele><time>2026-04-18T17:58:36Z</time></trkpt><trkpt lat="42.64511907762647" lon="11.987611238949484"><ele>337.0</ele><time>2026-04-18T17:58:37Z</time></trkpt><trkpt lat="42.645197792665066" lon="11.987552992097195"><ele>337.0</ele><time>2026-04-18T17:58:38Z</time></trkpt><trkpt lat="42.64528269405494" lon="11.987527639114935"><ele>337.0</ele><time>2026-04-18T17:58:39Z</time></trkpt><trkpt lat="42.64535637751728" lon="11.987559128246629"><ele>337.0</ele><time>2026-04-18T17:58:40Z</time></trkpt><trkpt lat="42.64541281718448" lon="11.987636399406695"><ele>337.0</ele><time>2026-04-18T17:58:41Z</time></trkpt><trkpt lat="42.64542021544124" lon="11.987770341712903"><ele>338.6</ele><time>2026-04-18T17:58:42Z</time></trkpt><trkpt lat="42.64547269254793" lon="11.987874730686737"><ele>340.20000000000005</ele><time>2026-04-18T17:58:43Z</time></trkpt><trkpt lat="42.64555710016245" lon="11.987954710090994"><ele>341.8</ele><time>2026-04-18T17:58:44Z</time></trkpt><trkpt lat="42.645664122169066" lon="11.987953615469156"><ele>343.4</ele><time>2026-04-18T17:58:45Z</time></trkpt><trkpt lat="42.64575056860469" lon="11.987922559058518"><ele>345.0</ele><time>2026-04-18T17:58:46Z</time></trkpt><trkpt lat="42.64579665323266" lon="11.98785232887635"><ele>345.0</ele><time>2026-04-18T17:58:47Z</time></trkpt><trkpt lat="42.64581989747572" lon="11.987742004426687"><ele>345.0</ele><time>2026-04-18T17:58:48Z</time></trkpt><trkpt lat="42.64581503053147" lon="11.987617454062404"><ele>345.0</ele><time>2026-04-18T17:58:49Z</time></trkpt><trkpt lat="42.64579865108799" lon="11.9875186384399"><ele>345.0</ele><time>2026-04-18T17:58:50Z</time></trkpt><trkpt lat="42.64578891612427" lon="11.987432387764384"><ele>345.0</ele><time>2026-04-18T17:58:51Z</time></trkpt><trkpt lat="42.64582384750561" lon="11.987284369407254"><ele>345.0</ele><time>2026-04-18T17:58:53Z</time></trkpt><trkpt lat="42.645876489891904" lon="11.987227665378446"><ele>345.0</ele><time>2026-04-18T17:58:54Z</time></trkpt><trkpt lat="42.645942752645006" lon="11.987208231257574"><ele>345.0</ele><time>2026-04-18T17:58:55Z</time></trkpt><trkpt lat="42.64601530255784" lon="11.987234282344279"><ele>345.0</ele><time>2026-04-18T17:58:56Z</time></trkpt><trkpt lat="42.64605887302196" lon="11.987317523524066"><ele>345.0</ele><time>2026-04-18T17:58:57Z</time></trkpt><trkpt lat="42.64610188209121" lon="11.987398177982097"><ele>345.0</ele><time>2026-04-18T17:58:58Z</time></trkpt><trkpt lat="42.64607814710326" lon="11.987511636173455"><ele>345.0</ele><time>2026-04-18T17:58:59Z</time></trkpt><trkpt lat="42.64606794283368" lon="11.987606449091338"><ele>345.0</ele><time>2026-04-18T17:59:00Z</time></trkpt><trkpt lat="42.6460724371569" lon="11.987708185122479"><ele>345.0</ele><time>2026-04-18T17:59:01Z</time></trkpt><trkpt lat="42.646044462424975" lon="11.987804430035455"><ele>345.0</ele><time>2026-04-18T17:59:02Z</time></trkpt><trkpt lat="42.646034039985935" lon="11.98790350843177"><ele>345.0</ele><time>2026-04-18T17:59:03Z</time></trkpt><trkpt lat="42.64602676132816" lon="11.987994383991929"><ele>345.0</ele><time>2026-04-18T17:59:04Z</time></trkpt><trkpt lat="42.646020490995696" lon="11.988093192402452"><ele>345.0</ele><time>2026-04-18T17:59:05Z</time></trkpt><trkpt lat="42.64601473326233" lon="11.988183923478356"><ele>345.0</ele><time>2026-04-18T17:59:06Z</time></trkpt><trkpt lat="42.64615417895011" lon="11.988328387154791"><ele>349.5</ele><time>2026-04-18T17:59:07Z</time></trkpt><trkpt lat="42.64628916811127" lon="11.988430369122808"><ele>354.0</ele><time>2026-04-18T17:59:08Z</time></trkpt><trkpt lat="42.64642081406519" lon="11.988578431464694"><ele>358.5</ele><time>2026-04-18T17:59:09Z</time></trkpt><trkpt lat="42.64652925547296" lon="11.988651780525078"><ele>363.0</ele><time>2026-04-18T17:59:10Z</time></trkpt><trkpt lat="42.64662858818192" lon="11.988682494841761"><ele>363.0</ele><time>2026-04-18T17:59:11Z</time></trkpt><trkpt lat="42.64670883502788" lon="11.988636053845743"><ele>363.0</ele><time>2026-04-18T17:59:12Z</time></trkpt><trkpt lat="42.646768909617876" lon="11.988529360903572"><ele>363.0</ele><time>2026-04-18T17:59:13Z</time></trkpt><trkpt lat="42.646780943620264" lon="11.988395496302836"><ele>363.0</ele><time>2026-04-18T17:59:14Z</time></trkpt><trkpt lat="42.64673479290736" lon="11.988259443495803"><ele>363.0</ele><time>2026-04-18T17:59:15Z</time></trkpt><trkpt lat="42.64663150233337" lon="11.988134055319422"><ele>361.25</ele><time>2026-04-18T17:59:16Z</time></trkpt><trkpt lat="42.64649330555762" lon="11.988020195096567"><ele>359.5</ele><time>2026-04-18T17:59:17Z</time></trkpt><trkpt lat="42.646392737145135" lon="11.987912982317162"><ele>357.75</ele><time>2026-04-18T17:59:18Z</time></trkpt><trkpt lat="42.646340802034764" lon="11.987780216616013"><ele>356.0</ele><time>2026-04-18T17:59:19Z</time></trkpt><trkpt lat="42.64632492760924" lon="11.987598850635111"><ele>357.6666666666667</ele><time>2026-04-18T17:59:20Z</time></trkpt><trkpt lat="42.646307435642356" lon="11.987375280986267"><ele>359.3333333333333</ele><time>2026-04-18T17:59:21Z</time></trkpt><trkpt lat="42.64629087045037" lon="11.987150769130983"><ele>361.0</ele><time>2026-04-18T17:59:22Z</time></trkpt><trkpt lat="42.64627087509528" lon="11.986929843190302"><ele>361.0</ele><time>2026-04-18T17:59:23Z</time></trkpt><trkpt lat="42.646256156905565" lon="11.986733139923635"><ele>361.0</ele><time>2026-04-18T17:59:24Z</time></trkpt><trkpt lat="42.646256260581595" lon="11.986540563986235"><ele>361.0</ele><time>2026-04-18T17:59:25Z</time></trkpt><trkpt lat="42.64628428503965" lon="11.986375416123012"><ele>361.0</ele><time>2026-04-18T17:59:26Z</time></trkpt><trkpt lat="42.6462945940577" lon="11.986187567531248"><ele>361.0</ele><time>2026-04-18T17:59:27Z</time></trkpt><trkpt lat="42.64631909481629" lon="11.986043661134131"><ele>361.0</ele><time>2026-04-18T17:59:28Z</time></trkpt><trkpt lat="42.646333015380606" lon="11.985903220042362"><ele>361.0</ele><time>2026-04-18T17:59:29Z</time></trkpt><trkpt lat="42.64637073762412" lon="11.98580504348646"><ele>361.0</ele><time>2026-04-18T17:59:30Z</time></trkpt><trkpt lat="42.64643773061125" lon="11.985718924038892"><ele>361.0</ele><time>2026-04-18T17:59:31Z</time></trkpt><trkpt lat="42.64654719305178" lon="11.985686389091548"><ele>360.0</ele><time>2026-04-18T17:59:32Z</time></trkpt><trkpt lat="42.64663273799893" lon="11.985689679910285"><ele>359.0</ele><time>2026-04-18T17:59:33Z</time></trkpt><trkpt lat="42.64670434282856" lon="11.985741891062895"><ele>358.0</ele><time>2026-04-18T17:59:34Z</time></trkpt><trkpt lat="42.646838362176815" lon="11.985798429841264"><ele>357.0</ele><time>2026-04-18T17:59:35Z</time></trkpt><trkpt lat="42.64699809818191" lon="11.98587314635043"><ele>360.0</ele><time>2026-04-18T17:59:36Z</time></trkpt><trkpt lat="42.64714717782769" lon="11.985967279053432"><ele>363.0</ele><time>2026-04-18T17:59:37Z</time></trkpt><trkpt lat="42.647271589935755" lon="11.986083572182476"><ele>366.0</ele><time>2026-04-18T17:59:38Z</time></trkpt><trkpt lat="42.64743673956441" lon="11.9862513397929"><ele>366.0</ele><time>2026-04-18T17:59:39Z</time></trkpt><trkpt lat="42.647586883160486" lon="11.986451638746608"><ele>366.0</ele><time>2026-04-18T17:59:40Z</time></trkpt><trkpt lat="42.647732892066905" lon="11.986606159226854"><ele>366.0</ele><time>2026-04-18T17:59:41Z</time></trkpt><trkpt lat="42.64785522594263" lon="11.986755944175153"><ele>367.25</ele><time>2026-04-18T17:59:42Z</time></trkpt><trkpt lat="42.647947214156666" lon="11.986861658995725"><ele>368.5</ele><time>2026-04-18T17:59:43Z</time></trkpt><trkpt lat="42.648087303867484" lon="11.986906932707953"><ele>369.75</ele><time>2026-04-18T17:59:45Z</time></trkpt><trkpt lat="42.648180255680444" lon="11.986894385187654"><ele>371.0</ele><time>2026-04-18T17:59:46Z</time></trkpt><trkpt lat="42.648286723737954" lon="11.986750240006408"><ele>370.0</ele><time>2026-04-18T17:59:47Z</time></trkpt><trkpt lat="42.64842222825057" lon="11.9865850605015"><ele>369.0</ele><time>2026-04-18T17:59:48Z</time></trkpt><trkpt lat="42.64860162706508" lon="11.986420703176227"><ele>368.0</ele><time>2026-04-18T17:59:49Z</time></trkpt><trkpt lat="42.64879128229193" lon="11.986285882366039"><ele>370.33333333333337</ele><time>2026-04-18T17:59:50Z</time></trkpt><trkpt lat="42.6489689553002" lon="11.986143970485342"><ele>372.6666666666667</ele><time>2026-04-18T17:59:51Z</time></trkpt><trkpt lat="42.649150958556895" lon="11.985985999364866"><ele>375.0</ele><time>2026-04-18T17:59:52Z</time></trkpt><trkpt lat="42.64931361070946" lon="11.985843735928174"><ele>375.0</ele><time>2026-04-18T17:59:53Z</time></trkpt><trkpt lat="42.649428293374136" lon="11.985735146545872"><ele>375.0</ele><time>2026-04-18T17:59:54Z</time></trkpt><trkpt lat="42.649569528440615" lon="11.985613357201093"><ele>375.0</ele><time>2026-04-18T17:59:55Z</time></trkpt><trkpt lat="42.649690121338026" lon="11.985492648070121"><ele>378.33333333333337</ele><time>2026-04-18T17:59:56Z</time></trkpt><trkpt lat="42.64980929956023" lon="11.985343013123419"><ele>381.6666666666667</ele><time>2026-04-18T17:59:57Z</time></trkpt><trkpt lat="42.64991394926455" lon="11.985182674908096"><ele>385.0</ele><time>2026-04-18T17:59:58Z</time></trkpt><trkpt lat="42.65002415894283" lon="11.985057244293202"><ele>385.0</ele><time>2026-04-18T17:59:59Z</time></trkpt><trkpt lat="42.65011186423179" lon="11.984969477106203"><ele>385.0</ele><time>2026-04-18T18:00:00Z</time></trkpt><trkpt lat="42.65017417443245" lon="11.984896079416817"><ele>385.0</ele><time>2026-04-18T18:00:01Z</time></trkpt><trkpt lat="42.65018507747203" lon="11.984753207217686"><ele>385.0</ele><time>2026-04-18T18:00:02Z</time></trkpt><trkpt lat="42.65024186080809" lon="11.9846556423433"><ele>385.0</ele><time>2026-04-18T18:00:03Z</time></trkpt><trkpt lat="42.65030451482915" lon="11.984557599892891"><ele>385.00000000000006</ele><time>2026-04-18T18:00:04Z</time></trkpt><trkpt lat="42.6503748501549" lon="11.984475336274713"><ele>385.0</ele><time>2026-04-18T18:00:05Z</time></trkpt><trkpt lat="42.650435709606626" lon="11.984396681881513"><ele>385.0</ele><time>2026-04-18T18:00:06Z</time></trkpt><trkpt lat="42.650488418244024" lon="11.984326056386479"><ele>385.0</ele><time>2026-04-18T18:00:07Z</time></trkpt><trkpt lat="42.650582293604636" lon="11.98422421723968"><ele>385.00000000000006</ele><time>2026-04-18T18:00:09Z</time></trkpt><trkpt lat="42.650645147811844" lon="11.98418318759009"><ele>385.0</ele><time>2026-04-18T18:00:10Z</time></trkpt><trkpt lat="42.65072716580395" lon="11.984146722785546"><ele>385.00000000000006</ele><time>2026-04-18T18:00:11Z</time></trkpt><trkpt lat="42.65081471902252" lon="11.984114744251759"><ele>385.0</ele><time>2026-04-18T18:00:12Z</time></trkpt><trkpt lat="42.65089310683977" lon="11.984100831992407"><ele>385.0</ele><time>2026-04-18T18:00:13Z</time></trkpt><trkpt lat="42.65096471157689" lon="11.984117691064613"><ele>385.0</ele><time>2026-04-18T18:00:14Z</time></trkpt><trkpt lat="42.65102282738063" lon="11.984190110741682"><ele>385.00000000000006</ele><time>2026-04-18T18:00:15Z</time></trkpt><trkpt lat="42.65110143017139" lon="11.984253745949843"><ele>385.0</ele><time>2026-04-18T18:00:16Z</time></trkpt><trkpt lat="42.65120460254672" lon="11.984357099952815"><ele>385.0</ele><time>2026-04-18T18:00:17Z</time></trkpt><trkpt lat="42.65132572973475" lon="11.984470122857568"><ele>385.0</ele><time>2026-04-18T18:00:18Z</time></trkpt><trkpt lat="42.65143353541645" lon="11.984599111656827"><ele>385.0</ele><time>2026-04-18T18:00:19Z</time></trkpt><trkpt lat="42.651517723469546" lon="11.984709659441101"><ele>385.0</ele><time>2026-04-18T18:00:20Z</time></trkpt><trkpt lat="42.651582242306475" lon="11.984782854410769"><ele>385.0</ele><time>2026-04-18T18:00:21Z</time></trkpt><trkpt lat="42.65169758497259" lon="11.984804123630337"><ele>385.0</ele><time>2026-04-18T18:00:23Z</time></trkpt><trkpt lat="42.65175208153559" lon="11.984745322247418"><ele>385.0</ele><time>2026-04-18T18:00:24Z</time></trkpt><trkpt lat="42.65177439031159" lon="11.984559889327336"><ele>385.0</ele><time>2026-04-18T18:00:26Z</time></trkpt><trkpt lat="42.65178164851476" lon="11.984433621469657"><ele>385.0</ele><time>2026-04-18T18:00:27Z</time></trkpt><trkpt lat="42.65178667389924" lon="11.98431775544302"><ele>385.00000000000006</ele><time>2026-04-18T18:00:28.001Z</time></trkpt><trkpt lat="42.651808225747644" lon="11.984205465386427"><ele>385.0</ele><time>2026-04-18T18:00:30.001Z</time></trkpt><trkpt lat="42.65190199501844" lon="11.984192202490291"><ele>385.0</ele><time>2026-04-18T18:00:31.001Z</time></trkpt><trkpt lat="42.65196706180786" lon="11.984206406155769"><ele>385.0</ele><time>2026-04-18T18:00:32.001Z</time></trkpt><trkpt lat="42.65202413128865" lon="11.984242774475133"><ele>385.00000000000006</ele><time>2026-04-18T18:00:33.001Z</time></trkpt><trkpt lat="42.652059658052735" lon="11.984356137693618"><ele>385.0</ele><time>2026-04-18T18:00:34.001Z</time></trkpt><trkpt lat="42.65211241644218" lon="11.98448681427516"><ele>387.0</ele><time>2026-04-18T18:00:35.001Z</time></trkpt><trkpt lat="42.652148051922644" lon="11.984651901468622"><ele>389.0</ele><time>2026-04-18T18:00:36.001Z</time></trkpt><trkpt lat="42.65219650473675" lon="11.984778364988976"><ele>391.0</ele><time>2026-04-18T18:00:37.001Z</time></trkpt><trkpt lat="42.65222992733846" lon="11.984870654928182"><ele>393.0</ele><time>2026-04-18T18:00:38.001Z</time></trkpt><trkpt lat="42.65229572730204" lon="11.984977816866344"><ele>395.0</ele><time>2026-04-18T18:00:39.001Z</time></trkpt><trkpt lat="42.65236543264882" lon="11.985079677544523"><ele>394.99999999999994</ele><time>2026-04-18T18:00:40.001Z</time></trkpt><trkpt lat="42.65242129530096" lon="11.985174917968216"><ele>395.0</ele><time>2026-04-18T18:00:41.001Z</time></trkpt><trkpt lat="42.65247727689037" lon="11.985289694759972"><ele>395.0</ele><time>2026-04-18T18:00:42.001Z</time></trkpt><trkpt lat="42.65253305010212" lon="11.985411743908145"><ele>395.0</ele><time>2026-04-18T18:00:43.001Z</time></trkpt><trkpt lat="42.6525816339352" lon="11.985498812309675"><ele>394.99999999999994</ele><time>2026-04-18T18:00:44.001Z</time></trkpt><trkpt lat="42.652632404478254" lon="11.985551535731622"><ele>395.0</ele><time>2026-04-18T18:00:45.001Z</time></trkpt><trkpt lat="42.65268490638101" lon="11.985609556608251"><ele>395.0</ele><time>2026-04-18T18:00:46.001Z</time></trkpt><trkpt lat="42.652765847800325" lon="11.985597553278325"><ele>395.0</ele><time>2026-04-18T18:00:47.001Z</time></trkpt><trkpt lat="42.65284486026878" lon="11.985589175542268"><ele>395.0</ele><time>2026-04-18T18:00:48.001Z</time></trkpt><trkpt lat="42.65293180546312" lon="11.985558478484247"><ele>395.0</ele><time>2026-04-18T18:00:49.001Z</time></trkpt><trkpt lat="42.65303537191518" lon="11.985494444106054"><ele>395.0</ele><time>2026-04-18T18:00:50.001Z</time></trkpt><trkpt lat="42.65314715884509" lon="11.98539770475763"><ele>395.75</ele><time>2026-04-18T18:00:51.001Z</time></trkpt><trkpt lat="42.65327686836849" lon="11.985316522793166"><ele>396.5</ele><time>2026-04-18T18:00:52.001Z</time></trkpt><trkpt lat="42.65338212978758" lon="11.98523553375254"><ele>397.25</ele><time>2026-04-18T18:00:53Z</time></trkpt><trkpt lat="42.65347490063909" lon="11.985158747471065"><ele>398.0</ele><time>2026-04-18T18:00:54Z</time></trkpt><trkpt lat="42.65359008572231" lon="11.985122445810896"><ele>399.75</ele><time>2026-04-18T18:00:55Z</time></trkpt><trkpt lat="42.653705845067265" lon="11.985099181441239"><ele>401.5</ele><time>2026-04-18T18:00:56Z</time></trkpt><trkpt lat="42.653826117643966" lon="11.985051708011882"><ele>403.25</ele><time>2026-04-18T18:00:57Z</time></trkpt><trkpt lat="42.65395523258717" lon="11.984977085564642"><ele>405.0</ele><time>2026-04-18T18:00:58Z</time></trkpt><trkpt lat="42.654086321596175" lon="11.984904534926267"><ele>406.8</ele><time>2026-04-18T18:00:59Z</time></trkpt><trkpt lat="42.6542120589071" lon="11.984820548999979"><ele>408.6</ele><time>2026-04-18T18:01:00Z</time></trkpt><trkpt lat="42.65431395951831" lon="11.984758343380422"><ele>410.4</ele><time>2026-04-18T18:01:01Z</time></trkpt><trkpt lat="42.65439012852097" lon="11.984704191062423"><ele>412.2</ele><time>2026-04-18T18:01:02Z</time></trkpt><trkpt lat="42.65445916023374" lon="11.984649867724704"><ele>414.0</ele><time>2026-04-18T18:01:03Z</time></trkpt><trkpt lat="42.65453048921802" lon="11.984581149932305"><ele>416.1666666666667</ele><time>2026-04-18T18:01:04Z</time></trkpt><trkpt lat="42.654589717235474" lon="11.984463502692849"><ele>418.33333333333337</ele><time>2026-04-18T18:01:05Z</time></trkpt><trkpt lat="42.654656842747535" lon="11.984373396333721"><ele>420.5</ele><time>2026-04-18T18:01:06Z</time></trkpt><trkpt lat="42.654716903721464" lon="11.984309622205902"><ele>422.6666666666667</ele><time>2026-04-18T18:01:07Z</time></trkpt><trkpt lat="42.65478146650759" lon="11.984284309165414"><ele>424.83333333333337</ele><time>2026-04-18T18:01:08Z</time></trkpt><trkpt lat="42.65487033900563" lon="11.98430386019988"><ele>427.0</ele><time>2026-04-18T18:01:09Z</time></trkpt><trkpt lat="42.65496271722646" lon="11.984297723777955"><ele>427.0</ele><time>2026-04-18T18:01:10Z</time></trkpt><trkpt lat="42.655056512609185" lon="11.984315926943058"><ele>427.0</ele><time>2026-04-18T18:01:11Z</time></trkpt><trkpt lat="42.65516874500079" lon="11.984334816915538"><ele>427.0</ele><time>2026-04-18T18:01:12Z</time></trkpt><trkpt lat="42.65530456650153" lon="11.984340736923016"><ele>427.0</ele><time>2026-04-18T18:01:13Z</time></trkpt><trkpt lat="42.65542253782345" lon="11.984358794317291"><ele>428.6666666666667</ele><time>2026-04-18T18:01:14Z</time></trkpt><trkpt lat="42.65551631234886" lon="11.98438589149845"><ele>430.33333333333337</ele><time>2026-04-18T18:01:15Z</time></trkpt><trkpt lat="42.65559055372566" lon="11.984370990707628"><ele>432.0</ele><time>2026-04-18T18:01:16Z</time></trkpt><trkpt lat="42.65566957065816" lon="11.984327731618205"><ele>433.66666666666663</ele><time>2026-04-18T18:01:17Z</time></trkpt><trkpt lat="42.655742991565795" lon="11.984274511253336"><ele>435.3333333333333</ele><time>2026-04-18T18:01:18Z</time></trkpt><trkpt lat="42.65582735546187" lon="11.984189777897575"><ele>437.0</ele><time>2026-04-18T18:01:19Z</time></trkpt><trkpt lat="42.65592872915001" lon="11.984076335291807"><ele>438.0</ele><time>2026-04-18T18:01:20Z</time></trkpt><trkpt lat="42.65604026387568" lon="11.983971019563125"><ele>439.0</ele><time>2026-04-18T18:01:21Z</time></trkpt><trkpt lat="42.65615422743103" lon="11.983912635424062"><ele>440.0</ele><time>2026-04-18T18:01:22Z</time></trkpt><trkpt lat="42.65625764578867" lon="11.983831866209432"><ele>441.0</ele><time>2026-04-18T18:01:23Z</time></trkpt><trkpt lat="42.65638845123706" lon="11.983795617234064"><ele>442.0</ele><time>2026-04-18T18:01:24Z</time></trkpt><trkpt lat="42.65651560171922" lon="11.983687195709786"><ele>443.0</ele><time>2026-04-18T18:01:25Z</time></trkpt><trkpt lat="42.656632451924494" lon="11.983602271675702"><ele>444.0</ele><time>2026-04-18T18:01:26Z</time></trkpt><trkpt lat="42.65672549021113" lon="11.983541642643544"><ele>445.0</ele><time>2026-04-18T18:01:27Z</time></trkpt><trkpt lat="42.65681370251266" lon="11.98347848442283"><ele>445.0</ele><time>2026-04-18T18:01:28Z</time></trkpt><trkpt lat="42.656910233034274" lon="11.983411147514797"><ele>445.0</ele><time>2026-04-18T18:01:29Z</time></trkpt><trkpt lat="42.65701661435323" lon="11.983346227867747"><ele>445.0</ele><time>2026-04-18T18:01:30Z</time></trkpt><trkpt lat="42.65711098388391" lon="11.983257613151109"><ele>445.0</ele><time>2026-04-18T18:01:31Z</time></trkpt><trkpt lat="42.6571926860252" lon="11.983192086738132"><ele>445.0</ele><time>2026-04-18T18:01:32Z</time></trkpt><trkpt lat="42.65726924759558" lon="11.983116723114833"><ele>446.2</ele><time>2026-04-18T18:01:33Z</time></trkpt><trkpt lat="42.657342485913276" lon="11.983035079121116"><ele>447.4</ele><time>2026-04-18T18:01:34Z</time></trkpt><trkpt lat="42.65741834138844" lon="11.982944423448387"><ele>448.6</ele><time>2026-04-18T18:01:35Z</time></trkpt><trkpt lat="42.65751073480377" lon="11.982845432934996"><ele>449.8</ele><time>2026-04-18T18:01:36Z</time></trkpt><trkpt lat="42.65759125570887" lon="11.98276529339493"><ele>451.0</ele><time>2026-04-18T18:01:37Z</time></trkpt><trkpt lat="42.65768020962829" lon="11.982702597566435"><ele>451.00000000000006</ele><time>2026-04-18T18:01:38Z</time></trkpt><trkpt lat="42.65777470376405" lon="11.982680775234485"><ele>451.0</ele><time>2026-04-18T18:01:39Z</time></trkpt><trkpt lat="42.6578667571308" lon="11.982654241809374"><ele>451.0</ele><time>2026-04-18T18:01:40Z</time></trkpt><trkpt lat="42.65795220337773" lon="11.982648396430154"><ele>451.0</ele><time>2026-04-18T18:01:41Z</time></trkpt><trkpt lat="42.658037624762635" lon="11.982650146493762"><ele>451.00000000000006</ele><time>2026-04-18T18:01:42Z</time></trkpt><trkpt lat="42.65812241677503" lon="11.982640507220836"><ele>451.0</ele><time>2026-04-18T18:01:43Z</time></trkpt><trkpt lat="42.658228841460485" lon="11.982646513080274"><ele>451.8</ele><time>2026-04-18T18:01:44Z</time></trkpt><trkpt lat="42.658330541937445" lon="11.982632124952925"><ele>452.6</ele><time>2026-04-18T18:01:45Z</time></trkpt><trkpt lat="42.6584200481551" lon="11.982622534576729"><ele>453.4</ele><time>2026-04-18T18:01:46Z</time></trkpt><trkpt lat="42.65852075435769" lon="11.982569006189658"><ele>454.2</ele><time>2026-04-18T18:01:47Z</time></trkpt><trkpt lat="42.658630684476044" lon="11.982522599177383"><ele>455.0</ele><time>2026-04-18T18:01:48Z</time></trkpt><trkpt lat="42.658722222106576" lon="11.982495061852944"><ele>455.0</ele><time>2026-04-18T18:01:49Z</time></trkpt><trkpt lat="42.65879432658621" lon="11.982480508344555"><ele>455.0</ele><time>2026-04-18T18:01:50Z</time></trkpt><trkpt lat="42.65889438787536" lon="11.982461536463601"><ele>455.0</ele><time>2026-04-18T18:01:51Z</time></trkpt><trkpt lat="42.658977946392945" lon="11.982469680395438"><ele>455.0</ele><time>2026-04-18T18:01:52Z</time></trkpt><trkpt lat="42.65907555728707" lon="11.982491101750002"><ele>455.0</ele><time>2026-04-18T18:01:53Z</time></trkpt><trkpt lat="42.65919509995693" lon="11.982533455095545"><ele>454.0</ele><time>2026-04-18T18:01:54Z</time></trkpt><trkpt lat="42.6593335866676" lon="11.982573613581712"><ele>453.0</ele><time>2026-04-18T18:01:55Z</time></trkpt><trkpt lat="42.659457277971235" lon="11.982620954090395"><ele>452.0</ele><time>2026-04-18T18:01:56Z</time></trkpt><trkpt lat="42.65954331197819" lon="11.98264240242217"><ele>451.0</ele><time>2026-04-18T18:01:57Z</time></trkpt><trkpt lat="42.65961250170927" lon="11.982667714669653"><ele>450.0</ele><time>2026-04-18T18:01:58Z</time></trkpt><trkpt lat="42.6597121345734" lon="11.982682714459399"><ele>450.0</ele><time>2026-04-18T18:02:00Z</time></trkpt><trkpt lat="42.65982809828895" lon="11.982562447459646"><ele>450.0</ele><time>2026-04-18T18:02:03Z</time></trkpt><trkpt lat="42.6598340500725" lon="11.982469824060772"><ele>450.0</ele><time>2026-04-18T18:02:04Z</time></trkpt><trkpt lat="42.65988021009025" lon="11.982346247042763"><ele>450.0</ele><time>2026-04-18T18:02:05Z</time></trkpt><trkpt lat="42.65991259280087" lon="11.982212501106797"><ele>450.0</ele><time>2026-04-18T18:02:06Z</time></trkpt><trkpt lat="42.6599385093954" lon="11.982107986440298"><ele>451.3333333333333</ele><time>2026-04-18T18:02:07Z</time></trkpt><trkpt lat="42.65996375234195" lon="11.982008817718496"><ele>452.66666666666663</ele><time>2026-04-18T18:02:08Z</time></trkpt><trkpt lat="42.659970694420565" lon="11.981912408514031"><ele>454.0</ele><time>2026-04-18T18:02:09Z</time></trkpt><trkpt lat="42.66000997259715" lon="11.981827238168018"><ele>455.3333333333333</ele><time>2026-04-18T18:02:10Z</time></trkpt><trkpt lat="42.6600167055118" lon="11.981735595361368"><ele>456.66666666666663</ele><time>2026-04-18T18:02:11Z</time></trkpt><trkpt lat="42.6600584327585" lon="11.981582543591752"><ele>458.0</ele><time>2026-04-18T18:02:13Z</time></trkpt><trkpt lat="42.6601014573953" lon="11.981434246216395"><ele>458.0</ele><time>2026-04-18T18:02:15Z</time></trkpt><trkpt lat="42.66014202569144" lon="11.981342496509816"><ele>457.99999999999994</ele><time>2026-04-18T18:02:17Z</time></trkpt><trkpt lat="42.66002626694088" lon="11.981261544632577"><ele>457.99999999999994</ele><time>2026-04-18T18:02:19Z</time></trkpt><trkpt lat="42.659953380997166" lon="11.981212303700255"><ele>458.0</ele><time>2026-04-18T18:02:21Z</time></trkpt><trkpt lat="42.65991881208658" lon="11.981089747930973"><ele>458.0</ele><time>2026-04-18T18:02:24Z</time></trkpt><trkpt lat="42.65985503180862" lon="11.981098532463298"><ele>458.0</ele><time>2026-04-18T18:02:28Z</time></trkpt><trkpt lat="42.65992083914323" lon="11.981091868364942"><ele>458.0</ele><time>2026-04-18T18:03:11Z</time></trkpt><trkpt lat="42.65996425512041" lon="11.981023633633649"><ele>458.0</ele><time>2026-04-18T18:03:20Z</time></trkpt><trkpt lat="42.66002134974363" lon="11.980967672490557"><ele>458.0</ele><time>2026-04-18T18:03:33Z</time></trkpt><trkpt lat="42.65992855162879" lon="11.98095137903176"><ele>458.0</ele><time>2026-04-18T18:04:47Z</time></trkpt><trkpt lat="42.65986945626344" lon="11.980893929588705"><ele>458.0</ele><time>2026-04-18T18:10:43.999Z</time></trkpt><trkpt lat="42.6598106479377" lon="11.980862384285873"><ele>458.0</ele><time>2026-04-18T18:26:47.999Z</time></trkpt><trkpt lat="42.659904430641014" lon="11.980834613208991"><ele>457.99999999999994</ele><time>2026-04-18T18:26:59.999Z</time></trkpt><trkpt lat="42.659966803956124" lon="11.980863980130831"><ele>458.0</ele><time>2026-04-18T18:36:59Z</time></trkpt><trkpt lat="42.6599629842489" lon="11.980989656627953"><ele>458.0</ele><time>2026-04-18T18:37:24.999Z</time></trkpt><trkpt lat="42.659934353480594" lon="11.981066901475012"><ele>458.0</ele><time>2026-04-18T18:37:30.999Z</time></trkpt><trkpt lat="42.659956012407044" lon="11.981154855067533"><ele>457.99999999999994</ele><time>2026-04-18T18:38:16Z</time></trkpt><trkpt lat="42.65999215822871" lon="11.981072121861088"><ele>458.0</ele><time>2026-04-18T18:39:29.999Z</time></trkpt><trkpt lat="42.65988008522587" lon="11.981007766384327"><ele>458.0</ele><time>2026-04-18T18:39:45.999Z</time></trkpt><trkpt lat="42.659971489767564" lon="11.981071526767735"><ele>457.99999999999994</ele><time>2026-04-18T18:39:48.999Z</time></trkpt><trkpt lat="42.65997402174799" lon="11.981169861432885"><ele>457.99999999999994</ele><time>2026-04-18T18:40:25Z</time></trkpt><trkpt lat="42.65990648703321" lon="11.981158571856172"><ele>458.0</ele><time>2026-04-18T18:41:54.999Z</time></trkpt><trkpt lat="42.65996847508444" lon="11.980925799958124"><ele>458.0</ele><time>2026-04-18T18:43:21Z</time></trkpt><trkpt lat="42.6599467729905" lon="11.981044104173726"><ele>457.99999999999994</ele><time>2026-04-18T18:43:23Z</time></trkpt><trkpt lat="42.659916076316236" lon="11.981141949803474"><ele>458.0</ele><time>2026-04-18T18:43:48.999Z</time></trkpt><trkpt lat="42.659953634124676" lon="11.981061750376988"><ele>458.0</ele><time>2026-04-18T18:44:02.999Z</time></trkpt><trkpt lat="42.65994237935778" lon="11.981166229118028"><ele>458.0</ele><time>2026-04-18T18:45:07Z</time></trkpt><trkpt lat="42.65997211268904" lon="11.981085647131687"><ele>457.99999999999994</ele><time>2026-04-18T18:45:35.999Z</time></trkpt><trkpt lat="42.65990380183137" lon="11.981148128513102"><ele>458.0</ele><time>2026-04-18T18:48:20.999Z</time></trkpt><trkpt lat="42.659943665200906" lon="11.98103761276297"><ele>457.99999999999994</ele><time>2026-04-18T18:55:51Z</time></trkpt><trkpt lat="42.6599837559543" lon="11.98096635933596"><ele>458.0</ele><time>2026-04-18T18:55:58Z</time></trkpt><trkpt lat="42.65997954233313" lon="11.980869014375209"><ele>458.0</ele><time>2026-04-18T18:59:36Z</time></trkpt><trkpt lat="42.660077538971755" lon="11.980855588238104"><ele>458.0</ele><time>2026-04-18T19:01:07.999Z</time></trkpt><trkpt lat="42.66003072316489" lon="11.980797349157012"><ele>457.99999999999994</ele><time>2026-04-18T19:01:56Z</time></trkpt><trkpt lat="42.659962290262996" lon="11.98080478945378"><ele>458.0</ele><time>2026-04-18T19:02:02Z</time></trkpt><trkpt lat="42.660011871658774" lon="11.980950651367985"><ele>458.0</ele><time>2026-04-18T19:02:17.999Z</time></trkpt><trkpt lat="42.66007236788778" lon="11.980982198150011"><ele>458.0</ele><time>2026-04-18T19:02:24.999Z</time></trkpt><trkpt lat="42.66003871806237" lon="11.981181828316284"><ele>458.0</ele><time>2026-04-18T19:03:32Z</time></trkpt><trkpt lat="42.6600648710515" lon="11.980967924827159"><ele>458.0</ele><time>2026-04-18T19:03:34Z</time></trkpt><trkpt lat="42.66004143377549" lon="11.981148998674826"><ele>458.0</ele><time>2026-04-18T19:03:49Z</time></trkpt><trkpt lat="42.66006283761056" lon="11.980934263526125"><ele>458.0</ele><time>2026-04-18T19:03:58Z</time></trkpt><trkpt lat="42.66003863424332" lon="11.981181912135316"><ele>458.0</ele><time>2026-04-18T19:04:03Z</time></trkpt><trkpt lat="42.66005259361453" lon="11.980877522655128"><ele>458.0</ele><time>2026-04-18T19:04:33.999Z</time></trkpt><trkpt lat="42.66004097367152" lon="11.981131984467321"><ele>458.0</ele><time>2026-04-18T19:04:40.999Z</time></trkpt><trkpt lat="42.66006090245272" lon="11.980871877581716"><ele>458.0</ele><time>2026-04-18T19:04:53.427Z</time></trkpt><trkpt lat="42.66002264595479" lon="11.980962706743743"><ele>458.0</ele><time>2026-04-18T19:05:34.999Z</time></trkpt><trkpt lat="42.65997259746585" lon="11.980889886965961"><ele>457.99999999999994</ele><time>2026-04-18T19:05:46Z</time></trkpt><trkpt lat="42.660000653381516" lon="11.980812189245228"><ele>457.99999999999994</ele><time>2026-04-18T19:06:32Z</time></trkpt><trkpt lat="42.66007188928964" lon="11.980801223707687"><ele>458.0</ele><time>2026-04-18T19:10:04Z</time></trkpt><trkpt lat="42.659949911778504" lon="11.980798492077838"><ele>458.0</ele><time>2026-04-18T19:10:27Z</time></trkpt><trkpt lat="42.66007461015265" lon="11.980839291089223"><ele>458.0</ele><time>2026-04-18T19:17:40.999Z</time></trkpt><trkpt lat="42.66017234579966" lon="11.981146364069788"><ele>458.0</ele><time>2026-04-18T19:17:44.999Z</time></trkpt><trkpt lat="42.660052638942304" lon="11.980865738538869"><ele>458.0</ele><time>2026-04-18T19:17:46.999Z</time></trkpt><trkpt lat="42.660271609241974" lon="11.981026930745674"><ele>458.0</ele><time>2026-04-18T19:18:12.022Z</time></trkpt><trkpt lat="42.6601022863352" lon="11.980846167080715"><ele>458.0</ele><time>2026-04-18T19:18:33.999Z</time></trkpt><trkpt lat="42.66013261184571" lon="11.980760101522403"><ele>457.99999999999994</ele><time>2026-04-18T19:18:54Z</time></trkpt><trkpt lat="42.6600110002911" lon="11.980870256228897"><ele>457.99999999999994</ele><time>2026-04-18T19:26:47.999Z</time></trkpt><trkpt lat="42.66007702326891" lon="11.98084017766516"><ele>458.0</ele><time>2026-04-18T19:26:48.999Z</time></trkpt><trkpt lat="42.66013861260123" lon="11.980792683417542"><ele>458.0</ele><time>2026-04-18T19:37:14.999Z</time></trkpt><trkpt lat="42.66008322629875" lon="11.980625414597336"><ele>456.0</ele><time>2026-04-18T19:49:54.999Z</time></trkpt><trkpt lat="42.66012274357013" lon="11.980902035234347"><ele>458.0</ele><time>2026-04-18T19:49:57.999Z</time></trkpt><trkpt lat="42.66007379173916" lon="11.980796417151947"><ele>456.0</ele><time>2026-04-18T19:50:30Z</time></trkpt></trkseg></trk></gpx>